<?xml version="1.0" encoding="UTF-8" standalone="no" ?>
<gpx xmlns="http://www.topografix.com/GPX/1/1" xmlns:xsi="http://www.w3.org/2001/XMLSchema-instance" xsi:schemaLocation="http://www.topografix.com/GPX/1/1 http://www.topografix.com/GPX/1/1/gpx.xsd" version="1.1" creator="VisuGPX - https://www.visugpx.com">
  <metadata>
    <name>Tour de Belfort</name>
    <desc><![CDATA[Tour de Belfort (90)]]></desc>
  </metadata>
  <trk>
    <name><![CDATA[Parcours 2]]></name>
    <desc><![CDATA[
]]></desc>
    <trkseg>
      <trkpt lat="47.55343" lon="6.84544">
        <ele>416</ele>
        <time>2010-05-29T10:51:50Z</time>
      </trkpt>
      <trkpt lat="47.55345" lon="6.84537">
        <ele>411</ele>
        <time>2010-05-29T10:51:52Z</time>
      </trkpt>
      <trkpt lat="47.55349" lon="6.84529">
        <ele>412</ele>
        <time>2010-05-29T10:51:54Z</time>
      </trkpt>
      <trkpt lat="47.55349" lon="6.84521">
        <ele>411</ele>
        <time>2010-05-29T10:51:56Z</time>
      </trkpt>
      <trkpt lat="47.5535" lon="6.84513">
        <ele>409.5</ele>
        <time>2010-05-29T10:51:58Z</time>
      </trkpt>
      <trkpt lat="47.55351" lon="6.84506">
        <ele>409</ele>
        <time>2010-05-29T10:52:00Z</time>
      </trkpt>
      <trkpt lat="47.55351" lon="6.84499">
        <ele>409</ele>
        <time>2010-05-29T10:52:02Z</time>
      </trkpt>
      <trkpt lat="47.55351" lon="6.84491">
        <ele>410.5</ele>
        <time>2010-05-29T10:52:04Z</time>
      </trkpt>
      <trkpt lat="47.55352" lon="6.84484">
        <ele>410</ele>
        <time>2010-05-29T10:52:06Z</time>
      </trkpt>
      <trkpt lat="47.55354" lon="6.84477">
        <ele>410.5</ele>
        <time>2010-05-29T10:52:08Z</time>
      </trkpt>
      <trkpt lat="47.55356" lon="6.8447">
        <ele>410.5</ele>
        <time>2010-05-29T10:52:10Z</time>
      </trkpt>
      <trkpt lat="47.55357" lon="6.84463">
        <ele>410.5</ele>
        <time>2010-05-29T10:52:12Z</time>
      </trkpt>
      <trkpt lat="47.55359" lon="6.84457">
        <ele>410</ele>
        <time>2010-05-29T10:52:14Z</time>
      </trkpt>
      <trkpt lat="47.55362" lon="6.8445">
        <ele>409.5</ele>
        <time>2010-05-29T10:52:16Z</time>
      </trkpt>
      <trkpt lat="47.55364" lon="6.84444">
        <ele>409.5</ele>
        <time>2010-05-29T10:52:18Z</time>
      </trkpt>
      <trkpt lat="47.55366" lon="6.84437">
        <ele>409.5</ele>
        <time>2010-05-29T10:52:20Z</time>
      </trkpt>
      <trkpt lat="47.5537" lon="6.8443">
        <ele>410</ele>
        <time>2010-05-29T10:52:22Z</time>
      </trkpt>
      <trkpt lat="47.55372" lon="6.84424">
        <ele>409</ele>
        <time>2010-05-29T10:52:24Z</time>
      </trkpt>
      <trkpt lat="47.55376" lon="6.84417">
        <ele>410</ele>
        <time>2010-05-29T10:52:26Z</time>
      </trkpt>
      <trkpt lat="47.55378" lon="6.84412">
        <ele>410</ele>
        <time>2010-05-29T10:52:28Z</time>
      </trkpt>
      <trkpt lat="47.55381" lon="6.84405">
        <ele>410.5</ele>
        <time>2010-05-29T10:52:30Z</time>
      </trkpt>
      <trkpt lat="47.55383" lon="6.84399">
        <ele>410.5</ele>
        <time>2010-05-29T10:52:32Z</time>
      </trkpt>
      <trkpt lat="47.55385" lon="6.84392">
        <ele>411</ele>
        <time>2010-05-29T10:52:34Z</time>
      </trkpt>
      <trkpt lat="47.55388" lon="6.84386">
        <ele>412</ele>
        <time>2010-05-29T10:52:36Z</time>
      </trkpt>
      <trkpt lat="47.5539" lon="6.8438">
        <ele>412</ele>
        <time>2010-05-29T10:52:38Z</time>
      </trkpt>
      <trkpt lat="47.55393" lon="6.84373">
        <ele>412.5</ele>
        <time>2010-05-29T10:52:40Z</time>
      </trkpt>
      <trkpt lat="47.55397" lon="6.84367">
        <ele>412.5</ele>
        <time>2010-05-29T10:52:42Z</time>
      </trkpt>
      <trkpt lat="47.554" lon="6.8436">
        <ele>412</ele>
        <time>2010-05-29T10:52:44Z</time>
      </trkpt>
      <trkpt lat="47.55403" lon="6.84352">
        <ele>412</ele>
        <time>2010-05-29T10:52:46Z</time>
      </trkpt>
      <trkpt lat="47.55405" lon="6.84345">
        <ele>411.5</ele>
        <time>2010-05-29T10:52:48Z</time>
      </trkpt>
      <trkpt lat="47.55409" lon="6.84338">
        <ele>411</ele>
        <time>2010-05-29T10:52:50Z</time>
      </trkpt>
      <trkpt lat="47.55412" lon="6.84332">
        <ele>409.5</ele>
        <time>2010-05-29T10:52:52Z</time>
      </trkpt>
      <trkpt lat="47.55414" lon="6.84325">
        <ele>409.5</ele>
        <time>2010-05-29T10:52:54Z</time>
      </trkpt>
      <trkpt lat="47.55418" lon="6.84318">
        <ele>410</ele>
        <time>2010-05-29T10:52:56Z</time>
      </trkpt>
      <trkpt lat="47.55421" lon="6.8431">
        <ele>409.5</ele>
        <time>2010-05-29T10:52:58Z</time>
      </trkpt>
      <trkpt lat="47.55424" lon="6.84303">
        <ele>409.5</ele>
        <time>2010-05-29T10:53:00Z</time>
      </trkpt>
      <trkpt lat="47.55428" lon="6.84295">
        <ele>410.5</ele>
        <time>2010-05-29T10:53:02Z</time>
      </trkpt>
      <trkpt lat="47.55433" lon="6.84289">
        <ele>411</ele>
        <time>2010-05-29T10:53:04Z</time>
      </trkpt>
      <trkpt lat="47.55439" lon="6.84284">
        <ele>411.5</ele>
        <time>2010-05-29T10:53:06Z</time>
      </trkpt>
      <trkpt lat="47.55445" lon="6.84283">
        <ele>411.5</ele>
        <time>2010-05-29T10:53:08Z</time>
      </trkpt>
      <trkpt lat="47.55452" lon="6.84283">
        <ele>411.5</ele>
        <time>2010-05-29T10:53:10Z</time>
      </trkpt>
      <trkpt lat="47.55457" lon="6.84288">
        <ele>411.5</ele>
        <time>2010-05-29T10:53:12Z</time>
      </trkpt>
      <trkpt lat="47.55463" lon="6.84294">
        <ele>411.5</ele>
        <time>2010-05-29T10:53:14Z</time>
      </trkpt>
      <trkpt lat="47.55467" lon="6.84302">
        <ele>411.5</ele>
        <time>2010-05-29T10:53:16Z</time>
      </trkpt>
      <trkpt lat="47.55473" lon="6.84308">
        <ele>411.5</ele>
        <time>2010-05-29T10:53:18Z</time>
      </trkpt>
      <trkpt lat="47.55479" lon="6.84314">
        <ele>412</ele>
        <time>2010-05-29T10:53:20Z</time>
      </trkpt>
      <trkpt lat="47.55485" lon="6.84321">
        <ele>412</ele>
        <time>2010-05-29T10:53:22Z</time>
      </trkpt>
      <trkpt lat="47.55491" lon="6.84327">
        <ele>412</ele>
        <time>2010-05-29T10:53:24Z</time>
      </trkpt>
      <trkpt lat="47.55498" lon="6.84334">
        <ele>412</ele>
        <time>2010-05-29T10:53:26Z</time>
      </trkpt>
      <trkpt lat="47.55504" lon="6.84342">
        <ele>412</ele>
        <time>2010-05-29T10:53:28Z</time>
      </trkpt>
      <trkpt lat="47.55511" lon="6.8435">
        <ele>412</ele>
        <time>2010-05-29T10:53:30Z</time>
      </trkpt>
      <trkpt lat="47.55518" lon="6.84358">
        <ele>412</ele>
        <time>2010-05-29T10:53:32Z</time>
      </trkpt>
      <trkpt lat="47.55521" lon="6.84362">
        <ele>412</ele>
        <time>2010-05-29T10:53:33Z</time>
      </trkpt>
      <trkpt lat="47.55525" lon="6.84367">
        <ele>412</ele>
        <time>2010-05-29T10:53:34Z</time>
      </trkpt>
      <trkpt lat="47.55529" lon="6.84371">
        <ele>412</ele>
        <time>2010-05-29T10:53:35Z</time>
      </trkpt>
      <trkpt lat="47.55533" lon="6.84375">
        <ele>412</ele>
        <time>2010-05-29T10:53:36Z</time>
      </trkpt>
      <trkpt lat="47.55536" lon="6.8438">
        <ele>412</ele>
        <time>2010-05-29T10:53:37Z</time>
      </trkpt>
      <trkpt lat="47.5554" lon="6.84385">
        <ele>412</ele>
        <time>2010-05-29T10:53:38Z</time>
      </trkpt>
      <trkpt lat="47.55543" lon="6.84391">
        <ele>412</ele>
        <time>2010-05-29T10:53:39Z</time>
      </trkpt>
      <trkpt lat="47.55547" lon="6.84395">
        <ele>412</ele>
        <time>2010-05-29T10:53:40Z</time>
      </trkpt>
      <trkpt lat="47.55552" lon="6.84399">
        <ele>412</ele>
        <time>2010-05-29T10:53:41Z</time>
      </trkpt>
      <trkpt lat="47.55556" lon="6.84402">
        <ele>411.5</ele>
        <time>2010-05-29T10:53:42Z</time>
      </trkpt>
      <trkpt lat="47.55561" lon="6.84406">
        <ele>411.5</ele>
        <time>2010-05-29T10:53:43Z</time>
      </trkpt>
      <trkpt lat="47.55566" lon="6.84409">
        <ele>411</ele>
        <time>2010-05-29T10:53:44Z</time>
      </trkpt>
      <trkpt lat="47.55571" lon="6.84413">
        <ele>411</ele>
        <time>2010-05-29T10:53:45Z</time>
      </trkpt>
      <trkpt lat="47.55576" lon="6.84417">
        <ele>411</ele>
        <time>2010-05-29T10:53:46Z</time>
      </trkpt>
      <trkpt lat="47.55581" lon="6.84421">
        <ele>411</ele>
        <time>2010-05-29T10:53:47Z</time>
      </trkpt>
      <trkpt lat="47.55587" lon="6.84425">
        <ele>410.5</ele>
        <time>2010-05-29T10:53:48Z</time>
      </trkpt>
      <trkpt lat="47.55592" lon="6.84429">
        <ele>410</ele>
        <time>2010-05-29T10:53:49Z</time>
      </trkpt>
      <trkpt lat="47.55598" lon="6.84433">
        <ele>410</ele>
        <time>2010-05-29T10:53:50Z</time>
      </trkpt>
      <trkpt lat="47.55604" lon="6.84438">
        <ele>410</ele>
        <time>2010-05-29T10:53:51Z</time>
      </trkpt>
      <trkpt lat="47.55611" lon="6.84443">
        <ele>409.5</ele>
        <time>2010-05-29T10:53:52Z</time>
      </trkpt>
      <trkpt lat="47.55617" lon="6.84447">
        <ele>409.5</ele>
        <time>2010-05-29T10:53:53Z</time>
      </trkpt>
      <trkpt lat="47.55624" lon="6.84452">
        <ele>409</ele>
        <time>2010-05-29T10:53:54Z</time>
      </trkpt>
      <trkpt lat="47.5563" lon="6.84458">
        <ele>409</ele>
        <time>2010-05-29T10:53:55Z</time>
      </trkpt>
      <trkpt lat="47.55637" lon="6.84463">
        <ele>408.5</ele>
        <time>2010-05-29T10:53:56Z</time>
      </trkpt>
      <trkpt lat="47.55645" lon="6.84468">
        <ele>408.5</ele>
        <time>2010-05-29T10:53:57Z</time>
      </trkpt>
      <trkpt lat="47.55652" lon="6.84474">
        <ele>408</ele>
        <time>2010-05-29T10:53:58Z</time>
      </trkpt>
      <trkpt lat="47.55659" lon="6.84479">
        <ele>408</ele>
        <time>2010-05-29T10:53:59Z</time>
      </trkpt>
      <trkpt lat="47.55665" lon="6.84485">
        <ele>407.5</ele>
        <time>2010-05-29T10:54:00Z</time>
      </trkpt>
      <trkpt lat="47.55672" lon="6.84491">
        <ele>407</ele>
        <time>2010-05-29T10:54:01Z</time>
      </trkpt>
      <trkpt lat="47.55678" lon="6.84498">
        <ele>407</ele>
        <time>2010-05-29T10:54:02Z</time>
      </trkpt>
      <trkpt lat="47.55684" lon="6.84505">
        <ele>407</ele>
        <time>2010-05-29T10:54:03Z</time>
      </trkpt>
      <trkpt lat="47.5569" lon="6.84513">
        <ele>406.5</ele>
        <time>2010-05-29T10:54:04Z</time>
      </trkpt>
      <trkpt lat="47.55696" lon="6.84522">
        <ele>406</ele>
        <time>2010-05-29T10:54:05Z</time>
      </trkpt>
      <trkpt lat="47.55701" lon="6.84531">
        <ele>406</ele>
        <time>2010-05-29T10:54:06Z</time>
      </trkpt>
      <trkpt lat="47.55707" lon="6.8454">
        <ele>406</ele>
        <time>2010-05-29T10:54:07Z</time>
      </trkpt>
      <trkpt lat="47.55711" lon="6.8455">
        <ele>405.5</ele>
        <time>2010-05-29T10:54:08Z</time>
      </trkpt>
      <trkpt lat="47.55716" lon="6.84561">
        <ele>405</ele>
        <time>2010-05-29T10:54:09Z</time>
      </trkpt>
      <trkpt lat="47.55719" lon="6.84573">
        <ele>405</ele>
        <time>2010-05-29T10:54:10Z</time>
      </trkpt>
      <trkpt lat="47.55724" lon="6.84585">
        <ele>405</ele>
        <time>2010-05-29T10:54:11Z</time>
      </trkpt>
      <trkpt lat="47.55729" lon="6.84595">
        <ele>405</ele>
        <time>2010-05-29T10:54:12Z</time>
      </trkpt>
      <trkpt lat="47.55736" lon="6.84602">
        <ele>405.5</ele>
        <time>2010-05-29T10:54:13Z</time>
      </trkpt>
      <trkpt lat="47.55745" lon="6.84606">
        <ele>405</ele>
        <time>2010-05-29T10:54:14Z</time>
      </trkpt>
      <trkpt lat="47.55753" lon="6.8461">
        <ele>405</ele>
        <time>2010-05-29T10:54:15Z</time>
      </trkpt>
      <trkpt lat="47.55761" lon="6.84615">
        <ele>405</ele>
        <time>2010-05-29T10:54:16Z</time>
      </trkpt>
      <trkpt lat="47.55769" lon="6.8462">
        <ele>405</ele>
        <time>2010-05-29T10:54:17Z</time>
      </trkpt>
      <trkpt lat="47.55776" lon="6.84627">
        <ele>404.5</ele>
        <time>2010-05-29T10:54:18Z</time>
      </trkpt>
      <trkpt lat="47.55782" lon="6.84635">
        <ele>404.5</ele>
        <time>2010-05-29T10:54:19Z</time>
      </trkpt>
      <trkpt lat="47.5579" lon="6.84642">
        <ele>404</ele>
        <time>2010-05-29T10:54:20Z</time>
      </trkpt>
      <trkpt lat="47.55798" lon="6.84649">
        <ele>403.5</ele>
        <time>2010-05-29T10:54:21Z</time>
      </trkpt>
      <trkpt lat="47.55805" lon="6.84655">
        <ele>403</ele>
        <time>2010-05-29T10:54:22Z</time>
      </trkpt>
      <trkpt lat="47.55811" lon="6.8466">
        <ele>402.5</ele>
        <time>2010-05-29T10:54:23Z</time>
      </trkpt>
      <trkpt lat="47.55816" lon="6.84664">
        <ele>402</ele>
        <time>2010-05-29T10:54:24Z</time>
      </trkpt>
      <trkpt lat="47.55821" lon="6.84668">
        <ele>401.5</ele>
        <time>2010-05-29T10:54:25Z</time>
      </trkpt>
      <trkpt lat="47.55825" lon="6.84673">
        <ele>401</ele>
        <time>2010-05-29T10:54:26Z</time>
      </trkpt>
      <trkpt lat="47.55829" lon="6.84679">
        <ele>400.5</ele>
        <time>2010-05-29T10:54:27Z</time>
      </trkpt>
      <trkpt lat="47.55831" lon="6.84687">
        <ele>400.5</ele>
        <time>2010-05-29T10:54:28Z</time>
      </trkpt>
      <trkpt lat="47.55834" lon="6.84695">
        <ele>400</ele>
        <time>2010-05-29T10:54:29Z</time>
      </trkpt>
      <trkpt lat="47.55836" lon="6.84705">
        <ele>399.5</ele>
        <time>2010-05-29T10:54:30Z</time>
      </trkpt>
      <trkpt lat="47.5584" lon="6.84714">
        <ele>398.5</ele>
        <time>2010-05-29T10:54:31Z</time>
      </trkpt>
      <trkpt lat="47.55845" lon="6.84723">
        <ele>398.5</ele>
        <time>2010-05-29T10:54:32Z</time>
      </trkpt>
      <trkpt lat="47.5585" lon="6.84732">
        <ele>398</ele>
        <time>2010-05-29T10:54:33Z</time>
      </trkpt>
      <trkpt lat="47.55855" lon="6.84741">
        <ele>397.5</ele>
        <time>2010-05-29T10:54:34Z</time>
      </trkpt>
      <trkpt lat="47.55861" lon="6.84749">
        <ele>397.5</ele>
        <time>2010-05-29T10:54:35Z</time>
      </trkpt>
      <trkpt lat="47.55867" lon="6.84757">
        <ele>397.5</ele>
        <time>2010-05-29T10:54:36Z</time>
      </trkpt>
      <trkpt lat="47.55872" lon="6.84763">
        <ele>397</ele>
        <time>2010-05-29T10:54:37Z</time>
      </trkpt>
      <trkpt lat="47.55876" lon="6.84769">
        <ele>397</ele>
        <time>2010-05-29T10:54:38Z</time>
      </trkpt>
      <trkpt lat="47.55881" lon="6.84774">
        <ele>397.5</ele>
        <time>2010-05-29T10:54:39Z</time>
      </trkpt>
      <trkpt lat="47.55887" lon="6.84775">
        <ele>397.5</ele>
        <time>2010-05-29T10:54:40Z</time>
      </trkpt>
      <trkpt lat="47.55894" lon="6.84775">
        <ele>397</ele>
        <time>2010-05-29T10:54:41Z</time>
      </trkpt>
      <trkpt lat="47.55901" lon="6.84776">
        <ele>396.5</ele>
        <time>2010-05-29T10:54:42Z</time>
      </trkpt>
      <trkpt lat="47.55908" lon="6.84778">
        <ele>396.5</ele>
        <time>2010-05-29T10:54:43Z</time>
      </trkpt>
      <trkpt lat="47.55915" lon="6.8478">
        <ele>396</ele>
        <time>2010-05-29T10:54:44Z</time>
      </trkpt>
      <trkpt lat="47.55923" lon="6.84781">
        <ele>396</ele>
        <time>2010-05-29T10:54:45Z</time>
      </trkpt>
      <trkpt lat="47.5593" lon="6.84782">
        <ele>395.5</ele>
        <time>2010-05-29T10:54:46Z</time>
      </trkpt>
      <trkpt lat="47.55937" lon="6.84783">
        <ele>395.5</ele>
        <time>2010-05-29T10:54:47Z</time>
      </trkpt>
      <trkpt lat="47.55944" lon="6.84784">
        <ele>395.5</ele>
        <time>2010-05-29T10:54:48Z</time>
      </trkpt>
      <trkpt lat="47.5595" lon="6.84785">
        <ele>395.5</ele>
        <time>2010-05-29T10:54:49Z</time>
      </trkpt>
      <trkpt lat="47.55957" lon="6.84785">
        <ele>395.5</ele>
        <time>2010-05-29T10:54:50Z</time>
      </trkpt>
      <trkpt lat="47.55963" lon="6.84786">
        <ele>395.5</ele>
        <time>2010-05-29T10:54:51Z</time>
      </trkpt>
      <trkpt lat="47.55968" lon="6.84788">
        <ele>395.5</ele>
        <time>2010-05-29T10:54:52Z</time>
      </trkpt>
      <trkpt lat="47.55974" lon="6.84791">
        <ele>395.5</ele>
        <time>2010-05-29T10:54:53Z</time>
      </trkpt>
      <trkpt lat="47.55978" lon="6.84794">
        <ele>395.5</ele>
        <time>2010-05-29T10:54:54Z</time>
      </trkpt>
      <trkpt lat="47.55982" lon="6.84798">
        <ele>395.5</ele>
        <time>2010-05-29T10:54:55Z</time>
      </trkpt>
      <trkpt lat="47.55986" lon="6.84802">
        <ele>395.5</ele>
        <time>2010-05-29T10:54:56Z</time>
      </trkpt>
      <trkpt lat="47.5599" lon="6.84807">
        <ele>395</ele>
        <time>2010-05-29T10:54:57Z</time>
      </trkpt>
      <trkpt lat="47.55993" lon="6.84811">
        <ele>395</ele>
        <time>2010-05-29T10:54:58Z</time>
      </trkpt>
      <trkpt lat="47.55999" lon="6.8482">
        <ele>395</ele>
        <time>2010-05-29T10:55:00Z</time>
      </trkpt>
      <trkpt lat="47.56006" lon="6.84828">
        <ele>395</ele>
        <time>2010-05-29T10:55:02Z</time>
      </trkpt>
      <trkpt lat="47.56012" lon="6.84837">
        <ele>395</ele>
        <time>2010-05-29T10:55:04Z</time>
      </trkpt>
      <trkpt lat="47.56019" lon="6.84845">
        <ele>395.5</ele>
        <time>2010-05-29T10:55:06Z</time>
      </trkpt>
      <trkpt lat="47.56025" lon="6.84853">
        <ele>395.5</ele>
        <time>2010-05-29T10:55:08Z</time>
      </trkpt>
      <trkpt lat="47.56031" lon="6.8486">
        <ele>396</ele>
        <time>2010-05-29T10:55:10Z</time>
      </trkpt>
      <trkpt lat="47.56037" lon="6.84868">
        <ele>396</ele>
        <time>2010-05-29T10:55:12Z</time>
      </trkpt>
      <trkpt lat="47.56044" lon="6.84876">
        <ele>396</ele>
        <time>2010-05-29T10:55:14Z</time>
      </trkpt>
      <trkpt lat="47.56047" lon="6.8488">
        <ele>396</ele>
        <time>2010-05-29T10:55:15Z</time>
      </trkpt>
      <trkpt lat="47.56054" lon="6.84888">
        <ele>396</ele>
        <time>2010-05-29T10:55:17Z</time>
      </trkpt>
      <trkpt lat="47.5606" lon="6.84896">
        <ele>396</ele>
        <time>2010-05-29T10:55:19Z</time>
      </trkpt>
      <trkpt lat="47.56064" lon="6.849">
        <ele>396</ele>
        <time>2010-05-29T10:55:20Z</time>
      </trkpt>
      <trkpt lat="47.56074" lon="6.84914">
        <ele>396</ele>
        <time>2010-05-29T10:55:22Z</time>
      </trkpt>
      <trkpt lat="47.5608" lon="6.84923">
        <ele>396</ele>
        <time>2010-05-29T10:55:25Z</time>
      </trkpt>
      <trkpt lat="47.56086" lon="6.84928">
        <ele>396.5</ele>
        <time>2010-05-29T10:55:27Z</time>
      </trkpt>
      <trkpt lat="47.56091" lon="6.84933">
        <ele>396.5</ele>
        <time>2010-05-29T10:55:28Z</time>
      </trkpt>
      <trkpt lat="47.56097" lon="6.84943">
        <ele>396</ele>
        <time>2010-05-29T10:55:30Z</time>
      </trkpt>
      <trkpt lat="47.56102" lon="6.84953">
        <ele>396</ele>
        <time>2010-05-29T10:55:32Z</time>
      </trkpt>
      <trkpt lat="47.56104" lon="6.84958">
        <ele>396</ele>
        <time>2010-05-29T10:55:33Z</time>
      </trkpt>
      <trkpt lat="47.5611" lon="6.84968">
        <ele>396.5</ele>
        <time>2010-05-29T10:55:35Z</time>
      </trkpt>
      <trkpt lat="47.56116" lon="6.84978">
        <ele>396.5</ele>
        <time>2010-05-29T10:55:37Z</time>
      </trkpt>
      <trkpt lat="47.5612" lon="6.84986">
        <ele>396</ele>
        <time>2010-05-29T10:55:39Z</time>
      </trkpt>
      <trkpt lat="47.56125" lon="6.84994">
        <ele>395</ele>
        <time>2010-05-29T10:55:41Z</time>
      </trkpt>
      <trkpt lat="47.56129" lon="6.85003">
        <ele>395</ele>
        <time>2010-05-29T10:55:43Z</time>
      </trkpt>
      <trkpt lat="47.56135" lon="6.85009">
        <ele>395.5</ele>
        <time>2010-05-29T10:55:45Z</time>
      </trkpt>
      <trkpt lat="47.56141" lon="6.85014">
        <ele>396</ele>
        <time>2010-05-29T10:55:47Z</time>
      </trkpt>
      <trkpt lat="47.56148" lon="6.85017">
        <ele>395.5</ele>
        <time>2010-05-29T10:55:49Z</time>
      </trkpt>
      <trkpt lat="47.56155" lon="6.85021">
        <ele>395.5</ele>
        <time>2010-05-29T10:55:51Z</time>
      </trkpt>
      <trkpt lat="47.56162" lon="6.85026">
        <ele>395.5</ele>
        <time>2010-05-29T10:55:53Z</time>
      </trkpt>
      <trkpt lat="47.56168" lon="6.85034">
        <ele>396</ele>
        <time>2010-05-29T10:55:55Z</time>
      </trkpt>
      <trkpt lat="47.56176" lon="6.85042">
        <ele>396.5</ele>
        <time>2010-05-29T10:55:57Z</time>
      </trkpt>
      <trkpt lat="47.5618" lon="6.85045">
        <ele>396.5</ele>
        <time>2010-05-29T10:55:58Z</time>
      </trkpt>
      <trkpt lat="47.56185" lon="6.85049">
        <ele>396</ele>
        <time>2010-05-29T10:55:59Z</time>
      </trkpt>
      <trkpt lat="47.56189" lon="6.85053">
        <ele>396</ele>
        <time>2010-05-29T10:56:00Z</time>
      </trkpt>
      <trkpt lat="47.56194" lon="6.85056">
        <ele>396.5</ele>
        <time>2010-05-29T10:56:01Z</time>
      </trkpt>
      <trkpt lat="47.56198" lon="6.8506">
        <ele>396</ele>
        <time>2010-05-29T10:56:02Z</time>
      </trkpt>
      <trkpt lat="47.56203" lon="6.85064">
        <ele>396</ele>
        <time>2010-05-29T10:56:03Z</time>
      </trkpt>
      <trkpt lat="47.56207" lon="6.85068">
        <ele>396.5</ele>
        <time>2010-05-29T10:56:04Z</time>
      </trkpt>
      <trkpt lat="47.56212" lon="6.85071">
        <ele>396.5</ele>
        <time>2010-05-29T10:56:05Z</time>
      </trkpt>
      <trkpt lat="47.56216" lon="6.85074">
        <ele>396</ele>
        <time>2010-05-29T10:56:06Z</time>
      </trkpt>
      <trkpt lat="47.56221" lon="6.85077">
        <ele>396</ele>
        <time>2010-05-29T10:56:07Z</time>
      </trkpt>
      <trkpt lat="47.56225" lon="6.8508">
        <ele>396.5</ele>
        <time>2010-05-29T10:56:08Z</time>
      </trkpt>
      <trkpt lat="47.5623" lon="6.85081">
        <ele>396.5</ele>
        <time>2010-05-29T10:56:09Z</time>
      </trkpt>
      <trkpt lat="47.56234" lon="6.85082">
        <ele>396.5</ele>
        <time>2010-05-29T10:56:10Z</time>
      </trkpt>
      <trkpt lat="47.56242" lon="6.85084">
        <ele>396.5</ele>
        <time>2010-05-29T10:56:12Z</time>
      </trkpt>
      <trkpt lat="47.56251" lon="6.85085">
        <ele>396.5</ele>
        <time>2010-05-29T10:56:14Z</time>
      </trkpt>
      <trkpt lat="47.56259" lon="6.85084">
        <ele>396.5</ele>
        <time>2010-05-29T10:56:16Z</time>
      </trkpt>
      <trkpt lat="47.56267" lon="6.85084">
        <ele>396.5</ele>
        <time>2010-05-29T10:56:18Z</time>
      </trkpt>
      <trkpt lat="47.56275" lon="6.85083">
        <ele>396.5</ele>
        <time>2010-05-29T10:56:20Z</time>
      </trkpt>
      <trkpt lat="47.5628" lon="6.85083">
        <ele>396.5</ele>
        <time>2010-05-29T10:56:21Z</time>
      </trkpt>
      <trkpt lat="47.56291" lon="6.85084">
        <ele>396</ele>
        <time>2010-05-29T10:56:21Z</time>
      </trkpt>
      <trkpt lat="47.56296" lon="6.85085">
        <ele>396</ele>
        <time>2010-05-29T10:56:24Z</time>
      </trkpt>
      <trkpt lat="47.56301" lon="6.85086">
        <ele>396</ele>
        <time>2010-05-29T10:56:25Z</time>
      </trkpt>
      <trkpt lat="47.56307" lon="6.85088">
        <ele>396</ele>
        <time>2010-05-29T10:56:27Z</time>
      </trkpt>
      <trkpt lat="47.56315" lon="6.85089">
        <ele>396</ele>
        <time>2010-05-29T10:56:29Z</time>
      </trkpt>
      <trkpt lat="47.56323" lon="6.8509">
        <ele>396</ele>
        <time>2010-05-29T10:56:31Z</time>
      </trkpt>
      <trkpt lat="47.5633" lon="6.85092">
        <ele>396</ele>
        <time>2010-05-29T10:56:33Z</time>
      </trkpt>
      <trkpt lat="47.56338" lon="6.85094">
        <ele>396.5</ele>
        <time>2010-05-29T10:56:35Z</time>
      </trkpt>
      <trkpt lat="47.56346" lon="6.85096">
        <ele>396.5</ele>
        <time>2010-05-29T10:56:37Z</time>
      </trkpt>
      <trkpt lat="47.56353" lon="6.85097">
        <ele>397</ele>
        <time>2010-05-29T10:56:39Z</time>
      </trkpt>
      <trkpt lat="47.5636" lon="6.851">
        <ele>397</ele>
        <time>2010-05-29T10:56:41Z</time>
      </trkpt>
      <trkpt lat="47.56367" lon="6.85102">
        <ele>397.5</ele>
        <time>2010-05-29T10:56:43Z</time>
      </trkpt>
      <trkpt lat="47.56374" lon="6.85103">
        <ele>397.5</ele>
        <time>2010-05-29T10:56:45Z</time>
      </trkpt>
      <trkpt lat="47.56381" lon="6.85105">
        <ele>397.5</ele>
        <time>2010-05-29T10:56:47Z</time>
      </trkpt>
      <trkpt lat="47.56388" lon="6.85107">
        <ele>398</ele>
        <time>2010-05-29T10:56:49Z</time>
      </trkpt>
      <trkpt lat="47.56395" lon="6.85109">
        <ele>398.5</ele>
        <time>2010-05-29T10:56:51Z</time>
      </trkpt>
      <trkpt lat="47.56402" lon="6.85112">
        <ele>398.5</ele>
        <time>2010-05-29T10:56:53Z</time>
      </trkpt>
      <trkpt lat="47.56409" lon="6.85114">
        <ele>399</ele>
        <time>2010-05-29T10:56:55Z</time>
      </trkpt>
      <trkpt lat="47.56416" lon="6.85117">
        <ele>399</ele>
        <time>2010-05-29T10:56:57Z</time>
      </trkpt>
      <trkpt lat="47.56422" lon="6.8512">
        <ele>399</ele>
        <time>2010-05-29T10:56:59Z</time>
      </trkpt>
      <trkpt lat="47.56429" lon="6.85123">
        <ele>399.5</ele>
        <time>2010-05-29T10:57:01Z</time>
      </trkpt>
      <trkpt lat="47.56436" lon="6.85126">
        <ele>398.5</ele>
        <time>2010-05-29T10:57:03Z</time>
      </trkpt>
      <trkpt lat="47.56443" lon="6.85131">
        <ele>398.5</ele>
        <time>2010-05-29T10:57:05Z</time>
      </trkpt>
      <trkpt lat="47.56447" lon="6.85134">
        <ele>398.5</ele>
        <time>2010-05-29T10:57:06Z</time>
      </trkpt>
      <trkpt lat="47.56452" lon="6.85137">
        <ele>398.5</ele>
        <time>2010-05-29T10:57:07Z</time>
      </trkpt>
      <trkpt lat="47.56456" lon="6.85139">
        <ele>398</ele>
        <time>2010-05-29T10:57:08Z</time>
      </trkpt>
      <trkpt lat="47.56462" lon="6.85142">
        <ele>398</ele>
        <time>2010-05-29T10:57:09Z</time>
      </trkpt>
      <trkpt lat="47.56467" lon="6.85144">
        <ele>398.5</ele>
        <time>2010-05-29T10:57:10Z</time>
      </trkpt>
      <trkpt lat="47.56473" lon="6.85146">
        <ele>398.5</ele>
        <time>2010-05-29T10:57:11Z</time>
      </trkpt>
      <trkpt lat="47.56479" lon="6.8515">
        <ele>398</ele>
        <time>2010-05-29T10:57:12Z</time>
      </trkpt>
      <trkpt lat="47.56486" lon="6.85154">
        <ele>398</ele>
        <time>2010-05-29T10:57:13Z</time>
      </trkpt>
      <trkpt lat="47.56491" lon="6.85157">
        <ele>398</ele>
        <time>2010-05-29T10:57:14Z</time>
      </trkpt>
      <trkpt lat="47.56496" lon="6.85161">
        <ele>397.5</ele>
        <time>2010-05-29T10:57:15Z</time>
      </trkpt>
      <trkpt lat="47.56501" lon="6.85165">
        <ele>397.5</ele>
        <time>2010-05-29T10:57:16Z</time>
      </trkpt>
      <trkpt lat="47.56505" lon="6.8517">
        <ele>397</ele>
        <time>2010-05-29T10:57:17Z</time>
      </trkpt>
      <trkpt lat="47.56508" lon="6.85177">
        <ele>397</ele>
        <time>2010-05-29T10:57:18Z</time>
      </trkpt>
      <trkpt lat="47.56508" lon="6.85186">
        <ele>397</ele>
        <time>2010-05-29T10:57:19Z</time>
      </trkpt>
      <trkpt lat="47.56507" lon="6.85195">
        <ele>397</ele>
        <time>2010-05-29T10:57:20Z</time>
      </trkpt>
      <trkpt lat="47.56505" lon="6.85203">
        <ele>397</ele>
        <time>2010-05-29T10:57:21Z</time>
      </trkpt>
      <trkpt lat="47.565" lon="6.85219">
        <ele>397.5</ele>
        <time>2010-05-29T10:57:23Z</time>
      </trkpt>
      <trkpt lat="47.56497" lon="6.85226">
        <ele>397.5</ele>
        <time>2010-05-29T10:57:24Z</time>
      </trkpt>
      <trkpt lat="47.56494" lon="6.85232">
        <ele>397.5</ele>
        <time>2010-05-29T10:57:25Z</time>
      </trkpt>
      <trkpt lat="47.56489" lon="6.85241">
        <ele>398</ele>
        <time>2010-05-29T10:57:27Z</time>
      </trkpt>
      <trkpt lat="47.56485" lon="6.85246">
        <ele>397.5</ele>
        <time>2010-05-29T10:57:28Z</time>
      </trkpt>
      <trkpt lat="47.56481" lon="6.85251">
        <ele>397.5</ele>
        <time>2010-05-29T10:57:29Z</time>
      </trkpt>
      <trkpt lat="47.56476" lon="6.85257">
        <ele>397</ele>
        <time>2010-05-29T10:57:30Z</time>
      </trkpt>
      <trkpt lat="47.56471" lon="6.85263">
        <ele>396.5</ele>
        <time>2010-05-29T10:57:31Z</time>
      </trkpt>
      <trkpt lat="47.56465" lon="6.8527">
        <ele>396.5</ele>
        <time>2010-05-29T10:57:32Z</time>
      </trkpt>
      <trkpt lat="47.56459" lon="6.85277">
        <ele>395.5</ele>
        <time>2010-05-29T10:57:33Z</time>
      </trkpt>
      <trkpt lat="47.56453" lon="6.85285">
        <ele>395</ele>
        <time>2010-05-29T10:57:34Z</time>
      </trkpt>
      <trkpt lat="47.56446" lon="6.85293">
        <ele>394.5</ele>
        <time>2010-05-29T10:57:35Z</time>
      </trkpt>
      <trkpt lat="47.56438" lon="6.85302">
        <ele>393.5</ele>
        <time>2010-05-29T10:57:36Z</time>
      </trkpt>
      <trkpt lat="47.56431" lon="6.85311">
        <ele>393</ele>
        <time>2010-05-29T10:57:37Z</time>
      </trkpt>
      <trkpt lat="47.56422" lon="6.8532">
        <ele>392.5</ele>
        <time>2010-05-29T10:57:38Z</time>
      </trkpt>
      <trkpt lat="47.56414" lon="6.8533">
        <ele>392</ele>
        <time>2010-05-29T10:57:39Z</time>
      </trkpt>
      <trkpt lat="47.56406" lon="6.8534">
        <ele>391.5</ele>
        <time>2010-05-29T10:57:40Z</time>
      </trkpt>
      <trkpt lat="47.56398" lon="6.8535">
        <ele>391</ele>
        <time>2010-05-29T10:57:41Z</time>
      </trkpt>
      <trkpt lat="47.56388" lon="6.85361">
        <ele>390.5</ele>
        <time>2010-05-29T10:57:42Z</time>
      </trkpt>
      <trkpt lat="47.56379" lon="6.85372">
        <ele>390.5</ele>
        <time>2010-05-29T10:57:43Z</time>
      </trkpt>
      <trkpt lat="47.5637" lon="6.85383">
        <ele>390</ele>
        <time>2010-05-29T10:57:44Z</time>
      </trkpt>
      <trkpt lat="47.56361" lon="6.85394">
        <ele>390</ele>
        <time>2010-05-29T10:57:45Z</time>
      </trkpt>
      <trkpt lat="47.56352" lon="6.85404">
        <ele>389.5</ele>
        <time>2010-05-29T10:57:46Z</time>
      </trkpt>
      <trkpt lat="47.56343" lon="6.85414">
        <ele>389</ele>
        <time>2010-05-29T10:57:47Z</time>
      </trkpt>
      <trkpt lat="47.56335" lon="6.85424">
        <ele>389</ele>
        <time>2010-05-29T10:57:48Z</time>
      </trkpt>
      <trkpt lat="47.56327" lon="6.85432">
        <ele>388.5</ele>
        <time>2010-05-29T10:57:49Z</time>
      </trkpt>
      <trkpt lat="47.56321" lon="6.8544">
        <ele>388</ele>
        <time>2010-05-29T10:57:50Z</time>
      </trkpt>
      <trkpt lat="47.56316" lon="6.85447">
        <ele>388</ele>
        <time>2010-05-29T10:57:51Z</time>
      </trkpt>
      <trkpt lat="47.56313" lon="6.85453">
        <ele>388</ele>
        <time>2010-05-29T10:57:52Z</time>
      </trkpt>
      <trkpt lat="47.56313" lon="6.85463">
        <ele>387</ele>
        <time>2010-05-29T10:57:54Z</time>
      </trkpt>
      <trkpt lat="47.56317" lon="6.85471">
        <ele>387.5</ele>
        <time>2010-05-29T10:57:56Z</time>
      </trkpt>
      <trkpt lat="47.56321" lon="6.8548">
        <ele>387</ele>
        <time>2010-05-29T10:57:58Z</time>
      </trkpt>
      <trkpt lat="47.56325" lon="6.85489">
        <ele>387.5</ele>
        <time>2010-05-29T10:58:00Z</time>
      </trkpt>
      <trkpt lat="47.5633" lon="6.85497">
        <ele>387.5</ele>
        <time>2010-05-29T10:58:02Z</time>
      </trkpt>
      <trkpt lat="47.56335" lon="6.85506">
        <ele>387.5</ele>
        <time>2010-05-29T10:58:04Z</time>
      </trkpt>
      <trkpt lat="47.56341" lon="6.85515">
        <ele>387.5</ele>
        <time>2010-05-29T10:58:06Z</time>
      </trkpt>
      <trkpt lat="47.56347" lon="6.85525">
        <ele>387.5</ele>
        <time>2010-05-29T10:58:08Z</time>
      </trkpt>
      <trkpt lat="47.5635" lon="6.8553">
        <ele>387.5</ele>
        <time>2010-05-29T10:58:09Z</time>
      </trkpt>
      <trkpt lat="47.56353" lon="6.85534">
        <ele>387</ele>
        <time>2010-05-29T10:58:10Z</time>
      </trkpt>
      <trkpt lat="47.56356" lon="6.85539">
        <ele>387</ele>
        <time>2010-05-29T10:58:11Z</time>
      </trkpt>
      <trkpt lat="47.56359" lon="6.85544">
        <ele>387</ele>
        <time>2010-05-29T10:58:12Z</time>
      </trkpt>
      <trkpt lat="47.56362" lon="6.85549">
        <ele>387</ele>
        <time>2010-05-29T10:58:13Z</time>
      </trkpt>
      <trkpt lat="47.56365" lon="6.85555">
        <ele>387</ele>
        <time>2010-05-29T10:58:14Z</time>
      </trkpt>
      <trkpt lat="47.56368" lon="6.8556">
        <ele>387</ele>
        <time>2010-05-29T10:58:15Z</time>
      </trkpt>
      <trkpt lat="47.56372" lon="6.85565">
        <ele>386.5</ele>
        <time>2010-05-29T10:58:16Z</time>
      </trkpt>
      <trkpt lat="47.56375" lon="6.85569">
        <ele>387</ele>
        <time>2010-05-29T10:58:17Z</time>
      </trkpt>
      <trkpt lat="47.56378" lon="6.85575">
        <ele>386.5</ele>
        <time>2010-05-29T10:58:18Z</time>
      </trkpt>
      <trkpt lat="47.56382" lon="6.8558">
        <ele>387</ele>
        <time>2010-05-29T10:58:19Z</time>
      </trkpt>
      <trkpt lat="47.56385" lon="6.85585">
        <ele>387</ele>
        <time>2010-05-29T10:58:20Z</time>
      </trkpt>
      <trkpt lat="47.56388" lon="6.85591">
        <ele>387</ele>
        <time>2010-05-29T10:58:21Z</time>
      </trkpt>
      <trkpt lat="47.56394" lon="6.85601">
        <ele>387</ele>
        <time>2010-05-29T10:58:21Z</time>
      </trkpt>
      <trkpt lat="47.56398" lon="6.85606">
        <ele>387</ele>
        <time>2010-05-29T10:58:24Z</time>
      </trkpt>
      <trkpt lat="47.56402" lon="6.85616">
        <ele>387.5</ele>
        <time>2010-05-29T10:58:26Z</time>
      </trkpt>
      <trkpt lat="47.56406" lon="6.85621">
        <ele>388</ele>
        <time>2010-05-29T10:58:27Z</time>
      </trkpt>
      <trkpt lat="47.56409" lon="6.85627">
        <ele>387.5</ele>
        <time>2010-05-29T10:58:28Z</time>
      </trkpt>
      <trkpt lat="47.56413" lon="6.85632">
        <ele>387.5</ele>
        <time>2010-05-29T10:58:29Z</time>
      </trkpt>
      <trkpt lat="47.56416" lon="6.85637">
        <ele>387</ele>
        <time>2010-05-29T10:58:30Z</time>
      </trkpt>
      <trkpt lat="47.5642" lon="6.85642">
        <ele>387</ele>
        <time>2010-05-29T10:58:31Z</time>
      </trkpt>
      <trkpt lat="47.56424" lon="6.85647">
        <ele>387</ele>
        <time>2010-05-29T10:58:32Z</time>
      </trkpt>
      <trkpt lat="47.56428" lon="6.85652">
        <ele>387</ele>
        <time>2010-05-29T10:58:33Z</time>
      </trkpt>
      <trkpt lat="47.56432" lon="6.85657">
        <ele>386.5</ele>
        <time>2010-05-29T10:58:34Z</time>
      </trkpt>
      <trkpt lat="47.56436" lon="6.85661">
        <ele>387</ele>
        <time>2010-05-29T10:58:35Z</time>
      </trkpt>
      <trkpt lat="47.56441" lon="6.85663">
        <ele>387</ele>
        <time>2010-05-29T10:58:36Z</time>
      </trkpt>
      <trkpt lat="47.56448" lon="6.85659">
        <ele>387</ele>
        <time>2010-05-29T10:58:38Z</time>
      </trkpt>
      <trkpt lat="47.56453" lon="6.85659">
        <ele>387</ele>
        <time>2010-05-29T10:58:40Z</time>
      </trkpt>
      <trkpt lat="47.56454" lon="6.85668">
        <ele>387</ele>
        <time>2010-05-29T10:58:43Z</time>
      </trkpt>
      <trkpt lat="47.56454" lon="6.85675">
        <ele>386</ele>
        <time>2010-05-29T10:58:45Z</time>
      </trkpt>
      <trkpt lat="47.56456" lon="6.85684">
        <ele>386.5</ele>
        <time>2010-05-29T10:58:47Z</time>
      </trkpt>
      <trkpt lat="47.56463" lon="6.85691">
        <ele>386</ele>
        <time>2010-05-29T10:58:49Z</time>
      </trkpt>
      <trkpt lat="47.56471" lon="6.85696">
        <ele>385.5</ele>
        <time>2010-05-29T10:58:51Z</time>
      </trkpt>
      <trkpt lat="47.56479" lon="6.85701">
        <ele>386</ele>
        <time>2010-05-29T10:58:53Z</time>
      </trkpt>
      <trkpt lat="47.56486" lon="6.85706">
        <ele>386</ele>
        <time>2010-05-29T10:58:40Z</time>
      </trkpt>
      <trkpt lat="47.56494" lon="6.8571">
        <ele>386</ele>
        <time>2010-05-29T10:58:42Z</time>
      </trkpt>
      <trkpt lat="47.56501" lon="6.85714">
        <ele>386.5</ele>
        <time>2010-05-29T10:58:44Z</time>
      </trkpt>
      <trkpt lat="47.56508" lon="6.85718">
        <ele>386.5</ele>
        <time>2010-05-29T10:58:46Z</time>
      </trkpt>
      <trkpt lat="47.56515" lon="6.85721">
        <ele>387</ele>
        <time>2010-05-29T10:58:48Z</time>
      </trkpt>
      <trkpt lat="47.56522" lon="6.85725">
        <ele>387</ele>
        <time>2010-05-29T10:58:50Z</time>
      </trkpt>
      <trkpt lat="47.56529" lon="6.85728">
        <ele>387</ele>
        <time>2010-05-29T10:58:52Z</time>
      </trkpt>
      <trkpt lat="47.56536" lon="6.85732">
        <ele>387</ele>
        <time>2010-05-29T10:58:54Z</time>
      </trkpt>
      <trkpt lat="47.56542" lon="6.85736">
        <ele>387</ele>
        <time>2010-05-29T10:58:56Z</time>
      </trkpt>
      <trkpt lat="47.56549" lon="6.8574">
        <ele>387.5</ele>
        <time>2010-05-29T10:58:58Z</time>
      </trkpt>
      <trkpt lat="47.56555" lon="6.85745">
        <ele>387.5</ele>
        <time>2010-05-29T10:59:00Z</time>
      </trkpt>
      <trkpt lat="47.56561" lon="6.8575">
        <ele>387.5</ele>
        <time>2010-05-29T10:59:02Z</time>
      </trkpt>
      <trkpt lat="47.56568" lon="6.85755">
        <ele>388</ele>
        <time>2010-05-29T10:59:04Z</time>
      </trkpt>
      <trkpt lat="47.56574" lon="6.8576">
        <ele>388.5</ele>
        <time>2010-05-29T10:59:06Z</time>
      </trkpt>
      <trkpt lat="47.5658" lon="6.85764">
        <ele>389</ele>
        <time>2010-05-29T10:59:06Z</time>
      </trkpt>
      <trkpt lat="47.56586" lon="6.85769">
        <ele>389</ele>
        <time>2010-05-29T10:59:10Z</time>
      </trkpt>
      <trkpt lat="47.56592" lon="6.85775">
        <ele>389</ele>
        <time>2010-05-29T10:59:12Z</time>
      </trkpt>
      <trkpt lat="47.56596" lon="6.85782">
        <ele>389</ele>
        <time>2010-05-29T10:59:14Z</time>
      </trkpt>
      <trkpt lat="47.56602" lon="6.85788">
        <ele>389</ele>
        <time>2010-05-29T10:59:16Z</time>
      </trkpt>
      <trkpt lat="47.56608" lon="6.85795">
        <ele>389</ele>
        <time>2010-05-29T10:59:18Z</time>
      </trkpt>
      <trkpt lat="47.56613" lon="6.85801">
        <ele>390</ele>
        <time>2010-05-29T10:59:20Z</time>
      </trkpt>
      <trkpt lat="47.56619" lon="6.85809">
        <ele>390</ele>
        <time>2010-05-29T10:59:22Z</time>
      </trkpt>
      <trkpt lat="47.56624" lon="6.85816">
        <ele>390.5</ele>
        <time>2010-05-29T10:59:24Z</time>
      </trkpt>
      <trkpt lat="47.56629" lon="6.85824">
        <ele>390.5</ele>
        <time>2010-05-29T10:59:26Z</time>
      </trkpt>
      <trkpt lat="47.56634" lon="6.85832">
        <ele>390.5</ele>
        <time>2010-05-29T10:59:28Z</time>
      </trkpt>
      <trkpt lat="47.56638" lon="6.85839">
        <ele>391.5</ele>
        <time>2010-05-29T10:59:30Z</time>
      </trkpt>
      <trkpt lat="47.56643" lon="6.85847">
        <ele>392</ele>
        <time>2010-05-29T10:59:32Z</time>
      </trkpt>
      <trkpt lat="47.56647" lon="6.85856">
        <ele>392.5</ele>
        <time>2010-05-29T10:59:34Z</time>
      </trkpt>
      <trkpt lat="47.56652" lon="6.85865">
        <ele>392.5</ele>
        <time>2010-05-29T10:59:36Z</time>
      </trkpt>
      <trkpt lat="47.56657" lon="6.85875">
        <ele>393</ele>
        <time>2010-05-29T10:59:38Z</time>
      </trkpt>
      <trkpt lat="47.56662" lon="6.85885">
        <ele>393</ele>
        <time>2010-05-29T10:59:40Z</time>
      </trkpt>
      <trkpt lat="47.56666" lon="6.85896">
        <ele>393</ele>
        <time>2010-05-29T10:59:42Z</time>
      </trkpt>
      <trkpt lat="47.56669" lon="6.85902">
        <ele>393.5</ele>
        <time>2010-05-29T10:59:43Z</time>
      </trkpt>
      <trkpt lat="47.56671" lon="6.85907">
        <ele>393.5</ele>
        <time>2010-05-29T10:59:44Z</time>
      </trkpt>
      <trkpt lat="47.56674" lon="6.85913">
        <ele>393</ele>
        <time>2010-05-29T10:59:45Z</time>
      </trkpt>
      <trkpt lat="47.56677" lon="6.8592">
        <ele>392.5</ele>
        <time>2010-05-29T10:59:46Z</time>
      </trkpt>
      <trkpt lat="47.5668" lon="6.85927">
        <ele>392.5</ele>
        <time>2010-05-29T10:59:47Z</time>
      </trkpt>
      <trkpt lat="47.56682" lon="6.85934">
        <ele>392</ele>
        <time>2010-05-29T10:59:48Z</time>
      </trkpt>
      <trkpt lat="47.56685" lon="6.85942">
        <ele>392</ele>
        <time>2010-05-29T10:59:49Z</time>
      </trkpt>
      <trkpt lat="47.56687" lon="6.8595">
        <ele>392</ele>
        <time>2010-05-29T10:59:50Z</time>
      </trkpt>
      <trkpt lat="47.5669" lon="6.85958">
        <ele>392</ele>
        <time>2010-05-29T10:59:51Z</time>
      </trkpt>
      <trkpt lat="47.56692" lon="6.85966">
        <ele>392</ele>
        <time>2010-05-29T10:59:52Z</time>
      </trkpt>
      <trkpt lat="47.56695" lon="6.85975">
        <ele>391.5</ele>
        <time>2010-05-29T10:59:53Z</time>
      </trkpt>
      <trkpt lat="47.56697" lon="6.85983">
        <ele>391.5</ele>
        <time>2010-05-29T10:59:54Z</time>
      </trkpt>
      <trkpt lat="47.56699" lon="6.85992">
        <ele>391</ele>
        <time>2010-05-29T10:59:55Z</time>
      </trkpt>
      <trkpt lat="47.56701" lon="6.86001">
        <ele>390.5</ele>
        <time>2010-05-29T10:59:56Z</time>
      </trkpt>
      <trkpt lat="47.56703" lon="6.8601">
        <ele>390.5</ele>
        <time>2010-05-29T10:59:57Z</time>
      </trkpt>
      <trkpt lat="47.56705" lon="6.86019">
        <ele>390.5</ele>
        <time>2010-05-29T10:59:58Z</time>
      </trkpt>
      <trkpt lat="47.56708" lon="6.86028">
        <ele>390.5</ele>
        <time>2010-05-29T10:59:59Z</time>
      </trkpt>
      <trkpt lat="47.56711" lon="6.86036">
        <ele>391</ele>
        <time>2010-05-29T11:00:00Z</time>
      </trkpt>
      <trkpt lat="47.56715" lon="6.86042">
        <ele>391</ele>
        <time>2010-05-29T11:00:01Z</time>
      </trkpt>
      <trkpt lat="47.56721" lon="6.86046">
        <ele>391</ele>
        <time>2010-05-29T11:00:02Z</time>
      </trkpt>
      <trkpt lat="47.56727" lon="6.86049">
        <ele>391.5</ele>
        <time>2010-05-29T11:00:03Z</time>
      </trkpt>
      <trkpt lat="47.56734" lon="6.86048">
        <ele>392</ele>
        <time>2010-05-29T11:00:04Z</time>
      </trkpt>
      <trkpt lat="47.5674" lon="6.86046">
        <ele>392</ele>
        <time>2010-05-29T11:00:05Z</time>
      </trkpt>
      <trkpt lat="47.56747" lon="6.86044">
        <ele>392</ele>
        <time>2010-05-29T11:00:06Z</time>
      </trkpt>
      <trkpt lat="47.56759" lon="6.86037">
        <ele>392</ele>
        <time>2010-05-29T11:00:06Z</time>
      </trkpt>
      <trkpt lat="47.56764" lon="6.86033">
        <ele>392</ele>
        <time>2010-05-29T11:00:09Z</time>
      </trkpt>
      <trkpt lat="47.5677" lon="6.86029">
        <ele>392</ele>
        <time>2010-05-29T11:00:10Z</time>
      </trkpt>
      <trkpt lat="47.5678" lon="6.86025">
        <ele>392</ele>
        <time>2010-05-29T11:00:12Z</time>
      </trkpt>
      <trkpt lat="47.56787" lon="6.86022">
        <ele>392.5</ele>
        <time>2010-05-29T11:00:13Z</time>
      </trkpt>
      <trkpt lat="47.56792" lon="6.86019">
        <ele>392.5</ele>
        <time>2010-05-29T11:00:14Z</time>
      </trkpt>
      <trkpt lat="47.56798" lon="6.86016">
        <ele>393</ele>
        <time>2010-05-29T11:00:15Z</time>
      </trkpt>
      <trkpt lat="47.56803" lon="6.86014">
        <ele>392.5</ele>
        <time>2010-05-29T11:00:16Z</time>
      </trkpt>
      <trkpt lat="47.56808" lon="6.86012">
        <ele>393</ele>
        <time>2010-05-29T11:00:17Z</time>
      </trkpt>
      <trkpt lat="47.56813" lon="6.8601">
        <ele>392.5</ele>
        <time>2010-05-29T11:00:18Z</time>
      </trkpt>
      <trkpt lat="47.56818" lon="6.86008">
        <ele>392.5</ele>
        <time>2010-05-29T11:00:19Z</time>
      </trkpt>
      <trkpt lat="47.56823" lon="6.86006">
        <ele>392.5</ele>
        <time>2010-05-29T11:00:20Z</time>
      </trkpt>
      <trkpt lat="47.56828" lon="6.86003">
        <ele>392.5</ele>
        <time>2010-05-29T11:00:21Z</time>
      </trkpt>
      <trkpt lat="47.56833" lon="6.86001">
        <ele>392.5</ele>
        <time>2010-05-29T11:00:22Z</time>
      </trkpt>
      <trkpt lat="47.56838" lon="6.85998">
        <ele>392.5</ele>
        <time>2010-05-29T11:00:23Z</time>
      </trkpt>
      <trkpt lat="47.56843" lon="6.85996">
        <ele>392.5</ele>
        <time>2010-05-29T11:00:24Z</time>
      </trkpt>
      <trkpt lat="47.56848" lon="6.85994">
        <ele>392.5</ele>
        <time>2010-05-29T11:00:25Z</time>
      </trkpt>
      <trkpt lat="47.56853" lon="6.85991">
        <ele>392.5</ele>
        <time>2010-05-29T11:00:26Z</time>
      </trkpt>
      <trkpt lat="47.56858" lon="6.85989">
        <ele>392.5</ele>
        <time>2010-05-29T11:00:27Z</time>
      </trkpt>
      <trkpt lat="47.56863" lon="6.85986">
        <ele>392</ele>
        <time>2010-05-29T11:00:28Z</time>
      </trkpt>
      <trkpt lat="47.56868" lon="6.85984">
        <ele>392</ele>
        <time>2010-05-29T11:00:29Z</time>
      </trkpt>
      <trkpt lat="47.56872" lon="6.85981">
        <ele>392</ele>
        <time>2010-05-29T11:00:30Z</time>
      </trkpt>
      <trkpt lat="47.56877" lon="6.85979">
        <ele>392</ele>
        <time>2010-05-29T11:00:31Z</time>
      </trkpt>
      <trkpt lat="47.56882" lon="6.85976">
        <ele>391.5</ele>
        <time>2010-05-29T11:00:32Z</time>
      </trkpt>
      <trkpt lat="47.56887" lon="6.85974">
        <ele>391.5</ele>
        <time>2010-05-29T11:00:33Z</time>
      </trkpt>
      <trkpt lat="47.56892" lon="6.85971">
        <ele>391.5</ele>
        <time>2010-05-29T11:00:34Z</time>
      </trkpt>
      <trkpt lat="47.56897" lon="6.85969">
        <ele>391.5</ele>
        <time>2010-05-29T11:00:35Z</time>
      </trkpt>
      <trkpt lat="47.56901" lon="6.85967">
        <ele>391.5</ele>
        <time>2010-05-29T11:00:36Z</time>
      </trkpt>
      <trkpt lat="47.56906" lon="6.85965">
        <ele>391.5</ele>
        <time>2010-05-29T11:00:37Z</time>
      </trkpt>
      <trkpt lat="47.56911" lon="6.85962">
        <ele>391.5</ele>
        <time>2010-05-29T11:00:38Z</time>
      </trkpt>
      <trkpt lat="47.56916" lon="6.8596">
        <ele>391.5</ele>
        <time>2010-05-29T11:00:39Z</time>
      </trkpt>
      <trkpt lat="47.56921" lon="6.85958">
        <ele>391.5</ele>
        <time>2010-05-29T11:00:40Z</time>
      </trkpt>
      <trkpt lat="47.56926" lon="6.85955">
        <ele>391.5</ele>
        <time>2010-05-29T11:00:41Z</time>
      </trkpt>
      <trkpt lat="47.5693" lon="6.85953">
        <ele>391.5</ele>
        <time>2010-05-29T11:00:42Z</time>
      </trkpt>
      <trkpt lat="47.56935" lon="6.85951">
        <ele>391.5</ele>
        <time>2010-05-29T11:00:43Z</time>
      </trkpt>
      <trkpt lat="47.5694" lon="6.85949">
        <ele>391.5</ele>
        <time>2010-05-29T11:00:44Z</time>
      </trkpt>
      <trkpt lat="47.56945" lon="6.85946">
        <ele>391.5</ele>
        <time>2010-05-29T11:00:45Z</time>
      </trkpt>
      <trkpt lat="47.5695" lon="6.85944">
        <ele>391.5</ele>
        <time>2010-05-29T11:00:46Z</time>
      </trkpt>
      <trkpt lat="47.56955" lon="6.85942">
        <ele>391</ele>
        <time>2010-05-29T11:00:47Z</time>
      </trkpt>
      <trkpt lat="47.5696" lon="6.8594">
        <ele>391</ele>
        <time>2010-05-29T11:00:48Z</time>
      </trkpt>
      <trkpt lat="47.56965" lon="6.85938">
        <ele>390.5</ele>
        <time>2010-05-29T11:00:49Z</time>
      </trkpt>
      <trkpt lat="47.56969" lon="6.85936">
        <ele>390.5</ele>
        <time>2010-05-29T11:00:50Z</time>
      </trkpt>
      <trkpt lat="47.56974" lon="6.85933">
        <ele>390.5</ele>
        <time>2010-05-29T11:00:51Z</time>
      </trkpt>
      <trkpt lat="47.56979" lon="6.85931">
        <ele>391</ele>
        <time>2010-05-29T11:00:52Z</time>
      </trkpt>
      <trkpt lat="47.56984" lon="6.85929">
        <ele>391</ele>
        <time>2010-05-29T11:00:53Z</time>
      </trkpt>
      <trkpt lat="47.56989" lon="6.85927">
        <ele>390.5</ele>
        <time>2010-05-29T11:00:54Z</time>
      </trkpt>
      <trkpt lat="47.56994" lon="6.85926">
        <ele>390.5</ele>
        <time>2010-05-29T11:00:55Z</time>
      </trkpt>
      <trkpt lat="47.56999" lon="6.85924">
        <ele>390.5</ele>
        <time>2010-05-29T11:00:56Z</time>
      </trkpt>
      <trkpt lat="47.57004" lon="6.85922">
        <ele>390.5</ele>
        <time>2010-05-29T11:00:57Z</time>
      </trkpt>
      <trkpt lat="47.57009" lon="6.85921">
        <ele>391</ele>
        <time>2010-05-29T11:00:58Z</time>
      </trkpt>
      <trkpt lat="47.57014" lon="6.8592">
        <ele>391</ele>
        <time>2010-05-29T11:00:59Z</time>
      </trkpt>
      <trkpt lat="47.57019" lon="6.85918">
        <ele>391</ele>
        <time>2010-05-29T11:01:00Z</time>
      </trkpt>
      <trkpt lat="47.57024" lon="6.85917">
        <ele>390.5</ele>
        <time>2010-05-29T11:01:01Z</time>
      </trkpt>
      <trkpt lat="47.57029" lon="6.85916">
        <ele>390.5</ele>
        <time>2010-05-29T11:01:02Z</time>
      </trkpt>
      <trkpt lat="47.57033" lon="6.85915">
        <ele>390.5</ele>
        <time>2010-05-29T11:01:03Z</time>
      </trkpt>
      <trkpt lat="47.57039" lon="6.85914">
        <ele>390.5</ele>
        <time>2010-05-29T11:01:04Z</time>
      </trkpt>
      <trkpt lat="47.57044" lon="6.85913">
        <ele>390.5</ele>
        <time>2010-05-29T11:01:05Z</time>
      </trkpt>
      <trkpt lat="47.57049" lon="6.85912">
        <ele>390.5</ele>
        <time>2010-05-29T11:01:06Z</time>
      </trkpt>
      <trkpt lat="47.57059" lon="6.8591">
        <ele>390.5</ele>
        <time>2010-05-29T11:01:06Z</time>
      </trkpt>
      <trkpt lat="47.57063" lon="6.85909">
        <ele>390.5</ele>
        <time>2010-05-29T11:01:09Z</time>
      </trkpt>
      <trkpt lat="47.57068" lon="6.85908">
        <ele>390.5</ele>
        <time>2010-05-29T11:01:10Z</time>
      </trkpt>
      <trkpt lat="47.57074" lon="6.85908">
        <ele>390.5</ele>
        <time>2010-05-29T11:01:11Z</time>
      </trkpt>
      <trkpt lat="47.57079" lon="6.85907">
        <ele>390.5</ele>
        <time>2010-05-29T11:01:12Z</time>
      </trkpt>
      <trkpt lat="47.57084" lon="6.85907">
        <ele>390</ele>
        <time>2010-05-29T11:01:13Z</time>
      </trkpt>
      <trkpt lat="47.57089" lon="6.85907">
        <ele>390</ele>
        <time>2010-05-29T11:01:14Z</time>
      </trkpt>
      <trkpt lat="47.57094" lon="6.85907">
        <ele>390.5</ele>
        <time>2010-05-29T11:01:15Z</time>
      </trkpt>
      <trkpt lat="47.571" lon="6.85906">
        <ele>390.5</ele>
        <time>2010-05-29T11:01:16Z</time>
      </trkpt>
      <trkpt lat="47.57106" lon="6.85906">
        <ele>390</ele>
        <time>2010-05-29T11:01:17Z</time>
      </trkpt>
      <trkpt lat="47.57111" lon="6.85906">
        <ele>390</ele>
        <time>2010-05-29T11:01:18Z</time>
      </trkpt>
      <trkpt lat="47.57117" lon="6.85907">
        <ele>390</ele>
        <time>2010-05-29T11:01:19Z</time>
      </trkpt>
      <trkpt lat="47.57122" lon="6.85907">
        <ele>390</ele>
        <time>2010-05-29T11:01:20Z</time>
      </trkpt>
      <trkpt lat="47.57128" lon="6.85908">
        <ele>390</ele>
        <time>2010-05-29T11:01:21Z</time>
      </trkpt>
      <trkpt lat="47.57134" lon="6.85908">
        <ele>389.5</ele>
        <time>2010-05-29T11:01:22Z</time>
      </trkpt>
      <trkpt lat="47.57139" lon="6.85909">
        <ele>389.5</ele>
        <time>2010-05-29T11:01:23Z</time>
      </trkpt>
      <trkpt lat="47.57145" lon="6.85909">
        <ele>389.5</ele>
        <time>2010-05-29T11:01:24Z</time>
      </trkpt>
      <trkpt lat="47.5715" lon="6.85909">
        <ele>389.5</ele>
        <time>2010-05-29T11:01:25Z</time>
      </trkpt>
      <trkpt lat="47.57155" lon="6.85909">
        <ele>389.5</ele>
        <time>2010-05-29T11:01:26Z</time>
      </trkpt>
      <trkpt lat="47.57161" lon="6.85909">
        <ele>389.5</ele>
        <time>2010-05-29T11:01:27Z</time>
      </trkpt>
      <trkpt lat="47.57166" lon="6.85909">
        <ele>389</ele>
        <time>2010-05-29T11:01:28Z</time>
      </trkpt>
      <trkpt lat="47.57172" lon="6.85909">
        <ele>389</ele>
        <time>2010-05-29T11:01:29Z</time>
      </trkpt>
      <trkpt lat="47.57177" lon="6.85909">
        <ele>389</ele>
        <time>2010-05-29T11:01:30Z</time>
      </trkpt>
      <trkpt lat="47.57183" lon="6.8591">
        <ele>389</ele>
        <time>2010-05-29T11:01:31Z</time>
      </trkpt>
      <trkpt lat="47.57188" lon="6.8591">
        <ele>389</ele>
        <time>2010-05-29T11:01:32Z</time>
      </trkpt>
      <trkpt lat="47.57194" lon="6.8591">
        <ele>388.5</ele>
        <time>2010-05-29T11:01:33Z</time>
      </trkpt>
      <trkpt lat="47.57199" lon="6.8591">
        <ele>388.5</ele>
        <time>2010-05-29T11:01:34Z</time>
      </trkpt>
      <trkpt lat="47.57204" lon="6.85909">
        <ele>388.5</ele>
        <time>2010-05-29T11:01:35Z</time>
      </trkpt>
      <trkpt lat="47.5721" lon="6.85909">
        <ele>388.5</ele>
        <time>2010-05-29T11:01:36Z</time>
      </trkpt>
      <trkpt lat="47.57216" lon="6.85909">
        <ele>389</ele>
        <time>2010-05-29T11:01:37Z</time>
      </trkpt>
      <trkpt lat="47.57221" lon="6.85909">
        <ele>389</ele>
        <time>2010-05-29T11:01:38Z</time>
      </trkpt>
      <trkpt lat="47.57226" lon="6.85909">
        <ele>389</ele>
        <time>2010-05-29T11:01:39Z</time>
      </trkpt>
      <trkpt lat="47.57232" lon="6.85909">
        <ele>389</ele>
        <time>2010-05-29T11:01:40Z</time>
      </trkpt>
      <trkpt lat="47.57237" lon="6.85909">
        <ele>388.5</ele>
        <time>2010-05-29T11:01:41Z</time>
      </trkpt>
      <trkpt lat="47.57242" lon="6.8591">
        <ele>388.5</ele>
        <time>2010-05-29T11:01:42Z</time>
      </trkpt>
      <trkpt lat="47.57248" lon="6.8591">
        <ele>388.5</ele>
        <time>2010-05-29T11:01:43Z</time>
      </trkpt>
      <trkpt lat="47.57253" lon="6.8591">
        <ele>388.5</ele>
        <time>2010-05-29T11:01:44Z</time>
      </trkpt>
      <trkpt lat="47.57258" lon="6.85909">
        <ele>388.5</ele>
        <time>2010-05-29T11:01:45Z</time>
      </trkpt>
      <trkpt lat="47.57263" lon="6.85909">
        <ele>388.5</ele>
        <time>2010-05-29T11:01:46Z</time>
      </trkpt>
      <trkpt lat="47.57269" lon="6.85909">
        <ele>388.5</ele>
        <time>2010-05-29T11:01:47Z</time>
      </trkpt>
      <trkpt lat="47.57274" lon="6.85909">
        <ele>388</ele>
        <time>2010-05-29T11:01:48Z</time>
      </trkpt>
      <trkpt lat="47.57279" lon="6.85909">
        <ele>388</ele>
        <time>2010-05-29T11:01:49Z</time>
      </trkpt>
      <trkpt lat="47.57284" lon="6.85909">
        <ele>388</ele>
        <time>2010-05-29T11:01:50Z</time>
      </trkpt>
      <trkpt lat="47.5729" lon="6.85909">
        <ele>388</ele>
        <time>2010-05-29T11:01:51Z</time>
      </trkpt>
      <trkpt lat="47.57295" lon="6.85909">
        <ele>388</ele>
        <time>2010-05-29T11:01:52Z</time>
      </trkpt>
      <trkpt lat="47.573" lon="6.85909">
        <ele>388</ele>
        <time>2010-05-29T11:01:53Z</time>
      </trkpt>
      <trkpt lat="47.57305" lon="6.85909">
        <ele>388</ele>
        <time>2010-05-29T11:01:54Z</time>
      </trkpt>
      <trkpt lat="47.57311" lon="6.85909">
        <ele>387.5</ele>
        <time>2010-05-29T11:01:55Z</time>
      </trkpt>
      <trkpt lat="47.57316" lon="6.85909">
        <ele>387.5</ele>
        <time>2010-05-29T11:01:56Z</time>
      </trkpt>
      <trkpt lat="47.57321" lon="6.8591">
        <ele>387.5</ele>
        <time>2010-05-29T11:01:57Z</time>
      </trkpt>
      <trkpt lat="47.57326" lon="6.8591">
        <ele>387</ele>
        <time>2010-05-29T11:01:58Z</time>
      </trkpt>
      <trkpt lat="47.57331" lon="6.8591">
        <ele>387</ele>
        <time>2010-05-29T11:01:59Z</time>
      </trkpt>
      <trkpt lat="47.57336" lon="6.8591">
        <ele>387</ele>
        <time>2010-05-29T11:02:00Z</time>
      </trkpt>
      <trkpt lat="47.57341" lon="6.85909">
        <ele>387</ele>
        <time>2010-05-29T11:02:01Z</time>
      </trkpt>
      <trkpt lat="47.57346" lon="6.85909">
        <ele>386.5</ele>
        <time>2010-05-29T11:02:02Z</time>
      </trkpt>
      <trkpt lat="47.57351" lon="6.85908">
        <ele>387</ele>
        <time>2010-05-29T11:02:03Z</time>
      </trkpt>
      <trkpt lat="47.57356" lon="6.85908">
        <ele>387</ele>
        <time>2010-05-29T11:02:04Z</time>
      </trkpt>
      <trkpt lat="47.57365" lon="6.85908">
        <ele>386.5</ele>
        <time>2010-05-29T11:02:06Z</time>
      </trkpt>
      <trkpt lat="47.57374" lon="6.85907">
        <ele>386.5</ele>
        <time>2010-05-29T11:02:08Z</time>
      </trkpt>
      <trkpt lat="47.57381" lon="6.85908">
        <ele>387</ele>
        <time>2010-05-29T11:02:10Z</time>
      </trkpt>
      <trkpt lat="47.57389" lon="6.8591">
        <ele>388</ele>
        <time>2010-05-29T11:02:12Z</time>
      </trkpt>
      <trkpt lat="47.57396" lon="6.85911">
        <ele>388</ele>
        <time>2010-05-29T11:02:14Z</time>
      </trkpt>
      <trkpt lat="47.57401" lon="6.85911">
        <ele>388</ele>
        <time>2010-05-29T11:02:15Z</time>
      </trkpt>
      <trkpt lat="47.57406" lon="6.85912">
        <ele>388.5</ele>
        <time>2010-05-29T11:02:16Z</time>
      </trkpt>
      <trkpt lat="47.57411" lon="6.85913">
        <ele>388.5</ele>
        <time>2010-05-29T11:02:17Z</time>
      </trkpt>
      <trkpt lat="47.57416" lon="6.85913">
        <ele>388.5</ele>
        <time>2010-05-29T11:02:18Z</time>
      </trkpt>
      <trkpt lat="47.57421" lon="6.85914">
        <ele>388.5</ele>
        <time>2010-05-29T11:02:19Z</time>
      </trkpt>
      <trkpt lat="47.57426" lon="6.85914">
        <ele>388.5</ele>
        <time>2010-05-29T11:02:20Z</time>
      </trkpt>
      <trkpt lat="47.57431" lon="6.85913">
        <ele>388</ele>
        <time>2010-05-29T11:02:21Z</time>
      </trkpt>
      <trkpt lat="47.57436" lon="6.85913">
        <ele>388</ele>
        <time>2010-05-29T11:02:22Z</time>
      </trkpt>
      <trkpt lat="47.57441" lon="6.85913">
        <ele>388</ele>
        <time>2010-05-29T11:02:23Z</time>
      </trkpt>
      <trkpt lat="47.57446" lon="6.85912">
        <ele>388</ele>
        <time>2010-05-29T11:02:24Z</time>
      </trkpt>
      <trkpt lat="47.57451" lon="6.85912">
        <ele>388</ele>
        <time>2010-05-29T11:02:25Z</time>
      </trkpt>
      <trkpt lat="47.57456" lon="6.85911">
        <ele>388</ele>
        <time>2010-05-29T11:02:26Z</time>
      </trkpt>
      <trkpt lat="47.57461" lon="6.85911">
        <ele>388</ele>
        <time>2010-05-29T11:02:27Z</time>
      </trkpt>
      <trkpt lat="47.57466" lon="6.85911">
        <ele>388.5</ele>
        <time>2010-05-29T11:02:28Z</time>
      </trkpt>
      <trkpt lat="47.57471" lon="6.85911">
        <ele>388.5</ele>
        <time>2010-05-29T11:02:29Z</time>
      </trkpt>
      <trkpt lat="47.57476" lon="6.85912">
        <ele>388.5</ele>
        <time>2010-05-29T11:02:30Z</time>
      </trkpt>
      <trkpt lat="47.57481" lon="6.85912">
        <ele>389</ele>
        <time>2010-05-29T11:02:31Z</time>
      </trkpt>
      <trkpt lat="47.57486" lon="6.85912">
        <ele>389</ele>
        <time>2010-05-29T11:02:32Z</time>
      </trkpt>
      <trkpt lat="47.57491" lon="6.85912">
        <ele>389</ele>
        <time>2010-05-29T11:02:33Z</time>
      </trkpt>
      <trkpt lat="47.57496" lon="6.85911">
        <ele>389</ele>
        <time>2010-05-29T11:02:34Z</time>
      </trkpt>
      <trkpt lat="47.57501" lon="6.85911">
        <ele>389.5</ele>
        <time>2010-05-29T11:02:35Z</time>
      </trkpt>
      <trkpt lat="47.57506" lon="6.85911">
        <ele>390</ele>
        <time>2010-05-29T11:02:36Z</time>
      </trkpt>
      <trkpt lat="47.57511" lon="6.85911">
        <ele>389.5</ele>
        <time>2010-05-29T11:02:37Z</time>
      </trkpt>
      <trkpt lat="47.57516" lon="6.85911">
        <ele>389.5</ele>
        <time>2010-05-29T11:02:38Z</time>
      </trkpt>
      <trkpt lat="47.57521" lon="6.85911">
        <ele>389.5</ele>
        <time>2010-05-29T11:02:39Z</time>
      </trkpt>
      <trkpt lat="47.57525" lon="6.85911">
        <ele>389.5</ele>
        <time>2010-05-29T11:02:40Z</time>
      </trkpt>
      <trkpt lat="47.5753" lon="6.85911">
        <ele>389.5</ele>
        <time>2010-05-29T11:02:41Z</time>
      </trkpt>
      <trkpt lat="47.57535" lon="6.85911">
        <ele>389.5</ele>
        <time>2010-05-29T11:02:42Z</time>
      </trkpt>
      <trkpt lat="47.57541" lon="6.85911">
        <ele>390</ele>
        <time>2010-05-29T11:02:43Z</time>
      </trkpt>
      <trkpt lat="47.57546" lon="6.85911">
        <ele>390.5</ele>
        <time>2010-05-29T11:02:44Z</time>
      </trkpt>
      <trkpt lat="47.57551" lon="6.85912">
        <ele>390</ele>
        <time>2010-05-29T11:02:45Z</time>
      </trkpt>
      <trkpt lat="47.57556" lon="6.85911">
        <ele>390</ele>
        <time>2010-05-29T11:02:46Z</time>
      </trkpt>
      <trkpt lat="47.5756" lon="6.85911">
        <ele>390.5</ele>
        <time>2010-05-29T11:02:47Z</time>
      </trkpt>
      <trkpt lat="47.57565" lon="6.8591">
        <ele>390.5</ele>
        <time>2010-05-29T11:02:48Z</time>
      </trkpt>
      <trkpt lat="47.5757" lon="6.8591">
        <ele>390.5</ele>
        <time>2010-05-29T11:02:49Z</time>
      </trkpt>
      <trkpt lat="47.57575" lon="6.8591">
        <ele>390.5</ele>
        <time>2010-05-29T11:02:50Z</time>
      </trkpt>
      <trkpt lat="47.57581" lon="6.8591">
        <ele>390.5</ele>
        <time>2010-05-29T11:02:51Z</time>
      </trkpt>
      <trkpt lat="47.57586" lon="6.8591">
        <ele>390.5</ele>
        <time>2010-05-29T11:02:52Z</time>
      </trkpt>
      <trkpt lat="47.57592" lon="6.8591">
        <ele>391</ele>
        <time>2010-05-29T11:02:53Z</time>
      </trkpt>
      <trkpt lat="47.57597" lon="6.8591">
        <ele>390.5</ele>
        <time>2010-05-29T11:02:54Z</time>
      </trkpt>
      <trkpt lat="47.57602" lon="6.85911">
        <ele>390.5</ele>
        <time>2010-05-29T11:02:55Z</time>
      </trkpt>
      <trkpt lat="47.57607" lon="6.85911">
        <ele>390.5</ele>
        <time>2010-05-29T11:02:56Z</time>
      </trkpt>
      <trkpt lat="47.57612" lon="6.8591">
        <ele>390.5</ele>
        <time>2010-05-29T11:02:57Z</time>
      </trkpt>
      <trkpt lat="47.57618" lon="6.8591">
        <ele>390.5</ele>
        <time>2010-05-29T11:02:58Z</time>
      </trkpt>
      <trkpt lat="47.57623" lon="6.85911">
        <ele>390.5</ele>
        <time>2010-05-29T11:02:59Z</time>
      </trkpt>
      <trkpt lat="47.57628" lon="6.85911">
        <ele>390.5</ele>
        <time>2010-05-29T11:03:00Z</time>
      </trkpt>
      <trkpt lat="47.57633" lon="6.85911">
        <ele>390.5</ele>
        <time>2010-05-29T11:03:01Z</time>
      </trkpt>
      <trkpt lat="47.57639" lon="6.85911">
        <ele>390.5</ele>
        <time>2010-05-29T11:03:02Z</time>
      </trkpt>
      <trkpt lat="47.57644" lon="6.85911">
        <ele>390.5</ele>
        <time>2010-05-29T11:03:03Z</time>
      </trkpt>
      <trkpt lat="47.57649" lon="6.85911">
        <ele>390.5</ele>
        <time>2010-05-29T11:03:04Z</time>
      </trkpt>
      <trkpt lat="47.57654" lon="6.85911">
        <ele>390.5</ele>
        <time>2010-05-29T11:03:05Z</time>
      </trkpt>
      <trkpt lat="47.57659" lon="6.85911">
        <ele>390.5</ele>
        <time>2010-05-29T11:03:06Z</time>
      </trkpt>
      <trkpt lat="47.57669" lon="6.85912">
        <ele>390.5</ele>
        <time>2010-05-29T11:03:06Z</time>
      </trkpt>
      <trkpt lat="47.57674" lon="6.85912">
        <ele>390.5</ele>
        <time>2010-05-29T11:03:09Z</time>
      </trkpt>
      <trkpt lat="47.57679" lon="6.85911">
        <ele>390.5</ele>
        <time>2010-05-29T11:03:10Z</time>
      </trkpt>
      <trkpt lat="47.57684" lon="6.85911">
        <ele>391</ele>
        <time>2010-05-29T11:03:11Z</time>
      </trkpt>
      <trkpt lat="47.57689" lon="6.8591">
        <ele>391</ele>
        <time>2010-05-29T11:03:12Z</time>
      </trkpt>
      <trkpt lat="47.57694" lon="6.8591">
        <ele>391</ele>
        <time>2010-05-29T11:03:13Z</time>
      </trkpt>
      <trkpt lat="47.57699" lon="6.8591">
        <ele>391</ele>
        <time>2010-05-29T11:03:14Z</time>
      </trkpt>
      <trkpt lat="47.57704" lon="6.8591">
        <ele>391</ele>
        <time>2010-05-29T11:03:15Z</time>
      </trkpt>
      <trkpt lat="47.57708" lon="6.8591">
        <ele>391</ele>
        <time>2010-05-29T11:03:16Z</time>
      </trkpt>
      <trkpt lat="47.57714" lon="6.85911">
        <ele>391</ele>
        <time>2010-05-29T11:03:17Z</time>
      </trkpt>
      <trkpt lat="47.57719" lon="6.85911">
        <ele>391</ele>
        <time>2010-05-29T11:03:18Z</time>
      </trkpt>
      <trkpt lat="47.57724" lon="6.85911">
        <ele>391</ele>
        <time>2010-05-29T11:03:19Z</time>
      </trkpt>
      <trkpt lat="47.57729" lon="6.85911">
        <ele>391</ele>
        <time>2010-05-29T11:03:20Z</time>
      </trkpt>
      <trkpt lat="47.57734" lon="6.8591">
        <ele>391</ele>
        <time>2010-05-29T11:03:21Z</time>
      </trkpt>
      <trkpt lat="47.57739" lon="6.85911">
        <ele>391</ele>
        <time>2010-05-29T11:03:22Z</time>
      </trkpt>
      <trkpt lat="47.57744" lon="6.85911">
        <ele>391</ele>
        <time>2010-05-29T11:03:23Z</time>
      </trkpt>
      <trkpt lat="47.57749" lon="6.85911">
        <ele>391</ele>
        <time>2010-05-29T11:03:24Z</time>
      </trkpt>
      <trkpt lat="47.57753" lon="6.85911">
        <ele>390.5</ele>
        <time>2010-05-29T11:03:25Z</time>
      </trkpt>
      <trkpt lat="47.57758" lon="6.85911">
        <ele>390.5</ele>
        <time>2010-05-29T11:03:26Z</time>
      </trkpt>
      <trkpt lat="47.57763" lon="6.85911">
        <ele>390.5</ele>
        <time>2010-05-29T11:03:27Z</time>
      </trkpt>
      <trkpt lat="47.57768" lon="6.85911">
        <ele>390</ele>
        <time>2010-05-29T11:03:28Z</time>
      </trkpt>
      <trkpt lat="47.57773" lon="6.85912">
        <ele>390.5</ele>
        <time>2010-05-29T11:03:29Z</time>
      </trkpt>
      <trkpt lat="47.57778" lon="6.85912">
        <ele>390.5</ele>
        <time>2010-05-29T11:03:30Z</time>
      </trkpt>
      <trkpt lat="47.57783" lon="6.85912">
        <ele>390.5</ele>
        <time>2010-05-29T11:03:31Z</time>
      </trkpt>
      <trkpt lat="47.57789" lon="6.85912">
        <ele>390.5</ele>
        <time>2010-05-29T11:03:32Z</time>
      </trkpt>
      <trkpt lat="47.57794" lon="6.85913">
        <ele>390.5</ele>
        <time>2010-05-29T11:03:33Z</time>
      </trkpt>
      <trkpt lat="47.57799" lon="6.85913">
        <ele>390.5</ele>
        <time>2010-05-29T11:03:34Z</time>
      </trkpt>
      <trkpt lat="47.57804" lon="6.85913">
        <ele>390.5</ele>
        <time>2010-05-29T11:03:35Z</time>
      </trkpt>
      <trkpt lat="47.57809" lon="6.85913">
        <ele>390.5</ele>
        <time>2010-05-29T11:03:36Z</time>
      </trkpt>
      <trkpt lat="47.57814" lon="6.85913">
        <ele>390</ele>
        <time>2010-05-29T11:03:37Z</time>
      </trkpt>
      <trkpt lat="47.57819" lon="6.85913">
        <ele>390</ele>
        <time>2010-05-29T11:03:38Z</time>
      </trkpt>
      <trkpt lat="47.57824" lon="6.85913">
        <ele>390.5</ele>
        <time>2010-05-29T11:03:39Z</time>
      </trkpt>
      <trkpt lat="47.5783" lon="6.85913">
        <ele>390.5</ele>
        <time>2010-05-29T11:03:40Z</time>
      </trkpt>
      <trkpt lat="47.57835" lon="6.85913">
        <ele>391</ele>
        <time>2010-05-29T11:03:41Z</time>
      </trkpt>
      <trkpt lat="47.5784" lon="6.85913">
        <ele>390.5</ele>
        <time>2010-05-29T11:03:42Z</time>
      </trkpt>
      <trkpt lat="47.57845" lon="6.85913">
        <ele>391</ele>
        <time>2010-05-29T11:03:43Z</time>
      </trkpt>
      <trkpt lat="47.5785" lon="6.85912">
        <ele>390.5</ele>
        <time>2010-05-29T11:03:44Z</time>
      </trkpt>
      <trkpt lat="47.57856" lon="6.85912">
        <ele>390.5</ele>
        <time>2010-05-29T11:03:45Z</time>
      </trkpt>
      <trkpt lat="47.5786" lon="6.85912">
        <ele>390.5</ele>
        <time>2010-05-29T11:03:46Z</time>
      </trkpt>
      <trkpt lat="47.57866" lon="6.85912">
        <ele>390.5</ele>
        <time>2010-05-29T11:03:47Z</time>
      </trkpt>
      <trkpt lat="47.57871" lon="6.85912">
        <ele>390.5</ele>
        <time>2010-05-29T11:03:48Z</time>
      </trkpt>
      <trkpt lat="47.57875" lon="6.85912">
        <ele>390</ele>
        <time>2010-05-29T11:03:49Z</time>
      </trkpt>
      <trkpt lat="47.5788" lon="6.85912">
        <ele>390.5</ele>
        <time>2010-05-29T11:03:50Z</time>
      </trkpt>
      <trkpt lat="47.57886" lon="6.85912">
        <ele>390</ele>
        <time>2010-05-29T11:03:51Z</time>
      </trkpt>
      <trkpt lat="47.57891" lon="6.85911">
        <ele>390</ele>
        <time>2010-05-29T11:03:52Z</time>
      </trkpt>
      <trkpt lat="47.57896" lon="6.85911">
        <ele>390</ele>
        <time>2010-05-29T11:03:53Z</time>
      </trkpt>
      <trkpt lat="47.57901" lon="6.85911">
        <ele>390</ele>
        <time>2010-05-29T11:03:54Z</time>
      </trkpt>
      <trkpt lat="47.57906" lon="6.85911">
        <ele>390</ele>
        <time>2010-05-29T11:03:55Z</time>
      </trkpt>
      <trkpt lat="47.57911" lon="6.85911">
        <ele>390.5</ele>
        <time>2010-05-29T11:03:56Z</time>
      </trkpt>
      <trkpt lat="47.57916" lon="6.85911">
        <ele>390</ele>
        <time>2010-05-29T11:03:57Z</time>
      </trkpt>
      <trkpt lat="47.57921" lon="6.85911">
        <ele>390.5</ele>
        <time>2010-05-29T11:03:58Z</time>
      </trkpt>
      <trkpt lat="47.57926" lon="6.85911">
        <ele>390.5</ele>
        <time>2010-05-29T11:03:59Z</time>
      </trkpt>
      <trkpt lat="47.57931" lon="6.85912">
        <ele>390</ele>
        <time>2010-05-29T11:04:00Z</time>
      </trkpt>
      <trkpt lat="47.57936" lon="6.85911">
        <ele>390</ele>
        <time>2010-05-29T11:04:01Z</time>
      </trkpt>
      <trkpt lat="47.57941" lon="6.85911">
        <ele>390.5</ele>
        <time>2010-05-29T11:04:02Z</time>
      </trkpt>
      <trkpt lat="47.57946" lon="6.85911">
        <ele>390.5</ele>
        <time>2010-05-29T11:04:03Z</time>
      </trkpt>
      <trkpt lat="47.57951" lon="6.85912">
        <ele>390.5</ele>
        <time>2010-05-29T11:04:04Z</time>
      </trkpt>
      <trkpt lat="47.57956" lon="6.85911">
        <ele>390.5</ele>
        <time>2010-05-29T11:04:05Z</time>
      </trkpt>
      <trkpt lat="47.57962" lon="6.85911">
        <ele>390.5</ele>
        <time>2010-05-29T11:04:06Z</time>
      </trkpt>
      <trkpt lat="47.57972" lon="6.85911">
        <ele>390.5</ele>
        <time>2010-05-29T11:04:06Z</time>
      </trkpt>
      <trkpt lat="47.57977" lon="6.85911">
        <ele>390.5</ele>
        <time>2010-05-29T11:04:09Z</time>
      </trkpt>
      <trkpt lat="47.57982" lon="6.8591">
        <ele>390.5</ele>
        <time>2010-05-29T11:04:10Z</time>
      </trkpt>
      <trkpt lat="47.57987" lon="6.85911">
        <ele>390.5</ele>
        <time>2010-05-29T11:04:11Z</time>
      </trkpt>
      <trkpt lat="47.57992" lon="6.85909">
        <ele>390.5</ele>
        <time>2010-05-29T11:04:12Z</time>
      </trkpt>
      <trkpt lat="47.57997" lon="6.85908">
        <ele>390.5</ele>
        <time>2010-05-29T11:04:13Z</time>
      </trkpt>
      <trkpt lat="47.58003" lon="6.85908">
        <ele>390.5</ele>
        <time>2010-05-29T11:04:14Z</time>
      </trkpt>
      <trkpt lat="47.58008" lon="6.85907">
        <ele>390.5</ele>
        <time>2010-05-29T11:04:15Z</time>
      </trkpt>
      <trkpt lat="47.58012" lon="6.85905">
        <ele>390.5</ele>
        <time>2010-05-29T11:04:16Z</time>
      </trkpt>
      <trkpt lat="47.58017" lon="6.85904">
        <ele>390.5</ele>
        <time>2010-05-29T11:04:17Z</time>
      </trkpt>
      <trkpt lat="47.58022" lon="6.85902">
        <ele>390.5</ele>
        <time>2010-05-29T11:04:18Z</time>
      </trkpt>
      <trkpt lat="47.58027" lon="6.859">
        <ele>391</ele>
        <time>2010-05-29T11:04:19Z</time>
      </trkpt>
      <trkpt lat="47.58032" lon="6.85897">
        <ele>391</ele>
        <time>2010-05-29T11:04:20Z</time>
      </trkpt>
      <trkpt lat="47.58036" lon="6.85895">
        <ele>391.5</ele>
        <time>2010-05-29T11:04:21Z</time>
      </trkpt>
      <trkpt lat="47.58041" lon="6.85892">
        <ele>391.5</ele>
        <time>2010-05-29T11:04:22Z</time>
      </trkpt>
      <trkpt lat="47.58045" lon="6.85888">
        <ele>392</ele>
        <time>2010-05-29T11:04:23Z</time>
      </trkpt>
      <trkpt lat="47.58051" lon="6.85881">
        <ele>391.5</ele>
        <time>2010-05-29T11:04:25Z</time>
      </trkpt>
      <trkpt lat="47.58057" lon="6.85874">
        <ele>392</ele>
        <time>2010-05-29T11:04:27Z</time>
      </trkpt>
      <trkpt lat="47.58062" lon="6.85867">
        <ele>392</ele>
        <time>2010-05-29T11:04:29Z</time>
      </trkpt>
      <trkpt lat="47.58068" lon="6.8586">
        <ele>392.5</ele>
        <time>2010-05-29T11:04:31Z</time>
      </trkpt>
      <trkpt lat="47.58074" lon="6.85854">
        <ele>392.5</ele>
        <time>2010-05-29T11:04:33Z</time>
      </trkpt>
      <trkpt lat="47.5808" lon="6.85848">
        <ele>392.5</ele>
        <time>2010-05-29T11:04:35Z</time>
      </trkpt>
      <trkpt lat="47.58087" lon="6.85841">
        <ele>393</ele>
        <time>2010-05-29T11:04:37Z</time>
      </trkpt>
      <trkpt lat="47.58094" lon="6.85833">
        <ele>393</ele>
        <time>2010-05-29T11:04:39Z</time>
      </trkpt>
      <trkpt lat="47.58101" lon="6.85826">
        <ele>393</ele>
        <time>2010-05-29T11:04:41Z</time>
      </trkpt>
      <trkpt lat="47.58106" lon="6.85821">
        <ele>393.5</ele>
        <time>2010-05-29T11:04:43Z</time>
      </trkpt>
      <trkpt lat="47.5811" lon="6.85817">
        <ele>394</ele>
        <time>2010-05-29T11:04:46Z</time>
      </trkpt>
      <trkpt lat="47.58113" lon="6.85813">
        <ele>394.5</ele>
        <time>2010-05-29T11:04:48Z</time>
      </trkpt>
      <trkpt lat="47.58118" lon="6.85806">
        <ele>394</ele>
        <time>2010-05-29T11:04:50Z</time>
      </trkpt>
      <trkpt lat="47.58123" lon="6.85798">
        <ele>393.5</ele>
        <time>2010-05-29T11:04:52Z</time>
      </trkpt>
      <trkpt lat="47.58128" lon="6.85791">
        <ele>394</ele>
        <time>2010-05-29T11:04:54Z</time>
      </trkpt>
      <trkpt lat="47.58133" lon="6.85782">
        <ele>394.5</ele>
        <time>2010-05-29T11:04:56Z</time>
      </trkpt>
      <trkpt lat="47.58138" lon="6.85774">
        <ele>394.5</ele>
        <time>2010-05-29T11:04:58Z</time>
      </trkpt>
      <trkpt lat="47.58143" lon="6.85768">
        <ele>394.5</ele>
        <time>2010-05-29T11:05:00Z</time>
      </trkpt>
      <trkpt lat="47.58147" lon="6.85763">
        <ele>394.5</ele>
        <time>2010-05-29T11:05:03Z</time>
      </trkpt>
      <trkpt lat="47.58149" lon="6.85753">
        <ele>394.5</ele>
        <time>2010-05-29T11:05:06Z</time>
      </trkpt>
      <trkpt lat="47.5815" lon="6.85745">
        <ele>395</ele>
        <time>2010-05-29T11:05:06Z</time>
      </trkpt>
      <trkpt lat="47.58152" lon="6.85738">
        <ele>395</ele>
        <time>2010-05-29T11:05:10Z</time>
      </trkpt>
      <trkpt lat="47.58157" lon="6.85731">
        <ele>395</ele>
        <time>2010-05-29T11:05:12Z</time>
      </trkpt>
      <trkpt lat="47.5816" lon="6.85726">
        <ele>395.5</ele>
        <time>2010-05-29T11:05:13Z</time>
      </trkpt>
      <trkpt lat="47.58166" lon="6.85717">
        <ele>395.5</ele>
        <time>2010-05-29T11:05:15Z</time>
      </trkpt>
      <trkpt lat="47.58173" lon="6.85709">
        <ele>396</ele>
        <time>2010-05-29T11:05:17Z</time>
      </trkpt>
      <trkpt lat="47.5818" lon="6.85702">
        <ele>396.5</ele>
        <time>2010-05-29T11:05:19Z</time>
      </trkpt>
      <trkpt lat="47.58187" lon="6.85697">
        <ele>397</ele>
        <time>2010-05-29T11:05:21Z</time>
      </trkpt>
      <trkpt lat="47.58191" lon="6.85695">
        <ele>397</ele>
        <time>2010-05-29T11:05:22Z</time>
      </trkpt>
      <trkpt lat="47.582" lon="6.85691">
        <ele>397</ele>
        <time>2010-05-29T11:05:24Z</time>
      </trkpt>
      <trkpt lat="47.58208" lon="6.8569">
        <ele>396.5</ele>
        <time>2010-05-29T11:05:26Z</time>
      </trkpt>
      <trkpt lat="47.58216" lon="6.85693">
        <ele>395.5</ele>
        <time>2010-05-29T11:05:28Z</time>
      </trkpt>
      <trkpt lat="47.5822" lon="6.85695">
        <ele>396</ele>
        <time>2010-05-29T11:05:29Z</time>
      </trkpt>
      <trkpt lat="47.58228" lon="6.85698">
        <ele>396</ele>
        <time>2010-05-29T11:05:31Z</time>
      </trkpt>
      <trkpt lat="47.58237" lon="6.85694">
        <ele>395.5</ele>
        <time>2010-05-29T11:05:33Z</time>
      </trkpt>
      <trkpt lat="47.58244" lon="6.85687">
        <ele>394</ele>
        <time>2010-05-29T11:05:35Z</time>
      </trkpt>
      <trkpt lat="47.58252" lon="6.85684">
        <ele>394</ele>
        <time>2010-05-29T11:05:37Z</time>
      </trkpt>
      <trkpt lat="47.58261" lon="6.85685">
        <ele>394.5</ele>
        <time>2010-05-29T11:05:39Z</time>
      </trkpt>
      <trkpt lat="47.58269" lon="6.85687">
        <ele>394.5</ele>
        <time>2010-05-29T11:05:41Z</time>
      </trkpt>
      <trkpt lat="47.58274" lon="6.85688">
        <ele>394.5</ele>
        <time>2010-05-29T11:05:42Z</time>
      </trkpt>
      <trkpt lat="47.58278" lon="6.85689">
        <ele>394</ele>
        <time>2010-05-29T11:05:43Z</time>
      </trkpt>
      <trkpt lat="47.58287" lon="6.85691">
        <ele>394.5</ele>
        <time>2010-05-29T11:05:45Z</time>
      </trkpt>
      <trkpt lat="47.58292" lon="6.85693">
        <ele>394.5</ele>
        <time>2010-05-29T11:05:46Z</time>
      </trkpt>
      <trkpt lat="47.58296" lon="6.85694">
        <ele>394</ele>
        <time>2010-05-29T11:05:47Z</time>
      </trkpt>
      <trkpt lat="47.58301" lon="6.85694">
        <ele>394</ele>
        <time>2010-05-29T11:05:48Z</time>
      </trkpt>
      <trkpt lat="47.58306" lon="6.85695">
        <ele>393.5</ele>
        <time>2010-05-29T11:05:49Z</time>
      </trkpt>
      <trkpt lat="47.58311" lon="6.85695">
        <ele>393</ele>
        <time>2010-05-29T11:05:50Z</time>
      </trkpt>
      <trkpt lat="47.58316" lon="6.85696">
        <ele>393</ele>
        <time>2010-05-29T11:05:51Z</time>
      </trkpt>
      <trkpt lat="47.5832" lon="6.85697">
        <ele>392.5</ele>
        <time>2010-05-29T11:05:52Z</time>
      </trkpt>
      <trkpt lat="47.58325" lon="6.85698">
        <ele>392.5</ele>
        <time>2010-05-29T11:05:53Z</time>
      </trkpt>
      <trkpt lat="47.5833" lon="6.85699">
        <ele>392.5</ele>
        <time>2010-05-29T11:05:54Z</time>
      </trkpt>
      <trkpt lat="47.58334" lon="6.85701">
        <ele>392.5</ele>
        <time>2010-05-29T11:05:55Z</time>
      </trkpt>
      <trkpt lat="47.58339" lon="6.85702">
        <ele>392</ele>
        <time>2010-05-29T11:05:56Z</time>
      </trkpt>
      <trkpt lat="47.58344" lon="6.85704">
        <ele>392.5</ele>
        <time>2010-05-29T11:05:57Z</time>
      </trkpt>
      <trkpt lat="47.58349" lon="6.85705">
        <ele>392</ele>
        <time>2010-05-29T11:05:58Z</time>
      </trkpt>
      <trkpt lat="47.58353" lon="6.85706">
        <ele>392</ele>
        <time>2010-05-29T11:05:59Z</time>
      </trkpt>
      <trkpt lat="47.58358" lon="6.85708">
        <ele>392.5</ele>
        <time>2010-05-29T11:06:00Z</time>
      </trkpt>
      <trkpt lat="47.58363" lon="6.85709">
        <ele>392</ele>
        <time>2010-05-29T11:06:01Z</time>
      </trkpt>
      <trkpt lat="47.58368" lon="6.8571">
        <ele>392</ele>
        <time>2010-05-29T11:06:02Z</time>
      </trkpt>
      <trkpt lat="47.58372" lon="6.85711">
        <ele>392</ele>
        <time>2010-05-29T11:06:03Z</time>
      </trkpt>
      <trkpt lat="47.58377" lon="6.85712">
        <ele>391.5</ele>
        <time>2010-05-29T11:06:04Z</time>
      </trkpt>
      <trkpt lat="47.58382" lon="6.85713">
        <ele>391.5</ele>
        <time>2010-05-29T11:06:05Z</time>
      </trkpt>
      <trkpt lat="47.58387" lon="6.85714">
        <ele>391.5</ele>
        <time>2010-05-29T11:06:06Z</time>
      </trkpt>
      <trkpt lat="47.58396" lon="6.85716">
        <ele>391.5</ele>
        <time>2010-05-29T11:06:06Z</time>
      </trkpt>
      <trkpt lat="47.58401" lon="6.85717">
        <ele>391.5</ele>
        <time>2010-05-29T11:06:09Z</time>
      </trkpt>
      <trkpt lat="47.58405" lon="6.85718">
        <ele>391.5</ele>
        <time>2010-05-29T11:06:10Z</time>
      </trkpt>
      <trkpt lat="47.58415" lon="6.85721">
        <ele>391.5</ele>
        <time>2010-05-29T11:06:12Z</time>
      </trkpt>
      <trkpt lat="47.5842" lon="6.85722">
        <ele>391.5</ele>
        <time>2010-05-29T11:06:13Z</time>
      </trkpt>
      <trkpt lat="47.58424" lon="6.85724">
        <ele>391</ele>
        <time>2010-05-29T11:06:14Z</time>
      </trkpt>
      <trkpt lat="47.58429" lon="6.85725">
        <ele>391</ele>
        <time>2010-05-29T11:06:15Z</time>
      </trkpt>
      <trkpt lat="47.58434" lon="6.85726">
        <ele>391</ele>
        <time>2010-05-29T11:06:16Z</time>
      </trkpt>
      <trkpt lat="47.58439" lon="6.85728">
        <ele>391</ele>
        <time>2010-05-29T11:06:17Z</time>
      </trkpt>
      <trkpt lat="47.58444" lon="6.85729">
        <ele>390.5</ele>
        <time>2010-05-29T11:06:18Z</time>
      </trkpt>
      <trkpt lat="47.58449" lon="6.85731">
        <ele>390.5</ele>
        <time>2010-05-29T11:06:19Z</time>
      </trkpt>
      <trkpt lat="47.58454" lon="6.85733">
        <ele>391</ele>
        <time>2010-05-29T11:06:20Z</time>
      </trkpt>
      <trkpt lat="47.58459" lon="6.85736">
        <ele>391</ele>
        <time>2010-05-29T11:06:21Z</time>
      </trkpt>
      <trkpt lat="47.58464" lon="6.85738">
        <ele>391</ele>
        <time>2010-05-29T11:06:22Z</time>
      </trkpt>
      <trkpt lat="47.58469" lon="6.8574">
        <ele>391</ele>
        <time>2010-05-29T11:06:23Z</time>
      </trkpt>
      <trkpt lat="47.58474" lon="6.85741">
        <ele>391</ele>
        <time>2010-05-29T11:06:24Z</time>
      </trkpt>
      <trkpt lat="47.5848" lon="6.85743">
        <ele>391.5</ele>
        <time>2010-05-29T11:06:25Z</time>
      </trkpt>
      <trkpt lat="47.58485" lon="6.85745">
        <ele>391.5</ele>
        <time>2010-05-29T11:06:26Z</time>
      </trkpt>
      <trkpt lat="47.5849" lon="6.85747">
        <ele>391.5</ele>
        <time>2010-05-29T11:06:27Z</time>
      </trkpt>
      <trkpt lat="47.58494" lon="6.85749">
        <ele>391.5</ele>
        <time>2010-05-29T11:06:28Z</time>
      </trkpt>
      <trkpt lat="47.58499" lon="6.85751">
        <ele>391.5</ele>
        <time>2010-05-29T11:06:29Z</time>
      </trkpt>
      <trkpt lat="47.58504" lon="6.85754">
        <ele>391.5</ele>
        <time>2010-05-29T11:06:30Z</time>
      </trkpt>
      <trkpt lat="47.58509" lon="6.85755">
        <ele>392</ele>
        <time>2010-05-29T11:06:31Z</time>
      </trkpt>
      <trkpt lat="47.58514" lon="6.85757">
        <ele>392</ele>
        <time>2010-05-29T11:06:32Z</time>
      </trkpt>
      <trkpt lat="47.58519" lon="6.85759">
        <ele>392.5</ele>
        <time>2010-05-29T11:06:33Z</time>
      </trkpt>
      <trkpt lat="47.58524" lon="6.85761">
        <ele>392</ele>
        <time>2010-05-29T11:06:34Z</time>
      </trkpt>
      <trkpt lat="47.58529" lon="6.85763">
        <ele>392.5</ele>
        <time>2010-05-29T11:06:35Z</time>
      </trkpt>
      <trkpt lat="47.58534" lon="6.85765">
        <ele>392.5</ele>
        <time>2010-05-29T11:06:36Z</time>
      </trkpt>
      <trkpt lat="47.58539" lon="6.85767">
        <ele>392</ele>
        <time>2010-05-29T11:06:37Z</time>
      </trkpt>
      <trkpt lat="47.58544" lon="6.85769">
        <ele>392</ele>
        <time>2010-05-29T11:06:38Z</time>
      </trkpt>
      <trkpt lat="47.58549" lon="6.8577">
        <ele>392</ele>
        <time>2010-05-29T11:06:39Z</time>
      </trkpt>
      <trkpt lat="47.58554" lon="6.85772">
        <ele>392</ele>
        <time>2010-05-29T11:06:40Z</time>
      </trkpt>
      <trkpt lat="47.58559" lon="6.85774">
        <ele>392.5</ele>
        <time>2010-05-29T11:06:41Z</time>
      </trkpt>
      <trkpt lat="47.58564" lon="6.85776">
        <ele>392.5</ele>
        <time>2010-05-29T11:06:42Z</time>
      </trkpt>
      <trkpt lat="47.58569" lon="6.85778">
        <ele>392.5</ele>
        <time>2010-05-29T11:06:43Z</time>
      </trkpt>
      <trkpt lat="47.58574" lon="6.8578">
        <ele>393</ele>
        <time>2010-05-29T11:06:44Z</time>
      </trkpt>
      <trkpt lat="47.58578" lon="6.85782">
        <ele>392.5</ele>
        <time>2010-05-29T11:06:45Z</time>
      </trkpt>
      <trkpt lat="47.58583" lon="6.85784">
        <ele>392.5</ele>
        <time>2010-05-29T11:06:46Z</time>
      </trkpt>
      <trkpt lat="47.58588" lon="6.85786">
        <ele>393</ele>
        <time>2010-05-29T11:06:47Z</time>
      </trkpt>
      <trkpt lat="47.58594" lon="6.85788">
        <ele>393</ele>
        <time>2010-05-29T11:06:48Z</time>
      </trkpt>
      <trkpt lat="47.58599" lon="6.8579">
        <ele>393</ele>
        <time>2010-05-29T11:06:49Z</time>
      </trkpt>
      <trkpt lat="47.58604" lon="6.85792">
        <ele>393</ele>
        <time>2010-05-29T11:06:50Z</time>
      </trkpt>
      <trkpt lat="47.58608" lon="6.85794">
        <ele>393</ele>
        <time>2010-05-29T11:06:51Z</time>
      </trkpt>
      <trkpt lat="47.58613" lon="6.85795">
        <ele>393</ele>
        <time>2010-05-29T11:06:52Z</time>
      </trkpt>
      <trkpt lat="47.58618" lon="6.85797">
        <ele>392.5</ele>
        <time>2010-05-29T11:06:53Z</time>
      </trkpt>
      <trkpt lat="47.58623" lon="6.85799">
        <ele>392.5</ele>
        <time>2010-05-29T11:06:54Z</time>
      </trkpt>
      <trkpt lat="47.58628" lon="6.85801">
        <ele>392.5</ele>
        <time>2010-05-29T11:06:55Z</time>
      </trkpt>
      <trkpt lat="47.58632" lon="6.85803">
        <ele>392.5</ele>
        <time>2010-05-29T11:06:56Z</time>
      </trkpt>
      <trkpt lat="47.58637" lon="6.85805">
        <ele>392.5</ele>
        <time>2010-05-29T11:06:57Z</time>
      </trkpt>
      <trkpt lat="47.58642" lon="6.85807">
        <ele>393</ele>
        <time>2010-05-29T11:06:58Z</time>
      </trkpt>
      <trkpt lat="47.58647" lon="6.85807">
        <ele>393</ele>
        <time>2010-05-29T11:06:59Z</time>
      </trkpt>
      <trkpt lat="47.58655" lon="6.85803">
        <ele>392.5</ele>
        <time>2010-05-29T11:07:01Z</time>
      </trkpt>
      <trkpt lat="47.58659" lon="6.85795">
        <ele>393.5</ele>
        <time>2010-05-29T11:07:03Z</time>
      </trkpt>
      <trkpt lat="47.58661" lon="6.85786">
        <ele>394.5</ele>
        <time>2010-05-29T11:07:05Z</time>
      </trkpt>
      <trkpt lat="47.58666" lon="6.85777">
        <ele>394</ele>
        <time>2010-05-29T11:07:06Z</time>
      </trkpt>
      <trkpt lat="47.58664" lon="6.85788">
        <ele>394</ele>
        <time>2010-05-29T11:07:11Z</time>
      </trkpt>
      <trkpt lat="47.58662" lon="6.85796">
        <ele>394</ele>
        <time>2010-05-29T11:07:12Z</time>
      </trkpt>
      <trkpt lat="47.5866" lon="6.85808">
        <ele>394.5</ele>
        <time>2010-05-29T11:07:14Z</time>
      </trkpt>
      <trkpt lat="47.58658" lon="6.85819">
        <ele>394.5</ele>
        <time>2010-05-29T11:07:16Z</time>
      </trkpt>
      <trkpt lat="47.58656" lon="6.8583">
        <ele>394</ele>
        <time>2010-05-29T11:07:18Z</time>
      </trkpt>
      <trkpt lat="47.58655" lon="6.85843">
        <ele>395</ele>
        <time>2010-05-29T11:07:20Z</time>
      </trkpt>
      <trkpt lat="47.58659" lon="6.85854">
        <ele>395.5</ele>
        <time>2010-05-29T11:07:22Z</time>
      </trkpt>
      <trkpt lat="47.58662" lon="6.8586">
        <ele>395.5</ele>
        <time>2010-05-29T11:07:23Z</time>
      </trkpt>
      <trkpt lat="47.58665" lon="6.85864">
        <ele>395.5</ele>
        <time>2010-05-29T11:07:24Z</time>
      </trkpt>
      <trkpt lat="47.5867" lon="6.85868">
        <ele>396</ele>
        <time>2010-05-29T11:07:25Z</time>
      </trkpt>
      <trkpt lat="47.58674" lon="6.8587">
        <ele>396.5</ele>
        <time>2010-05-29T11:07:26Z</time>
      </trkpt>
      <trkpt lat="47.5868" lon="6.85872">
        <ele>396.5</ele>
        <time>2010-05-29T11:07:27Z</time>
      </trkpt>
      <trkpt lat="47.58685" lon="6.85872">
        <ele>396.5</ele>
        <time>2010-05-29T11:07:28Z</time>
      </trkpt>
      <trkpt lat="47.58691" lon="6.85873">
        <ele>396.5</ele>
        <time>2010-05-29T11:07:29Z</time>
      </trkpt>
      <trkpt lat="47.58696" lon="6.85874">
        <ele>396.5</ele>
        <time>2010-05-29T11:07:30Z</time>
      </trkpt>
      <trkpt lat="47.58702" lon="6.85874">
        <ele>396.5</ele>
        <time>2010-05-29T11:07:31Z</time>
      </trkpt>
      <trkpt lat="47.58707" lon="6.85875">
        <ele>396.5</ele>
        <time>2010-05-29T11:07:32Z</time>
      </trkpt>
      <trkpt lat="47.58713" lon="6.85876">
        <ele>396.5</ele>
        <time>2010-05-29T11:07:33Z</time>
      </trkpt>
      <trkpt lat="47.58719" lon="6.85876">
        <ele>396.5</ele>
        <time>2010-05-29T11:07:34Z</time>
      </trkpt>
      <trkpt lat="47.58724" lon="6.85877">
        <ele>396</ele>
        <time>2010-05-29T11:07:35Z</time>
      </trkpt>
      <trkpt lat="47.5873" lon="6.85878">
        <ele>396</ele>
        <time>2010-05-29T11:07:36Z</time>
      </trkpt>
      <trkpt lat="47.58736" lon="6.85878">
        <ele>396</ele>
        <time>2010-05-29T11:07:37Z</time>
      </trkpt>
      <trkpt lat="47.58742" lon="6.85879">
        <ele>396</ele>
        <time>2010-05-29T11:07:38Z</time>
      </trkpt>
      <trkpt lat="47.58748" lon="6.8588">
        <ele>396</ele>
        <time>2010-05-29T11:07:39Z</time>
      </trkpt>
      <trkpt lat="47.58754" lon="6.85881">
        <ele>396</ele>
        <time>2010-05-29T11:07:40Z</time>
      </trkpt>
      <trkpt lat="47.5876" lon="6.85882">
        <ele>396</ele>
        <time>2010-05-29T11:07:41Z</time>
      </trkpt>
      <trkpt lat="47.58766" lon="6.85883">
        <ele>396</ele>
        <time>2010-05-29T11:07:42Z</time>
      </trkpt>
      <trkpt lat="47.58772" lon="6.85884">
        <ele>396</ele>
        <time>2010-05-29T11:07:43Z</time>
      </trkpt>
      <trkpt lat="47.58778" lon="6.85885">
        <ele>395.5</ele>
        <time>2010-05-29T11:07:44Z</time>
      </trkpt>
      <trkpt lat="47.58784" lon="6.85886">
        <ele>396</ele>
        <time>2010-05-29T11:07:45Z</time>
      </trkpt>
      <trkpt lat="47.58791" lon="6.85888">
        <ele>395.5</ele>
        <time>2010-05-29T11:07:46Z</time>
      </trkpt>
      <trkpt lat="47.58797" lon="6.85889">
        <ele>395.5</ele>
        <time>2010-05-29T11:07:47Z</time>
      </trkpt>
      <trkpt lat="47.58803" lon="6.8589">
        <ele>395</ele>
        <time>2010-05-29T11:07:48Z</time>
      </trkpt>
      <trkpt lat="47.58809" lon="6.85892">
        <ele>395</ele>
        <time>2010-05-29T11:07:49Z</time>
      </trkpt>
      <trkpt lat="47.58816" lon="6.85894">
        <ele>395.5</ele>
        <time>2010-05-29T11:07:50Z</time>
      </trkpt>
      <trkpt lat="47.58822" lon="6.85895">
        <ele>395.5</ele>
        <time>2010-05-29T11:07:51Z</time>
      </trkpt>
      <trkpt lat="47.58828" lon="6.85897">
        <ele>395.5</ele>
        <time>2010-05-29T11:07:52Z</time>
      </trkpt>
      <trkpt lat="47.58834" lon="6.85899">
        <ele>395.5</ele>
        <time>2010-05-29T11:07:53Z</time>
      </trkpt>
      <trkpt lat="47.58841" lon="6.859">
        <ele>395.5</ele>
        <time>2010-05-29T11:07:54Z</time>
      </trkpt>
      <trkpt lat="47.58847" lon="6.85901">
        <ele>395</ele>
        <time>2010-05-29T11:07:55Z</time>
      </trkpt>
      <trkpt lat="47.58853" lon="6.85902">
        <ele>395</ele>
        <time>2010-05-29T11:07:56Z</time>
      </trkpt>
      <trkpt lat="47.5886" lon="6.85904">
        <ele>395</ele>
        <time>2010-05-29T11:07:57Z</time>
      </trkpt>
      <trkpt lat="47.58866" lon="6.85904">
        <ele>395</ele>
        <time>2010-05-29T11:07:58Z</time>
      </trkpt>
      <trkpt lat="47.58872" lon="6.85905">
        <ele>395</ele>
        <time>2010-05-29T11:07:59Z</time>
      </trkpt>
      <trkpt lat="47.58876" lon="6.85907">
        <ele>395</ele>
        <time>2010-05-29T11:08:00Z</time>
      </trkpt>
      <trkpt lat="47.58881" lon="6.85907">
        <ele>394.5</ele>
        <time>2010-05-29T11:08:01Z</time>
      </trkpt>
      <trkpt lat="47.58888" lon="6.85909">
        <ele>395</ele>
        <time>2010-05-29T11:08:03Z</time>
      </trkpt>
      <trkpt lat="47.58895" lon="6.8591">
        <ele>395</ele>
        <time>2010-05-29T11:08:05Z</time>
      </trkpt>
      <trkpt lat="47.58904" lon="6.85916">
        <ele>395</ele>
        <time>2010-05-29T11:08:07Z</time>
      </trkpt>
      <trkpt lat="47.58907" lon="6.85923">
        <ele>395</ele>
        <time>2010-05-29T11:08:12Z</time>
      </trkpt>
      <trkpt lat="47.58904" lon="6.85929">
        <ele>395</ele>
        <time>2010-05-29T11:08:15Z</time>
      </trkpt>
      <trkpt lat="47.58904" lon="6.85937">
        <ele>395</ele>
        <time>2010-05-29T11:08:17Z</time>
      </trkpt>
      <trkpt lat="47.58904" lon="6.85947">
        <ele>394.5</ele>
        <time>2010-05-29T11:08:19Z</time>
      </trkpt>
      <trkpt lat="47.58908" lon="6.85959">
        <ele>394.5</ele>
        <time>2010-05-29T11:08:21Z</time>
      </trkpt>
      <trkpt lat="47.5891" lon="6.85965">
        <ele>394.5</ele>
        <time>2010-05-29T11:08:22Z</time>
      </trkpt>
      <trkpt lat="47.58914" lon="6.85977">
        <ele>394.5</ele>
        <time>2010-05-29T11:08:24Z</time>
      </trkpt>
      <trkpt lat="47.58919" lon="6.85988">
        <ele>394.5</ele>
        <time>2010-05-29T11:08:26Z</time>
      </trkpt>
      <trkpt lat="47.58921" lon="6.85993">
        <ele>395</ele>
        <time>2010-05-29T11:08:27Z</time>
      </trkpt>
      <trkpt lat="47.58923" lon="6.85999">
        <ele>395</ele>
        <time>2010-05-29T11:08:28Z</time>
      </trkpt>
      <trkpt lat="47.58926" lon="6.86005">
        <ele>395</ele>
        <time>2010-05-29T11:08:29Z</time>
      </trkpt>
      <trkpt lat="47.58929" lon="6.86011">
        <ele>395</ele>
        <time>2010-05-29T11:08:30Z</time>
      </trkpt>
      <trkpt lat="47.58931" lon="6.86016">
        <ele>395</ele>
        <time>2010-05-29T11:08:31Z</time>
      </trkpt>
      <trkpt lat="47.58934" lon="6.86022">
        <ele>395.5</ele>
        <time>2010-05-29T11:08:32Z</time>
      </trkpt>
      <trkpt lat="47.58937" lon="6.86028">
        <ele>395.5</ele>
        <time>2010-05-29T11:08:33Z</time>
      </trkpt>
      <trkpt lat="47.58939" lon="6.86033">
        <ele>395.5</ele>
        <time>2010-05-29T11:08:34Z</time>
      </trkpt>
      <trkpt lat="47.58942" lon="6.86039">
        <ele>395.5</ele>
        <time>2010-05-29T11:08:35Z</time>
      </trkpt>
      <trkpt lat="47.58944" lon="6.86045">
        <ele>395.5</ele>
        <time>2010-05-29T11:08:36Z</time>
      </trkpt>
      <trkpt lat="47.58947" lon="6.86051">
        <ele>396</ele>
        <time>2010-05-29T11:08:37Z</time>
      </trkpt>
      <trkpt lat="47.5895" lon="6.86056">
        <ele>395.5</ele>
        <time>2010-05-29T11:08:38Z</time>
      </trkpt>
      <trkpt lat="47.58955" lon="6.86067">
        <ele>396</ele>
        <time>2010-05-29T11:08:40Z</time>
      </trkpt>
      <trkpt lat="47.58957" lon="6.86073">
        <ele>396</ele>
        <time>2010-05-29T11:08:41Z</time>
      </trkpt>
      <trkpt lat="47.5896" lon="6.86079">
        <ele>396</ele>
        <time>2010-05-29T11:08:42Z</time>
      </trkpt>
      <trkpt lat="47.58963" lon="6.86085">
        <ele>396.5</ele>
        <time>2010-05-29T11:08:43Z</time>
      </trkpt>
      <trkpt lat="47.58966" lon="6.8609">
        <ele>396.5</ele>
        <time>2010-05-29T11:08:44Z</time>
      </trkpt>
      <trkpt lat="47.58969" lon="6.86096">
        <ele>396</ele>
        <time>2010-05-29T11:08:45Z</time>
      </trkpt>
      <trkpt lat="47.58972" lon="6.86102">
        <ele>395.5</ele>
        <time>2010-05-29T11:08:46Z</time>
      </trkpt>
      <trkpt lat="47.58974" lon="6.86107">
        <ele>396</ele>
        <time>2010-05-29T11:08:47Z</time>
      </trkpt>
      <trkpt lat="47.58977" lon="6.86113">
        <ele>396</ele>
        <time>2010-05-29T11:08:48Z</time>
      </trkpt>
      <trkpt lat="47.5898" lon="6.86119">
        <ele>396.5</ele>
        <time>2010-05-29T11:08:49Z</time>
      </trkpt>
      <trkpt lat="47.58982" lon="6.86125">
        <ele>396</ele>
        <time>2010-05-29T11:08:50Z</time>
      </trkpt>
      <trkpt lat="47.58985" lon="6.8613">
        <ele>396</ele>
        <time>2010-05-29T11:08:51Z</time>
      </trkpt>
      <trkpt lat="47.58988" lon="6.86136">
        <ele>396</ele>
        <time>2010-05-29T11:08:52Z</time>
      </trkpt>
      <trkpt lat="47.58991" lon="6.86142">
        <ele>396</ele>
        <time>2010-05-29T11:08:53Z</time>
      </trkpt>
      <trkpt lat="47.58994" lon="6.86148">
        <ele>396</ele>
        <time>2010-05-29T11:08:54Z</time>
      </trkpt>
      <trkpt lat="47.58997" lon="6.86153">
        <ele>396.5</ele>
        <time>2010-05-29T11:08:55Z</time>
      </trkpt>
      <trkpt lat="47.58999" lon="6.86159">
        <ele>396.5</ele>
        <time>2010-05-29T11:08:56Z</time>
      </trkpt>
      <trkpt lat="47.59004" lon="6.8617">
        <ele>396.5</ele>
        <time>2010-05-29T11:08:58Z</time>
      </trkpt>
      <trkpt lat="47.59009" lon="6.86179">
        <ele>396.5</ele>
        <time>2010-05-29T11:09:00Z</time>
      </trkpt>
      <trkpt lat="47.59012" lon="6.86185">
        <ele>396.5</ele>
        <time>2010-05-29T11:09:01Z</time>
      </trkpt>
      <trkpt lat="47.59015" lon="6.86191">
        <ele>397</ele>
        <time>2010-05-29T11:09:02Z</time>
      </trkpt>
      <trkpt lat="47.59017" lon="6.86197">
        <ele>397</ele>
        <time>2010-05-29T11:09:03Z</time>
      </trkpt>
      <trkpt lat="47.5902" lon="6.86202">
        <ele>397</ele>
        <time>2010-05-29T11:09:04Z</time>
      </trkpt>
      <trkpt lat="47.59023" lon="6.86208">
        <ele>396.5</ele>
        <time>2010-05-29T11:09:05Z</time>
      </trkpt>
      <trkpt lat="47.59026" lon="6.86214">
        <ele>397</ele>
        <time>2010-05-29T11:09:06Z</time>
      </trkpt>
      <trkpt lat="47.59032" lon="6.86226">
        <ele>397.5</ele>
        <time>2010-05-29T11:09:07Z</time>
      </trkpt>
      <trkpt lat="47.59038" lon="6.86237">
        <ele>397.5</ele>
        <time>2010-05-29T11:09:10Z</time>
      </trkpt>
      <trkpt lat="47.59046" lon="6.86236">
        <ele>396</ele>
        <time>2010-05-29T11:09:12Z</time>
      </trkpt>
      <trkpt lat="47.59055" lon="6.86236">
        <ele>396.5</ele>
        <time>2010-05-29T11:09:14Z</time>
      </trkpt>
      <trkpt lat="47.5906" lon="6.86235">
        <ele>397</ele>
        <time>2010-05-29T11:09:15Z</time>
      </trkpt>
      <trkpt lat="47.59064" lon="6.86232">
        <ele>397.5</ele>
        <time>2010-05-29T11:09:16Z</time>
      </trkpt>
      <trkpt lat="47.59069" lon="6.86229">
        <ele>398</ele>
        <time>2010-05-29T11:09:17Z</time>
      </trkpt>
      <trkpt lat="47.59073" lon="6.86226">
        <ele>398</ele>
        <time>2010-05-29T11:09:18Z</time>
      </trkpt>
      <trkpt lat="47.59078" lon="6.86223">
        <ele>398</ele>
        <time>2010-05-29T11:09:19Z</time>
      </trkpt>
      <trkpt lat="47.59083" lon="6.86221">
        <ele>398</ele>
        <time>2010-05-29T11:09:20Z</time>
      </trkpt>
      <trkpt lat="47.59088" lon="6.86218">
        <ele>398</ele>
        <time>2010-05-29T11:09:21Z</time>
      </trkpt>
      <trkpt lat="47.59093" lon="6.86216">
        <ele>398</ele>
        <time>2010-05-29T11:09:22Z</time>
      </trkpt>
      <trkpt lat="47.59098" lon="6.86216">
        <ele>397.5</ele>
        <time>2010-05-29T11:09:23Z</time>
      </trkpt>
      <trkpt lat="47.59103" lon="6.86216">
        <ele>397</ele>
        <time>2010-05-29T11:09:24Z</time>
      </trkpt>
      <trkpt lat="47.59109" lon="6.86218">
        <ele>397.5</ele>
        <time>2010-05-29T11:09:25Z</time>
      </trkpt>
      <trkpt lat="47.59114" lon="6.8622">
        <ele>398</ele>
        <time>2010-05-29T11:09:26Z</time>
      </trkpt>
      <trkpt lat="47.5912" lon="6.86222">
        <ele>398</ele>
        <time>2010-05-29T11:09:27Z</time>
      </trkpt>
      <trkpt lat="47.59125" lon="6.86224">
        <ele>398</ele>
        <time>2010-05-29T11:09:28Z</time>
      </trkpt>
      <trkpt lat="47.59138" lon="6.86231">
        <ele>398</ele>
        <time>2010-05-29T11:09:31Z</time>
      </trkpt>
      <trkpt lat="47.59142" lon="6.86234">
        <ele>398</ele>
        <time>2010-05-29T11:09:33Z</time>
      </trkpt>
      <trkpt lat="47.59134" lon="6.86227">
        <ele>398.5</ele>
        <time>2010-05-29T11:09:39Z</time>
      </trkpt>
      <trkpt lat="47.59128" lon="6.86226">
        <ele>398.5</ele>
        <time>2010-05-29T11:09:41Z</time>
      </trkpt>
      <trkpt lat="47.59121" lon="6.86222">
        <ele>398.5</ele>
        <time>2010-05-29T11:09:43Z</time>
      </trkpt>
      <trkpt lat="47.59113" lon="6.8622">
        <ele>398</ele>
        <time>2010-05-29T11:09:45Z</time>
      </trkpt>
      <trkpt lat="47.59104" lon="6.86218">
        <ele>398</ele>
        <time>2010-05-29T11:09:47Z</time>
      </trkpt>
      <trkpt lat="47.59096" lon="6.86218">
        <ele>398</ele>
        <time>2010-05-29T11:09:49Z</time>
      </trkpt>
      <trkpt lat="47.59087" lon="6.86221">
        <ele>398</ele>
        <time>2010-05-29T11:09:51Z</time>
      </trkpt>
      <trkpt lat="47.59079" lon="6.86225">
        <ele>398.5</ele>
        <time>2010-05-29T11:09:53Z</time>
      </trkpt>
      <trkpt lat="47.59071" lon="6.8623">
        <ele>398.5</ele>
        <time>2010-05-29T11:09:55Z</time>
      </trkpt>
      <trkpt lat="47.59064" lon="6.86235">
        <ele>398.5</ele>
        <time>2010-05-29T11:09:57Z</time>
      </trkpt>
      <trkpt lat="47.59058" lon="6.86239">
        <ele>398</ele>
        <time>2010-05-29T11:09:59Z</time>
      </trkpt>
      <trkpt lat="47.59053" lon="6.8624">
        <ele>397</ele>
        <time>2010-05-29T11:10:10Z</time>
      </trkpt>
      <trkpt lat="47.59051" lon="6.86238">
        <ele>395.5</ele>
        <time>2010-05-29T11:10:14Z</time>
      </trkpt>
      <trkpt lat="47.59053" lon="6.86243">
        <ele>399.5</ele>
        <time>2010-05-29T11:10:25Z</time>
      </trkpt>
      <trkpt lat="47.59053" lon="6.86244">
        <ele>399.5</ele>
        <time>2010-05-29T11:10:26Z</time>
      </trkpt>
      <trkpt lat="47.59053" lon="6.86246">
        <ele>399.5</ele>
        <time>2010-05-29T11:10:28Z</time>
      </trkpt>
      <trkpt lat="47.59052" lon="6.86252">
        <ele>397</ele>
        <time>2010-05-29T11:10:50Z</time>
      </trkpt>
      <trkpt lat="47.59053" lon="6.86256">
        <ele>398.5</ele>
        <time>2010-05-29T11:10:51Z</time>
      </trkpt>
      <trkpt lat="47.59054" lon="6.86262">
        <ele>399</ele>
        <time>2010-05-29T11:10:53Z</time>
      </trkpt>
      <trkpt lat="47.59057" lon="6.86269">
        <ele>400</ele>
        <time>2010-05-29T11:10:55Z</time>
      </trkpt>
      <trkpt lat="47.5906" lon="6.86276">
        <ele>400</ele>
        <time>2010-05-29T11:10:57Z</time>
      </trkpt>
      <trkpt lat="47.59064" lon="6.86285">
        <ele>399.5</ele>
        <time>2010-05-29T11:10:59Z</time>
      </trkpt>
      <trkpt lat="47.59069" lon="6.86294">
        <ele>398.5</ele>
        <time>2010-05-29T11:11:01Z</time>
      </trkpt>
      <trkpt lat="47.59073" lon="6.86303">
        <ele>398.5</ele>
        <time>2010-05-29T11:11:03Z</time>
      </trkpt>
      <trkpt lat="47.59077" lon="6.86315">
        <ele>397.5</ele>
        <time>2010-05-29T11:11:05Z</time>
      </trkpt>
      <trkpt lat="47.5908" lon="6.8632">
        <ele>397.5</ele>
        <time>2010-05-29T11:11:06Z</time>
      </trkpt>
      <trkpt lat="47.59085" lon="6.86332">
        <ele>397.5</ele>
        <time>2010-05-29T11:11:06Z</time>
      </trkpt>
      <trkpt lat="47.59089" lon="6.86336">
        <ele>397.5</ele>
        <time>2010-05-29T11:11:09Z</time>
      </trkpt>
      <trkpt lat="47.59092" lon="6.86345">
        <ele>397</ele>
        <time>2010-05-29T11:11:11Z</time>
      </trkpt>
      <trkpt lat="47.59095" lon="6.86353">
        <ele>396.5</ele>
        <time>2010-05-29T11:11:12Z</time>
      </trkpt>
      <trkpt lat="47.59099" lon="6.86361">
        <ele>396.5</ele>
        <time>2010-05-29T11:11:13Z</time>
      </trkpt>
      <trkpt lat="47.59102" lon="6.86368">
        <ele>396.5</ele>
        <time>2010-05-29T11:11:14Z</time>
      </trkpt>
      <trkpt lat="47.59105" lon="6.86374">
        <ele>396.5</ele>
        <time>2010-05-29T11:11:15Z</time>
      </trkpt>
      <trkpt lat="47.59108" lon="6.86381">
        <ele>396.5</ele>
        <time>2010-05-29T11:11:16Z</time>
      </trkpt>
      <trkpt lat="47.59111" lon="6.86388">
        <ele>396.5</ele>
        <time>2010-05-29T11:11:17Z</time>
      </trkpt>
      <trkpt lat="47.59114" lon="6.86395">
        <ele>397</ele>
        <time>2010-05-29T11:11:18Z</time>
      </trkpt>
      <trkpt lat="47.59117" lon="6.86402">
        <ele>397.5</ele>
        <time>2010-05-29T11:11:19Z</time>
      </trkpt>
      <trkpt lat="47.5912" lon="6.86409">
        <ele>397.5</ele>
        <time>2010-05-29T11:11:20Z</time>
      </trkpt>
      <trkpt lat="47.59124" lon="6.86416">
        <ele>397</ele>
        <time>2010-05-29T11:11:21Z</time>
      </trkpt>
      <trkpt lat="47.59126" lon="6.86423">
        <ele>397</ele>
        <time>2010-05-29T11:11:22Z</time>
      </trkpt>
      <trkpt lat="47.59129" lon="6.8643">
        <ele>396.5</ele>
        <time>2010-05-29T11:11:23Z</time>
      </trkpt>
      <trkpt lat="47.59132" lon="6.86437">
        <ele>396.5</ele>
        <time>2010-05-29T11:11:24Z</time>
      </trkpt>
      <trkpt lat="47.59136" lon="6.86444">
        <ele>396.5</ele>
        <time>2010-05-29T11:11:25Z</time>
      </trkpt>
      <trkpt lat="47.59139" lon="6.86451">
        <ele>396.5</ele>
        <time>2010-05-29T11:11:26Z</time>
      </trkpt>
      <trkpt lat="47.59142" lon="6.86458">
        <ele>396</ele>
        <time>2010-05-29T11:11:27Z</time>
      </trkpt>
      <trkpt lat="47.59145" lon="6.86466">
        <ele>396.5</ele>
        <time>2010-05-29T11:11:28Z</time>
      </trkpt>
      <trkpt lat="47.59148" lon="6.86473">
        <ele>396.5</ele>
        <time>2010-05-29T11:11:29Z</time>
      </trkpt>
      <trkpt lat="47.59151" lon="6.8648">
        <ele>396.5</ele>
        <time>2010-05-29T11:11:30Z</time>
      </trkpt>
      <trkpt lat="47.59153" lon="6.86488">
        <ele>396.5</ele>
        <time>2010-05-29T11:11:31Z</time>
      </trkpt>
      <trkpt lat="47.59156" lon="6.86495">
        <ele>396.5</ele>
        <time>2010-05-29T11:11:32Z</time>
      </trkpt>
      <trkpt lat="47.59159" lon="6.86502">
        <ele>397</ele>
        <time>2010-05-29T11:11:33Z</time>
      </trkpt>
      <trkpt lat="47.59161" lon="6.86509">
        <ele>397</ele>
        <time>2010-05-29T11:11:34Z</time>
      </trkpt>
      <trkpt lat="47.59163" lon="6.86516">
        <ele>397</ele>
        <time>2010-05-29T11:11:35Z</time>
      </trkpt>
      <trkpt lat="47.59166" lon="6.86523">
        <ele>397</ele>
        <time>2010-05-29T11:11:36Z</time>
      </trkpt>
      <trkpt lat="47.59169" lon="6.8653">
        <ele>397</ele>
        <time>2010-05-29T11:11:37Z</time>
      </trkpt>
      <trkpt lat="47.59171" lon="6.86537">
        <ele>397.5</ele>
        <time>2010-05-29T11:11:38Z</time>
      </trkpt>
      <trkpt lat="47.59173" lon="6.86544">
        <ele>397</ele>
        <time>2010-05-29T11:11:39Z</time>
      </trkpt>
      <trkpt lat="47.59176" lon="6.86551">
        <ele>396.5</ele>
        <time>2010-05-29T11:11:40Z</time>
      </trkpt>
      <trkpt lat="47.59178" lon="6.86558">
        <ele>396.5</ele>
        <time>2010-05-29T11:11:41Z</time>
      </trkpt>
      <trkpt lat="47.59181" lon="6.86565">
        <ele>396.5</ele>
        <time>2010-05-29T11:11:42Z</time>
      </trkpt>
      <trkpt lat="47.59183" lon="6.86573">
        <ele>396</ele>
        <time>2010-05-29T11:11:43Z</time>
      </trkpt>
      <trkpt lat="47.59185" lon="6.8658">
        <ele>396.5</ele>
        <time>2010-05-29T11:11:44Z</time>
      </trkpt>
      <trkpt lat="47.59188" lon="6.86588">
        <ele>396.5</ele>
        <time>2010-05-29T11:11:45Z</time>
      </trkpt>
      <trkpt lat="47.5919" lon="6.86595">
        <ele>396</ele>
        <time>2010-05-29T11:11:46Z</time>
      </trkpt>
      <trkpt lat="47.59192" lon="6.86602">
        <ele>396</ele>
        <time>2010-05-29T11:11:47Z</time>
      </trkpt>
      <trkpt lat="47.59194" lon="6.86609">
        <ele>396.5</ele>
        <time>2010-05-29T11:11:48Z</time>
      </trkpt>
      <trkpt lat="47.59197" lon="6.86616">
        <ele>396</ele>
        <time>2010-05-29T11:11:49Z</time>
      </trkpt>
      <trkpt lat="47.59199" lon="6.86624">
        <ele>396</ele>
        <time>2010-05-29T11:11:50Z</time>
      </trkpt>
      <trkpt lat="47.59201" lon="6.86631">
        <ele>396</ele>
        <time>2010-05-29T11:11:51Z</time>
      </trkpt>
      <trkpt lat="47.59203" lon="6.86638">
        <ele>396.5</ele>
        <time>2010-05-29T11:11:52Z</time>
      </trkpt>
      <trkpt lat="47.59205" lon="6.86646">
        <ele>396.5</ele>
        <time>2010-05-29T11:11:53Z</time>
      </trkpt>
      <trkpt lat="47.59208" lon="6.86653">
        <ele>396.5</ele>
        <time>2010-05-29T11:11:54Z</time>
      </trkpt>
      <trkpt lat="47.5921" lon="6.8666">
        <ele>396.5</ele>
        <time>2010-05-29T11:11:55Z</time>
      </trkpt>
      <trkpt lat="47.59212" lon="6.86667">
        <ele>396.5</ele>
        <time>2010-05-29T11:11:56Z</time>
      </trkpt>
      <trkpt lat="47.59214" lon="6.86674">
        <ele>396.5</ele>
        <time>2010-05-29T11:11:57Z</time>
      </trkpt>
      <trkpt lat="47.59217" lon="6.86681">
        <ele>396.5</ele>
        <time>2010-05-29T11:11:58Z</time>
      </trkpt>
      <trkpt lat="47.59219" lon="6.86687">
        <ele>397</ele>
        <time>2010-05-29T11:11:59Z</time>
      </trkpt>
      <trkpt lat="47.59221" lon="6.86694">
        <ele>398</ele>
        <time>2010-05-29T11:12:00Z</time>
      </trkpt>
      <trkpt lat="47.59222" lon="6.86701">
        <ele>398</ele>
        <time>2010-05-29T11:12:01Z</time>
      </trkpt>
      <trkpt lat="47.59224" lon="6.86707">
        <ele>398.5</ele>
        <time>2010-05-29T11:12:02Z</time>
      </trkpt>
      <trkpt lat="47.59226" lon="6.86714">
        <ele>398.5</ele>
        <time>2010-05-29T11:12:03Z</time>
      </trkpt>
      <trkpt lat="47.59229" lon="6.8672">
        <ele>398.5</ele>
        <time>2010-05-29T11:12:04Z</time>
      </trkpt>
      <trkpt lat="47.59231" lon="6.86727">
        <ele>399</ele>
        <time>2010-05-29T11:12:05Z</time>
      </trkpt>
      <trkpt lat="47.59233" lon="6.86733">
        <ele>399</ele>
        <time>2010-05-29T11:12:06Z</time>
      </trkpt>
      <trkpt lat="47.59238" lon="6.86751">
        <ele>399.5</ele>
        <time>2010-05-29T11:12:08Z</time>
      </trkpt>
      <trkpt lat="47.59241" lon="6.86758">
        <ele>399</ele>
        <time>2010-05-29T11:12:09Z</time>
      </trkpt>
      <trkpt lat="47.59242" lon="6.86764">
        <ele>399</ele>
        <time>2010-05-29T11:12:10Z</time>
      </trkpt>
      <trkpt lat="47.59244" lon="6.86773">
        <ele>399</ele>
        <time>2010-05-29T11:12:12Z</time>
      </trkpt>
      <trkpt lat="47.59246" lon="6.86779">
        <ele>398.5</ele>
        <time>2010-05-29T11:12:13Z</time>
      </trkpt>
      <trkpt lat="47.59248" lon="6.86785">
        <ele>398.5</ele>
        <time>2010-05-29T11:12:14Z</time>
      </trkpt>
      <trkpt lat="47.59251" lon="6.86797">
        <ele>398.5</ele>
        <time>2010-05-29T11:12:16Z</time>
      </trkpt>
      <trkpt lat="47.59254" lon="6.86809">
        <ele>399</ele>
        <time>2010-05-29T11:12:18Z</time>
      </trkpt>
      <trkpt lat="47.59257" lon="6.86821">
        <ele>399.5</ele>
        <time>2010-05-29T11:12:20Z</time>
      </trkpt>
      <trkpt lat="47.59261" lon="6.86833">
        <ele>400.5</ele>
        <time>2010-05-29T11:12:22Z</time>
      </trkpt>
      <trkpt lat="47.59266" lon="6.86844">
        <ele>401.5</ele>
        <time>2010-05-29T11:12:24Z</time>
      </trkpt>
      <trkpt lat="47.59271" lon="6.86853">
        <ele>402</ele>
        <time>2010-05-29T11:12:26Z</time>
      </trkpt>
      <trkpt lat="47.59276" lon="6.86861">
        <ele>402.5</ele>
        <time>2010-05-29T11:12:28Z</time>
      </trkpt>
      <trkpt lat="47.59281" lon="6.8687">
        <ele>403</ele>
        <time>2010-05-29T11:12:30Z</time>
      </trkpt>
      <trkpt lat="47.59286" lon="6.8688">
        <ele>404.5</ele>
        <time>2010-05-29T11:12:32Z</time>
      </trkpt>
      <trkpt lat="47.59291" lon="6.8689">
        <ele>406</ele>
        <time>2010-05-29T11:12:34Z</time>
      </trkpt>
      <trkpt lat="47.59296" lon="6.86899">
        <ele>406.5</ele>
        <time>2010-05-29T11:12:36Z</time>
      </trkpt>
      <trkpt lat="47.593" lon="6.86906">
        <ele>407.5</ele>
        <time>2010-05-29T11:12:38Z</time>
      </trkpt>
      <trkpt lat="47.59304" lon="6.86915">
        <ele>409</ele>
        <time>2010-05-29T11:12:40Z</time>
      </trkpt>
      <trkpt lat="47.59309" lon="6.86923">
        <ele>410</ele>
        <time>2010-05-29T11:12:42Z</time>
      </trkpt>
      <trkpt lat="47.59313" lon="6.86931">
        <ele>411</ele>
        <time>2010-05-29T11:12:44Z</time>
      </trkpt>
      <trkpt lat="47.59318" lon="6.86941">
        <ele>411.5</ele>
        <time>2010-05-29T11:12:46Z</time>
      </trkpt>
      <trkpt lat="47.59322" lon="6.86951">
        <ele>412.5</ele>
        <time>2010-05-29T11:12:48Z</time>
      </trkpt>
      <trkpt lat="47.59326" lon="6.8696">
        <ele>414</ele>
        <time>2010-05-29T11:12:50Z</time>
      </trkpt>
      <trkpt lat="47.59329" lon="6.86968">
        <ele>415</ele>
        <time>2010-05-29T11:12:52Z</time>
      </trkpt>
      <trkpt lat="47.59332" lon="6.86977">
        <ele>416.5</ele>
        <time>2010-05-29T11:12:54Z</time>
      </trkpt>
      <trkpt lat="47.59334" lon="6.86987">
        <ele>417.5</ele>
        <time>2010-05-29T11:12:56Z</time>
      </trkpt>
      <trkpt lat="47.59336" lon="6.86997">
        <ele>418.5</ele>
        <time>2010-05-29T11:12:58Z</time>
      </trkpt>
      <trkpt lat="47.59338" lon="6.87006">
        <ele>419.5</ele>
        <time>2010-05-29T11:13:00Z</time>
      </trkpt>
      <trkpt lat="47.59338" lon="6.87014">
        <ele>420</ele>
        <time>2010-05-29T11:13:02Z</time>
      </trkpt>
      <trkpt lat="47.59338" lon="6.87021">
        <ele>420</ele>
        <time>2010-05-29T11:13:04Z</time>
      </trkpt>
      <trkpt lat="47.59341" lon="6.87031">
        <ele>421</ele>
        <time>2010-05-29T11:13:06Z</time>
      </trkpt>
      <trkpt lat="47.59344" lon="6.8704">
        <ele>421.5</ele>
        <time>2010-05-29T11:13:06Z</time>
      </trkpt>
      <trkpt lat="47.59347" lon="6.87049">
        <ele>421.5</ele>
        <time>2010-05-29T11:13:10Z</time>
      </trkpt>
      <trkpt lat="47.5935" lon="6.87056">
        <ele>421.5</ele>
        <time>2010-05-29T11:13:12Z</time>
      </trkpt>
      <trkpt lat="47.59352" lon="6.87065">
        <ele>421.5</ele>
        <time>2010-05-29T11:13:14Z</time>
      </trkpt>
      <trkpt lat="47.59353" lon="6.87073">
        <ele>420.5</ele>
        <time>2010-05-29T11:13:16Z</time>
      </trkpt>
      <trkpt lat="47.59352" lon="6.87083">
        <ele>420</ele>
        <time>2010-05-29T11:13:18Z</time>
      </trkpt>
      <trkpt lat="47.59354" lon="6.87094">
        <ele>420</ele>
        <time>2010-05-29T11:13:20Z</time>
      </trkpt>
      <trkpt lat="47.59357" lon="6.87104">
        <ele>420</ele>
        <time>2010-05-29T11:13:21Z</time>
      </trkpt>
      <trkpt lat="47.59358" lon="6.87112">
        <ele>420</ele>
        <time>2010-05-29T11:13:22Z</time>
      </trkpt>
      <trkpt lat="47.5936" lon="6.87124">
        <ele>420</ele>
        <time>2010-05-29T11:13:23Z</time>
      </trkpt>
      <trkpt lat="47.59362" lon="6.87136">
        <ele>420.5</ele>
        <time>2010-05-29T11:13:24Z</time>
      </trkpt>
      <trkpt lat="47.59363" lon="6.87144">
        <ele>420.5</ele>
        <time>2010-05-29T11:13:25Z</time>
      </trkpt>
      <trkpt lat="47.59363" lon="6.87153">
        <ele>420</ele>
        <time>2010-05-29T11:13:26Z</time>
      </trkpt>
      <trkpt lat="47.59363" lon="6.87162">
        <ele>420</ele>
        <time>2010-05-29T11:13:27Z</time>
      </trkpt>
      <trkpt lat="47.59364" lon="6.87172">
        <ele>421</ele>
        <time>2010-05-29T11:13:28Z</time>
      </trkpt>
      <trkpt lat="47.59365" lon="6.8718">
        <ele>421</ele>
        <time>2010-05-29T11:13:29Z</time>
      </trkpt>
      <trkpt lat="47.59365" lon="6.87188">
        <ele>422</ele>
        <time>2010-05-29T11:13:30Z</time>
      </trkpt>
      <trkpt lat="47.59364" lon="6.87194">
        <ele>422.5</ele>
        <time>2010-05-29T11:13:31Z</time>
      </trkpt>
      <trkpt lat="47.59362" lon="6.87201">
        <ele>424</ele>
        <time>2010-05-29T11:13:32Z</time>
      </trkpt>
      <trkpt lat="47.5936" lon="6.87208">
        <ele>425</ele>
        <time>2010-05-29T11:13:33Z</time>
      </trkpt>
      <trkpt lat="47.59357" lon="6.87218">
        <ele>426</ele>
        <time>2010-05-29T11:13:35Z</time>
      </trkpt>
      <trkpt lat="47.59352" lon="6.87228">
        <ele>426</ele>
        <time>2010-05-29T11:13:37Z</time>
      </trkpt>
      <trkpt lat="47.5935" lon="6.87234">
        <ele>426.5</ele>
        <time>2010-05-29T11:13:38Z</time>
      </trkpt>
      <trkpt lat="47.59343" lon="6.87242">
        <ele>427</ele>
        <time>2010-05-29T11:13:40Z</time>
      </trkpt>
      <trkpt lat="47.59336" lon="6.87249">
        <ele>425</ele>
        <time>2010-05-29T11:13:42Z</time>
      </trkpt>
      <trkpt lat="47.59332" lon="6.87253">
        <ele>425.5</ele>
        <time>2010-05-29T11:13:43Z</time>
      </trkpt>
      <trkpt lat="47.59324" lon="6.87258">
        <ele>425.5</ele>
        <time>2010-05-29T11:13:45Z</time>
      </trkpt>
      <trkpt lat="47.59317" lon="6.87264">
        <ele>425.5</ele>
        <time>2010-05-29T11:13:47Z</time>
      </trkpt>
      <trkpt lat="47.59312" lon="6.87274">
        <ele>426</ele>
        <time>2010-05-29T11:13:49Z</time>
      </trkpt>
      <trkpt lat="47.59311" lon="6.87281">
        <ele>426</ele>
        <time>2010-05-29T11:13:50Z</time>
      </trkpt>
      <trkpt lat="47.59308" lon="6.87289">
        <ele>425.5</ele>
        <time>2010-05-29T11:13:51Z</time>
      </trkpt>
      <trkpt lat="47.59307" lon="6.87296">
        <ele>425.5</ele>
        <time>2010-05-29T11:13:52Z</time>
      </trkpt>
      <trkpt lat="47.59305" lon="6.87303">
        <ele>425.5</ele>
        <time>2010-05-29T11:13:53Z</time>
      </trkpt>
      <trkpt lat="47.59302" lon="6.87316">
        <ele>426</ele>
        <time>2010-05-29T11:13:55Z</time>
      </trkpt>
      <trkpt lat="47.59299" lon="6.87328">
        <ele>426.5</ele>
        <time>2010-05-29T11:13:57Z</time>
      </trkpt>
      <trkpt lat="47.59295" lon="6.87339">
        <ele>427.5</ele>
        <time>2010-05-29T11:13:59Z</time>
      </trkpt>
      <trkpt lat="47.59294" lon="6.87351">
        <ele>428</ele>
        <time>2010-05-29T11:14:01Z</time>
      </trkpt>
      <trkpt lat="47.59293" lon="6.87363">
        <ele>428</ele>
        <time>2010-05-29T11:14:03Z</time>
      </trkpt>
      <trkpt lat="47.5929" lon="6.87376">
        <ele>427</ele>
        <time>2010-05-29T11:14:05Z</time>
      </trkpt>
      <trkpt lat="47.59286" lon="6.87394">
        <ele>427</ele>
        <time>2010-05-29T11:14:08Z</time>
      </trkpt>
      <trkpt lat="47.59284" lon="6.87406">
        <ele>427</ele>
        <time>2010-05-29T11:14:10Z</time>
      </trkpt>
      <trkpt lat="47.59283" lon="6.87418">
        <ele>425.5</ele>
        <time>2010-05-29T11:14:12Z</time>
      </trkpt>
      <trkpt lat="47.59283" lon="6.87431">
        <ele>424.5</ele>
        <time>2010-05-29T11:14:14Z</time>
      </trkpt>
      <trkpt lat="47.59282" lon="6.87443">
        <ele>423</ele>
        <time>2010-05-29T11:14:16Z</time>
      </trkpt>
      <trkpt lat="47.59283" lon="6.87456">
        <ele>422.5</ele>
        <time>2010-05-29T11:14:18Z</time>
      </trkpt>
      <trkpt lat="47.59284" lon="6.87463">
        <ele>422</ele>
        <time>2010-05-29T11:14:19Z</time>
      </trkpt>
      <trkpt lat="47.59286" lon="6.8747">
        <ele>421.5</ele>
        <time>2010-05-29T11:14:20Z</time>
      </trkpt>
      <trkpt lat="47.59288" lon="6.87477">
        <ele>421</ele>
        <time>2010-05-29T11:14:21Z</time>
      </trkpt>
      <trkpt lat="47.59289" lon="6.87484">
        <ele>420.5</ele>
        <time>2010-05-29T11:14:22Z</time>
      </trkpt>
      <trkpt lat="47.59291" lon="6.87491">
        <ele>419.5</ele>
        <time>2010-05-29T11:14:23Z</time>
      </trkpt>
      <trkpt lat="47.59294" lon="6.87498">
        <ele>419.5</ele>
        <time>2010-05-29T11:14:24Z</time>
      </trkpt>
      <trkpt lat="47.59296" lon="6.87506">
        <ele>419.5</ele>
        <time>2010-05-29T11:14:25Z</time>
      </trkpt>
      <trkpt lat="47.59299" lon="6.87513">
        <ele>419</ele>
        <time>2010-05-29T11:14:26Z</time>
      </trkpt>
      <trkpt lat="47.59301" lon="6.8752">
        <ele>419</ele>
        <time>2010-05-29T11:14:27Z</time>
      </trkpt>
      <trkpt lat="47.59304" lon="6.87528">
        <ele>419</ele>
        <time>2010-05-29T11:14:28Z</time>
      </trkpt>
      <trkpt lat="47.59306" lon="6.87536">
        <ele>419</ele>
        <time>2010-05-29T11:14:29Z</time>
      </trkpt>
      <trkpt lat="47.59309" lon="6.87544">
        <ele>419</ele>
        <time>2010-05-29T11:14:30Z</time>
      </trkpt>
      <trkpt lat="47.59311" lon="6.87552">
        <ele>419</ele>
        <time>2010-05-29T11:14:31Z</time>
      </trkpt>
      <trkpt lat="47.59313" lon="6.8756">
        <ele>418.5</ele>
        <time>2010-05-29T11:14:32Z</time>
      </trkpt>
      <trkpt lat="47.59316" lon="6.87567">
        <ele>418.5</ele>
        <time>2010-05-29T11:14:33Z</time>
      </trkpt>
      <trkpt lat="47.59319" lon="6.87575">
        <ele>418</ele>
        <time>2010-05-29T11:14:34Z</time>
      </trkpt>
      <trkpt lat="47.59321" lon="6.87582">
        <ele>418</ele>
        <time>2010-05-29T11:14:35Z</time>
      </trkpt>
      <trkpt lat="47.59323" lon="6.8759">
        <ele>418</ele>
        <time>2010-05-29T11:14:36Z</time>
      </trkpt>
      <trkpt lat="47.59326" lon="6.87598">
        <ele>417.5</ele>
        <time>2010-05-29T11:14:37Z</time>
      </trkpt>
      <trkpt lat="47.59328" lon="6.87606">
        <ele>417</ele>
        <time>2010-05-29T11:14:38Z</time>
      </trkpt>
      <trkpt lat="47.59331" lon="6.87614">
        <ele>417</ele>
        <time>2010-05-29T11:14:39Z</time>
      </trkpt>
      <trkpt lat="47.59334" lon="6.87622">
        <ele>417</ele>
        <time>2010-05-29T11:14:40Z</time>
      </trkpt>
      <trkpt lat="47.59337" lon="6.8763">
        <ele>416.5</ele>
        <time>2010-05-29T11:14:41Z</time>
      </trkpt>
      <trkpt lat="47.5934" lon="6.87638">
        <ele>416.5</ele>
        <time>2010-05-29T11:14:42Z</time>
      </trkpt>
      <trkpt lat="47.59342" lon="6.87646">
        <ele>416</ele>
        <time>2010-05-29T11:14:43Z</time>
      </trkpt>
      <trkpt lat="47.59344" lon="6.87654">
        <ele>416</ele>
        <time>2010-05-29T11:14:44Z</time>
      </trkpt>
      <trkpt lat="47.59346" lon="6.87662">
        <ele>416</ele>
        <time>2010-05-29T11:14:45Z</time>
      </trkpt>
      <trkpt lat="47.59349" lon="6.8767">
        <ele>416</ele>
        <time>2010-05-29T11:14:46Z</time>
      </trkpt>
      <trkpt lat="47.59352" lon="6.87677">
        <ele>416</ele>
        <time>2010-05-29T11:14:47Z</time>
      </trkpt>
      <trkpt lat="47.59355" lon="6.87684">
        <ele>415.5</ele>
        <time>2010-05-29T11:14:48Z</time>
      </trkpt>
      <trkpt lat="47.59358" lon="6.87692">
        <ele>415</ele>
        <time>2010-05-29T11:14:49Z</time>
      </trkpt>
      <trkpt lat="47.5936" lon="6.877">
        <ele>414.5</ele>
        <time>2010-05-29T11:14:50Z</time>
      </trkpt>
      <trkpt lat="47.59363" lon="6.87707">
        <ele>415</ele>
        <time>2010-05-29T11:14:51Z</time>
      </trkpt>
      <trkpt lat="47.59366" lon="6.87715">
        <ele>414.5</ele>
        <time>2010-05-29T11:14:52Z</time>
      </trkpt>
      <trkpt lat="47.59368" lon="6.87723">
        <ele>414</ele>
        <time>2010-05-29T11:14:53Z</time>
      </trkpt>
      <trkpt lat="47.59371" lon="6.87731">
        <ele>414</ele>
        <time>2010-05-29T11:14:54Z</time>
      </trkpt>
      <trkpt lat="47.59373" lon="6.87738">
        <ele>413.5</ele>
        <time>2010-05-29T11:14:55Z</time>
      </trkpt>
      <trkpt lat="47.59375" lon="6.87746">
        <ele>414</ele>
        <time>2010-05-29T11:14:56Z</time>
      </trkpt>
      <trkpt lat="47.59378" lon="6.87753">
        <ele>413.5</ele>
        <time>2010-05-29T11:14:57Z</time>
      </trkpt>
      <trkpt lat="47.59381" lon="6.87761">
        <ele>413</ele>
        <time>2010-05-29T11:14:58Z</time>
      </trkpt>
      <trkpt lat="47.59383" lon="6.87769">
        <ele>412.5</ele>
        <time>2010-05-29T11:14:59Z</time>
      </trkpt>
      <trkpt lat="47.59386" lon="6.87776">
        <ele>412.5</ele>
        <time>2010-05-29T11:15:00Z</time>
      </trkpt>
      <trkpt lat="47.59389" lon="6.87784">
        <ele>412.5</ele>
        <time>2010-05-29T11:15:01Z</time>
      </trkpt>
      <trkpt lat="47.59391" lon="6.87792">
        <ele>412</ele>
        <time>2010-05-29T11:15:02Z</time>
      </trkpt>
      <trkpt lat="47.59394" lon="6.87799">
        <ele>412.5</ele>
        <time>2010-05-29T11:15:03Z</time>
      </trkpt>
      <trkpt lat="47.59397" lon="6.87807">
        <ele>412</ele>
        <time>2010-05-29T11:15:04Z</time>
      </trkpt>
      <trkpt lat="47.59399" lon="6.87814">
        <ele>412</ele>
        <time>2010-05-29T11:15:05Z</time>
      </trkpt>
      <trkpt lat="47.59402" lon="6.87822">
        <ele>412</ele>
        <time>2010-05-29T11:15:06Z</time>
      </trkpt>
      <trkpt lat="47.59409" lon="6.87839">
        <ele>411.5</ele>
        <time>2010-05-29T11:15:07Z</time>
      </trkpt>
      <trkpt lat="47.59412" lon="6.87845">
        <ele>411</ele>
        <time>2010-05-29T11:15:09Z</time>
      </trkpt>
      <trkpt lat="47.59415" lon="6.87853">
        <ele>411</ele>
        <time>2010-05-29T11:15:10Z</time>
      </trkpt>
      <trkpt lat="47.59421" lon="6.87865">
        <ele>411</ele>
        <time>2010-05-29T11:15:12Z</time>
      </trkpt>
      <trkpt lat="47.59425" lon="6.87872">
        <ele>410.5</ele>
        <time>2010-05-29T11:15:13Z</time>
      </trkpt>
      <trkpt lat="47.59428" lon="6.87879">
        <ele>410.5</ele>
        <time>2010-05-29T11:15:14Z</time>
      </trkpt>
      <trkpt lat="47.59431" lon="6.87887">
        <ele>410.5</ele>
        <time>2010-05-29T11:15:15Z</time>
      </trkpt>
      <trkpt lat="47.59435" lon="6.87894">
        <ele>410</ele>
        <time>2010-05-29T11:15:16Z</time>
      </trkpt>
      <trkpt lat="47.59438" lon="6.87901">
        <ele>410</ele>
        <time>2010-05-29T11:15:17Z</time>
      </trkpt>
      <trkpt lat="47.59442" lon="6.87907">
        <ele>410</ele>
        <time>2010-05-29T11:15:18Z</time>
      </trkpt>
      <trkpt lat="47.59445" lon="6.87914">
        <ele>410</ele>
        <time>2010-05-29T11:15:19Z</time>
      </trkpt>
      <trkpt lat="47.59449" lon="6.8792">
        <ele>410.5</ele>
        <time>2010-05-29T11:15:20Z</time>
      </trkpt>
      <trkpt lat="47.59452" lon="6.87927">
        <ele>410</ele>
        <time>2010-05-29T11:15:21Z</time>
      </trkpt>
      <trkpt lat="47.59456" lon="6.87934">
        <ele>410</ele>
        <time>2010-05-29T11:15:22Z</time>
      </trkpt>
      <trkpt lat="47.5946" lon="6.87941">
        <ele>410</ele>
        <time>2010-05-29T11:15:23Z</time>
      </trkpt>
      <trkpt lat="47.59463" lon="6.87947">
        <ele>410</ele>
        <time>2010-05-29T11:15:24Z</time>
      </trkpt>
      <trkpt lat="47.59467" lon="6.87954">
        <ele>410</ele>
        <time>2010-05-29T11:15:25Z</time>
      </trkpt>
      <trkpt lat="47.5947" lon="6.87961">
        <ele>409.5</ele>
        <time>2010-05-29T11:15:26Z</time>
      </trkpt>
      <trkpt lat="47.59474" lon="6.87968">
        <ele>409.5</ele>
        <time>2010-05-29T11:15:27Z</time>
      </trkpt>
      <trkpt lat="47.59477" lon="6.87974">
        <ele>410</ele>
        <time>2010-05-29T11:15:28Z</time>
      </trkpt>
      <trkpt lat="47.59481" lon="6.87981">
        <ele>410</ele>
        <time>2010-05-29T11:15:29Z</time>
      </trkpt>
      <trkpt lat="47.59484" lon="6.87988">
        <ele>410</ele>
        <time>2010-05-29T11:15:30Z</time>
      </trkpt>
      <trkpt lat="47.59488" lon="6.87994">
        <ele>410</ele>
        <time>2010-05-29T11:15:31Z</time>
      </trkpt>
      <trkpt lat="47.59492" lon="6.88">
        <ele>410</ele>
        <time>2010-05-29T11:15:32Z</time>
      </trkpt>
      <trkpt lat="47.59495" lon="6.88006">
        <ele>409.5</ele>
        <time>2010-05-29T11:15:33Z</time>
      </trkpt>
      <trkpt lat="47.59499" lon="6.88013">
        <ele>409.5</ele>
        <time>2010-05-29T11:15:34Z</time>
      </trkpt>
      <trkpt lat="47.59502" lon="6.88019">
        <ele>409.5</ele>
        <time>2010-05-29T11:15:35Z</time>
      </trkpt>
      <trkpt lat="47.59505" lon="6.88026">
        <ele>409.5</ele>
        <time>2010-05-29T11:15:36Z</time>
      </trkpt>
      <trkpt lat="47.59508" lon="6.88033">
        <ele>409.5</ele>
        <time>2010-05-29T11:15:37Z</time>
      </trkpt>
      <trkpt lat="47.59511" lon="6.88039">
        <ele>410</ele>
        <time>2010-05-29T11:15:38Z</time>
      </trkpt>
      <trkpt lat="47.59514" lon="6.88046">
        <ele>410</ele>
        <time>2010-05-29T11:15:39Z</time>
      </trkpt>
      <trkpt lat="47.59517" lon="6.88052">
        <ele>409.5</ele>
        <time>2010-05-29T11:15:40Z</time>
      </trkpt>
      <trkpt lat="47.59521" lon="6.88058">
        <ele>409.5</ele>
        <time>2010-05-29T11:15:41Z</time>
      </trkpt>
      <trkpt lat="47.59524" lon="6.88065">
        <ele>409.5</ele>
        <time>2010-05-29T11:15:42Z</time>
      </trkpt>
      <trkpt lat="47.59527" lon="6.88071">
        <ele>409</ele>
        <time>2010-05-29T11:15:43Z</time>
      </trkpt>
      <trkpt lat="47.59531" lon="6.88078">
        <ele>409</ele>
        <time>2010-05-29T11:15:44Z</time>
      </trkpt>
      <trkpt lat="47.59534" lon="6.88085">
        <ele>409</ele>
        <time>2010-05-29T11:15:45Z</time>
      </trkpt>
      <trkpt lat="47.59537" lon="6.88091">
        <ele>409</ele>
        <time>2010-05-29T11:15:46Z</time>
      </trkpt>
      <trkpt lat="47.59541" lon="6.88098">
        <ele>409</ele>
        <time>2010-05-29T11:15:47Z</time>
      </trkpt>
      <trkpt lat="47.59544" lon="6.88104">
        <ele>409</ele>
        <time>2010-05-29T11:15:48Z</time>
      </trkpt>
      <trkpt lat="47.59547" lon="6.8811">
        <ele>409</ele>
        <time>2010-05-29T11:15:49Z</time>
      </trkpt>
      <trkpt lat="47.5955" lon="6.88117">
        <ele>409</ele>
        <time>2010-05-29T11:15:50Z</time>
      </trkpt>
      <trkpt lat="47.59553" lon="6.88124">
        <ele>409</ele>
        <time>2010-05-29T11:15:51Z</time>
      </trkpt>
      <trkpt lat="47.59557" lon="6.8813">
        <ele>409</ele>
        <time>2010-05-29T11:15:52Z</time>
      </trkpt>
      <trkpt lat="47.5956" lon="6.88137">
        <ele>409</ele>
        <time>2010-05-29T11:15:53Z</time>
      </trkpt>
      <trkpt lat="47.59563" lon="6.88143">
        <ele>409</ele>
        <time>2010-05-29T11:15:54Z</time>
      </trkpt>
      <trkpt lat="47.59566" lon="6.8815">
        <ele>408.5</ele>
        <time>2010-05-29T11:15:55Z</time>
      </trkpt>
      <trkpt lat="47.59569" lon="6.88157">
        <ele>408.5</ele>
        <time>2010-05-29T11:15:56Z</time>
      </trkpt>
      <trkpt lat="47.59572" lon="6.88163">
        <ele>408.5</ele>
        <time>2010-05-29T11:15:57Z</time>
      </trkpt>
      <trkpt lat="47.59575" lon="6.8817">
        <ele>408</ele>
        <time>2010-05-29T11:15:58Z</time>
      </trkpt>
      <trkpt lat="47.59578" lon="6.88177">
        <ele>408</ele>
        <time>2010-05-29T11:15:59Z</time>
      </trkpt>
      <trkpt lat="47.5958" lon="6.88184">
        <ele>407.5</ele>
        <time>2010-05-29T11:16:00Z</time>
      </trkpt>
      <trkpt lat="47.59583" lon="6.88191">
        <ele>407.5</ele>
        <time>2010-05-29T11:16:01Z</time>
      </trkpt>
      <trkpt lat="47.59586" lon="6.88197">
        <ele>408</ele>
        <time>2010-05-29T11:16:02Z</time>
      </trkpt>
      <trkpt lat="47.59589" lon="6.88204">
        <ele>407.5</ele>
        <time>2010-05-29T11:16:03Z</time>
      </trkpt>
      <trkpt lat="47.59592" lon="6.8821">
        <ele>408</ele>
        <time>2010-05-29T11:16:04Z</time>
      </trkpt>
      <trkpt lat="47.59594" lon="6.88217">
        <ele>408</ele>
        <time>2010-05-29T11:16:05Z</time>
      </trkpt>
      <trkpt lat="47.59597" lon="6.88223">
        <ele>407.5</ele>
        <time>2010-05-29T11:16:06Z</time>
      </trkpt>
      <trkpt lat="47.59603" lon="6.88239">
        <ele>407.5</ele>
        <time>2010-05-29T11:16:07Z</time>
      </trkpt>
      <trkpt lat="47.59606" lon="6.88245">
        <ele>408</ele>
        <time>2010-05-29T11:16:09Z</time>
      </trkpt>
      <trkpt lat="47.59609" lon="6.88252">
        <ele>408</ele>
        <time>2010-05-29T11:16:10Z</time>
      </trkpt>
      <trkpt lat="47.59614" lon="6.88262">
        <ele>408</ele>
        <time>2010-05-29T11:16:12Z</time>
      </trkpt>
      <trkpt lat="47.59617" lon="6.88269">
        <ele>408</ele>
        <time>2010-05-29T11:16:13Z</time>
      </trkpt>
      <trkpt lat="47.5962" lon="6.88276">
        <ele>408.5</ele>
        <time>2010-05-29T11:16:14Z</time>
      </trkpt>
      <trkpt lat="47.59623" lon="6.88283">
        <ele>408.5</ele>
        <time>2010-05-29T11:16:15Z</time>
      </trkpt>
      <trkpt lat="47.59625" lon="6.88289">
        <ele>408</ele>
        <time>2010-05-29T11:16:16Z</time>
      </trkpt>
      <trkpt lat="47.59628" lon="6.88296">
        <ele>408</ele>
        <time>2010-05-29T11:16:17Z</time>
      </trkpt>
      <trkpt lat="47.59631" lon="6.88303">
        <ele>408</ele>
        <time>2010-05-29T11:16:18Z</time>
      </trkpt>
      <trkpt lat="47.59634" lon="6.88309">
        <ele>408</ele>
        <time>2010-05-29T11:16:19Z</time>
      </trkpt>
      <trkpt lat="47.59636" lon="6.88316">
        <ele>408</ele>
        <time>2010-05-29T11:16:20Z</time>
      </trkpt>
      <trkpt lat="47.59639" lon="6.88322">
        <ele>408.5</ele>
        <time>2010-05-29T11:16:21Z</time>
      </trkpt>
      <trkpt lat="47.59642" lon="6.88329">
        <ele>408</ele>
        <time>2010-05-29T11:16:22Z</time>
      </trkpt>
      <trkpt lat="47.59644" lon="6.88335">
        <ele>408</ele>
        <time>2010-05-29T11:16:23Z</time>
      </trkpt>
      <trkpt lat="47.59647" lon="6.88342">
        <ele>408.5</ele>
        <time>2010-05-29T11:16:24Z</time>
      </trkpt>
      <trkpt lat="47.5965" lon="6.88349">
        <ele>408.5</ele>
        <time>2010-05-29T11:16:25Z</time>
      </trkpt>
      <trkpt lat="47.59653" lon="6.88355">
        <ele>408</ele>
        <time>2010-05-29T11:16:26Z</time>
      </trkpt>
      <trkpt lat="47.59655" lon="6.88362">
        <ele>408.5</ele>
        <time>2010-05-29T11:16:27Z</time>
      </trkpt>
      <trkpt lat="47.59658" lon="6.88369">
        <ele>408.5</ele>
        <time>2010-05-29T11:16:28Z</time>
      </trkpt>
      <trkpt lat="47.59661" lon="6.88375">
        <ele>408.5</ele>
        <time>2010-05-29T11:16:29Z</time>
      </trkpt>
      <trkpt lat="47.59664" lon="6.88382">
        <ele>408.5</ele>
        <time>2010-05-29T11:16:30Z</time>
      </trkpt>
      <trkpt lat="47.59667" lon="6.88389">
        <ele>408.5</ele>
        <time>2010-05-29T11:16:31Z</time>
      </trkpt>
      <trkpt lat="47.5967" lon="6.88396">
        <ele>408.5</ele>
        <time>2010-05-29T11:16:32Z</time>
      </trkpt>
      <trkpt lat="47.59672" lon="6.88402">
        <ele>408.5</ele>
        <time>2010-05-29T11:16:33Z</time>
      </trkpt>
      <trkpt lat="47.59675" lon="6.88409">
        <ele>408.5</ele>
        <time>2010-05-29T11:16:34Z</time>
      </trkpt>
      <trkpt lat="47.59678" lon="6.88416">
        <ele>408.5</ele>
        <time>2010-05-29T11:16:35Z</time>
      </trkpt>
      <trkpt lat="47.5968" lon="6.88422">
        <ele>408.5</ele>
        <time>2010-05-29T11:16:36Z</time>
      </trkpt>
      <trkpt lat="47.59683" lon="6.88429">
        <ele>409</ele>
        <time>2010-05-29T11:16:37Z</time>
      </trkpt>
      <trkpt lat="47.59686" lon="6.88435">
        <ele>408.5</ele>
        <time>2010-05-29T11:16:38Z</time>
      </trkpt>
      <trkpt lat="47.59689" lon="6.88441">
        <ele>409</ele>
        <time>2010-05-29T11:16:39Z</time>
      </trkpt>
      <trkpt lat="47.59691" lon="6.88448">
        <ele>409</ele>
        <time>2010-05-29T11:16:40Z</time>
      </trkpt>
      <trkpt lat="47.59694" lon="6.88454">
        <ele>409</ele>
        <time>2010-05-29T11:16:41Z</time>
      </trkpt>
      <trkpt lat="47.59697" lon="6.88461">
        <ele>409</ele>
        <time>2010-05-29T11:16:42Z</time>
      </trkpt>
      <trkpt lat="47.59699" lon="6.88467">
        <ele>409</ele>
        <time>2010-05-29T11:16:43Z</time>
      </trkpt>
      <trkpt lat="47.59702" lon="6.88473">
        <ele>409</ele>
        <time>2010-05-29T11:16:44Z</time>
      </trkpt>
      <trkpt lat="47.59705" lon="6.8848">
        <ele>409</ele>
        <time>2010-05-29T11:16:45Z</time>
      </trkpt>
      <trkpt lat="47.59708" lon="6.88486">
        <ele>409</ele>
        <time>2010-05-29T11:16:46Z</time>
      </trkpt>
      <trkpt lat="47.59711" lon="6.88492">
        <ele>409</ele>
        <time>2010-05-29T11:16:47Z</time>
      </trkpt>
      <trkpt lat="47.59714" lon="6.88497">
        <ele>409.5</ele>
        <time>2010-05-29T11:16:48Z</time>
      </trkpt>
      <trkpt lat="47.59717" lon="6.88503">
        <ele>409</ele>
        <time>2010-05-29T11:16:49Z</time>
      </trkpt>
      <trkpt lat="47.59721" lon="6.88508">
        <ele>409.5</ele>
        <time>2010-05-29T11:16:50Z</time>
      </trkpt>
      <trkpt lat="47.59725" lon="6.88513">
        <ele>409</ele>
        <time>2010-05-29T11:16:51Z</time>
      </trkpt>
      <trkpt lat="47.59729" lon="6.88518">
        <ele>409</ele>
        <time>2010-05-29T11:16:52Z</time>
      </trkpt>
      <trkpt lat="47.59733" lon="6.88523">
        <ele>409</ele>
        <time>2010-05-29T11:16:53Z</time>
      </trkpt>
      <trkpt lat="47.59737" lon="6.88527">
        <ele>409</ele>
        <time>2010-05-29T11:16:54Z</time>
      </trkpt>
      <trkpt lat="47.59741" lon="6.88531">
        <ele>409</ele>
        <time>2010-05-29T11:16:55Z</time>
      </trkpt>
      <trkpt lat="47.59745" lon="6.88535">
        <ele>409</ele>
        <time>2010-05-29T11:16:56Z</time>
      </trkpt>
      <trkpt lat="47.5975" lon="6.88539">
        <ele>409</ele>
        <time>2010-05-29T11:16:57Z</time>
      </trkpt>
      <trkpt lat="47.59755" lon="6.88543">
        <ele>409</ele>
        <time>2010-05-29T11:16:58Z</time>
      </trkpt>
      <trkpt lat="47.59759" lon="6.88547">
        <ele>409</ele>
        <time>2010-05-29T11:16:59Z</time>
      </trkpt>
      <trkpt lat="47.59764" lon="6.8855">
        <ele>409</ele>
        <time>2010-05-29T11:17:00Z</time>
      </trkpt>
      <trkpt lat="47.59768" lon="6.88554">
        <ele>409</ele>
        <time>2010-05-29T11:17:01Z</time>
      </trkpt>
      <trkpt lat="47.59773" lon="6.88558">
        <ele>409</ele>
        <time>2010-05-29T11:17:02Z</time>
      </trkpt>
      <trkpt lat="47.59777" lon="6.88562">
        <ele>409</ele>
        <time>2010-05-29T11:17:03Z</time>
      </trkpt>
      <trkpt lat="47.59781" lon="6.88567">
        <ele>409</ele>
        <time>2010-05-29T11:17:04Z</time>
      </trkpt>
      <trkpt lat="47.59786" lon="6.88571">
        <ele>409</ele>
        <time>2010-05-29T11:17:05Z</time>
      </trkpt>
      <trkpt lat="47.5979" lon="6.88576">
        <ele>409</ele>
        <time>2010-05-29T11:17:06Z</time>
      </trkpt>
      <trkpt lat="47.598" lon="6.8859">
        <ele>409</ele>
        <time>2010-05-29T11:17:08Z</time>
      </trkpt>
      <trkpt lat="47.59804" lon="6.88595">
        <ele>409</ele>
        <time>2010-05-29T11:17:09Z</time>
      </trkpt>
      <trkpt lat="47.59807" lon="6.88601">
        <ele>409</ele>
        <time>2010-05-29T11:17:10Z</time>
      </trkpt>
      <trkpt lat="47.59812" lon="6.8861">
        <ele>409</ele>
        <time>2010-05-29T11:17:12Z</time>
      </trkpt>
      <trkpt lat="47.59816" lon="6.88616">
        <ele>409</ele>
        <time>2010-05-29T11:17:13Z</time>
      </trkpt>
      <trkpt lat="47.59819" lon="6.88622">
        <ele>409.5</ele>
        <time>2010-05-29T11:17:14Z</time>
      </trkpt>
      <trkpt lat="47.59823" lon="6.88627">
        <ele>409.5</ele>
        <time>2010-05-29T11:17:15Z</time>
      </trkpt>
      <trkpt lat="47.59826" lon="6.88632">
        <ele>409.5</ele>
        <time>2010-05-29T11:17:16Z</time>
      </trkpt>
      <trkpt lat="47.5983" lon="6.88637">
        <ele>409.5</ele>
        <time>2010-05-29T11:17:17Z</time>
      </trkpt>
      <trkpt lat="47.59834" lon="6.88643">
        <ele>409.5</ele>
        <time>2010-05-29T11:17:18Z</time>
      </trkpt>
      <trkpt lat="47.59837" lon="6.88648">
        <ele>409.5</ele>
        <time>2010-05-29T11:17:19Z</time>
      </trkpt>
      <trkpt lat="47.59841" lon="6.88654">
        <ele>409.5</ele>
        <time>2010-05-29T11:17:20Z</time>
      </trkpt>
      <trkpt lat="47.59845" lon="6.8866">
        <ele>410</ele>
        <time>2010-05-29T11:17:21Z</time>
      </trkpt>
      <trkpt lat="47.59848" lon="6.88665">
        <ele>409.5</ele>
        <time>2010-05-29T11:17:22Z</time>
      </trkpt>
      <trkpt lat="47.59852" lon="6.8867">
        <ele>409.5</ele>
        <time>2010-05-29T11:17:23Z</time>
      </trkpt>
      <trkpt lat="47.59855" lon="6.88676">
        <ele>409.5</ele>
        <time>2010-05-29T11:17:24Z</time>
      </trkpt>
      <trkpt lat="47.59858" lon="6.88682">
        <ele>410</ele>
        <time>2010-05-29T11:17:25Z</time>
      </trkpt>
      <trkpt lat="47.59862" lon="6.88688">
        <ele>410</ele>
        <time>2010-05-29T11:17:26Z</time>
      </trkpt>
      <trkpt lat="47.59865" lon="6.88694">
        <ele>410</ele>
        <time>2010-05-29T11:17:27Z</time>
      </trkpt>
      <trkpt lat="47.59868" lon="6.887">
        <ele>410</ele>
        <time>2010-05-29T11:17:28Z</time>
      </trkpt>
      <trkpt lat="47.59871" lon="6.88706">
        <ele>410</ele>
        <time>2010-05-29T11:17:29Z</time>
      </trkpt>
      <trkpt lat="47.59873" lon="6.88712">
        <ele>410</ele>
        <time>2010-05-29T11:17:30Z</time>
      </trkpt>
      <trkpt lat="47.59876" lon="6.88718">
        <ele>410</ele>
        <time>2010-05-29T11:17:31Z</time>
      </trkpt>
      <trkpt lat="47.59879" lon="6.88724">
        <ele>410.5</ele>
        <time>2010-05-29T11:17:32Z</time>
      </trkpt>
      <trkpt lat="47.59881" lon="6.8873">
        <ele>410.5</ele>
        <time>2010-05-29T11:17:33Z</time>
      </trkpt>
      <trkpt lat="47.59883" lon="6.88736">
        <ele>411</ele>
        <time>2010-05-29T11:17:34Z</time>
      </trkpt>
      <trkpt lat="47.59886" lon="6.88742">
        <ele>411</ele>
        <time>2010-05-29T11:17:35Z</time>
      </trkpt>
      <trkpt lat="47.59888" lon="6.88749">
        <ele>411</ele>
        <time>2010-05-29T11:17:36Z</time>
      </trkpt>
      <trkpt lat="47.5989" lon="6.88755">
        <ele>411</ele>
        <time>2010-05-29T11:17:37Z</time>
      </trkpt>
      <trkpt lat="47.59892" lon="6.88761">
        <ele>411</ele>
        <time>2010-05-29T11:17:38Z</time>
      </trkpt>
      <trkpt lat="47.59894" lon="6.88767">
        <ele>411.5</ele>
        <time>2010-05-29T11:17:39Z</time>
      </trkpt>
      <trkpt lat="47.59895" lon="6.88774">
        <ele>411.5</ele>
        <time>2010-05-29T11:17:40Z</time>
      </trkpt>
      <trkpt lat="47.59897" lon="6.88786">
        <ele>412.5</ele>
        <time>2010-05-29T11:17:42Z</time>
      </trkpt>
      <trkpt lat="47.59898" lon="6.88793">
        <ele>412</ele>
        <time>2010-05-29T11:17:43Z</time>
      </trkpt>
      <trkpt lat="47.59899" lon="6.88806">
        <ele>412.5</ele>
        <time>2010-05-29T11:17:45Z</time>
      </trkpt>
      <trkpt lat="47.59901" lon="6.88818">
        <ele>412.5</ele>
        <time>2010-05-29T11:17:47Z</time>
      </trkpt>
      <trkpt lat="47.59901" lon="6.88832">
        <ele>413</ele>
        <time>2010-05-29T11:17:49Z</time>
      </trkpt>
      <trkpt lat="47.59901" lon="6.88844">
        <ele>413</ele>
        <time>2010-05-29T11:17:51Z</time>
      </trkpt>
      <trkpt lat="47.59902" lon="6.88857">
        <ele>413</ele>
        <time>2010-05-29T11:17:53Z</time>
      </trkpt>
      <trkpt lat="47.59902" lon="6.88871">
        <ele>414</ele>
        <time>2010-05-29T11:17:55Z</time>
      </trkpt>
      <trkpt lat="47.59901" lon="6.88883">
        <ele>414.5</ele>
        <time>2010-05-29T11:17:57Z</time>
      </trkpt>
      <trkpt lat="47.59901" lon="6.88895">
        <ele>415</ele>
        <time>2010-05-29T11:17:59Z</time>
      </trkpt>
      <trkpt lat="47.59901" lon="6.88907">
        <ele>415.5</ele>
        <time>2010-05-29T11:18:01Z</time>
      </trkpt>
      <trkpt lat="47.59901" lon="6.88919">
        <ele>415.5</ele>
        <time>2010-05-29T11:18:03Z</time>
      </trkpt>
      <trkpt lat="47.59901" lon="6.8893">
        <ele>416</ele>
        <time>2010-05-29T11:18:05Z</time>
      </trkpt>
      <trkpt lat="47.59902" lon="6.88951">
        <ele>416</ele>
        <time>2010-05-29T11:18:07Z</time>
      </trkpt>
      <trkpt lat="47.59904" lon="6.88964">
        <ele>416.5</ele>
        <time>2010-05-29T11:18:10Z</time>
      </trkpt>
      <trkpt lat="47.59906" lon="6.88973">
        <ele>416.5</ele>
        <time>2010-05-29T11:18:12Z</time>
      </trkpt>
      <trkpt lat="47.59907" lon="6.88979">
        <ele>416.5</ele>
        <time>2010-05-29T11:18:13Z</time>
      </trkpt>
      <trkpt lat="47.5991" lon="6.8899">
        <ele>417</ele>
        <time>2010-05-29T11:18:15Z</time>
      </trkpt>
      <trkpt lat="47.59915" lon="6.89001">
        <ele>417.5</ele>
        <time>2010-05-29T11:18:17Z</time>
      </trkpt>
      <trkpt lat="47.59919" lon="6.89011">
        <ele>417</ele>
        <time>2010-05-29T11:18:19Z</time>
      </trkpt>
      <trkpt lat="47.59924" lon="6.89019">
        <ele>417.5</ele>
        <time>2010-05-29T11:18:21Z</time>
      </trkpt>
      <trkpt lat="47.59929" lon="6.89028">
        <ele>418</ele>
        <time>2010-05-29T11:18:23Z</time>
      </trkpt>
      <trkpt lat="47.59934" lon="6.89036">
        <ele>418.5</ele>
        <time>2010-05-29T11:18:25Z</time>
      </trkpt>
      <trkpt lat="47.5994" lon="6.89043">
        <ele>419.5</ele>
        <time>2010-05-29T11:18:27Z</time>
      </trkpt>
      <trkpt lat="47.59945" lon="6.89051">
        <ele>419.5</ele>
        <time>2010-05-29T11:18:29Z</time>
      </trkpt>
      <trkpt lat="47.5995" lon="6.89058">
        <ele>420</ele>
        <time>2010-05-29T11:18:31Z</time>
      </trkpt>
      <trkpt lat="47.59956" lon="6.89066">
        <ele>421</ele>
        <time>2010-05-29T11:18:33Z</time>
      </trkpt>
      <trkpt lat="47.59961" lon="6.89072">
        <ele>422</ele>
        <time>2010-05-29T11:18:35Z</time>
      </trkpt>
      <trkpt lat="47.59966" lon="6.89079">
        <ele>423.5</ele>
        <time>2010-05-29T11:18:37Z</time>
      </trkpt>
      <trkpt lat="47.5997" lon="6.89085">
        <ele>424.5</ele>
        <time>2010-05-29T11:18:39Z</time>
      </trkpt>
      <trkpt lat="47.59975" lon="6.89093">
        <ele>425.5</ele>
        <time>2010-05-29T11:18:41Z</time>
      </trkpt>
      <trkpt lat="47.5998" lon="6.891">
        <ele>425.5</ele>
        <time>2010-05-29T11:18:43Z</time>
      </trkpt>
      <trkpt lat="47.59985" lon="6.89108">
        <ele>426</ele>
        <time>2010-05-29T11:18:45Z</time>
      </trkpt>
      <trkpt lat="47.5999" lon="6.89116">
        <ele>427</ele>
        <time>2010-05-29T11:18:47Z</time>
      </trkpt>
      <trkpt lat="47.59993" lon="6.89122">
        <ele>427</ele>
        <time>2010-05-29T11:18:48Z</time>
      </trkpt>
      <trkpt lat="47.59999" lon="6.89132">
        <ele>426.5</ele>
        <time>2010-05-29T11:18:50Z</time>
      </trkpt>
      <trkpt lat="47.60002" lon="6.89138">
        <ele>426.5</ele>
        <time>2010-05-29T11:18:51Z</time>
      </trkpt>
      <trkpt lat="47.60005" lon="6.89143">
        <ele>426</ele>
        <time>2010-05-29T11:18:52Z</time>
      </trkpt>
      <trkpt lat="47.60008" lon="6.89148">
        <ele>425.5</ele>
        <time>2010-05-29T11:18:53Z</time>
      </trkpt>
      <trkpt lat="47.60014" lon="6.89158">
        <ele>426</ele>
        <time>2010-05-29T11:18:55Z</time>
      </trkpt>
      <trkpt lat="47.60017" lon="6.89162">
        <ele>426</ele>
        <time>2010-05-29T11:18:56Z</time>
      </trkpt>
      <trkpt lat="47.6002" lon="6.89167">
        <ele>426.5</ele>
        <time>2010-05-29T11:18:57Z</time>
      </trkpt>
      <trkpt lat="47.60026" lon="6.89177">
        <ele>426.5</ele>
        <time>2010-05-29T11:18:59Z</time>
      </trkpt>
      <trkpt lat="47.60032" lon="6.89186">
        <ele>427</ele>
        <time>2010-05-29T11:19:01Z</time>
      </trkpt>
      <trkpt lat="47.60035" lon="6.89191">
        <ele>427</ele>
        <time>2010-05-29T11:19:02Z</time>
      </trkpt>
      <trkpt lat="47.60038" lon="6.89196">
        <ele>426.5</ele>
        <time>2010-05-29T11:19:03Z</time>
      </trkpt>
      <trkpt lat="47.60041" lon="6.89201">
        <ele>426.5</ele>
        <time>2010-05-29T11:19:04Z</time>
      </trkpt>
      <trkpt lat="47.60044" lon="6.89206">
        <ele>426</ele>
        <time>2010-05-29T11:19:05Z</time>
      </trkpt>
      <trkpt lat="47.60047" lon="6.89211">
        <ele>426</ele>
        <time>2010-05-29T11:19:06Z</time>
      </trkpt>
      <trkpt lat="47.60054" lon="6.89221">
        <ele>426.5</ele>
        <time>2010-05-29T11:19:06Z</time>
      </trkpt>
      <trkpt lat="47.60058" lon="6.89225">
        <ele>426</ele>
        <time>2010-05-29T11:19:09Z</time>
      </trkpt>
      <trkpt lat="47.60062" lon="6.89229">
        <ele>426</ele>
        <time>2010-05-29T11:19:10Z</time>
      </trkpt>
      <trkpt lat="47.60069" lon="6.89235">
        <ele>426</ele>
        <time>2010-05-29T11:19:12Z</time>
      </trkpt>
      <trkpt lat="47.60074" lon="6.89238">
        <ele>426</ele>
        <time>2010-05-29T11:19:13Z</time>
      </trkpt>
      <trkpt lat="47.60078" lon="6.89241">
        <ele>425.5</ele>
        <time>2010-05-29T11:19:14Z</time>
      </trkpt>
      <trkpt lat="47.60083" lon="6.89243">
        <ele>425.5</ele>
        <time>2010-05-29T11:19:15Z</time>
      </trkpt>
      <trkpt lat="47.60088" lon="6.89246">
        <ele>425</ele>
        <time>2010-05-29T11:19:16Z</time>
      </trkpt>
      <trkpt lat="47.60092" lon="6.89248">
        <ele>424.5</ele>
        <time>2010-05-29T11:19:17Z</time>
      </trkpt>
      <trkpt lat="47.60097" lon="6.89251">
        <ele>424</ele>
        <time>2010-05-29T11:19:18Z</time>
      </trkpt>
      <trkpt lat="47.60102" lon="6.89253">
        <ele>424</ele>
        <time>2010-05-29T11:19:19Z</time>
      </trkpt>
      <trkpt lat="47.60107" lon="6.89255">
        <ele>424</ele>
        <time>2010-05-29T11:19:20Z</time>
      </trkpt>
      <trkpt lat="47.60112" lon="6.89257">
        <ele>424</ele>
        <time>2010-05-29T11:19:21Z</time>
      </trkpt>
      <trkpt lat="47.60116" lon="6.89259">
        <ele>424</ele>
        <time>2010-05-29T11:19:22Z</time>
      </trkpt>
      <trkpt lat="47.60121" lon="6.89261">
        <ele>423.5</ele>
        <time>2010-05-29T11:19:23Z</time>
      </trkpt>
      <trkpt lat="47.60126" lon="6.89262">
        <ele>423.5</ele>
        <time>2010-05-29T11:19:24Z</time>
      </trkpt>
      <trkpt lat="47.60131" lon="6.89264">
        <ele>423.5</ele>
        <time>2010-05-29T11:19:25Z</time>
      </trkpt>
      <trkpt lat="47.60136" lon="6.89265">
        <ele>423.5</ele>
        <time>2010-05-29T11:19:26Z</time>
      </trkpt>
      <trkpt lat="47.60141" lon="6.89264">
        <ele>423.5</ele>
        <time>2010-05-29T11:19:27Z</time>
      </trkpt>
      <trkpt lat="47.60146" lon="6.89261">
        <ele>423</ele>
        <time>2010-05-29T11:19:28Z</time>
      </trkpt>
      <trkpt lat="47.6015" lon="6.89258">
        <ele>423</ele>
        <time>2010-05-29T11:19:29Z</time>
      </trkpt>
      <trkpt lat="47.60153" lon="6.89254">
        <ele>423.5</ele>
        <time>2010-05-29T11:19:30Z</time>
      </trkpt>
      <trkpt lat="47.6016" lon="6.89246">
        <ele>423.5</ele>
        <time>2010-05-29T11:19:32Z</time>
      </trkpt>
      <trkpt lat="47.60167" lon="6.89239">
        <ele>423</ele>
        <time>2010-05-29T11:19:34Z</time>
      </trkpt>
      <trkpt lat="47.60173" lon="6.8923">
        <ele>423</ele>
        <time>2010-05-29T11:19:36Z</time>
      </trkpt>
      <trkpt lat="47.6018" lon="6.89222">
        <ele>423</ele>
        <time>2010-05-29T11:19:38Z</time>
      </trkpt>
      <trkpt lat="47.60186" lon="6.89214">
        <ele>422.5</ele>
        <time>2010-05-29T11:19:40Z</time>
      </trkpt>
      <trkpt lat="47.60193" lon="6.89205">
        <ele>422.5</ele>
        <time>2010-05-29T11:19:42Z</time>
      </trkpt>
      <trkpt lat="47.60196" lon="6.89201">
        <ele>422.5</ele>
        <time>2010-05-29T11:19:43Z</time>
      </trkpt>
      <trkpt lat="47.602" lon="6.89196">
        <ele>422</ele>
        <time>2010-05-29T11:19:44Z</time>
      </trkpt>
      <trkpt lat="47.60203" lon="6.89191">
        <ele>422</ele>
        <time>2010-05-29T11:19:45Z</time>
      </trkpt>
      <trkpt lat="47.60207" lon="6.89185">
        <ele>422</ele>
        <time>2010-05-29T11:19:46Z</time>
      </trkpt>
      <trkpt lat="47.60212" lon="6.8918">
        <ele>421.5</ele>
        <time>2010-05-29T11:19:47Z</time>
      </trkpt>
      <trkpt lat="47.60216" lon="6.89173">
        <ele>421.5</ele>
        <time>2010-05-29T11:19:48Z</time>
      </trkpt>
      <trkpt lat="47.6022" lon="6.89167">
        <ele>421</ele>
        <time>2010-05-29T11:19:49Z</time>
      </trkpt>
      <trkpt lat="47.60225" lon="6.89161">
        <ele>421</ele>
        <time>2010-05-29T11:19:50Z</time>
      </trkpt>
      <trkpt lat="47.60229" lon="6.89155">
        <ele>420.5</ele>
        <time>2010-05-29T11:19:51Z</time>
      </trkpt>
      <trkpt lat="47.60234" lon="6.89149">
        <ele>420.5</ele>
        <time>2010-05-29T11:19:52Z</time>
      </trkpt>
      <trkpt lat="47.60238" lon="6.89142">
        <ele>420</ele>
        <time>2010-05-29T11:19:53Z</time>
      </trkpt>
      <trkpt lat="47.60243" lon="6.89136">
        <ele>419.5</ele>
        <time>2010-05-29T11:19:54Z</time>
      </trkpt>
      <trkpt lat="47.60248" lon="6.89129">
        <ele>419.5</ele>
        <time>2010-05-29T11:19:55Z</time>
      </trkpt>
      <trkpt lat="47.60252" lon="6.89123">
        <ele>419.5</ele>
        <time>2010-05-29T11:19:56Z</time>
      </trkpt>
      <trkpt lat="47.60257" lon="6.89116">
        <ele>419</ele>
        <time>2010-05-29T11:19:57Z</time>
      </trkpt>
      <trkpt lat="47.60262" lon="6.8911">
        <ele>419</ele>
        <time>2010-05-29T11:19:58Z</time>
      </trkpt>
      <trkpt lat="47.60267" lon="6.89104">
        <ele>419</ele>
        <time>2010-05-29T11:19:59Z</time>
      </trkpt>
      <trkpt lat="47.60271" lon="6.89098">
        <ele>419</ele>
        <time>2010-05-29T11:20:00Z</time>
      </trkpt>
      <trkpt lat="47.60276" lon="6.89092">
        <ele>418.5</ele>
        <time>2010-05-29T11:20:01Z</time>
      </trkpt>
      <trkpt lat="47.60281" lon="6.89086">
        <ele>418.5</ele>
        <time>2010-05-29T11:20:02Z</time>
      </trkpt>
      <trkpt lat="47.60285" lon="6.8908">
        <ele>418.5</ele>
        <time>2010-05-29T11:20:03Z</time>
      </trkpt>
      <trkpt lat="47.6029" lon="6.89074">
        <ele>418</ele>
        <time>2010-05-29T11:20:04Z</time>
      </trkpt>
      <trkpt lat="47.60294" lon="6.89067">
        <ele>418</ele>
        <time>2010-05-29T11:20:05Z</time>
      </trkpt>
      <trkpt lat="47.60299" lon="6.89061">
        <ele>418</ele>
        <time>2010-05-29T11:20:06Z</time>
      </trkpt>
      <trkpt lat="47.60308" lon="6.89048">
        <ele>418</ele>
        <time>2010-05-29T11:20:06Z</time>
      </trkpt>
      <trkpt lat="47.60312" lon="6.89042">
        <ele>418</ele>
        <time>2010-05-29T11:20:09Z</time>
      </trkpt>
      <trkpt lat="47.60316" lon="6.89036">
        <ele>418</ele>
        <time>2010-05-29T11:20:10Z</time>
      </trkpt>
      <trkpt lat="47.6032" lon="6.8903">
        <ele>417.5</ele>
        <time>2010-05-29T11:20:11Z</time>
      </trkpt>
      <trkpt lat="47.60324" lon="6.89024">
        <ele>417.5</ele>
        <time>2010-05-29T11:20:12Z</time>
      </trkpt>
      <trkpt lat="47.60328" lon="6.89018">
        <ele>417.5</ele>
        <time>2010-05-29T11:20:13Z</time>
      </trkpt>
      <trkpt lat="47.60332" lon="6.89011">
        <ele>417</ele>
        <time>2010-05-29T11:20:14Z</time>
      </trkpt>
      <trkpt lat="47.60336" lon="6.89005">
        <ele>417</ele>
        <time>2010-05-29T11:20:15Z</time>
      </trkpt>
      <trkpt lat="47.60341" lon="6.88998">
        <ele>416.5</ele>
        <time>2010-05-29T11:20:16Z</time>
      </trkpt>
      <trkpt lat="47.60346" lon="6.88992">
        <ele>416.5</ele>
        <time>2010-05-29T11:20:17Z</time>
      </trkpt>
      <trkpt lat="47.60351" lon="6.88985">
        <ele>416</ele>
        <time>2010-05-29T11:20:18Z</time>
      </trkpt>
      <trkpt lat="47.60356" lon="6.88979">
        <ele>416</ele>
        <time>2010-05-29T11:20:19Z</time>
      </trkpt>
      <trkpt lat="47.6036" lon="6.88972">
        <ele>416</ele>
        <time>2010-05-29T11:20:20Z</time>
      </trkpt>
      <trkpt lat="47.60365" lon="6.88966">
        <ele>415.5</ele>
        <time>2010-05-29T11:20:21Z</time>
      </trkpt>
      <trkpt lat="47.6037" lon="6.8896">
        <ele>415.5</ele>
        <time>2010-05-29T11:20:22Z</time>
      </trkpt>
      <trkpt lat="47.60375" lon="6.88954">
        <ele>415</ele>
        <time>2010-05-29T11:20:23Z</time>
      </trkpt>
      <trkpt lat="47.60379" lon="6.88947">
        <ele>415</ele>
        <time>2010-05-29T11:20:24Z</time>
      </trkpt>
      <trkpt lat="47.60384" lon="6.88941">
        <ele>415</ele>
        <time>2010-05-29T11:20:25Z</time>
      </trkpt>
      <trkpt lat="47.60389" lon="6.88935">
        <ele>415</ele>
        <time>2010-05-29T11:20:26Z</time>
      </trkpt>
      <trkpt lat="47.60393" lon="6.88928">
        <ele>415</ele>
        <time>2010-05-29T11:20:27Z</time>
      </trkpt>
      <trkpt lat="47.60398" lon="6.88922">
        <ele>415</ele>
        <time>2010-05-29T11:20:28Z</time>
      </trkpt>
      <trkpt lat="47.60402" lon="6.88916">
        <ele>415</ele>
        <time>2010-05-29T11:20:29Z</time>
      </trkpt>
      <trkpt lat="47.60406" lon="6.88909">
        <ele>415</ele>
        <time>2010-05-29T11:20:30Z</time>
      </trkpt>
      <trkpt lat="47.6041" lon="6.88903">
        <ele>415</ele>
        <time>2010-05-29T11:20:31Z</time>
      </trkpt>
      <trkpt lat="47.60414" lon="6.88898">
        <ele>414.5</ele>
        <time>2010-05-29T11:20:32Z</time>
      </trkpt>
      <trkpt lat="47.60419" lon="6.88894">
        <ele>414.5</ele>
        <time>2010-05-29T11:20:33Z</time>
      </trkpt>
      <trkpt lat="47.60423" lon="6.8889">
        <ele>414</ele>
        <time>2010-05-29T11:20:34Z</time>
      </trkpt>
      <trkpt lat="47.60426" lon="6.88886">
        <ele>414</ele>
        <time>2010-05-29T11:20:35Z</time>
      </trkpt>
      <trkpt lat="47.6043" lon="6.88881">
        <ele>414</ele>
        <time>2010-05-29T11:20:36Z</time>
      </trkpt>
      <trkpt lat="47.60436" lon="6.88873">
        <ele>415</ele>
        <time>2010-05-29T11:20:38Z</time>
      </trkpt>
      <trkpt lat="47.60443" lon="6.88865">
        <ele>415.5</ele>
        <time>2010-05-29T11:20:40Z</time>
      </trkpt>
      <trkpt lat="47.60448" lon="6.88858">
        <ele>416</ele>
        <time>2010-05-29T11:20:42Z</time>
      </trkpt>
      <trkpt lat="47.60451" lon="6.88851">
        <ele>417</ele>
        <time>2010-05-29T11:20:44Z</time>
      </trkpt>
      <trkpt lat="47.60455" lon="6.88845">
        <ele>418</ele>
        <time>2010-05-29T11:20:46Z</time>
      </trkpt>
      <trkpt lat="47.6046" lon="6.88842">
        <ele>418</ele>
        <time>2010-05-29T11:20:48Z</time>
      </trkpt>
      <trkpt lat="47.60466" lon="6.88841">
        <ele>419</ele>
        <time>2010-05-29T11:20:50Z</time>
      </trkpt>
      <trkpt lat="47.60471" lon="6.88837">
        <ele>420</ele>
        <time>2010-05-29T11:20:52Z</time>
      </trkpt>
      <trkpt lat="47.60475" lon="6.88831">
        <ele>420</ele>
        <time>2010-05-29T11:20:54Z</time>
      </trkpt>
      <trkpt lat="47.60478" lon="6.8882">
        <ele>420</ele>
        <time>2010-05-29T11:20:56Z</time>
      </trkpt>
      <trkpt lat="47.6048" lon="6.88809">
        <ele>419</ele>
        <time>2010-05-29T11:20:58Z</time>
      </trkpt>
      <trkpt lat="47.60482" lon="6.888">
        <ele>420</ele>
        <time>2010-05-29T11:21:00Z</time>
      </trkpt>
      <trkpt lat="47.60486" lon="6.88791">
        <ele>421</ele>
        <time>2010-05-29T11:21:02Z</time>
      </trkpt>
      <trkpt lat="47.6049" lon="6.88784">
        <ele>421.5</ele>
        <time>2010-05-29T11:21:04Z</time>
      </trkpt>
      <trkpt lat="47.60495" lon="6.88774">
        <ele>421.5</ele>
        <time>2010-05-29T11:21:06Z</time>
      </trkpt>
      <trkpt lat="47.60499" lon="6.88764">
        <ele>422</ele>
        <time>2010-05-29T11:21:06Z</time>
      </trkpt>
      <trkpt lat="47.60503" lon="6.88753">
        <ele>422</ele>
        <time>2010-05-29T11:21:10Z</time>
      </trkpt>
      <trkpt lat="47.60509" lon="6.88747">
        <ele>423.5</ele>
        <time>2010-05-29T11:21:13Z</time>
      </trkpt>
      <trkpt lat="47.60512" lon="6.88742">
        <ele>424</ele>
        <time>2010-05-29T11:21:14Z</time>
      </trkpt>
      <trkpt lat="47.60517" lon="6.88734">
        <ele>425</ele>
        <time>2010-05-29T11:21:16Z</time>
      </trkpt>
      <trkpt lat="47.6052" lon="6.88727">
        <ele>427</ele>
        <time>2010-05-29T11:21:18Z</time>
      </trkpt>
      <trkpt lat="47.60523" lon="6.8872">
        <ele>427.5</ele>
        <time>2010-05-29T11:21:20Z</time>
      </trkpt>
      <trkpt lat="47.60525" lon="6.88712">
        <ele>428.5</ele>
        <time>2010-05-29T11:21:22Z</time>
      </trkpt>
      <trkpt lat="47.60527" lon="6.88705">
        <ele>430.5</ele>
        <time>2010-05-29T11:21:25Z</time>
      </trkpt>
      <trkpt lat="47.6053" lon="6.88697">
        <ele>432.5</ele>
        <time>2010-05-29T11:21:28Z</time>
      </trkpt>
      <trkpt lat="47.60534" lon="6.88693">
        <ele>434</ele>
        <time>2010-05-29T11:21:31Z</time>
      </trkpt>
      <trkpt lat="47.60533" lon="6.88686">
        <ele>436.5</ele>
        <time>2010-05-29T11:21:33Z</time>
      </trkpt>
      <trkpt lat="47.60535" lon="6.88679">
        <ele>437</ele>
        <time>2010-05-29T11:21:35Z</time>
      </trkpt>
      <trkpt lat="47.60537" lon="6.88672">
        <ele>439</ele>
        <time>2010-05-29T11:21:37Z</time>
      </trkpt>
      <trkpt lat="47.60539" lon="6.88664">
        <ele>439.5</ele>
        <time>2010-05-29T11:21:39Z</time>
      </trkpt>
      <trkpt lat="47.60542" lon="6.88658">
        <ele>438.5</ele>
        <time>2010-05-29T11:21:41Z</time>
      </trkpt>
      <trkpt lat="47.60546" lon="6.8865">
        <ele>439</ele>
        <time>2010-05-29T11:21:43Z</time>
      </trkpt>
      <trkpt lat="47.6055" lon="6.88642">
        <ele>441.5</ele>
        <time>2010-05-29T11:21:45Z</time>
      </trkpt>
      <trkpt lat="47.60553" lon="6.88634">
        <ele>443.5</ele>
        <time>2010-05-29T11:21:47Z</time>
      </trkpt>
      <trkpt lat="47.60556" lon="6.88625">
        <ele>444</ele>
        <time>2010-05-29T11:21:49Z</time>
      </trkpt>
      <trkpt lat="47.60559" lon="6.88616">
        <ele>442.5</ele>
        <time>2010-05-29T11:21:51Z</time>
      </trkpt>
      <trkpt lat="47.60563" lon="6.88607">
        <ele>444</ele>
        <time>2010-05-29T11:21:53Z</time>
      </trkpt>
      <trkpt lat="47.60567" lon="6.88599">
        <ele>444</ele>
        <time>2010-05-29T11:21:55Z</time>
      </trkpt>
      <trkpt lat="47.60571" lon="6.88591">
        <ele>443.5</ele>
        <time>2010-05-29T11:21:57Z</time>
      </trkpt>
      <trkpt lat="47.60576" lon="6.88584">
        <ele>444</ele>
        <time>2010-05-29T11:21:59Z</time>
      </trkpt>
      <trkpt lat="47.6058" lon="6.88578">
        <ele>445</ele>
        <time>2010-05-29T11:22:01Z</time>
      </trkpt>
      <trkpt lat="47.60584" lon="6.88572">
        <ele>445</ele>
        <time>2010-05-29T11:22:03Z</time>
      </trkpt>
      <trkpt lat="47.60586" lon="6.88564">
        <ele>445</ele>
        <time>2010-05-29T11:22:05Z</time>
      </trkpt>
      <trkpt lat="47.6059" lon="6.88552">
        <ele>445.5</ele>
        <time>2010-05-29T11:22:07Z</time>
      </trkpt>
      <trkpt lat="47.60592" lon="6.88545">
        <ele>445.5</ele>
        <time>2010-05-29T11:22:10Z</time>
      </trkpt>
      <trkpt lat="47.60598" lon="6.88543">
        <ele>445</ele>
        <time>2010-05-29T11:22:13Z</time>
      </trkpt>
      <trkpt lat="47.60604" lon="6.88541">
        <ele>446</ele>
        <time>2010-05-29T11:22:16Z</time>
      </trkpt>
      <trkpt lat="47.60609" lon="6.88538">
        <ele>445</ele>
        <time>2010-05-29T11:22:18Z</time>
      </trkpt>
      <trkpt lat="47.60614" lon="6.88534">
        <ele>445.5</ele>
        <time>2010-05-29T11:22:20Z</time>
      </trkpt>
      <trkpt lat="47.60619" lon="6.88532">
        <ele>445.5</ele>
        <time>2010-05-29T11:22:22Z</time>
      </trkpt>
      <trkpt lat="47.60624" lon="6.8853">
        <ele>445</ele>
        <time>2010-05-29T11:22:24Z</time>
      </trkpt>
      <trkpt lat="47.60629" lon="6.88527">
        <ele>445</ele>
        <time>2010-05-29T11:22:26Z</time>
      </trkpt>
      <trkpt lat="47.60635" lon="6.88522">
        <ele>445.5</ele>
        <time>2010-05-29T11:22:28Z</time>
      </trkpt>
      <trkpt lat="47.6064" lon="6.88518">
        <ele>446</ele>
        <time>2010-05-29T11:22:30Z</time>
      </trkpt>
      <trkpt lat="47.60646" lon="6.88516">
        <ele>448</ele>
        <time>2010-05-29T11:22:32Z</time>
      </trkpt>
      <trkpt lat="47.60652" lon="6.88514">
        <ele>449.5</ele>
        <time>2010-05-29T11:22:35Z</time>
      </trkpt>
      <trkpt lat="47.60658" lon="6.88511">
        <ele>449.5</ele>
        <time>2010-05-29T11:22:37Z</time>
      </trkpt>
      <trkpt lat="47.60663" lon="6.88507">
        <ele>450</ele>
        <time>2010-05-29T11:22:39Z</time>
      </trkpt>
      <trkpt lat="47.60669" lon="6.88504">
        <ele>451</ele>
        <time>2010-05-29T11:22:41Z</time>
      </trkpt>
      <trkpt lat="47.60673" lon="6.88502">
        <ele>452</ele>
        <time>2010-05-29T11:22:43Z</time>
      </trkpt>
      <trkpt lat="47.60678" lon="6.88498">
        <ele>452.5</ele>
        <time>2010-05-29T11:22:45Z</time>
      </trkpt>
      <trkpt lat="47.60684" lon="6.88496">
        <ele>453</ele>
        <time>2010-05-29T11:22:47Z</time>
      </trkpt>
      <trkpt lat="47.60689" lon="6.88494">
        <ele>455.5</ele>
        <time>2010-05-29T11:22:49Z</time>
      </trkpt>
      <trkpt lat="47.60694" lon="6.88493">
        <ele>457</ele>
        <time>2010-05-29T11:22:51Z</time>
      </trkpt>
      <trkpt lat="47.60699" lon="6.88492">
        <ele>458</ele>
        <time>2010-05-29T11:22:53Z</time>
      </trkpt>
      <trkpt lat="47.60704" lon="6.8849">
        <ele>458</ele>
        <time>2010-05-29T11:22:55Z</time>
      </trkpt>
      <trkpt lat="47.6071" lon="6.88487">
        <ele>456</ele>
        <time>2010-05-29T11:22:57Z</time>
      </trkpt>
      <trkpt lat="47.60716" lon="6.88485">
        <ele>457</ele>
        <time>2010-05-29T11:22:59Z</time>
      </trkpt>
      <trkpt lat="47.60721" lon="6.88483">
        <ele>458</ele>
        <time>2010-05-29T11:23:02Z</time>
      </trkpt>
      <trkpt lat="47.60726" lon="6.88483">
        <ele>458.5</ele>
        <time>2010-05-29T11:23:05Z</time>
      </trkpt>
      <trkpt lat="47.60731" lon="6.88481">
        <ele>460</ele>
        <time>2010-05-29T11:23:07Z</time>
      </trkpt>
      <trkpt lat="47.60771" lon="6.88442">
        <ele>420</ele>
        <time>2010-05-29T11:23:13Z</time>
      </trkpt>
      <trkpt lat="47.60775" lon="6.88448">
        <ele>409</ele>
        <time>2010-05-29T11:23:16Z</time>
      </trkpt>
      <trkpt lat="47.60746" lon="6.88465">
        <ele>452.5</ele>
        <time>2010-05-29T11:23:17Z</time>
      </trkpt>
      <trkpt lat="47.60755" lon="6.88459">
        <ele>450</ele>
        <time>2010-05-29T11:23:19Z</time>
      </trkpt>
      <trkpt lat="47.60762" lon="6.88459">
        <ele>451.5</ele>
        <time>2010-05-29T11:23:22Z</time>
      </trkpt>
      <trkpt lat="47.6077" lon="6.88458">
        <ele>452</ele>
        <time>2010-05-29T11:23:24Z</time>
      </trkpt>
      <trkpt lat="47.60776" lon="6.88456">
        <ele>452</ele>
        <time>2010-05-29T11:23:26Z</time>
      </trkpt>
      <trkpt lat="47.60782" lon="6.88455">
        <ele>454.5</ele>
        <time>2010-05-29T11:23:28Z</time>
      </trkpt>
      <trkpt lat="47.60788" lon="6.88454">
        <ele>455</ele>
        <time>2010-05-29T11:23:30Z</time>
      </trkpt>
      <trkpt lat="47.60793" lon="6.88451">
        <ele>455.5</ele>
        <time>2010-05-29T11:23:32Z</time>
      </trkpt>
      <trkpt lat="47.608" lon="6.88447">
        <ele>456.5</ele>
        <time>2010-05-29T11:23:34Z</time>
      </trkpt>
      <trkpt lat="47.60805" lon="6.88444">
        <ele>457</ele>
        <time>2010-05-29T11:23:36Z</time>
      </trkpt>
      <trkpt lat="47.60811" lon="6.8844">
        <ele>457.5</ele>
        <time>2010-05-29T11:23:39Z</time>
      </trkpt>
      <trkpt lat="47.60816" lon="6.88437">
        <ele>458.5</ele>
        <time>2010-05-29T11:23:41Z</time>
      </trkpt>
      <trkpt lat="47.60821" lon="6.88436">
        <ele>462</ele>
        <time>2010-05-29T11:23:43Z</time>
      </trkpt>
      <trkpt lat="47.60826" lon="6.88434">
        <ele>464</ele>
        <time>2010-05-29T11:23:45Z</time>
      </trkpt>
      <trkpt lat="47.60832" lon="6.88432">
        <ele>465.5</ele>
        <time>2010-05-29T11:23:47Z</time>
      </trkpt>
      <trkpt lat="47.60836" lon="6.88429">
        <ele>466</ele>
        <time>2010-05-29T11:23:49Z</time>
      </trkpt>
      <trkpt lat="47.60842" lon="6.88426">
        <ele>467.5</ele>
        <time>2010-05-29T11:23:51Z</time>
      </trkpt>
      <trkpt lat="47.60849" lon="6.88423">
        <ele>468.5</ele>
        <time>2010-05-29T11:23:53Z</time>
      </trkpt>
      <trkpt lat="47.60854" lon="6.8842">
        <ele>468</ele>
        <time>2010-05-29T11:23:55Z</time>
      </trkpt>
      <trkpt lat="47.60859" lon="6.88418">
        <ele>467.5</ele>
        <time>2010-05-29T11:23:57Z</time>
      </trkpt>
      <trkpt lat="47.60865" lon="6.88414">
        <ele>466.5</ele>
        <time>2010-05-29T11:23:59Z</time>
      </trkpt>
      <trkpt lat="47.60871" lon="6.88412">
        <ele>465.5</ele>
        <time>2010-05-29T11:24:02Z</time>
      </trkpt>
      <trkpt lat="47.60877" lon="6.8841">
        <ele>464</ele>
        <time>2010-05-29T11:24:04Z</time>
      </trkpt>
      <trkpt lat="47.6089" lon="6.88402">
        <ele>464.5</ele>
        <time>2010-05-29T11:24:09Z</time>
      </trkpt>
      <trkpt lat="47.60921" lon="6.88384">
        <ele>440.5</ele>
        <time>2010-05-29T11:24:16Z</time>
      </trkpt>
      <trkpt lat="47.60934" lon="6.88386">
        <ele>427</ele>
        <time>2010-05-29T11:24:17Z</time>
      </trkpt>
      <trkpt lat="47.60936" lon="6.88377">
        <ele>445</ele>
        <time>2010-05-29T11:24:19Z</time>
      </trkpt>
      <trkpt lat="47.60947" lon="6.88366">
        <ele>462</ele>
        <time>2010-05-29T11:24:20Z</time>
      </trkpt>
      <trkpt lat="47.60958" lon="6.88361">
        <ele>476.5</ele>
        <time>2010-05-29T11:24:21Z</time>
      </trkpt>
      <trkpt lat="47.60954" lon="6.88364">
        <ele>449</ele>
        <time>2010-05-29T11:24:22Z</time>
      </trkpt>
      <trkpt lat="47.60916" lon="6.88393">
        <ele>460.5</ele>
        <time>2010-05-29T11:24:23Z</time>
      </trkpt>
      <trkpt lat="47.60921" lon="6.88394">
        <ele>460</ele>
        <time>2010-05-29T11:24:25Z</time>
      </trkpt>
      <trkpt lat="47.60926" lon="6.88398">
        <ele>461.5</ele>
        <time>2010-05-29T11:24:29Z</time>
      </trkpt>
      <trkpt lat="47.60928" lon="6.88407">
        <ele>463</ele>
        <time>2010-05-29T11:24:33Z</time>
      </trkpt>
      <trkpt lat="47.6093" lon="6.88416">
        <ele>463.5</ele>
        <time>2010-05-29T11:24:36Z</time>
      </trkpt>
      <trkpt lat="47.60931" lon="6.88424">
        <ele>463.5</ele>
        <time>2010-05-29T11:24:38Z</time>
      </trkpt>
      <trkpt lat="47.60933" lon="6.88434">
        <ele>464.5</ele>
        <time>2010-05-29T11:24:40Z</time>
      </trkpt>
      <trkpt lat="47.60934" lon="6.88441">
        <ele>465</ele>
        <time>2010-05-29T11:24:41Z</time>
      </trkpt>
      <trkpt lat="47.60935" lon="6.88448">
        <ele>465.5</ele>
        <time>2010-05-29T11:24:42Z</time>
      </trkpt>
      <trkpt lat="47.60935" lon="6.88457">
        <ele>465</ele>
        <time>2010-05-29T11:24:44Z</time>
      </trkpt>
      <trkpt lat="47.60936" lon="6.88464">
        <ele>466</ele>
        <time>2010-05-29T11:24:46Z</time>
      </trkpt>
      <trkpt lat="47.60935" lon="6.88472">
        <ele>466.5</ele>
        <time>2010-05-29T11:24:48Z</time>
      </trkpt>
      <trkpt lat="47.60937" lon="6.88481">
        <ele>467.5</ele>
        <time>2010-05-29T11:24:50Z</time>
      </trkpt>
      <trkpt lat="47.60936" lon="6.88489">
        <ele>467</ele>
        <time>2010-05-29T11:24:52Z</time>
      </trkpt>
      <trkpt lat="47.60937" lon="6.88499">
        <ele>467</ele>
        <time>2010-05-29T11:24:55Z</time>
      </trkpt>
      <trkpt lat="47.60936" lon="6.88508">
        <ele>467.5</ele>
        <time>2010-05-29T11:24:58Z</time>
      </trkpt>
      <trkpt lat="47.60936" lon="6.88517">
        <ele>468.5</ele>
        <time>2010-05-29T11:25:00Z</time>
      </trkpt>
      <trkpt lat="47.60936" lon="6.88525">
        <ele>468</ele>
        <time>2010-05-29T11:25:02Z</time>
      </trkpt>
      <trkpt lat="47.60937" lon="6.88534">
        <ele>469.5</ele>
        <time>2010-05-29T11:25:04Z</time>
      </trkpt>
      <trkpt lat="47.60938" lon="6.88546">
        <ele>470</ele>
        <time>2010-05-29T11:25:06Z</time>
      </trkpt>
      <trkpt lat="47.60936" lon="6.88566">
        <ele>471.5</ele>
        <time>2010-05-29T11:25:09Z</time>
      </trkpt>
      <trkpt lat="47.6096" lon="6.88625">
        <ele>454</ele>
        <time>2010-05-29T11:25:15Z</time>
      </trkpt>
      <trkpt lat="47.60968" lon="6.88662">
        <ele>438.5</ele>
        <time>2010-05-29T11:25:17Z</time>
      </trkpt>
      <trkpt lat="47.60961" lon="6.88679">
        <ele>445.5</ele>
        <time>2010-05-29T11:25:18Z</time>
      </trkpt>
      <trkpt lat="47.60959" lon="6.88667">
        <ele>454</ele>
        <time>2010-05-29T11:25:19Z</time>
      </trkpt>
      <trkpt lat="47.60957" lon="6.8868">
        <ele>461</ele>
        <time>2010-05-29T11:25:20Z</time>
      </trkpt>
      <trkpt lat="47.60961" lon="6.8869">
        <ele>461.5</ele>
        <time>2010-05-29T11:25:21Z</time>
      </trkpt>
      <trkpt lat="47.60954" lon="6.88702">
        <ele>461</ele>
        <time>2010-05-29T11:25:22Z</time>
      </trkpt>
      <trkpt lat="47.60951" lon="6.88711">
        <ele>463</ele>
        <time>2010-05-29T11:25:23Z</time>
      </trkpt>
      <trkpt lat="47.60952" lon="6.88724">
        <ele>465</ele>
        <time>2010-05-29T11:25:24Z</time>
      </trkpt>
      <trkpt lat="47.60957" lon="6.88721">
        <ele>468.5</ele>
        <time>2010-05-29T11:25:26Z</time>
      </trkpt>
      <trkpt lat="47.60954" lon="6.88732">
        <ele>474.5</ele>
        <time>2010-05-29T11:25:27Z</time>
      </trkpt>
      <trkpt lat="47.60962" lon="6.88745">
        <ele>478</ele>
        <time>2010-05-29T11:25:29Z</time>
      </trkpt>
      <trkpt lat="47.60967" lon="6.88744">
        <ele>467.5</ele>
        <time>2010-05-29T11:25:30Z</time>
      </trkpt>
      <trkpt lat="47.6096" lon="6.88741">
        <ele>465</ele>
        <time>2010-05-29T11:25:31Z</time>
      </trkpt>
      <trkpt lat="47.60968" lon="6.88748">
        <ele>453</ele>
        <time>2010-05-29T11:25:32Z</time>
      </trkpt>
      <trkpt lat="47.60976" lon="6.88758">
        <ele>454.5</ele>
        <time>2010-05-29T11:25:33Z</time>
      </trkpt>
      <trkpt lat="47.60979" lon="6.88764">
        <ele>461</ele>
        <time>2010-05-29T11:25:34Z</time>
      </trkpt>
      <trkpt lat="47.60973" lon="6.88734">
        <ele>469</ele>
        <time>2010-05-29T11:25:35Z</time>
      </trkpt>
      <trkpt lat="47.60978" lon="6.8874">
        <ele>470</ele>
        <time>2010-05-29T11:25:36Z</time>
      </trkpt>
      <trkpt lat="47.60989" lon="6.88745">
        <ele>470</ele>
        <time>2010-05-29T11:25:37Z</time>
      </trkpt>
      <trkpt lat="47.60992" lon="6.8875">
        <ele>472.5</ele>
        <time>2010-05-29T11:25:39Z</time>
      </trkpt>
      <trkpt lat="47.60997" lon="6.88754">
        <ele>472.5</ele>
        <time>2010-05-29T11:25:40Z</time>
      </trkpt>
      <trkpt lat="47.61004" lon="6.88759">
        <ele>472.5</ele>
        <time>2010-05-29T11:25:42Z</time>
      </trkpt>
      <trkpt lat="47.61009" lon="6.88762">
        <ele>472.5</ele>
        <time>2010-05-29T11:25:44Z</time>
      </trkpt>
      <trkpt lat="47.61013" lon="6.88765">
        <ele>471</ele>
        <time>2010-05-29T11:25:45Z</time>
      </trkpt>
      <trkpt lat="47.61021" lon="6.88769">
        <ele>467.5</ele>
        <time>2010-05-29T11:25:47Z</time>
      </trkpt>
      <trkpt lat="47.61028" lon="6.88775">
        <ele>465</ele>
        <time>2010-05-29T11:25:49Z</time>
      </trkpt>
      <trkpt lat="47.61037" lon="6.88778">
        <ele>464.5</ele>
        <time>2010-05-29T11:25:51Z</time>
      </trkpt>
      <trkpt lat="47.61046" lon="6.8878">
        <ele>465</ele>
        <time>2010-05-29T11:25:53Z</time>
      </trkpt>
      <trkpt lat="47.6105" lon="6.88781">
        <ele>465</ele>
        <time>2010-05-29T11:25:54Z</time>
      </trkpt>
      <trkpt lat="47.61058" lon="6.88783">
        <ele>466</ele>
        <time>2010-05-29T11:25:56Z</time>
      </trkpt>
      <trkpt lat="47.61062" lon="6.88784">
        <ele>466.5</ele>
        <time>2010-05-29T11:25:57Z</time>
      </trkpt>
      <trkpt lat="47.6107" lon="6.88785">
        <ele>467</ele>
        <time>2010-05-29T11:25:59Z</time>
      </trkpt>
      <trkpt lat="47.61078" lon="6.88785">
        <ele>466</ele>
        <time>2010-05-29T11:26:01Z</time>
      </trkpt>
      <trkpt lat="47.61086" lon="6.88788">
        <ele>464.5</ele>
        <time>2010-05-29T11:26:03Z</time>
      </trkpt>
      <trkpt lat="47.61093" lon="6.88786">
        <ele>466.5</ele>
        <time>2010-05-29T11:26:05Z</time>
      </trkpt>
      <trkpt lat="47.61098" lon="6.88785">
        <ele>467</ele>
        <time>2010-05-29T11:26:06Z</time>
      </trkpt>
      <trkpt lat="47.61119" lon="6.88778">
        <ele>468.5</ele>
        <time>2010-05-29T11:26:09Z</time>
      </trkpt>
      <trkpt lat="47.61146" lon="6.88784">
        <ele>467</ele>
        <time>2010-05-29T11:26:15Z</time>
      </trkpt>
      <trkpt lat="47.61154" lon="6.88769">
        <ele>474.5</ele>
        <time>2010-05-29T11:26:16Z</time>
      </trkpt>
      <trkpt lat="47.61166" lon="6.88745">
        <ele>468</ele>
        <time>2010-05-29T11:26:17Z</time>
      </trkpt>
      <trkpt lat="47.61171" lon="6.88736">
        <ele>465.5</ele>
        <time>2010-05-29T11:26:19Z</time>
      </trkpt>
      <trkpt lat="47.61179" lon="6.88733">
        <ele>463.5</ele>
        <time>2010-05-29T11:26:21Z</time>
      </trkpt>
      <trkpt lat="47.61184" lon="6.88731">
        <ele>479.5</ele>
        <time>2010-05-29T11:26:22Z</time>
      </trkpt>
      <trkpt lat="47.6118" lon="6.88713">
        <ele>463.5</ele>
        <time>2010-05-29T11:26:23Z</time>
      </trkpt>
      <trkpt lat="47.61185" lon="6.88707">
        <ele>461.5</ele>
        <time>2010-05-29T11:26:24Z</time>
      </trkpt>
      <trkpt lat="47.61192" lon="6.88699">
        <ele>462</ele>
        <time>2010-05-29T11:26:25Z</time>
      </trkpt>
      <trkpt lat="47.61197" lon="6.88695">
        <ele>462.5</ele>
        <time>2010-05-29T11:26:27Z</time>
      </trkpt>
      <trkpt lat="47.61201" lon="6.8869">
        <ele>462</ele>
        <time>2010-05-29T11:26:28Z</time>
      </trkpt>
      <trkpt lat="47.61204" lon="6.88685">
        <ele>462</ele>
        <time>2010-05-29T11:26:29Z</time>
      </trkpt>
      <trkpt lat="47.61212" lon="6.88681">
        <ele>462</ele>
        <time>2010-05-29T11:26:31Z</time>
      </trkpt>
      <trkpt lat="47.61219" lon="6.88677">
        <ele>463</ele>
        <time>2010-05-29T11:26:33Z</time>
      </trkpt>
      <trkpt lat="47.61225" lon="6.8868">
        <ele>463.5</ele>
        <time>2010-05-29T11:26:35Z</time>
      </trkpt>
      <trkpt lat="47.61233" lon="6.88681">
        <ele>462.5</ele>
        <time>2010-05-29T11:26:37Z</time>
      </trkpt>
      <trkpt lat="47.61238" lon="6.88682">
        <ele>463</ele>
        <time>2010-05-29T11:26:39Z</time>
      </trkpt>
      <trkpt lat="47.61244" lon="6.88681">
        <ele>461.5</ele>
        <time>2010-05-29T11:26:42Z</time>
      </trkpt>
      <trkpt lat="47.61246" lon="6.8868">
        <ele>461</ele>
        <time>2010-05-29T11:26:44Z</time>
      </trkpt>
      <trkpt lat="47.61244" lon="6.88674">
        <ele>457.5</ele>
        <time>2010-05-29T11:27:07Z</time>
      </trkpt>
      <trkpt lat="47.61234" lon="6.88672">
        <ele>468</ele>
        <time>2010-05-29T11:27:13Z</time>
      </trkpt>
      <trkpt lat="47.61241" lon="6.88682">
        <ele>458</ele>
        <time>2010-05-29T11:27:16Z</time>
      </trkpt>
      <trkpt lat="47.61249" lon="6.88688">
        <ele>461.5</ele>
        <time>2010-05-29T11:27:18Z</time>
      </trkpt>
      <trkpt lat="47.61258" lon="6.88675">
        <ele>437.5</ele>
        <time>2010-05-29T11:27:19Z</time>
      </trkpt>
      <trkpt lat="47.61263" lon="6.8869">
        <ele>446</ele>
        <time>2010-05-29T11:27:20Z</time>
      </trkpt>
      <trkpt lat="47.61258" lon="6.88703">
        <ele>450.5</ele>
        <time>2010-05-29T11:27:21Z</time>
      </trkpt>
      <trkpt lat="47.6126" lon="6.88693">
        <ele>454.5</ele>
        <time>2010-05-29T11:27:22Z</time>
      </trkpt>
      <trkpt lat="47.61258" lon="6.88711">
        <ele>457.5</ele>
        <time>2010-05-29T11:27:23Z</time>
      </trkpt>
      <trkpt lat="47.61256" lon="6.88723">
        <ele>478</ele>
        <time>2010-05-29T11:27:24Z</time>
      </trkpt>
      <trkpt lat="47.61255" lon="6.88734">
        <ele>467</ele>
        <time>2010-05-29T11:27:25Z</time>
      </trkpt>
      <trkpt lat="47.61258" lon="6.8874">
        <ele>459.5</ele>
        <time>2010-05-29T11:27:26Z</time>
      </trkpt>
      <trkpt lat="47.61262" lon="6.88738">
        <ele>463.5</ele>
        <time>2010-05-29T11:27:28Z</time>
      </trkpt>
      <trkpt lat="47.6126" lon="6.88733">
        <ele>460.5</ele>
        <time>2010-05-29T11:27:29Z</time>
      </trkpt>
      <trkpt lat="47.61263" lon="6.88737">
        <ele>461</ele>
        <time>2010-05-29T11:27:31Z</time>
      </trkpt>
      <trkpt lat="47.61267" lon="6.88744">
        <ele>463</ele>
        <time>2010-05-29T11:27:33Z</time>
      </trkpt>
      <trkpt lat="47.61263" lon="6.88746">
        <ele>461.5</ele>
        <time>2010-05-29T11:27:43Z</time>
      </trkpt>
      <trkpt lat="47.61257" lon="6.88743">
        <ele>462</ele>
        <time>2010-05-29T11:27:47Z</time>
      </trkpt>
      <trkpt lat="47.61248" lon="6.88735">
        <ele>462.5</ele>
        <time>2010-05-29T11:27:51Z</time>
      </trkpt>
      <trkpt lat="47.61246" lon="6.88728">
        <ele>464</ele>
        <time>2010-05-29T11:27:54Z</time>
      </trkpt>
      <trkpt lat="47.61245" lon="6.88716">
        <ele>464</ele>
        <time>2010-05-29T11:27:56Z</time>
      </trkpt>
      <trkpt lat="47.61244" lon="6.88708">
        <ele>463.5</ele>
        <time>2010-05-29T11:27:58Z</time>
      </trkpt>
      <trkpt lat="47.61242" lon="6.88699">
        <ele>466</ele>
        <time>2010-05-29T11:28:01Z</time>
      </trkpt>
      <trkpt lat="47.61247" lon="6.88694">
        <ele>464.5</ele>
        <time>2010-05-29T11:28:04Z</time>
      </trkpt>
      <trkpt lat="47.61252" lon="6.88692">
        <ele>465</ele>
        <time>2010-05-29T11:28:07Z</time>
      </trkpt>
      <trkpt lat="47.61289" lon="6.88671">
        <ele>462.5</ele>
        <time>2010-05-29T11:28:22Z</time>
      </trkpt>
      <trkpt lat="47.61294" lon="6.88675">
        <ele>470</ele>
        <time>2010-05-29T11:28:25Z</time>
      </trkpt>
      <trkpt lat="47.61293" lon="6.88685">
        <ele>446</ele>
        <time>2010-05-29T11:28:26Z</time>
      </trkpt>
      <trkpt lat="47.61287" lon="6.88685">
        <ele>443</ele>
        <time>2010-05-29T11:28:27Z</time>
      </trkpt>
      <trkpt lat="47.61295" lon="6.88672">
        <ele>459.5</ele>
        <time>2010-05-29T11:28:28Z</time>
      </trkpt>
      <trkpt lat="47.61284" lon="6.88694">
        <ele>464.5</ele>
        <time>2010-05-29T11:28:29Z</time>
      </trkpt>
      <trkpt lat="47.61289" lon="6.88698">
        <ele>459</ele>
        <time>2010-05-29T11:28:39Z</time>
      </trkpt>
      <trkpt lat="47.61293" lon="6.88702">
        <ele>460</ele>
        <time>2010-05-29T11:28:42Z</time>
      </trkpt>
      <trkpt lat="47.61297" lon="6.88705">
        <ele>460.5</ele>
        <time>2010-05-29T11:28:44Z</time>
      </trkpt>
      <trkpt lat="47.61302" lon="6.8871">
        <ele>461</ele>
        <time>2010-05-29T11:28:46Z</time>
      </trkpt>
      <trkpt lat="47.61306" lon="6.88713">
        <ele>461.5</ele>
        <time>2010-05-29T11:28:48Z</time>
      </trkpt>
      <trkpt lat="47.61309" lon="6.88717">
        <ele>462</ele>
        <time>2010-05-29T11:28:50Z</time>
      </trkpt>
      <trkpt lat="47.61313" lon="6.88721">
        <ele>463</ele>
        <time>2010-05-29T11:28:52Z</time>
      </trkpt>
      <trkpt lat="47.61319" lon="6.88724">
        <ele>464.5</ele>
        <time>2010-05-29T11:28:55Z</time>
      </trkpt>
      <trkpt lat="47.61324" lon="6.88726">
        <ele>464.5</ele>
        <time>2010-05-29T11:28:57Z</time>
      </trkpt>
      <trkpt lat="47.61329" lon="6.88728">
        <ele>466</ele>
        <time>2010-05-29T11:28:59Z</time>
      </trkpt>
      <trkpt lat="47.61334" lon="6.88729">
        <ele>467</ele>
        <time>2010-05-29T11:29:01Z</time>
      </trkpt>
      <trkpt lat="47.61339" lon="6.88729">
        <ele>467.5</ele>
        <time>2010-05-29T11:29:03Z</time>
      </trkpt>
      <trkpt lat="47.61344" lon="6.8873">
        <ele>470</ele>
        <time>2010-05-29T11:29:05Z</time>
      </trkpt>
      <trkpt lat="47.61349" lon="6.88732">
        <ele>469.5</ele>
        <time>2010-05-29T11:29:07Z</time>
      </trkpt>
      <trkpt lat="47.61358" lon="6.88733">
        <ele>470</ele>
        <time>2010-05-29T11:29:09Z</time>
      </trkpt>
      <trkpt lat="47.61372" lon="6.88745">
        <ele>473.5</ele>
        <time>2010-05-29T11:29:16Z</time>
      </trkpt>
      <trkpt lat="47.61371" lon="6.88736">
        <ele>469.5</ele>
        <time>2010-05-29T11:29:17Z</time>
      </trkpt>
      <trkpt lat="47.61375" lon="6.8874">
        <ele>469</ele>
        <time>2010-05-29T11:29:18Z</time>
      </trkpt>
      <trkpt lat="47.61381" lon="6.88745">
        <ele>468.5</ele>
        <time>2010-05-29T11:29:19Z</time>
      </trkpt>
      <trkpt lat="47.61385" lon="6.8875">
        <ele>469.5</ele>
        <time>2010-05-29T11:29:22Z</time>
      </trkpt>
      <trkpt lat="47.6139" lon="6.88754">
        <ele>469.5</ele>
        <time>2010-05-29T11:29:24Z</time>
      </trkpt>
      <trkpt lat="47.61394" lon="6.8876">
        <ele>470.5</ele>
        <time>2010-05-29T11:29:26Z</time>
      </trkpt>
      <trkpt lat="47.614" lon="6.88765">
        <ele>471</ele>
        <time>2010-05-29T11:29:28Z</time>
      </trkpt>
      <trkpt lat="47.61405" lon="6.88772">
        <ele>473</ele>
        <time>2010-05-29T11:29:30Z</time>
      </trkpt>
      <trkpt lat="47.61409" lon="6.88774">
        <ele>473.5</ele>
        <time>2010-05-29T11:29:32Z</time>
      </trkpt>
      <trkpt lat="47.61414" lon="6.88772">
        <ele>473.5</ele>
        <time>2010-05-29T11:29:34Z</time>
      </trkpt>
      <trkpt lat="47.61418" lon="6.88768">
        <ele>473</ele>
        <time>2010-05-29T11:29:37Z</time>
      </trkpt>
      <trkpt lat="47.61423" lon="6.88764">
        <ele>471</ele>
        <time>2010-05-29T11:29:40Z</time>
      </trkpt>
      <trkpt lat="47.61428" lon="6.88757">
        <ele>470</ele>
        <time>2010-05-29T11:29:43Z</time>
      </trkpt>
      <trkpt lat="47.61432" lon="6.88751">
        <ele>470</ele>
        <time>2010-05-29T11:29:46Z</time>
      </trkpt>
      <trkpt lat="47.61436" lon="6.88744">
        <ele>470</ele>
        <time>2010-05-29T11:29:49Z</time>
      </trkpt>
      <trkpt lat="47.6144" lon="6.8874">
        <ele>470</ele>
        <time>2010-05-29T11:29:51Z</time>
      </trkpt>
      <trkpt lat="47.61443" lon="6.88734">
        <ele>471</ele>
        <time>2010-05-29T11:29:54Z</time>
      </trkpt>
      <trkpt lat="47.61444" lon="6.88727">
        <ele>469.5</ele>
        <time>2010-05-29T11:29:57Z</time>
      </trkpt>
      <trkpt lat="47.61448" lon="6.88722">
        <ele>468</ele>
        <time>2010-05-29T11:30:00Z</time>
      </trkpt>
      <trkpt lat="47.61452" lon="6.88717">
        <ele>470</ele>
        <time>2010-05-29T11:30:02Z</time>
      </trkpt>
      <trkpt lat="47.61455" lon="6.88708">
        <ele>471</ele>
        <time>2010-05-29T11:30:04Z</time>
      </trkpt>
      <trkpt lat="47.61456" lon="6.88701">
        <ele>471.5</ele>
        <time>2010-05-29T11:30:06Z</time>
      </trkpt>
      <trkpt lat="47.61458" lon="6.88694">
        <ele>472</ele>
        <time>2010-05-29T11:30:07Z</time>
      </trkpt>
      <trkpt lat="47.6146" lon="6.88684">
        <ele>473</ele>
        <time>2010-05-29T11:30:13Z</time>
      </trkpt>
      <trkpt lat="47.61462" lon="6.88678">
        <ele>474</ele>
        <time>2010-05-29T11:30:15Z</time>
      </trkpt>
      <trkpt lat="47.61464" lon="6.88668">
        <ele>474</ele>
        <time>2010-05-29T11:30:17Z</time>
      </trkpt>
      <trkpt lat="47.61466" lon="6.8866">
        <ele>474</ele>
        <time>2010-05-29T11:30:19Z</time>
      </trkpt>
      <trkpt lat="47.61468" lon="6.88653">
        <ele>474.5</ele>
        <time>2010-05-29T11:30:21Z</time>
      </trkpt>
      <trkpt lat="47.61471" lon="6.88645">
        <ele>475.5</ele>
        <time>2010-05-29T11:30:23Z</time>
      </trkpt>
      <trkpt lat="47.61471" lon="6.88638">
        <ele>477</ele>
        <time>2010-05-29T11:30:25Z</time>
      </trkpt>
      <trkpt lat="47.61468" lon="6.88629">
        <ele>477.5</ele>
        <time>2010-05-29T11:30:28Z</time>
      </trkpt>
      <trkpt lat="47.61464" lon="6.88622">
        <ele>480</ele>
        <time>2010-05-29T11:30:31Z</time>
      </trkpt>
      <trkpt lat="47.61461" lon="6.88614">
        <ele>481</ele>
        <time>2010-05-29T11:30:34Z</time>
      </trkpt>
      <trkpt lat="47.61457" lon="6.88608">
        <ele>482</ele>
        <time>2010-05-29T11:30:37Z</time>
      </trkpt>
      <trkpt lat="47.61454" lon="6.88603">
        <ele>482.5</ele>
        <time>2010-05-29T11:30:39Z</time>
      </trkpt>
      <trkpt lat="47.61451" lon="6.88597">
        <ele>482.5</ele>
        <time>2010-05-29T11:30:41Z</time>
      </trkpt>
      <trkpt lat="47.61448" lon="6.88592">
        <ele>483</ele>
        <time>2010-05-29T11:30:43Z</time>
      </trkpt>
      <trkpt lat="47.61445" lon="6.88586">
        <ele>482.5</ele>
        <time>2010-05-29T11:30:45Z</time>
      </trkpt>
      <trkpt lat="47.61443" lon="6.8858">
        <ele>482</ele>
        <time>2010-05-29T11:30:47Z</time>
      </trkpt>
      <trkpt lat="47.61441" lon="6.88572">
        <ele>483</ele>
        <time>2010-05-29T11:30:49Z</time>
      </trkpt>
      <trkpt lat="47.61441" lon="6.88563">
        <ele>483.5</ele>
        <time>2010-05-29T11:30:52Z</time>
      </trkpt>
      <trkpt lat="47.61441" lon="6.88554">
        <ele>484</ele>
        <time>2010-05-29T11:30:54Z</time>
      </trkpt>
      <trkpt lat="47.61441" lon="6.88545">
        <ele>485</ele>
        <time>2010-05-29T11:30:56Z</time>
      </trkpt>
      <trkpt lat="47.6144" lon="6.88538">
        <ele>485</ele>
        <time>2010-05-29T11:30:58Z</time>
      </trkpt>
      <trkpt lat="47.61439" lon="6.88529">
        <ele>485</ele>
        <time>2010-05-29T11:31:01Z</time>
      </trkpt>
      <trkpt lat="47.61439" lon="6.88519">
        <ele>484.5</ele>
        <time>2010-05-29T11:31:04Z</time>
      </trkpt>
      <trkpt lat="47.61438" lon="6.88511">
        <ele>485</ele>
        <time>2010-05-29T11:31:07Z</time>
      </trkpt>
      <trkpt lat="47.61437" lon="6.88495">
        <ele>485</ele>
        <time>2010-05-29T11:31:14Z</time>
      </trkpt>
      <trkpt lat="47.61437" lon="6.88483">
        <ele>485</ele>
        <time>2010-05-29T11:31:16Z</time>
      </trkpt>
      <trkpt lat="47.61436" lon="6.88474">
        <ele>485</ele>
        <time>2010-05-29T11:31:18Z</time>
      </trkpt>
      <trkpt lat="47.61435" lon="6.88464">
        <ele>485.5</ele>
        <time>2010-05-29T11:31:20Z</time>
      </trkpt>
      <trkpt lat="47.61436" lon="6.88452">
        <ele>486</ele>
        <time>2010-05-29T11:31:22Z</time>
      </trkpt>
      <trkpt lat="47.61438" lon="6.88444">
        <ele>485.5</ele>
        <time>2010-05-29T11:31:23Z</time>
      </trkpt>
      <trkpt lat="47.6144" lon="6.88436">
        <ele>485.5</ele>
        <time>2010-05-29T11:31:24Z</time>
      </trkpt>
      <trkpt lat="47.61441" lon="6.88428">
        <ele>486</ele>
        <time>2010-05-29T11:31:25Z</time>
      </trkpt>
      <trkpt lat="47.61443" lon="6.8842">
        <ele>485</ele>
        <time>2010-05-29T11:31:26Z</time>
      </trkpt>
      <trkpt lat="47.61445" lon="6.88411">
        <ele>484.5</ele>
        <time>2010-05-29T11:31:27Z</time>
      </trkpt>
      <trkpt lat="47.61447" lon="6.88404">
        <ele>484.5</ele>
        <time>2010-05-29T11:31:28Z</time>
      </trkpt>
      <trkpt lat="47.6145" lon="6.88397">
        <ele>484.5</ele>
        <time>2010-05-29T11:31:29Z</time>
      </trkpt>
      <trkpt lat="47.61453" lon="6.8839">
        <ele>484.5</ele>
        <time>2010-05-29T11:31:30Z</time>
      </trkpt>
      <trkpt lat="47.61456" lon="6.88384">
        <ele>485</ele>
        <time>2010-05-29T11:31:31Z</time>
      </trkpt>
      <trkpt lat="47.61459" lon="6.88376">
        <ele>484.5</ele>
        <time>2010-05-29T11:31:32Z</time>
      </trkpt>
      <trkpt lat="47.61462" lon="6.8837">
        <ele>484.5</ele>
        <time>2010-05-29T11:31:33Z</time>
      </trkpt>
      <trkpt lat="47.61465" lon="6.88362">
        <ele>485</ele>
        <time>2010-05-29T11:31:34Z</time>
      </trkpt>
      <trkpt lat="47.61469" lon="6.88355">
        <ele>484.5</ele>
        <time>2010-05-29T11:31:35Z</time>
      </trkpt>
      <trkpt lat="47.61472" lon="6.88349">
        <ele>484.5</ele>
        <time>2010-05-29T11:31:36Z</time>
      </trkpt>
      <trkpt lat="47.61475" lon="6.88343">
        <ele>484.5</ele>
        <time>2010-05-29T11:31:37Z</time>
      </trkpt>
      <trkpt lat="47.61479" lon="6.88335">
        <ele>484</ele>
        <time>2010-05-29T11:31:38Z</time>
      </trkpt>
      <trkpt lat="47.61483" lon="6.88329">
        <ele>483.5</ele>
        <time>2010-05-29T11:31:39Z</time>
      </trkpt>
      <trkpt lat="47.61487" lon="6.88323">
        <ele>483</ele>
        <time>2010-05-29T11:31:40Z</time>
      </trkpt>
      <trkpt lat="47.6149" lon="6.88316">
        <ele>483</ele>
        <time>2010-05-29T11:31:41Z</time>
      </trkpt>
      <trkpt lat="47.61494" lon="6.88308">
        <ele>482.5</ele>
        <time>2010-05-29T11:31:42Z</time>
      </trkpt>
      <trkpt lat="47.61497" lon="6.883">
        <ele>482.5</ele>
        <time>2010-05-29T11:31:43Z</time>
      </trkpt>
      <trkpt lat="47.61501" lon="6.88292">
        <ele>482.5</ele>
        <time>2010-05-29T11:31:44Z</time>
      </trkpt>
      <trkpt lat="47.61504" lon="6.88285">
        <ele>482.5</ele>
        <time>2010-05-29T11:31:45Z</time>
      </trkpt>
      <trkpt lat="47.61507" lon="6.88278">
        <ele>482</ele>
        <time>2010-05-29T11:31:46Z</time>
      </trkpt>
      <trkpt lat="47.6151" lon="6.8827">
        <ele>482</ele>
        <time>2010-05-29T11:31:47Z</time>
      </trkpt>
      <trkpt lat="47.61513" lon="6.88262">
        <ele>482</ele>
        <time>2010-05-29T11:31:48Z</time>
      </trkpt>
      <trkpt lat="47.61516" lon="6.88254">
        <ele>481.5</ele>
        <time>2010-05-29T11:31:49Z</time>
      </trkpt>
      <trkpt lat="47.61518" lon="6.88247">
        <ele>481</ele>
        <time>2010-05-29T11:31:50Z</time>
      </trkpt>
      <trkpt lat="47.6152" lon="6.8824">
        <ele>481</ele>
        <time>2010-05-29T11:31:51Z</time>
      </trkpt>
      <trkpt lat="47.61522" lon="6.88233">
        <ele>480.5</ele>
        <time>2010-05-29T11:31:52Z</time>
      </trkpt>
      <trkpt lat="47.61526" lon="6.88221">
        <ele>481</ele>
        <time>2010-05-29T11:31:54Z</time>
      </trkpt>
      <trkpt lat="47.61528" lon="6.88215">
        <ele>481</ele>
        <time>2010-05-29T11:31:55Z</time>
      </trkpt>
      <trkpt lat="47.61531" lon="6.88207">
        <ele>480.5</ele>
        <time>2010-05-29T11:31:56Z</time>
      </trkpt>
      <trkpt lat="47.61534" lon="6.882">
        <ele>480.5</ele>
        <time>2010-05-29T11:31:57Z</time>
      </trkpt>
      <trkpt lat="47.61536" lon="6.88194">
        <ele>480.5</ele>
        <time>2010-05-29T11:31:58Z</time>
      </trkpt>
      <trkpt lat="47.6154" lon="6.88183">
        <ele>480.5</ele>
        <time>2010-05-29T11:32:00Z</time>
      </trkpt>
      <trkpt lat="47.61544" lon="6.88175">
        <ele>480.5</ele>
        <time>2010-05-29T11:32:02Z</time>
      </trkpt>
      <trkpt lat="47.61547" lon="6.8817">
        <ele>481</ele>
        <time>2010-05-29T11:32:04Z</time>
      </trkpt>
      <trkpt lat="47.61552" lon="6.88165">
        <ele>481</ele>
        <time>2010-05-29T11:32:06Z</time>
      </trkpt>
      <trkpt lat="47.61559" lon="6.88161">
        <ele>482</ele>
        <time>2010-05-29T11:32:07Z</time>
      </trkpt>
      <trkpt lat="47.61564" lon="6.88156">
        <ele>482</ele>
        <time>2010-05-29T11:32:10Z</time>
      </trkpt>
      <trkpt lat="47.61569" lon="6.8815">
        <ele>481.5</ele>
        <time>2010-05-29T11:32:12Z</time>
      </trkpt>
      <trkpt lat="47.61575" lon="6.88143">
        <ele>482</ele>
        <time>2010-05-29T11:32:14Z</time>
      </trkpt>
      <trkpt lat="47.61581" lon="6.88136">
        <ele>483.5</ele>
        <time>2010-05-29T11:32:16Z</time>
      </trkpt>
      <trkpt lat="47.61586" lon="6.88127">
        <ele>485.5</ele>
        <time>2010-05-29T11:32:18Z</time>
      </trkpt>
      <trkpt lat="47.61594" lon="6.88119">
        <ele>485</ele>
        <time>2010-05-29T11:32:20Z</time>
      </trkpt>
      <trkpt lat="47.61601" lon="6.88112">
        <ele>484.5</ele>
        <time>2010-05-29T11:32:22Z</time>
      </trkpt>
      <trkpt lat="47.61608" lon="6.88102">
        <ele>485</ele>
        <time>2010-05-29T11:32:24Z</time>
      </trkpt>
      <trkpt lat="47.61612" lon="6.88095">
        <ele>485</ele>
        <time>2010-05-29T11:32:25Z</time>
      </trkpt>
      <trkpt lat="47.61616" lon="6.88088">
        <ele>484</ele>
        <time>2010-05-29T11:32:26Z</time>
      </trkpt>
      <trkpt lat="47.61619" lon="6.8808">
        <ele>484</ele>
        <time>2010-05-29T11:32:27Z</time>
      </trkpt>
      <trkpt lat="47.6162" lon="6.88072">
        <ele>484</ele>
        <time>2010-05-29T11:32:28Z</time>
      </trkpt>
      <trkpt lat="47.61621" lon="6.88065">
        <ele>484</ele>
        <time>2010-05-29T11:32:29Z</time>
      </trkpt>
      <trkpt lat="47.61622" lon="6.88058">
        <ele>484.5</ele>
        <time>2010-05-29T11:32:30Z</time>
      </trkpt>
      <trkpt lat="47.61621" lon="6.88051">
        <ele>485.5</ele>
        <time>2010-05-29T11:32:31Z</time>
      </trkpt>
      <trkpt lat="47.61619" lon="6.8804">
        <ele>485.5</ele>
        <time>2010-05-29T11:32:33Z</time>
      </trkpt>
      <trkpt lat="47.61616" lon="6.88027">
        <ele>486</ele>
        <time>2010-05-29T11:32:35Z</time>
      </trkpt>
      <trkpt lat="47.61618" lon="6.8802">
        <ele>486.5</ele>
        <time>2010-05-29T11:32:36Z</time>
      </trkpt>
      <trkpt lat="47.61621" lon="6.88014">
        <ele>488.5</ele>
        <time>2010-05-29T11:32:37Z</time>
      </trkpt>
      <trkpt lat="47.61625" lon="6.88008">
        <ele>490.5</ele>
        <time>2010-05-29T11:32:38Z</time>
      </trkpt>
      <trkpt lat="47.61635" lon="6.88004">
        <ele>490</ele>
        <time>2010-05-29T11:32:40Z</time>
      </trkpt>
      <trkpt lat="47.6164" lon="6.88005">
        <ele>489.5</ele>
        <time>2010-05-29T11:32:41Z</time>
      </trkpt>
      <trkpt lat="47.61647" lon="6.88006">
        <ele>488.5</ele>
        <time>2010-05-29T11:32:42Z</time>
      </trkpt>
      <trkpt lat="47.61654" lon="6.88011">
        <ele>488</ele>
        <time>2010-05-29T11:32:43Z</time>
      </trkpt>
      <trkpt lat="47.61661" lon="6.88014">
        <ele>487.5</ele>
        <time>2010-05-29T11:32:44Z</time>
      </trkpt>
      <trkpt lat="47.61669" lon="6.88018">
        <ele>486.5</ele>
        <time>2010-05-29T11:32:45Z</time>
      </trkpt>
      <trkpt lat="47.61676" lon="6.88023">
        <ele>485.5</ele>
        <time>2010-05-29T11:32:46Z</time>
      </trkpt>
      <trkpt lat="47.61684" lon="6.88027">
        <ele>485</ele>
        <time>2010-05-29T11:32:47Z</time>
      </trkpt>
      <trkpt lat="47.61692" lon="6.88029">
        <ele>484</ele>
        <time>2010-05-29T11:32:48Z</time>
      </trkpt>
      <trkpt lat="47.61698" lon="6.88031">
        <ele>484.5</ele>
        <time>2010-05-29T11:32:49Z</time>
      </trkpt>
      <trkpt lat="47.61704" lon="6.88031">
        <ele>484.5</ele>
        <time>2010-05-29T11:32:50Z</time>
      </trkpt>
      <trkpt lat="47.61709" lon="6.88027">
        <ele>484</ele>
        <time>2010-05-29T11:32:51Z</time>
      </trkpt>
      <trkpt lat="47.61714" lon="6.88022">
        <ele>483</ele>
        <time>2010-05-29T11:32:52Z</time>
      </trkpt>
      <trkpt lat="47.61715" lon="6.88015">
        <ele>483</ele>
        <time>2010-05-29T11:32:53Z</time>
      </trkpt>
      <trkpt lat="47.61716" lon="6.88">
        <ele>481.5</ele>
        <time>2010-05-29T11:32:55Z</time>
      </trkpt>
      <trkpt lat="47.61716" lon="6.8799">
        <ele>481</ele>
        <time>2010-05-29T11:32:56Z</time>
      </trkpt>
      <trkpt lat="47.61717" lon="6.87979">
        <ele>480.5</ele>
        <time>2010-05-29T11:32:57Z</time>
      </trkpt>
      <trkpt lat="47.61718" lon="6.8797">
        <ele>480</ele>
        <time>2010-05-29T11:32:58Z</time>
      </trkpt>
      <trkpt lat="47.61721" lon="6.87963">
        <ele>480</ele>
        <time>2010-05-29T11:32:59Z</time>
      </trkpt>
      <trkpt lat="47.61724" lon="6.87957">
        <ele>479.5</ele>
        <time>2010-05-29T11:33:00Z</time>
      </trkpt>
      <trkpt lat="47.61729" lon="6.87953">
        <ele>479.5</ele>
        <time>2010-05-29T11:33:01Z</time>
      </trkpt>
      <trkpt lat="47.61734" lon="6.87951">
        <ele>479.5</ele>
        <time>2010-05-29T11:33:02Z</time>
      </trkpt>
      <trkpt lat="47.61738" lon="6.87951">
        <ele>479.5</ele>
        <time>2010-05-29T11:33:03Z</time>
      </trkpt>
      <trkpt lat="47.61744" lon="6.87955">
        <ele>478</ele>
        <time>2010-05-29T11:33:05Z</time>
      </trkpt>
      <trkpt lat="47.61747" lon="6.87965">
        <ele>477</ele>
        <time>2010-05-29T11:33:07Z</time>
      </trkpt>
      <trkpt lat="47.61749" lon="6.87974">
        <ele>477.5</ele>
        <time>2010-05-29T11:33:07Z</time>
      </trkpt>
      <trkpt lat="47.61751" lon="6.87984">
        <ele>477.5</ele>
        <time>2010-05-29T11:33:10Z</time>
      </trkpt>
      <trkpt lat="47.61755" lon="6.87989">
        <ele>477.5</ele>
        <time>2010-05-29T11:33:12Z</time>
      </trkpt>
      <trkpt lat="47.61755" lon="6.87982">
        <ele>474.5</ele>
        <time>2010-05-29T11:33:14Z</time>
      </trkpt>
      <trkpt lat="47.61755" lon="6.87974">
        <ele>473.5</ele>
        <time>2010-05-29T11:33:15Z</time>
      </trkpt>
      <trkpt lat="47.61755" lon="6.87966">
        <ele>473</ele>
        <time>2010-05-29T11:33:16Z</time>
      </trkpt>
      <trkpt lat="47.61756" lon="6.87955">
        <ele>473.5</ele>
        <time>2010-05-29T11:33:17Z</time>
      </trkpt>
      <trkpt lat="47.61756" lon="6.87948">
        <ele>473.5</ele>
        <time>2010-05-29T11:33:18Z</time>
      </trkpt>
      <trkpt lat="47.61757" lon="6.87938">
        <ele>474</ele>
        <time>2010-05-29T11:33:19Z</time>
      </trkpt>
      <trkpt lat="47.61758" lon="6.87927">
        <ele>474.5</ele>
        <time>2010-05-29T11:33:20Z</time>
      </trkpt>
      <trkpt lat="47.61759" lon="6.87915">
        <ele>474.5</ele>
        <time>2010-05-29T11:33:21Z</time>
      </trkpt>
      <trkpt lat="47.6176" lon="6.87902">
        <ele>475</ele>
        <time>2010-05-29T11:33:22Z</time>
      </trkpt>
      <trkpt lat="47.61763" lon="6.87891">
        <ele>475</ele>
        <time>2010-05-29T11:33:23Z</time>
      </trkpt>
      <trkpt lat="47.61766" lon="6.87883">
        <ele>475</ele>
        <time>2010-05-29T11:33:24Z</time>
      </trkpt>
      <trkpt lat="47.61771" lon="6.87877">
        <ele>475</ele>
        <time>2010-05-29T11:33:25Z</time>
      </trkpt>
      <trkpt lat="47.61778" lon="6.87871">
        <ele>475.5</ele>
        <time>2010-05-29T11:33:26Z</time>
      </trkpt>
      <trkpt lat="47.61786" lon="6.87862">
        <ele>474</ele>
        <time>2010-05-29T11:33:27Z</time>
      </trkpt>
      <trkpt lat="47.61794" lon="6.87854">
        <ele>472.5</ele>
        <time>2010-05-29T11:33:28Z</time>
      </trkpt>
      <trkpt lat="47.61803" lon="6.87849">
        <ele>469</ele>
        <time>2010-05-29T11:33:29Z</time>
      </trkpt>
      <trkpt lat="47.6181" lon="6.87846">
        <ele>467.5</ele>
        <time>2010-05-29T11:33:30Z</time>
      </trkpt>
      <trkpt lat="47.61817" lon="6.87845">
        <ele>466</ele>
        <time>2010-05-29T11:33:31Z</time>
      </trkpt>
      <trkpt lat="47.61824" lon="6.87845">
        <ele>464</ele>
        <time>2010-05-29T11:33:32Z</time>
      </trkpt>
      <trkpt lat="47.61831" lon="6.87845">
        <ele>463</ele>
        <time>2010-05-29T11:33:33Z</time>
      </trkpt>
      <trkpt lat="47.61837" lon="6.87846">
        <ele>462</ele>
        <time>2010-05-29T11:33:34Z</time>
      </trkpt>
      <trkpt lat="47.61844" lon="6.87846">
        <ele>461</ele>
        <time>2010-05-29T11:33:35Z</time>
      </trkpt>
      <trkpt lat="47.61851" lon="6.87845">
        <ele>460</ele>
        <time>2010-05-29T11:33:36Z</time>
      </trkpt>
      <trkpt lat="47.61859" lon="6.87844">
        <ele>459.5</ele>
        <time>2010-05-29T11:33:37Z</time>
      </trkpt>
      <trkpt lat="47.61867" lon="6.87842">
        <ele>458.5</ele>
        <time>2010-05-29T11:33:38Z</time>
      </trkpt>
      <trkpt lat="47.61875" lon="6.8784">
        <ele>457</ele>
        <time>2010-05-29T11:33:39Z</time>
      </trkpt>
      <trkpt lat="47.61883" lon="6.87838">
        <ele>455.5</ele>
        <time>2010-05-29T11:33:40Z</time>
      </trkpt>
      <trkpt lat="47.61891" lon="6.87837">
        <ele>454</ele>
        <time>2010-05-29T11:33:41Z</time>
      </trkpt>
      <trkpt lat="47.61899" lon="6.87836">
        <ele>452</ele>
        <time>2010-05-29T11:33:42Z</time>
      </trkpt>
      <trkpt lat="47.61907" lon="6.87835">
        <ele>451</ele>
        <time>2010-05-29T11:33:43Z</time>
      </trkpt>
      <trkpt lat="47.61915" lon="6.87833">
        <ele>449.5</ele>
        <time>2010-05-29T11:33:44Z</time>
      </trkpt>
      <trkpt lat="47.61923" lon="6.87832">
        <ele>448.5</ele>
        <time>2010-05-29T11:33:45Z</time>
      </trkpt>
      <trkpt lat="47.61931" lon="6.87831">
        <ele>447.5</ele>
        <time>2010-05-29T11:33:46Z</time>
      </trkpt>
      <trkpt lat="47.61939" lon="6.8783">
        <ele>446.5</ele>
        <time>2010-05-29T11:33:47Z</time>
      </trkpt>
      <trkpt lat="47.61946" lon="6.87829">
        <ele>445.5</ele>
        <time>2010-05-29T11:33:48Z</time>
      </trkpt>
      <trkpt lat="47.61954" lon="6.87828">
        <ele>445</ele>
        <time>2010-05-29T11:33:49Z</time>
      </trkpt>
      <trkpt lat="47.61961" lon="6.87827">
        <ele>444.5</ele>
        <time>2010-05-29T11:33:50Z</time>
      </trkpt>
      <trkpt lat="47.61968" lon="6.87827">
        <ele>443.5</ele>
        <time>2010-05-29T11:33:51Z</time>
      </trkpt>
      <trkpt lat="47.61975" lon="6.87826">
        <ele>443</ele>
        <time>2010-05-29T11:33:52Z</time>
      </trkpt>
      <trkpt lat="47.61982" lon="6.87825">
        <ele>442</ele>
        <time>2010-05-29T11:33:53Z</time>
      </trkpt>
      <trkpt lat="47.61987" lon="6.87825">
        <ele>442</ele>
        <time>2010-05-29T11:33:54Z</time>
      </trkpt>
      <trkpt lat="47.61993" lon="6.87827">
        <ele>441</ele>
        <time>2010-05-29T11:33:56Z</time>
      </trkpt>
      <trkpt lat="47.61999" lon="6.87823">
        <ele>441.5</ele>
        <time>2010-05-29T11:33:59Z</time>
      </trkpt>
      <trkpt lat="47.62004" lon="6.87821">
        <ele>441.5</ele>
        <time>2010-05-29T11:34:01Z</time>
      </trkpt>
      <trkpt lat="47.6201" lon="6.87817">
        <ele>441</ele>
        <time>2010-05-29T11:34:03Z</time>
      </trkpt>
      <trkpt lat="47.62014" lon="6.87808">
        <ele>440.5</ele>
        <time>2010-05-29T11:34:05Z</time>
      </trkpt>
      <trkpt lat="47.62014" lon="6.87795">
        <ele>440</ele>
        <time>2010-05-29T11:34:07Z</time>
      </trkpt>
      <trkpt lat="47.62014" lon="6.87785">
        <ele>440</ele>
        <time>2010-05-29T11:34:07Z</time>
      </trkpt>
      <trkpt lat="47.62017" lon="6.87776">
        <ele>436.5</ele>
        <time>2010-05-29T11:34:10Z</time>
      </trkpt>
      <trkpt lat="47.62019" lon="6.87765">
        <ele>434</ele>
        <time>2010-05-29T11:34:12Z</time>
      </trkpt>
      <trkpt lat="47.62019" lon="6.87758">
        <ele>432.5</ele>
        <time>2010-05-29T11:34:13Z</time>
      </trkpt>
      <trkpt lat="47.62019" lon="6.87751">
        <ele>432.5</ele>
        <time>2010-05-29T11:34:14Z</time>
      </trkpt>
      <trkpt lat="47.62019" lon="6.87744">
        <ele>431.5</ele>
        <time>2010-05-29T11:34:15Z</time>
      </trkpt>
      <trkpt lat="47.62018" lon="6.87737">
        <ele>430.5</ele>
        <time>2010-05-29T11:34:16Z</time>
      </trkpt>
      <trkpt lat="47.62018" lon="6.87729">
        <ele>430</ele>
        <time>2010-05-29T11:34:17Z</time>
      </trkpt>
      <trkpt lat="47.62018" lon="6.87721">
        <ele>429.5</ele>
        <time>2010-05-29T11:34:18Z</time>
      </trkpt>
      <trkpt lat="47.62018" lon="6.87713">
        <ele>429.5</ele>
        <time>2010-05-29T11:34:19Z</time>
      </trkpt>
      <trkpt lat="47.62018" lon="6.87704">
        <ele>429</ele>
        <time>2010-05-29T11:34:20Z</time>
      </trkpt>
      <trkpt lat="47.62018" lon="6.87696">
        <ele>428</ele>
        <time>2010-05-29T11:34:21Z</time>
      </trkpt>
      <trkpt lat="47.62018" lon="6.87687">
        <ele>428</ele>
        <time>2010-05-29T11:34:22Z</time>
      </trkpt>
      <trkpt lat="47.62018" lon="6.87678">
        <ele>427.5</ele>
        <time>2010-05-29T11:34:23Z</time>
      </trkpt>
      <trkpt lat="47.62017" lon="6.8767">
        <ele>427</ele>
        <time>2010-05-29T11:34:24Z</time>
      </trkpt>
      <trkpt lat="47.62017" lon="6.87661">
        <ele>427</ele>
        <time>2010-05-29T11:34:25Z</time>
      </trkpt>
      <trkpt lat="47.62017" lon="6.87653">
        <ele>426.5</ele>
        <time>2010-05-29T11:34:26Z</time>
      </trkpt>
      <trkpt lat="47.62017" lon="6.87645">
        <ele>426</ele>
        <time>2010-05-29T11:34:27Z</time>
      </trkpt>
      <trkpt lat="47.62017" lon="6.87636">
        <ele>426</ele>
        <time>2010-05-29T11:34:28Z</time>
      </trkpt>
      <trkpt lat="47.62017" lon="6.87628">
        <ele>426</ele>
        <time>2010-05-29T11:34:29Z</time>
      </trkpt>
      <trkpt lat="47.62016" lon="6.87619">
        <ele>425.5</ele>
        <time>2010-05-29T11:34:30Z</time>
      </trkpt>
      <trkpt lat="47.62016" lon="6.87611">
        <ele>425</ele>
        <time>2010-05-29T11:34:31Z</time>
      </trkpt>
      <trkpt lat="47.62016" lon="6.87602">
        <ele>424.5</ele>
        <time>2010-05-29T11:34:32Z</time>
      </trkpt>
      <trkpt lat="47.62016" lon="6.87594">
        <ele>424</ele>
        <time>2010-05-29T11:34:33Z</time>
      </trkpt>
      <trkpt lat="47.62017" lon="6.87586">
        <ele>423.5</ele>
        <time>2010-05-29T11:34:34Z</time>
      </trkpt>
      <trkpt lat="47.6202" lon="6.87579">
        <ele>424</ele>
        <time>2010-05-29T11:34:35Z</time>
      </trkpt>
      <trkpt lat="47.62023" lon="6.87574">
        <ele>423.5</ele>
        <time>2010-05-29T11:34:36Z</time>
      </trkpt>
      <trkpt lat="47.62027" lon="6.87569">
        <ele>423.5</ele>
        <time>2010-05-29T11:34:37Z</time>
      </trkpt>
      <trkpt lat="47.62031" lon="6.87564">
        <ele>423.5</ele>
        <time>2010-05-29T11:34:38Z</time>
      </trkpt>
      <trkpt lat="47.62035" lon="6.87558">
        <ele>423</ele>
        <time>2010-05-29T11:34:39Z</time>
      </trkpt>
      <trkpt lat="47.62038" lon="6.87552">
        <ele>423</ele>
        <time>2010-05-29T11:34:40Z</time>
      </trkpt>
      <trkpt lat="47.62042" lon="6.87545">
        <ele>422.5</ele>
        <time>2010-05-29T11:34:41Z</time>
      </trkpt>
      <trkpt lat="47.62046" lon="6.87539">
        <ele>422</ele>
        <time>2010-05-29T11:34:42Z</time>
      </trkpt>
      <trkpt lat="47.6205" lon="6.87533">
        <ele>422</ele>
        <time>2010-05-29T11:34:43Z</time>
      </trkpt>
      <trkpt lat="47.62055" lon="6.87526">
        <ele>421.5</ele>
        <time>2010-05-29T11:34:44Z</time>
      </trkpt>
      <trkpt lat="47.62058" lon="6.87519">
        <ele>421.5</ele>
        <time>2010-05-29T11:34:45Z</time>
      </trkpt>
      <trkpt lat="47.6206" lon="6.87512">
        <ele>421</ele>
        <time>2010-05-29T11:34:46Z</time>
      </trkpt>
      <trkpt lat="47.62062" lon="6.87503">
        <ele>421</ele>
        <time>2010-05-29T11:34:47Z</time>
      </trkpt>
      <trkpt lat="47.62063" lon="6.87495">
        <ele>421</ele>
        <time>2010-05-29T11:34:48Z</time>
      </trkpt>
      <trkpt lat="47.62064" lon="6.87487">
        <ele>421</ele>
        <time>2010-05-29T11:34:49Z</time>
      </trkpt>
      <trkpt lat="47.62065" lon="6.87479">
        <ele>420.5</ele>
        <time>2010-05-29T11:34:50Z</time>
      </trkpt>
      <trkpt lat="47.62066" lon="6.87471">
        <ele>420</ele>
        <time>2010-05-29T11:34:51Z</time>
      </trkpt>
      <trkpt lat="47.62066" lon="6.87463">
        <ele>420</ele>
        <time>2010-05-29T11:34:52Z</time>
      </trkpt>
      <trkpt lat="47.62066" lon="6.87455">
        <ele>420.5</ele>
        <time>2010-05-29T11:34:53Z</time>
      </trkpt>
      <trkpt lat="47.62065" lon="6.87446">
        <ele>420.5</ele>
        <time>2010-05-29T11:34:54Z</time>
      </trkpt>
      <trkpt lat="47.62064" lon="6.87438">
        <ele>420</ele>
        <time>2010-05-29T11:34:55Z</time>
      </trkpt>
      <trkpt lat="47.62063" lon="6.8743">
        <ele>420.5</ele>
        <time>2010-05-29T11:34:56Z</time>
      </trkpt>
      <trkpt lat="47.62061" lon="6.87422">
        <ele>420.5</ele>
        <time>2010-05-29T11:34:57Z</time>
      </trkpt>
      <trkpt lat="47.6206" lon="6.87414">
        <ele>420</ele>
        <time>2010-05-29T11:34:58Z</time>
      </trkpt>
      <trkpt lat="47.62059" lon="6.87406">
        <ele>419.5</ele>
        <time>2010-05-29T11:34:59Z</time>
      </trkpt>
      <trkpt lat="47.62057" lon="6.87398">
        <ele>419.5</ele>
        <time>2010-05-29T11:35:00Z</time>
      </trkpt>
      <trkpt lat="47.62056" lon="6.8739">
        <ele>419.5</ele>
        <time>2010-05-29T11:35:01Z</time>
      </trkpt>
      <trkpt lat="47.62054" lon="6.87382">
        <ele>419.5</ele>
        <time>2010-05-29T11:35:02Z</time>
      </trkpt>
      <trkpt lat="47.62052" lon="6.87375">
        <ele>420</ele>
        <time>2010-05-29T11:35:03Z</time>
      </trkpt>
      <trkpt lat="47.62051" lon="6.87367">
        <ele>420</ele>
        <time>2010-05-29T11:35:04Z</time>
      </trkpt>
      <trkpt lat="47.62049" lon="6.87359">
        <ele>420</ele>
        <time>2010-05-29T11:35:05Z</time>
      </trkpt>
      <trkpt lat="47.62048" lon="6.87352">
        <ele>420</ele>
        <time>2010-05-29T11:35:06Z</time>
      </trkpt>
      <trkpt lat="47.62046" lon="6.87344">
        <ele>420</ele>
        <time>2010-05-29T11:35:07Z</time>
      </trkpt>
      <trkpt lat="47.62044" lon="6.87332">
        <ele>420</ele>
        <time>2010-05-29T11:35:07Z</time>
      </trkpt>
      <trkpt lat="47.62044" lon="6.87319">
        <ele>420</ele>
        <time>2010-05-29T11:35:10Z</time>
      </trkpt>
      <trkpt lat="47.62041" lon="6.87309">
        <ele>420.5</ele>
        <time>2010-05-29T11:35:12Z</time>
      </trkpt>
      <trkpt lat="47.6204" lon="6.87301">
        <ele>420.5</ele>
        <time>2010-05-29T11:35:13Z</time>
      </trkpt>
      <trkpt lat="47.6204" lon="6.87292">
        <ele>420.5</ele>
        <time>2010-05-29T11:35:14Z</time>
      </trkpt>
      <trkpt lat="47.62039" lon="6.87284">
        <ele>420.5</ele>
        <time>2010-05-29T11:35:15Z</time>
      </trkpt>
      <trkpt lat="47.62038" lon="6.87276">
        <ele>420</ele>
        <time>2010-05-29T11:35:16Z</time>
      </trkpt>
      <trkpt lat="47.62038" lon="6.87268">
        <ele>420</ele>
        <time>2010-05-29T11:35:17Z</time>
      </trkpt>
      <trkpt lat="47.62037" lon="6.8726">
        <ele>419.5</ele>
        <time>2010-05-29T11:35:18Z</time>
      </trkpt>
      <trkpt lat="47.62037" lon="6.87251">
        <ele>419.5</ele>
        <time>2010-05-29T11:35:19Z</time>
      </trkpt>
      <trkpt lat="47.62037" lon="6.87242">
        <ele>419</ele>
        <time>2010-05-29T11:35:20Z</time>
      </trkpt>
      <trkpt lat="47.62037" lon="6.87233">
        <ele>419</ele>
        <time>2010-05-29T11:35:21Z</time>
      </trkpt>
      <trkpt lat="47.62037" lon="6.87224">
        <ele>418.5</ele>
        <time>2010-05-29T11:35:22Z</time>
      </trkpt>
      <trkpt lat="47.62036" lon="6.87214">
        <ele>418.5</ele>
        <time>2010-05-29T11:35:23Z</time>
      </trkpt>
      <trkpt lat="47.62036" lon="6.87205">
        <ele>418</ele>
        <time>2010-05-29T11:35:24Z</time>
      </trkpt>
      <trkpt lat="47.62036" lon="6.87195">
        <ele>418</ele>
        <time>2010-05-29T11:35:25Z</time>
      </trkpt>
      <trkpt lat="47.62036" lon="6.87184">
        <ele>418</ele>
        <time>2010-05-29T11:35:26Z</time>
      </trkpt>
      <trkpt lat="47.62036" lon="6.87174">
        <ele>417.5</ele>
        <time>2010-05-29T11:35:27Z</time>
      </trkpt>
      <trkpt lat="47.62037" lon="6.87164">
        <ele>417</ele>
        <time>2010-05-29T11:35:28Z</time>
      </trkpt>
      <trkpt lat="47.62038" lon="6.87154">
        <ele>417</ele>
        <time>2010-05-29T11:35:29Z</time>
      </trkpt>
      <trkpt lat="47.62038" lon="6.87143">
        <ele>416</ele>
        <time>2010-05-29T11:35:30Z</time>
      </trkpt>
      <trkpt lat="47.62039" lon="6.87132">
        <ele>415.5</ele>
        <time>2010-05-29T11:35:31Z</time>
      </trkpt>
      <trkpt lat="47.6204" lon="6.87122">
        <ele>415</ele>
        <time>2010-05-29T11:35:32Z</time>
      </trkpt>
      <trkpt lat="47.62041" lon="6.87111">
        <ele>415</ele>
        <time>2010-05-29T11:35:33Z</time>
      </trkpt>
      <trkpt lat="47.62041" lon="6.87101">
        <ele>414.5</ele>
        <time>2010-05-29T11:35:34Z</time>
      </trkpt>
      <trkpt lat="47.62042" lon="6.8709">
        <ele>414</ele>
        <time>2010-05-29T11:35:35Z</time>
      </trkpt>
      <trkpt lat="47.62042" lon="6.87081">
        <ele>414</ele>
        <time>2010-05-29T11:35:36Z</time>
      </trkpt>
      <trkpt lat="47.62043" lon="6.87072">
        <ele>413.5</ele>
        <time>2010-05-29T11:35:37Z</time>
      </trkpt>
      <trkpt lat="47.62043" lon="6.87063">
        <ele>413.5</ele>
        <time>2010-05-29T11:35:38Z</time>
      </trkpt>
      <trkpt lat="47.62043" lon="6.87054">
        <ele>413.5</ele>
        <time>2010-05-29T11:35:39Z</time>
      </trkpt>
      <trkpt lat="47.62043" lon="6.87046">
        <ele>413.5</ele>
        <time>2010-05-29T11:35:40Z</time>
      </trkpt>
      <trkpt lat="47.62043" lon="6.87038">
        <ele>413.5</ele>
        <time>2010-05-29T11:35:41Z</time>
      </trkpt>
      <trkpt lat="47.62042" lon="6.87031">
        <ele>414</ele>
        <time>2010-05-29T11:35:42Z</time>
      </trkpt>
      <trkpt lat="47.62043" lon="6.87023">
        <ele>414</ele>
        <time>2010-05-29T11:35:43Z</time>
      </trkpt>
      <trkpt lat="47.62043" lon="6.87015">
        <ele>414</ele>
        <time>2010-05-29T11:35:44Z</time>
      </trkpt>
      <trkpt lat="47.62043" lon="6.87007">
        <ele>414</ele>
        <time>2010-05-29T11:35:45Z</time>
      </trkpt>
      <trkpt lat="47.62044" lon="6.87">
        <ele>414.5</ele>
        <time>2010-05-29T11:35:46Z</time>
      </trkpt>
      <trkpt lat="47.62044" lon="6.86992">
        <ele>414</ele>
        <time>2010-05-29T11:35:47Z</time>
      </trkpt>
      <trkpt lat="47.62045" lon="6.86985">
        <ele>414</ele>
        <time>2010-05-29T11:35:48Z</time>
      </trkpt>
      <trkpt lat="47.62046" lon="6.86978">
        <ele>414</ele>
        <time>2010-05-29T11:35:49Z</time>
      </trkpt>
      <trkpt lat="47.62047" lon="6.86971">
        <ele>414</ele>
        <time>2010-05-29T11:35:50Z</time>
      </trkpt>
      <trkpt lat="47.62047" lon="6.86964">
        <ele>414</ele>
        <time>2010-05-29T11:35:51Z</time>
      </trkpt>
      <trkpt lat="47.62048" lon="6.86956">
        <ele>413.5</ele>
        <time>2010-05-29T11:35:52Z</time>
      </trkpt>
      <trkpt lat="47.62049" lon="6.86949">
        <ele>414</ele>
        <time>2010-05-29T11:35:53Z</time>
      </trkpt>
      <trkpt lat="47.6205" lon="6.86941">
        <ele>414</ele>
        <time>2010-05-29T11:35:54Z</time>
      </trkpt>
      <trkpt lat="47.62051" lon="6.86934">
        <ele>414.5</ele>
        <time>2010-05-29T11:35:55Z</time>
      </trkpt>
      <trkpt lat="47.62052" lon="6.86927">
        <ele>414.5</ele>
        <time>2010-05-29T11:35:56Z</time>
      </trkpt>
      <trkpt lat="47.62053" lon="6.8692">
        <ele>414.5</ele>
        <time>2010-05-29T11:35:57Z</time>
      </trkpt>
      <trkpt lat="47.62054" lon="6.86913">
        <ele>414.5</ele>
        <time>2010-05-29T11:35:58Z</time>
      </trkpt>
      <trkpt lat="47.62055" lon="6.86906">
        <ele>414.5</ele>
        <time>2010-05-29T11:35:59Z</time>
      </trkpt>
      <trkpt lat="47.62056" lon="6.86898">
        <ele>414.5</ele>
        <time>2010-05-29T11:36:00Z</time>
      </trkpt>
      <trkpt lat="47.62056" lon="6.86892">
        <ele>414.5</ele>
        <time>2010-05-29T11:36:01Z</time>
      </trkpt>
      <trkpt lat="47.62057" lon="6.86884">
        <ele>414.5</ele>
        <time>2010-05-29T11:36:02Z</time>
      </trkpt>
      <trkpt lat="47.62058" lon="6.86877">
        <ele>414.5</ele>
        <time>2010-05-29T11:36:03Z</time>
      </trkpt>
      <trkpt lat="47.62059" lon="6.8687">
        <ele>414.5</ele>
        <time>2010-05-29T11:36:04Z</time>
      </trkpt>
      <trkpt lat="47.6206" lon="6.86863">
        <ele>414.5</ele>
        <time>2010-05-29T11:36:05Z</time>
      </trkpt>
      <trkpt lat="47.62062" lon="6.86856">
        <ele>414</ele>
        <time>2010-05-29T11:36:06Z</time>
      </trkpt>
      <trkpt lat="47.62063" lon="6.86849">
        <ele>414</ele>
        <time>2010-05-29T11:36:07Z</time>
      </trkpt>
      <trkpt lat="47.62064" lon="6.86838">
        <ele>414.5</ele>
        <time>2010-05-29T11:36:07Z</time>
      </trkpt>
      <trkpt lat="47.62065" lon="6.86831">
        <ele>414</ele>
        <time>2010-05-29T11:36:09Z</time>
      </trkpt>
      <trkpt lat="47.62067" lon="6.86824">
        <ele>414</ele>
        <time>2010-05-29T11:36:10Z</time>
      </trkpt>
      <trkpt lat="47.62068" lon="6.86815">
        <ele>414</ele>
        <time>2010-05-29T11:36:12Z</time>
      </trkpt>
      <trkpt lat="47.6207" lon="6.86802">
        <ele>414</ele>
        <time>2010-05-29T11:36:14Z</time>
      </trkpt>
      <trkpt lat="47.62071" lon="6.86794">
        <ele>414</ele>
        <time>2010-05-29T11:36:15Z</time>
      </trkpt>
      <trkpt lat="47.62072" lon="6.86787">
        <ele>414</ele>
        <time>2010-05-29T11:36:16Z</time>
      </trkpt>
      <trkpt lat="47.62074" lon="6.8678">
        <ele>413.5</ele>
        <time>2010-05-29T11:36:17Z</time>
      </trkpt>
      <trkpt lat="47.62075" lon="6.86772">
        <ele>413.5</ele>
        <time>2010-05-29T11:36:18Z</time>
      </trkpt>
      <trkpt lat="47.62076" lon="6.86765">
        <ele>413.5</ele>
        <time>2010-05-29T11:36:19Z</time>
      </trkpt>
      <trkpt lat="47.62077" lon="6.86757">
        <ele>413.5</ele>
        <time>2010-05-29T11:36:20Z</time>
      </trkpt>
      <trkpt lat="47.62079" lon="6.86749">
        <ele>413.5</ele>
        <time>2010-05-29T11:36:21Z</time>
      </trkpt>
      <trkpt lat="47.6208" lon="6.86742">
        <ele>413</ele>
        <time>2010-05-29T11:36:22Z</time>
      </trkpt>
      <trkpt lat="47.62082" lon="6.86734">
        <ele>413.5</ele>
        <time>2010-05-29T11:36:23Z</time>
      </trkpt>
      <trkpt lat="47.62083" lon="6.86727">
        <ele>413.5</ele>
        <time>2010-05-29T11:36:24Z</time>
      </trkpt>
      <trkpt lat="47.62084" lon="6.8672">
        <ele>413.5</ele>
        <time>2010-05-29T11:36:25Z</time>
      </trkpt>
      <trkpt lat="47.62086" lon="6.86713">
        <ele>413.5</ele>
        <time>2010-05-29T11:36:26Z</time>
      </trkpt>
      <trkpt lat="47.62091" lon="6.86705">
        <ele>413</ele>
        <time>2010-05-29T11:36:28Z</time>
      </trkpt>
      <trkpt lat="47.62097" lon="6.86701">
        <ele>413.5</ele>
        <time>2010-05-29T11:36:30Z</time>
      </trkpt>
      <trkpt lat="47.62103" lon="6.86697">
        <ele>414</ele>
        <time>2010-05-29T11:36:32Z</time>
      </trkpt>
      <trkpt lat="47.62108" lon="6.86693">
        <ele>414.5</ele>
        <time>2010-05-29T11:36:34Z</time>
      </trkpt>
      <trkpt lat="47.62112" lon="6.86689">
        <ele>415</ele>
        <time>2010-05-29T11:36:36Z</time>
      </trkpt>
      <trkpt lat="47.62117" lon="6.86687">
        <ele>415.5</ele>
        <time>2010-05-29T11:36:38Z</time>
      </trkpt>
      <trkpt lat="47.62122" lon="6.86684">
        <ele>416</ele>
        <time>2010-05-29T11:36:40Z</time>
      </trkpt>
      <trkpt lat="47.62127" lon="6.8668">
        <ele>416.5</ele>
        <time>2010-05-29T11:36:42Z</time>
      </trkpt>
      <trkpt lat="47.62132" lon="6.86675">
        <ele>417.5</ele>
        <time>2010-05-29T11:36:44Z</time>
      </trkpt>
      <trkpt lat="47.62138" lon="6.86671">
        <ele>418</ele>
        <time>2010-05-29T11:36:46Z</time>
      </trkpt>
      <trkpt lat="47.62144" lon="6.86668">
        <ele>420</ele>
        <time>2010-05-29T11:36:48Z</time>
      </trkpt>
      <trkpt lat="47.62149" lon="6.86664">
        <ele>422</ele>
        <time>2010-05-29T11:36:50Z</time>
      </trkpt>
      <trkpt lat="47.62154" lon="6.86661">
        <ele>423.5</ele>
        <time>2010-05-29T11:36:52Z</time>
      </trkpt>
      <trkpt lat="47.62159" lon="6.86658">
        <ele>424.5</ele>
        <time>2010-05-29T11:36:54Z</time>
      </trkpt>
      <trkpt lat="47.62164" lon="6.86655">
        <ele>426</ele>
        <time>2010-05-29T11:36:56Z</time>
      </trkpt>
      <trkpt lat="47.62168" lon="6.86652">
        <ele>426.5</ele>
        <time>2010-05-29T11:36:58Z</time>
      </trkpt>
      <trkpt lat="47.62173" lon="6.86649">
        <ele>427.5</ele>
        <time>2010-05-29T11:37:00Z</time>
      </trkpt>
      <trkpt lat="47.62178" lon="6.86646">
        <ele>428</ele>
        <time>2010-05-29T11:37:02Z</time>
      </trkpt>
      <trkpt lat="47.62182" lon="6.86642">
        <ele>428.5</ele>
        <time>2010-05-29T11:37:04Z</time>
      </trkpt>
      <trkpt lat="47.62187" lon="6.86639">
        <ele>429</ele>
        <time>2010-05-29T11:37:06Z</time>
      </trkpt>
      <trkpt lat="47.62192" lon="6.86635">
        <ele>430</ele>
        <time>2010-05-29T11:37:07Z</time>
      </trkpt>
      <trkpt lat="47.62196" lon="6.86633">
        <ele>429</ele>
        <time>2010-05-29T11:37:10Z</time>
      </trkpt>
      <trkpt lat="47.62202" lon="6.86631">
        <ele>428.5</ele>
        <time>2010-05-29T11:37:13Z</time>
      </trkpt>
      <trkpt lat="47.62207" lon="6.86629">
        <ele>428</ele>
        <time>2010-05-29T11:37:15Z</time>
      </trkpt>
      <trkpt lat="47.62212" lon="6.86627">
        <ele>429</ele>
        <time>2010-05-29T11:37:17Z</time>
      </trkpt>
      <trkpt lat="47.62216" lon="6.86625">
        <ele>428.5</ele>
        <time>2010-05-29T11:37:19Z</time>
      </trkpt>
      <trkpt lat="47.6222" lon="6.86622">
        <ele>428.5</ele>
        <time>2010-05-29T11:37:21Z</time>
      </trkpt>
      <trkpt lat="47.62225" lon="6.8662">
        <ele>428.5</ele>
        <time>2010-05-29T11:37:23Z</time>
      </trkpt>
      <trkpt lat="47.62229" lon="6.86618">
        <ele>429</ele>
        <time>2010-05-29T11:37:25Z</time>
      </trkpt>
      <trkpt lat="47.62233" lon="6.86616">
        <ele>428.5</ele>
        <time>2010-05-29T11:37:27Z</time>
      </trkpt>
      <trkpt lat="47.62239" lon="6.86612">
        <ele>429</ele>
        <time>2010-05-29T11:37:30Z</time>
      </trkpt>
      <trkpt lat="47.62245" lon="6.86609">
        <ele>428.5</ele>
        <time>2010-05-29T11:37:33Z</time>
      </trkpt>
      <trkpt lat="47.62251" lon="6.86605">
        <ele>428.5</ele>
        <time>2010-05-29T11:37:36Z</time>
      </trkpt>
      <trkpt lat="47.62257" lon="6.86601">
        <ele>428.5</ele>
        <time>2010-05-29T11:37:39Z</time>
      </trkpt>
      <trkpt lat="47.62263" lon="6.86598">
        <ele>428.5</ele>
        <time>2010-05-29T11:37:42Z</time>
      </trkpt>
      <trkpt lat="47.62269" lon="6.86595">
        <ele>429</ele>
        <time>2010-05-29T11:37:45Z</time>
      </trkpt>
      <trkpt lat="47.62275" lon="6.86591">
        <ele>429</ele>
        <time>2010-05-29T11:37:48Z</time>
      </trkpt>
      <trkpt lat="47.62281" lon="6.86588">
        <ele>429.5</ele>
        <time>2010-05-29T11:37:51Z</time>
      </trkpt>
      <trkpt lat="47.62286" lon="6.86585">
        <ele>430</ele>
        <time>2010-05-29T11:37:54Z</time>
      </trkpt>
      <trkpt lat="47.62292" lon="6.86582">
        <ele>430.5</ele>
        <time>2010-05-29T11:37:57Z</time>
      </trkpt>
      <trkpt lat="47.62298" lon="6.86579">
        <ele>431</ele>
        <time>2010-05-29T11:38:00Z</time>
      </trkpt>
      <trkpt lat="47.62304" lon="6.86575">
        <ele>431.5</ele>
        <time>2010-05-29T11:38:03Z</time>
      </trkpt>
      <trkpt lat="47.62309" lon="6.86572">
        <ele>432</ele>
        <time>2010-05-29T11:38:06Z</time>
      </trkpt>
      <trkpt lat="47.62314" lon="6.8657">
        <ele>432.5</ele>
        <time>2010-05-29T11:38:07Z</time>
      </trkpt>
      <trkpt lat="47.62318" lon="6.86566">
        <ele>432.5</ele>
        <time>2010-05-29T11:38:11Z</time>
      </trkpt>
      <trkpt lat="47.62324" lon="6.86563">
        <ele>433</ele>
        <time>2010-05-29T11:38:14Z</time>
      </trkpt>
      <trkpt lat="47.6233" lon="6.86561">
        <ele>433</ele>
        <time>2010-05-29T11:38:17Z</time>
      </trkpt>
      <trkpt lat="47.62336" lon="6.86558">
        <ele>433.5</ele>
        <time>2010-05-29T11:38:20Z</time>
      </trkpt>
      <trkpt lat="47.62341" lon="6.86554">
        <ele>434</ele>
        <time>2010-05-29T11:38:23Z</time>
      </trkpt>
      <trkpt lat="47.62347" lon="6.86551">
        <ele>434.5</ele>
        <time>2010-05-29T11:38:26Z</time>
      </trkpt>
      <trkpt lat="47.62353" lon="6.86548">
        <ele>435</ele>
        <time>2010-05-29T11:38:29Z</time>
      </trkpt>
      <trkpt lat="47.62359" lon="6.86546">
        <ele>435.5</ele>
        <time>2010-05-29T11:38:32Z</time>
      </trkpt>
      <trkpt lat="47.62365" lon="6.86543">
        <ele>436</ele>
        <time>2010-05-29T11:38:35Z</time>
      </trkpt>
      <trkpt lat="47.62371" lon="6.86541">
        <ele>437</ele>
        <time>2010-05-29T11:38:38Z</time>
      </trkpt>
      <trkpt lat="47.62377" lon="6.86538">
        <ele>437.5</ele>
        <time>2010-05-29T11:38:41Z</time>
      </trkpt>
      <trkpt lat="47.62383" lon="6.86535">
        <ele>437.5</ele>
        <time>2010-05-29T11:38:44Z</time>
      </trkpt>
      <trkpt lat="47.62389" lon="6.86532">
        <ele>438</ele>
        <time>2010-05-29T11:38:47Z</time>
      </trkpt>
      <trkpt lat="47.62395" lon="6.86529">
        <ele>438.5</ele>
        <time>2010-05-29T11:38:50Z</time>
      </trkpt>
      <trkpt lat="47.62401" lon="6.86526">
        <ele>439</ele>
        <time>2010-05-29T11:38:53Z</time>
      </trkpt>
      <trkpt lat="47.62407" lon="6.86523">
        <ele>439.5</ele>
        <time>2010-05-29T11:38:56Z</time>
      </trkpt>
      <trkpt lat="47.62413" lon="6.8652">
        <ele>440.5</ele>
        <time>2010-05-29T11:38:59Z</time>
      </trkpt>
      <trkpt lat="47.62419" lon="6.86518">
        <ele>440.5</ele>
        <time>2010-05-29T11:39:02Z</time>
      </trkpt>
      <trkpt lat="47.62425" lon="6.86515">
        <ele>441</ele>
        <time>2010-05-29T11:39:05Z</time>
      </trkpt>
      <trkpt lat="47.62433" lon="6.86513">
        <ele>441</ele>
        <time>2010-05-29T11:39:07Z</time>
      </trkpt>
      <trkpt lat="47.62437" lon="6.86511">
        <ele>441.5</ele>
        <time>2010-05-29T11:39:10Z</time>
      </trkpt>
      <trkpt lat="47.62443" lon="6.8651">
        <ele>442.5</ele>
        <time>2010-05-29T11:39:13Z</time>
      </trkpt>
      <trkpt lat="47.62447" lon="6.86508">
        <ele>443</ele>
        <time>2010-05-29T11:39:15Z</time>
      </trkpt>
      <trkpt lat="47.62452" lon="6.86507">
        <ele>443</ele>
        <time>2010-05-29T11:39:17Z</time>
      </trkpt>
      <trkpt lat="47.62456" lon="6.86506">
        <ele>444</ele>
        <time>2010-05-29T11:39:19Z</time>
      </trkpt>
      <trkpt lat="47.62461" lon="6.86505">
        <ele>444</ele>
        <time>2010-05-29T11:39:21Z</time>
      </trkpt>
      <trkpt lat="47.62465" lon="6.86503">
        <ele>444</ele>
        <time>2010-05-29T11:39:23Z</time>
      </trkpt>
      <trkpt lat="47.6247" lon="6.86501">
        <ele>444.5</ele>
        <time>2010-05-29T11:39:25Z</time>
      </trkpt>
      <trkpt lat="47.62474" lon="6.865">
        <ele>445</ele>
        <time>2010-05-29T11:39:27Z</time>
      </trkpt>
      <trkpt lat="47.62481" lon="6.86499">
        <ele>445</ele>
        <time>2010-05-29T11:39:30Z</time>
      </trkpt>
      <trkpt lat="47.62485" lon="6.86499">
        <ele>445.5</ele>
        <time>2010-05-29T11:39:32Z</time>
      </trkpt>
      <trkpt lat="47.6249" lon="6.86499">
        <ele>446</ele>
        <time>2010-05-29T11:39:34Z</time>
      </trkpt>
      <trkpt lat="47.62497" lon="6.86499">
        <ele>447</ele>
        <time>2010-05-29T11:39:37Z</time>
      </trkpt>
      <trkpt lat="47.62501" lon="6.865">
        <ele>447</ele>
        <time>2010-05-29T11:39:39Z</time>
      </trkpt>
      <trkpt lat="47.62508" lon="6.86501">
        <ele>447.5</ele>
        <time>2010-05-29T11:39:42Z</time>
      </trkpt>
      <trkpt lat="47.62514" lon="6.86503">
        <ele>448.5</ele>
        <time>2010-05-29T11:39:45Z</time>
      </trkpt>
      <trkpt lat="47.6252" lon="6.86505">
        <ele>449</ele>
        <time>2010-05-29T11:39:48Z</time>
      </trkpt>
      <trkpt lat="47.62525" lon="6.86509">
        <ele>450</ele>
        <time>2010-05-29T11:39:51Z</time>
      </trkpt>
      <trkpt lat="47.62531" lon="6.86513">
        <ele>450.5</ele>
        <time>2010-05-29T11:39:54Z</time>
      </trkpt>
      <trkpt lat="47.62535" lon="6.86518">
        <ele>451.5</ele>
        <time>2010-05-29T11:39:57Z</time>
      </trkpt>
      <trkpt lat="47.6254" lon="6.86523">
        <ele>452</ele>
        <time>2010-05-29T11:40:00Z</time>
      </trkpt>
      <trkpt lat="47.62545" lon="6.86529">
        <ele>452.5</ele>
        <time>2010-05-29T11:40:03Z</time>
      </trkpt>
      <trkpt lat="47.62549" lon="6.86536">
        <ele>453</ele>
        <time>2010-05-29T11:40:06Z</time>
      </trkpt>
      <trkpt lat="47.62553" lon="6.86541">
        <ele>453.5</ele>
        <time>2010-05-29T11:40:07Z</time>
      </trkpt>
      <trkpt lat="47.62557" lon="6.8655">
        <ele>454</ele>
        <time>2010-05-29T11:40:12Z</time>
      </trkpt>
      <trkpt lat="47.62559" lon="6.86556">
        <ele>454</ele>
        <time>2010-05-29T11:40:14Z</time>
      </trkpt>
      <trkpt lat="47.62563" lon="6.86564">
        <ele>453.5</ele>
        <time>2010-05-29T11:40:17Z</time>
      </trkpt>
      <trkpt lat="47.62565" lon="6.86572">
        <ele>454.5</ele>
        <time>2010-05-29T11:40:20Z</time>
      </trkpt>
      <trkpt lat="47.62568" lon="6.8658">
        <ele>454.5</ele>
        <time>2010-05-29T11:40:23Z</time>
      </trkpt>
      <trkpt lat="47.62571" lon="6.86589">
        <ele>455</ele>
        <time>2010-05-29T11:40:26Z</time>
      </trkpt>
      <trkpt lat="47.62574" lon="6.86597">
        <ele>455.5</ele>
        <time>2010-05-29T11:40:29Z</time>
      </trkpt>
      <trkpt lat="47.62576" lon="6.86605">
        <ele>456</ele>
        <time>2010-05-29T11:40:32Z</time>
      </trkpt>
      <trkpt lat="47.62579" lon="6.86614">
        <ele>457</ele>
        <time>2010-05-29T11:40:35Z</time>
      </trkpt>
      <trkpt lat="47.62581" lon="6.8662">
        <ele>457</ele>
        <time>2010-05-29T11:40:37Z</time>
      </trkpt>
      <trkpt lat="47.62583" lon="6.86625">
        <ele>458</ele>
        <time>2010-05-29T11:40:39Z</time>
      </trkpt>
      <trkpt lat="47.62587" lon="6.86633">
        <ele>457.5</ele>
        <time>2010-05-29T11:40:42Z</time>
      </trkpt>
      <trkpt lat="47.6259" lon="6.86641">
        <ele>458</ele>
        <time>2010-05-29T11:40:45Z</time>
      </trkpt>
      <trkpt lat="47.62593" lon="6.86648">
        <ele>459</ele>
        <time>2010-05-29T11:40:48Z</time>
      </trkpt>
      <trkpt lat="47.62596" lon="6.86656">
        <ele>459</ele>
        <time>2010-05-29T11:40:51Z</time>
      </trkpt>
      <trkpt lat="47.62598" lon="6.86662">
        <ele>459</ele>
        <time>2010-05-29T11:40:54Z</time>
      </trkpt>
      <trkpt lat="47.62602" lon="6.86669">
        <ele>459.5</ele>
        <time>2010-05-29T11:40:58Z</time>
      </trkpt>
      <trkpt lat="47.62606" lon="6.86678">
        <ele>459.5</ele>
        <time>2010-05-29T11:41:01Z</time>
      </trkpt>
      <trkpt lat="47.6261" lon="6.86684">
        <ele>460</ele>
        <time>2010-05-29T11:41:03Z</time>
      </trkpt>
      <trkpt lat="47.62614" lon="6.86691">
        <ele>459</ele>
        <time>2010-05-29T11:41:05Z</time>
      </trkpt>
      <trkpt lat="47.62617" lon="6.86698">
        <ele>458.5</ele>
        <time>2010-05-29T11:41:07Z</time>
      </trkpt>
      <trkpt lat="47.6262" lon="6.86704">
        <ele>458</ele>
        <time>2010-05-29T11:41:07Z</time>
      </trkpt>
      <trkpt lat="47.62624" lon="6.86711">
        <ele>457.5</ele>
        <time>2010-05-29T11:41:10Z</time>
      </trkpt>
      <trkpt lat="47.62628" lon="6.86721">
        <ele>457.5</ele>
        <time>2010-05-29T11:41:13Z</time>
      </trkpt>
      <trkpt lat="47.62632" lon="6.8673">
        <ele>457</ele>
        <time>2010-05-29T11:41:15Z</time>
      </trkpt>
      <trkpt lat="47.62635" lon="6.86736">
        <ele>457.5</ele>
        <time>2010-05-29T11:41:16Z</time>
      </trkpt>
      <trkpt lat="47.62638" lon="6.86742">
        <ele>457.5</ele>
        <time>2010-05-29T11:41:17Z</time>
      </trkpt>
      <trkpt lat="47.62642" lon="6.86752">
        <ele>457.5</ele>
        <time>2010-05-29T11:41:19Z</time>
      </trkpt>
      <trkpt lat="47.62646" lon="6.86759">
        <ele>457</ele>
        <time>2010-05-29T11:41:21Z</time>
      </trkpt>
      <trkpt lat="47.6265" lon="6.86769">
        <ele>456.5</ele>
        <time>2010-05-29T11:41:23Z</time>
      </trkpt>
      <trkpt lat="47.62656" lon="6.8678">
        <ele>456</ele>
        <time>2010-05-29T11:41:25Z</time>
      </trkpt>
      <trkpt lat="47.62661" lon="6.86791">
        <ele>455.5</ele>
        <time>2010-05-29T11:41:27Z</time>
      </trkpt>
      <trkpt lat="47.62663" lon="6.86797">
        <ele>455.5</ele>
        <time>2010-05-29T11:41:28Z</time>
      </trkpt>
      <trkpt lat="47.62667" lon="6.86809">
        <ele>454.5</ele>
        <time>2010-05-29T11:41:30Z</time>
      </trkpt>
      <trkpt lat="47.6267" lon="6.8682">
        <ele>454.5</ele>
        <time>2010-05-29T11:41:32Z</time>
      </trkpt>
      <trkpt lat="47.62672" lon="6.86827">
        <ele>455</ele>
        <time>2010-05-29T11:41:33Z</time>
      </trkpt>
      <trkpt lat="47.62672" lon="6.86838">
        <ele>455.5</ele>
        <time>2010-05-29T11:41:35Z</time>
      </trkpt>
      <trkpt lat="47.62672" lon="6.86849">
        <ele>456</ele>
        <time>2010-05-29T11:41:37Z</time>
      </trkpt>
      <trkpt lat="47.62672" lon="6.86862">
        <ele>457</ele>
        <time>2010-05-29T11:41:39Z</time>
      </trkpt>
      <trkpt lat="47.62671" lon="6.86869">
        <ele>457</ele>
        <time>2010-05-29T11:41:40Z</time>
      </trkpt>
      <trkpt lat="47.62671" lon="6.86877">
        <ele>458</ele>
        <time>2010-05-29T11:41:41Z</time>
      </trkpt>
      <trkpt lat="47.62671" lon="6.86885">
        <ele>458.5</ele>
        <time>2010-05-29T11:41:42Z</time>
      </trkpt>
      <trkpt lat="47.62668" lon="6.86895">
        <ele>459.5</ele>
        <time>2010-05-29T11:41:44Z</time>
      </trkpt>
      <trkpt lat="47.62666" lon="6.86904">
        <ele>460.5</ele>
        <time>2010-05-29T11:41:46Z</time>
      </trkpt>
      <trkpt lat="47.62664" lon="6.86913">
        <ele>461</ele>
        <time>2010-05-29T11:41:48Z</time>
      </trkpt>
      <trkpt lat="47.62664" lon="6.86922">
        <ele>461</ele>
        <time>2010-05-29T11:41:50Z</time>
      </trkpt>
      <trkpt lat="47.62664" lon="6.86931">
        <ele>461.5</ele>
        <time>2010-05-29T11:41:52Z</time>
      </trkpt>
      <trkpt lat="47.62665" lon="6.86941">
        <ele>462.5</ele>
        <time>2010-05-29T11:41:54Z</time>
      </trkpt>
      <trkpt lat="47.62665" lon="6.8695">
        <ele>463</ele>
        <time>2010-05-29T11:41:56Z</time>
      </trkpt>
      <trkpt lat="47.62664" lon="6.8696">
        <ele>463</ele>
        <time>2010-05-29T11:41:58Z</time>
      </trkpt>
      <trkpt lat="47.62664" lon="6.8697">
        <ele>463</ele>
        <time>2010-05-29T11:42:00Z</time>
      </trkpt>
      <trkpt lat="47.62663" lon="6.8698">
        <ele>463.5</ele>
        <time>2010-05-29T11:42:02Z</time>
      </trkpt>
      <trkpt lat="47.62662" lon="6.8699">
        <ele>464</ele>
        <time>2010-05-29T11:42:04Z</time>
      </trkpt>
      <trkpt lat="47.62661" lon="6.87001">
        <ele>463.5</ele>
        <time>2010-05-29T11:42:06Z</time>
      </trkpt>
      <trkpt lat="47.62661" lon="6.87012">
        <ele>463.5</ele>
        <time>2010-05-29T11:42:07Z</time>
      </trkpt>
      <trkpt lat="47.62661" lon="6.87021">
        <ele>462.5</ele>
        <time>2010-05-29T11:42:10Z</time>
      </trkpt>
      <trkpt lat="47.62661" lon="6.8703">
        <ele>462.5</ele>
        <time>2010-05-29T11:42:13Z</time>
      </trkpt>
      <trkpt lat="47.62662" lon="6.8704">
        <ele>462.5</ele>
        <time>2010-05-29T11:42:15Z</time>
      </trkpt>
      <trkpt lat="47.62664" lon="6.87051">
        <ele>463.5</ele>
        <time>2010-05-29T11:42:17Z</time>
      </trkpt>
      <trkpt lat="47.62667" lon="6.87063">
        <ele>464</ele>
        <time>2010-05-29T11:42:19Z</time>
      </trkpt>
      <trkpt lat="47.62669" lon="6.8707">
        <ele>464</ele>
        <time>2010-05-29T11:42:20Z</time>
      </trkpt>
      <trkpt lat="47.6267" lon="6.87078">
        <ele>464.5</ele>
        <time>2010-05-29T11:42:21Z</time>
      </trkpt>
      <trkpt lat="47.62672" lon="6.87085">
        <ele>464.5</ele>
        <time>2010-05-29T11:42:22Z</time>
      </trkpt>
      <trkpt lat="47.62674" lon="6.87091">
        <ele>464.5</ele>
        <time>2010-05-29T11:42:23Z</time>
      </trkpt>
      <trkpt lat="47.62675" lon="6.87099">
        <ele>464.5</ele>
        <time>2010-05-29T11:42:24Z</time>
      </trkpt>
      <trkpt lat="47.62677" lon="6.87106">
        <ele>464.5</ele>
        <time>2010-05-29T11:42:25Z</time>
      </trkpt>
      <trkpt lat="47.62679" lon="6.87113">
        <ele>464</ele>
        <time>2010-05-29T11:42:26Z</time>
      </trkpt>
      <trkpt lat="47.62681" lon="6.8712">
        <ele>464.5</ele>
        <time>2010-05-29T11:42:27Z</time>
      </trkpt>
      <trkpt lat="47.62683" lon="6.87128">
        <ele>464</ele>
        <time>2010-05-29T11:42:28Z</time>
      </trkpt>
      <trkpt lat="47.62685" lon="6.87135">
        <ele>464</ele>
        <time>2010-05-29T11:42:29Z</time>
      </trkpt>
      <trkpt lat="47.62686" lon="6.87143">
        <ele>464</ele>
        <time>2010-05-29T11:42:30Z</time>
      </trkpt>
      <trkpt lat="47.62687" lon="6.8715">
        <ele>464.5</ele>
        <time>2010-05-29T11:42:31Z</time>
      </trkpt>
      <trkpt lat="47.62688" lon="6.87158">
        <ele>464.5</ele>
        <time>2010-05-29T11:42:32Z</time>
      </trkpt>
      <trkpt lat="47.62689" lon="6.87166">
        <ele>465</ele>
        <time>2010-05-29T11:42:33Z</time>
      </trkpt>
      <trkpt lat="47.6269" lon="6.87175">
        <ele>464.5</ele>
        <time>2010-05-29T11:42:34Z</time>
      </trkpt>
      <trkpt lat="47.62692" lon="6.87183">
        <ele>464.5</ele>
        <time>2010-05-29T11:42:35Z</time>
      </trkpt>
      <trkpt lat="47.62692" lon="6.87191">
        <ele>464.5</ele>
        <time>2010-05-29T11:42:36Z</time>
      </trkpt>
      <trkpt lat="47.62694" lon="6.87199">
        <ele>465</ele>
        <time>2010-05-29T11:42:37Z</time>
      </trkpt>
      <trkpt lat="47.62695" lon="6.87208">
        <ele>465.5</ele>
        <time>2010-05-29T11:42:38Z</time>
      </trkpt>
      <trkpt lat="47.62696" lon="6.87215">
        <ele>465.5</ele>
        <time>2010-05-29T11:42:39Z</time>
      </trkpt>
      <trkpt lat="47.62697" lon="6.87222">
        <ele>465.5</ele>
        <time>2010-05-29T11:42:40Z</time>
      </trkpt>
      <trkpt lat="47.62698" lon="6.87229">
        <ele>466</ele>
        <time>2010-05-29T11:42:41Z</time>
      </trkpt>
      <trkpt lat="47.62699" lon="6.87235">
        <ele>466</ele>
        <time>2010-05-29T11:42:42Z</time>
      </trkpt>
      <trkpt lat="47.62702" lon="6.87248">
        <ele>467.5</ele>
        <time>2010-05-29T11:42:44Z</time>
      </trkpt>
      <trkpt lat="47.62703" lon="6.87255">
        <ele>468</ele>
        <time>2010-05-29T11:42:45Z</time>
      </trkpt>
      <trkpt lat="47.62705" lon="6.87263">
        <ele>468</ele>
        <time>2010-05-29T11:42:46Z</time>
      </trkpt>
      <trkpt lat="47.62706" lon="6.8727">
        <ele>468</ele>
        <time>2010-05-29T11:42:47Z</time>
      </trkpt>
      <trkpt lat="47.62708" lon="6.87276">
        <ele>468</ele>
        <time>2010-05-29T11:42:48Z</time>
      </trkpt>
      <trkpt lat="47.6271" lon="6.87283">
        <ele>468</ele>
        <time>2010-05-29T11:42:49Z</time>
      </trkpt>
      <trkpt lat="47.62713" lon="6.87289">
        <ele>468.5</ele>
        <time>2010-05-29T11:42:50Z</time>
      </trkpt>
      <trkpt lat="47.6272" lon="6.87302">
        <ele>467.5</ele>
        <time>2010-05-29T11:42:52Z</time>
      </trkpt>
      <trkpt lat="47.62724" lon="6.87308">
        <ele>467</ele>
        <time>2010-05-29T11:42:53Z</time>
      </trkpt>
      <trkpt lat="47.62727" lon="6.87313">
        <ele>467</ele>
        <time>2010-05-29T11:42:54Z</time>
      </trkpt>
      <trkpt lat="47.62731" lon="6.87317">
        <ele>467</ele>
        <time>2010-05-29T11:42:55Z</time>
      </trkpt>
      <trkpt lat="47.62738" lon="6.87327">
        <ele>467</ele>
        <time>2010-05-29T11:42:57Z</time>
      </trkpt>
      <trkpt lat="47.62742" lon="6.87333">
        <ele>467</ele>
        <time>2010-05-29T11:42:58Z</time>
      </trkpt>
      <trkpt lat="47.62746" lon="6.8734">
        <ele>467.5</ele>
        <time>2010-05-29T11:42:59Z</time>
      </trkpt>
      <trkpt lat="47.6275" lon="6.87347">
        <ele>467.5</ele>
        <time>2010-05-29T11:43:00Z</time>
      </trkpt>
      <trkpt lat="47.62754" lon="6.87353">
        <ele>467.5</ele>
        <time>2010-05-29T11:43:01Z</time>
      </trkpt>
      <trkpt lat="47.62758" lon="6.87359">
        <ele>468</ele>
        <time>2010-05-29T11:43:02Z</time>
      </trkpt>
      <trkpt lat="47.62763" lon="6.87363">
        <ele>468</ele>
        <time>2010-05-29T11:43:03Z</time>
      </trkpt>
      <trkpt lat="47.62767" lon="6.87368">
        <ele>469.5</ele>
        <time>2010-05-29T11:43:04Z</time>
      </trkpt>
      <trkpt lat="47.62772" lon="6.87372">
        <ele>470</ele>
        <time>2010-05-29T11:43:05Z</time>
      </trkpt>
      <trkpt lat="47.62776" lon="6.87375">
        <ele>470.5</ele>
        <time>2010-05-29T11:43:06Z</time>
      </trkpt>
      <trkpt lat="47.6278" lon="6.87377">
        <ele>470.5</ele>
        <time>2010-05-29T11:43:07Z</time>
      </trkpt>
      <trkpt lat="47.62785" lon="6.8738">
        <ele>471</ele>
        <time>2010-05-29T11:43:07Z</time>
      </trkpt>
      <trkpt lat="47.62794" lon="6.87386">
        <ele>464.5</ele>
        <time>2010-05-29T11:43:10Z</time>
      </trkpt>
      <trkpt lat="47.62802" lon="6.8738">
        <ele>461</ele>
        <time>2010-05-29T11:43:13Z</time>
      </trkpt>
      <trkpt lat="47.62806" lon="6.87375">
        <ele>460.5</ele>
        <time>2010-05-29T11:43:14Z</time>
      </trkpt>
      <trkpt lat="47.62809" lon="6.87371">
        <ele>460.5</ele>
        <time>2010-05-29T11:43:15Z</time>
      </trkpt>
      <trkpt lat="47.62813" lon="6.87366">
        <ele>460</ele>
        <time>2010-05-29T11:43:16Z</time>
      </trkpt>
      <trkpt lat="47.62817" lon="6.87361">
        <ele>459.5</ele>
        <time>2010-05-29T11:43:17Z</time>
      </trkpt>
      <trkpt lat="47.62821" lon="6.87355">
        <ele>459</ele>
        <time>2010-05-29T11:43:18Z</time>
      </trkpt>
      <trkpt lat="47.62825" lon="6.87349">
        <ele>460</ele>
        <time>2010-05-29T11:43:19Z</time>
      </trkpt>
      <trkpt lat="47.6283" lon="6.87343">
        <ele>459.5</ele>
        <time>2010-05-29T11:43:20Z</time>
      </trkpt>
      <trkpt lat="47.62834" lon="6.87337">
        <ele>459</ele>
        <time>2010-05-29T11:43:21Z</time>
      </trkpt>
      <trkpt lat="47.62839" lon="6.87331">
        <ele>459</ele>
        <time>2010-05-29T11:43:22Z</time>
      </trkpt>
      <trkpt lat="47.62843" lon="6.87325">
        <ele>458.5</ele>
        <time>2010-05-29T11:43:23Z</time>
      </trkpt>
      <trkpt lat="47.62848" lon="6.87318">
        <ele>458.5</ele>
        <time>2010-05-29T11:43:24Z</time>
      </trkpt>
      <trkpt lat="47.62852" lon="6.87311">
        <ele>458.5</ele>
        <time>2010-05-29T11:43:25Z</time>
      </trkpt>
      <trkpt lat="47.62857" lon="6.87304">
        <ele>458.5</ele>
        <time>2010-05-29T11:43:26Z</time>
      </trkpt>
      <trkpt lat="47.62862" lon="6.87297">
        <ele>458</ele>
        <time>2010-05-29T11:43:27Z</time>
      </trkpt>
      <trkpt lat="47.62866" lon="6.87289">
        <ele>457.5</ele>
        <time>2010-05-29T11:43:28Z</time>
      </trkpt>
      <trkpt lat="47.6287" lon="6.8728">
        <ele>457.5</ele>
        <time>2010-05-29T11:43:29Z</time>
      </trkpt>
      <trkpt lat="47.62873" lon="6.8727">
        <ele>457</ele>
        <time>2010-05-29T11:43:30Z</time>
      </trkpt>
      <trkpt lat="47.62874" lon="6.8726">
        <ele>456.5</ele>
        <time>2010-05-29T11:43:31Z</time>
      </trkpt>
      <trkpt lat="47.62875" lon="6.87249">
        <ele>456</ele>
        <time>2010-05-29T11:43:32Z</time>
      </trkpt>
      <trkpt lat="47.62874" lon="6.87238">
        <ele>455.5</ele>
        <time>2010-05-29T11:43:33Z</time>
      </trkpt>
      <trkpt lat="47.62873" lon="6.87227">
        <ele>455.5</ele>
        <time>2010-05-29T11:43:34Z</time>
      </trkpt>
      <trkpt lat="47.62871" lon="6.87215">
        <ele>455</ele>
        <time>2010-05-29T11:43:35Z</time>
      </trkpt>
      <trkpt lat="47.62869" lon="6.87202">
        <ele>454.5</ele>
        <time>2010-05-29T11:43:36Z</time>
      </trkpt>
      <trkpt lat="47.62869" lon="6.8719">
        <ele>454</ele>
        <time>2010-05-29T11:43:37Z</time>
      </trkpt>
      <trkpt lat="47.6287" lon="6.87179">
        <ele>453.5</ele>
        <time>2010-05-29T11:43:38Z</time>
      </trkpt>
      <trkpt lat="47.62874" lon="6.87168">
        <ele>453.5</ele>
        <time>2010-05-29T11:43:39Z</time>
      </trkpt>
      <trkpt lat="47.62881" lon="6.8716">
        <ele>453</ele>
        <time>2010-05-29T11:43:40Z</time>
      </trkpt>
      <trkpt lat="47.62889" lon="6.87154">
        <ele>452</ele>
        <time>2010-05-29T11:43:41Z</time>
      </trkpt>
      <trkpt lat="47.62897" lon="6.87148">
        <ele>449.5</ele>
        <time>2010-05-29T11:43:42Z</time>
      </trkpt>
      <trkpt lat="47.62904" lon="6.8714">
        <ele>447.5</ele>
        <time>2010-05-29T11:43:43Z</time>
      </trkpt>
      <trkpt lat="47.62911" lon="6.87131">
        <ele>446</ele>
        <time>2010-05-29T11:43:44Z</time>
      </trkpt>
      <trkpt lat="47.62917" lon="6.87119">
        <ele>445</ele>
        <time>2010-05-29T11:43:45Z</time>
      </trkpt>
      <trkpt lat="47.62923" lon="6.87106">
        <ele>444</ele>
        <time>2010-05-29T11:43:46Z</time>
      </trkpt>
      <trkpt lat="47.62927" lon="6.87092">
        <ele>443.5</ele>
        <time>2010-05-29T11:43:47Z</time>
      </trkpt>
      <trkpt lat="47.62932" lon="6.87078">
        <ele>442.5</ele>
        <time>2010-05-29T11:43:48Z</time>
      </trkpt>
      <trkpt lat="47.62937" lon="6.87064">
        <ele>441.5</ele>
        <time>2010-05-29T11:43:49Z</time>
      </trkpt>
      <trkpt lat="47.62942" lon="6.8705">
        <ele>441</ele>
        <time>2010-05-29T11:43:50Z</time>
      </trkpt>
      <trkpt lat="47.62946" lon="6.87036">
        <ele>440.5</ele>
        <time>2010-05-29T11:43:51Z</time>
      </trkpt>
      <trkpt lat="47.62951" lon="6.87022">
        <ele>439.5</ele>
        <time>2010-05-29T11:43:52Z</time>
      </trkpt>
      <trkpt lat="47.62956" lon="6.87008">
        <ele>439</ele>
        <time>2010-05-29T11:43:53Z</time>
      </trkpt>
      <trkpt lat="47.6296" lon="6.86994">
        <ele>438.5</ele>
        <time>2010-05-29T11:43:54Z</time>
      </trkpt>
      <trkpt lat="47.62964" lon="6.86979">
        <ele>438</ele>
        <time>2010-05-29T11:43:55Z</time>
      </trkpt>
      <trkpt lat="47.62968" lon="6.86965">
        <ele>437</ele>
        <time>2010-05-29T11:43:56Z</time>
      </trkpt>
      <trkpt lat="47.62971" lon="6.86949">
        <ele>436.5</ele>
        <time>2010-05-29T11:43:57Z</time>
      </trkpt>
      <trkpt lat="47.62974" lon="6.86934">
        <ele>434.5</ele>
        <time>2010-05-29T11:43:58Z</time>
      </trkpt>
      <trkpt lat="47.62977" lon="6.86919">
        <ele>433</ele>
        <time>2010-05-29T11:43:59Z</time>
      </trkpt>
      <trkpt lat="47.62979" lon="6.86903">
        <ele>432</ele>
        <time>2010-05-29T11:44:00Z</time>
      </trkpt>
      <trkpt lat="47.6298" lon="6.86886">
        <ele>431.5</ele>
        <time>2010-05-29T11:44:01Z</time>
      </trkpt>
      <trkpt lat="47.62982" lon="6.86839">
        <ele>431.5</ele>
        <time>2010-05-29T11:44:05Z</time>
      </trkpt>
      <trkpt lat="47.6298" lon="6.86831">
        <ele>431.5</ele>
        <time>2010-05-29T11:44:06Z</time>
      </trkpt>
      <trkpt lat="47.6298" lon="6.86821">
        <ele>431.5</ele>
        <time>2010-05-29T11:44:07Z</time>
      </trkpt>
      <trkpt lat="47.62979" lon="6.86806">
        <ele>431</ele>
        <time>2010-05-29T11:44:07Z</time>
      </trkpt>
      <trkpt lat="47.62978" lon="6.86797">
        <ele>431</ele>
        <time>2010-05-29T11:44:09Z</time>
      </trkpt>
      <trkpt lat="47.62977" lon="6.86785">
        <ele>430.5</ele>
        <time>2010-05-29T11:44:10Z</time>
      </trkpt>
      <trkpt lat="47.62975" lon="6.86771">
        <ele>430.5</ele>
        <time>2010-05-29T11:44:12Z</time>
      </trkpt>
      <trkpt lat="47.62974" lon="6.86761">
        <ele>430</ele>
        <time>2010-05-29T11:44:13Z</time>
      </trkpt>
      <trkpt lat="47.62974" lon="6.8675">
        <ele>429.5</ele>
        <time>2010-05-29T11:44:14Z</time>
      </trkpt>
      <trkpt lat="47.62975" lon="6.86738">
        <ele>429</ele>
        <time>2010-05-29T11:44:15Z</time>
      </trkpt>
      <trkpt lat="47.62977" lon="6.86726">
        <ele>428.5</ele>
        <time>2010-05-29T11:44:16Z</time>
      </trkpt>
      <trkpt lat="47.62979" lon="6.86713">
        <ele>428</ele>
        <time>2010-05-29T11:44:17Z</time>
      </trkpt>
      <trkpt lat="47.62983" lon="6.86701">
        <ele>427.5</ele>
        <time>2010-05-29T11:44:18Z</time>
      </trkpt>
      <trkpt lat="47.62987" lon="6.86688">
        <ele>427</ele>
        <time>2010-05-29T11:44:19Z</time>
      </trkpt>
      <trkpt lat="47.62991" lon="6.86675">
        <ele>427.5</ele>
        <time>2010-05-29T11:44:20Z</time>
      </trkpt>
      <trkpt lat="47.62994" lon="6.86663">
        <ele>428</ele>
        <time>2010-05-29T11:44:21Z</time>
      </trkpt>
      <trkpt lat="47.62998" lon="6.86651">
        <ele>428.5</ele>
        <time>2010-05-29T11:44:22Z</time>
      </trkpt>
      <trkpt lat="47.63002" lon="6.86639">
        <ele>428</ele>
        <time>2010-05-29T11:44:23Z</time>
      </trkpt>
      <trkpt lat="47.63005" lon="6.86628">
        <ele>428</ele>
        <time>2010-05-29T11:44:24Z</time>
      </trkpt>
      <trkpt lat="47.63007" lon="6.86618">
        <ele>427</ele>
        <time>2010-05-29T11:44:25Z</time>
      </trkpt>
      <trkpt lat="47.6301" lon="6.8661">
        <ele>421.5</ele>
        <time>2010-05-29T11:44:26Z</time>
      </trkpt>
      <trkpt lat="47.63013" lon="6.86601">
        <ele>419</ele>
        <time>2010-05-29T11:44:27Z</time>
      </trkpt>
      <trkpt lat="47.63016" lon="6.86591">
        <ele>419</ele>
        <time>2010-05-29T11:44:28Z</time>
      </trkpt>
      <trkpt lat="47.63019" lon="6.86583">
        <ele>419</ele>
        <time>2010-05-29T11:44:29Z</time>
      </trkpt>
      <trkpt lat="47.63022" lon="6.86576">
        <ele>419.5</ele>
        <time>2010-05-29T11:44:30Z</time>
      </trkpt>
      <trkpt lat="47.63025" lon="6.86566">
        <ele>420</ele>
        <time>2010-05-29T11:44:32Z</time>
      </trkpt>
      <trkpt lat="47.63028" lon="6.86561">
        <ele>420.5</ele>
        <time>2010-05-29T11:44:36Z</time>
      </trkpt>
      <trkpt lat="47.63031" lon="6.86556">
        <ele>419.5</ele>
        <time>2010-05-29T11:44:46Z</time>
      </trkpt>
      <trkpt lat="47.63031" lon="6.86556">
        <ele>419.5</ele>
        <time>2010-05-29T11:44:52Z</time>
      </trkpt>
      <trkpt lat="47.63035" lon="6.86552">
        <ele>415.5</ele>
        <time>2010-05-29T11:45:05Z</time>
      </trkpt>
      <trkpt lat="47.63037" lon="6.8655">
        <ele>415</ele>
        <time>2010-05-29T11:45:06Z</time>
      </trkpt>
      <trkpt lat="47.63042" lon="6.86546">
        <ele>415.5</ele>
        <time>2010-05-29T11:45:08Z</time>
      </trkpt>
      <trkpt lat="47.63046" lon="6.86554">
        <ele>415.5</ele>
        <time>2010-05-29T11:45:12Z</time>
      </trkpt>
      <trkpt lat="47.63049" lon="6.86562">
        <ele>416.5</ele>
        <time>2010-05-29T11:45:14Z</time>
      </trkpt>
      <trkpt lat="47.63052" lon="6.86568">
        <ele>417</ele>
        <time>2010-05-29T11:45:16Z</time>
      </trkpt>
      <trkpt lat="47.63055" lon="6.86574">
        <ele>417.5</ele>
        <time>2010-05-29T11:45:18Z</time>
      </trkpt>
      <trkpt lat="47.63058" lon="6.8658">
        <ele>418</ele>
        <time>2010-05-29T11:45:20Z</time>
      </trkpt>
      <trkpt lat="47.6306" lon="6.86587">
        <ele>418.5</ele>
        <time>2010-05-29T11:45:22Z</time>
      </trkpt>
      <trkpt lat="47.63062" lon="6.86593">
        <ele>419.5</ele>
        <time>2010-05-29T11:45:24Z</time>
      </trkpt>
      <trkpt lat="47.63064" lon="6.86599">
        <ele>420.5</ele>
        <time>2010-05-29T11:45:26Z</time>
      </trkpt>
      <trkpt lat="47.63068" lon="6.86605">
        <ele>421</ele>
        <time>2010-05-29T11:45:28Z</time>
      </trkpt>
      <trkpt lat="47.63073" lon="6.86608">
        <ele>421.5</ele>
        <time>2010-05-29T11:45:30Z</time>
      </trkpt>
      <trkpt lat="47.63077" lon="6.86609">
        <ele>422</ele>
        <time>2010-05-29T11:45:32Z</time>
      </trkpt>
      <trkpt lat="47.63082" lon="6.86608">
        <ele>422.5</ele>
        <time>2010-05-29T11:45:34Z</time>
      </trkpt>
      <trkpt lat="47.63087" lon="6.86605">
        <ele>422.5</ele>
        <time>2010-05-29T11:45:36Z</time>
      </trkpt>
      <trkpt lat="47.63092" lon="6.86602">
        <ele>423.5</ele>
        <time>2010-05-29T11:45:38Z</time>
      </trkpt>
      <trkpt lat="47.63096" lon="6.86598">
        <ele>424</ele>
        <time>2010-05-29T11:45:40Z</time>
      </trkpt>
      <trkpt lat="47.63101" lon="6.86595">
        <ele>424.5</ele>
        <time>2010-05-29T11:45:42Z</time>
      </trkpt>
      <trkpt lat="47.63106" lon="6.86592">
        <ele>423.5</ele>
        <time>2010-05-29T11:45:44Z</time>
      </trkpt>
      <trkpt lat="47.63111" lon="6.86589">
        <ele>424</ele>
        <time>2010-05-29T11:45:46Z</time>
      </trkpt>
      <trkpt lat="47.63116" lon="6.86586">
        <ele>424.5</ele>
        <time>2010-05-29T11:45:48Z</time>
      </trkpt>
      <trkpt lat="47.63121" lon="6.86584">
        <ele>424.5</ele>
        <time>2010-05-29T11:45:50Z</time>
      </trkpt>
      <trkpt lat="47.63126" lon="6.86581">
        <ele>424.5</ele>
        <time>2010-05-29T11:45:52Z</time>
      </trkpt>
      <trkpt lat="47.63131" lon="6.86577">
        <ele>424</ele>
        <time>2010-05-29T11:45:54Z</time>
      </trkpt>
      <trkpt lat="47.63137" lon="6.86575">
        <ele>424</ele>
        <time>2010-05-29T11:45:56Z</time>
      </trkpt>
      <trkpt lat="47.63142" lon="6.86572">
        <ele>423.5</ele>
        <time>2010-05-29T11:45:58Z</time>
      </trkpt>
      <trkpt lat="47.63148" lon="6.86568">
        <ele>422.5</ele>
        <time>2010-05-29T11:46:00Z</time>
      </trkpt>
      <trkpt lat="47.63152" lon="6.86565">
        <ele>422</ele>
        <time>2010-05-29T11:46:02Z</time>
      </trkpt>
      <trkpt lat="47.63155" lon="6.86559">
        <ele>422.5</ele>
        <time>2010-05-29T11:46:04Z</time>
      </trkpt>
      <trkpt lat="47.6316" lon="6.86551">
        <ele>422</ele>
        <time>2010-05-29T11:46:06Z</time>
      </trkpt>
      <trkpt lat="47.63168" lon="6.86542">
        <ele>422.5</ele>
        <time>2010-05-29T11:46:07Z</time>
      </trkpt>
      <trkpt lat="47.63174" lon="6.86535">
        <ele>422</ele>
        <time>2010-05-29T11:46:10Z</time>
      </trkpt>
      <trkpt lat="47.63178" lon="6.86529">
        <ele>421.5</ele>
        <time>2010-05-29T11:46:12Z</time>
      </trkpt>
      <trkpt lat="47.63182" lon="6.86525">
        <ele>420.5</ele>
        <time>2010-05-29T11:46:13Z</time>
      </trkpt>
      <trkpt lat="47.63185" lon="6.8652">
        <ele>420.5</ele>
        <time>2010-05-29T11:46:14Z</time>
      </trkpt>
      <trkpt lat="47.63191" lon="6.86512">
        <ele>420</ele>
        <time>2010-05-29T11:46:16Z</time>
      </trkpt>
      <trkpt lat="47.63196" lon="6.86505">
        <ele>420.5</ele>
        <time>2010-05-29T11:46:18Z</time>
      </trkpt>
      <trkpt lat="47.632" lon="6.86501">
        <ele>421</ele>
        <time>2010-05-29T11:46:20Z</time>
      </trkpt>
      <trkpt lat="47.63206" lon="6.86497">
        <ele>422</ele>
        <time>2010-05-29T11:46:23Z</time>
      </trkpt>
      <trkpt lat="47.63211" lon="6.86493">
        <ele>423</ele>
        <time>2010-05-29T11:46:26Z</time>
      </trkpt>
      <trkpt lat="47.63216" lon="6.86491">
        <ele>424</ele>
        <time>2010-05-29T11:46:29Z</time>
      </trkpt>
      <trkpt lat="47.63221" lon="6.8649">
        <ele>425</ele>
        <time>2010-05-29T11:46:32Z</time>
      </trkpt>
      <trkpt lat="47.63225" lon="6.86489">
        <ele>425</ele>
        <time>2010-05-29T11:46:34Z</time>
      </trkpt>
      <trkpt lat="47.6323" lon="6.86487">
        <ele>426.5</ele>
        <time>2010-05-29T11:46:37Z</time>
      </trkpt>
      <trkpt lat="47.63236" lon="6.86485">
        <ele>429</ele>
        <time>2010-05-29T11:46:41Z</time>
      </trkpt>
      <trkpt lat="47.63241" lon="6.86483">
        <ele>430</ele>
        <time>2010-05-29T11:46:44Z</time>
      </trkpt>
      <trkpt lat="47.63245" lon="6.86481">
        <ele>430.5</ele>
        <time>2010-05-29T11:46:47Z</time>
      </trkpt>
      <trkpt lat="47.6325" lon="6.86477">
        <ele>430</ele>
        <time>2010-05-29T11:46:50Z</time>
      </trkpt>
      <trkpt lat="47.63256" lon="6.86473">
        <ele>430.5</ele>
        <time>2010-05-29T11:46:53Z</time>
      </trkpt>
      <trkpt lat="47.63261" lon="6.86469">
        <ele>430.5</ele>
        <time>2010-05-29T11:46:56Z</time>
      </trkpt>
      <trkpt lat="47.63265" lon="6.86466">
        <ele>431</ele>
        <time>2010-05-29T11:46:59Z</time>
      </trkpt>
      <trkpt lat="47.6327" lon="6.86463">
        <ele>430.5</ele>
        <time>2010-05-29T11:47:02Z</time>
      </trkpt>
      <trkpt lat="47.63275" lon="6.8646">
        <ele>430.5</ele>
        <time>2010-05-29T11:47:05Z</time>
      </trkpt>
      <trkpt lat="47.6328" lon="6.86457">
        <ele>430.5</ele>
        <time>2010-05-29T11:47:07Z</time>
      </trkpt>
      <trkpt lat="47.63286" lon="6.86453">
        <ele>430.5</ele>
        <time>2010-05-29T11:47:12Z</time>
      </trkpt>
      <trkpt lat="47.63291" lon="6.86449">
        <ele>430</ele>
        <time>2010-05-29T11:47:15Z</time>
      </trkpt>
      <trkpt lat="47.63295" lon="6.86446">
        <ele>430.5</ele>
        <time>2010-05-29T11:47:18Z</time>
      </trkpt>
      <trkpt lat="47.633" lon="6.86444">
        <ele>430.5</ele>
        <time>2010-05-29T11:47:21Z</time>
      </trkpt>
      <trkpt lat="47.63305" lon="6.86442">
        <ele>431.5</ele>
        <time>2010-05-29T11:47:24Z</time>
      </trkpt>
      <trkpt lat="47.6331" lon="6.86439">
        <ele>431</ele>
        <time>2010-05-29T11:47:27Z</time>
      </trkpt>
      <trkpt lat="47.63315" lon="6.86438">
        <ele>432</ele>
        <time>2010-05-29T11:47:30Z</time>
      </trkpt>
      <trkpt lat="47.6332" lon="6.86436">
        <ele>433</ele>
        <time>2010-05-29T11:47:33Z</time>
      </trkpt>
      <trkpt lat="47.63325" lon="6.86434">
        <ele>433.5</ele>
        <time>2010-05-29T11:47:36Z</time>
      </trkpt>
      <trkpt lat="47.63329" lon="6.86433">
        <ele>434.5</ele>
        <time>2010-05-29T11:47:39Z</time>
      </trkpt>
      <trkpt lat="47.63334" lon="6.8643">
        <ele>435.5</ele>
        <time>2010-05-29T11:47:42Z</time>
      </trkpt>
      <trkpt lat="47.63339" lon="6.86428">
        <ele>436.5</ele>
        <time>2010-05-29T11:47:45Z</time>
      </trkpt>
      <trkpt lat="47.63343" lon="6.86426">
        <ele>437</ele>
        <time>2010-05-29T11:47:48Z</time>
      </trkpt>
      <trkpt lat="47.63348" lon="6.86423">
        <ele>437.5</ele>
        <time>2010-05-29T11:47:51Z</time>
      </trkpt>
      <trkpt lat="47.63353" lon="6.86421">
        <ele>438.5</ele>
        <time>2010-05-29T11:47:54Z</time>
      </trkpt>
      <trkpt lat="47.63358" lon="6.86419">
        <ele>439</ele>
        <time>2010-05-29T11:47:57Z</time>
      </trkpt>
      <trkpt lat="47.63362" lon="6.86416">
        <ele>440</ele>
        <time>2010-05-29T11:48:00Z</time>
      </trkpt>
      <trkpt lat="47.63366" lon="6.86412">
        <ele>440</ele>
        <time>2010-05-29T11:48:03Z</time>
      </trkpt>
      <trkpt lat="47.63372" lon="6.86408">
        <ele>439.5</ele>
        <time>2010-05-29T11:48:05Z</time>
      </trkpt>
      <trkpt lat="47.63379" lon="6.86408">
        <ele>438.5</ele>
        <time>2010-05-29T11:48:07Z</time>
      </trkpt>
      <trkpt lat="47.63385" lon="6.8641">
        <ele>438</ele>
        <time>2010-05-29T11:48:07Z</time>
      </trkpt>
      <trkpt lat="47.63388" lon="6.86418">
        <ele>439</ele>
        <time>2010-05-29T11:48:10Z</time>
      </trkpt>
      <trkpt lat="47.6339" lon="6.86423">
        <ele>439</ele>
        <time>2010-05-29T11:48:12Z</time>
      </trkpt>
      <trkpt lat="47.63394" lon="6.86432">
        <ele>439.5</ele>
        <time>2010-05-29T11:48:14Z</time>
      </trkpt>
      <trkpt lat="47.63398" lon="6.8644">
        <ele>440.5</ele>
        <time>2010-05-29T11:48:16Z</time>
      </trkpt>
      <trkpt lat="47.63403" lon="6.86449">
        <ele>441</ele>
        <time>2010-05-29T11:48:18Z</time>
      </trkpt>
      <trkpt lat="47.63408" lon="6.86458">
        <ele>441.5</ele>
        <time>2010-05-29T11:48:20Z</time>
      </trkpt>
      <trkpt lat="47.63413" lon="6.86466">
        <ele>442</ele>
        <time>2010-05-29T11:48:22Z</time>
      </trkpt>
      <trkpt lat="47.63418" lon="6.86474">
        <ele>442</ele>
        <time>2010-05-29T11:48:24Z</time>
      </trkpt>
      <trkpt lat="47.63423" lon="6.86481">
        <ele>442.5</ele>
        <time>2010-05-29T11:48:26Z</time>
      </trkpt>
      <trkpt lat="47.63428" lon="6.86488">
        <ele>443.5</ele>
        <time>2010-05-29T11:48:28Z</time>
      </trkpt>
      <trkpt lat="47.63432" lon="6.86496">
        <ele>443</ele>
        <time>2010-05-29T11:48:30Z</time>
      </trkpt>
      <trkpt lat="47.63433" lon="6.86503">
        <ele>442.5</ele>
        <time>2010-05-29T11:48:31Z</time>
      </trkpt>
      <trkpt lat="47.63433" lon="6.8651">
        <ele>443</ele>
        <time>2010-05-29T11:48:32Z</time>
      </trkpt>
      <trkpt lat="47.63433" lon="6.86517">
        <ele>443</ele>
        <time>2010-05-29T11:48:33Z</time>
      </trkpt>
      <trkpt lat="47.63435" lon="6.8653">
        <ele>443</ele>
        <time>2010-05-29T11:48:35Z</time>
      </trkpt>
      <trkpt lat="47.63441" lon="6.86537">
        <ele>443.5</ele>
        <time>2010-05-29T11:48:37Z</time>
      </trkpt>
      <trkpt lat="47.63448" lon="6.86541">
        <ele>444</ele>
        <time>2010-05-29T11:48:39Z</time>
      </trkpt>
      <trkpt lat="47.63455" lon="6.8654">
        <ele>444</ele>
        <time>2010-05-29T11:48:41Z</time>
      </trkpt>
      <trkpt lat="47.63458" lon="6.86535">
        <ele>442.5</ele>
        <time>2010-05-29T11:48:50Z</time>
      </trkpt>
      <trkpt lat="47.63456" lon="6.86527">
        <ele>440.5</ele>
        <time>2010-05-29T11:48:59Z</time>
      </trkpt>
      <trkpt lat="47.63457" lon="6.8652">
        <ele>439.5</ele>
        <time>2010-05-29T11:49:02Z</time>
      </trkpt>
      <trkpt lat="47.63461" lon="6.86525">
        <ele>438.5</ele>
        <time>2010-05-29T11:49:05Z</time>
      </trkpt>
      <trkpt lat="47.63465" lon="6.86534">
        <ele>437.5</ele>
        <time>2010-05-29T11:49:07Z</time>
      </trkpt>
      <trkpt lat="47.63467" lon="6.86542">
        <ele>437</ele>
        <time>2010-05-29T11:49:07Z</time>
      </trkpt>
      <trkpt lat="47.6347" lon="6.86553">
        <ele>438.5</ele>
        <time>2010-05-29T11:49:10Z</time>
      </trkpt>
      <trkpt lat="47.63471" lon="6.86561">
        <ele>439</ele>
        <time>2010-05-29T11:49:12Z</time>
      </trkpt>
      <trkpt lat="47.63474" lon="6.86572">
        <ele>439</ele>
        <time>2010-05-29T11:49:14Z</time>
      </trkpt>
      <trkpt lat="47.63477" lon="6.86583">
        <ele>439.5</ele>
        <time>2010-05-29T11:49:16Z</time>
      </trkpt>
      <trkpt lat="47.63478" lon="6.86596">
        <ele>439.5</ele>
        <time>2010-05-29T11:49:18Z</time>
      </trkpt>
      <trkpt lat="47.63479" lon="6.86603">
        <ele>439.5</ele>
        <time>2010-05-29T11:49:19Z</time>
      </trkpt>
      <trkpt lat="47.63479" lon="6.8661">
        <ele>439</ele>
        <time>2010-05-29T11:49:20Z</time>
      </trkpt>
      <trkpt lat="47.6348" lon="6.86616">
        <ele>439</ele>
        <time>2010-05-29T11:49:21Z</time>
      </trkpt>
      <trkpt lat="47.6348" lon="6.86623">
        <ele>439</ele>
        <time>2010-05-29T11:49:22Z</time>
      </trkpt>
      <trkpt lat="47.63481" lon="6.8663">
        <ele>439</ele>
        <time>2010-05-29T11:49:23Z</time>
      </trkpt>
      <trkpt lat="47.63482" lon="6.86636">
        <ele>439.5</ele>
        <time>2010-05-29T11:49:24Z</time>
      </trkpt>
      <trkpt lat="47.63483" lon="6.86643">
        <ele>439</ele>
        <time>2010-05-29T11:49:25Z</time>
      </trkpt>
      <trkpt lat="47.63488" lon="6.86654">
        <ele>439</ele>
        <time>2010-05-29T11:49:27Z</time>
      </trkpt>
      <trkpt lat="47.63496" lon="6.8666">
        <ele>440</ele>
        <time>2010-05-29T11:49:29Z</time>
      </trkpt>
      <trkpt lat="47.63501" lon="6.86662">
        <ele>440</ele>
        <time>2010-05-29T11:49:30Z</time>
      </trkpt>
      <trkpt lat="47.63506" lon="6.86664">
        <ele>440</ele>
        <time>2010-05-29T11:49:31Z</time>
      </trkpt>
      <trkpt lat="47.63511" lon="6.86665">
        <ele>440</ele>
        <time>2010-05-29T11:49:32Z</time>
      </trkpt>
      <trkpt lat="47.63516" lon="6.86667">
        <ele>440</ele>
        <time>2010-05-29T11:49:33Z</time>
      </trkpt>
      <trkpt lat="47.6352" lon="6.86668">
        <ele>440</ele>
        <time>2010-05-29T11:49:34Z</time>
      </trkpt>
      <trkpt lat="47.63528" lon="6.86669">
        <ele>440</ele>
        <time>2010-05-29T11:49:36Z</time>
      </trkpt>
      <trkpt lat="47.63537" lon="6.8667">
        <ele>440</ele>
        <time>2010-05-29T11:49:38Z</time>
      </trkpt>
      <trkpt lat="47.63544" lon="6.86671">
        <ele>441</ele>
        <time>2010-05-29T11:49:40Z</time>
      </trkpt>
      <trkpt lat="47.63551" lon="6.86672">
        <ele>441.5</ele>
        <time>2010-05-29T11:49:42Z</time>
      </trkpt>
      <trkpt lat="47.63559" lon="6.86676">
        <ele>441.5</ele>
        <time>2010-05-29T11:49:44Z</time>
      </trkpt>
      <trkpt lat="47.63566" lon="6.8668">
        <ele>441.5</ele>
        <time>2010-05-29T11:49:46Z</time>
      </trkpt>
      <trkpt lat="47.63573" lon="6.86685">
        <ele>441.5</ele>
        <time>2010-05-29T11:49:48Z</time>
      </trkpt>
      <trkpt lat="47.63581" lon="6.86692">
        <ele>441.5</ele>
        <time>2010-05-29T11:49:50Z</time>
      </trkpt>
      <trkpt lat="47.63584" lon="6.86697">
        <ele>441.5</ele>
        <time>2010-05-29T11:49:51Z</time>
      </trkpt>
      <trkpt lat="47.63588" lon="6.86701">
        <ele>441.5</ele>
        <time>2010-05-29T11:49:52Z</time>
      </trkpt>
      <trkpt lat="47.63591" lon="6.86705">
        <ele>441.5</ele>
        <time>2010-05-29T11:49:53Z</time>
      </trkpt>
      <trkpt lat="47.63595" lon="6.86709">
        <ele>442</ele>
        <time>2010-05-29T11:49:54Z</time>
      </trkpt>
      <trkpt lat="47.63602" lon="6.86718">
        <ele>442</ele>
        <time>2010-05-29T11:49:56Z</time>
      </trkpt>
      <trkpt lat="47.63606" lon="6.86722">
        <ele>442.5</ele>
        <time>2010-05-29T11:49:57Z</time>
      </trkpt>
      <trkpt lat="47.63609" lon="6.86726">
        <ele>443</ele>
        <time>2010-05-29T11:49:58Z</time>
      </trkpt>
      <trkpt lat="47.63613" lon="6.8673">
        <ele>443</ele>
        <time>2010-05-29T11:49:59Z</time>
      </trkpt>
      <trkpt lat="47.63617" lon="6.86734">
        <ele>443.5</ele>
        <time>2010-05-29T11:50:00Z</time>
      </trkpt>
      <trkpt lat="47.63621" lon="6.86738">
        <ele>444</ele>
        <time>2010-05-29T11:50:01Z</time>
      </trkpt>
      <trkpt lat="47.63624" lon="6.86741">
        <ele>444.5</ele>
        <time>2010-05-29T11:50:02Z</time>
      </trkpt>
      <trkpt lat="47.63631" lon="6.86749">
        <ele>445</ele>
        <time>2010-05-29T11:50:04Z</time>
      </trkpt>
      <trkpt lat="47.63635" lon="6.86753">
        <ele>445</ele>
        <time>2010-05-29T11:50:05Z</time>
      </trkpt>
      <trkpt lat="47.63639" lon="6.86757">
        <ele>445</ele>
        <time>2010-05-29T11:50:06Z</time>
      </trkpt>
      <trkpt lat="47.63643" lon="6.86761">
        <ele>445</ele>
        <time>2010-05-29T11:50:07Z</time>
      </trkpt>
      <trkpt lat="47.6365" lon="6.86768">
        <ele>444.5</ele>
        <time>2010-05-29T11:50:07Z</time>
      </trkpt>
      <trkpt lat="47.63653" lon="6.86774">
        <ele>444.5</ele>
        <time>2010-05-29T11:50:09Z</time>
      </trkpt>
      <trkpt lat="47.63658" lon="6.8678">
        <ele>444.5</ele>
        <time>2010-05-29T11:50:10Z</time>
      </trkpt>
      <trkpt lat="47.63667" lon="6.86784">
        <ele>445</ele>
        <time>2010-05-29T11:50:12Z</time>
      </trkpt>
      <trkpt lat="47.63669" lon="6.86775">
        <ele>445</ele>
        <time>2010-05-29T11:50:13Z</time>
      </trkpt>
      <trkpt lat="47.63676" lon="6.86768">
        <ele>445</ele>
        <time>2010-05-29T11:50:15Z</time>
      </trkpt>
      <trkpt lat="47.63682" lon="6.86759">
        <ele>445</ele>
        <time>2010-05-29T11:50:17Z</time>
      </trkpt>
      <trkpt lat="47.63688" lon="6.86751">
        <ele>446.5</ele>
        <time>2010-05-29T11:50:19Z</time>
      </trkpt>
      <trkpt lat="47.63693" lon="6.86743">
        <ele>447</ele>
        <time>2010-05-29T11:50:21Z</time>
      </trkpt>
      <trkpt lat="47.63699" lon="6.86735">
        <ele>447</ele>
        <time>2010-05-29T11:50:23Z</time>
      </trkpt>
      <trkpt lat="47.63706" lon="6.86727">
        <ele>448</ele>
        <time>2010-05-29T11:50:25Z</time>
      </trkpt>
      <trkpt lat="47.63714" lon="6.86722">
        <ele>447.5</ele>
        <time>2010-05-29T11:50:27Z</time>
      </trkpt>
      <trkpt lat="47.63722" lon="6.86722">
        <ele>447</ele>
        <time>2010-05-29T11:50:29Z</time>
      </trkpt>
      <trkpt lat="47.63731" lon="6.86723">
        <ele>447.5</ele>
        <time>2010-05-29T11:50:31Z</time>
      </trkpt>
      <trkpt lat="47.63739" lon="6.86723">
        <ele>447.5</ele>
        <time>2010-05-29T11:50:33Z</time>
      </trkpt>
      <trkpt lat="47.63747" lon="6.86723">
        <ele>448</ele>
        <time>2010-05-29T11:50:35Z</time>
      </trkpt>
      <trkpt lat="47.63755" lon="6.86723">
        <ele>447.5</ele>
        <time>2010-05-29T11:50:37Z</time>
      </trkpt>
      <trkpt lat="47.63763" lon="6.86725">
        <ele>447</ele>
        <time>2010-05-29T11:50:39Z</time>
      </trkpt>
      <trkpt lat="47.63771" lon="6.86731">
        <ele>446.5</ele>
        <time>2010-05-29T11:50:41Z</time>
      </trkpt>
      <trkpt lat="47.63775" lon="6.86736">
        <ele>446</ele>
        <time>2010-05-29T11:50:42Z</time>
      </trkpt>
      <trkpt lat="47.63778" lon="6.86741">
        <ele>446</ele>
        <time>2010-05-29T11:50:43Z</time>
      </trkpt>
      <trkpt lat="47.63781" lon="6.86747">
        <ele>446</ele>
        <time>2010-05-29T11:50:44Z</time>
      </trkpt>
      <trkpt lat="47.63784" lon="6.86754">
        <ele>446</ele>
        <time>2010-05-29T11:50:45Z</time>
      </trkpt>
      <trkpt lat="47.63787" lon="6.86761">
        <ele>446</ele>
        <time>2010-05-29T11:50:46Z</time>
      </trkpt>
      <trkpt lat="47.63791" lon="6.86767">
        <ele>446</ele>
        <time>2010-05-29T11:50:47Z</time>
      </trkpt>
      <trkpt lat="47.63794" lon="6.86774">
        <ele>445.5</ele>
        <time>2010-05-29T11:50:48Z</time>
      </trkpt>
      <trkpt lat="47.63797" lon="6.86782">
        <ele>446</ele>
        <time>2010-05-29T11:50:49Z</time>
      </trkpt>
      <trkpt lat="47.63801" lon="6.86789">
        <ele>445.5</ele>
        <time>2010-05-29T11:50:50Z</time>
      </trkpt>
      <trkpt lat="47.63804" lon="6.86795">
        <ele>446</ele>
        <time>2010-05-29T11:50:51Z</time>
      </trkpt>
      <trkpt lat="47.63808" lon="6.86802">
        <ele>446</ele>
        <time>2010-05-29T11:50:52Z</time>
      </trkpt>
      <trkpt lat="47.63811" lon="6.86808">
        <ele>446.5</ele>
        <time>2010-05-29T11:50:53Z</time>
      </trkpt>
      <trkpt lat="47.63815" lon="6.86814">
        <ele>447</ele>
        <time>2010-05-29T11:50:54Z</time>
      </trkpt>
      <trkpt lat="47.63819" lon="6.86821">
        <ele>447</ele>
        <time>2010-05-29T11:50:55Z</time>
      </trkpt>
      <trkpt lat="47.63822" lon="6.86827">
        <ele>447.5</ele>
        <time>2010-05-29T11:50:56Z</time>
      </trkpt>
      <trkpt lat="47.63826" lon="6.86834">
        <ele>447.5</ele>
        <time>2010-05-29T11:50:57Z</time>
      </trkpt>
      <trkpt lat="47.63829" lon="6.86841">
        <ele>447.5</ele>
        <time>2010-05-29T11:50:58Z</time>
      </trkpt>
      <trkpt lat="47.63832" lon="6.86848">
        <ele>447.5</ele>
        <time>2010-05-29T11:50:59Z</time>
      </trkpt>
      <trkpt lat="47.63836" lon="6.86855">
        <ele>447.5</ele>
        <time>2010-05-29T11:51:00Z</time>
      </trkpt>
      <trkpt lat="47.63839" lon="6.86863">
        <ele>448</ele>
        <time>2010-05-29T11:51:01Z</time>
      </trkpt>
      <trkpt lat="47.63842" lon="6.8687">
        <ele>448</ele>
        <time>2010-05-29T11:51:02Z</time>
      </trkpt>
      <trkpt lat="47.63845" lon="6.86877">
        <ele>448</ele>
        <time>2010-05-29T11:51:03Z</time>
      </trkpt>
      <trkpt lat="47.63848" lon="6.86885">
        <ele>448.5</ele>
        <time>2010-05-29T11:51:04Z</time>
      </trkpt>
      <trkpt lat="47.63851" lon="6.86893">
        <ele>449.5</ele>
        <time>2010-05-29T11:51:05Z</time>
      </trkpt>
      <trkpt lat="47.63853" lon="6.86901">
        <ele>449.5</ele>
        <time>2010-05-29T11:51:06Z</time>
      </trkpt>
      <trkpt lat="47.63855" lon="6.86909">
        <ele>449.5</ele>
        <time>2010-05-29T11:51:07Z</time>
      </trkpt>
      <trkpt lat="47.63857" lon="6.86922">
        <ele>449.5</ele>
        <time>2010-05-29T11:51:07Z</time>
      </trkpt>
      <trkpt lat="47.63858" lon="6.8693">
        <ele>449.5</ele>
        <time>2010-05-29T11:51:09Z</time>
      </trkpt>
      <trkpt lat="47.63859" lon="6.86939">
        <ele>449.5</ele>
        <time>2010-05-29T11:51:10Z</time>
      </trkpt>
      <trkpt lat="47.63861" lon="6.86948">
        <ele>449.5</ele>
        <time>2010-05-29T11:51:12Z</time>
      </trkpt>
      <trkpt lat="47.63863" lon="6.86956">
        <ele>450</ele>
        <time>2010-05-29T11:51:13Z</time>
      </trkpt>
      <trkpt lat="47.63865" lon="6.86962">
        <ele>450</ele>
        <time>2010-05-29T11:51:14Z</time>
      </trkpt>
      <trkpt lat="47.63868" lon="6.86969">
        <ele>449.5</ele>
        <time>2010-05-29T11:51:15Z</time>
      </trkpt>
      <trkpt lat="47.63871" lon="6.86976">
        <ele>449</ele>
        <time>2010-05-29T11:51:16Z</time>
      </trkpt>
      <trkpt lat="47.63874" lon="6.86983">
        <ele>449</ele>
        <time>2010-05-29T11:51:17Z</time>
      </trkpt>
      <trkpt lat="47.63879" lon="6.86993">
        <ele>449.5</ele>
        <time>2010-05-29T11:51:19Z</time>
      </trkpt>
      <trkpt lat="47.63885" lon="6.86998">
        <ele>450.5</ele>
        <time>2010-05-29T11:51:21Z</time>
      </trkpt>
      <trkpt lat="47.63889" lon="6.87003">
        <ele>451</ele>
        <time>2010-05-29T11:51:23Z</time>
      </trkpt>
      <trkpt lat="47.63894" lon="6.87009">
        <ele>451.5</ele>
        <time>2010-05-29T11:51:25Z</time>
      </trkpt>
      <trkpt lat="47.63897" lon="6.87014">
        <ele>452</ele>
        <time>2010-05-29T11:51:27Z</time>
      </trkpt>
      <trkpt lat="47.63901" lon="6.8702">
        <ele>451</ele>
        <time>2010-05-29T11:51:29Z</time>
      </trkpt>
      <trkpt lat="47.63906" lon="6.87025">
        <ele>451.5</ele>
        <time>2010-05-29T11:51:32Z</time>
      </trkpt>
      <trkpt lat="47.6391" lon="6.8703">
        <ele>453</ele>
        <time>2010-05-29T11:51:35Z</time>
      </trkpt>
      <trkpt lat="47.63914" lon="6.87034">
        <ele>454</ele>
        <time>2010-05-29T11:51:43Z</time>
      </trkpt>
      <trkpt lat="47.63917" lon="6.87039">
        <ele>455</ele>
        <time>2010-05-29T11:51:47Z</time>
      </trkpt>
      <trkpt lat="47.63921" lon="6.87044">
        <ele>455</ele>
        <time>2010-05-29T11:51:54Z</time>
      </trkpt>
      <trkpt lat="47.63926" lon="6.87051">
        <ele>454</ele>
        <time>2010-05-29T11:51:58Z</time>
      </trkpt>
      <trkpt lat="47.63933" lon="6.87055">
        <ele>454</ele>
        <time>2010-05-29T11:52:00Z</time>
      </trkpt>
      <trkpt lat="47.6394" lon="6.87058">
        <ele>456</ele>
        <time>2010-05-29T11:52:02Z</time>
      </trkpt>
      <trkpt lat="47.63945" lon="6.87056">
        <ele>455.5</ele>
        <time>2010-05-29T11:52:04Z</time>
      </trkpt>
      <trkpt lat="47.63949" lon="6.87053">
        <ele>455.5</ele>
        <time>2010-05-29T11:52:06Z</time>
      </trkpt>
      <trkpt lat="47.63954" lon="6.87051">
        <ele>455.5</ele>
        <time>2010-05-29T11:52:07Z</time>
      </trkpt>
      <trkpt lat="47.63959" lon="6.87048">
        <ele>455.5</ele>
        <time>2010-05-29T11:52:10Z</time>
      </trkpt>
      <trkpt lat="47.63963" lon="6.87043">
        <ele>454.5</ele>
        <time>2010-05-29T11:52:13Z</time>
      </trkpt>
      <trkpt lat="47.63967" lon="6.87037">
        <ele>455</ele>
        <time>2010-05-29T11:52:15Z</time>
      </trkpt>
      <trkpt lat="47.63971" lon="6.87034">
        <ele>455.5</ele>
        <time>2010-05-29T11:52:17Z</time>
      </trkpt>
      <trkpt lat="47.63975" lon="6.8703">
        <ele>455</ele>
        <time>2010-05-29T11:52:19Z</time>
      </trkpt>
      <trkpt lat="47.63978" lon="6.87024">
        <ele>454.5</ele>
        <time>2010-05-29T11:52:21Z</time>
      </trkpt>
      <trkpt lat="47.63984" lon="6.8702">
        <ele>455</ele>
        <time>2010-05-29T11:52:24Z</time>
      </trkpt>
      <trkpt lat="47.63988" lon="6.87018">
        <ele>455.5</ele>
        <time>2010-05-29T11:52:26Z</time>
      </trkpt>
      <trkpt lat="47.63994" lon="6.87018">
        <ele>456</ele>
        <time>2010-05-29T11:52:29Z</time>
      </trkpt>
      <trkpt lat="47.63999" lon="6.87024">
        <ele>456</ele>
        <time>2010-05-29T11:52:32Z</time>
      </trkpt>
      <trkpt lat="47.64003" lon="6.87031">
        <ele>456.5</ele>
        <time>2010-05-29T11:52:35Z</time>
      </trkpt>
      <trkpt lat="47.64008" lon="6.87035">
        <ele>457</ele>
        <time>2010-05-29T11:52:37Z</time>
      </trkpt>
      <trkpt lat="47.64012" lon="6.87037">
        <ele>457</ele>
        <time>2010-05-29T11:52:39Z</time>
      </trkpt>
      <trkpt lat="47.64016" lon="6.8704">
        <ele>457.5</ele>
        <time>2010-05-29T11:52:41Z</time>
      </trkpt>
      <trkpt lat="47.64019" lon="6.87047">
        <ele>457.5</ele>
        <time>2010-05-29T11:52:44Z</time>
      </trkpt>
      <trkpt lat="47.64018" lon="6.87057">
        <ele>458.5</ele>
        <time>2010-05-29T11:52:47Z</time>
      </trkpt>
      <trkpt lat="47.64018" lon="6.87063">
        <ele>459</ele>
        <time>2010-05-29T11:52:49Z</time>
      </trkpt>
      <trkpt lat="47.64018" lon="6.8707">
        <ele>459.5</ele>
        <time>2010-05-29T11:52:51Z</time>
      </trkpt>
      <trkpt lat="47.64019" lon="6.8708">
        <ele>461</ele>
        <time>2010-05-29T11:52:54Z</time>
      </trkpt>
      <trkpt lat="47.6402" lon="6.87087">
        <ele>461.5</ele>
        <time>2010-05-29T11:52:56Z</time>
      </trkpt>
      <trkpt lat="47.64022" lon="6.87093">
        <ele>461.5</ele>
        <time>2010-05-29T11:52:58Z</time>
      </trkpt>
      <trkpt lat="47.64024" lon="6.87098">
        <ele>461.5</ele>
        <time>2010-05-29T11:53:00Z</time>
      </trkpt>
      <trkpt lat="47.64028" lon="6.87105">
        <ele>463</ele>
        <time>2010-05-29T11:53:03Z</time>
      </trkpt>
      <trkpt lat="47.64032" lon="6.87112">
        <ele>463</ele>
        <time>2010-05-29T11:53:06Z</time>
      </trkpt>
      <trkpt lat="47.64035" lon="6.87118">
        <ele>464</ele>
        <time>2010-05-29T11:53:07Z</time>
      </trkpt>
      <trkpt lat="47.64041" lon="6.87125">
        <ele>464</ele>
        <time>2010-05-29T11:53:12Z</time>
      </trkpt>
      <trkpt lat="47.64046" lon="6.8713">
        <ele>464</ele>
        <time>2010-05-29T11:53:15Z</time>
      </trkpt>
      <trkpt lat="47.64052" lon="6.87133">
        <ele>464.5</ele>
        <time>2010-05-29T11:53:18Z</time>
      </trkpt>
      <trkpt lat="47.64056" lon="6.87136">
        <ele>465</ele>
        <time>2010-05-29T11:53:20Z</time>
      </trkpt>
      <trkpt lat="47.64061" lon="6.8714">
        <ele>465.5</ele>
        <time>2010-05-29T11:53:23Z</time>
      </trkpt>
      <trkpt lat="47.64066" lon="6.87145">
        <ele>466.5</ele>
        <time>2010-05-29T11:53:26Z</time>
      </trkpt>
      <trkpt lat="47.6407" lon="6.87149">
        <ele>466.5</ele>
        <time>2010-05-29T11:53:29Z</time>
      </trkpt>
      <trkpt lat="47.64075" lon="6.87153">
        <ele>467</ele>
        <time>2010-05-29T11:53:32Z</time>
      </trkpt>
      <trkpt lat="47.6408" lon="6.87157">
        <ele>467</ele>
        <time>2010-05-29T11:53:35Z</time>
      </trkpt>
      <trkpt lat="47.64086" lon="6.87161">
        <ele>468</ele>
        <time>2010-05-29T11:53:38Z</time>
      </trkpt>
      <trkpt lat="47.64091" lon="6.87165">
        <ele>468.5</ele>
        <time>2010-05-29T11:53:41Z</time>
      </trkpt>
      <trkpt lat="47.64097" lon="6.8717">
        <ele>469</ele>
        <time>2010-05-29T11:53:44Z</time>
      </trkpt>
      <trkpt lat="47.64102" lon="6.87174">
        <ele>469.5</ele>
        <time>2010-05-29T11:53:47Z</time>
      </trkpt>
      <trkpt lat="47.64107" lon="6.87179">
        <ele>470</ele>
        <time>2010-05-29T11:53:50Z</time>
      </trkpt>
      <trkpt lat="47.64112" lon="6.87185">
        <ele>470.5</ele>
        <time>2010-05-29T11:53:53Z</time>
      </trkpt>
      <trkpt lat="47.64116" lon="6.87192">
        <ele>471</ele>
        <time>2010-05-29T11:53:56Z</time>
      </trkpt>
      <trkpt lat="47.64121" lon="6.87199">
        <ele>472.5</ele>
        <time>2010-05-29T11:53:59Z</time>
      </trkpt>
      <trkpt lat="47.64124" lon="6.87202">
        <ele>472.5</ele>
        <time>2010-05-29T11:54:01Z</time>
      </trkpt>
      <trkpt lat="47.64129" lon="6.87208">
        <ele>473.5</ele>
        <time>2010-05-29T11:54:04Z</time>
      </trkpt>
      <trkpt lat="47.64133" lon="6.87215">
        <ele>474</ele>
        <time>2010-05-29T11:54:07Z</time>
      </trkpt>
      <trkpt lat="47.64138" lon="6.87221">
        <ele>474.5</ele>
        <time>2010-05-29T11:54:09Z</time>
      </trkpt>
      <trkpt lat="47.64141" lon="6.8723">
        <ele>475</ele>
        <time>2010-05-29T11:54:12Z</time>
      </trkpt>
      <trkpt lat="47.64143" lon="6.87238">
        <ele>475</ele>
        <time>2010-05-29T11:54:14Z</time>
      </trkpt>
      <trkpt lat="47.64145" lon="6.87245">
        <ele>475</ele>
        <time>2010-05-29T11:54:16Z</time>
      </trkpt>
      <trkpt lat="47.64148" lon="6.87252">
        <ele>475.5</ele>
        <time>2010-05-29T11:54:18Z</time>
      </trkpt>
      <trkpt lat="47.64151" lon="6.87259">
        <ele>475.5</ele>
        <time>2010-05-29T11:54:20Z</time>
      </trkpt>
      <trkpt lat="47.64153" lon="6.87266">
        <ele>475.5</ele>
        <time>2010-05-29T11:54:22Z</time>
      </trkpt>
      <trkpt lat="47.64156" lon="6.87272">
        <ele>476</ele>
        <time>2010-05-29T11:54:24Z</time>
      </trkpt>
      <trkpt lat="47.6416" lon="6.87277">
        <ele>476.5</ele>
        <time>2010-05-29T11:54:26Z</time>
      </trkpt>
      <trkpt lat="47.64163" lon="6.87283">
        <ele>477</ele>
        <time>2010-05-29T11:54:28Z</time>
      </trkpt>
      <trkpt lat="47.64164" lon="6.87289">
        <ele>478</ele>
        <time>2010-05-29T11:54:30Z</time>
      </trkpt>
      <trkpt lat="47.64167" lon="6.87297">
        <ele>479</ele>
        <time>2010-05-29T11:54:32Z</time>
      </trkpt>
      <trkpt lat="47.6417" lon="6.87303">
        <ele>479.5</ele>
        <time>2010-05-29T11:54:34Z</time>
      </trkpt>
      <trkpt lat="47.64174" lon="6.87308">
        <ele>480.5</ele>
        <time>2010-05-29T11:54:36Z</time>
      </trkpt>
      <trkpt lat="47.64178" lon="6.87314">
        <ele>480.5</ele>
        <time>2010-05-29T11:54:38Z</time>
      </trkpt>
      <trkpt lat="47.64181" lon="6.8732">
        <ele>480.5</ele>
        <time>2010-05-29T11:54:40Z</time>
      </trkpt>
      <trkpt lat="47.64185" lon="6.87326">
        <ele>480.5</ele>
        <time>2010-05-29T11:54:42Z</time>
      </trkpt>
      <trkpt lat="47.64188" lon="6.87332">
        <ele>480</ele>
        <time>2010-05-29T11:54:44Z</time>
      </trkpt>
      <trkpt lat="47.64192" lon="6.87338">
        <ele>480</ele>
        <time>2010-05-29T11:54:46Z</time>
      </trkpt>
      <trkpt lat="47.64196" lon="6.87343">
        <ele>480.5</ele>
        <time>2010-05-29T11:54:48Z</time>
      </trkpt>
      <trkpt lat="47.642" lon="6.87348">
        <ele>481.5</ele>
        <time>2010-05-29T11:54:50Z</time>
      </trkpt>
      <trkpt lat="47.64202" lon="6.87355">
        <ele>481.5</ele>
        <time>2010-05-29T11:54:52Z</time>
      </trkpt>
      <trkpt lat="47.64205" lon="6.87361">
        <ele>481.5</ele>
        <time>2010-05-29T11:54:54Z</time>
      </trkpt>
      <trkpt lat="47.64207" lon="6.87367">
        <ele>482</ele>
        <time>2010-05-29T11:54:56Z</time>
      </trkpt>
      <trkpt lat="47.64211" lon="6.87373">
        <ele>482.5</ele>
        <time>2010-05-29T11:54:58Z</time>
      </trkpt>
      <trkpt lat="47.64214" lon="6.87378">
        <ele>483</ele>
        <time>2010-05-29T11:55:00Z</time>
      </trkpt>
      <trkpt lat="47.64218" lon="6.87383">
        <ele>483</ele>
        <time>2010-05-29T11:55:02Z</time>
      </trkpt>
      <trkpt lat="47.64222" lon="6.87388">
        <ele>483.5</ele>
        <time>2010-05-29T11:55:04Z</time>
      </trkpt>
      <trkpt lat="47.64225" lon="6.87393">
        <ele>483.5</ele>
        <time>2010-05-29T11:55:06Z</time>
      </trkpt>
      <trkpt lat="47.64229" lon="6.874">
        <ele>484</ele>
        <time>2010-05-29T11:55:07Z</time>
      </trkpt>
      <trkpt lat="47.64232" lon="6.87408">
        <ele>484</ele>
        <time>2010-05-29T11:55:10Z</time>
      </trkpt>
      <trkpt lat="47.64236" lon="6.87416">
        <ele>484.5</ele>
        <time>2010-05-29T11:55:13Z</time>
      </trkpt>
      <trkpt lat="47.64238" lon="6.87422">
        <ele>485</ele>
        <time>2010-05-29T11:55:15Z</time>
      </trkpt>
      <trkpt lat="47.6424" lon="6.87429">
        <ele>485</ele>
        <time>2010-05-29T11:55:17Z</time>
      </trkpt>
      <trkpt lat="47.64242" lon="6.87437">
        <ele>485</ele>
        <time>2010-05-29T11:55:19Z</time>
      </trkpt>
      <trkpt lat="47.64245" lon="6.87445">
        <ele>485</ele>
        <time>2010-05-29T11:55:21Z</time>
      </trkpt>
      <trkpt lat="47.64249" lon="6.87452">
        <ele>484.5</ele>
        <time>2010-05-29T11:55:23Z</time>
      </trkpt>
      <trkpt lat="47.64253" lon="6.87458">
        <ele>484</ele>
        <time>2010-05-29T11:55:25Z</time>
      </trkpt>
      <trkpt lat="47.64256" lon="6.87466">
        <ele>484</ele>
        <time>2010-05-29T11:55:27Z</time>
      </trkpt>
      <trkpt lat="47.64259" lon="6.87473">
        <ele>484</ele>
        <time>2010-05-29T11:55:29Z</time>
      </trkpt>
      <trkpt lat="47.64262" lon="6.87479">
        <ele>484</ele>
        <time>2010-05-29T11:55:31Z</time>
      </trkpt>
      <trkpt lat="47.64266" lon="6.87486">
        <ele>484</ele>
        <time>2010-05-29T11:55:33Z</time>
      </trkpt>
      <trkpt lat="47.64269" lon="6.87493">
        <ele>484</ele>
        <time>2010-05-29T11:55:35Z</time>
      </trkpt>
      <trkpt lat="47.64273" lon="6.87499">
        <ele>484.5</ele>
        <time>2010-05-29T11:55:37Z</time>
      </trkpt>
      <trkpt lat="47.64276" lon="6.87506">
        <ele>484.5</ele>
        <time>2010-05-29T11:55:39Z</time>
      </trkpt>
      <trkpt lat="47.64277" lon="6.87514">
        <ele>485</ele>
        <time>2010-05-29T11:55:41Z</time>
      </trkpt>
      <trkpt lat="47.6428" lon="6.8752">
        <ele>485.5</ele>
        <time>2010-05-29T11:55:43Z</time>
      </trkpt>
      <trkpt lat="47.64284" lon="6.87527">
        <ele>486</ele>
        <time>2010-05-29T11:55:45Z</time>
      </trkpt>
      <trkpt lat="47.64287" lon="6.87533">
        <ele>485.5</ele>
        <time>2010-05-29T11:55:47Z</time>
      </trkpt>
      <trkpt lat="47.64286" lon="6.8754">
        <ele>486</ele>
        <time>2010-05-29T11:55:49Z</time>
      </trkpt>
      <trkpt lat="47.64281" lon="6.87546">
        <ele>485.5</ele>
        <time>2010-05-29T11:55:51Z</time>
      </trkpt>
      <trkpt lat="47.64275" lon="6.87554">
        <ele>485</ele>
        <time>2010-05-29T11:55:53Z</time>
      </trkpt>
      <trkpt lat="47.64273" lon="6.8756">
        <ele>484.5</ele>
        <time>2010-05-29T11:55:54Z</time>
      </trkpt>
      <trkpt lat="47.64274" lon="6.87567">
        <ele>485</ele>
        <time>2010-05-29T11:55:55Z</time>
      </trkpt>
      <trkpt lat="47.64276" lon="6.87573">
        <ele>485</ele>
        <time>2010-05-29T11:55:56Z</time>
      </trkpt>
      <trkpt lat="47.64281" lon="6.87582">
        <ele>485.5</ele>
        <time>2010-05-29T11:55:58Z</time>
      </trkpt>
      <trkpt lat="47.64285" lon="6.87591">
        <ele>486</ele>
        <time>2010-05-29T11:56:00Z</time>
      </trkpt>
      <trkpt lat="47.64287" lon="6.87602">
        <ele>485.5</ele>
        <time>2010-05-29T11:56:02Z</time>
      </trkpt>
      <trkpt lat="47.64288" lon="6.87614">
        <ele>485.5</ele>
        <time>2010-05-29T11:56:04Z</time>
      </trkpt>
      <trkpt lat="47.6429" lon="6.87626">
        <ele>485.5</ele>
        <time>2010-05-29T11:56:06Z</time>
      </trkpt>
      <trkpt lat="47.64291" lon="6.87642">
        <ele>485.5</ele>
        <time>2010-05-29T11:56:07Z</time>
      </trkpt>
      <trkpt lat="47.64291" lon="6.87654">
        <ele>485.5</ele>
        <time>2010-05-29T11:56:10Z</time>
      </trkpt>
      <trkpt lat="47.6429" lon="6.87663">
        <ele>485.5</ele>
        <time>2010-05-29T11:56:12Z</time>
      </trkpt>
      <trkpt lat="47.64293" lon="6.87674">
        <ele>483.5</ele>
        <time>2010-05-29T11:56:14Z</time>
      </trkpt>
      <trkpt lat="47.643" lon="6.87679">
        <ele>484</ele>
        <time>2010-05-29T11:56:16Z</time>
      </trkpt>
      <trkpt lat="47.64307" lon="6.87681">
        <ele>484</ele>
        <time>2010-05-29T11:56:18Z</time>
      </trkpt>
      <trkpt lat="47.64313" lon="6.87679">
        <ele>484</ele>
        <time>2010-05-29T11:56:20Z</time>
      </trkpt>
      <trkpt lat="47.64318" lon="6.87675">
        <ele>483.5</ele>
        <time>2010-05-29T11:56:22Z</time>
      </trkpt>
      <trkpt lat="47.6432" lon="6.87669">
        <ele>483.5</ele>
        <time>2010-05-29T11:56:24Z</time>
      </trkpt>
      <trkpt lat="47.64323" lon="6.87658">
        <ele>482</ele>
        <time>2010-05-29T11:56:26Z</time>
      </trkpt>
      <trkpt lat="47.64324" lon="6.8765">
        <ele>482</ele>
        <time>2010-05-29T11:56:27Z</time>
      </trkpt>
      <trkpt lat="47.64325" lon="6.87642">
        <ele>481.5</ele>
        <time>2010-05-29T11:56:28Z</time>
      </trkpt>
      <trkpt lat="47.64327" lon="6.87635">
        <ele>482</ele>
        <time>2010-05-29T11:56:29Z</time>
      </trkpt>
      <trkpt lat="47.64327" lon="6.87628">
        <ele>482</ele>
        <time>2010-05-29T11:56:30Z</time>
      </trkpt>
      <trkpt lat="47.64329" lon="6.87618">
        <ele>482</ele>
        <time>2010-05-29T11:56:32Z</time>
      </trkpt>
      <trkpt lat="47.64334" lon="6.87614">
        <ele>482.5</ele>
        <time>2010-05-29T11:56:34Z</time>
      </trkpt>
      <trkpt lat="47.64338" lon="6.87619">
        <ele>483.5</ele>
        <time>2010-05-29T11:56:36Z</time>
      </trkpt>
      <trkpt lat="47.64343" lon="6.87624">
        <ele>484.5</ele>
        <time>2010-05-29T11:56:39Z</time>
      </trkpt>
      <trkpt lat="47.64347" lon="6.87628">
        <ele>485</ele>
        <time>2010-05-29T11:56:41Z</time>
      </trkpt>
      <trkpt lat="47.64351" lon="6.87632">
        <ele>485.5</ele>
        <time>2010-05-29T11:56:43Z</time>
      </trkpt>
      <trkpt lat="47.64354" lon="6.87638">
        <ele>486</ele>
        <time>2010-05-29T11:56:45Z</time>
      </trkpt>
      <trkpt lat="47.64358" lon="6.87644">
        <ele>486</ele>
        <time>2010-05-29T11:56:47Z</time>
      </trkpt>
      <trkpt lat="47.64361" lon="6.87649">
        <ele>486.5</ele>
        <time>2010-05-29T11:56:49Z</time>
      </trkpt>
      <trkpt lat="47.64365" lon="6.87654">
        <ele>488</ele>
        <time>2010-05-29T11:56:51Z</time>
      </trkpt>
      <trkpt lat="47.6437" lon="6.87659">
        <ele>489</ele>
        <time>2010-05-29T11:56:53Z</time>
      </trkpt>
      <trkpt lat="47.64374" lon="6.87664">
        <ele>489.5</ele>
        <time>2010-05-29T11:56:55Z</time>
      </trkpt>
      <trkpt lat="47.64379" lon="6.8767">
        <ele>489.5</ele>
        <time>2010-05-29T11:56:57Z</time>
      </trkpt>
      <trkpt lat="47.64384" lon="6.87676">
        <ele>490.5</ele>
        <time>2010-05-29T11:56:59Z</time>
      </trkpt>
      <trkpt lat="47.64389" lon="6.87681">
        <ele>491.5</ele>
        <time>2010-05-29T11:57:01Z</time>
      </trkpt>
      <trkpt lat="47.64394" lon="6.87687">
        <ele>492.5</ele>
        <time>2010-05-29T11:57:03Z</time>
      </trkpt>
      <trkpt lat="47.64399" lon="6.87691">
        <ele>493.5</ele>
        <time>2010-05-29T11:57:05Z</time>
      </trkpt>
      <trkpt lat="47.64405" lon="6.87697">
        <ele>495</ele>
        <time>2010-05-29T11:57:07Z</time>
      </trkpt>
      <trkpt lat="47.64408" lon="6.87701">
        <ele>495.5</ele>
        <time>2010-05-29T11:57:07Z</time>
      </trkpt>
      <trkpt lat="47.64412" lon="6.87708">
        <ele>496</ele>
        <time>2010-05-29T11:57:10Z</time>
      </trkpt>
      <trkpt lat="47.64418" lon="6.87715">
        <ele>497</ele>
        <time>2010-05-29T11:57:13Z</time>
      </trkpt>
      <trkpt lat="47.64422" lon="6.87725">
        <ele>497.5</ele>
        <time>2010-05-29T11:57:15Z</time>
      </trkpt>
      <trkpt lat="47.64428" lon="6.87733">
        <ele>497.5</ele>
        <time>2010-05-29T11:57:17Z</time>
      </trkpt>
      <trkpt lat="47.64432" lon="6.87741">
        <ele>499</ele>
        <time>2010-05-29T11:57:19Z</time>
      </trkpt>
      <trkpt lat="47.64436" lon="6.87748">
        <ele>500</ele>
        <time>2010-05-29T11:57:21Z</time>
      </trkpt>
      <trkpt lat="47.6444" lon="6.87756">
        <ele>501</ele>
        <time>2010-05-29T11:57:23Z</time>
      </trkpt>
      <trkpt lat="47.64445" lon="6.87765">
        <ele>501</ele>
        <time>2010-05-29T11:57:25Z</time>
      </trkpt>
      <trkpt lat="47.6445" lon="6.87773">
        <ele>501.5</ele>
        <time>2010-05-29T11:57:27Z</time>
      </trkpt>
      <trkpt lat="47.64455" lon="6.87782">
        <ele>501.5</ele>
        <time>2010-05-29T11:57:29Z</time>
      </trkpt>
      <trkpt lat="47.64459" lon="6.87791">
        <ele>502</ele>
        <time>2010-05-29T11:57:31Z</time>
      </trkpt>
      <trkpt lat="47.64462" lon="6.87799">
        <ele>502.5</ele>
        <time>2010-05-29T11:57:33Z</time>
      </trkpt>
      <trkpt lat="47.64464" lon="6.87809">
        <ele>503</ele>
        <time>2010-05-29T11:57:35Z</time>
      </trkpt>
      <trkpt lat="47.64468" lon="6.87816">
        <ele>503</ele>
        <time>2010-05-29T11:57:37Z</time>
      </trkpt>
      <trkpt lat="47.64472" lon="6.87823">
        <ele>501</ele>
        <time>2010-05-29T11:57:38Z</time>
      </trkpt>
      <trkpt lat="47.64479" lon="6.87826">
        <ele>500</ele>
        <time>2010-05-29T11:57:40Z</time>
      </trkpt>
      <trkpt lat="47.64484" lon="6.87823">
        <ele>500</ele>
        <time>2010-05-29T11:57:42Z</time>
      </trkpt>
      <trkpt lat="47.64484" lon="6.87808">
        <ele>500.5</ele>
        <time>2010-05-29T11:57:43Z</time>
      </trkpt>
      <trkpt lat="47.64483" lon="6.87795">
        <ele>499.5</ele>
        <time>2010-05-29T11:57:45Z</time>
      </trkpt>
      <trkpt lat="47.64478" lon="6.87785">
        <ele>499.5</ele>
        <time>2010-05-29T11:57:47Z</time>
      </trkpt>
      <trkpt lat="47.64473" lon="6.87779">
        <ele>498.5</ele>
        <time>2010-05-29T11:57:48Z</time>
      </trkpt>
      <trkpt lat="47.64469" lon="6.87774">
        <ele>498</ele>
        <time>2010-05-29T11:57:49Z</time>
      </trkpt>
      <trkpt lat="47.64465" lon="6.87768">
        <ele>497</ele>
        <time>2010-05-29T11:57:50Z</time>
      </trkpt>
      <trkpt lat="47.64462" lon="6.87761">
        <ele>496.5</ele>
        <time>2010-05-29T11:57:51Z</time>
      </trkpt>
      <trkpt lat="47.64462" lon="6.8775">
        <ele>496.5</ele>
        <time>2010-05-29T11:57:53Z</time>
      </trkpt>
      <trkpt lat="47.64465" lon="6.87739">
        <ele>498.5</ele>
        <time>2010-05-29T11:57:54Z</time>
      </trkpt>
      <trkpt lat="47.64468" lon="6.87731">
        <ele>500</ele>
        <time>2010-05-29T11:57:55Z</time>
      </trkpt>
      <trkpt lat="47.64475" lon="6.87728">
        <ele>501</ele>
        <time>2010-05-29T11:57:56Z</time>
      </trkpt>
      <trkpt lat="47.64481" lon="6.87725">
        <ele>501.5</ele>
        <time>2010-05-29T11:57:57Z</time>
      </trkpt>
      <trkpt lat="47.64485" lon="6.87725">
        <ele>501</ele>
        <time>2010-05-29T11:57:58Z</time>
      </trkpt>
      <trkpt lat="47.6449" lon="6.87726">
        <ele>501</ele>
        <time>2010-05-29T11:57:59Z</time>
      </trkpt>
      <trkpt lat="47.64494" lon="6.87729">
        <ele>501</ele>
        <time>2010-05-29T11:58:00Z</time>
      </trkpt>
      <trkpt lat="47.64498" lon="6.87733">
        <ele>501</ele>
        <time>2010-05-29T11:58:01Z</time>
      </trkpt>
      <trkpt lat="47.64503" lon="6.87739">
        <ele>499</ele>
        <time>2010-05-29T11:58:03Z</time>
      </trkpt>
      <trkpt lat="47.64507" lon="6.87746">
        <ele>500.5</ele>
        <time>2010-05-29T11:58:05Z</time>
      </trkpt>
      <trkpt lat="47.64513" lon="6.8775">
        <ele>499.5</ele>
        <time>2010-05-29T11:58:07Z</time>
      </trkpt>
      <trkpt lat="47.64519" lon="6.87756">
        <ele>501.5</ele>
        <time>2010-05-29T11:58:09Z</time>
      </trkpt>
      <trkpt lat="47.64526" lon="6.87751">
        <ele>502.5</ele>
        <time>2010-05-29T11:58:12Z</time>
      </trkpt>
      <trkpt lat="47.64533" lon="6.87752">
        <ele>500.5</ele>
        <time>2010-05-29T11:58:14Z</time>
      </trkpt>
      <trkpt lat="47.6454" lon="6.87751">
        <ele>500</ele>
        <time>2010-05-29T11:58:16Z</time>
      </trkpt>
      <trkpt lat="47.64545" lon="6.87753">
        <ele>498.5</ele>
        <time>2010-05-29T11:58:18Z</time>
      </trkpt>
      <trkpt lat="47.64551" lon="6.87757">
        <ele>490</ele>
        <time>2010-05-29T11:58:21Z</time>
      </trkpt>
      <trkpt lat="47.64555" lon="6.87762">
        <ele>481</ele>
        <time>2010-05-29T11:58:23Z</time>
      </trkpt>
      <trkpt lat="47.6456" lon="6.87763">
        <ele>471.5</ele>
        <time>2010-05-29T11:58:26Z</time>
      </trkpt>
      <trkpt lat="47.64565" lon="6.87758">
        <ele>468</ele>
        <time>2010-05-29T11:58:29Z</time>
      </trkpt>
      <trkpt lat="47.64566" lon="6.8775">
        <ele>467</ele>
        <time>2010-05-29T11:58:33Z</time>
      </trkpt>
      <trkpt lat="47.64565" lon="6.87741">
        <ele>465.5</ele>
        <time>2010-05-29T11:58:36Z</time>
      </trkpt>
      <trkpt lat="47.64568" lon="6.87733">
        <ele>465.5</ele>
        <time>2010-05-29T11:58:38Z</time>
      </trkpt>
      <trkpt lat="47.64572" lon="6.87727">
        <ele>466</ele>
        <time>2010-05-29T11:58:40Z</time>
      </trkpt>
      <trkpt lat="47.64576" lon="6.87719">
        <ele>465.5</ele>
        <time>2010-05-29T11:58:42Z</time>
      </trkpt>
      <trkpt lat="47.64581" lon="6.87712">
        <ele>465</ele>
        <time>2010-05-29T11:58:44Z</time>
      </trkpt>
      <trkpt lat="47.64587" lon="6.87705">
        <ele>469.5</ele>
        <time>2010-05-29T11:58:46Z</time>
      </trkpt>
      <trkpt lat="47.64592" lon="6.87699">
        <ele>471.5</ele>
        <time>2010-05-29T11:58:48Z</time>
      </trkpt>
      <trkpt lat="47.64596" lon="6.87694">
        <ele>474</ele>
        <time>2010-05-29T11:58:50Z</time>
      </trkpt>
      <trkpt lat="47.64601" lon="6.87688">
        <ele>475</ele>
        <time>2010-05-29T11:58:52Z</time>
      </trkpt>
      <trkpt lat="47.64606" lon="6.87681">
        <ele>476</ele>
        <time>2010-05-29T11:58:54Z</time>
      </trkpt>
      <trkpt lat="47.6461" lon="6.87674">
        <ele>476.5</ele>
        <time>2010-05-29T11:58:56Z</time>
      </trkpt>
      <trkpt lat="47.64614" lon="6.87667">
        <ele>477</ele>
        <time>2010-05-29T11:58:58Z</time>
      </trkpt>
      <trkpt lat="47.64619" lon="6.87662">
        <ele>478</ele>
        <time>2010-05-29T11:59:00Z</time>
      </trkpt>
      <trkpt lat="47.64622" lon="6.87656">
        <ele>480.5</ele>
        <time>2010-05-29T11:59:02Z</time>
      </trkpt>
      <trkpt lat="47.64626" lon="6.87651">
        <ele>481.5</ele>
        <time>2010-05-29T11:59:04Z</time>
      </trkpt>
      <trkpt lat="47.64631" lon="6.87647">
        <ele>483</ele>
        <time>2010-05-29T11:59:06Z</time>
      </trkpt>
      <trkpt lat="47.64635" lon="6.87643">
        <ele>484</ele>
        <time>2010-05-29T11:59:07Z</time>
      </trkpt>
      <trkpt lat="47.64641" lon="6.87637">
        <ele>484.5</ele>
        <time>2010-05-29T11:59:12Z</time>
      </trkpt>
      <trkpt lat="47.64646" lon="6.8763">
        <ele>485</ele>
        <time>2010-05-29T11:59:13Z</time>
      </trkpt>
      <trkpt lat="47.64651" lon="6.87624">
        <ele>485</ele>
        <time>2010-05-29T11:59:15Z</time>
      </trkpt>
      <trkpt lat="47.64654" lon="6.87619">
        <ele>484.5</ele>
        <time>2010-05-29T11:59:17Z</time>
      </trkpt>
      <trkpt lat="47.64658" lon="6.87613">
        <ele>484</ele>
        <time>2010-05-29T11:59:20Z</time>
      </trkpt>
      <trkpt lat="47.64662" lon="6.87609">
        <ele>483.5</ele>
        <time>2010-05-29T11:59:23Z</time>
      </trkpt>
      <trkpt lat="47.64666" lon="6.87605">
        <ele>483.5</ele>
        <time>2010-05-29T11:59:26Z</time>
      </trkpt>
      <trkpt lat="47.64671" lon="6.87601">
        <ele>483.5</ele>
        <time>2010-05-29T11:59:30Z</time>
      </trkpt>
      <trkpt lat="47.64675" lon="6.87597">
        <ele>484.5</ele>
        <time>2010-05-29T11:59:33Z</time>
      </trkpt>
      <trkpt lat="47.6468" lon="6.87594">
        <ele>485</ele>
        <time>2010-05-29T11:59:37Z</time>
      </trkpt>
      <trkpt lat="47.64686" lon="6.87593">
        <ele>486</ele>
        <time>2010-05-29T11:59:42Z</time>
      </trkpt>
      <trkpt lat="47.64691" lon="6.8759">
        <ele>487.5</ele>
        <time>2010-05-29T11:59:46Z</time>
      </trkpt>
      <trkpt lat="47.64696" lon="6.87587">
        <ele>488</ele>
        <time>2010-05-29T11:59:50Z</time>
      </trkpt>
      <trkpt lat="47.647" lon="6.87583">
        <ele>489.5</ele>
        <time>2010-05-29T11:59:53Z</time>
      </trkpt>
      <trkpt lat="47.64704" lon="6.87579">
        <ele>491</ele>
        <time>2010-05-29T11:59:57Z</time>
      </trkpt>
      <trkpt lat="47.64707" lon="6.87574">
        <ele>494</ele>
        <time>2010-05-29T12:00:02Z</time>
      </trkpt>
      <trkpt lat="47.64711" lon="6.8757">
        <ele>495.5</ele>
        <time>2010-05-29T12:00:06Z</time>
      </trkpt>
      <trkpt lat="47.64715" lon="6.87564">
        <ele>496</ele>
        <time>2010-05-29T12:00:12Z</time>
      </trkpt>
      <trkpt lat="47.64718" lon="6.87557">
        <ele>497.5</ele>
        <time>2010-05-29T12:00:17Z</time>
      </trkpt>
      <trkpt lat="47.64723" lon="6.87554">
        <ele>497.5</ele>
        <time>2010-05-29T12:00:20Z</time>
      </trkpt>
      <trkpt lat="47.64727" lon="6.87548">
        <ele>498.5</ele>
        <time>2010-05-29T12:00:24Z</time>
      </trkpt>
      <trkpt lat="47.6473" lon="6.87543">
        <ele>498.5</ele>
        <time>2010-05-29T12:00:27Z</time>
      </trkpt>
      <trkpt lat="47.64736" lon="6.87538">
        <ele>497.5</ele>
        <time>2010-05-29T12:00:29Z</time>
      </trkpt>
      <trkpt lat="47.6474" lon="6.87533">
        <ele>498.5</ele>
        <time>2010-05-29T12:00:33Z</time>
      </trkpt>
      <trkpt lat="47.64744" lon="6.87529">
        <ele>499</ele>
        <time>2010-05-29T12:00:37Z</time>
      </trkpt>
      <trkpt lat="47.64748" lon="6.87523">
        <ele>502.5</ele>
        <time>2010-05-29T12:00:40Z</time>
      </trkpt>
      <trkpt lat="47.64752" lon="6.87519">
        <ele>503.5</ele>
        <time>2010-05-29T12:00:44Z</time>
      </trkpt>
      <trkpt lat="47.64757" lon="6.87516">
        <ele>502</ele>
        <time>2010-05-29T12:00:48Z</time>
      </trkpt>
      <trkpt lat="47.64761" lon="6.87511">
        <ele>498.5</ele>
        <time>2010-05-29T12:00:52Z</time>
      </trkpt>
      <trkpt lat="47.64766" lon="6.87507">
        <ele>498.5</ele>
        <time>2010-05-29T12:00:56Z</time>
      </trkpt>
      <trkpt lat="47.6477" lon="6.87504">
        <ele>499</ele>
        <time>2010-05-29T12:00:59Z</time>
      </trkpt>
      <trkpt lat="47.64773" lon="6.87499">
        <ele>500.5</ele>
        <time>2010-05-29T12:01:02Z</time>
      </trkpt>
      <trkpt lat="47.64777" lon="6.87494">
        <ele>501.5</ele>
        <time>2010-05-29T12:01:06Z</time>
      </trkpt>
      <trkpt lat="47.6478" lon="6.87487">
        <ele>501.5</ele>
        <time>2010-05-29T12:01:10Z</time>
      </trkpt>
      <trkpt lat="47.64782" lon="6.8748">
        <ele>502</ele>
        <time>2010-05-29T12:01:15Z</time>
      </trkpt>
      <trkpt lat="47.64784" lon="6.87473">
        <ele>503</ele>
        <time>2010-05-29T12:01:19Z</time>
      </trkpt>
      <trkpt lat="47.64786" lon="6.87466">
        <ele>504</ele>
        <time>2010-05-29T12:01:23Z</time>
      </trkpt>
      <trkpt lat="47.6479" lon="6.87459">
        <ele>502.5</ele>
        <time>2010-05-29T12:01:27Z</time>
      </trkpt>
      <trkpt lat="47.64792" lon="6.87454">
        <ele>503</ele>
        <time>2010-05-29T12:01:29Z</time>
      </trkpt>
      <trkpt lat="47.64794" lon="6.87448">
        <ele>504</ele>
        <time>2010-05-29T12:01:32Z</time>
      </trkpt>
      <trkpt lat="47.64797" lon="6.87441">
        <ele>505.5</ele>
        <time>2010-05-29T12:01:35Z</time>
      </trkpt>
      <trkpt lat="47.64799" lon="6.87434">
        <ele>507</ele>
        <time>2010-05-29T12:01:39Z</time>
      </trkpt>
      <trkpt lat="47.64804" lon="6.87427">
        <ele>506</ele>
        <time>2010-05-29T12:01:46Z</time>
      </trkpt>
      <trkpt lat="47.64806" lon="6.8742">
        <ele>506</ele>
        <time>2010-05-29T12:01:50Z</time>
      </trkpt>
      <trkpt lat="47.64808" lon="6.87411">
        <ele>506</ele>
        <time>2010-05-29T12:01:53Z</time>
      </trkpt>
      <trkpt lat="47.64809" lon="6.87404">
        <ele>505.5</ele>
        <time>2010-05-29T12:01:55Z</time>
      </trkpt>
      <trkpt lat="47.64809" lon="6.87387">
        <ele>505.5</ele>
        <time>2010-05-29T12:02:07Z</time>
      </trkpt>
      <trkpt lat="47.64807" lon="6.87377">
        <ele>505</ele>
        <time>2010-05-29T12:02:10Z</time>
      </trkpt>
      <trkpt lat="47.64806" lon="6.8737">
        <ele>505</ele>
        <time>2010-05-29T12:02:12Z</time>
      </trkpt>
      <trkpt lat="47.64807" lon="6.87362">
        <ele>503.5</ele>
        <time>2010-05-29T12:02:13Z</time>
      </trkpt>
      <trkpt lat="47.64806" lon="6.87355">
        <ele>502</ele>
        <time>2010-05-29T12:02:14Z</time>
      </trkpt>
      <trkpt lat="47.64805" lon="6.87347">
        <ele>501</ele>
        <time>2010-05-29T12:02:15Z</time>
      </trkpt>
      <trkpt lat="47.64805" lon="6.8734">
        <ele>500.5</ele>
        <time>2010-05-29T12:02:16Z</time>
      </trkpt>
      <trkpt lat="47.64804" lon="6.87329">
        <ele>499</ele>
        <time>2010-05-29T12:02:18Z</time>
      </trkpt>
      <trkpt lat="47.64805" lon="6.87323">
        <ele>499.5</ele>
        <time>2010-05-29T12:02:20Z</time>
      </trkpt>
      <trkpt lat="47.64811" lon="6.87316">
        <ele>499</ele>
        <time>2010-05-29T12:02:22Z</time>
      </trkpt>
      <trkpt lat="47.64816" lon="6.87322">
        <ele>498.5</ele>
        <time>2010-05-29T12:02:24Z</time>
      </trkpt>
      <trkpt lat="47.64823" lon="6.87329">
        <ele>499</ele>
        <time>2010-05-29T12:02:26Z</time>
      </trkpt>
      <trkpt lat="47.6483" lon="6.87334">
        <ele>498.5</ele>
        <time>2010-05-29T12:02:28Z</time>
      </trkpt>
      <trkpt lat="47.64837" lon="6.87342">
        <ele>498.5</ele>
        <time>2010-05-29T12:02:30Z</time>
      </trkpt>
      <trkpt lat="47.64842" lon="6.87348">
        <ele>498.5</ele>
        <time>2010-05-29T12:02:32Z</time>
      </trkpt>
      <trkpt lat="47.6484" lon="6.87338">
        <ele>498.5</ele>
        <time>2010-05-29T12:02:39Z</time>
      </trkpt>
      <trkpt lat="47.64835" lon="6.8733">
        <ele>498.5</ele>
        <time>2010-05-29T12:02:41Z</time>
      </trkpt>
      <trkpt lat="47.6483" lon="6.8732">
        <ele>498</ele>
        <time>2010-05-29T12:02:43Z</time>
      </trkpt>
      <trkpt lat="47.64826" lon="6.87314">
        <ele>497.5</ele>
        <time>2010-05-29T12:02:44Z</time>
      </trkpt>
      <trkpt lat="47.64822" lon="6.87304">
        <ele>496.5</ele>
        <time>2010-05-29T12:02:46Z</time>
      </trkpt>
      <trkpt lat="47.64817" lon="6.87293">
        <ele>496</ele>
        <time>2010-05-29T12:02:48Z</time>
      </trkpt>
      <trkpt lat="47.64813" lon="6.87286">
        <ele>495.5</ele>
        <time>2010-05-29T12:02:49Z</time>
      </trkpt>
      <trkpt lat="47.6481" lon="6.87279">
        <ele>495.5</ele>
        <time>2010-05-29T12:02:50Z</time>
      </trkpt>
      <trkpt lat="47.64807" lon="6.8727">
        <ele>495.5</ele>
        <time>2010-05-29T12:02:51Z</time>
      </trkpt>
      <trkpt lat="47.64803" lon="6.87262">
        <ele>495</ele>
        <time>2010-05-29T12:02:52Z</time>
      </trkpt>
      <trkpt lat="47.648" lon="6.87254">
        <ele>495</ele>
        <time>2010-05-29T12:02:53Z</time>
      </trkpt>
      <trkpt lat="47.64797" lon="6.87247">
        <ele>494</ele>
        <time>2010-05-29T12:02:54Z</time>
      </trkpt>
      <trkpt lat="47.64793" lon="6.87241">
        <ele>494</ele>
        <time>2010-05-29T12:02:55Z</time>
      </trkpt>
      <trkpt lat="47.6479" lon="6.87234">
        <ele>493.5</ele>
        <time>2010-05-29T12:02:56Z</time>
      </trkpt>
      <trkpt lat="47.64788" lon="6.87228">
        <ele>493.5</ele>
        <time>2010-05-29T12:02:57Z</time>
      </trkpt>
      <trkpt lat="47.64786" lon="6.87221">
        <ele>494</ele>
        <time>2010-05-29T12:02:58Z</time>
      </trkpt>
      <trkpt lat="47.64784" lon="6.87214">
        <ele>494</ele>
        <time>2010-05-29T12:02:59Z</time>
      </trkpt>
      <trkpt lat="47.64783" lon="6.87207">
        <ele>494</ele>
        <time>2010-05-29T12:03:00Z</time>
      </trkpt>
      <trkpt lat="47.64779" lon="6.87198">
        <ele>494.5</ele>
        <time>2010-05-29T12:03:02Z</time>
      </trkpt>
      <trkpt lat="47.64785" lon="6.87193">
        <ele>494.5</ele>
        <time>2010-05-29T12:03:07Z</time>
      </trkpt>
      <trkpt lat="47.64789" lon="6.87196">
        <ele>495</ele>
        <time>2010-05-29T12:03:09Z</time>
      </trkpt>
      <trkpt lat="47.64797" lon="6.872">
        <ele>495.5</ele>
        <time>2010-05-29T12:03:12Z</time>
      </trkpt>
      <trkpt lat="47.64801" lon="6.87206">
        <ele>495.5</ele>
        <time>2010-05-29T12:03:13Z</time>
      </trkpt>
      <trkpt lat="47.64806" lon="6.87211">
        <ele>496</ele>
        <time>2010-05-29T12:03:14Z</time>
      </trkpt>
      <trkpt lat="47.6481" lon="6.87215">
        <ele>496</ele>
        <time>2010-05-29T12:03:15Z</time>
      </trkpt>
      <trkpt lat="47.64815" lon="6.87217">
        <ele>496</ele>
        <time>2010-05-29T12:03:16Z</time>
      </trkpt>
      <trkpt lat="47.6482" lon="6.87219">
        <ele>496</ele>
        <time>2010-05-29T12:03:17Z</time>
      </trkpt>
      <trkpt lat="47.64825" lon="6.8722">
        <ele>496</ele>
        <time>2010-05-29T12:03:18Z</time>
      </trkpt>
      <trkpt lat="47.6483" lon="6.8722">
        <ele>496.5</ele>
        <time>2010-05-29T12:03:19Z</time>
      </trkpt>
      <trkpt lat="47.64838" lon="6.87212">
        <ele>496</ele>
        <time>2010-05-29T12:03:21Z</time>
      </trkpt>
      <trkpt lat="47.64841" lon="6.87205">
        <ele>494</ele>
        <time>2010-05-29T12:03:22Z</time>
      </trkpt>
      <trkpt lat="47.64843" lon="6.87197">
        <ele>492.5</ele>
        <time>2010-05-29T12:03:23Z</time>
      </trkpt>
      <trkpt lat="47.64846" lon="6.87189">
        <ele>491.5</ele>
        <time>2010-05-29T12:03:24Z</time>
      </trkpt>
      <trkpt lat="47.64851" lon="6.87181">
        <ele>490</ele>
        <time>2010-05-29T12:03:25Z</time>
      </trkpt>
      <trkpt lat="47.64857" lon="6.87174">
        <ele>490</ele>
        <time>2010-05-29T12:03:26Z</time>
      </trkpt>
      <trkpt lat="47.64863" lon="6.87167">
        <ele>489</ele>
        <time>2010-05-29T12:03:27Z</time>
      </trkpt>
      <trkpt lat="47.6487" lon="6.87163">
        <ele>489</ele>
        <time>2010-05-29T12:03:28Z</time>
      </trkpt>
      <trkpt lat="47.64877" lon="6.87159">
        <ele>488</ele>
        <time>2010-05-29T12:03:29Z</time>
      </trkpt>
      <trkpt lat="47.64882" lon="6.87157">
        <ele>487</ele>
        <time>2010-05-29T12:03:30Z</time>
      </trkpt>
      <trkpt lat="47.64887" lon="6.87155">
        <ele>485</ele>
        <time>2010-05-29T12:03:31Z</time>
      </trkpt>
      <trkpt lat="47.64895" lon="6.8715">
        <ele>482.5</ele>
        <time>2010-05-29T12:03:33Z</time>
      </trkpt>
      <trkpt lat="47.649" lon="6.87147">
        <ele>481.5</ele>
        <time>2010-05-29T12:03:34Z</time>
      </trkpt>
      <trkpt lat="47.64905" lon="6.87144">
        <ele>481.5</ele>
        <time>2010-05-29T12:03:35Z</time>
      </trkpt>
      <trkpt lat="47.6491" lon="6.87141">
        <ele>481</ele>
        <time>2010-05-29T12:03:36Z</time>
      </trkpt>
      <trkpt lat="47.64915" lon="6.87137">
        <ele>480</ele>
        <time>2010-05-29T12:03:37Z</time>
      </trkpt>
      <trkpt lat="47.6492" lon="6.87133">
        <ele>479</ele>
        <time>2010-05-29T12:03:38Z</time>
      </trkpt>
      <trkpt lat="47.64926" lon="6.87129">
        <ele>477.5</ele>
        <time>2010-05-29T12:03:39Z</time>
      </trkpt>
      <trkpt lat="47.64933" lon="6.87123">
        <ele>476.5</ele>
        <time>2010-05-29T12:03:40Z</time>
      </trkpt>
      <trkpt lat="47.64939" lon="6.87116">
        <ele>474.5</ele>
        <time>2010-05-29T12:03:41Z</time>
      </trkpt>
      <trkpt lat="47.64946" lon="6.87109">
        <ele>472.5</ele>
        <time>2010-05-29T12:03:42Z</time>
      </trkpt>
      <trkpt lat="47.64953" lon="6.87103">
        <ele>470.5</ele>
        <time>2010-05-29T12:03:43Z</time>
      </trkpt>
      <trkpt lat="47.64959" lon="6.87097">
        <ele>469.5</ele>
        <time>2010-05-29T12:03:44Z</time>
      </trkpt>
      <trkpt lat="47.64964" lon="6.87092">
        <ele>468</ele>
        <time>2010-05-29T12:03:45Z</time>
      </trkpt>
      <trkpt lat="47.6497" lon="6.87085">
        <ele>467</ele>
        <time>2010-05-29T12:03:46Z</time>
      </trkpt>
      <trkpt lat="47.64976" lon="6.87078">
        <ele>465.5</ele>
        <time>2010-05-29T12:03:47Z</time>
      </trkpt>
      <trkpt lat="47.64983" lon="6.87069">
        <ele>464</ele>
        <time>2010-05-29T12:03:48Z</time>
      </trkpt>
      <trkpt lat="47.6499" lon="6.87061">
        <ele>463</ele>
        <time>2010-05-29T12:03:49Z</time>
      </trkpt>
      <trkpt lat="47.64996" lon="6.87052">
        <ele>461.5</ele>
        <time>2010-05-29T12:03:50Z</time>
      </trkpt>
      <trkpt lat="47.65002" lon="6.87043">
        <ele>460</ele>
        <time>2010-05-29T12:03:51Z</time>
      </trkpt>
      <trkpt lat="47.65008" lon="6.87036">
        <ele>459</ele>
        <time>2010-05-29T12:03:52Z</time>
      </trkpt>
      <trkpt lat="47.65013" lon="6.87029">
        <ele>457.5</ele>
        <time>2010-05-29T12:03:53Z</time>
      </trkpt>
      <trkpt lat="47.65016" lon="6.87025">
        <ele>457</ele>
        <time>2010-05-29T12:03:54Z</time>
      </trkpt>
      <trkpt lat="47.6502" lon="6.87019">
        <ele>455.5</ele>
        <time>2010-05-29T12:03:56Z</time>
      </trkpt>
      <trkpt lat="47.65025" lon="6.87015">
        <ele>453.5</ele>
        <time>2010-05-29T12:03:59Z</time>
      </trkpt>
      <trkpt lat="47.6503" lon="6.8701">
        <ele>452.5</ele>
        <time>2010-05-29T12:04:01Z</time>
      </trkpt>
      <trkpt lat="47.65034" lon="6.87006">
        <ele>452</ele>
        <time>2010-05-29T12:04:02Z</time>
      </trkpt>
      <trkpt lat="47.65039" lon="6.87">
        <ele>451</ele>
        <time>2010-05-29T12:04:03Z</time>
      </trkpt>
      <trkpt lat="47.65043" lon="6.86993">
        <ele>450</ele>
        <time>2010-05-29T12:04:04Z</time>
      </trkpt>
      <trkpt lat="47.65049" lon="6.86985">
        <ele>449</ele>
        <time>2010-05-29T12:04:05Z</time>
      </trkpt>
      <trkpt lat="47.65054" lon="6.86978">
        <ele>448</ele>
        <time>2010-05-29T12:04:06Z</time>
      </trkpt>
      <trkpt lat="47.65058" lon="6.86971">
        <ele>447</ele>
        <time>2010-05-29T12:04:07Z</time>
      </trkpt>
      <trkpt lat="47.65065" lon="6.86961">
        <ele>447</ele>
        <time>2010-05-29T12:04:07Z</time>
      </trkpt>
      <trkpt lat="47.65073" lon="6.86957">
        <ele>442.5</ele>
        <time>2010-05-29T12:04:10Z</time>
      </trkpt>
      <trkpt lat="47.65081" lon="6.8696">
        <ele>441</ele>
        <time>2010-05-29T12:04:12Z</time>
      </trkpt>
      <trkpt lat="47.65087" lon="6.86964">
        <ele>439</ele>
        <time>2010-05-29T12:04:13Z</time>
      </trkpt>
      <trkpt lat="47.65093" lon="6.86969">
        <ele>437</ele>
        <time>2010-05-29T12:04:14Z</time>
      </trkpt>
      <trkpt lat="47.65098" lon="6.86975">
        <ele>437</ele>
        <time>2010-05-29T12:04:15Z</time>
      </trkpt>
      <trkpt lat="47.65102" lon="6.86983">
        <ele>436.5</ele>
        <time>2010-05-29T12:04:16Z</time>
      </trkpt>
      <trkpt lat="47.65105" lon="6.86991">
        <ele>436.5</ele>
        <time>2010-05-29T12:04:17Z</time>
      </trkpt>
      <trkpt lat="47.65107" lon="6.86999">
        <ele>436.5</ele>
        <time>2010-05-29T12:04:18Z</time>
      </trkpt>
      <trkpt lat="47.65109" lon="6.87006">
        <ele>436.5</ele>
        <time>2010-05-29T12:04:19Z</time>
      </trkpt>
      <trkpt lat="47.65112" lon="6.87013">
        <ele>436.5</ele>
        <time>2010-05-29T12:04:20Z</time>
      </trkpt>
      <trkpt lat="47.65114" lon="6.8702">
        <ele>436.5</ele>
        <time>2010-05-29T12:04:21Z</time>
      </trkpt>
      <trkpt lat="47.65117" lon="6.87026">
        <ele>436.5</ele>
        <time>2010-05-29T12:04:22Z</time>
      </trkpt>
      <trkpt lat="47.65119" lon="6.87032">
        <ele>436</ele>
        <time>2010-05-29T12:04:23Z</time>
      </trkpt>
      <trkpt lat="47.65122" lon="6.87037">
        <ele>435.5</ele>
        <time>2010-05-29T12:04:24Z</time>
      </trkpt>
      <trkpt lat="47.65126" lon="6.87043">
        <ele>435.5</ele>
        <time>2010-05-29T12:04:25Z</time>
      </trkpt>
      <trkpt lat="47.65129" lon="6.87049">
        <ele>435</ele>
        <time>2010-05-29T12:04:26Z</time>
      </trkpt>
      <trkpt lat="47.65132" lon="6.87054">
        <ele>434.5</ele>
        <time>2010-05-29T12:04:27Z</time>
      </trkpt>
      <trkpt lat="47.65135" lon="6.87059">
        <ele>435</ele>
        <time>2010-05-29T12:04:28Z</time>
      </trkpt>
      <trkpt lat="47.65139" lon="6.87064">
        <ele>434.5</ele>
        <time>2010-05-29T12:04:29Z</time>
      </trkpt>
      <trkpt lat="47.65143" lon="6.8707">
        <ele>434.5</ele>
        <time>2010-05-29T12:04:30Z</time>
      </trkpt>
      <trkpt lat="47.65147" lon="6.87076">
        <ele>433.5</ele>
        <time>2010-05-29T12:04:31Z</time>
      </trkpt>
      <trkpt lat="47.65151" lon="6.87082">
        <ele>432.5</ele>
        <time>2010-05-29T12:04:32Z</time>
      </trkpt>
      <trkpt lat="47.65156" lon="6.87087">
        <ele>431.5</ele>
        <time>2010-05-29T12:04:33Z</time>
      </trkpt>
      <trkpt lat="47.65161" lon="6.87091">
        <ele>431</ele>
        <time>2010-05-29T12:04:34Z</time>
      </trkpt>
      <trkpt lat="47.65167" lon="6.87096">
        <ele>430.5</ele>
        <time>2010-05-29T12:04:35Z</time>
      </trkpt>
      <trkpt lat="47.65173" lon="6.87101">
        <ele>429.5</ele>
        <time>2010-05-29T12:04:36Z</time>
      </trkpt>
      <trkpt lat="47.65178" lon="6.87106">
        <ele>429</ele>
        <time>2010-05-29T12:04:37Z</time>
      </trkpt>
      <trkpt lat="47.65183" lon="6.87113">
        <ele>428.5</ele>
        <time>2010-05-29T12:04:38Z</time>
      </trkpt>
      <trkpt lat="47.65186" lon="6.87121">
        <ele>428</ele>
        <time>2010-05-29T12:04:39Z</time>
      </trkpt>
      <trkpt lat="47.65189" lon="6.87128">
        <ele>428</ele>
        <time>2010-05-29T12:04:40Z</time>
      </trkpt>
      <trkpt lat="47.65191" lon="6.87136">
        <ele>428</ele>
        <time>2010-05-29T12:04:41Z</time>
      </trkpt>
      <trkpt lat="47.65193" lon="6.87144">
        <ele>428</ele>
        <time>2010-05-29T12:04:42Z</time>
      </trkpt>
      <trkpt lat="47.65195" lon="6.87152">
        <ele>428.5</ele>
        <time>2010-05-29T12:04:43Z</time>
      </trkpt>
      <trkpt lat="47.65196" lon="6.87159">
        <ele>428.5</ele>
        <time>2010-05-29T12:04:44Z</time>
      </trkpt>
      <trkpt lat="47.65197" lon="6.87167">
        <ele>428.5</ele>
        <time>2010-05-29T12:04:45Z</time>
      </trkpt>
      <trkpt lat="47.652" lon="6.87179">
        <ele>429</ele>
        <time>2010-05-29T12:04:47Z</time>
      </trkpt>
      <trkpt lat="47.65201" lon="6.87185">
        <ele>429</ele>
        <time>2010-05-29T12:04:48Z</time>
      </trkpt>
      <trkpt lat="47.65202" lon="6.87192">
        <ele>428.5</ele>
        <time>2010-05-29T12:04:49Z</time>
      </trkpt>
      <trkpt lat="47.65204" lon="6.87198">
        <ele>428.5</ele>
        <time>2010-05-29T12:04:50Z</time>
      </trkpt>
      <trkpt lat="47.65205" lon="6.87205">
        <ele>428</ele>
        <time>2010-05-29T12:04:51Z</time>
      </trkpt>
      <trkpt lat="47.65207" lon="6.87211">
        <ele>428</ele>
        <time>2010-05-29T12:04:52Z</time>
      </trkpt>
      <trkpt lat="47.65209" lon="6.87218">
        <ele>428</ele>
        <time>2010-05-29T12:04:53Z</time>
      </trkpt>
      <trkpt lat="47.65212" lon="6.8723">
        <ele>428</ele>
        <time>2010-05-29T12:04:55Z</time>
      </trkpt>
      <trkpt lat="47.65213" lon="6.87236">
        <ele>428</ele>
        <time>2010-05-29T12:04:56Z</time>
      </trkpt>
      <trkpt lat="47.65215" lon="6.87243">
        <ele>427.5</ele>
        <time>2010-05-29T12:04:57Z</time>
      </trkpt>
      <trkpt lat="47.65217" lon="6.87249">
        <ele>427.5</ele>
        <time>2010-05-29T12:04:58Z</time>
      </trkpt>
      <trkpt lat="47.65219" lon="6.87256">
        <ele>427</ele>
        <time>2010-05-29T12:04:59Z</time>
      </trkpt>
      <trkpt lat="47.65222" lon="6.87268">
        <ele>426.5</ele>
        <time>2010-05-29T12:05:01Z</time>
      </trkpt>
      <trkpt lat="47.65224" lon="6.87274">
        <ele>427</ele>
        <time>2010-05-29T12:05:02Z</time>
      </trkpt>
      <trkpt lat="47.65225" lon="6.8728">
        <ele>426.5</ele>
        <time>2010-05-29T12:05:03Z</time>
      </trkpt>
      <trkpt lat="47.65227" lon="6.87287">
        <ele>426.5</ele>
        <time>2010-05-29T12:05:04Z</time>
      </trkpt>
      <trkpt lat="47.65229" lon="6.87293">
        <ele>426.5</ele>
        <time>2010-05-29T12:05:05Z</time>
      </trkpt>
      <trkpt lat="47.65232" lon="6.87305">
        <ele>426.5</ele>
        <time>2010-05-29T12:05:07Z</time>
      </trkpt>
      <trkpt lat="47.65235" lon="6.87315">
        <ele>427</ele>
        <time>2010-05-29T12:05:07Z</time>
      </trkpt>
      <trkpt lat="47.65237" lon="6.87322">
        <ele>427</ele>
        <time>2010-05-29T12:05:09Z</time>
      </trkpt>
      <trkpt lat="47.65239" lon="6.87329">
        <ele>427</ele>
        <time>2010-05-29T12:05:10Z</time>
      </trkpt>
      <trkpt lat="47.65242" lon="6.87338">
        <ele>427</ele>
        <time>2010-05-29T12:05:12Z</time>
      </trkpt>
      <trkpt lat="47.65244" lon="6.87346">
        <ele>426.5</ele>
        <time>2010-05-29T12:05:13Z</time>
      </trkpt>
      <trkpt lat="47.65246" lon="6.87353">
        <ele>426.5</ele>
        <time>2010-05-29T12:05:14Z</time>
      </trkpt>
      <trkpt lat="47.65248" lon="6.8736">
        <ele>427</ele>
        <time>2010-05-29T12:05:15Z</time>
      </trkpt>
      <trkpt lat="47.6525" lon="6.87366">
        <ele>427</ele>
        <time>2010-05-29T12:05:16Z</time>
      </trkpt>
      <trkpt lat="47.65253" lon="6.87372">
        <ele>427</ele>
        <time>2010-05-29T12:05:17Z</time>
      </trkpt>
      <trkpt lat="47.65258" lon="6.87384">
        <ele>427</ele>
        <time>2010-05-29T12:05:19Z</time>
      </trkpt>
      <trkpt lat="47.65261" lon="6.87389">
        <ele>427</ele>
        <time>2010-05-29T12:05:20Z</time>
      </trkpt>
      <trkpt lat="47.65264" lon="6.87395">
        <ele>427.5</ele>
        <time>2010-05-29T12:05:21Z</time>
      </trkpt>
      <trkpt lat="47.65267" lon="6.874">
        <ele>427.5</ele>
        <time>2010-05-29T12:05:22Z</time>
      </trkpt>
      <trkpt lat="47.6527" lon="6.87406">
        <ele>427.5</ele>
        <time>2010-05-29T12:05:23Z</time>
      </trkpt>
      <trkpt lat="47.65273" lon="6.87418">
        <ele>426.5</ele>
        <time>2010-05-29T12:05:25Z</time>
      </trkpt>
      <trkpt lat="47.65275" lon="6.87425">
        <ele>426</ele>
        <time>2010-05-29T12:05:26Z</time>
      </trkpt>
      <trkpt lat="47.65276" lon="6.87432">
        <ele>426</ele>
        <time>2010-05-29T12:05:27Z</time>
      </trkpt>
      <trkpt lat="47.65277" lon="6.8744">
        <ele>425.5</ele>
        <time>2010-05-29T12:05:28Z</time>
      </trkpt>
      <trkpt lat="47.65279" lon="6.87447">
        <ele>425</ele>
        <time>2010-05-29T12:05:29Z</time>
      </trkpt>
      <trkpt lat="47.6528" lon="6.87454">
        <ele>425</ele>
        <time>2010-05-29T12:05:30Z</time>
      </trkpt>
      <trkpt lat="47.65282" lon="6.87461">
        <ele>425</ele>
        <time>2010-05-29T12:05:31Z</time>
      </trkpt>
      <trkpt lat="47.65284" lon="6.87468">
        <ele>425</ele>
        <time>2010-05-29T12:05:32Z</time>
      </trkpt>
      <trkpt lat="47.65285" lon="6.87474">
        <ele>425.5</ele>
        <time>2010-05-29T12:05:33Z</time>
      </trkpt>
      <trkpt lat="47.65286" lon="6.87481">
        <ele>426</ele>
        <time>2010-05-29T12:05:34Z</time>
      </trkpt>
      <trkpt lat="47.65288" lon="6.87487">
        <ele>426</ele>
        <time>2010-05-29T12:05:35Z</time>
      </trkpt>
      <trkpt lat="47.65289" lon="6.87495">
        <ele>426</ele>
        <time>2010-05-29T12:05:36Z</time>
      </trkpt>
      <trkpt lat="47.6529" lon="6.87502">
        <ele>426</ele>
        <time>2010-05-29T12:05:37Z</time>
      </trkpt>
      <trkpt lat="47.65292" lon="6.8751">
        <ele>425.5</ele>
        <time>2010-05-29T12:05:38Z</time>
      </trkpt>
      <trkpt lat="47.65293" lon="6.87517">
        <ele>425.5</ele>
        <time>2010-05-29T12:05:39Z</time>
      </trkpt>
      <trkpt lat="47.65294" lon="6.87525">
        <ele>426</ele>
        <time>2010-05-29T12:05:40Z</time>
      </trkpt>
      <trkpt lat="47.65295" lon="6.87531">
        <ele>425.5</ele>
        <time>2010-05-29T12:05:41Z</time>
      </trkpt>
      <trkpt lat="47.65296" lon="6.87538">
        <ele>425.5</ele>
        <time>2010-05-29T12:05:42Z</time>
      </trkpt>
      <trkpt lat="47.65297" lon="6.87546">
        <ele>425</ele>
        <time>2010-05-29T12:05:43Z</time>
      </trkpt>
      <trkpt lat="47.65298" lon="6.87553">
        <ele>424.5</ele>
        <time>2010-05-29T12:05:44Z</time>
      </trkpt>
      <trkpt lat="47.653" lon="6.8756">
        <ele>424.5</ele>
        <time>2010-05-29T12:05:45Z</time>
      </trkpt>
      <trkpt lat="47.653" lon="6.87567">
        <ele>425</ele>
        <time>2010-05-29T12:05:46Z</time>
      </trkpt>
      <trkpt lat="47.65301" lon="6.87575">
        <ele>424.5</ele>
        <time>2010-05-29T12:05:47Z</time>
      </trkpt>
      <trkpt lat="47.65302" lon="6.87582">
        <ele>424.5</ele>
        <time>2010-05-29T12:05:48Z</time>
      </trkpt>
      <trkpt lat="47.65303" lon="6.87589">
        <ele>425</ele>
        <time>2010-05-29T12:05:49Z</time>
      </trkpt>
      <trkpt lat="47.65304" lon="6.87597">
        <ele>425</ele>
        <time>2010-05-29T12:05:50Z</time>
      </trkpt>
      <trkpt lat="47.65305" lon="6.87605">
        <ele>425</ele>
        <time>2010-05-29T12:05:51Z</time>
      </trkpt>
      <trkpt lat="47.65307" lon="6.87612">
        <ele>424.5</ele>
        <time>2010-05-29T12:05:52Z</time>
      </trkpt>
      <trkpt lat="47.65308" lon="6.8762">
        <ele>425</ele>
        <time>2010-05-29T12:05:53Z</time>
      </trkpt>
      <trkpt lat="47.65309" lon="6.87627">
        <ele>424.5</ele>
        <time>2010-05-29T12:05:54Z</time>
      </trkpt>
      <trkpt lat="47.6531" lon="6.87635">
        <ele>424.5</ele>
        <time>2010-05-29T12:05:55Z</time>
      </trkpt>
      <trkpt lat="47.65311" lon="6.87643">
        <ele>424.5</ele>
        <time>2010-05-29T12:05:56Z</time>
      </trkpt>
      <trkpt lat="47.65312" lon="6.87651">
        <ele>424.5</ele>
        <time>2010-05-29T12:05:57Z</time>
      </trkpt>
      <trkpt lat="47.65313" lon="6.87658">
        <ele>424</ele>
        <time>2010-05-29T12:05:58Z</time>
      </trkpt>
      <trkpt lat="47.65313" lon="6.87665">
        <ele>424</ele>
        <time>2010-05-29T12:05:59Z</time>
      </trkpt>
      <trkpt lat="47.65314" lon="6.87672">
        <ele>423.5</ele>
        <time>2010-05-29T12:06:00Z</time>
      </trkpt>
      <trkpt lat="47.65316" lon="6.87679">
        <ele>423.5</ele>
        <time>2010-05-29T12:06:01Z</time>
      </trkpt>
      <trkpt lat="47.65317" lon="6.87687">
        <ele>423.5</ele>
        <time>2010-05-29T12:06:02Z</time>
      </trkpt>
      <trkpt lat="47.65318" lon="6.87694">
        <ele>423</ele>
        <time>2010-05-29T12:06:03Z</time>
      </trkpt>
      <trkpt lat="47.65319" lon="6.87701">
        <ele>423</ele>
        <time>2010-05-29T12:06:04Z</time>
      </trkpt>
      <trkpt lat="47.6532" lon="6.87708">
        <ele>423</ele>
        <time>2010-05-29T12:06:05Z</time>
      </trkpt>
      <trkpt lat="47.6532" lon="6.87715">
        <ele>423</ele>
        <time>2010-05-29T12:06:06Z</time>
      </trkpt>
      <trkpt lat="47.65321" lon="6.87722">
        <ele>423</ele>
        <time>2010-05-29T12:06:07Z</time>
      </trkpt>
      <trkpt lat="47.65322" lon="6.87734">
        <ele>423</ele>
        <time>2010-05-29T12:06:07Z</time>
      </trkpt>
      <trkpt lat="47.65322" lon="6.87747">
        <ele>423.5</ele>
        <time>2010-05-29T12:06:10Z</time>
      </trkpt>
      <trkpt lat="47.65321" lon="6.87757">
        <ele>423.5</ele>
        <time>2010-05-29T12:06:12Z</time>
      </trkpt>
      <trkpt lat="47.65322" lon="6.87766">
        <ele>424</ele>
        <time>2010-05-29T12:06:13Z</time>
      </trkpt>
      <trkpt lat="47.65323" lon="6.87774">
        <ele>424</ele>
        <time>2010-05-29T12:06:14Z</time>
      </trkpt>
      <trkpt lat="47.65323" lon="6.87782">
        <ele>423.5</ele>
        <time>2010-05-29T12:06:15Z</time>
      </trkpt>
      <trkpt lat="47.65322" lon="6.87789">
        <ele>424</ele>
        <time>2010-05-29T12:06:16Z</time>
      </trkpt>
      <trkpt lat="47.65322" lon="6.87796">
        <ele>424</ele>
        <time>2010-05-29T12:06:17Z</time>
      </trkpt>
      <trkpt lat="47.6532" lon="6.87802">
        <ele>424.5</ele>
        <time>2010-05-29T12:06:18Z</time>
      </trkpt>
      <trkpt lat="47.65318" lon="6.87814">
        <ele>424.5</ele>
        <time>2010-05-29T12:06:20Z</time>
      </trkpt>
      <trkpt lat="47.65314" lon="6.87824">
        <ele>424</ele>
        <time>2010-05-29T12:06:22Z</time>
      </trkpt>
      <trkpt lat="47.6531" lon="6.87832">
        <ele>424</ele>
        <time>2010-05-29T12:06:24Z</time>
      </trkpt>
      <trkpt lat="47.65304" lon="6.87838">
        <ele>424</ele>
        <time>2010-05-29T12:06:26Z</time>
      </trkpt>
      <trkpt lat="47.653" lon="6.87844">
        <ele>424</ele>
        <time>2010-05-29T12:06:28Z</time>
      </trkpt>
      <trkpt lat="47.65295" lon="6.87852">
        <ele>424</ele>
        <time>2010-05-29T12:06:30Z</time>
      </trkpt>
      <trkpt lat="47.65291" lon="6.87859">
        <ele>423.5</ele>
        <time>2010-05-29T12:06:32Z</time>
      </trkpt>
      <trkpt lat="47.65287" lon="6.87865">
        <ele>423.5</ele>
        <time>2010-05-29T12:06:34Z</time>
      </trkpt>
      <trkpt lat="47.65283" lon="6.8787">
        <ele>424</ele>
        <time>2010-05-29T12:06:36Z</time>
      </trkpt>
      <trkpt lat="47.6528" lon="6.87874">
        <ele>424.5</ele>
        <time>2010-05-29T12:06:38Z</time>
      </trkpt>
      <trkpt lat="47.65275" lon="6.87881">
        <ele>425</ele>
        <time>2010-05-29T12:06:41Z</time>
      </trkpt>
      <trkpt lat="47.6527" lon="6.87885">
        <ele>424.5</ele>
        <time>2010-05-29T12:06:43Z</time>
      </trkpt>
      <trkpt lat="47.65266" lon="6.87891">
        <ele>424.5</ele>
        <time>2010-05-29T12:06:45Z</time>
      </trkpt>
      <trkpt lat="47.65263" lon="6.87899">
        <ele>425.5</ele>
        <time>2010-05-29T12:06:47Z</time>
      </trkpt>
      <trkpt lat="47.65261" lon="6.87906">
        <ele>426.5</ele>
        <time>2010-05-29T12:06:49Z</time>
      </trkpt>
      <trkpt lat="47.6526" lon="6.87914">
        <ele>427</ele>
        <time>2010-05-29T12:06:51Z</time>
      </trkpt>
      <trkpt lat="47.65256" lon="6.87922">
        <ele>427.5</ele>
        <time>2010-05-29T12:06:53Z</time>
      </trkpt>
      <trkpt lat="47.65253" lon="6.87931">
        <ele>428</ele>
        <time>2010-05-29T12:06:55Z</time>
      </trkpt>
      <trkpt lat="47.6525" lon="6.8794">
        <ele>428.5</ele>
        <time>2010-05-29T12:06:57Z</time>
      </trkpt>
      <trkpt lat="47.65247" lon="6.87951">
        <ele>428.5</ele>
        <time>2010-05-29T12:06:59Z</time>
      </trkpt>
      <trkpt lat="47.65245" lon="6.87964">
        <ele>427</ele>
        <time>2010-05-29T12:07:01Z</time>
      </trkpt>
      <trkpt lat="47.65243" lon="6.8797">
        <ele>426.5</ele>
        <time>2010-05-29T12:07:02Z</time>
      </trkpt>
      <trkpt lat="47.6524" lon="6.87981">
        <ele>425</ele>
        <time>2010-05-29T12:07:04Z</time>
      </trkpt>
      <trkpt lat="47.65235" lon="6.87989">
        <ele>425.5</ele>
        <time>2010-05-29T12:07:06Z</time>
      </trkpt>
      <trkpt lat="47.65237" lon="6.88003">
        <ele>425.5</ele>
        <time>2010-05-29T12:07:07Z</time>
      </trkpt>
      <trkpt lat="47.65238" lon="6.88011">
        <ele>423.5</ele>
        <time>2010-05-29T12:07:09Z</time>
      </trkpt>
      <trkpt lat="47.65238" lon="6.88019">
        <ele>423</ele>
        <time>2010-05-29T12:07:10Z</time>
      </trkpt>
      <trkpt lat="47.65238" lon="6.88028">
        <ele>424</ele>
        <time>2010-05-29T12:07:12Z</time>
      </trkpt>
      <trkpt lat="47.65238" lon="6.88037">
        <ele>424.5</ele>
        <time>2010-05-29T12:07:13Z</time>
      </trkpt>
      <trkpt lat="47.65239" lon="6.88044">
        <ele>425</ele>
        <time>2010-05-29T12:07:14Z</time>
      </trkpt>
      <trkpt lat="47.65238" lon="6.88052">
        <ele>425</ele>
        <time>2010-05-29T12:07:15Z</time>
      </trkpt>
      <trkpt lat="47.65238" lon="6.8806">
        <ele>424.5</ele>
        <time>2010-05-29T12:07:16Z</time>
      </trkpt>
      <trkpt lat="47.65238" lon="6.88068">
        <ele>424.5</ele>
        <time>2010-05-29T12:07:17Z</time>
      </trkpt>
      <trkpt lat="47.65238" lon="6.88076">
        <ele>424</ele>
        <time>2010-05-29T12:07:18Z</time>
      </trkpt>
      <trkpt lat="47.65237" lon="6.88084">
        <ele>423.5</ele>
        <time>2010-05-29T12:07:19Z</time>
      </trkpt>
      <trkpt lat="47.65237" lon="6.88092">
        <ele>424</ele>
        <time>2010-05-29T12:07:20Z</time>
      </trkpt>
      <trkpt lat="47.65238" lon="6.881">
        <ele>424</ele>
        <time>2010-05-29T12:07:21Z</time>
      </trkpt>
      <trkpt lat="47.65239" lon="6.88107">
        <ele>424.5</ele>
        <time>2010-05-29T12:07:22Z</time>
      </trkpt>
      <trkpt lat="47.6524" lon="6.88114">
        <ele>424.5</ele>
        <time>2010-05-29T12:07:23Z</time>
      </trkpt>
      <trkpt lat="47.65242" lon="6.88121">
        <ele>424.5</ele>
        <time>2010-05-29T12:07:24Z</time>
      </trkpt>
      <trkpt lat="47.65244" lon="6.88127">
        <ele>424.5</ele>
        <time>2010-05-29T12:07:25Z</time>
      </trkpt>
      <trkpt lat="47.65246" lon="6.88133">
        <ele>424.5</ele>
        <time>2010-05-29T12:07:26Z</time>
      </trkpt>
      <trkpt lat="47.65248" lon="6.88139">
        <ele>424.5</ele>
        <time>2010-05-29T12:07:27Z</time>
      </trkpt>
      <trkpt lat="47.6525" lon="6.88145">
        <ele>424.5</ele>
        <time>2010-05-29T12:07:28Z</time>
      </trkpt>
      <trkpt lat="47.65252" lon="6.88152">
        <ele>424.5</ele>
        <time>2010-05-29T12:07:29Z</time>
      </trkpt>
      <trkpt lat="47.65254" lon="6.88158">
        <ele>424.5</ele>
        <time>2010-05-29T12:07:30Z</time>
      </trkpt>
      <trkpt lat="47.65258" lon="6.88168">
        <ele>425.5</ele>
        <time>2010-05-29T12:07:32Z</time>
      </trkpt>
      <trkpt lat="47.65263" lon="6.88174">
        <ele>426</ele>
        <time>2010-05-29T12:07:34Z</time>
      </trkpt>
      <trkpt lat="47.65271" lon="6.88173">
        <ele>425.5</ele>
        <time>2010-05-29T12:07:36Z</time>
      </trkpt>
      <trkpt lat="47.65275" lon="6.88172">
        <ele>425.5</ele>
        <time>2010-05-29T12:07:37Z</time>
      </trkpt>
      <trkpt lat="47.65284" lon="6.88167">
        <ele>425.5</ele>
        <time>2010-05-29T12:07:39Z</time>
      </trkpt>
      <trkpt lat="47.65292" lon="6.88163">
        <ele>425.5</ele>
        <time>2010-05-29T12:07:41Z</time>
      </trkpt>
      <trkpt lat="47.65298" lon="6.88161">
        <ele>426</ele>
        <time>2010-05-29T12:07:42Z</time>
      </trkpt>
      <trkpt lat="47.65303" lon="6.88163">
        <ele>426.5</ele>
        <time>2010-05-29T12:07:43Z</time>
      </trkpt>
      <trkpt lat="47.65306" lon="6.88167">
        <ele>427.5</ele>
        <time>2010-05-29T12:07:44Z</time>
      </trkpt>
      <trkpt lat="47.6531" lon="6.88173">
        <ele>427</ele>
        <time>2010-05-29T12:07:45Z</time>
      </trkpt>
      <trkpt lat="47.65313" lon="6.88179">
        <ele>427</ele>
        <time>2010-05-29T12:07:46Z</time>
      </trkpt>
      <trkpt lat="47.65318" lon="6.88184">
        <ele>427</ele>
        <time>2010-05-29T12:07:47Z</time>
      </trkpt>
      <trkpt lat="47.65322" lon="6.88189">
        <ele>426.5</ele>
        <time>2010-05-29T12:07:48Z</time>
      </trkpt>
      <trkpt lat="47.65326" lon="6.88193">
        <ele>427</ele>
        <time>2010-05-29T12:07:49Z</time>
      </trkpt>
      <trkpt lat="47.6533" lon="6.88197">
        <ele>427.5</ele>
        <time>2010-05-29T12:07:50Z</time>
      </trkpt>
      <trkpt lat="47.65334" lon="6.88201">
        <ele>427.5</ele>
        <time>2010-05-29T12:07:51Z</time>
      </trkpt>
      <trkpt lat="47.65338" lon="6.88205">
        <ele>428</ele>
        <time>2010-05-29T12:07:52Z</time>
      </trkpt>
      <trkpt lat="47.65343" lon="6.88209">
        <ele>428</ele>
        <time>2010-05-29T12:07:53Z</time>
      </trkpt>
      <trkpt lat="47.65347" lon="6.88212">
        <ele>428</ele>
        <time>2010-05-29T12:07:54Z</time>
      </trkpt>
      <trkpt lat="47.65351" lon="6.88215">
        <ele>429</ele>
        <time>2010-05-29T12:07:55Z</time>
      </trkpt>
      <trkpt lat="47.65358" lon="6.88221">
        <ele>429.5</ele>
        <time>2010-05-29T12:07:57Z</time>
      </trkpt>
      <trkpt lat="47.65365" lon="6.88229">
        <ele>430</ele>
        <time>2010-05-29T12:07:59Z</time>
      </trkpt>
      <trkpt lat="47.65368" lon="6.88235">
        <ele>430.5</ele>
        <time>2010-05-29T12:08:00Z</time>
      </trkpt>
      <trkpt lat="47.6537" lon="6.88241">
        <ele>431</ele>
        <time>2010-05-29T12:08:01Z</time>
      </trkpt>
      <trkpt lat="47.65373" lon="6.88248">
        <ele>431</ele>
        <time>2010-05-29T12:08:02Z</time>
      </trkpt>
      <trkpt lat="47.65375" lon="6.88254">
        <ele>431</ele>
        <time>2010-05-29T12:08:03Z</time>
      </trkpt>
      <trkpt lat="47.65377" lon="6.88262">
        <ele>431.5</ele>
        <time>2010-05-29T12:08:05Z</time>
      </trkpt>
      <trkpt lat="47.65379" lon="6.88269">
        <ele>433</ele>
        <time>2010-05-29T12:08:07Z</time>
      </trkpt>
      <trkpt lat="47.65385" lon="6.88278">
        <ele>433.5</ele>
        <time>2010-05-29T12:08:13Z</time>
      </trkpt>
      <trkpt lat="47.6539" lon="6.88285">
        <ele>435.5</ele>
        <time>2010-05-29T12:08:15Z</time>
      </trkpt>
      <trkpt lat="47.65395" lon="6.88293">
        <ele>435</ele>
        <time>2010-05-29T12:08:17Z</time>
      </trkpt>
      <trkpt lat="47.654" lon="6.88302">
        <ele>435</ele>
        <time>2010-05-29T12:08:19Z</time>
      </trkpt>
      <trkpt lat="47.65405" lon="6.88311">
        <ele>436.5</ele>
        <time>2010-05-29T12:08:21Z</time>
      </trkpt>
      <trkpt lat="47.6541" lon="6.88318">
        <ele>437.5</ele>
        <time>2010-05-29T12:08:23Z</time>
      </trkpt>
      <trkpt lat="47.65415" lon="6.88326">
        <ele>438.5</ele>
        <time>2010-05-29T12:08:25Z</time>
      </trkpt>
      <trkpt lat="47.65418" lon="6.88331">
        <ele>438.5</ele>
        <time>2010-05-29T12:08:26Z</time>
      </trkpt>
      <trkpt lat="47.65421" lon="6.88336">
        <ele>438.5</ele>
        <time>2010-05-29T12:08:27Z</time>
      </trkpt>
      <trkpt lat="47.65427" lon="6.88347">
        <ele>439.5</ele>
        <time>2010-05-29T12:08:29Z</time>
      </trkpt>
      <trkpt lat="47.6543" lon="6.88353">
        <ele>439.5</ele>
        <time>2010-05-29T12:08:30Z</time>
      </trkpt>
      <trkpt lat="47.65434" lon="6.88358">
        <ele>439.5</ele>
        <time>2010-05-29T12:08:31Z</time>
      </trkpt>
      <trkpt lat="47.65438" lon="6.88363">
        <ele>439</ele>
        <time>2010-05-29T12:08:32Z</time>
      </trkpt>
      <trkpt lat="47.65443" lon="6.88368">
        <ele>438.5</ele>
        <time>2010-05-29T12:08:33Z</time>
      </trkpt>
      <trkpt lat="47.65447" lon="6.88373">
        <ele>438</ele>
        <time>2010-05-29T12:08:34Z</time>
      </trkpt>
      <trkpt lat="47.65451" lon="6.88377">
        <ele>439</ele>
        <time>2010-05-29T12:08:35Z</time>
      </trkpt>
      <trkpt lat="47.65455" lon="6.8838">
        <ele>439</ele>
        <time>2010-05-29T12:08:36Z</time>
      </trkpt>
      <trkpt lat="47.65459" lon="6.88384">
        <ele>438.5</ele>
        <time>2010-05-29T12:08:37Z</time>
      </trkpt>
      <trkpt lat="47.65464" lon="6.88387">
        <ele>438.5</ele>
        <time>2010-05-29T12:08:38Z</time>
      </trkpt>
      <trkpt lat="47.65469" lon="6.88389">
        <ele>438.5</ele>
        <time>2010-05-29T12:08:39Z</time>
      </trkpt>
      <trkpt lat="47.65474" lon="6.88391">
        <ele>438</ele>
        <time>2010-05-29T12:08:40Z</time>
      </trkpt>
      <trkpt lat="47.65478" lon="6.88393">
        <ele>437.5</ele>
        <time>2010-05-29T12:08:41Z</time>
      </trkpt>
      <trkpt lat="47.65483" lon="6.88394">
        <ele>437</ele>
        <time>2010-05-29T12:08:42Z</time>
      </trkpt>
      <trkpt lat="47.6549" lon="6.88401">
        <ele>437.5</ele>
        <time>2010-05-29T12:08:44Z</time>
      </trkpt>
      <trkpt lat="47.65494" lon="6.88405">
        <ele>437</ele>
        <time>2010-05-29T12:08:45Z</time>
      </trkpt>
      <trkpt lat="47.65498" lon="6.88408">
        <ele>437.5</ele>
        <time>2010-05-29T12:08:46Z</time>
      </trkpt>
      <trkpt lat="47.65502" lon="6.88411">
        <ele>437.5</ele>
        <time>2010-05-29T12:08:47Z</time>
      </trkpt>
      <trkpt lat="47.65507" lon="6.88412">
        <ele>437</ele>
        <time>2010-05-29T12:08:48Z</time>
      </trkpt>
      <trkpt lat="47.65512" lon="6.88412">
        <ele>435.5</ele>
        <time>2010-05-29T12:08:49Z</time>
      </trkpt>
      <trkpt lat="47.65517" lon="6.88412">
        <ele>434.5</ele>
        <time>2010-05-29T12:08:50Z</time>
      </trkpt>
      <trkpt lat="47.65522" lon="6.88412">
        <ele>433</ele>
        <time>2010-05-29T12:08:51Z</time>
      </trkpt>
      <trkpt lat="47.65527" lon="6.88412">
        <ele>432</ele>
        <time>2010-05-29T12:08:52Z</time>
      </trkpt>
      <trkpt lat="47.65531" lon="6.8841">
        <ele>432.5</ele>
        <time>2010-05-29T12:08:53Z</time>
      </trkpt>
      <trkpt lat="47.65536" lon="6.88409">
        <ele>432</ele>
        <time>2010-05-29T12:08:54Z</time>
      </trkpt>
      <trkpt lat="47.65541" lon="6.88408">
        <ele>432</ele>
        <time>2010-05-29T12:08:55Z</time>
      </trkpt>
      <trkpt lat="47.65545" lon="6.88406">
        <ele>432</ele>
        <time>2010-05-29T12:08:56Z</time>
      </trkpt>
      <trkpt lat="47.6555" lon="6.88405">
        <ele>431.5</ele>
        <time>2010-05-29T12:08:57Z</time>
      </trkpt>
      <trkpt lat="47.65555" lon="6.88403">
        <ele>431.5</ele>
        <time>2010-05-29T12:08:58Z</time>
      </trkpt>
      <trkpt lat="47.6556" lon="6.88401">
        <ele>431.5</ele>
        <time>2010-05-29T12:08:59Z</time>
      </trkpt>
      <trkpt lat="47.65565" lon="6.88399">
        <ele>431</ele>
        <time>2010-05-29T12:09:00Z</time>
      </trkpt>
      <trkpt lat="47.6557" lon="6.88397">
        <ele>431</ele>
        <time>2010-05-29T12:09:01Z</time>
      </trkpt>
      <trkpt lat="47.65574" lon="6.88394">
        <ele>431</ele>
        <time>2010-05-29T12:09:02Z</time>
      </trkpt>
      <trkpt lat="47.65579" lon="6.88392">
        <ele>431</ele>
        <time>2010-05-29T12:09:03Z</time>
      </trkpt>
      <trkpt lat="47.65583" lon="6.8839">
        <ele>431</ele>
        <time>2010-05-29T12:09:04Z</time>
      </trkpt>
      <trkpt lat="47.65588" lon="6.88388">
        <ele>430.5</ele>
        <time>2010-05-29T12:09:05Z</time>
      </trkpt>
      <trkpt lat="47.65592" lon="6.88385">
        <ele>430.5</ele>
        <time>2010-05-29T12:09:06Z</time>
      </trkpt>
      <trkpt lat="47.65596" lon="6.88381">
        <ele>430.5</ele>
        <time>2010-05-29T12:09:07Z</time>
      </trkpt>
      <trkpt lat="47.65602" lon="6.88375">
        <ele>430.5</ele>
        <time>2010-05-29T12:09:07Z</time>
      </trkpt>
      <trkpt lat="47.65608" lon="6.88366">
        <ele>430.5</ele>
        <time>2010-05-29T12:09:10Z</time>
      </trkpt>
      <trkpt lat="47.65611" lon="6.88355">
        <ele>429.5</ele>
        <time>2010-05-29T12:09:12Z</time>
      </trkpt>
      <trkpt lat="47.65614" lon="6.8835">
        <ele>429</ele>
        <time>2010-05-29T12:09:13Z</time>
      </trkpt>
      <trkpt lat="47.65616" lon="6.88343">
        <ele>428</ele>
        <time>2010-05-29T12:09:14Z</time>
      </trkpt>
      <trkpt lat="47.65619" lon="6.88337">
        <ele>427.5</ele>
        <time>2010-05-29T12:09:15Z</time>
      </trkpt>
      <trkpt lat="47.65622" lon="6.88331">
        <ele>427.5</ele>
        <time>2010-05-29T12:09:16Z</time>
      </trkpt>
      <trkpt lat="47.65624" lon="6.88325">
        <ele>427</ele>
        <time>2010-05-29T12:09:17Z</time>
      </trkpt>
      <trkpt lat="47.65627" lon="6.88319">
        <ele>426.5</ele>
        <time>2010-05-29T12:09:18Z</time>
      </trkpt>
      <trkpt lat="47.65629" lon="6.88314">
        <ele>426</ele>
        <time>2010-05-29T12:09:19Z</time>
      </trkpt>
      <trkpt lat="47.65632" lon="6.88308">
        <ele>426</ele>
        <time>2010-05-29T12:09:20Z</time>
      </trkpt>
      <trkpt lat="47.65634" lon="6.88302">
        <ele>426</ele>
        <time>2010-05-29T12:09:21Z</time>
      </trkpt>
      <trkpt lat="47.65639" lon="6.8829">
        <ele>425</ele>
        <time>2010-05-29T12:09:23Z</time>
      </trkpt>
      <trkpt lat="47.65641" lon="6.88284">
        <ele>425</ele>
        <time>2010-05-29T12:09:24Z</time>
      </trkpt>
      <trkpt lat="47.65644" lon="6.88279">
        <ele>424.5</ele>
        <time>2010-05-29T12:09:25Z</time>
      </trkpt>
      <trkpt lat="47.65647" lon="6.88273">
        <ele>424.5</ele>
        <time>2010-05-29T12:09:26Z</time>
      </trkpt>
      <trkpt lat="47.65649" lon="6.88267">
        <ele>424</ele>
        <time>2010-05-29T12:09:27Z</time>
      </trkpt>
      <trkpt lat="47.65652" lon="6.88262">
        <ele>424</ele>
        <time>2010-05-29T12:09:28Z</time>
      </trkpt>
      <trkpt lat="47.65655" lon="6.88257">
        <ele>423.5</ele>
        <time>2010-05-29T12:09:29Z</time>
      </trkpt>
      <trkpt lat="47.65657" lon="6.88251">
        <ele>423</ele>
        <time>2010-05-29T12:09:30Z</time>
      </trkpt>
      <trkpt lat="47.65662" lon="6.8824">
        <ele>422.5</ele>
        <time>2010-05-29T12:09:32Z</time>
      </trkpt>
      <trkpt lat="47.65664" lon="6.88229">
        <ele>422</ele>
        <time>2010-05-29T12:09:34Z</time>
      </trkpt>
      <trkpt lat="47.65662" lon="6.88217">
        <ele>422.5</ele>
        <time>2010-05-29T12:09:36Z</time>
      </trkpt>
      <trkpt lat="47.65658" lon="6.88207">
        <ele>422</ele>
        <time>2010-05-29T12:09:38Z</time>
      </trkpt>
      <trkpt lat="47.65655" lon="6.88198">
        <ele>421</ele>
        <time>2010-05-29T12:09:40Z</time>
      </trkpt>
      <trkpt lat="47.65653" lon="6.88189">
        <ele>421</ele>
        <time>2010-05-29T12:09:42Z</time>
      </trkpt>
      <trkpt lat="47.65648" lon="6.88181">
        <ele>421.5</ele>
        <time>2010-05-29T12:09:44Z</time>
      </trkpt>
      <trkpt lat="47.65643" lon="6.88174">
        <ele>422</ele>
        <time>2010-05-29T12:09:46Z</time>
      </trkpt>
      <trkpt lat="47.65641" lon="6.88167">
        <ele>423.5</ele>
        <time>2010-05-29T12:09:49Z</time>
      </trkpt>
      <trkpt lat="47.65645" lon="6.8816">
        <ele>425.5</ele>
        <time>2010-05-29T12:09:50Z</time>
      </trkpt>
      <trkpt lat="47.6565" lon="6.88154">
        <ele>426.5</ele>
        <time>2010-05-29T12:09:51Z</time>
      </trkpt>
      <trkpt lat="47.65655" lon="6.88151">
        <ele>426.5</ele>
        <time>2010-05-29T12:09:52Z</time>
      </trkpt>
      <trkpt lat="47.6566" lon="6.88148">
        <ele>427</ele>
        <time>2010-05-29T12:09:53Z</time>
      </trkpt>
      <trkpt lat="47.65665" lon="6.88145">
        <ele>427.5</ele>
        <time>2010-05-29T12:09:54Z</time>
      </trkpt>
      <trkpt lat="47.6567" lon="6.88141">
        <ele>428</ele>
        <time>2010-05-29T12:09:55Z</time>
      </trkpt>
      <trkpt lat="47.65674" lon="6.88137">
        <ele>428</ele>
        <time>2010-05-29T12:09:56Z</time>
      </trkpt>
      <trkpt lat="47.65677" lon="6.88132">
        <ele>428</ele>
        <time>2010-05-29T12:09:57Z</time>
      </trkpt>
      <trkpt lat="47.65682" lon="6.88122">
        <ele>429</ele>
        <time>2010-05-29T12:09:59Z</time>
      </trkpt>
      <trkpt lat="47.65683" lon="6.88111">
        <ele>429</ele>
        <time>2010-05-29T12:10:01Z</time>
      </trkpt>
      <trkpt lat="47.65681" lon="6.88099">
        <ele>428.5</ele>
        <time>2010-05-29T12:10:03Z</time>
      </trkpt>
      <trkpt lat="47.65677" lon="6.88087">
        <ele>428</ele>
        <time>2010-05-29T12:10:05Z</time>
      </trkpt>
      <trkpt lat="47.65674" lon="6.88075">
        <ele>427.5</ele>
        <time>2010-05-29T12:10:07Z</time>
      </trkpt>
      <trkpt lat="47.65671" lon="6.88066">
        <ele>428</ele>
        <time>2010-05-29T12:10:07Z</time>
      </trkpt>
      <trkpt lat="47.65668" lon="6.88055">
        <ele>427.5</ele>
        <time>2010-05-29T12:10:10Z</time>
      </trkpt>
      <trkpt lat="47.65666" lon="6.88046">
        <ele>427.5</ele>
        <time>2010-05-29T12:10:12Z</time>
      </trkpt>
      <trkpt lat="47.65665" lon="6.88039">
        <ele>426.5</ele>
        <time>2010-05-29T12:10:13Z</time>
      </trkpt>
      <trkpt lat="47.65664" lon="6.88032">
        <ele>426</ele>
        <time>2010-05-29T12:10:14Z</time>
      </trkpt>
      <trkpt lat="47.65663" lon="6.88025">
        <ele>426</ele>
        <time>2010-05-29T12:10:15Z</time>
      </trkpt>
      <trkpt lat="47.65662" lon="6.88018">
        <ele>424.5</ele>
        <time>2010-05-29T12:10:16Z</time>
      </trkpt>
      <trkpt lat="47.6566" lon="6.88011">
        <ele>424</ele>
        <time>2010-05-29T12:10:17Z</time>
      </trkpt>
      <trkpt lat="47.65659" lon="6.88005">
        <ele>423.5</ele>
        <time>2010-05-29T12:10:18Z</time>
      </trkpt>
      <trkpt lat="47.65657" lon="6.87998">
        <ele>423</ele>
        <time>2010-05-29T12:10:19Z</time>
      </trkpt>
      <trkpt lat="47.65656" lon="6.87991">
        <ele>422.5</ele>
        <time>2010-05-29T12:10:20Z</time>
      </trkpt>
      <trkpt lat="47.65655" lon="6.87983">
        <ele>422.5</ele>
        <time>2010-05-29T12:10:21Z</time>
      </trkpt>
      <trkpt lat="47.65653" lon="6.87976">
        <ele>422</ele>
        <time>2010-05-29T12:10:22Z</time>
      </trkpt>
      <trkpt lat="47.65652" lon="6.87969">
        <ele>421.5</ele>
        <time>2010-05-29T12:10:23Z</time>
      </trkpt>
      <trkpt lat="47.6565" lon="6.87962">
        <ele>421.5</ele>
        <time>2010-05-29T12:10:24Z</time>
      </trkpt>
      <trkpt lat="47.65648" lon="6.87954">
        <ele>421</ele>
        <time>2010-05-29T12:10:25Z</time>
      </trkpt>
      <trkpt lat="47.65646" lon="6.87946">
        <ele>421</ele>
        <time>2010-05-29T12:10:26Z</time>
      </trkpt>
      <trkpt lat="47.65644" lon="6.87939">
        <ele>421</ele>
        <time>2010-05-29T12:10:27Z</time>
      </trkpt>
      <trkpt lat="47.65642" lon="6.87931">
        <ele>421</ele>
        <time>2010-05-29T12:10:28Z</time>
      </trkpt>
      <trkpt lat="47.65641" lon="6.87923">
        <ele>421</ele>
        <time>2010-05-29T12:10:29Z</time>
      </trkpt>
      <trkpt lat="47.65639" lon="6.87914">
        <ele>420.5</ele>
        <time>2010-05-29T12:10:30Z</time>
      </trkpt>
      <trkpt lat="47.65638" lon="6.87906">
        <ele>420.5</ele>
        <time>2010-05-29T12:10:31Z</time>
      </trkpt>
      <trkpt lat="47.65638" lon="6.87899">
        <ele>420</ele>
        <time>2010-05-29T12:10:32Z</time>
      </trkpt>
      <trkpt lat="47.65637" lon="6.87891">
        <ele>419.5</ele>
        <time>2010-05-29T12:10:33Z</time>
      </trkpt>
      <trkpt lat="47.65637" lon="6.87884">
        <ele>419.5</ele>
        <time>2010-05-29T12:10:34Z</time>
      </trkpt>
      <trkpt lat="47.65637" lon="6.87876">
        <ele>419.5</ele>
        <time>2010-05-29T12:10:35Z</time>
      </trkpt>
      <trkpt lat="47.65638" lon="6.87869">
        <ele>419.5</ele>
        <time>2010-05-29T12:10:36Z</time>
      </trkpt>
      <trkpt lat="47.65639" lon="6.87861">
        <ele>419.5</ele>
        <time>2010-05-29T12:10:37Z</time>
      </trkpt>
      <trkpt lat="47.6564" lon="6.87853">
        <ele>419.5</ele>
        <time>2010-05-29T12:10:38Z</time>
      </trkpt>
      <trkpt lat="47.6564" lon="6.87846">
        <ele>419</ele>
        <time>2010-05-29T12:10:39Z</time>
      </trkpt>
      <trkpt lat="47.65641" lon="6.87838">
        <ele>419</ele>
        <time>2010-05-29T12:10:40Z</time>
      </trkpt>
      <trkpt lat="47.65642" lon="6.8783">
        <ele>419</ele>
        <time>2010-05-29T12:10:41Z</time>
      </trkpt>
      <trkpt lat="47.65642" lon="6.87822">
        <ele>419</ele>
        <time>2010-05-29T12:10:42Z</time>
      </trkpt>
      <trkpt lat="47.65642" lon="6.87815">
        <ele>419</ele>
        <time>2010-05-29T12:10:43Z</time>
      </trkpt>
      <trkpt lat="47.65643" lon="6.87807">
        <ele>419</ele>
        <time>2010-05-29T12:10:44Z</time>
      </trkpt>
      <trkpt lat="47.65643" lon="6.878">
        <ele>418.5</ele>
        <time>2010-05-29T12:10:45Z</time>
      </trkpt>
      <trkpt lat="47.65643" lon="6.87792">
        <ele>418.5</ele>
        <time>2010-05-29T12:10:46Z</time>
      </trkpt>
      <trkpt lat="47.65644" lon="6.87784">
        <ele>418.5</ele>
        <time>2010-05-29T12:10:47Z</time>
      </trkpt>
      <trkpt lat="47.65645" lon="6.87776">
        <ele>419</ele>
        <time>2010-05-29T12:10:48Z</time>
      </trkpt>
      <trkpt lat="47.65646" lon="6.87768">
        <ele>418.5</ele>
        <time>2010-05-29T12:10:49Z</time>
      </trkpt>
      <trkpt lat="47.65647" lon="6.87761">
        <ele>418.5</ele>
        <time>2010-05-29T12:10:50Z</time>
      </trkpt>
      <trkpt lat="47.65648" lon="6.87753">
        <ele>418.5</ele>
        <time>2010-05-29T12:10:51Z</time>
      </trkpt>
      <trkpt lat="47.65649" lon="6.87745">
        <ele>418</ele>
        <time>2010-05-29T12:10:52Z</time>
      </trkpt>
      <trkpt lat="47.6565" lon="6.87737">
        <ele>418</ele>
        <time>2010-05-29T12:10:53Z</time>
      </trkpt>
      <trkpt lat="47.65651" lon="6.8773">
        <ele>418</ele>
        <time>2010-05-29T12:10:54Z</time>
      </trkpt>
      <trkpt lat="47.65652" lon="6.87722">
        <ele>418</ele>
        <time>2010-05-29T12:10:55Z</time>
      </trkpt>
      <trkpt lat="47.65654" lon="6.87714">
        <ele>417.5</ele>
        <time>2010-05-29T12:10:56Z</time>
      </trkpt>
      <trkpt lat="47.65657" lon="6.87707">
        <ele>417.5</ele>
        <time>2010-05-29T12:10:57Z</time>
      </trkpt>
      <trkpt lat="47.6566" lon="6.877">
        <ele>417.5</ele>
        <time>2010-05-29T12:10:58Z</time>
      </trkpt>
      <trkpt lat="47.65662" lon="6.87693">
        <ele>418</ele>
        <time>2010-05-29T12:10:59Z</time>
      </trkpt>
      <trkpt lat="47.65665" lon="6.87686">
        <ele>418</ele>
        <time>2010-05-29T12:11:00Z</time>
      </trkpt>
      <trkpt lat="47.65667" lon="6.87679">
        <ele>418</ele>
        <time>2010-05-29T12:11:01Z</time>
      </trkpt>
      <trkpt lat="47.65668" lon="6.87672">
        <ele>418</ele>
        <time>2010-05-29T12:11:02Z</time>
      </trkpt>
      <trkpt lat="47.65669" lon="6.87664">
        <ele>418.5</ele>
        <time>2010-05-29T12:11:03Z</time>
      </trkpt>
      <trkpt lat="47.6567" lon="6.87656">
        <ele>418.5</ele>
        <time>2010-05-29T12:11:04Z</time>
      </trkpt>
      <trkpt lat="47.65671" lon="6.87648">
        <ele>418.5</ele>
        <time>2010-05-29T12:11:05Z</time>
      </trkpt>
      <trkpt lat="47.65671" lon="6.87641">
        <ele>418.5</ele>
        <time>2010-05-29T12:11:06Z</time>
      </trkpt>
      <trkpt lat="47.65672" lon="6.87633">
        <ele>418.5</ele>
        <time>2010-05-29T12:11:07Z</time>
      </trkpt>
      <trkpt lat="47.65672" lon="6.87619">
        <ele>419</ele>
        <time>2010-05-29T12:11:08Z</time>
      </trkpt>
      <trkpt lat="47.65672" lon="6.87611">
        <ele>419</ele>
        <time>2010-05-29T12:11:09Z</time>
      </trkpt>
      <trkpt lat="47.65673" lon="6.87604">
        <ele>419</ele>
        <time>2010-05-29T12:11:10Z</time>
      </trkpt>
      <trkpt lat="47.65668" lon="6.87606">
        <ele>419</ele>
        <time>2010-05-29T12:11:12Z</time>
      </trkpt>
      <trkpt lat="47.65664" lon="6.87599">
        <ele>418.5</ele>
        <time>2010-05-29T12:11:14Z</time>
      </trkpt>
      <trkpt lat="47.65661" lon="6.87591">
        <ele>419</ele>
        <time>2010-05-29T12:11:16Z</time>
      </trkpt>
      <trkpt lat="47.65656" lon="6.87581">
        <ele>419.5</ele>
        <time>2010-05-29T12:11:18Z</time>
      </trkpt>
      <trkpt lat="47.65655" lon="6.87575">
        <ele>420</ele>
        <time>2010-05-29T12:11:19Z</time>
      </trkpt>
      <trkpt lat="47.65653" lon="6.87568">
        <ele>420.5</ele>
        <time>2010-05-29T12:11:20Z</time>
      </trkpt>
      <trkpt lat="47.65651" lon="6.87562">
        <ele>420.5</ele>
        <time>2010-05-29T12:11:21Z</time>
      </trkpt>
      <trkpt lat="47.65647" lon="6.87551">
        <ele>420.5</ele>
        <time>2010-05-29T12:11:23Z</time>
      </trkpt>
      <trkpt lat="47.65642" lon="6.8754">
        <ele>420.5</ele>
        <time>2010-05-29T12:11:25Z</time>
      </trkpt>
      <trkpt lat="47.65638" lon="6.87529">
        <ele>420.5</ele>
        <time>2010-05-29T12:11:27Z</time>
      </trkpt>
      <trkpt lat="47.65637" lon="6.87522">
        <ele>421</ele>
        <time>2010-05-29T12:11:28Z</time>
      </trkpt>
      <trkpt lat="47.65633" lon="6.87511">
        <ele>421.5</ele>
        <time>2010-05-29T12:11:30Z</time>
      </trkpt>
      <trkpt lat="47.65629" lon="6.87499">
        <ele>420.5</ele>
        <time>2010-05-29T12:11:32Z</time>
      </trkpt>
      <trkpt lat="47.65624" lon="6.87488">
        <ele>421</ele>
        <time>2010-05-29T12:11:34Z</time>
      </trkpt>
      <trkpt lat="47.6562" lon="6.87477">
        <ele>423</ele>
        <time>2010-05-29T12:11:36Z</time>
      </trkpt>
      <trkpt lat="47.65616" lon="6.87465">
        <ele>424.5</ele>
        <time>2010-05-29T12:11:38Z</time>
      </trkpt>
      <trkpt lat="47.65615" lon="6.87458">
        <ele>425</ele>
        <time>2010-05-29T12:11:39Z</time>
      </trkpt>
      <trkpt lat="47.65611" lon="6.87447">
        <ele>425</ele>
        <time>2010-05-29T12:11:41Z</time>
      </trkpt>
      <trkpt lat="47.65606" lon="6.87439">
        <ele>425</ele>
        <time>2010-05-29T12:11:43Z</time>
      </trkpt>
      <trkpt lat="47.65603" lon="6.87428">
        <ele>425</ele>
        <time>2010-05-29T12:11:45Z</time>
      </trkpt>
      <trkpt lat="47.65604" lon="6.87415">
        <ele>425.5</ele>
        <time>2010-05-29T12:11:47Z</time>
      </trkpt>
      <trkpt lat="47.65604" lon="6.87408">
        <ele>425</ele>
        <time>2010-05-29T12:11:48Z</time>
      </trkpt>
      <trkpt lat="47.65605" lon="6.874">
        <ele>424.5</ele>
        <time>2010-05-29T12:11:49Z</time>
      </trkpt>
      <trkpt lat="47.65604" lon="6.87387">
        <ele>423.5</ele>
        <time>2010-05-29T12:11:51Z</time>
      </trkpt>
      <trkpt lat="47.65604" lon="6.8738">
        <ele>423</ele>
        <time>2010-05-29T12:11:52Z</time>
      </trkpt>
      <trkpt lat="47.65603" lon="6.87372">
        <ele>423</ele>
        <time>2010-05-29T12:11:53Z</time>
      </trkpt>
      <trkpt lat="47.656" lon="6.87361">
        <ele>423.5</ele>
        <time>2010-05-29T12:11:55Z</time>
      </trkpt>
      <trkpt lat="47.65598" lon="6.8735">
        <ele>424.5</ele>
        <time>2010-05-29T12:11:57Z</time>
      </trkpt>
      <trkpt lat="47.65594" lon="6.8734">
        <ele>425</ele>
        <time>2010-05-29T12:11:59Z</time>
      </trkpt>
      <trkpt lat="47.65593" lon="6.8733">
        <ele>423.5</ele>
        <time>2010-05-29T12:12:01Z</time>
      </trkpt>
      <trkpt lat="47.65598" lon="6.87321">
        <ele>423.5</ele>
        <time>2010-05-29T12:12:03Z</time>
      </trkpt>
      <trkpt lat="47.65605" lon="6.87315">
        <ele>424.5</ele>
        <time>2010-05-29T12:12:05Z</time>
      </trkpt>
      <trkpt lat="47.65614" lon="6.87312">
        <ele>424.5</ele>
        <time>2010-05-29T12:12:07Z</time>
      </trkpt>
      <trkpt lat="47.6562" lon="6.87313">
        <ele>425</ele>
        <time>2010-05-29T12:12:07Z</time>
      </trkpt>
      <trkpt lat="47.65625" lon="6.87313">
        <ele>425.5</ele>
        <time>2010-05-29T12:12:09Z</time>
      </trkpt>
      <trkpt lat="47.65633" lon="6.8731">
        <ele>427.5</ele>
        <time>2010-05-29T12:12:12Z</time>
      </trkpt>
      <trkpt lat="47.65639" lon="6.87303">
        <ele>428.5</ele>
        <time>2010-05-29T12:12:14Z</time>
      </trkpt>
      <trkpt lat="47.65644" lon="6.87297">
        <ele>429.5</ele>
        <time>2010-05-29T12:12:16Z</time>
      </trkpt>
      <trkpt lat="47.65647" lon="6.87291">
        <ele>430</ele>
        <time>2010-05-29T12:12:18Z</time>
      </trkpt>
      <trkpt lat="47.65649" lon="6.87284">
        <ele>431</ele>
        <time>2010-05-29T12:12:22Z</time>
      </trkpt>
      <trkpt lat="47.6565" lon="6.87276">
        <ele>432.5</ele>
        <time>2010-05-29T12:12:25Z</time>
      </trkpt>
      <trkpt lat="47.65652" lon="6.87266">
        <ele>434.5</ele>
        <time>2010-05-29T12:12:28Z</time>
      </trkpt>
      <trkpt lat="47.65651" lon="6.87256">
        <ele>437</ele>
        <time>2010-05-29T12:12:31Z</time>
      </trkpt>
      <trkpt lat="47.65649" lon="6.87247">
        <ele>438</ele>
        <time>2010-05-29T12:12:34Z</time>
      </trkpt>
      <trkpt lat="47.65646" lon="6.87239">
        <ele>438.5</ele>
        <time>2010-05-29T12:12:37Z</time>
      </trkpt>
      <trkpt lat="47.65645" lon="6.87233">
        <ele>439.5</ele>
        <time>2010-05-29T12:12:39Z</time>
      </trkpt>
      <trkpt lat="47.65646" lon="6.87225">
        <ele>440.5</ele>
        <time>2010-05-29T12:12:41Z</time>
      </trkpt>
      <trkpt lat="47.65647" lon="6.87218">
        <ele>441.5</ele>
        <time>2010-05-29T12:12:43Z</time>
      </trkpt>
      <trkpt lat="47.65648" lon="6.87211">
        <ele>443</ele>
        <time>2010-05-29T12:12:45Z</time>
      </trkpt>
      <trkpt lat="47.65648" lon="6.87203">
        <ele>444</ele>
        <time>2010-05-29T12:12:48Z</time>
      </trkpt>
      <trkpt lat="47.6565" lon="6.87193">
        <ele>444</ele>
        <time>2010-05-29T12:12:51Z</time>
      </trkpt>
      <trkpt lat="47.65651" lon="6.87186">
        <ele>443.5</ele>
        <time>2010-05-29T12:12:53Z</time>
      </trkpt>
      <trkpt lat="47.6565" lon="6.87177">
        <ele>443.5</ele>
        <time>2010-05-29T12:12:56Z</time>
      </trkpt>
      <trkpt lat="47.6565" lon="6.8717">
        <ele>443.5</ele>
        <time>2010-05-29T12:12:58Z</time>
      </trkpt>
      <trkpt lat="47.65651" lon="6.87161">
        <ele>442.5</ele>
        <time>2010-05-29T12:13:00Z</time>
      </trkpt>
      <trkpt lat="47.65652" lon="6.87152">
        <ele>443</ele>
        <time>2010-05-29T12:13:02Z</time>
      </trkpt>
      <trkpt lat="47.65651" lon="6.87145">
        <ele>442.5</ele>
        <time>2010-05-29T12:13:04Z</time>
      </trkpt>
      <trkpt lat="47.65651" lon="6.87137">
        <ele>441.5</ele>
        <time>2010-05-29T12:13:06Z</time>
      </trkpt>
      <trkpt lat="47.65649" lon="6.87127">
        <ele>442</ele>
        <time>2010-05-29T12:13:07Z</time>
      </trkpt>
      <trkpt lat="47.65649" lon="6.87113">
        <ele>441</ele>
        <time>2010-05-29T12:13:12Z</time>
      </trkpt>
      <trkpt lat="47.65647" lon="6.87103">
        <ele>438.5</ele>
        <time>2010-05-29T12:13:14Z</time>
      </trkpt>
      <trkpt lat="47.65648" lon="6.87087">
        <ele>439.5</ele>
        <time>2010-05-29T12:13:16Z</time>
      </trkpt>
      <trkpt lat="47.6565" lon="6.87076">
        <ele>439.5</ele>
        <time>2010-05-29T12:13:17Z</time>
      </trkpt>
      <trkpt lat="47.65651" lon="6.87063">
        <ele>436.5</ele>
        <time>2010-05-29T12:13:19Z</time>
      </trkpt>
      <trkpt lat="47.65649" lon="6.87052">
        <ele>434.5</ele>
        <time>2010-05-29T12:13:21Z</time>
      </trkpt>
      <trkpt lat="47.65648" lon="6.87041">
        <ele>433</ele>
        <time>2010-05-29T12:13:23Z</time>
      </trkpt>
      <trkpt lat="47.65647" lon="6.87031">
        <ele>432</ele>
        <time>2010-05-29T12:13:25Z</time>
      </trkpt>
      <trkpt lat="47.65648" lon="6.87024">
        <ele>431.5</ele>
        <time>2010-05-29T12:13:26Z</time>
      </trkpt>
      <trkpt lat="47.65651" lon="6.87015">
        <ele>431.5</ele>
        <time>2010-05-29T12:13:27Z</time>
      </trkpt>
      <trkpt lat="47.65653" lon="6.87007">
        <ele>432</ele>
        <time>2010-05-29T12:13:28Z</time>
      </trkpt>
      <trkpt lat="47.65655" lon="6.87">
        <ele>432.5</ele>
        <time>2010-05-29T12:13:29Z</time>
      </trkpt>
      <trkpt lat="47.65658" lon="6.86991">
        <ele>432.5</ele>
        <time>2010-05-29T12:13:30Z</time>
      </trkpt>
      <trkpt lat="47.65662" lon="6.86982">
        <ele>433</ele>
        <time>2010-05-29T12:13:31Z</time>
      </trkpt>
      <trkpt lat="47.65665" lon="6.86971">
        <ele>433.5</ele>
        <time>2010-05-29T12:13:32Z</time>
      </trkpt>
      <trkpt lat="47.6567" lon="6.86957">
        <ele>433</ele>
        <time>2010-05-29T12:13:33Z</time>
      </trkpt>
      <trkpt lat="47.65674" lon="6.86945">
        <ele>433</ele>
        <time>2010-05-29T12:13:34Z</time>
      </trkpt>
      <trkpt lat="47.65675" lon="6.86937">
        <ele>433.5</ele>
        <time>2010-05-29T12:13:35Z</time>
      </trkpt>
      <trkpt lat="47.65676" lon="6.86923">
        <ele>433.5</ele>
        <time>2010-05-29T12:13:37Z</time>
      </trkpt>
      <trkpt lat="47.65675" lon="6.86913">
        <ele>431.5</ele>
        <time>2010-05-29T12:13:39Z</time>
      </trkpt>
      <trkpt lat="47.65672" lon="6.86904">
        <ele>430.5</ele>
        <time>2010-05-29T12:13:41Z</time>
      </trkpt>
      <trkpt lat="47.65669" lon="6.86895">
        <ele>429.5</ele>
        <time>2010-05-29T12:13:43Z</time>
      </trkpt>
      <trkpt lat="47.65666" lon="6.86884">
        <ele>429</ele>
        <time>2010-05-29T12:13:45Z</time>
      </trkpt>
      <trkpt lat="47.65666" lon="6.86877">
        <ele>428.5</ele>
        <time>2010-05-29T12:13:46Z</time>
      </trkpt>
      <trkpt lat="47.65665" lon="6.8687">
        <ele>428</ele>
        <time>2010-05-29T12:13:47Z</time>
      </trkpt>
      <trkpt lat="47.65665" lon="6.86863">
        <ele>427.5</ele>
        <time>2010-05-29T12:13:48Z</time>
      </trkpt>
      <trkpt lat="47.65666" lon="6.86856">
        <ele>426.5</ele>
        <time>2010-05-29T12:13:49Z</time>
      </trkpt>
      <trkpt lat="47.65667" lon="6.86849">
        <ele>425.5</ele>
        <time>2010-05-29T12:13:50Z</time>
      </trkpt>
      <trkpt lat="47.65669" lon="6.86841">
        <ele>424</ele>
        <time>2010-05-29T12:13:51Z</time>
      </trkpt>
      <trkpt lat="47.6567" lon="6.86834">
        <ele>423</ele>
        <time>2010-05-29T12:13:52Z</time>
      </trkpt>
      <trkpt lat="47.65672" lon="6.86828">
        <ele>422.5</ele>
        <time>2010-05-29T12:13:53Z</time>
      </trkpt>
      <trkpt lat="47.65676" lon="6.86817">
        <ele>422.5</ele>
        <time>2010-05-29T12:13:55Z</time>
      </trkpt>
      <trkpt lat="47.65681" lon="6.86807">
        <ele>422.5</ele>
        <time>2010-05-29T12:13:57Z</time>
      </trkpt>
      <trkpt lat="47.65686" lon="6.86801">
        <ele>423</ele>
        <time>2010-05-29T12:13:58Z</time>
      </trkpt>
      <trkpt lat="47.6569" lon="6.86795">
        <ele>425</ele>
        <time>2010-05-29T12:13:59Z</time>
      </trkpt>
      <trkpt lat="47.65697" lon="6.86787">
        <ele>425.5</ele>
        <time>2010-05-29T12:14:01Z</time>
      </trkpt>
      <trkpt lat="47.65702" lon="6.86781">
        <ele>425.5</ele>
        <time>2010-05-29T12:14:02Z</time>
      </trkpt>
      <trkpt lat="47.65708" lon="6.86776">
        <ele>427</ele>
        <time>2010-05-29T12:14:03Z</time>
      </trkpt>
      <trkpt lat="47.65712" lon="6.86771">
        <ele>428.5</ele>
        <time>2010-05-29T12:14:04Z</time>
      </trkpt>
      <trkpt lat="47.65716" lon="6.86767">
        <ele>430</ele>
        <time>2010-05-29T12:14:05Z</time>
      </trkpt>
      <trkpt lat="47.65721" lon="6.86757">
        <ele>430</ele>
        <time>2010-05-29T12:14:07Z</time>
      </trkpt>
      <trkpt lat="47.65725" lon="6.86751">
        <ele>430</ele>
        <time>2010-05-29T12:14:07Z</time>
      </trkpt>
      <trkpt lat="47.65729" lon="6.86743">
        <ele>429.5</ele>
        <time>2010-05-29T12:14:10Z</time>
      </trkpt>
      <trkpt lat="47.6573" lon="6.86739">
        <ele>428.5</ele>
        <time>2010-05-29T12:14:17Z</time>
      </trkpt>
      <trkpt lat="47.65733" lon="6.86734">
        <ele>427</ele>
        <time>2010-05-29T12:15:21Z</time>
      </trkpt>
      <trkpt lat="47.65733" lon="6.86734">
        <ele>426.5</ele>
        <time>2010-05-29T12:15:22Z</time>
      </trkpt>
      <trkpt lat="47.65735" lon="6.86733">
        <ele>424</ele>
        <time>2010-05-29T12:15:33Z</time>
      </trkpt>
      <trkpt lat="47.65735" lon="6.86728">
        <ele>423.5</ele>
        <time>2010-05-29T12:15:38Z</time>
      </trkpt>
      <trkpt lat="47.65735" lon="6.86726">
        <ele>424</ele>
        <time>2010-05-29T12:15:39Z</time>
      </trkpt>
      <trkpt lat="47.65732" lon="6.86718">
        <ele>423.5</ele>
        <time>2010-05-29T12:15:42Z</time>
      </trkpt>
      <trkpt lat="47.65728" lon="6.86711">
        <ele>423</ele>
        <time>2010-05-29T12:15:44Z</time>
      </trkpt>
      <trkpt lat="47.65722" lon="6.86704">
        <ele>423.5</ele>
        <time>2010-05-29T12:15:46Z</time>
      </trkpt>
      <trkpt lat="47.65716" lon="6.86698">
        <ele>423.5</ele>
        <time>2010-05-29T12:15:48Z</time>
      </trkpt>
      <trkpt lat="47.65709" lon="6.86691">
        <ele>423</ele>
        <time>2010-05-29T12:15:50Z</time>
      </trkpt>
      <trkpt lat="47.65703" lon="6.86682">
        <ele>422</ele>
        <time>2010-05-29T12:15:52Z</time>
      </trkpt>
      <trkpt lat="47.65697" lon="6.86672">
        <ele>422</ele>
        <time>2010-05-29T12:15:54Z</time>
      </trkpt>
      <trkpt lat="47.65695" lon="6.86667">
        <ele>421</ele>
        <time>2010-05-29T12:15:55Z</time>
      </trkpt>
      <trkpt lat="47.65692" lon="6.86661">
        <ele>421</ele>
        <time>2010-05-29T12:15:56Z</time>
      </trkpt>
      <trkpt lat="47.65689" lon="6.86655">
        <ele>421</ele>
        <time>2010-05-29T12:15:57Z</time>
      </trkpt>
      <trkpt lat="47.65686" lon="6.86649">
        <ele>420.5</ele>
        <time>2010-05-29T12:15:58Z</time>
      </trkpt>
      <trkpt lat="47.65683" lon="6.86643">
        <ele>420.5</ele>
        <time>2010-05-29T12:15:59Z</time>
      </trkpt>
      <trkpt lat="47.6568" lon="6.86636">
        <ele>420.5</ele>
        <time>2010-05-29T12:16:00Z</time>
      </trkpt>
      <trkpt lat="47.65678" lon="6.86629">
        <ele>420</ele>
        <time>2010-05-29T12:16:01Z</time>
      </trkpt>
      <trkpt lat="47.65677" lon="6.86622">
        <ele>420</ele>
        <time>2010-05-29T12:16:02Z</time>
      </trkpt>
      <trkpt lat="47.65676" lon="6.86614">
        <ele>420</ele>
        <time>2010-05-29T12:16:03Z</time>
      </trkpt>
      <trkpt lat="47.65675" lon="6.86607">
        <ele>420</ele>
        <time>2010-05-29T12:16:04Z</time>
      </trkpt>
      <trkpt lat="47.65675" lon="6.86599">
        <ele>420</ele>
        <time>2010-05-29T12:16:05Z</time>
      </trkpt>
      <trkpt lat="47.65676" lon="6.86591">
        <ele>420</ele>
        <time>2010-05-29T12:16:06Z</time>
      </trkpt>
      <trkpt lat="47.65677" lon="6.86583">
        <ele>420</ele>
        <time>2010-05-29T12:16:07Z</time>
      </trkpt>
      <trkpt lat="47.65679" lon="6.86568">
        <ele>420</ele>
        <time>2010-05-29T12:16:07Z</time>
      </trkpt>
      <trkpt lat="47.65679" lon="6.8656">
        <ele>420</ele>
        <time>2010-05-29T12:16:09Z</time>
      </trkpt>
      <trkpt lat="47.65681" lon="6.86552">
        <ele>419.5</ele>
        <time>2010-05-29T12:16:10Z</time>
      </trkpt>
      <trkpt lat="47.65683" lon="6.86541">
        <ele>419.5</ele>
        <time>2010-05-29T12:16:12Z</time>
      </trkpt>
      <trkpt lat="47.65684" lon="6.86532">
        <ele>419.5</ele>
        <time>2010-05-29T12:16:13Z</time>
      </trkpt>
      <trkpt lat="47.65686" lon="6.86522">
        <ele>419</ele>
        <time>2010-05-29T12:16:14Z</time>
      </trkpt>
      <trkpt lat="47.65688" lon="6.86513">
        <ele>419</ele>
        <time>2010-05-29T12:16:15Z</time>
      </trkpt>
      <trkpt lat="47.6569" lon="6.86504">
        <ele>419</ele>
        <time>2010-05-29T12:16:16Z</time>
      </trkpt>
      <trkpt lat="47.65692" lon="6.86495">
        <ele>419</ele>
        <time>2010-05-29T12:16:17Z</time>
      </trkpt>
      <trkpt lat="47.65694" lon="6.86486">
        <ele>419</ele>
        <time>2010-05-29T12:16:18Z</time>
      </trkpt>
      <trkpt lat="47.65695" lon="6.86477">
        <ele>419.5</ele>
        <time>2010-05-29T12:16:19Z</time>
      </trkpt>
      <trkpt lat="47.65697" lon="6.86469">
        <ele>419.5</ele>
        <time>2010-05-29T12:16:20Z</time>
      </trkpt>
      <trkpt lat="47.65698" lon="6.86462">
        <ele>419.5</ele>
        <time>2010-05-29T12:16:21Z</time>
      </trkpt>
      <trkpt lat="47.65701" lon="6.86455">
        <ele>419.5</ele>
        <time>2010-05-29T12:16:22Z</time>
      </trkpt>
      <trkpt lat="47.65704" lon="6.86446">
        <ele>419.5</ele>
        <time>2010-05-29T12:16:24Z</time>
      </trkpt>
      <trkpt lat="47.65708" lon="6.86441">
        <ele>419.5</ele>
        <time>2010-05-29T12:16:32Z</time>
      </trkpt>
      <trkpt lat="47.65711" lon="6.86435">
        <ele>419</ele>
        <time>2010-05-29T12:16:34Z</time>
      </trkpt>
      <trkpt lat="47.65709" lon="6.86425">
        <ele>419</ele>
        <time>2010-05-29T12:16:36Z</time>
      </trkpt>
      <trkpt lat="47.65703" lon="6.86416">
        <ele>419</ele>
        <time>2010-05-29T12:16:38Z</time>
      </trkpt>
      <trkpt lat="47.65698" lon="6.86407">
        <ele>419</ele>
        <time>2010-05-29T12:16:40Z</time>
      </trkpt>
      <trkpt lat="47.65694" lon="6.864">
        <ele>419</ele>
        <time>2010-05-29T12:16:42Z</time>
      </trkpt>
      <trkpt lat="47.65692" lon="6.86397">
        <ele>419</ele>
        <time>2010-05-29T12:16:46Z</time>
      </trkpt>
      <trkpt lat="47.65694" lon="6.86399">
        <ele>418</ele>
        <time>2010-05-29T12:16:53Z</time>
      </trkpt>
      <trkpt lat="47.65696" lon="6.86401">
        <ele>418</ele>
        <time>2010-05-29T12:16:54Z</time>
      </trkpt>
      <trkpt lat="47.657" lon="6.86408">
        <ele>418</ele>
        <time>2010-05-29T12:16:56Z</time>
      </trkpt>
      <trkpt lat="47.65706" lon="6.86415">
        <ele>418.5</ele>
        <time>2010-05-29T12:16:58Z</time>
      </trkpt>
      <trkpt lat="47.65711" lon="6.86423">
        <ele>419.5</ele>
        <time>2010-05-29T12:17:00Z</time>
      </trkpt>
      <trkpt lat="47.65716" lon="6.8643">
        <ele>420</ele>
        <time>2010-05-29T12:17:02Z</time>
      </trkpt>
      <trkpt lat="47.65721" lon="6.86438">
        <ele>420</ele>
        <time>2010-05-29T12:17:04Z</time>
      </trkpt>
      <trkpt lat="47.65726" lon="6.86446">
        <ele>420.5</ele>
        <time>2010-05-29T12:17:06Z</time>
      </trkpt>
      <trkpt lat="47.65733" lon="6.86456">
        <ele>421</ele>
        <time>2010-05-29T12:17:07Z</time>
      </trkpt>
      <trkpt lat="47.65738" lon="6.86456">
        <ele>423</ele>
        <time>2010-05-29T12:17:13Z</time>
      </trkpt>
      <trkpt lat="47.6574" lon="6.86447">
        <ele>423.5</ele>
        <time>2010-05-29T12:17:16Z</time>
      </trkpt>
      <trkpt lat="47.65744" lon="6.86441">
        <ele>423.5</ele>
        <time>2010-05-29T12:17:18Z</time>
      </trkpt>
      <trkpt lat="47.65749" lon="6.86434">
        <ele>423</ele>
        <time>2010-05-29T12:17:20Z</time>
      </trkpt>
      <trkpt lat="47.65755" lon="6.86427">
        <ele>423.5</ele>
        <time>2010-05-29T12:17:22Z</time>
      </trkpt>
      <trkpt lat="47.65762" lon="6.86421">
        <ele>423.5</ele>
        <time>2010-05-29T12:17:24Z</time>
      </trkpt>
      <trkpt lat="47.65768" lon="6.86414">
        <ele>424</ele>
        <time>2010-05-29T12:17:26Z</time>
      </trkpt>
      <trkpt lat="47.65773" lon="6.86406">
        <ele>424.5</ele>
        <time>2010-05-29T12:17:28Z</time>
      </trkpt>
      <trkpt lat="47.65775" lon="6.86397">
        <ele>425.5</ele>
        <time>2010-05-29T12:17:30Z</time>
      </trkpt>
      <trkpt lat="47.65773" lon="6.86386">
        <ele>425</ele>
        <time>2010-05-29T12:17:32Z</time>
      </trkpt>
      <trkpt lat="47.65767" lon="6.86377">
        <ele>424.5</ele>
        <time>2010-05-29T12:17:34Z</time>
      </trkpt>
      <trkpt lat="47.65762" lon="6.86368">
        <ele>424</ele>
        <time>2010-05-29T12:17:36Z</time>
      </trkpt>
      <trkpt lat="47.65756" lon="6.86358">
        <ele>424</ele>
        <time>2010-05-29T12:17:38Z</time>
      </trkpt>
      <trkpt lat="47.6575" lon="6.86349">
        <ele>424</ele>
        <time>2010-05-29T12:17:40Z</time>
      </trkpt>
      <trkpt lat="47.65744" lon="6.8634">
        <ele>424</ele>
        <time>2010-05-29T12:17:42Z</time>
      </trkpt>
      <trkpt lat="47.65738" lon="6.8633">
        <ele>424.5</ele>
        <time>2010-05-29T12:17:44Z</time>
      </trkpt>
      <trkpt lat="47.65733" lon="6.86321">
        <ele>425</ele>
        <time>2010-05-29T12:17:46Z</time>
      </trkpt>
      <trkpt lat="47.65727" lon="6.86312">
        <ele>425</ele>
        <time>2010-05-29T12:17:48Z</time>
      </trkpt>
      <trkpt lat="47.65724" lon="6.86304">
        <ele>425</ele>
        <time>2010-05-29T12:17:50Z</time>
      </trkpt>
      <trkpt lat="47.65726" lon="6.86295">
        <ele>427</ele>
        <time>2010-05-29T12:17:53Z</time>
      </trkpt>
      <trkpt lat="47.6573" lon="6.8629">
        <ele>427</ele>
        <time>2010-05-29T12:17:55Z</time>
      </trkpt>
      <trkpt lat="47.65734" lon="6.86286">
        <ele>428.5</ele>
        <time>2010-05-29T12:17:57Z</time>
      </trkpt>
      <trkpt lat="47.65737" lon="6.8628">
        <ele>429.5</ele>
        <time>2010-05-29T12:18:04Z</time>
      </trkpt>
      <trkpt lat="47.65734" lon="6.8627">
        <ele>429.5</ele>
        <time>2010-05-29T12:18:07Z</time>
      </trkpt>
      <trkpt lat="47.65731" lon="6.86264">
        <ele>430</ele>
        <time>2010-05-29T12:18:07Z</time>
      </trkpt>
      <trkpt lat="47.65727" lon="6.86254">
        <ele>427.5</ele>
        <time>2010-05-29T12:18:10Z</time>
      </trkpt>
      <trkpt lat="47.65724" lon="6.86247">
        <ele>426.5</ele>
        <time>2010-05-29T12:18:12Z</time>
      </trkpt>
      <trkpt lat="47.6572" lon="6.86237">
        <ele>425.5</ele>
        <time>2010-05-29T12:18:14Z</time>
      </trkpt>
      <trkpt lat="47.65715" lon="6.86229">
        <ele>423.5</ele>
        <time>2010-05-29T12:18:16Z</time>
      </trkpt>
      <trkpt lat="47.6571" lon="6.86225">
        <ele>424</ele>
        <time>2010-05-29T12:18:18Z</time>
      </trkpt>
      <trkpt lat="47.65702" lon="6.86226">
        <ele>424</ele>
        <time>2010-05-29T12:18:20Z</time>
      </trkpt>
      <trkpt lat="47.65697" lon="6.86229">
        <ele>424</ele>
        <time>2010-05-29T12:18:22Z</time>
      </trkpt>
      <trkpt lat="47.65691" lon="6.86232">
        <ele>424</ele>
        <time>2010-05-29T12:18:24Z</time>
      </trkpt>
      <trkpt lat="47.65684" lon="6.86234">
        <ele>424</ele>
        <time>2010-05-29T12:18:26Z</time>
      </trkpt>
      <trkpt lat="47.65678" lon="6.86238">
        <ele>424.5</ele>
        <time>2010-05-29T12:18:28Z</time>
      </trkpt>
      <trkpt lat="47.6567" lon="6.8624">
        <ele>424</ele>
        <time>2010-05-29T12:18:30Z</time>
      </trkpt>
      <trkpt lat="47.65662" lon="6.86241">
        <ele>423.5</ele>
        <time>2010-05-29T12:18:32Z</time>
      </trkpt>
      <trkpt lat="47.65655" lon="6.86244">
        <ele>423.5</ele>
        <time>2010-05-29T12:18:34Z</time>
      </trkpt>
      <trkpt lat="47.65649" lon="6.86247">
        <ele>424.5</ele>
        <time>2010-05-29T12:18:36Z</time>
      </trkpt>
      <trkpt lat="47.65643" lon="6.86248">
        <ele>425.5</ele>
        <time>2010-05-29T12:18:38Z</time>
      </trkpt>
      <trkpt lat="47.65637" lon="6.8625">
        <ele>425.5</ele>
        <time>2010-05-29T12:18:40Z</time>
      </trkpt>
      <trkpt lat="47.65632" lon="6.8625">
        <ele>426</ele>
        <time>2010-05-29T12:18:42Z</time>
      </trkpt>
      <trkpt lat="47.65628" lon="6.86246">
        <ele>425.5</ele>
        <time>2010-05-29T12:18:44Z</time>
      </trkpt>
      <trkpt lat="47.65625" lon="6.86239">
        <ele>425.5</ele>
        <time>2010-05-29T12:18:46Z</time>
      </trkpt>
      <trkpt lat="47.65621" lon="6.86233">
        <ele>426.5</ele>
        <time>2010-05-29T12:18:48Z</time>
      </trkpt>
      <trkpt lat="47.65616" lon="6.86232">
        <ele>426.5</ele>
        <time>2010-05-29T12:18:50Z</time>
      </trkpt>
      <trkpt lat="47.6561" lon="6.86234">
        <ele>427</ele>
        <time>2010-05-29T12:18:52Z</time>
      </trkpt>
      <trkpt lat="47.65604" lon="6.86236">
        <ele>427.5</ele>
        <time>2010-05-29T12:18:54Z</time>
      </trkpt>
      <trkpt lat="47.65599" lon="6.86241">
        <ele>427.5</ele>
        <time>2010-05-29T12:18:56Z</time>
      </trkpt>
      <trkpt lat="47.65592" lon="6.86242">
        <ele>428.5</ele>
        <time>2010-05-29T12:18:58Z</time>
      </trkpt>
      <trkpt lat="47.65586" lon="6.8624">
        <ele>429</ele>
        <time>2010-05-29T12:19:00Z</time>
      </trkpt>
      <trkpt lat="47.65579" lon="6.86235">
        <ele>429</ele>
        <time>2010-05-29T12:19:02Z</time>
      </trkpt>
      <trkpt lat="47.65573" lon="6.86226">
        <ele>429</ele>
        <time>2010-05-29T12:19:04Z</time>
      </trkpt>
      <trkpt lat="47.65569" lon="6.86216">
        <ele>429</ele>
        <time>2010-05-29T12:19:06Z</time>
      </trkpt>
      <trkpt lat="47.65567" lon="6.86201">
        <ele>429</ele>
        <time>2010-05-29T12:19:07Z</time>
      </trkpt>
      <trkpt lat="47.65563" lon="6.86189">
        <ele>428.5</ele>
        <time>2010-05-29T12:19:10Z</time>
      </trkpt>
      <trkpt lat="47.65559" lon="6.8618">
        <ele>427.5</ele>
        <time>2010-05-29T12:19:12Z</time>
      </trkpt>
      <trkpt lat="47.65557" lon="6.86172">
        <ele>426.5</ele>
        <time>2010-05-29T12:19:13Z</time>
      </trkpt>
      <trkpt lat="47.65554" lon="6.86164">
        <ele>426</ele>
        <time>2010-05-29T12:19:14Z</time>
      </trkpt>
      <trkpt lat="47.65552" lon="6.86156">
        <ele>425.5</ele>
        <time>2010-05-29T12:19:15Z</time>
      </trkpt>
      <trkpt lat="47.65551" lon="6.86147">
        <ele>425.5</ele>
        <time>2010-05-29T12:19:16Z</time>
      </trkpt>
      <trkpt lat="47.65549" lon="6.86139">
        <ele>424</ele>
        <time>2010-05-29T12:19:17Z</time>
      </trkpt>
      <trkpt lat="47.65548" lon="6.8613">
        <ele>423.5</ele>
        <time>2010-05-29T12:19:18Z</time>
      </trkpt>
      <trkpt lat="47.65547" lon="6.8612">
        <ele>423</ele>
        <time>2010-05-29T12:19:19Z</time>
      </trkpt>
      <trkpt lat="47.65546" lon="6.86111">
        <ele>422.5</ele>
        <time>2010-05-29T12:19:20Z</time>
      </trkpt>
      <trkpt lat="47.65545" lon="6.86101">
        <ele>422</ele>
        <time>2010-05-29T12:19:21Z</time>
      </trkpt>
      <trkpt lat="47.65545" lon="6.86092">
        <ele>422</ele>
        <time>2010-05-29T12:19:22Z</time>
      </trkpt>
      <trkpt lat="47.65544" lon="6.86083">
        <ele>422</ele>
        <time>2010-05-29T12:19:23Z</time>
      </trkpt>
      <trkpt lat="47.65543" lon="6.86074">
        <ele>421.5</ele>
        <time>2010-05-29T12:19:24Z</time>
      </trkpt>
      <trkpt lat="47.65542" lon="6.86065">
        <ele>421</ele>
        <time>2010-05-29T12:19:25Z</time>
      </trkpt>
      <trkpt lat="47.65541" lon="6.86057">
        <ele>420.5</ele>
        <time>2010-05-29T12:19:26Z</time>
      </trkpt>
      <trkpt lat="47.6554" lon="6.86049">
        <ele>420</ele>
        <time>2010-05-29T12:19:27Z</time>
      </trkpt>
      <trkpt lat="47.65539" lon="6.86041">
        <ele>419</ele>
        <time>2010-05-29T12:19:28Z</time>
      </trkpt>
      <trkpt lat="47.65537" lon="6.86032">
        <ele>418.5</ele>
        <time>2010-05-29T12:19:29Z</time>
      </trkpt>
      <trkpt lat="47.65536" lon="6.86024">
        <ele>419</ele>
        <time>2010-05-29T12:19:30Z</time>
      </trkpt>
      <trkpt lat="47.65534" lon="6.86016">
        <ele>418.5</ele>
        <time>2010-05-29T12:19:31Z</time>
      </trkpt>
      <trkpt lat="47.65533" lon="6.86008">
        <ele>418</ele>
        <time>2010-05-29T12:19:32Z</time>
      </trkpt>
      <trkpt lat="47.65532" lon="6.86001">
        <ele>418</ele>
        <time>2010-05-29T12:19:33Z</time>
      </trkpt>
      <trkpt lat="47.6553" lon="6.85993">
        <ele>418</ele>
        <time>2010-05-29T12:19:34Z</time>
      </trkpt>
      <trkpt lat="47.65529" lon="6.85985">
        <ele>417.5</ele>
        <time>2010-05-29T12:19:35Z</time>
      </trkpt>
      <trkpt lat="47.65527" lon="6.85977">
        <ele>417.5</ele>
        <time>2010-05-29T12:19:36Z</time>
      </trkpt>
      <trkpt lat="47.65525" lon="6.8597">
        <ele>417.5</ele>
        <time>2010-05-29T12:19:37Z</time>
      </trkpt>
      <trkpt lat="47.65523" lon="6.85962">
        <ele>417</ele>
        <time>2010-05-29T12:19:38Z</time>
      </trkpt>
      <trkpt lat="47.65522" lon="6.85954">
        <ele>417</ele>
        <time>2010-05-29T12:19:39Z</time>
      </trkpt>
      <trkpt lat="47.65521" lon="6.85946">
        <ele>416.5</ele>
        <time>2010-05-29T12:19:40Z</time>
      </trkpt>
      <trkpt lat="47.65519" lon="6.85938">
        <ele>416.5</ele>
        <time>2010-05-29T12:19:41Z</time>
      </trkpt>
      <trkpt lat="47.65517" lon="6.8593">
        <ele>416.5</ele>
        <time>2010-05-29T12:19:42Z</time>
      </trkpt>
      <trkpt lat="47.65516" lon="6.85923">
        <ele>416</ele>
        <time>2010-05-29T12:19:43Z</time>
      </trkpt>
      <trkpt lat="47.65514" lon="6.85915">
        <ele>416</ele>
        <time>2010-05-29T12:19:44Z</time>
      </trkpt>
      <trkpt lat="47.65512" lon="6.85908">
        <ele>416</ele>
        <time>2010-05-29T12:19:45Z</time>
      </trkpt>
      <trkpt lat="47.65511" lon="6.85901">
        <ele>416</ele>
        <time>2010-05-29T12:19:46Z</time>
      </trkpt>
      <trkpt lat="47.65509" lon="6.85893">
        <ele>416</ele>
        <time>2010-05-29T12:19:47Z</time>
      </trkpt>
      <trkpt lat="47.65507" lon="6.85886">
        <ele>416</ele>
        <time>2010-05-29T12:19:48Z</time>
      </trkpt>
      <trkpt lat="47.65506" lon="6.85879">
        <ele>415.5</ele>
        <time>2010-05-29T12:19:49Z</time>
      </trkpt>
      <trkpt lat="47.65504" lon="6.85871">
        <ele>415.5</ele>
        <time>2010-05-29T12:19:50Z</time>
      </trkpt>
      <trkpt lat="47.65502" lon="6.85864">
        <ele>415.5</ele>
        <time>2010-05-29T12:19:51Z</time>
      </trkpt>
      <trkpt lat="47.65501" lon="6.85857">
        <ele>415.5</ele>
        <time>2010-05-29T12:19:52Z</time>
      </trkpt>
      <trkpt lat="47.65499" lon="6.85849">
        <ele>415</ele>
        <time>2010-05-29T12:19:53Z</time>
      </trkpt>
      <trkpt lat="47.65497" lon="6.85842">
        <ele>415</ele>
        <time>2010-05-29T12:19:54Z</time>
      </trkpt>
      <trkpt lat="47.65496" lon="6.85835">
        <ele>415</ele>
        <time>2010-05-29T12:19:55Z</time>
      </trkpt>
      <trkpt lat="47.65494" lon="6.85827">
        <ele>415</ele>
        <time>2010-05-29T12:19:56Z</time>
      </trkpt>
      <trkpt lat="47.65492" lon="6.8582">
        <ele>415</ele>
        <time>2010-05-29T12:19:57Z</time>
      </trkpt>
      <trkpt lat="47.6549" lon="6.85813">
        <ele>415</ele>
        <time>2010-05-29T12:19:58Z</time>
      </trkpt>
      <trkpt lat="47.65489" lon="6.85806">
        <ele>415</ele>
        <time>2010-05-29T12:19:59Z</time>
      </trkpt>
      <trkpt lat="47.65487" lon="6.85799">
        <ele>415</ele>
        <time>2010-05-29T12:20:00Z</time>
      </trkpt>
      <trkpt lat="47.65485" lon="6.85792">
        <ele>415</ele>
        <time>2010-05-29T12:20:01Z</time>
      </trkpt>
      <trkpt lat="47.65483" lon="6.85786">
        <ele>415</ele>
        <time>2010-05-29T12:20:02Z</time>
      </trkpt>
      <trkpt lat="47.65482" lon="6.85779">
        <ele>414.5</ele>
        <time>2010-05-29T12:20:03Z</time>
      </trkpt>
      <trkpt lat="47.65481" lon="6.85772">
        <ele>414.5</ele>
        <time>2010-05-29T12:20:04Z</time>
      </trkpt>
      <trkpt lat="47.65478" lon="6.8576">
        <ele>414</ele>
        <time>2010-05-29T12:20:06Z</time>
      </trkpt>
      <trkpt lat="47.65475" lon="6.85743">
        <ele>414</ele>
        <time>2010-05-29T12:20:07Z</time>
      </trkpt>
      <trkpt lat="47.65472" lon="6.85734">
        <ele>414</ele>
        <time>2010-05-29T12:20:10Z</time>
      </trkpt>
      <trkpt lat="47.65469" lon="6.85723">
        <ele>414</ele>
        <time>2010-05-29T12:20:13Z</time>
      </trkpt>
      <trkpt lat="47.65467" lon="6.85712">
        <ele>415</ele>
        <time>2010-05-29T12:20:15Z</time>
      </trkpt>
      <trkpt lat="47.65464" lon="6.85699">
        <ele>414.5</ele>
        <time>2010-05-29T12:20:17Z</time>
      </trkpt>
      <trkpt lat="47.65463" lon="6.85692">
        <ele>415</ele>
        <time>2010-05-29T12:20:18Z</time>
      </trkpt>
      <trkpt lat="47.65461" lon="6.85685">
        <ele>415</ele>
        <time>2010-05-29T12:20:19Z</time>
      </trkpt>
      <trkpt lat="47.6546" lon="6.85678">
        <ele>415</ele>
        <time>2010-05-29T12:20:20Z</time>
      </trkpt>
      <trkpt lat="47.65458" lon="6.85671">
        <ele>415.5</ele>
        <time>2010-05-29T12:20:21Z</time>
      </trkpt>
      <trkpt lat="47.65456" lon="6.85665">
        <ele>415.5</ele>
        <time>2010-05-29T12:20:22Z</time>
      </trkpt>
      <trkpt lat="47.65455" lon="6.85658">
        <ele>415</ele>
        <time>2010-05-29T12:20:23Z</time>
      </trkpt>
      <trkpt lat="47.65453" lon="6.85651">
        <ele>415</ele>
        <time>2010-05-29T12:20:24Z</time>
      </trkpt>
      <trkpt lat="47.65451" lon="6.85645">
        <ele>415.5</ele>
        <time>2010-05-29T12:20:25Z</time>
      </trkpt>
      <trkpt lat="47.65449" lon="6.85638">
        <ele>415</ele>
        <time>2010-05-29T12:20:26Z</time>
      </trkpt>
      <trkpt lat="47.65447" lon="6.85632">
        <ele>415</ele>
        <time>2010-05-29T12:20:27Z</time>
      </trkpt>
      <trkpt lat="47.65444" lon="6.8562">
        <ele>415.5</ele>
        <time>2010-05-29T12:20:29Z</time>
      </trkpt>
      <trkpt lat="47.65442" lon="6.85613">
        <ele>415.5</ele>
        <time>2010-05-29T12:20:30Z</time>
      </trkpt>
      <trkpt lat="47.6544" lon="6.85606">
        <ele>415.5</ele>
        <time>2010-05-29T12:20:31Z</time>
      </trkpt>
      <trkpt lat="47.65438" lon="6.856">
        <ele>415.5</ele>
        <time>2010-05-29T12:20:32Z</time>
      </trkpt>
      <trkpt lat="47.65436" lon="6.85593">
        <ele>415.5</ele>
        <time>2010-05-29T12:20:33Z</time>
      </trkpt>
      <trkpt lat="47.65434" lon="6.85587">
        <ele>415.5</ele>
        <time>2010-05-29T12:20:34Z</time>
      </trkpt>
      <trkpt lat="47.65433" lon="6.8558">
        <ele>416</ele>
        <time>2010-05-29T12:20:35Z</time>
      </trkpt>
      <trkpt lat="47.65431" lon="6.85573">
        <ele>415.5</ele>
        <time>2010-05-29T12:20:36Z</time>
      </trkpt>
      <trkpt lat="47.65429" lon="6.85567">
        <ele>415.5</ele>
        <time>2010-05-29T12:20:37Z</time>
      </trkpt>
      <trkpt lat="47.65428" lon="6.8556">
        <ele>416</ele>
        <time>2010-05-29T12:20:38Z</time>
      </trkpt>
      <trkpt lat="47.65425" lon="6.85549">
        <ele>416</ele>
        <time>2010-05-29T12:20:40Z</time>
      </trkpt>
      <trkpt lat="47.65426" lon="6.85539">
        <ele>415.5</ele>
        <time>2010-05-29T12:20:42Z</time>
      </trkpt>
      <trkpt lat="47.65429" lon="6.85528">
        <ele>415.5</ele>
        <time>2010-05-29T12:20:44Z</time>
      </trkpt>
      <trkpt lat="47.65429" lon="6.85518">
        <ele>416</ele>
        <time>2010-05-29T12:20:46Z</time>
      </trkpt>
      <trkpt lat="47.65426" lon="6.85509">
        <ele>417</ele>
        <time>2010-05-29T12:20:48Z</time>
      </trkpt>
      <trkpt lat="47.65425" lon="6.85502">
        <ele>417.5</ele>
        <time>2010-05-29T12:20:50Z</time>
      </trkpt>
      <trkpt lat="47.6543" lon="6.85497">
        <ele>418</ele>
        <time>2010-05-29T12:20:52Z</time>
      </trkpt>
      <trkpt lat="47.65438" lon="6.85496">
        <ele>417.5</ele>
        <time>2010-05-29T12:20:54Z</time>
      </trkpt>
      <trkpt lat="47.65442" lon="6.85496">
        <ele>417.5</ele>
        <time>2010-05-29T12:20:55Z</time>
      </trkpt>
      <trkpt lat="47.65451" lon="6.85494">
        <ele>417.5</ele>
        <time>2010-05-29T12:20:57Z</time>
      </trkpt>
      <trkpt lat="47.65455" lon="6.85493">
        <ele>417.5</ele>
        <time>2010-05-29T12:20:58Z</time>
      </trkpt>
      <trkpt lat="47.6546" lon="6.85491">
        <ele>417.5</ele>
        <time>2010-05-29T12:20:59Z</time>
      </trkpt>
      <trkpt lat="47.65464" lon="6.85488">
        <ele>417.5</ele>
        <time>2010-05-29T12:21:00Z</time>
      </trkpt>
      <trkpt lat="47.65472" lon="6.85484">
        <ele>417.5</ele>
        <time>2010-05-29T12:21:02Z</time>
      </trkpt>
      <trkpt lat="47.6548" lon="6.8548">
        <ele>418</ele>
        <time>2010-05-29T12:21:04Z</time>
      </trkpt>
      <trkpt lat="47.65487" lon="6.85477">
        <ele>418</ele>
        <time>2010-05-29T12:21:06Z</time>
      </trkpt>
      <trkpt lat="47.65497" lon="6.85472">
        <ele>418</ele>
        <time>2010-05-29T12:21:07Z</time>
      </trkpt>
      <trkpt lat="47.65504" lon="6.85468">
        <ele>418</ele>
        <time>2010-05-29T12:21:10Z</time>
      </trkpt>
      <trkpt lat="47.65509" lon="6.85466">
        <ele>418</ele>
        <time>2010-05-29T12:21:12Z</time>
      </trkpt>
      <trkpt lat="47.65513" lon="6.85466">
        <ele>418.5</ele>
        <time>2010-05-29T12:21:13Z</time>
      </trkpt>
      <trkpt lat="47.6552" lon="6.85459">
        <ele>419</ele>
        <time>2010-05-29T12:21:14Z</time>
      </trkpt>
      <trkpt lat="47.65527" lon="6.85455">
        <ele>419.5</ele>
        <time>2010-05-29T12:21:16Z</time>
      </trkpt>
      <trkpt lat="47.65535" lon="6.85452">
        <ele>421.5</ele>
        <time>2010-05-29T12:21:18Z</time>
      </trkpt>
      <trkpt lat="47.6554" lon="6.8545">
        <ele>422</ele>
        <time>2010-05-29T12:21:19Z</time>
      </trkpt>
      <trkpt lat="47.65544" lon="6.85448">
        <ele>422.5</ele>
        <time>2010-05-29T12:21:20Z</time>
      </trkpt>
      <trkpt lat="47.65553" lon="6.85444">
        <ele>423</ele>
        <time>2010-05-29T12:21:22Z</time>
      </trkpt>
      <trkpt lat="47.65561" lon="6.85441">
        <ele>424</ele>
        <time>2010-05-29T12:21:24Z</time>
      </trkpt>
      <trkpt lat="47.65565" lon="6.85438">
        <ele>423.5</ele>
        <time>2010-05-29T12:21:25Z</time>
      </trkpt>
      <trkpt lat="47.6557" lon="6.85436">
        <ele>424</ele>
        <time>2010-05-29T12:21:26Z</time>
      </trkpt>
      <trkpt lat="47.65576" lon="6.85434">
        <ele>424</ele>
        <time>2010-05-29T12:21:27Z</time>
      </trkpt>
      <trkpt lat="47.65581" lon="6.85431">
        <ele>423.5</ele>
        <time>2010-05-29T12:21:28Z</time>
      </trkpt>
      <trkpt lat="47.65585" lon="6.85428">
        <ele>423.5</ele>
        <time>2010-05-29T12:21:29Z</time>
      </trkpt>
      <trkpt lat="47.6559" lon="6.85426">
        <ele>423.5</ele>
        <time>2010-05-29T12:21:30Z</time>
      </trkpt>
      <trkpt lat="47.65594" lon="6.85423">
        <ele>423.5</ele>
        <time>2010-05-29T12:21:31Z</time>
      </trkpt>
      <trkpt lat="47.65599" lon="6.85421">
        <ele>423.5</ele>
        <time>2010-05-29T12:21:32Z</time>
      </trkpt>
      <trkpt lat="47.65604" lon="6.85418">
        <ele>423.5</ele>
        <time>2010-05-29T12:21:33Z</time>
      </trkpt>
      <trkpt lat="47.65609" lon="6.85416">
        <ele>423.5</ele>
        <time>2010-05-29T12:21:34Z</time>
      </trkpt>
      <trkpt lat="47.65614" lon="6.85414">
        <ele>423.5</ele>
        <time>2010-05-29T12:21:35Z</time>
      </trkpt>
      <trkpt lat="47.65618" lon="6.85411">
        <ele>423.5</ele>
        <time>2010-05-29T12:21:36Z</time>
      </trkpt>
      <trkpt lat="47.65623" lon="6.85409">
        <ele>423.5</ele>
        <time>2010-05-29T12:21:37Z</time>
      </trkpt>
      <trkpt lat="47.65628" lon="6.85407">
        <ele>423.5</ele>
        <time>2010-05-29T12:21:38Z</time>
      </trkpt>
      <trkpt lat="47.65633" lon="6.85404">
        <ele>423.5</ele>
        <time>2010-05-29T12:21:39Z</time>
      </trkpt>
      <trkpt lat="47.65638" lon="6.85402">
        <ele>424</ele>
        <time>2010-05-29T12:21:40Z</time>
      </trkpt>
      <trkpt lat="47.65642" lon="6.85399">
        <ele>424</ele>
        <time>2010-05-29T12:21:41Z</time>
      </trkpt>
      <trkpt lat="47.65647" lon="6.85396">
        <ele>424.5</ele>
        <time>2010-05-29T12:21:42Z</time>
      </trkpt>
      <trkpt lat="47.65652" lon="6.85393">
        <ele>424.5</ele>
        <time>2010-05-29T12:21:43Z</time>
      </trkpt>
      <trkpt lat="47.65656" lon="6.8539">
        <ele>425</ele>
        <time>2010-05-29T12:21:44Z</time>
      </trkpt>
      <trkpt lat="47.65661" lon="6.85387">
        <ele>425</ele>
        <time>2010-05-29T12:21:45Z</time>
      </trkpt>
      <trkpt lat="47.65665" lon="6.85384">
        <ele>425.5</ele>
        <time>2010-05-29T12:21:46Z</time>
      </trkpt>
      <trkpt lat="47.6567" lon="6.85381">
        <ele>425.5</ele>
        <time>2010-05-29T12:21:47Z</time>
      </trkpt>
      <trkpt lat="47.65675" lon="6.85378">
        <ele>426</ele>
        <time>2010-05-29T12:21:48Z</time>
      </trkpt>
      <trkpt lat="47.6568" lon="6.85375">
        <ele>426</ele>
        <time>2010-05-29T12:21:49Z</time>
      </trkpt>
      <trkpt lat="47.65684" lon="6.85372">
        <ele>426</ele>
        <time>2010-05-29T12:21:50Z</time>
      </trkpt>
      <trkpt lat="47.65689" lon="6.85368">
        <ele>426</ele>
        <time>2010-05-29T12:21:51Z</time>
      </trkpt>
      <trkpt lat="47.65694" lon="6.85365">
        <ele>426</ele>
        <time>2010-05-29T12:21:52Z</time>
      </trkpt>
      <trkpt lat="47.65698" lon="6.85362">
        <ele>426</ele>
        <time>2010-05-29T12:21:53Z</time>
      </trkpt>
      <trkpt lat="47.65703" lon="6.85359">
        <ele>426</ele>
        <time>2010-05-29T12:21:54Z</time>
      </trkpt>
      <trkpt lat="47.65708" lon="6.85356">
        <ele>426</ele>
        <time>2010-05-29T12:21:55Z</time>
      </trkpt>
      <trkpt lat="47.65712" lon="6.85352">
        <ele>426</ele>
        <time>2010-05-29T12:21:56Z</time>
      </trkpt>
      <trkpt lat="47.65717" lon="6.85349">
        <ele>426</ele>
        <time>2010-05-29T12:21:57Z</time>
      </trkpt>
      <trkpt lat="47.65721" lon="6.85346">
        <ele>426</ele>
        <time>2010-05-29T12:21:58Z</time>
      </trkpt>
      <trkpt lat="47.65726" lon="6.85343">
        <ele>426</ele>
        <time>2010-05-29T12:21:59Z</time>
      </trkpt>
      <trkpt lat="47.65731" lon="6.85339">
        <ele>426.5</ele>
        <time>2010-05-29T12:22:00Z</time>
      </trkpt>
      <trkpt lat="47.65736" lon="6.85336">
        <ele>426.5</ele>
        <time>2010-05-29T12:22:01Z</time>
      </trkpt>
      <trkpt lat="47.65741" lon="6.85333">
        <ele>426.5</ele>
        <time>2010-05-29T12:22:02Z</time>
      </trkpt>
      <trkpt lat="47.65745" lon="6.8533">
        <ele>426.5</ele>
        <time>2010-05-29T12:22:03Z</time>
      </trkpt>
      <trkpt lat="47.6575" lon="6.85327">
        <ele>426.5</ele>
        <time>2010-05-29T12:22:04Z</time>
      </trkpt>
      <trkpt lat="47.65755" lon="6.85323">
        <ele>427</ele>
        <time>2010-05-29T12:22:05Z</time>
      </trkpt>
      <trkpt lat="47.65759" lon="6.85319">
        <ele>427</ele>
        <time>2010-05-29T12:22:06Z</time>
      </trkpt>
      <trkpt lat="47.65764" lon="6.85316">
        <ele>426.5</ele>
        <time>2010-05-29T12:22:07Z</time>
      </trkpt>
      <trkpt lat="47.65772" lon="6.85309">
        <ele>426.5</ele>
        <time>2010-05-29T12:22:07Z</time>
      </trkpt>
      <trkpt lat="47.65777" lon="6.85308">
        <ele>426.5</ele>
        <time>2010-05-29T12:22:09Z</time>
      </trkpt>
      <trkpt lat="47.65783" lon="6.85305">
        <ele>426.5</ele>
        <time>2010-05-29T12:22:10Z</time>
      </trkpt>
      <trkpt lat="47.65789" lon="6.853">
        <ele>426</ele>
        <time>2010-05-29T12:22:12Z</time>
      </trkpt>
      <trkpt lat="47.65794" lon="6.85296">
        <ele>426</ele>
        <time>2010-05-29T12:22:13Z</time>
      </trkpt>
      <trkpt lat="47.65799" lon="6.85292">
        <ele>425.5</ele>
        <time>2010-05-29T12:22:14Z</time>
      </trkpt>
      <trkpt lat="47.65805" lon="6.85287">
        <ele>425.5</ele>
        <time>2010-05-29T12:22:15Z</time>
      </trkpt>
      <trkpt lat="47.6581" lon="6.85282">
        <ele>425.5</ele>
        <time>2010-05-29T12:22:16Z</time>
      </trkpt>
      <trkpt lat="47.65815" lon="6.85278">
        <ele>425</ele>
        <time>2010-05-29T12:22:17Z</time>
      </trkpt>
      <trkpt lat="47.6582" lon="6.85273">
        <ele>425</ele>
        <time>2010-05-29T12:22:18Z</time>
      </trkpt>
      <trkpt lat="47.65825" lon="6.85268">
        <ele>425</ele>
        <time>2010-05-29T12:22:19Z</time>
      </trkpt>
      <trkpt lat="47.65832" lon="6.85261">
        <ele>426.5</ele>
        <time>2010-05-29T12:22:21Z</time>
      </trkpt>
      <trkpt lat="47.65837" lon="6.85256">
        <ele>426.5</ele>
        <time>2010-05-29T12:22:22Z</time>
      </trkpt>
      <trkpt lat="47.65841" lon="6.8525">
        <ele>427</ele>
        <time>2010-05-29T12:22:23Z</time>
      </trkpt>
      <trkpt lat="47.65845" lon="6.85245">
        <ele>427</ele>
        <time>2010-05-29T12:22:24Z</time>
      </trkpt>
      <trkpt lat="47.65849" lon="6.85239">
        <ele>427</ele>
        <time>2010-05-29T12:22:25Z</time>
      </trkpt>
      <trkpt lat="47.65852" lon="6.85235">
        <ele>427.5</ele>
        <time>2010-05-29T12:22:26Z</time>
      </trkpt>
      <trkpt lat="47.65856" lon="6.85229">
        <ele>427</ele>
        <time>2010-05-29T12:22:27Z</time>
      </trkpt>
      <trkpt lat="47.6586" lon="6.85223">
        <ele>427</ele>
        <time>2010-05-29T12:22:28Z</time>
      </trkpt>
      <trkpt lat="47.65864" lon="6.85218">
        <ele>427</ele>
        <time>2010-05-29T12:22:29Z</time>
      </trkpt>
      <trkpt lat="47.65868" lon="6.85212">
        <ele>427</ele>
        <time>2010-05-29T12:22:30Z</time>
      </trkpt>
      <trkpt lat="47.65873" lon="6.85205">
        <ele>427</ele>
        <time>2010-05-29T12:22:31Z</time>
      </trkpt>
      <trkpt lat="47.65877" lon="6.85199">
        <ele>427</ele>
        <time>2010-05-29T12:22:32Z</time>
      </trkpt>
      <trkpt lat="47.65881" lon="6.85193">
        <ele>426.5</ele>
        <time>2010-05-29T12:22:33Z</time>
      </trkpt>
      <trkpt lat="47.65885" lon="6.85188">
        <ele>427</ele>
        <time>2010-05-29T12:22:34Z</time>
      </trkpt>
      <trkpt lat="47.65889" lon="6.85182">
        <ele>427</ele>
        <time>2010-05-29T12:22:35Z</time>
      </trkpt>
      <trkpt lat="47.65893" lon="6.85176">
        <ele>427</ele>
        <time>2010-05-29T12:22:36Z</time>
      </trkpt>
      <trkpt lat="47.65897" lon="6.8517">
        <ele>427</ele>
        <time>2010-05-29T12:22:37Z</time>
      </trkpt>
      <trkpt lat="47.65901" lon="6.85166">
        <ele>427</ele>
        <time>2010-05-29T12:22:38Z</time>
      </trkpt>
      <trkpt lat="47.65906" lon="6.8516">
        <ele>427</ele>
        <time>2010-05-29T12:22:39Z</time>
      </trkpt>
      <trkpt lat="47.6591" lon="6.85156">
        <ele>427</ele>
        <time>2010-05-29T12:22:40Z</time>
      </trkpt>
      <trkpt lat="47.65917" lon="6.8515">
        <ele>426</ele>
        <time>2010-05-29T12:22:42Z</time>
      </trkpt>
      <trkpt lat="47.65926" lon="6.85144">
        <ele>425.5</ele>
        <time>2010-05-29T12:22:44Z</time>
      </trkpt>
      <trkpt lat="47.6593" lon="6.8514">
        <ele>425.5</ele>
        <time>2010-05-29T12:22:45Z</time>
      </trkpt>
      <trkpt lat="47.65935" lon="6.85137">
        <ele>425.5</ele>
        <time>2010-05-29T12:22:46Z</time>
      </trkpt>
      <trkpt lat="47.65939" lon="6.85133">
        <ele>425.5</ele>
        <time>2010-05-29T12:22:47Z</time>
      </trkpt>
      <trkpt lat="47.65944" lon="6.85129">
        <ele>425.5</ele>
        <time>2010-05-29T12:22:48Z</time>
      </trkpt>
      <trkpt lat="47.65948" lon="6.85126">
        <ele>426</ele>
        <time>2010-05-29T12:22:49Z</time>
      </trkpt>
      <trkpt lat="47.65953" lon="6.85122">
        <ele>426</ele>
        <time>2010-05-29T12:22:50Z</time>
      </trkpt>
      <trkpt lat="47.65957" lon="6.85118">
        <ele>426</ele>
        <time>2010-05-29T12:22:51Z</time>
      </trkpt>
      <trkpt lat="47.65961" lon="6.85115">
        <ele>426</ele>
        <time>2010-05-29T12:22:52Z</time>
      </trkpt>
      <trkpt lat="47.65969" lon="6.85109">
        <ele>426</ele>
        <time>2010-05-29T12:22:54Z</time>
      </trkpt>
      <trkpt lat="47.65973" lon="6.85106">
        <ele>426.5</ele>
        <time>2010-05-29T12:22:55Z</time>
      </trkpt>
      <trkpt lat="47.65978" lon="6.85102">
        <ele>426.5</ele>
        <time>2010-05-29T12:22:56Z</time>
      </trkpt>
      <trkpt lat="47.65982" lon="6.85099">
        <ele>427</ele>
        <time>2010-05-29T12:22:57Z</time>
      </trkpt>
      <trkpt lat="47.65987" lon="6.85095">
        <ele>427.5</ele>
        <time>2010-05-29T12:22:58Z</time>
      </trkpt>
      <trkpt lat="47.65992" lon="6.85091">
        <ele>427.5</ele>
        <time>2010-05-29T12:22:59Z</time>
      </trkpt>
      <trkpt lat="47.65997" lon="6.85087">
        <ele>427.5</ele>
        <time>2010-05-29T12:23:00Z</time>
      </trkpt>
      <trkpt lat="47.66002" lon="6.85084">
        <ele>427</ele>
        <time>2010-05-29T12:23:01Z</time>
      </trkpt>
      <trkpt lat="47.66007" lon="6.8508">
        <ele>427</ele>
        <time>2010-05-29T12:23:02Z</time>
      </trkpt>
      <trkpt lat="47.66011" lon="6.85077">
        <ele>426.5</ele>
        <time>2010-05-29T12:23:03Z</time>
      </trkpt>
      <trkpt lat="47.66016" lon="6.85075">
        <ele>426.5</ele>
        <time>2010-05-29T12:23:04Z</time>
      </trkpt>
      <trkpt lat="47.66021" lon="6.85072">
        <ele>426.5</ele>
        <time>2010-05-29T12:23:05Z</time>
      </trkpt>
      <trkpt lat="47.66026" lon="6.85069">
        <ele>426.5</ele>
        <time>2010-05-29T12:23:06Z</time>
      </trkpt>
      <trkpt lat="47.66031" lon="6.85066">
        <ele>426</ele>
        <time>2010-05-29T12:23:07Z</time>
      </trkpt>
      <trkpt lat="47.66039" lon="6.8506">
        <ele>426</ele>
        <time>2010-05-29T12:23:07Z</time>
      </trkpt>
      <trkpt lat="47.66043" lon="6.85057">
        <ele>426</ele>
        <time>2010-05-29T12:23:09Z</time>
      </trkpt>
      <trkpt lat="47.66052" lon="6.85053">
        <ele>425</ele>
        <time>2010-05-29T12:23:10Z</time>
      </trkpt>
      <trkpt lat="47.6606" lon="6.85052">
        <ele>425.5</ele>
        <time>2010-05-29T12:23:12Z</time>
      </trkpt>
      <trkpt lat="47.66067" lon="6.8505">
        <ele>424</ele>
        <time>2010-05-29T12:23:13Z</time>
      </trkpt>
      <trkpt lat="47.66073" lon="6.8505">
        <ele>423.5</ele>
        <time>2010-05-29T12:23:14Z</time>
      </trkpt>
      <trkpt lat="47.66078" lon="6.85049">
        <ele>423</ele>
        <time>2010-05-29T12:23:15Z</time>
      </trkpt>
      <trkpt lat="47.66086" lon="6.85048">
        <ele>423.5</ele>
        <time>2010-05-29T12:23:17Z</time>
      </trkpt>
      <trkpt lat="47.66094" lon="6.85046">
        <ele>423</ele>
        <time>2010-05-29T12:23:19Z</time>
      </trkpt>
      <trkpt lat="47.66098" lon="6.8504">
        <ele>423</ele>
        <time>2010-05-29T12:23:21Z</time>
      </trkpt>
      <trkpt lat="47.66096" lon="6.85031">
        <ele>423</ele>
        <time>2010-05-29T12:23:23Z</time>
      </trkpt>
      <trkpt lat="47.66092" lon="6.85024">
        <ele>424</ele>
        <time>2010-05-29T12:23:25Z</time>
      </trkpt>
      <trkpt lat="47.66088" lon="6.85015">
        <ele>424</ele>
        <time>2010-05-29T12:23:27Z</time>
      </trkpt>
      <trkpt lat="47.66084" lon="6.85006">
        <ele>424</ele>
        <time>2010-05-29T12:23:29Z</time>
      </trkpt>
      <trkpt lat="47.6608" lon="6.84994">
        <ele>424</ele>
        <time>2010-05-29T12:23:31Z</time>
      </trkpt>
      <trkpt lat="47.66078" lon="6.84987">
        <ele>424</ele>
        <time>2010-05-29T12:23:32Z</time>
      </trkpt>
      <trkpt lat="47.66076" lon="6.8498">
        <ele>423</ele>
        <time>2010-05-29T12:23:33Z</time>
      </trkpt>
      <trkpt lat="47.66074" lon="6.84972">
        <ele>423</ele>
        <time>2010-05-29T12:23:34Z</time>
      </trkpt>
      <trkpt lat="47.66071" lon="6.84963">
        <ele>422.5</ele>
        <time>2010-05-29T12:23:35Z</time>
      </trkpt>
      <trkpt lat="47.66069" lon="6.84955">
        <ele>422.5</ele>
        <time>2010-05-29T12:23:36Z</time>
      </trkpt>
      <trkpt lat="47.66066" lon="6.84947">
        <ele>422.5</ele>
        <time>2010-05-29T12:23:37Z</time>
      </trkpt>
      <trkpt lat="47.66064" lon="6.84939">
        <ele>422.5</ele>
        <time>2010-05-29T12:23:38Z</time>
      </trkpt>
      <trkpt lat="47.66062" lon="6.84931">
        <ele>422.5</ele>
        <time>2010-05-29T12:23:39Z</time>
      </trkpt>
      <trkpt lat="47.6606" lon="6.8492">
        <ele>422.5</ele>
        <time>2010-05-29T12:23:41Z</time>
      </trkpt>
      <trkpt lat="47.66062" lon="6.84912">
        <ele>423.5</ele>
        <time>2010-05-29T12:23:44Z</time>
      </trkpt>
      <trkpt lat="47.66069" lon="6.84912">
        <ele>423</ele>
        <time>2010-05-29T12:23:46Z</time>
      </trkpt>
      <trkpt lat="47.66077" lon="6.84914">
        <ele>422.5</ele>
        <time>2010-05-29T12:23:48Z</time>
      </trkpt>
      <trkpt lat="47.66086" lon="6.84913">
        <ele>423.5</ele>
        <time>2010-05-29T12:23:50Z</time>
      </trkpt>
      <trkpt lat="47.66094" lon="6.84909">
        <ele>423.5</ele>
        <time>2010-05-29T12:23:52Z</time>
      </trkpt>
      <trkpt lat="47.66102" lon="6.84906">
        <ele>424</ele>
        <time>2010-05-29T12:23:54Z</time>
      </trkpt>
      <trkpt lat="47.6611" lon="6.84902">
        <ele>424</ele>
        <time>2010-05-29T12:23:56Z</time>
      </trkpt>
      <trkpt lat="47.66118" lon="6.84898">
        <ele>424</ele>
        <time>2010-05-29T12:23:58Z</time>
      </trkpt>
      <trkpt lat="47.66126" lon="6.84894">
        <ele>424</ele>
        <time>2010-05-29T12:24:00Z</time>
      </trkpt>
      <trkpt lat="47.66135" lon="6.8489">
        <ele>424.5</ele>
        <time>2010-05-29T12:24:02Z</time>
      </trkpt>
      <trkpt lat="47.66139" lon="6.84888">
        <ele>424.5</ele>
        <time>2010-05-29T12:24:03Z</time>
      </trkpt>
      <trkpt lat="47.66147" lon="6.84883">
        <ele>426</ele>
        <time>2010-05-29T12:24:05Z</time>
      </trkpt>
      <trkpt lat="47.66151" lon="6.8488">
        <ele>426</ele>
        <time>2010-05-29T12:24:06Z</time>
      </trkpt>
      <trkpt lat="47.66155" lon="6.84876">
        <ele>426</ele>
        <time>2010-05-29T12:24:07Z</time>
      </trkpt>
      <trkpt lat="47.66161" lon="6.8487">
        <ele>426</ele>
        <time>2010-05-29T12:24:07Z</time>
      </trkpt>
      <trkpt lat="47.66167" lon="6.84865">
        <ele>426.5</ele>
        <time>2010-05-29T12:24:09Z</time>
      </trkpt>
      <trkpt lat="47.66171" lon="6.84861">
        <ele>426.5</ele>
        <time>2010-05-29T12:24:10Z</time>
      </trkpt>
      <trkpt lat="47.66176" lon="6.84857">
        <ele>426.5</ele>
        <time>2010-05-29T12:24:12Z</time>
      </trkpt>
      <trkpt lat="47.66184" lon="6.84852">
        <ele>427</ele>
        <time>2010-05-29T12:24:14Z</time>
      </trkpt>
      <trkpt lat="47.66189" lon="6.84849">
        <ele>427.5</ele>
        <time>2010-05-29T12:24:15Z</time>
      </trkpt>
      <trkpt lat="47.66193" lon="6.84847">
        <ele>428</ele>
        <time>2010-05-29T12:24:16Z</time>
      </trkpt>
      <trkpt lat="47.66198" lon="6.84845">
        <ele>428</ele>
        <time>2010-05-29T12:24:17Z</time>
      </trkpt>
      <trkpt lat="47.66203" lon="6.84843">
        <ele>428</ele>
        <time>2010-05-29T12:24:18Z</time>
      </trkpt>
      <trkpt lat="47.66208" lon="6.84841">
        <ele>428.5</ele>
        <time>2010-05-29T12:24:19Z</time>
      </trkpt>
      <trkpt lat="47.66212" lon="6.84839">
        <ele>429</ele>
        <time>2010-05-29T12:24:20Z</time>
      </trkpt>
      <trkpt lat="47.66217" lon="6.84837">
        <ele>429.5</ele>
        <time>2010-05-29T12:24:21Z</time>
      </trkpt>
      <trkpt lat="47.66221" lon="6.84835">
        <ele>429.5</ele>
        <time>2010-05-29T12:24:22Z</time>
      </trkpt>
      <trkpt lat="47.66226" lon="6.84833">
        <ele>429.5</ele>
        <time>2010-05-29T12:24:23Z</time>
      </trkpt>
      <trkpt lat="47.6623" lon="6.84832">
        <ele>430</ele>
        <time>2010-05-29T12:24:24Z</time>
      </trkpt>
      <trkpt lat="47.66235" lon="6.8483">
        <ele>430</ele>
        <time>2010-05-29T12:24:25Z</time>
      </trkpt>
      <trkpt lat="47.66239" lon="6.84827">
        <ele>430.5</ele>
        <time>2010-05-29T12:24:26Z</time>
      </trkpt>
      <trkpt lat="47.66244" lon="6.84825">
        <ele>430.5</ele>
        <time>2010-05-29T12:24:27Z</time>
      </trkpt>
      <trkpt lat="47.66249" lon="6.84818">
        <ele>431</ele>
        <time>2010-05-29T12:24:29Z</time>
      </trkpt>
      <trkpt lat="47.66252" lon="6.84811">
        <ele>430.5</ele>
        <time>2010-05-29T12:24:31Z</time>
      </trkpt>
      <trkpt lat="47.66258" lon="6.84805">
        <ele>430.5</ele>
        <time>2010-05-29T12:24:33Z</time>
      </trkpt>
      <trkpt lat="47.66265" lon="6.848">
        <ele>430.5</ele>
        <time>2010-05-29T12:24:35Z</time>
      </trkpt>
      <trkpt lat="47.66273" lon="6.84795">
        <ele>431</ele>
        <time>2010-05-29T12:24:37Z</time>
      </trkpt>
      <trkpt lat="47.6628" lon="6.8479">
        <ele>431.5</ele>
        <time>2010-05-29T12:24:39Z</time>
      </trkpt>
      <trkpt lat="47.66284" lon="6.84786">
        <ele>431.5</ele>
        <time>2010-05-29T12:24:41Z</time>
      </trkpt>
      <trkpt lat="47.66289" lon="6.8478">
        <ele>433</ele>
        <time>2010-05-29T12:24:44Z</time>
      </trkpt>
      <trkpt lat="47.6629" lon="6.84773">
        <ele>436</ele>
        <time>2010-05-29T12:24:47Z</time>
      </trkpt>
      <trkpt lat="47.66289" lon="6.84765">
        <ele>435.5</ele>
        <time>2010-05-29T12:24:49Z</time>
      </trkpt>
      <trkpt lat="47.6628" lon="6.8476">
        <ele>433.5</ele>
        <time>2010-05-29T12:24:50Z</time>
      </trkpt>
      <trkpt lat="47.66277" lon="6.84755">
        <ele>433</ele>
        <time>2010-05-29T12:24:51Z</time>
      </trkpt>
      <trkpt lat="47.6627" lon="6.84746">
        <ele>432.5</ele>
        <time>2010-05-29T12:24:53Z</time>
      </trkpt>
      <trkpt lat="47.66264" lon="6.84738">
        <ele>432.5</ele>
        <time>2010-05-29T12:24:55Z</time>
      </trkpt>
      <trkpt lat="47.66261" lon="6.84726">
        <ele>431.5</ele>
        <time>2010-05-29T12:24:57Z</time>
      </trkpt>
      <trkpt lat="47.6626" lon="6.84713">
        <ele>432</ele>
        <time>2010-05-29T12:24:59Z</time>
      </trkpt>
      <trkpt lat="47.66261" lon="6.84707">
        <ele>432.5</ele>
        <time>2010-05-29T12:25:00Z</time>
      </trkpt>
      <trkpt lat="47.66262" lon="6.84695">
        <ele>433.5</ele>
        <time>2010-05-29T12:25:02Z</time>
      </trkpt>
      <trkpt lat="47.66262" lon="6.84686">
        <ele>434.5</ele>
        <time>2010-05-29T12:25:04Z</time>
      </trkpt>
      <trkpt lat="47.66265" lon="6.84673">
        <ele>434.5</ele>
        <time>2010-05-29T12:25:06Z</time>
      </trkpt>
      <trkpt lat="47.66268" lon="6.84666">
        <ele>434.5</ele>
        <time>2010-05-29T12:25:07Z</time>
      </trkpt>
      <trkpt lat="47.66271" lon="6.84656">
        <ele>435</ele>
        <time>2010-05-29T12:25:07Z</time>
      </trkpt>
      <trkpt lat="47.66275" lon="6.84649">
        <ele>436</ele>
        <time>2010-05-29T12:25:09Z</time>
      </trkpt>
      <trkpt lat="47.66278" lon="6.84641">
        <ele>438</ele>
        <time>2010-05-29T12:25:10Z</time>
      </trkpt>
      <trkpt lat="47.66283" lon="6.84632">
        <ele>438.5</ele>
        <time>2010-05-29T12:25:12Z</time>
      </trkpt>
      <trkpt lat="47.66286" lon="6.84623">
        <ele>438.5</ele>
        <time>2010-05-29T12:25:13Z</time>
      </trkpt>
      <trkpt lat="47.6629" lon="6.84615">
        <ele>438.5</ele>
        <time>2010-05-29T12:25:14Z</time>
      </trkpt>
      <trkpt lat="47.66293" lon="6.84607">
        <ele>438</ele>
        <time>2010-05-29T12:25:15Z</time>
      </trkpt>
      <trkpt lat="47.66296" lon="6.84599">
        <ele>437</ele>
        <time>2010-05-29T12:25:16Z</time>
      </trkpt>
      <trkpt lat="47.66299" lon="6.84591">
        <ele>437</ele>
        <time>2010-05-29T12:25:17Z</time>
      </trkpt>
      <trkpt lat="47.66302" lon="6.84585">
        <ele>436.5</ele>
        <time>2010-05-29T12:25:18Z</time>
      </trkpt>
      <trkpt lat="47.66306" lon="6.84579">
        <ele>436</ele>
        <time>2010-05-29T12:25:19Z</time>
      </trkpt>
      <trkpt lat="47.66309" lon="6.84572">
        <ele>436</ele>
        <time>2010-05-29T12:25:20Z</time>
      </trkpt>
      <trkpt lat="47.66311" lon="6.84566">
        <ele>436.5</ele>
        <time>2010-05-29T12:25:21Z</time>
      </trkpt>
      <trkpt lat="47.66314" lon="6.8456">
        <ele>436.5</ele>
        <time>2010-05-29T12:25:22Z</time>
      </trkpt>
      <trkpt lat="47.66317" lon="6.84555">
        <ele>436.5</ele>
        <time>2010-05-29T12:25:23Z</time>
      </trkpt>
      <trkpt lat="47.6632" lon="6.8455">
        <ele>436.5</ele>
        <time>2010-05-29T12:25:24Z</time>
      </trkpt>
      <trkpt lat="47.66325" lon="6.84545">
        <ele>435.5</ele>
        <time>2010-05-29T12:25:25Z</time>
      </trkpt>
      <trkpt lat="47.6633" lon="6.84541">
        <ele>434.5</ele>
        <time>2010-05-29T12:25:26Z</time>
      </trkpt>
      <trkpt lat="47.66334" lon="6.84539">
        <ele>434</ele>
        <time>2010-05-29T12:25:27Z</time>
      </trkpt>
      <trkpt lat="47.66339" lon="6.84535">
        <ele>433</ele>
        <time>2010-05-29T12:25:28Z</time>
      </trkpt>
      <trkpt lat="47.66344" lon="6.84533">
        <ele>432.5</ele>
        <time>2010-05-29T12:25:29Z</time>
      </trkpt>
      <trkpt lat="47.66348" lon="6.8453">
        <ele>432.5</ele>
        <time>2010-05-29T12:25:30Z</time>
      </trkpt>
      <trkpt lat="47.66353" lon="6.84527">
        <ele>432.5</ele>
        <time>2010-05-29T12:25:31Z</time>
      </trkpt>
      <trkpt lat="47.66357" lon="6.84524">
        <ele>432.5</ele>
        <time>2010-05-29T12:25:32Z</time>
      </trkpt>
      <trkpt lat="47.66361" lon="6.8452">
        <ele>432.5</ele>
        <time>2010-05-29T12:25:33Z</time>
      </trkpt>
      <trkpt lat="47.66366" lon="6.84516">
        <ele>432.5</ele>
        <time>2010-05-29T12:25:34Z</time>
      </trkpt>
      <trkpt lat="47.6637" lon="6.84513">
        <ele>432.5</ele>
        <time>2010-05-29T12:25:35Z</time>
      </trkpt>
      <trkpt lat="47.66375" lon="6.84509">
        <ele>432.5</ele>
        <time>2010-05-29T12:25:36Z</time>
      </trkpt>
      <trkpt lat="47.66381" lon="6.84501">
        <ele>433</ele>
        <time>2010-05-29T12:25:38Z</time>
      </trkpt>
      <trkpt lat="47.66384" lon="6.84496">
        <ele>432.5</ele>
        <time>2010-05-29T12:25:39Z</time>
      </trkpt>
      <trkpt lat="47.66387" lon="6.8449">
        <ele>431.5</ele>
        <time>2010-05-29T12:25:40Z</time>
      </trkpt>
      <trkpt lat="47.66392" lon="6.84479">
        <ele>430.5</ele>
        <time>2010-05-29T12:25:42Z</time>
      </trkpt>
      <trkpt lat="47.66395" lon="6.84474">
        <ele>430</ele>
        <time>2010-05-29T12:25:43Z</time>
      </trkpt>
      <trkpt lat="47.66399" lon="6.8447">
        <ele>430</ele>
        <time>2010-05-29T12:25:44Z</time>
      </trkpt>
      <trkpt lat="47.66403" lon="6.84466">
        <ele>430</ele>
        <time>2010-05-29T12:25:45Z</time>
      </trkpt>
      <trkpt lat="47.66406" lon="6.84462">
        <ele>429.5</ele>
        <time>2010-05-29T12:25:46Z</time>
      </trkpt>
      <trkpt lat="47.6641" lon="6.84458">
        <ele>429</ele>
        <time>2010-05-29T12:25:47Z</time>
      </trkpt>
      <trkpt lat="47.66414" lon="6.84453">
        <ele>428.5</ele>
        <time>2010-05-29T12:25:48Z</time>
      </trkpt>
      <trkpt lat="47.66417" lon="6.84448">
        <ele>427.5</ele>
        <time>2010-05-29T12:25:49Z</time>
      </trkpt>
      <trkpt lat="47.66421" lon="6.84444">
        <ele>427.5</ele>
        <time>2010-05-29T12:25:50Z</time>
      </trkpt>
      <trkpt lat="47.66425" lon="6.84439">
        <ele>427</ele>
        <time>2010-05-29T12:25:51Z</time>
      </trkpt>
      <trkpt lat="47.66429" lon="6.84435">
        <ele>427</ele>
        <time>2010-05-29T12:25:52Z</time>
      </trkpt>
      <trkpt lat="47.66433" lon="6.8443">
        <ele>427</ele>
        <time>2010-05-29T12:25:53Z</time>
      </trkpt>
      <trkpt lat="47.66437" lon="6.84426">
        <ele>426.5</ele>
        <time>2010-05-29T12:25:54Z</time>
      </trkpt>
      <trkpt lat="47.66441" lon="6.84422">
        <ele>426.5</ele>
        <time>2010-05-29T12:25:55Z</time>
      </trkpt>
      <trkpt lat="47.66445" lon="6.84418">
        <ele>426</ele>
        <time>2010-05-29T12:25:56Z</time>
      </trkpt>
      <trkpt lat="47.6645" lon="6.84414">
        <ele>426</ele>
        <time>2010-05-29T12:25:57Z</time>
      </trkpt>
      <trkpt lat="47.66454" lon="6.8441">
        <ele>426.5</ele>
        <time>2010-05-29T12:25:58Z</time>
      </trkpt>
      <trkpt lat="47.66457" lon="6.84406">
        <ele>426.5</ele>
        <time>2010-05-29T12:25:59Z</time>
      </trkpt>
      <trkpt lat="47.66463" lon="6.84398">
        <ele>426</ele>
        <time>2010-05-29T12:26:01Z</time>
      </trkpt>
      <trkpt lat="47.66468" lon="6.84391">
        <ele>427</ele>
        <time>2010-05-29T12:26:03Z</time>
      </trkpt>
      <trkpt lat="47.66475" lon="6.8439">
        <ele>426</ele>
        <time>2010-05-29T12:26:05Z</time>
      </trkpt>
      <trkpt lat="47.6648" lon="6.84395">
        <ele>425.5</ele>
        <time>2010-05-29T12:26:07Z</time>
      </trkpt>
      <trkpt lat="47.66483" lon="6.84402">
        <ele>426</ele>
        <time>2010-05-29T12:26:07Z</time>
      </trkpt>
      <trkpt lat="47.66487" lon="6.84408">
        <ele>426.5</ele>
        <time>2010-05-29T12:26:10Z</time>
      </trkpt>
      <trkpt lat="47.66491" lon="6.84408">
        <ele>426.5</ele>
        <time>2010-05-29T12:26:13Z</time>
      </trkpt>
      <trkpt lat="47.66497" lon="6.84401">
        <ele>427.5</ele>
        <time>2010-05-29T12:26:15Z</time>
      </trkpt>
      <trkpt lat="47.66504" lon="6.84394">
        <ele>428</ele>
        <time>2010-05-29T12:26:17Z</time>
      </trkpt>
      <trkpt lat="47.66511" lon="6.84386">
        <ele>429</ele>
        <time>2010-05-29T12:26:19Z</time>
      </trkpt>
      <trkpt lat="47.66518" lon="6.84379">
        <ele>429.5</ele>
        <time>2010-05-29T12:26:21Z</time>
      </trkpt>
      <trkpt lat="47.66525" lon="6.84372">
        <ele>430</ele>
        <time>2010-05-29T12:26:23Z</time>
      </trkpt>
      <trkpt lat="47.66532" lon="6.84364">
        <ele>430</ele>
        <time>2010-05-29T12:26:25Z</time>
      </trkpt>
      <trkpt lat="47.6654" lon="6.84357">
        <ele>430.5</ele>
        <time>2010-05-29T12:26:27Z</time>
      </trkpt>
      <trkpt lat="47.66546" lon="6.84349">
        <ele>430.5</ele>
        <time>2010-05-29T12:26:29Z</time>
      </trkpt>
      <trkpt lat="47.66553" lon="6.84341">
        <ele>431</ele>
        <time>2010-05-29T12:26:31Z</time>
      </trkpt>
      <trkpt lat="47.6656" lon="6.84333">
        <ele>431</ele>
        <time>2010-05-29T12:26:33Z</time>
      </trkpt>
      <trkpt lat="47.66566" lon="6.84324">
        <ele>431</ele>
        <time>2010-05-29T12:26:35Z</time>
      </trkpt>
      <trkpt lat="47.6657" lon="6.8432">
        <ele>430.5</ele>
        <time>2010-05-29T12:26:36Z</time>
      </trkpt>
      <trkpt lat="47.66574" lon="6.84317">
        <ele>430</ele>
        <time>2010-05-29T12:26:37Z</time>
      </trkpt>
      <trkpt lat="47.66578" lon="6.84314">
        <ele>429.5</ele>
        <time>2010-05-29T12:26:38Z</time>
      </trkpt>
      <trkpt lat="47.66582" lon="6.84312">
        <ele>429.5</ele>
        <time>2010-05-29T12:26:39Z</time>
      </trkpt>
      <trkpt lat="47.66587" lon="6.8431">
        <ele>430</ele>
        <time>2010-05-29T12:26:40Z</time>
      </trkpt>
      <trkpt lat="47.66591" lon="6.84307">
        <ele>430</ele>
        <time>2010-05-29T12:26:41Z</time>
      </trkpt>
      <trkpt lat="47.66595" lon="6.84305">
        <ele>430</ele>
        <time>2010-05-29T12:26:42Z</time>
      </trkpt>
      <trkpt lat="47.666" lon="6.84303">
        <ele>430</ele>
        <time>2010-05-29T12:26:43Z</time>
      </trkpt>
      <trkpt lat="47.66607" lon="6.84297">
        <ele>430.5</ele>
        <time>2010-05-29T12:26:45Z</time>
      </trkpt>
      <trkpt lat="47.66615" lon="6.84291">
        <ele>430</ele>
        <time>2010-05-29T12:26:47Z</time>
      </trkpt>
      <trkpt lat="47.66622" lon="6.84285">
        <ele>429</ele>
        <time>2010-05-29T12:26:49Z</time>
      </trkpt>
      <trkpt lat="47.66629" lon="6.8428">
        <ele>429.5</ele>
        <time>2010-05-29T12:26:51Z</time>
      </trkpt>
      <trkpt lat="47.66632" lon="6.84274">
        <ele>430.5</ele>
        <time>2010-05-29T12:26:53Z</time>
      </trkpt>
      <trkpt lat="47.66635" lon="6.8427">
        <ele>430</ele>
        <time>2010-05-29T12:26:56Z</time>
      </trkpt>
      <trkpt lat="47.66635" lon="6.84269">
        <ele>430</ele>
        <time>2010-05-29T12:27:07Z</time>
      </trkpt>
      <trkpt lat="47.66634" lon="6.84265">
        <ele>430.5</ele>
        <time>2010-05-29T12:27:22Z</time>
      </trkpt>
      <trkpt lat="47.66635" lon="6.84262">
        <ele>430.5</ele>
        <time>2010-05-29T12:27:23Z</time>
      </trkpt>
      <trkpt lat="47.66638" lon="6.84255">
        <ele>432</ele>
        <time>2010-05-29T12:27:26Z</time>
      </trkpt>
      <trkpt lat="47.66641" lon="6.84247">
        <ele>431.5</ele>
        <time>2010-05-29T12:27:28Z</time>
      </trkpt>
      <trkpt lat="47.66645" lon="6.84236">
        <ele>430.5</ele>
        <time>2010-05-29T12:27:30Z</time>
      </trkpt>
      <trkpt lat="47.66649" lon="6.84225">
        <ele>430.5</ele>
        <time>2010-05-29T12:27:32Z</time>
      </trkpt>
      <trkpt lat="47.66653" lon="6.84214">
        <ele>432.5</ele>
        <time>2010-05-29T12:27:34Z</time>
      </trkpt>
      <trkpt lat="47.66658" lon="6.84203">
        <ele>432.5</ele>
        <time>2010-05-29T12:27:36Z</time>
      </trkpt>
      <trkpt lat="47.66661" lon="6.84196">
        <ele>433</ele>
        <time>2010-05-29T12:27:37Z</time>
      </trkpt>
      <trkpt lat="47.66663" lon="6.84189">
        <ele>433</ele>
        <time>2010-05-29T12:27:38Z</time>
      </trkpt>
      <trkpt lat="47.66665" lon="6.84182">
        <ele>432.5</ele>
        <time>2010-05-29T12:27:39Z</time>
      </trkpt>
      <trkpt lat="47.66668" lon="6.84175">
        <ele>432.5</ele>
        <time>2010-05-29T12:27:40Z</time>
      </trkpt>
      <trkpt lat="47.6667" lon="6.84167">
        <ele>432.5</ele>
        <time>2010-05-29T12:27:41Z</time>
      </trkpt>
      <trkpt lat="47.66672" lon="6.84159">
        <ele>432</ele>
        <time>2010-05-29T12:27:42Z</time>
      </trkpt>
      <trkpt lat="47.66674" lon="6.84152">
        <ele>431.5</ele>
        <time>2010-05-29T12:27:43Z</time>
      </trkpt>
      <trkpt lat="47.66677" lon="6.84144">
        <ele>431.5</ele>
        <time>2010-05-29T12:27:44Z</time>
      </trkpt>
      <trkpt lat="47.66679" lon="6.84137">
        <ele>431.5</ele>
        <time>2010-05-29T12:27:45Z</time>
      </trkpt>
      <trkpt lat="47.66681" lon="6.84129">
        <ele>431.5</ele>
        <time>2010-05-29T12:27:46Z</time>
      </trkpt>
      <trkpt lat="47.66683" lon="6.84122">
        <ele>431</ele>
        <time>2010-05-29T12:27:47Z</time>
      </trkpt>
      <trkpt lat="47.66685" lon="6.84115">
        <ele>431.5</ele>
        <time>2010-05-29T12:27:48Z</time>
      </trkpt>
      <trkpt lat="47.66687" lon="6.84108">
        <ele>431.5</ele>
        <time>2010-05-29T12:27:49Z</time>
      </trkpt>
      <trkpt lat="47.66689" lon="6.841">
        <ele>431.5</ele>
        <time>2010-05-29T12:27:50Z</time>
      </trkpt>
      <trkpt lat="47.66691" lon="6.84093">
        <ele>431.5</ele>
        <time>2010-05-29T12:27:51Z</time>
      </trkpt>
      <trkpt lat="47.66694" lon="6.84085">
        <ele>431</ele>
        <time>2010-05-29T12:27:52Z</time>
      </trkpt>
      <trkpt lat="47.66695" lon="6.84078">
        <ele>431</ele>
        <time>2010-05-29T12:27:53Z</time>
      </trkpt>
      <trkpt lat="47.66697" lon="6.84071">
        <ele>431.5</ele>
        <time>2010-05-29T12:27:54Z</time>
      </trkpt>
      <trkpt lat="47.66699" lon="6.84064">
        <ele>431.5</ele>
        <time>2010-05-29T12:27:55Z</time>
      </trkpt>
      <trkpt lat="47.66701" lon="6.84058">
        <ele>431.5</ele>
        <time>2010-05-29T12:27:56Z</time>
      </trkpt>
      <trkpt lat="47.66702" lon="6.84051">
        <ele>431.5</ele>
        <time>2010-05-29T12:27:57Z</time>
      </trkpt>
      <trkpt lat="47.66704" lon="6.84044">
        <ele>432</ele>
        <time>2010-05-29T12:27:58Z</time>
      </trkpt>
      <trkpt lat="47.66706" lon="6.84037">
        <ele>432</ele>
        <time>2010-05-29T12:27:59Z</time>
      </trkpt>
      <trkpt lat="47.66708" lon="6.8403">
        <ele>432</ele>
        <time>2010-05-29T12:28:00Z</time>
      </trkpt>
      <trkpt lat="47.66709" lon="6.84023">
        <ele>432</ele>
        <time>2010-05-29T12:28:01Z</time>
      </trkpt>
      <trkpt lat="47.66711" lon="6.84016">
        <ele>431.5</ele>
        <time>2010-05-29T12:28:02Z</time>
      </trkpt>
      <trkpt lat="47.66713" lon="6.8401">
        <ele>431.5</ele>
        <time>2010-05-29T12:28:03Z</time>
      </trkpt>
      <trkpt lat="47.66716" lon="6.83999">
        <ele>430.5</ele>
        <time>2010-05-29T12:28:05Z</time>
      </trkpt>
      <trkpt lat="47.66718" lon="6.83991">
        <ele>431</ele>
        <time>2010-05-29T12:28:07Z</time>
      </trkpt>
      <trkpt lat="47.66719" lon="6.83981">
        <ele>430</ele>
        <time>2010-05-29T12:28:09Z</time>
      </trkpt>
      <trkpt lat="47.66709" lon="6.83978">
        <ele>432.5</ele>
        <time>2010-05-29T12:28:13Z</time>
      </trkpt>
      <trkpt lat="47.66704" lon="6.83977">
        <ele>433</ele>
        <time>2010-05-29T12:28:14Z</time>
      </trkpt>
      <trkpt lat="47.66695" lon="6.83976">
        <ele>433</ele>
        <time>2010-05-29T12:28:16Z</time>
      </trkpt>
      <trkpt lat="47.66691" lon="6.83975">
        <ele>433</ele>
        <time>2010-05-29T12:28:17Z</time>
      </trkpt>
      <trkpt lat="47.66682" lon="6.83974">
        <ele>432.5</ele>
        <time>2010-05-29T12:28:19Z</time>
      </trkpt>
      <trkpt lat="47.66674" lon="6.83974">
        <ele>433</ele>
        <time>2010-05-29T12:28:21Z</time>
      </trkpt>
      <trkpt lat="47.66668" lon="6.83974">
        <ele>433</ele>
        <time>2010-05-29T12:28:23Z</time>
      </trkpt>
      <trkpt lat="47.66662" lon="6.83973">
        <ele>433</ele>
        <time>2010-05-29T12:28:25Z</time>
      </trkpt>
      <trkpt lat="47.66657" lon="6.83972">
        <ele>433.5</ele>
        <time>2010-05-29T12:28:27Z</time>
      </trkpt>
      <trkpt lat="47.6665" lon="6.83969">
        <ele>432.5</ele>
        <time>2010-05-29T12:28:30Z</time>
      </trkpt>
      <trkpt lat="47.66645" lon="6.83967">
        <ele>433</ele>
        <time>2010-05-29T12:28:32Z</time>
      </trkpt>
      <trkpt lat="47.6664" lon="6.83964">
        <ele>433.5</ele>
        <time>2010-05-29T12:28:34Z</time>
      </trkpt>
      <trkpt lat="47.66634" lon="6.83961">
        <ele>434.5</ele>
        <time>2010-05-29T12:28:36Z</time>
      </trkpt>
      <trkpt lat="47.66629" lon="6.83957">
        <ele>435.5</ele>
        <time>2010-05-29T12:28:38Z</time>
      </trkpt>
      <trkpt lat="47.66625" lon="6.83954">
        <ele>436</ele>
        <time>2010-05-29T12:28:40Z</time>
      </trkpt>
      <trkpt lat="47.6662" lon="6.83951">
        <ele>436.5</ele>
        <time>2010-05-29T12:28:42Z</time>
      </trkpt>
      <trkpt lat="47.66616" lon="6.83947">
        <ele>437.5</ele>
        <time>2010-05-29T12:28:49Z</time>
      </trkpt>
      <trkpt lat="47.66619" lon="6.8394">
        <ele>437.5</ele>
        <time>2010-05-29T12:28:52Z</time>
      </trkpt>
      <trkpt lat="47.66617" lon="6.83929">
        <ele>435.5</ele>
        <time>2010-05-29T12:28:54Z</time>
      </trkpt>
      <trkpt lat="47.66616" lon="6.83918">
        <ele>433.5</ele>
        <time>2010-05-29T12:28:56Z</time>
      </trkpt>
      <trkpt lat="47.66619" lon="6.83906">
        <ele>432</ele>
        <time>2010-05-29T12:28:58Z</time>
      </trkpt>
      <trkpt lat="47.6662" lon="6.83899">
        <ele>432.5</ele>
        <time>2010-05-29T12:28:59Z</time>
      </trkpt>
      <trkpt lat="47.66621" lon="6.83892">
        <ele>433</ele>
        <time>2010-05-29T12:29:00Z</time>
      </trkpt>
      <trkpt lat="47.66623" lon="6.83886">
        <ele>432.5</ele>
        <time>2010-05-29T12:29:01Z</time>
      </trkpt>
      <trkpt lat="47.66624" lon="6.83879">
        <ele>432.5</ele>
        <time>2010-05-29T12:29:02Z</time>
      </trkpt>
      <trkpt lat="47.66626" lon="6.83873">
        <ele>432.5</ele>
        <time>2010-05-29T12:29:03Z</time>
      </trkpt>
      <trkpt lat="47.6663" lon="6.83861">
        <ele>433</ele>
        <time>2010-05-29T12:29:05Z</time>
      </trkpt>
      <trkpt lat="47.66634" lon="6.83849">
        <ele>433</ele>
        <time>2010-05-29T12:29:07Z</time>
      </trkpt>
      <trkpt lat="47.66638" lon="6.83838">
        <ele>433.5</ele>
        <time>2010-05-29T12:29:07Z</time>
      </trkpt>
      <trkpt lat="47.66642" lon="6.83827">
        <ele>432.5</ele>
        <time>2010-05-29T12:29:10Z</time>
      </trkpt>
      <trkpt lat="47.66645" lon="6.83819">
        <ele>432.5</ele>
        <time>2010-05-29T12:29:12Z</time>
      </trkpt>
      <trkpt lat="47.66649" lon="6.83807">
        <ele>432.5</ele>
        <time>2010-05-29T12:29:14Z</time>
      </trkpt>
      <trkpt lat="47.6665" lon="6.838">
        <ele>433</ele>
        <time>2010-05-29T12:29:15Z</time>
      </trkpt>
      <trkpt lat="47.66654" lon="6.83789">
        <ele>433</ele>
        <time>2010-05-29T12:29:17Z</time>
      </trkpt>
      <trkpt lat="47.66656" lon="6.83783">
        <ele>433</ele>
        <time>2010-05-29T12:29:18Z</time>
      </trkpt>
      <trkpt lat="47.66659" lon="6.83777">
        <ele>433</ele>
        <time>2010-05-29T12:29:19Z</time>
      </trkpt>
      <trkpt lat="47.66663" lon="6.83772">
        <ele>433</ele>
        <time>2010-05-29T12:29:20Z</time>
      </trkpt>
      <trkpt lat="47.66669" lon="6.83764">
        <ele>433.5</ele>
        <time>2010-05-29T12:29:22Z</time>
      </trkpt>
      <trkpt lat="47.66675" lon="6.83755">
        <ele>434</ele>
        <time>2010-05-29T12:29:24Z</time>
      </trkpt>
      <trkpt lat="47.66678" lon="6.83749">
        <ele>434</ele>
        <time>2010-05-29T12:29:25Z</time>
      </trkpt>
      <trkpt lat="47.66682" lon="6.83745">
        <ele>433.5</ele>
        <time>2010-05-29T12:29:26Z</time>
      </trkpt>
      <trkpt lat="47.66686" lon="6.8374">
        <ele>433.5</ele>
        <time>2010-05-29T12:29:27Z</time>
      </trkpt>
      <trkpt lat="47.66689" lon="6.83735">
        <ele>433</ele>
        <time>2010-05-29T12:29:28Z</time>
      </trkpt>
      <trkpt lat="47.66693" lon="6.8373">
        <ele>432.5</ele>
        <time>2010-05-29T12:29:29Z</time>
      </trkpt>
      <trkpt lat="47.66696" lon="6.83724">
        <ele>432</ele>
        <time>2010-05-29T12:29:30Z</time>
      </trkpt>
      <trkpt lat="47.66699" lon="6.83719">
        <ele>431.5</ele>
        <time>2010-05-29T12:29:31Z</time>
      </trkpt>
      <trkpt lat="47.66703" lon="6.83715">
        <ele>431.5</ele>
        <time>2010-05-29T12:29:32Z</time>
      </trkpt>
      <trkpt lat="47.66706" lon="6.8371">
        <ele>431.5</ele>
        <time>2010-05-29T12:29:33Z</time>
      </trkpt>
      <trkpt lat="47.66709" lon="6.83705">
        <ele>431.5</ele>
        <time>2010-05-29T12:29:34Z</time>
      </trkpt>
      <trkpt lat="47.66713" lon="6.837">
        <ele>431.5</ele>
        <time>2010-05-29T12:29:35Z</time>
      </trkpt>
      <trkpt lat="47.66716" lon="6.83695">
        <ele>432</ele>
        <time>2010-05-29T12:29:36Z</time>
      </trkpt>
      <trkpt lat="47.66719" lon="6.83691">
        <ele>433</ele>
        <time>2010-05-29T12:29:37Z</time>
      </trkpt>
      <trkpt lat="47.66723" lon="6.83686">
        <ele>433</ele>
        <time>2010-05-29T12:29:38Z</time>
      </trkpt>
      <trkpt lat="47.66727" lon="6.83682">
        <ele>433.5</ele>
        <time>2010-05-29T12:29:39Z</time>
      </trkpt>
      <trkpt lat="47.66731" lon="6.83677">
        <ele>433.5</ele>
        <time>2010-05-29T12:29:40Z</time>
      </trkpt>
      <trkpt lat="47.66735" lon="6.83674">
        <ele>434</ele>
        <time>2010-05-29T12:29:41Z</time>
      </trkpt>
      <trkpt lat="47.6674" lon="6.83671">
        <ele>434.5</ele>
        <time>2010-05-29T12:29:42Z</time>
      </trkpt>
      <trkpt lat="47.66744" lon="6.83667">
        <ele>434.5</ele>
        <time>2010-05-29T12:29:43Z</time>
      </trkpt>
      <trkpt lat="47.66748" lon="6.83664">
        <ele>434.5</ele>
        <time>2010-05-29T12:29:44Z</time>
      </trkpt>
      <trkpt lat="47.66752" lon="6.8366">
        <ele>434.5</ele>
        <time>2010-05-29T12:29:45Z</time>
      </trkpt>
      <trkpt lat="47.66756" lon="6.83656">
        <ele>435</ele>
        <time>2010-05-29T12:29:46Z</time>
      </trkpt>
      <trkpt lat="47.6676" lon="6.83652">
        <ele>435</ele>
        <time>2010-05-29T12:29:47Z</time>
      </trkpt>
      <trkpt lat="47.66763" lon="6.83647">
        <ele>435</ele>
        <time>2010-05-29T12:29:48Z</time>
      </trkpt>
      <trkpt lat="47.66766" lon="6.83642">
        <ele>435</ele>
        <time>2010-05-29T12:29:49Z</time>
      </trkpt>
      <trkpt lat="47.6677" lon="6.83636">
        <ele>434.5</ele>
        <time>2010-05-29T12:29:50Z</time>
      </trkpt>
      <trkpt lat="47.66773" lon="6.83631">
        <ele>434.5</ele>
        <time>2010-05-29T12:29:51Z</time>
      </trkpt>
      <trkpt lat="47.66776" lon="6.83625">
        <ele>434</ele>
        <time>2010-05-29T12:29:52Z</time>
      </trkpt>
      <trkpt lat="47.66779" lon="6.83619">
        <ele>433.5</ele>
        <time>2010-05-29T12:29:53Z</time>
      </trkpt>
      <trkpt lat="47.66782" lon="6.83614">
        <ele>433.5</ele>
        <time>2010-05-29T12:29:54Z</time>
      </trkpt>
      <trkpt lat="47.66785" lon="6.83608">
        <ele>433</ele>
        <time>2010-05-29T12:29:55Z</time>
      </trkpt>
      <trkpt lat="47.66788" lon="6.83603">
        <ele>433</ele>
        <time>2010-05-29T12:29:56Z</time>
      </trkpt>
      <trkpt lat="47.66792" lon="6.83597">
        <ele>433</ele>
        <time>2010-05-29T12:29:57Z</time>
      </trkpt>
      <trkpt lat="47.66795" lon="6.83592">
        <ele>432.5</ele>
        <time>2010-05-29T12:29:58Z</time>
      </trkpt>
      <trkpt lat="47.66798" lon="6.83587">
        <ele>432</ele>
        <time>2010-05-29T12:29:59Z</time>
      </trkpt>
      <trkpt lat="47.66802" lon="6.83581">
        <ele>432</ele>
        <time>2010-05-29T12:30:00Z</time>
      </trkpt>
      <trkpt lat="47.66805" lon="6.83576">
        <ele>432</ele>
        <time>2010-05-29T12:30:01Z</time>
      </trkpt>
      <trkpt lat="47.66809" lon="6.83571">
        <ele>432</ele>
        <time>2010-05-29T12:30:02Z</time>
      </trkpt>
      <trkpt lat="47.66812" lon="6.83566">
        <ele>431.5</ele>
        <time>2010-05-29T12:30:03Z</time>
      </trkpt>
      <trkpt lat="47.66816" lon="6.83561">
        <ele>432</ele>
        <time>2010-05-29T12:30:04Z</time>
      </trkpt>
      <trkpt lat="47.66819" lon="6.83555">
        <ele>432</ele>
        <time>2010-05-29T12:30:05Z</time>
      </trkpt>
      <trkpt lat="47.66822" lon="6.8355">
        <ele>432</ele>
        <time>2010-05-29T12:30:06Z</time>
      </trkpt>
      <trkpt lat="47.66826" lon="6.83544">
        <ele>432</ele>
        <time>2010-05-29T12:30:07Z</time>
      </trkpt>
      <trkpt lat="47.66831" lon="6.83536">
        <ele>432</ele>
        <time>2010-05-29T12:30:06Z</time>
      </trkpt>
      <trkpt lat="47.66836" lon="6.83526">
        <ele>432.5</ele>
        <time>2010-05-29T12:30:10Z</time>
      </trkpt>
      <trkpt lat="47.66841" lon="6.83519">
        <ele>433.5</ele>
        <time>2010-05-29T12:30:12Z</time>
      </trkpt>
      <trkpt lat="47.66848" lon="6.83512">
        <ele>436</ele>
        <time>2010-05-29T12:30:14Z</time>
      </trkpt>
      <trkpt lat="47.66855" lon="6.83507">
        <ele>438</ele>
        <time>2010-05-29T12:30:16Z</time>
      </trkpt>
      <trkpt lat="47.66862" lon="6.83502">
        <ele>438</ele>
        <time>2010-05-29T12:30:18Z</time>
      </trkpt>
      <trkpt lat="47.66864" lon="6.83493">
        <ele>438.5</ele>
        <time>2010-05-29T12:30:20Z</time>
      </trkpt>
      <trkpt lat="47.66862" lon="6.83485">
        <ele>439.5</ele>
        <time>2010-05-29T12:30:22Z</time>
      </trkpt>
      <trkpt lat="47.66859" lon="6.83478">
        <ele>440</ele>
        <time>2010-05-29T12:30:24Z</time>
      </trkpt>
      <trkpt lat="47.66854" lon="6.83473">
        <ele>441.5</ele>
        <time>2010-05-29T12:30:27Z</time>
      </trkpt>
      <trkpt lat="47.66848" lon="6.83475">
        <ele>441.5</ele>
        <time>2010-05-29T12:30:28Z</time>
      </trkpt>
      <trkpt lat="47.66844" lon="6.83477">
        <ele>441.5</ele>
        <time>2010-05-29T12:30:29Z</time>
      </trkpt>
      <trkpt lat="47.66837" lon="6.83482">
        <ele>442</ele>
        <time>2010-05-29T12:30:31Z</time>
      </trkpt>
      <trkpt lat="47.6683" lon="6.83485">
        <ele>443</ele>
        <time>2010-05-29T12:30:33Z</time>
      </trkpt>
      <trkpt lat="47.66825" lon="6.83487">
        <ele>444</ele>
        <time>2010-05-29T12:30:34Z</time>
      </trkpt>
      <trkpt lat="47.6682" lon="6.83487">
        <ele>444.5</ele>
        <time>2010-05-29T12:30:35Z</time>
      </trkpt>
      <trkpt lat="47.66812" lon="6.83486">
        <ele>446</ele>
        <time>2010-05-29T12:30:37Z</time>
      </trkpt>
      <trkpt lat="47.66801" lon="6.83484">
        <ele>446</ele>
        <time>2010-05-29T12:30:39Z</time>
      </trkpt>
      <trkpt lat="47.66796" lon="6.83481">
        <ele>446.5</ele>
        <time>2010-05-29T12:30:40Z</time>
      </trkpt>
      <trkpt lat="47.6679" lon="6.83479">
        <ele>446.5</ele>
        <time>2010-05-29T12:30:41Z</time>
      </trkpt>
      <trkpt lat="47.66785" lon="6.83476">
        <ele>446.5</ele>
        <time>2010-05-29T12:30:42Z</time>
      </trkpt>
      <trkpt lat="47.66779" lon="6.83474">
        <ele>446.5</ele>
        <time>2010-05-29T12:30:43Z</time>
      </trkpt>
      <trkpt lat="47.66774" lon="6.83472">
        <ele>446.5</ele>
        <time>2010-05-29T12:30:44Z</time>
      </trkpt>
      <trkpt lat="47.66769" lon="6.83471">
        <ele>446.5</ele>
        <time>2010-05-29T12:30:45Z</time>
      </trkpt>
      <trkpt lat="47.66761" lon="6.83469">
        <ele>447.5</ele>
        <time>2010-05-29T12:30:47Z</time>
      </trkpt>
      <trkpt lat="47.66754" lon="6.83474">
        <ele>448.5</ele>
        <time>2010-05-29T12:30:49Z</time>
      </trkpt>
      <trkpt lat="47.6675" lon="6.83477">
        <ele>449</ele>
        <time>2010-05-29T12:30:50Z</time>
      </trkpt>
      <trkpt lat="47.66745" lon="6.8348">
        <ele>449</ele>
        <time>2010-05-29T12:30:51Z</time>
      </trkpt>
      <trkpt lat="47.6674" lon="6.83484">
        <ele>449.5</ele>
        <time>2010-05-29T12:30:53Z</time>
      </trkpt>
      <trkpt lat="47.66735" lon="6.83486">
        <ele>451</ele>
        <time>2010-05-29T12:30:55Z</time>
      </trkpt>
      <trkpt lat="47.66728" lon="6.83487">
        <ele>452</ele>
        <time>2010-05-29T12:30:57Z</time>
      </trkpt>
      <trkpt lat="47.66723" lon="6.83486">
        <ele>452</ele>
        <time>2010-05-29T12:30:58Z</time>
      </trkpt>
      <trkpt lat="47.66717" lon="6.83486">
        <ele>452</ele>
        <time>2010-05-29T12:30:59Z</time>
      </trkpt>
      <trkpt lat="47.66712" lon="6.83485">
        <ele>452.5</ele>
        <time>2010-05-29T12:31:00Z</time>
      </trkpt>
      <trkpt lat="47.66703" lon="6.83484">
        <ele>451</ele>
        <time>2010-05-29T12:31:01Z</time>
      </trkpt>
      <trkpt lat="47.66696" lon="6.83483">
        <ele>450.5</ele>
        <time>2010-05-29T12:31:02Z</time>
      </trkpt>
      <trkpt lat="47.6669" lon="6.83481">
        <ele>450</ele>
        <time>2010-05-29T12:31:03Z</time>
      </trkpt>
      <trkpt lat="47.66684" lon="6.8348">
        <ele>450</ele>
        <time>2010-05-29T12:31:04Z</time>
      </trkpt>
      <trkpt lat="47.66679" lon="6.8348">
        <ele>450</ele>
        <time>2010-05-29T12:31:05Z</time>
      </trkpt>
      <trkpt lat="47.66674" lon="6.83481">
        <ele>450</ele>
        <time>2010-05-29T12:31:06Z</time>
      </trkpt>
      <trkpt lat="47.66669" lon="6.83485">
        <ele>450.5</ele>
        <time>2010-05-29T12:31:07Z</time>
      </trkpt>
      <trkpt lat="47.66661" lon="6.83492">
        <ele>451</ele>
        <time>2010-05-29T12:31:07Z</time>
      </trkpt>
      <trkpt lat="47.66654" lon="6.83494">
        <ele>450.5</ele>
        <time>2010-05-29T12:31:10Z</time>
      </trkpt>
      <trkpt lat="47.66648" lon="6.83497">
        <ele>450.5</ele>
        <time>2010-05-29T12:31:12Z</time>
      </trkpt>
      <trkpt lat="47.66639" lon="6.83497">
        <ele>450.5</ele>
        <time>2010-05-29T12:31:13Z</time>
      </trkpt>
      <trkpt lat="47.6663" lon="6.83499">
        <ele>450.5</ele>
        <time>2010-05-29T12:31:14Z</time>
      </trkpt>
      <trkpt lat="47.66622" lon="6.83498">
        <ele>450</ele>
        <time>2010-05-29T12:31:15Z</time>
      </trkpt>
      <trkpt lat="47.66613" lon="6.83497">
        <ele>450</ele>
        <time>2010-05-29T12:31:16Z</time>
      </trkpt>
      <trkpt lat="47.66606" lon="6.83495">
        <ele>449.5</ele>
        <time>2010-05-29T12:31:17Z</time>
      </trkpt>
      <trkpt lat="47.66599" lon="6.83492">
        <ele>449.5</ele>
        <time>2010-05-29T12:31:18Z</time>
      </trkpt>
      <trkpt lat="47.66594" lon="6.8349">
        <ele>449.5</ele>
        <time>2010-05-29T12:31:19Z</time>
      </trkpt>
      <trkpt lat="47.66588" lon="6.83488">
        <ele>449.5</ele>
        <time>2010-05-29T12:31:20Z</time>
      </trkpt>
      <trkpt lat="47.66579" lon="6.83484">
        <ele>449.5</ele>
        <time>2010-05-29T12:31:22Z</time>
      </trkpt>
      <trkpt lat="47.66575" lon="6.83482">
        <ele>449.5</ele>
        <time>2010-05-29T12:31:23Z</time>
      </trkpt>
      <trkpt lat="47.66566" lon="6.83479">
        <ele>450</ele>
        <time>2010-05-29T12:31:25Z</time>
      </trkpt>
      <trkpt lat="47.6656" lon="6.83478">
        <ele>450</ele>
        <time>2010-05-29T12:31:26Z</time>
      </trkpt>
      <trkpt lat="47.66555" lon="6.83477">
        <ele>450.5</ele>
        <time>2010-05-29T12:31:27Z</time>
      </trkpt>
      <trkpt lat="47.66549" lon="6.83475">
        <ele>450.5</ele>
        <time>2010-05-29T12:31:28Z</time>
      </trkpt>
      <trkpt lat="47.6654" lon="6.83471">
        <ele>451</ele>
        <time>2010-05-29T12:31:30Z</time>
      </trkpt>
      <trkpt lat="47.66534" lon="6.83469">
        <ele>451</ele>
        <time>2010-05-29T12:31:31Z</time>
      </trkpt>
      <trkpt lat="47.66529" lon="6.83466">
        <ele>452</ele>
        <time>2010-05-29T12:31:33Z</time>
      </trkpt>
      <trkpt lat="47.66521" lon="6.83463">
        <ele>452</ele>
        <time>2010-05-29T12:31:35Z</time>
      </trkpt>
      <trkpt lat="47.66511" lon="6.83464">
        <ele>453</ele>
        <time>2010-05-29T12:31:37Z</time>
      </trkpt>
      <trkpt lat="47.66502" lon="6.83466">
        <ele>452.5</ele>
        <time>2010-05-29T12:31:38Z</time>
      </trkpt>
      <trkpt lat="47.66496" lon="6.8347">
        <ele>452.5</ele>
        <time>2010-05-29T12:31:39Z</time>
      </trkpt>
      <trkpt lat="47.66489" lon="6.83474">
        <ele>452.5</ele>
        <time>2010-05-29T12:31:40Z</time>
      </trkpt>
      <trkpt lat="47.66484" lon="6.83479">
        <ele>453</ele>
        <time>2010-05-29T12:31:41Z</time>
      </trkpt>
      <trkpt lat="47.6648" lon="6.83484">
        <ele>453</ele>
        <time>2010-05-29T12:31:42Z</time>
      </trkpt>
      <trkpt lat="47.66474" lon="6.83489">
        <ele>453</ele>
        <time>2010-05-29T12:31:43Z</time>
      </trkpt>
      <trkpt lat="47.66469" lon="6.83494">
        <ele>453.5</ele>
        <time>2010-05-29T12:31:44Z</time>
      </trkpt>
      <trkpt lat="47.66465" lon="6.83497">
        <ele>454</ele>
        <time>2010-05-29T12:31:45Z</time>
      </trkpt>
      <trkpt lat="47.66461" lon="6.83499">
        <ele>454</ele>
        <time>2010-05-29T12:31:46Z</time>
      </trkpt>
      <trkpt lat="47.66455" lon="6.83501">
        <ele>454</ele>
        <time>2010-05-29T12:31:47Z</time>
      </trkpt>
      <trkpt lat="47.6645" lon="6.83502">
        <ele>455</ele>
        <time>2010-05-29T12:31:48Z</time>
      </trkpt>
      <trkpt lat="47.66445" lon="6.83503">
        <ele>455</ele>
        <time>2010-05-29T12:31:49Z</time>
      </trkpt>
      <trkpt lat="47.6644" lon="6.83504">
        <ele>455</ele>
        <time>2010-05-29T12:31:50Z</time>
      </trkpt>
      <trkpt lat="47.66431" lon="6.83506">
        <ele>455.5</ele>
        <time>2010-05-29T12:31:52Z</time>
      </trkpt>
      <trkpt lat="47.66427" lon="6.83506">
        <ele>455.5</ele>
        <time>2010-05-29T12:31:53Z</time>
      </trkpt>
      <trkpt lat="47.66421" lon="6.83508">
        <ele>455.5</ele>
        <time>2010-05-29T12:31:54Z</time>
      </trkpt>
      <trkpt lat="47.66413" lon="6.8351">
        <ele>456</ele>
        <time>2010-05-29T12:31:55Z</time>
      </trkpt>
      <trkpt lat="47.66407" lon="6.83512">
        <ele>456</ele>
        <time>2010-05-29T12:31:56Z</time>
      </trkpt>
      <trkpt lat="47.664" lon="6.83515">
        <ele>456</ele>
        <time>2010-05-29T12:31:57Z</time>
      </trkpt>
      <trkpt lat="47.66393" lon="6.83518">
        <ele>456</ele>
        <time>2010-05-29T12:31:58Z</time>
      </trkpt>
      <trkpt lat="47.66388" lon="6.8352">
        <ele>456.5</ele>
        <time>2010-05-29T12:31:59Z</time>
      </trkpt>
      <trkpt lat="47.66383" lon="6.83523">
        <ele>457</ele>
        <time>2010-05-29T12:32:00Z</time>
      </trkpt>
      <trkpt lat="47.66379" lon="6.83526">
        <ele>457</ele>
        <time>2010-05-29T12:32:01Z</time>
      </trkpt>
      <trkpt lat="47.66373" lon="6.8353">
        <ele>457</ele>
        <time>2010-05-29T12:32:02Z</time>
      </trkpt>
      <trkpt lat="47.66368" lon="6.83534">
        <ele>457</ele>
        <time>2010-05-29T12:32:03Z</time>
      </trkpt>
      <trkpt lat="47.66362" lon="6.83539">
        <ele>456.5</ele>
        <time>2010-05-29T12:32:04Z</time>
      </trkpt>
      <trkpt lat="47.66357" lon="6.83544">
        <ele>456</ele>
        <time>2010-05-29T12:32:05Z</time>
      </trkpt>
      <trkpt lat="47.66352" lon="6.83549">
        <ele>456</ele>
        <time>2010-05-29T12:32:06Z</time>
      </trkpt>
      <trkpt lat="47.66345" lon="6.83553">
        <ele>454.5</ele>
        <time>2010-05-29T12:32:07Z</time>
      </trkpt>
      <trkpt lat="47.66337" lon="6.83559">
        <ele>454.5</ele>
        <time>2010-05-29T12:32:07Z</time>
      </trkpt>
      <trkpt lat="47.66333" lon="6.83562">
        <ele>454.5</ele>
        <time>2010-05-29T12:32:09Z</time>
      </trkpt>
      <trkpt lat="47.66328" lon="6.83564">
        <ele>455</ele>
        <time>2010-05-29T12:32:10Z</time>
      </trkpt>
      <trkpt lat="47.66319" lon="6.83559">
        <ele>455</ele>
        <time>2010-05-29T12:32:13Z</time>
      </trkpt>
      <trkpt lat="47.66312" lon="6.8356">
        <ele>454.5</ele>
        <time>2010-05-29T12:32:14Z</time>
      </trkpt>
      <trkpt lat="47.66307" lon="6.8356">
        <ele>454</ele>
        <time>2010-05-29T12:32:17Z</time>
      </trkpt>
      <trkpt lat="47.66298" lon="6.8356">
        <ele>452</ele>
        <time>2010-05-29T12:32:19Z</time>
      </trkpt>
      <trkpt lat="47.66291" lon="6.83558">
        <ele>450</ele>
        <time>2010-05-29T12:32:22Z</time>
      </trkpt>
      <trkpt lat="47.66282" lon="6.8356">
        <ele>448</ele>
        <time>2010-05-29T12:32:25Z</time>
      </trkpt>
      <trkpt lat="47.66275" lon="6.83558">
        <ele>445.5</ele>
        <time>2010-05-29T12:32:29Z</time>
      </trkpt>
      <trkpt lat="47.66268" lon="6.8356">
        <ele>445</ele>
        <time>2010-05-29T12:32:31Z</time>
      </trkpt>
      <trkpt lat="47.66262" lon="6.83563">
        <ele>444.5</ele>
        <time>2010-05-29T12:32:33Z</time>
      </trkpt>
      <trkpt lat="47.66256" lon="6.83566">
        <ele>445</ele>
        <time>2010-05-29T12:32:36Z</time>
      </trkpt>
      <trkpt lat="47.66251" lon="6.8357">
        <ele>445.5</ele>
        <time>2010-05-29T12:32:38Z</time>
      </trkpt>
      <trkpt lat="47.66245" lon="6.83571">
        <ele>445</ele>
        <time>2010-05-29T12:32:39Z</time>
      </trkpt>
      <trkpt lat="47.66239" lon="6.83574">
        <ele>446</ele>
        <time>2010-05-29T12:32:41Z</time>
      </trkpt>
      <trkpt lat="47.66233" lon="6.83575">
        <ele>446.5</ele>
        <time>2010-05-29T12:32:43Z</time>
      </trkpt>
      <trkpt lat="47.66227" lon="6.83576">
        <ele>447.5</ele>
        <time>2010-05-29T12:32:45Z</time>
      </trkpt>
      <trkpt lat="47.66218" lon="6.83577">
        <ele>446</ele>
        <time>2010-05-29T12:32:47Z</time>
      </trkpt>
      <trkpt lat="47.66211" lon="6.83578">
        <ele>446</ele>
        <time>2010-05-29T12:32:49Z</time>
      </trkpt>
      <trkpt lat="47.66202" lon="6.83579">
        <ele>445.5</ele>
        <time>2010-05-29T12:32:51Z</time>
      </trkpt>
      <trkpt lat="47.66195" lon="6.83579">
        <ele>447</ele>
        <time>2010-05-29T12:32:53Z</time>
      </trkpt>
      <trkpt lat="47.6619" lon="6.83579">
        <ele>446.5</ele>
        <time>2010-05-29T12:32:54Z</time>
      </trkpt>
      <trkpt lat="47.66184" lon="6.83576">
        <ele>447.5</ele>
        <time>2010-05-29T12:32:56Z</time>
      </trkpt>
      <trkpt lat="47.66177" lon="6.83571">
        <ele>447.5</ele>
        <time>2010-05-29T12:32:58Z</time>
      </trkpt>
      <trkpt lat="47.66167" lon="6.83566">
        <ele>446</ele>
        <time>2010-05-29T12:33:00Z</time>
      </trkpt>
      <trkpt lat="47.66161" lon="6.83563">
        <ele>445.5</ele>
        <time>2010-05-29T12:33:02Z</time>
      </trkpt>
      <trkpt lat="47.66152" lon="6.83559">
        <ele>443.5</ele>
        <time>2010-05-29T12:33:04Z</time>
      </trkpt>
      <trkpt lat="47.66146" lon="6.83561">
        <ele>443</ele>
        <time>2010-05-29T12:33:05Z</time>
      </trkpt>
      <trkpt lat="47.66138" lon="6.83562">
        <ele>441.5</ele>
        <time>2010-05-29T12:33:06Z</time>
      </trkpt>
      <trkpt lat="47.66132" lon="6.83564">
        <ele>440.5</ele>
        <time>2010-05-29T12:33:07Z</time>
      </trkpt>
      <trkpt lat="47.66123" lon="6.8357">
        <ele>440</ele>
        <time>2010-05-29T12:33:07Z</time>
      </trkpt>
      <trkpt lat="47.66117" lon="6.83572">
        <ele>439</ele>
        <time>2010-05-29T12:33:09Z</time>
      </trkpt>
      <trkpt lat="47.6611" lon="6.83576">
        <ele>439.5</ele>
        <time>2010-05-29T12:33:10Z</time>
      </trkpt>
      <trkpt lat="47.66102" lon="6.83581">
        <ele>440</ele>
        <time>2010-05-29T12:33:12Z</time>
      </trkpt>
      <trkpt lat="47.66097" lon="6.83586">
        <ele>440</ele>
        <time>2010-05-29T12:33:13Z</time>
      </trkpt>
      <trkpt lat="47.66092" lon="6.83589">
        <ele>440.5</ele>
        <time>2010-05-29T12:33:14Z</time>
      </trkpt>
      <trkpt lat="47.66088" lon="6.83592">
        <ele>440.5</ele>
        <time>2010-05-29T12:33:15Z</time>
      </trkpt>
      <trkpt lat="47.66083" lon="6.83594">
        <ele>441</ele>
        <time>2010-05-29T12:33:16Z</time>
      </trkpt>
      <trkpt lat="47.66077" lon="6.83593">
        <ele>441.5</ele>
        <time>2010-05-29T12:33:18Z</time>
      </trkpt>
      <trkpt lat="47.66071" lon="6.83592">
        <ele>441.5</ele>
        <time>2010-05-29T12:33:20Z</time>
      </trkpt>
      <trkpt lat="47.66063" lon="6.83593">
        <ele>442</ele>
        <time>2010-05-29T12:33:22Z</time>
      </trkpt>
      <trkpt lat="47.66055" lon="6.83593">
        <ele>442.5</ele>
        <time>2010-05-29T12:33:24Z</time>
      </trkpt>
      <trkpt lat="47.66048" lon="6.83593">
        <ele>442.5</ele>
        <time>2010-05-29T12:33:26Z</time>
      </trkpt>
      <trkpt lat="47.6604" lon="6.83592">
        <ele>442</ele>
        <time>2010-05-29T12:33:28Z</time>
      </trkpt>
      <trkpt lat="47.6603" lon="6.83589">
        <ele>442.5</ele>
        <time>2010-05-29T12:33:30Z</time>
      </trkpt>
      <trkpt lat="47.66024" lon="6.83586">
        <ele>442</ele>
        <time>2010-05-29T12:33:31Z</time>
      </trkpt>
      <trkpt lat="47.6602" lon="6.83584">
        <ele>442</ele>
        <time>2010-05-29T12:33:32Z</time>
      </trkpt>
      <trkpt lat="47.66013" lon="6.83583">
        <ele>443</ele>
        <time>2010-05-29T12:33:34Z</time>
      </trkpt>
      <trkpt lat="47.66004" lon="6.83582">
        <ele>442.5</ele>
        <time>2010-05-29T12:33:36Z</time>
      </trkpt>
      <trkpt lat="47.65996" lon="6.83583">
        <ele>443.5</ele>
        <time>2010-05-29T12:33:38Z</time>
      </trkpt>
      <trkpt lat="47.6599" lon="6.83586">
        <ele>445</ele>
        <time>2010-05-29T12:33:40Z</time>
      </trkpt>
      <trkpt lat="47.65983" lon="6.83587">
        <ele>445.5</ele>
        <time>2010-05-29T12:33:42Z</time>
      </trkpt>
      <trkpt lat="47.65975" lon="6.83586">
        <ele>444.5</ele>
        <time>2010-05-29T12:33:44Z</time>
      </trkpt>
      <trkpt lat="47.65964" lon="6.83583">
        <ele>441</ele>
        <time>2010-05-29T12:33:45Z</time>
      </trkpt>
      <trkpt lat="47.65957" lon="6.83581">
        <ele>439</ele>
        <time>2010-05-29T12:33:46Z</time>
      </trkpt>
      <trkpt lat="47.65953" lon="6.83575">
        <ele>438.5</ele>
        <time>2010-05-29T12:33:48Z</time>
      </trkpt>
      <trkpt lat="47.65954" lon="6.83565">
        <ele>439</ele>
        <time>2010-05-29T12:33:51Z</time>
      </trkpt>
      <trkpt lat="47.65956" lon="6.83558">
        <ele>439.5</ele>
        <time>2010-05-29T12:33:53Z</time>
      </trkpt>
      <trkpt lat="47.65959" lon="6.83551">
        <ele>441</ele>
        <time>2010-05-29T12:33:56Z</time>
      </trkpt>
      <trkpt lat="47.65959" lon="6.83543">
        <ele>442</ele>
        <time>2010-05-29T12:33:59Z</time>
      </trkpt>
      <trkpt lat="47.65959" lon="6.83537">
        <ele>445</ele>
        <time>2010-05-29T12:34:06Z</time>
      </trkpt>
      <trkpt lat="47.6596" lon="6.83529">
        <ele>447</ele>
        <time>2010-05-29T12:34:14Z</time>
      </trkpt>
      <trkpt lat="47.65962" lon="6.83522">
        <ele>450</ele>
        <time>2010-05-29T12:34:22Z</time>
      </trkpt>
      <trkpt lat="47.65963" lon="6.83514">
        <ele>452</ele>
        <time>2010-05-29T12:34:28Z</time>
      </trkpt>
      <trkpt lat="47.65962" lon="6.83507">
        <ele>453.5</ele>
        <time>2010-05-29T12:34:34Z</time>
      </trkpt>
      <trkpt lat="47.65961" lon="6.835">
        <ele>455.5</ele>
        <time>2010-05-29T12:34:40Z</time>
      </trkpt>
      <trkpt lat="47.65958" lon="6.83494">
        <ele>459</ele>
        <time>2010-05-29T12:34:47Z</time>
      </trkpt>
      <trkpt lat="47.65955" lon="6.83488">
        <ele>460.5</ele>
        <time>2010-05-29T12:34:53Z</time>
      </trkpt>
      <trkpt lat="47.65954" lon="6.8348">
        <ele>460</ele>
        <time>2010-05-29T12:35:00Z</time>
      </trkpt>
      <trkpt lat="47.65955" lon="6.83478">
        <ele>455.5</ele>
        <time>2010-05-29T12:35:05Z</time>
      </trkpt>
      <trkpt lat="47.65957" lon="6.83474">
        <ele>455</ele>
        <time>2010-05-29T12:35:12Z</time>
      </trkpt>
      <trkpt lat="47.65957" lon="6.83471">
        <ele>455</ele>
        <time>2010-05-29T12:35:13Z</time>
      </trkpt>
      <trkpt lat="47.65954" lon="6.83466">
        <ele>456.5</ele>
        <time>2010-05-29T12:35:16Z</time>
      </trkpt>
      <trkpt lat="47.65953" lon="6.83459">
        <ele>458</ele>
        <time>2010-05-29T12:35:21Z</time>
      </trkpt>
      <trkpt lat="47.6595" lon="6.83453">
        <ele>459.5</ele>
        <time>2010-05-29T12:35:25Z</time>
      </trkpt>
      <trkpt lat="47.65946" lon="6.83448">
        <ele>461</ele>
        <time>2010-05-29T12:35:29Z</time>
      </trkpt>
      <trkpt lat="47.65942" lon="6.83445">
        <ele>461.5</ele>
        <time>2010-05-29T12:35:32Z</time>
      </trkpt>
      <trkpt lat="47.65936" lon="6.83442">
        <ele>461</ele>
        <time>2010-05-29T12:35:35Z</time>
      </trkpt>
      <trkpt lat="47.65932" lon="6.83439">
        <ele>461</ele>
        <time>2010-05-29T12:35:37Z</time>
      </trkpt>
      <trkpt lat="47.65927" lon="6.83435">
        <ele>463</ele>
        <time>2010-05-29T12:35:40Z</time>
      </trkpt>
      <trkpt lat="47.65922" lon="6.83431">
        <ele>465</ele>
        <time>2010-05-29T12:35:43Z</time>
      </trkpt>
      <trkpt lat="47.65918" lon="6.83427">
        <ele>466</ele>
        <time>2010-05-29T12:35:46Z</time>
      </trkpt>
      <trkpt lat="47.65913" lon="6.83424">
        <ele>467</ele>
        <time>2010-05-29T12:35:49Z</time>
      </trkpt>
      <trkpt lat="47.65909" lon="6.83418">
        <ele>468</ele>
        <time>2010-05-29T12:35:53Z</time>
      </trkpt>
      <trkpt lat="47.65905" lon="6.83413">
        <ele>470.5</ele>
        <time>2010-05-29T12:35:57Z</time>
      </trkpt>
      <trkpt lat="47.65901" lon="6.83409">
        <ele>470.5</ele>
        <time>2010-05-29T12:36:02Z</time>
      </trkpt>
      <trkpt lat="47.65895" lon="6.83407">
        <ele>471</ele>
        <time>2010-05-29T12:36:05Z</time>
      </trkpt>
      <trkpt lat="47.65889" lon="6.83404">
        <ele>471.5</ele>
        <time>2010-05-29T12:36:07Z</time>
      </trkpt>
      <trkpt lat="47.65881" lon="6.83403">
        <ele>472.5</ele>
        <time>2010-05-29T12:36:10Z</time>
      </trkpt>
      <trkpt lat="47.65876" lon="6.83397">
        <ele>472.5</ele>
        <time>2010-05-29T12:36:14Z</time>
      </trkpt>
      <trkpt lat="47.65864" lon="6.83396">
        <ele>473.5</ele>
        <time>2010-05-29T12:36:15Z</time>
      </trkpt>
      <trkpt lat="47.65854" lon="6.83395">
        <ele>473</ele>
        <time>2010-05-29T12:36:16Z</time>
      </trkpt>
      <trkpt lat="47.65848" lon="6.83394">
        <ele>473.5</ele>
        <time>2010-05-29T12:36:17Z</time>
      </trkpt>
      <trkpt lat="47.65841" lon="6.83393">
        <ele>474.5</ele>
        <time>2010-05-29T12:36:18Z</time>
      </trkpt>
      <trkpt lat="47.65834" lon="6.83392">
        <ele>474.5</ele>
        <time>2010-05-29T12:36:19Z</time>
      </trkpt>
      <trkpt lat="47.65827" lon="6.83391">
        <ele>475</ele>
        <time>2010-05-29T12:36:20Z</time>
      </trkpt>
      <trkpt lat="47.6582" lon="6.83389">
        <ele>475.5</ele>
        <time>2010-05-29T12:36:21Z</time>
      </trkpt>
      <trkpt lat="47.65815" lon="6.83387">
        <ele>476</ele>
        <time>2010-05-29T12:36:22Z</time>
      </trkpt>
      <trkpt lat="47.6581" lon="6.83384">
        <ele>476</ele>
        <time>2010-05-29T12:36:23Z</time>
      </trkpt>
      <trkpt lat="47.65805" lon="6.83381">
        <ele>477</ele>
        <time>2010-05-29T12:36:24Z</time>
      </trkpt>
      <trkpt lat="47.65799" lon="6.83377">
        <ele>477</ele>
        <time>2010-05-29T12:36:25Z</time>
      </trkpt>
      <trkpt lat="47.65791" lon="6.83373">
        <ele>477</ele>
        <time>2010-05-29T12:36:26Z</time>
      </trkpt>
      <trkpt lat="47.65783" lon="6.83365">
        <ele>477</ele>
        <time>2010-05-29T12:36:28Z</time>
      </trkpt>
      <trkpt lat="47.65773" lon="6.8336">
        <ele>476</ele>
        <time>2010-05-29T12:36:29Z</time>
      </trkpt>
      <trkpt lat="47.65765" lon="6.83356">
        <ele>475.5</ele>
        <time>2010-05-29T12:36:30Z</time>
      </trkpt>
      <trkpt lat="47.65759" lon="6.83352">
        <ele>475</ele>
        <time>2010-05-29T12:36:31Z</time>
      </trkpt>
      <trkpt lat="47.65754" lon="6.83349">
        <ele>474.5</ele>
        <time>2010-05-29T12:36:32Z</time>
      </trkpt>
      <trkpt lat="47.65747" lon="6.83346">
        <ele>473.5</ele>
        <time>2010-05-29T12:36:33Z</time>
      </trkpt>
      <trkpt lat="47.65741" lon="6.83342">
        <ele>472.5</ele>
        <time>2010-05-29T12:36:34Z</time>
      </trkpt>
      <trkpt lat="47.65735" lon="6.8334">
        <ele>472</ele>
        <time>2010-05-29T12:36:35Z</time>
      </trkpt>
      <trkpt lat="47.65727" lon="6.83338">
        <ele>471</ele>
        <time>2010-05-29T12:36:36Z</time>
      </trkpt>
      <trkpt lat="47.65722" lon="6.83335">
        <ele>471</ele>
        <time>2010-05-29T12:36:37Z</time>
      </trkpt>
      <trkpt lat="47.65717" lon="6.83328">
        <ele>470.5</ele>
        <time>2010-05-29T12:36:39Z</time>
      </trkpt>
      <trkpt lat="47.65712" lon="6.83323">
        <ele>470.5</ele>
        <time>2010-05-29T12:36:41Z</time>
      </trkpt>
      <trkpt lat="47.65708" lon="6.83317">
        <ele>471.5</ele>
        <time>2010-05-29T12:36:43Z</time>
      </trkpt>
      <trkpt lat="47.65704" lon="6.83311">
        <ele>472</ele>
        <time>2010-05-29T12:36:45Z</time>
      </trkpt>
      <trkpt lat="47.657" lon="6.83305">
        <ele>472.5</ele>
        <time>2010-05-29T12:36:47Z</time>
      </trkpt>
      <trkpt lat="47.65696" lon="6.83296">
        <ele>473</ele>
        <time>2010-05-29T12:36:50Z</time>
      </trkpt>
      <trkpt lat="47.65693" lon="6.83291">
        <ele>473</ele>
        <time>2010-05-29T12:36:52Z</time>
      </trkpt>
      <trkpt lat="47.6569" lon="6.83286">
        <ele>475</ele>
        <time>2010-05-29T12:36:54Z</time>
      </trkpt>
      <trkpt lat="47.65687" lon="6.83278">
        <ele>475.5</ele>
        <time>2010-05-29T12:36:57Z</time>
      </trkpt>
      <trkpt lat="47.65684" lon="6.8327">
        <ele>477</ele>
        <time>2010-05-29T12:37:00Z</time>
      </trkpt>
      <trkpt lat="47.65682" lon="6.83262">
        <ele>478.5</ele>
        <time>2010-05-29T12:37:02Z</time>
      </trkpt>
      <trkpt lat="47.65679" lon="6.83254">
        <ele>479</ele>
        <time>2010-05-29T12:37:05Z</time>
      </trkpt>
      <trkpt lat="47.65678" lon="6.83247">
        <ele>480</ele>
        <time>2010-05-29T12:37:07Z</time>
      </trkpt>
      <trkpt lat="47.65677" lon="6.83238">
        <ele>480.5</ele>
        <time>2010-05-29T12:37:10Z</time>
      </trkpt>
      <trkpt lat="47.65677" lon="6.83227">
        <ele>481.5</ele>
        <time>2010-05-29T12:37:13Z</time>
      </trkpt>
      <trkpt lat="47.65676" lon="6.83218">
        <ele>483</ele>
        <time>2010-05-29T12:37:15Z</time>
      </trkpt>
      <trkpt lat="47.65676" lon="6.83211">
        <ele>484.5</ele>
        <time>2010-05-29T12:37:17Z</time>
      </trkpt>
      <trkpt lat="47.65676" lon="6.83202">
        <ele>486.5</ele>
        <time>2010-05-29T12:37:20Z</time>
      </trkpt>
      <trkpt lat="47.65674" lon="6.83195">
        <ele>486</ele>
        <time>2010-05-29T12:37:23Z</time>
      </trkpt>
      <trkpt lat="47.65674" lon="6.83188">
        <ele>484</ele>
        <time>2010-05-29T12:37:27Z</time>
      </trkpt>
      <trkpt lat="47.65674" lon="6.8318">
        <ele>483.5</ele>
        <time>2010-05-29T12:37:31Z</time>
      </trkpt>
      <trkpt lat="47.65676" lon="6.83174">
        <ele>481</ele>
        <time>2010-05-29T12:37:35Z</time>
      </trkpt>
      <trkpt lat="47.65676" lon="6.83172">
        <ele>482</ele>
        <time>2010-05-29T12:37:37Z</time>
      </trkpt>
      <trkpt lat="47.65674" lon="6.83166">
        <ele>478.5</ele>
        <time>2010-05-29T12:37:42Z</time>
      </trkpt>
      <trkpt lat="47.65674" lon="6.83165">
        <ele>478.5</ele>
        <time>2010-05-29T12:37:43Z</time>
      </trkpt>
      <trkpt lat="47.65669" lon="6.8316">
        <ele>480</ele>
        <time>2010-05-29T12:37:48Z</time>
      </trkpt>
      <trkpt lat="47.65666" lon="6.83152">
        <ele>481</ele>
        <time>2010-05-29T12:37:53Z</time>
      </trkpt>
      <trkpt lat="47.65664" lon="6.83146">
        <ele>479.5</ele>
        <time>2010-05-29T12:37:56Z</time>
      </trkpt>
      <trkpt lat="47.65662" lon="6.8314">
        <ele>480</ele>
        <time>2010-05-29T12:37:59Z</time>
      </trkpt>
      <trkpt lat="47.6566" lon="6.83132">
        <ele>481</ele>
        <time>2010-05-29T12:38:03Z</time>
      </trkpt>
      <trkpt lat="47.65658" lon="6.83125">
        <ele>480.5</ele>
        <time>2010-05-29T12:38:07Z</time>
      </trkpt>
      <trkpt lat="47.65655" lon="6.83117">
        <ele>481</ele>
        <time>2010-05-29T12:38:13Z</time>
      </trkpt>
      <trkpt lat="47.65653" lon="6.8311">
        <ele>481</ele>
        <time>2010-05-29T12:38:16Z</time>
      </trkpt>
      <trkpt lat="47.65653" lon="6.83102">
        <ele>482</ele>
        <time>2010-05-29T12:38:19Z</time>
      </trkpt>
      <trkpt lat="47.65653" lon="6.83095">
        <ele>482</ele>
        <time>2010-05-29T12:38:22Z</time>
      </trkpt>
      <trkpt lat="47.65651" lon="6.83088">
        <ele>481</ele>
        <time>2010-05-29T12:38:26Z</time>
      </trkpt>
      <trkpt lat="47.65649" lon="6.83082">
        <ele>480</ele>
        <time>2010-05-29T12:38:30Z</time>
      </trkpt>
      <trkpt lat="47.65648" lon="6.83075">
        <ele>480</ele>
        <time>2010-05-29T12:38:34Z</time>
      </trkpt>
      <trkpt lat="47.65644" lon="6.83068">
        <ele>480.5</ele>
        <time>2010-05-29T12:38:39Z</time>
      </trkpt>
      <trkpt lat="47.65644" lon="6.8306">
        <ele>481</ele>
        <time>2010-05-29T12:38:43Z</time>
      </trkpt>
      <trkpt lat="47.65645" lon="6.83051">
        <ele>483</ele>
        <time>2010-05-29T12:38:46Z</time>
      </trkpt>
      <trkpt lat="47.65643" lon="6.83044">
        <ele>484</ele>
        <time>2010-05-29T12:38:50Z</time>
      </trkpt>
      <trkpt lat="47.65642" lon="6.83037">
        <ele>483.5</ele>
        <time>2010-05-29T12:38:55Z</time>
      </trkpt>
      <trkpt lat="47.65641" lon="6.83029">
        <ele>482</ele>
        <time>2010-05-29T12:38:59Z</time>
      </trkpt>
      <trkpt lat="47.6564" lon="6.83021">
        <ele>482.5</ele>
        <time>2010-05-29T12:39:03Z</time>
      </trkpt>
      <trkpt lat="47.6564" lon="6.83013">
        <ele>484</ele>
        <time>2010-05-29T12:39:06Z</time>
      </trkpt>
      <trkpt lat="47.6564" lon="6.83007">
        <ele>485</ele>
        <time>2010-05-29T12:39:12Z</time>
      </trkpt>
      <trkpt lat="47.65637" lon="6.83001">
        <ele>486</ele>
        <time>2010-05-29T12:39:15Z</time>
      </trkpt>
      <trkpt lat="47.65635" lon="6.82991">
        <ele>486</ele>
        <time>2010-05-29T12:39:19Z</time>
      </trkpt>
      <trkpt lat="47.65633" lon="6.82985">
        <ele>487</ele>
        <time>2010-05-29T12:39:22Z</time>
      </trkpt>
      <trkpt lat="47.65632" lon="6.82975">
        <ele>487</ele>
        <time>2010-05-29T12:39:26Z</time>
      </trkpt>
      <trkpt lat="47.65631" lon="6.82967">
        <ele>485.5</ele>
        <time>2010-05-29T12:39:29Z</time>
      </trkpt>
      <trkpt lat="47.65629" lon="6.82959">
        <ele>484.5</ele>
        <time>2010-05-29T12:39:33Z</time>
      </trkpt>
      <trkpt lat="47.65626" lon="6.82951">
        <ele>483</ele>
        <time>2010-05-29T12:39:36Z</time>
      </trkpt>
      <trkpt lat="47.65622" lon="6.82943">
        <ele>483.5</ele>
        <time>2010-05-29T12:39:39Z</time>
      </trkpt>
      <trkpt lat="47.65619" lon="6.82938">
        <ele>484</ele>
        <time>2010-05-29T12:39:41Z</time>
      </trkpt>
      <trkpt lat="47.65616" lon="6.82932">
        <ele>485.5</ele>
        <time>2010-05-29T12:39:43Z</time>
      </trkpt>
      <trkpt lat="47.65613" lon="6.82926">
        <ele>487.5</ele>
        <time>2010-05-29T12:39:45Z</time>
      </trkpt>
      <trkpt lat="47.65611" lon="6.8292">
        <ele>489</ele>
        <time>2010-05-29T12:39:47Z</time>
      </trkpt>
      <trkpt lat="47.65608" lon="6.82913">
        <ele>489.5</ele>
        <time>2010-05-29T12:39:50Z</time>
      </trkpt>
      <trkpt lat="47.65606" lon="6.82905">
        <ele>489.5</ele>
        <time>2010-05-29T12:39:53Z</time>
      </trkpt>
      <trkpt lat="47.65605" lon="6.82896">
        <ele>489.5</ele>
        <time>2010-05-29T12:39:56Z</time>
      </trkpt>
      <trkpt lat="47.65603" lon="6.82889">
        <ele>490</ele>
        <time>2010-05-29T12:39:59Z</time>
      </trkpt>
      <trkpt lat="47.65602" lon="6.82881">
        <ele>488.5</ele>
        <time>2010-05-29T12:40:02Z</time>
      </trkpt>
      <trkpt lat="47.65602" lon="6.82873">
        <ele>488.5</ele>
        <time>2010-05-29T12:40:05Z</time>
      </trkpt>
      <trkpt lat="47.656" lon="6.82863">
        <ele>488.5</ele>
        <time>2010-05-29T12:40:07Z</time>
      </trkpt>
      <trkpt lat="47.656" lon="6.82852">
        <ele>486</ele>
        <time>2010-05-29T12:40:13Z</time>
      </trkpt>
      <trkpt lat="47.65599" lon="6.82844">
        <ele>484.5</ele>
        <time>2010-05-29T12:40:15Z</time>
      </trkpt>
      <trkpt lat="47.65599" lon="6.82836">
        <ele>486</ele>
        <time>2010-05-29T12:40:17Z</time>
      </trkpt>
      <trkpt lat="47.65598" lon="6.82829">
        <ele>488.5</ele>
        <time>2010-05-29T12:40:19Z</time>
      </trkpt>
      <trkpt lat="47.65599" lon="6.82822">
        <ele>491.5</ele>
        <time>2010-05-29T12:40:22Z</time>
      </trkpt>
      <trkpt lat="47.65598" lon="6.82815">
        <ele>492</ele>
        <time>2010-05-29T12:40:24Z</time>
      </trkpt>
      <trkpt lat="47.65603" lon="6.82812">
        <ele>490</ele>
        <time>2010-05-29T12:40:31Z</time>
      </trkpt>
      <trkpt lat="47.65608" lon="6.82813">
        <ele>489.5</ele>
        <time>2010-05-29T12:40:36Z</time>
      </trkpt>
      <trkpt lat="47.65612" lon="6.82816">
        <ele>495.5</ele>
        <time>2010-05-29T12:40:42Z</time>
      </trkpt>
      <trkpt lat="47.65617" lon="6.8282">
        <ele>501.5</ele>
        <time>2010-05-29T12:40:48Z</time>
      </trkpt>
      <trkpt lat="47.65621" lon="6.82824">
        <ele>507.5</ele>
        <time>2010-05-29T12:40:54Z</time>
      </trkpt>
      <trkpt lat="47.65626" lon="6.82828">
        <ele>510.5</ele>
        <time>2010-05-29T12:40:59Z</time>
      </trkpt>
      <trkpt lat="47.6563" lon="6.82834">
        <ele>512.5</ele>
        <time>2010-05-29T12:41:03Z</time>
      </trkpt>
      <trkpt lat="47.65633" lon="6.82838">
        <ele>512.5</ele>
        <time>2010-05-29T12:41:05Z</time>
      </trkpt>
      <trkpt lat="47.65638" lon="6.82843">
        <ele>514.5</ele>
        <time>2010-05-29T12:41:07Z</time>
      </trkpt>
      <trkpt lat="47.65643" lon="6.82846">
        <ele>515</ele>
        <time>2010-05-29T12:41:12Z</time>
      </trkpt>
      <trkpt lat="47.65648" lon="6.82853">
        <ele>515</ele>
        <time>2010-05-29T12:41:15Z</time>
      </trkpt>
      <trkpt lat="47.65651" lon="6.82857">
        <ele>515</ele>
        <time>2010-05-29T12:41:17Z</time>
      </trkpt>
      <trkpt lat="47.65655" lon="6.82863">
        <ele>516.5</ele>
        <time>2010-05-29T12:41:20Z</time>
      </trkpt>
      <trkpt lat="47.65658" lon="6.82868">
        <ele>518</ele>
        <time>2010-05-29T12:41:23Z</time>
      </trkpt>
      <trkpt lat="47.65661" lon="6.82874">
        <ele>520</ele>
        <time>2010-05-29T12:41:26Z</time>
      </trkpt>
      <trkpt lat="47.65665" lon="6.82879">
        <ele>521.5</ele>
        <time>2010-05-29T12:41:29Z</time>
      </trkpt>
      <trkpt lat="47.65669" lon="6.82885">
        <ele>520.5</ele>
        <time>2010-05-29T12:41:31Z</time>
      </trkpt>
      <trkpt lat="47.65672" lon="6.8289">
        <ele>520</ele>
        <time>2010-05-29T12:41:33Z</time>
      </trkpt>
      <trkpt lat="47.65677" lon="6.82893">
        <ele>522</ele>
        <time>2010-05-29T12:41:36Z</time>
      </trkpt>
      <trkpt lat="47.65681" lon="6.82898">
        <ele>524</ele>
        <time>2010-05-29T12:41:39Z</time>
      </trkpt>
      <trkpt lat="47.65685" lon="6.82902">
        <ele>525</ele>
        <time>2010-05-29T12:41:41Z</time>
      </trkpt>
      <trkpt lat="47.65689" lon="6.82906">
        <ele>525</ele>
        <time>2010-05-29T12:41:43Z</time>
      </trkpt>
      <trkpt lat="47.65693" lon="6.82908">
        <ele>525</ele>
        <time>2010-05-29T12:41:45Z</time>
      </trkpt>
      <trkpt lat="47.65698" lon="6.82912">
        <ele>527</ele>
        <time>2010-05-29T12:41:48Z</time>
      </trkpt>
      <trkpt lat="47.65704" lon="6.82915">
        <ele>526</ele>
        <time>2010-05-29T12:41:51Z</time>
      </trkpt>
      <trkpt lat="47.65709" lon="6.82916">
        <ele>526.5</ele>
        <time>2010-05-29T12:41:54Z</time>
      </trkpt>
      <trkpt lat="47.65713" lon="6.8292">
        <ele>523.5</ele>
        <time>2010-05-29T12:41:56Z</time>
      </trkpt>
      <trkpt lat="47.65719" lon="6.82921">
        <ele>521.5</ele>
        <time>2010-05-29T12:41:59Z</time>
      </trkpt>
      <trkpt lat="47.65725" lon="6.82921">
        <ele>522</ele>
        <time>2010-05-29T12:42:03Z</time>
      </trkpt>
      <trkpt lat="47.6573" lon="6.82919">
        <ele>523</ele>
        <time>2010-05-29T12:42:07Z</time>
      </trkpt>
      <trkpt lat="47.65735" lon="6.82916">
        <ele>524.5</ele>
        <time>2010-05-29T12:42:10Z</time>
      </trkpt>
      <trkpt lat="47.65742" lon="6.82914">
        <ele>523</ele>
        <time>2010-05-29T12:42:14Z</time>
      </trkpt>
      <trkpt lat="47.65747" lon="6.82912">
        <ele>523.5</ele>
        <time>2010-05-29T12:42:17Z</time>
      </trkpt>
      <trkpt lat="47.65752" lon="6.82909">
        <ele>525</ele>
        <time>2010-05-29T12:42:20Z</time>
      </trkpt>
      <trkpt lat="47.65757" lon="6.82909">
        <ele>525</ele>
        <time>2010-05-29T12:42:22Z</time>
      </trkpt>
      <trkpt lat="47.65762" lon="6.82904">
        <ele>526</ele>
        <time>2010-05-29T12:42:25Z</time>
      </trkpt>
      <trkpt lat="47.65766" lon="6.82899">
        <ele>527.5</ele>
        <time>2010-05-29T12:42:28Z</time>
      </trkpt>
      <trkpt lat="47.65771" lon="6.82895">
        <ele>530</ele>
        <time>2010-05-29T12:42:31Z</time>
      </trkpt>
      <trkpt lat="47.65776" lon="6.82891">
        <ele>532</ele>
        <time>2010-05-29T12:42:34Z</time>
      </trkpt>
      <trkpt lat="47.65781" lon="6.82889">
        <ele>534</ele>
        <time>2010-05-29T12:42:37Z</time>
      </trkpt>
      <trkpt lat="47.65786" lon="6.82888">
        <ele>536.5</ele>
        <time>2010-05-29T12:42:41Z</time>
      </trkpt>
      <trkpt lat="47.65791" lon="6.8289">
        <ele>539.5</ele>
        <time>2010-05-29T12:42:44Z</time>
      </trkpt>
      <trkpt lat="47.65796" lon="6.8289">
        <ele>540.5</ele>
        <time>2010-05-29T12:42:46Z</time>
      </trkpt>
      <trkpt lat="47.65801" lon="6.82893">
        <ele>542.5</ele>
        <time>2010-05-29T12:42:49Z</time>
      </trkpt>
      <trkpt lat="47.65804" lon="6.82899">
        <ele>542.5</ele>
        <time>2010-05-29T12:42:53Z</time>
      </trkpt>
      <trkpt lat="47.65808" lon="6.82905">
        <ele>542</ele>
        <time>2010-05-29T12:42:58Z</time>
      </trkpt>
      <trkpt lat="47.6581" lon="6.82911">
        <ele>541.5</ele>
        <time>2010-05-29T12:43:01Z</time>
      </trkpt>
      <trkpt lat="47.65811" lon="6.82919">
        <ele>542.5</ele>
        <time>2010-05-29T12:43:04Z</time>
      </trkpt>
      <trkpt lat="47.65812" lon="6.82927">
        <ele>543</ele>
        <time>2010-05-29T12:43:07Z</time>
      </trkpt>
      <trkpt lat="47.6581" lon="6.82937">
        <ele>544</ele>
        <time>2010-05-29T12:43:10Z</time>
      </trkpt>
      <trkpt lat="47.6581" lon="6.82946">
        <ele>544</ele>
        <time>2010-05-29T12:43:14Z</time>
      </trkpt>
      <trkpt lat="47.65811" lon="6.82953">
        <ele>544.5</ele>
        <time>2010-05-29T12:43:16Z</time>
      </trkpt>
      <trkpt lat="47.65812" lon="6.82962">
        <ele>544.5</ele>
        <time>2010-05-29T12:43:19Z</time>
      </trkpt>
      <trkpt lat="47.65813" lon="6.8297">
        <ele>545.5</ele>
        <time>2010-05-29T12:43:21Z</time>
      </trkpt>
      <trkpt lat="47.65815" lon="6.82978">
        <ele>547</ele>
        <time>2010-05-29T12:43:24Z</time>
      </trkpt>
      <trkpt lat="47.65818" lon="6.82986">
        <ele>549</ele>
        <time>2010-05-29T12:43:27Z</time>
      </trkpt>
      <trkpt lat="47.65821" lon="6.82992">
        <ele>552</ele>
        <time>2010-05-29T12:43:30Z</time>
      </trkpt>
      <trkpt lat="47.65826" lon="6.82999">
        <ele>552.5</ele>
        <time>2010-05-29T12:43:33Z</time>
      </trkpt>
      <trkpt lat="47.6583" lon="6.83004">
        <ele>554.5</ele>
        <time>2010-05-29T12:43:36Z</time>
      </trkpt>
      <trkpt lat="47.65835" lon="6.83009">
        <ele>556</ele>
        <time>2010-05-29T12:43:39Z</time>
      </trkpt>
      <trkpt lat="47.6584" lon="6.83015">
        <ele>556</ele>
        <time>2010-05-29T12:43:42Z</time>
      </trkpt>
      <trkpt lat="47.65844" lon="6.83021">
        <ele>557.5</ele>
        <time>2010-05-29T12:43:45Z</time>
      </trkpt>
      <trkpt lat="47.65849" lon="6.83026">
        <ele>559</ele>
        <time>2010-05-29T12:43:48Z</time>
      </trkpt>
      <trkpt lat="47.65854" lon="6.83032">
        <ele>559.5</ele>
        <time>2010-05-29T12:43:51Z</time>
      </trkpt>
      <trkpt lat="47.65857" lon="6.83036">
        <ele>559.5</ele>
        <time>2010-05-29T12:43:53Z</time>
      </trkpt>
      <trkpt lat="47.65862" lon="6.83041">
        <ele>560</ele>
        <time>2010-05-29T12:43:56Z</time>
      </trkpt>
      <trkpt lat="47.65867" lon="6.83045">
        <ele>559</ele>
        <time>2010-05-29T12:43:58Z</time>
      </trkpt>
      <trkpt lat="47.65871" lon="6.83049">
        <ele>559</ele>
        <time>2010-05-29T12:44:00Z</time>
      </trkpt>
      <trkpt lat="47.65877" lon="6.83052">
        <ele>560</ele>
        <time>2010-05-29T12:44:03Z</time>
      </trkpt>
      <trkpt lat="47.65884" lon="6.83055">
        <ele>560</ele>
        <time>2010-05-29T12:44:06Z</time>
      </trkpt>
      <trkpt lat="47.65889" lon="6.83053">
        <ele>561</ele>
        <time>2010-05-29T12:44:07Z</time>
      </trkpt>
      <trkpt lat="47.65896" lon="6.83052">
        <ele>557</ele>
        <time>2010-05-29T12:44:12Z</time>
      </trkpt>
      <trkpt lat="47.659" lon="6.83054">
        <ele>550.5</ele>
        <time>2010-05-29T12:44:14Z</time>
      </trkpt>
      <trkpt lat="47.65906" lon="6.83057">
        <ele>543</ele>
        <time>2010-05-29T12:44:16Z</time>
      </trkpt>
      <trkpt lat="47.65911" lon="6.83059">
        <ele>540.5</ele>
        <time>2010-05-29T12:44:19Z</time>
      </trkpt>
      <trkpt lat="47.65913" lon="6.83052">
        <ele>541</ele>
        <time>2010-05-29T12:44:24Z</time>
      </trkpt>
      <trkpt lat="47.65911" lon="6.83046">
        <ele>542</ele>
        <time>2010-05-29T12:44:27Z</time>
      </trkpt>
      <trkpt lat="47.65909" lon="6.83039">
        <ele>542</ele>
        <time>2010-05-29T12:44:30Z</time>
      </trkpt>
      <trkpt lat="47.65906" lon="6.83031">
        <ele>543.5</ele>
        <time>2010-05-29T12:44:34Z</time>
      </trkpt>
      <trkpt lat="47.65903" lon="6.83025">
        <ele>545.5</ele>
        <time>2010-05-29T12:44:38Z</time>
      </trkpt>
      <trkpt lat="47.65899" lon="6.83017">
        <ele>547</ele>
        <time>2010-05-29T12:44:43Z</time>
      </trkpt>
      <trkpt lat="47.65897" lon="6.83011">
        <ele>548.5</ele>
        <time>2010-05-29T12:44:46Z</time>
      </trkpt>
      <trkpt lat="47.65895" lon="6.83005">
        <ele>548</ele>
        <time>2010-05-29T12:44:49Z</time>
      </trkpt>
      <trkpt lat="47.65894" lon="6.82998">
        <ele>545.5</ele>
        <time>2010-05-29T12:44:52Z</time>
      </trkpt>
      <trkpt lat="47.65892" lon="6.82991">
        <ele>545</ele>
        <time>2010-05-29T12:44:55Z</time>
      </trkpt>
      <trkpt lat="47.6589" lon="6.82983">
        <ele>546</ele>
        <time>2010-05-29T12:44:58Z</time>
      </trkpt>
      <trkpt lat="47.65889" lon="6.82974">
        <ele>546.5</ele>
        <time>2010-05-29T12:45:01Z</time>
      </trkpt>
      <trkpt lat="47.65888" lon="6.82966">
        <ele>549</ele>
        <time>2010-05-29T12:45:04Z</time>
      </trkpt>
      <trkpt lat="47.65888" lon="6.82958">
        <ele>549</ele>
        <time>2010-05-29T12:45:07Z</time>
      </trkpt>
      <trkpt lat="47.65887" lon="6.82949">
        <ele>550.5</ele>
        <time>2010-05-29T12:45:10Z</time>
      </trkpt>
      <trkpt lat="47.65883" lon="6.82941">
        <ele>550.5</ele>
        <time>2010-05-29T12:45:14Z</time>
      </trkpt>
      <trkpt lat="47.65883" lon="6.82931">
        <ele>550.5</ele>
        <time>2010-05-29T12:45:17Z</time>
      </trkpt>
      <trkpt lat="47.65882" lon="6.82924">
        <ele>551.5</ele>
        <time>2010-05-29T12:45:19Z</time>
      </trkpt>
      <trkpt lat="47.65882" lon="6.82914">
        <ele>551.5</ele>
        <time>2010-05-29T12:45:22Z</time>
      </trkpt>
      <trkpt lat="47.65882" lon="6.82907">
        <ele>551.5</ele>
        <time>2010-05-29T12:45:24Z</time>
      </trkpt>
      <trkpt lat="47.65882" lon="6.82898">
        <ele>551</ele>
        <time>2010-05-29T12:45:27Z</time>
      </trkpt>
      <trkpt lat="47.65881" lon="6.82891">
        <ele>552</ele>
        <time>2010-05-29T12:45:30Z</time>
      </trkpt>
      <trkpt lat="47.65881" lon="6.82884">
        <ele>555</ele>
        <time>2010-05-29T12:45:33Z</time>
      </trkpt>
      <trkpt lat="47.6588" lon="6.82876">
        <ele>556</ele>
        <time>2010-05-29T12:45:36Z</time>
      </trkpt>
      <trkpt lat="47.65877" lon="6.82868">
        <ele>556</ele>
        <time>2010-05-29T12:45:39Z</time>
      </trkpt>
      <trkpt lat="47.65875" lon="6.8286">
        <ele>555.5</ele>
        <time>2010-05-29T12:45:42Z</time>
      </trkpt>
      <trkpt lat="47.65874" lon="6.82852">
        <ele>555.5</ele>
        <time>2010-05-29T12:45:44Z</time>
      </trkpt>
      <trkpt lat="47.65871" lon="6.82847">
        <ele>554.5</ele>
        <time>2010-05-29T12:45:46Z</time>
      </trkpt>
      <trkpt lat="47.65868" lon="6.82842">
        <ele>556.5</ele>
        <time>2010-05-29T12:45:50Z</time>
      </trkpt>
      <trkpt lat="47.65862" lon="6.8284">
        <ele>555.5</ele>
        <time>2010-05-29T12:45:56Z</time>
      </trkpt>
      <trkpt lat="47.65858" lon="6.82836">
        <ele>554.5</ele>
        <time>2010-05-29T12:46:00Z</time>
      </trkpt>
      <trkpt lat="47.65855" lon="6.82831">
        <ele>554</ele>
        <time>2010-05-29T12:46:03Z</time>
      </trkpt>
      <trkpt lat="47.65849" lon="6.82825">
        <ele>552.5</ele>
        <time>2010-05-29T12:46:06Z</time>
      </trkpt>
      <trkpt lat="47.65845" lon="6.82821">
        <ele>552</ele>
        <time>2010-05-29T12:46:07Z</time>
      </trkpt>
      <trkpt lat="47.65817" lon="6.82761">
        <ele>537.5</ele>
        <time>2010-05-29T12:46:16Z</time>
      </trkpt>
      <trkpt lat="47.65832" lon="6.82796">
        <ele>554.5</ele>
        <time>2010-05-29T12:46:17Z</time>
      </trkpt>
      <trkpt lat="47.65824" lon="6.82786">
        <ele>553.5</ele>
        <time>2010-05-29T12:46:19Z</time>
      </trkpt>
      <trkpt lat="47.65819" lon="6.82783">
        <ele>553</ele>
        <time>2010-05-29T12:46:22Z</time>
      </trkpt>
      <trkpt lat="47.65814" lon="6.82776">
        <ele>551.5</ele>
        <time>2010-05-29T12:46:25Z</time>
      </trkpt>
      <trkpt lat="47.6581" lon="6.8277">
        <ele>551.5</ele>
        <time>2010-05-29T12:46:29Z</time>
      </trkpt>
      <trkpt lat="47.65805" lon="6.82761">
        <ele>550.5</ele>
        <time>2010-05-29T12:46:33Z</time>
      </trkpt>
      <trkpt lat="47.65799" lon="6.82753">
        <ele>551.5</ele>
        <time>2010-05-29T12:46:35Z</time>
      </trkpt>
      <trkpt lat="47.65795" lon="6.82744">
        <ele>553.5</ele>
        <time>2010-05-29T12:46:37Z</time>
      </trkpt>
      <trkpt lat="47.65791" lon="6.82736">
        <ele>555</ele>
        <time>2010-05-29T12:46:39Z</time>
      </trkpt>
      <trkpt lat="47.65788" lon="6.82727">
        <ele>554.5</ele>
        <time>2010-05-29T12:46:41Z</time>
      </trkpt>
      <trkpt lat="47.65785" lon="6.8272">
        <ele>555.5</ele>
        <time>2010-05-29T12:46:43Z</time>
      </trkpt>
      <trkpt lat="47.65784" lon="6.82712">
        <ele>557</ele>
        <time>2010-05-29T12:46:46Z</time>
      </trkpt>
      <trkpt lat="47.65785" lon="6.82703">
        <ele>559.5</ele>
        <time>2010-05-29T12:46:49Z</time>
      </trkpt>
      <trkpt lat="47.65787" lon="6.82695">
        <ele>563</ele>
        <time>2010-05-29T12:46:52Z</time>
      </trkpt>
      <trkpt lat="47.65788" lon="6.82687">
        <ele>563.5</ele>
        <time>2010-05-29T12:46:54Z</time>
      </trkpt>
      <trkpt lat="47.65792" lon="6.82681">
        <ele>564</ele>
        <time>2010-05-29T12:46:56Z</time>
      </trkpt>
      <trkpt lat="47.65794" lon="6.82674">
        <ele>566</ele>
        <time>2010-05-29T12:46:59Z</time>
      </trkpt>
      <trkpt lat="47.65795" lon="6.82666">
        <ele>568.5</ele>
        <time>2010-05-29T12:47:02Z</time>
      </trkpt>
      <trkpt lat="47.65794" lon="6.82658">
        <ele>569.5</ele>
        <time>2010-05-29T12:47:05Z</time>
      </trkpt>
      <trkpt lat="47.6579" lon="6.82653">
        <ele>569</ele>
        <time>2010-05-29T12:47:07Z</time>
      </trkpt>
      <trkpt lat="47.65783" lon="6.82647">
        <ele>570</ele>
        <time>2010-05-29T12:47:10Z</time>
      </trkpt>
      <trkpt lat="47.65778" lon="6.82643">
        <ele>569.5</ele>
        <time>2010-05-29T12:47:14Z</time>
      </trkpt>
      <trkpt lat="47.65774" lon="6.82636">
        <ele>567.5</ele>
        <time>2010-05-29T12:47:17Z</time>
      </trkpt>
      <trkpt lat="47.65769" lon="6.82631">
        <ele>567.5</ele>
        <time>2010-05-29T12:47:19Z</time>
      </trkpt>
      <trkpt lat="47.65765" lon="6.82627">
        <ele>567</ele>
        <time>2010-05-29T12:47:21Z</time>
      </trkpt>
      <trkpt lat="47.65762" lon="6.82621">
        <ele>564</ele>
        <time>2010-05-29T12:47:24Z</time>
      </trkpt>
      <trkpt lat="47.6576" lon="6.82614">
        <ele>561.5</ele>
        <time>2010-05-29T12:47:26Z</time>
      </trkpt>
      <trkpt lat="47.65757" lon="6.82608">
        <ele>560.5</ele>
        <time>2010-05-29T12:47:28Z</time>
      </trkpt>
      <trkpt lat="47.65755" lon="6.82601">
        <ele>560</ele>
        <time>2010-05-29T12:47:30Z</time>
      </trkpt>
      <trkpt lat="47.65752" lon="6.82594">
        <ele>561</ele>
        <time>2010-05-29T12:47:32Z</time>
      </trkpt>
      <trkpt lat="47.6575" lon="6.82588">
        <ele>562.5</ele>
        <time>2010-05-29T12:47:34Z</time>
      </trkpt>
      <trkpt lat="47.65749" lon="6.82579">
        <ele>564.5</ele>
        <time>2010-05-29T12:47:37Z</time>
      </trkpt>
      <trkpt lat="47.65749" lon="6.82571">
        <ele>566.5</ele>
        <time>2010-05-29T12:47:40Z</time>
      </trkpt>
      <trkpt lat="47.65752" lon="6.82562">
        <ele>568</ele>
        <time>2010-05-29T12:47:43Z</time>
      </trkpt>
      <trkpt lat="47.65755" lon="6.82556">
        <ele>570</ele>
        <time>2010-05-29T12:47:45Z</time>
      </trkpt>
      <trkpt lat="47.65758" lon="6.82549">
        <ele>573</ele>
        <time>2010-05-29T12:47:48Z</time>
      </trkpt>
      <trkpt lat="47.65761" lon="6.82543">
        <ele>576</ele>
        <time>2010-05-29T12:47:51Z</time>
      </trkpt>
      <trkpt lat="47.65764" lon="6.82537">
        <ele>580.5</ele>
        <time>2010-05-29T12:47:54Z</time>
      </trkpt>
      <trkpt lat="47.65767" lon="6.8253">
        <ele>582.5</ele>
        <time>2010-05-29T12:47:57Z</time>
      </trkpt>
      <trkpt lat="47.65772" lon="6.82524">
        <ele>584</ele>
        <time>2010-05-29T12:48:00Z</time>
      </trkpt>
      <trkpt lat="47.65775" lon="6.82517">
        <ele>585.5</ele>
        <time>2010-05-29T12:48:03Z</time>
      </trkpt>
      <trkpt lat="47.65778" lon="6.82509">
        <ele>585.5</ele>
        <time>2010-05-29T12:48:06Z</time>
      </trkpt>
      <trkpt lat="47.65781" lon="6.82502">
        <ele>586</ele>
        <time>2010-05-29T12:48:07Z</time>
      </trkpt>
      <trkpt lat="47.65784" lon="6.82494">
        <ele>586.5</ele>
        <time>2010-05-29T12:48:12Z</time>
      </trkpt>
      <trkpt lat="47.65787" lon="6.82486">
        <ele>588.5</ele>
        <time>2010-05-29T12:48:15Z</time>
      </trkpt>
      <trkpt lat="47.65789" lon="6.82477">
        <ele>591.5</ele>
        <time>2010-05-29T12:48:18Z</time>
      </trkpt>
      <trkpt lat="47.65789" lon="6.8247">
        <ele>593</ele>
        <time>2010-05-29T12:48:20Z</time>
      </trkpt>
      <trkpt lat="47.6579" lon="6.82461">
        <ele>595</ele>
        <time>2010-05-29T12:48:23Z</time>
      </trkpt>
      <trkpt lat="47.65791" lon="6.82451">
        <ele>596</ele>
        <time>2010-05-29T12:48:26Z</time>
      </trkpt>
      <trkpt lat="47.65792" lon="6.82443">
        <ele>598</ele>
        <time>2010-05-29T12:48:29Z</time>
      </trkpt>
      <trkpt lat="47.65794" lon="6.82433">
        <ele>599.5</ele>
        <time>2010-05-29T12:48:32Z</time>
      </trkpt>
      <trkpt lat="47.65795" lon="6.82426">
        <ele>601</ele>
        <time>2010-05-29T12:48:35Z</time>
      </trkpt>
      <trkpt lat="47.65795" lon="6.82417">
        <ele>602.5</ele>
        <time>2010-05-29T12:48:38Z</time>
      </trkpt>
      <trkpt lat="47.65796" lon="6.82407">
        <ele>604</ele>
        <time>2010-05-29T12:48:41Z</time>
      </trkpt>
      <trkpt lat="47.65798" lon="6.824">
        <ele>605.5</ele>
        <time>2010-05-29T12:48:44Z</time>
      </trkpt>
      <trkpt lat="47.658" lon="6.8239">
        <ele>606</ele>
        <time>2010-05-29T12:48:47Z</time>
      </trkpt>
      <trkpt lat="47.65801" lon="6.82381">
        <ele>608.5</ele>
        <time>2010-05-29T12:48:50Z</time>
      </trkpt>
      <trkpt lat="47.65803" lon="6.82375">
        <ele>609</ele>
        <time>2010-05-29T12:48:52Z</time>
      </trkpt>
      <trkpt lat="47.65805" lon="6.82366">
        <ele>610.5</ele>
        <time>2010-05-29T12:48:55Z</time>
      </trkpt>
      <trkpt lat="47.65808" lon="6.82357">
        <ele>612</ele>
        <time>2010-05-29T12:48:58Z</time>
      </trkpt>
      <trkpt lat="47.65809" lon="6.8235">
        <ele>613.5</ele>
        <time>2010-05-29T12:49:01Z</time>
      </trkpt>
      <trkpt lat="47.6581" lon="6.82341">
        <ele>615</ele>
        <time>2010-05-29T12:49:04Z</time>
      </trkpt>
      <trkpt lat="47.65812" lon="6.82335">
        <ele>616.5</ele>
        <time>2010-05-29T12:49:06Z</time>
      </trkpt>
      <trkpt lat="47.65814" lon="6.82328">
        <ele>618.5</ele>
        <time>2010-05-29T12:49:07Z</time>
      </trkpt>
      <trkpt lat="47.65819" lon="6.8232">
        <ele>619</ele>
        <time>2010-05-29T12:49:12Z</time>
      </trkpt>
      <trkpt lat="47.65821" lon="6.82311">
        <ele>620.5</ele>
        <time>2010-05-29T12:49:15Z</time>
      </trkpt>
      <trkpt lat="47.65823" lon="6.82304">
        <ele>621.5</ele>
        <time>2010-05-29T12:49:17Z</time>
      </trkpt>
      <trkpt lat="47.65824" lon="6.82297">
        <ele>622</ele>
        <time>2010-05-29T12:49:19Z</time>
      </trkpt>
      <trkpt lat="47.65825" lon="6.82291">
        <ele>623</ele>
        <time>2010-05-29T12:49:21Z</time>
      </trkpt>
      <trkpt lat="47.65826" lon="6.82282">
        <ele>623</ele>
        <time>2010-05-29T12:49:23Z</time>
      </trkpt>
      <trkpt lat="47.65827" lon="6.82275">
        <ele>623.5</ele>
        <time>2010-05-29T12:49:25Z</time>
      </trkpt>
      <trkpt lat="47.65827" lon="6.82266">
        <ele>624.5</ele>
        <time>2010-05-29T12:49:28Z</time>
      </trkpt>
      <trkpt lat="47.65827" lon="6.82257">
        <ele>626.5</ele>
        <time>2010-05-29T12:49:31Z</time>
      </trkpt>
      <trkpt lat="47.65828" lon="6.82248">
        <ele>628.5</ele>
        <time>2010-05-29T12:49:34Z</time>
      </trkpt>
      <trkpt lat="47.65828" lon="6.8224">
        <ele>630</ele>
        <time>2010-05-29T12:49:37Z</time>
      </trkpt>
      <trkpt lat="47.65829" lon="6.82232">
        <ele>629.5</ele>
        <time>2010-05-29T12:49:40Z</time>
      </trkpt>
      <trkpt lat="47.65831" lon="6.82223">
        <ele>628.5</ele>
        <time>2010-05-29T12:49:43Z</time>
      </trkpt>
      <trkpt lat="47.65832" lon="6.82213">
        <ele>627.5</ele>
        <time>2010-05-29T12:49:46Z</time>
      </trkpt>
      <trkpt lat="47.65833" lon="6.82203">
        <ele>627</ele>
        <time>2010-05-29T12:49:49Z</time>
      </trkpt>
      <trkpt lat="47.65834" lon="6.82193">
        <ele>626.5</ele>
        <time>2010-05-29T12:49:52Z</time>
      </trkpt>
      <trkpt lat="47.65835" lon="6.82184">
        <ele>627.5</ele>
        <time>2010-05-29T12:49:55Z</time>
      </trkpt>
      <trkpt lat="47.65835" lon="6.82176">
        <ele>628.5</ele>
        <time>2010-05-29T12:49:58Z</time>
      </trkpt>
      <trkpt lat="47.65835" lon="6.82168">
        <ele>631</ele>
        <time>2010-05-29T12:50:01Z</time>
      </trkpt>
      <trkpt lat="47.65836" lon="6.8216">
        <ele>633</ele>
        <time>2010-05-29T12:50:04Z</time>
      </trkpt>
      <trkpt lat="47.65837" lon="6.8215">
        <ele>635.5</ele>
        <time>2010-05-29T12:50:07Z</time>
      </trkpt>
      <trkpt lat="47.65837" lon="6.82142">
        <ele>636</ele>
        <time>2010-05-29T12:50:09Z</time>
      </trkpt>
      <trkpt lat="47.65839" lon="6.82133">
        <ele>634.5</ele>
        <time>2010-05-29T12:50:13Z</time>
      </trkpt>
      <trkpt lat="47.65841" lon="6.8212">
        <ele>631.5</ele>
        <time>2010-05-29T12:50:16Z</time>
      </trkpt>
      <trkpt lat="47.65837" lon="6.82114">
        <ele>629.5</ele>
        <time>2010-05-29T12:50:18Z</time>
      </trkpt>
      <trkpt lat="47.65837" lon="6.82106">
        <ele>623</ele>
        <time>2010-05-29T12:50:21Z</time>
      </trkpt>
      <trkpt lat="47.65835" lon="6.82099">
        <ele>623.5</ele>
        <time>2010-05-29T12:50:24Z</time>
      </trkpt>
      <trkpt lat="47.6583" lon="6.82094">
        <ele>624</ele>
        <time>2010-05-29T12:50:27Z</time>
      </trkpt>
      <trkpt lat="47.65825" lon="6.82089">
        <ele>622.5</ele>
        <time>2010-05-29T12:50:31Z</time>
      </trkpt>
      <trkpt lat="47.6582" lon="6.82084">
        <ele>621.5</ele>
        <time>2010-05-29T12:50:36Z</time>
      </trkpt>
      <trkpt lat="47.65817" lon="6.82078">
        <ele>618.5</ele>
        <time>2010-05-29T12:50:39Z</time>
      </trkpt>
      <trkpt lat="47.65818" lon="6.8207">
        <ele>612</ele>
        <time>2010-05-29T12:50:42Z</time>
      </trkpt>
      <trkpt lat="47.65814" lon="6.82065">
        <ele>607</ele>
        <time>2010-05-29T12:50:49Z</time>
      </trkpt>
      <trkpt lat="47.6581" lon="6.82067">
        <ele>606</ele>
        <time>2010-05-29T12:50:54Z</time>
      </trkpt>
      <trkpt lat="47.65805" lon="6.82069">
        <ele>605.5</ele>
        <time>2010-05-29T12:51:00Z</time>
      </trkpt>
      <trkpt lat="47.658" lon="6.82071">
        <ele>606</ele>
        <time>2010-05-29T12:51:03Z</time>
      </trkpt>
      <trkpt lat="47.65795" lon="6.82076">
        <ele>607</ele>
        <time>2010-05-29T12:51:06Z</time>
      </trkpt>
      <trkpt lat="47.65791" lon="6.82079">
        <ele>607</ele>
        <time>2010-05-29T12:51:07Z</time>
      </trkpt>
      <trkpt lat="47.65783" lon="6.82079">
        <ele>601</ele>
        <time>2010-05-29T12:51:10Z</time>
      </trkpt>
      <trkpt lat="47.65779" lon="6.82082">
        <ele>599</ele>
        <time>2010-05-29T12:51:15Z</time>
      </trkpt>
      <trkpt lat="47.65776" lon="6.82088">
        <ele>601.5</ele>
        <time>2010-05-29T12:51:19Z</time>
      </trkpt>
      <trkpt lat="47.65772" lon="6.82093">
        <ele>603.5</ele>
        <time>2010-05-29T12:51:22Z</time>
      </trkpt>
      <trkpt lat="47.65767" lon="6.82099">
        <ele>605</ele>
        <time>2010-05-29T12:51:25Z</time>
      </trkpt>
      <trkpt lat="47.65761" lon="6.82104">
        <ele>606</ele>
        <time>2010-05-29T12:51:28Z</time>
      </trkpt>
      <trkpt lat="47.65756" lon="6.82106">
        <ele>605.5</ele>
        <time>2010-05-29T12:51:30Z</time>
      </trkpt>
      <trkpt lat="47.6575" lon="6.82109">
        <ele>606</ele>
        <time>2010-05-29T12:51:33Z</time>
      </trkpt>
      <trkpt lat="47.65743" lon="6.82113">
        <ele>605.5</ele>
        <time>2010-05-29T12:51:36Z</time>
      </trkpt>
      <trkpt lat="47.65738" lon="6.82115">
        <ele>606</ele>
        <time>2010-05-29T12:51:39Z</time>
      </trkpt>
      <trkpt lat="47.65733" lon="6.82117">
        <ele>605.5</ele>
        <time>2010-05-29T12:51:43Z</time>
      </trkpt>
      <trkpt lat="47.65727" lon="6.82117">
        <ele>605.5</ele>
        <time>2010-05-29T12:51:46Z</time>
      </trkpt>
      <trkpt lat="47.6572" lon="6.82116">
        <ele>604.5</ele>
        <time>2010-05-29T12:51:49Z</time>
      </trkpt>
      <trkpt lat="47.65714" lon="6.82113">
        <ele>604.5</ele>
        <time>2010-05-29T12:51:51Z</time>
      </trkpt>
      <trkpt lat="47.65708" lon="6.8211">
        <ele>606</ele>
        <time>2010-05-29T12:51:54Z</time>
      </trkpt>
      <trkpt lat="47.65702" lon="6.82107">
        <ele>604</ele>
        <time>2010-05-29T12:51:56Z</time>
      </trkpt>
      <trkpt lat="47.65696" lon="6.82103">
        <ele>600</ele>
        <time>2010-05-29T12:51:58Z</time>
      </trkpt>
      <trkpt lat="47.65689" lon="6.82101">
        <ele>598</ele>
        <time>2010-05-29T12:52:00Z</time>
      </trkpt>
      <trkpt lat="47.65683" lon="6.82096">
        <ele>595.5</ele>
        <time>2010-05-29T12:52:03Z</time>
      </trkpt>
      <trkpt lat="47.65677" lon="6.82091">
        <ele>594</ele>
        <time>2010-05-29T12:52:06Z</time>
      </trkpt>
      <trkpt lat="47.65673" lon="6.82086">
        <ele>595.5</ele>
        <time>2010-05-29T12:52:07Z</time>
      </trkpt>
      <trkpt lat="47.65669" lon="6.82079">
        <ele>594.5</ele>
        <time>2010-05-29T12:52:12Z</time>
      </trkpt>
      <trkpt lat="47.65665" lon="6.82073">
        <ele>593</ele>
        <time>2010-05-29T12:52:15Z</time>
      </trkpt>
      <trkpt lat="47.6566" lon="6.82066">
        <ele>593</ele>
        <time>2010-05-29T12:52:18Z</time>
      </trkpt>
      <trkpt lat="47.65658" lon="6.82058">
        <ele>592.5</ele>
        <time>2010-05-29T12:52:21Z</time>
      </trkpt>
      <trkpt lat="47.65655" lon="6.82051">
        <ele>593</ele>
        <time>2010-05-29T12:52:24Z</time>
      </trkpt>
      <trkpt lat="47.65652" lon="6.82046">
        <ele>593.5</ele>
        <time>2010-05-29T12:52:26Z</time>
      </trkpt>
      <trkpt lat="47.6565" lon="6.82038">
        <ele>594.5</ele>
        <time>2010-05-29T12:52:29Z</time>
      </trkpt>
      <trkpt lat="47.65646" lon="6.82031">
        <ele>596</ele>
        <time>2010-05-29T12:52:32Z</time>
      </trkpt>
      <trkpt lat="47.65644" lon="6.82023">
        <ele>597.5</ele>
        <time>2010-05-29T12:52:35Z</time>
      </trkpt>
      <trkpt lat="47.65641" lon="6.82017">
        <ele>599.5</ele>
        <time>2010-05-29T12:52:38Z</time>
      </trkpt>
      <trkpt lat="47.65639" lon="6.82009">
        <ele>601</ele>
        <time>2010-05-29T12:52:41Z</time>
      </trkpt>
      <trkpt lat="47.65637" lon="6.82001">
        <ele>601.5</ele>
        <time>2010-05-29T12:52:44Z</time>
      </trkpt>
      <trkpt lat="47.65636" lon="6.81994">
        <ele>603</ele>
        <time>2010-05-29T12:52:47Z</time>
      </trkpt>
      <trkpt lat="47.65636" lon="6.81986">
        <ele>604.5</ele>
        <time>2010-05-29T12:52:50Z</time>
      </trkpt>
      <trkpt lat="47.65635" lon="6.81979">
        <ele>606</ele>
        <time>2010-05-29T12:52:53Z</time>
      </trkpt>
      <trkpt lat="47.65633" lon="6.81971">
        <ele>608</ele>
        <time>2010-05-29T12:52:56Z</time>
      </trkpt>
      <trkpt lat="47.65632" lon="6.81963">
        <ele>610</ele>
        <time>2010-05-29T12:52:59Z</time>
      </trkpt>
      <trkpt lat="47.6563" lon="6.81955">
        <ele>611.5</ele>
        <time>2010-05-29T12:53:02Z</time>
      </trkpt>
      <trkpt lat="47.65628" lon="6.81947">
        <ele>613.5</ele>
        <time>2010-05-29T12:53:05Z</time>
      </trkpt>
      <trkpt lat="47.65626" lon="6.81941">
        <ele>613</ele>
        <time>2010-05-29T12:53:07Z</time>
      </trkpt>
      <trkpt lat="47.65624" lon="6.81933">
        <ele>614.5</ele>
        <time>2010-05-29T12:53:09Z</time>
      </trkpt>
      <trkpt lat="47.65622" lon="6.81925">
        <ele>616</ele>
        <time>2010-05-29T12:53:13Z</time>
      </trkpt>
      <trkpt lat="47.6562" lon="6.81919">
        <ele>616.5</ele>
        <time>2010-05-29T12:53:15Z</time>
      </trkpt>
      <trkpt lat="47.65618" lon="6.81912">
        <ele>617</ele>
        <time>2010-05-29T12:53:17Z</time>
      </trkpt>
      <trkpt lat="47.65616" lon="6.81902">
        <ele>619</ele>
        <time>2010-05-29T12:53:20Z</time>
      </trkpt>
      <trkpt lat="47.65614" lon="6.81893">
        <ele>619.5</ele>
        <time>2010-05-29T12:53:23Z</time>
      </trkpt>
      <trkpt lat="47.65613" lon="6.81886">
        <ele>621.5</ele>
        <time>2010-05-29T12:53:26Z</time>
      </trkpt>
      <trkpt lat="47.65612" lon="6.81877">
        <ele>622.5</ele>
        <time>2010-05-29T12:53:29Z</time>
      </trkpt>
      <trkpt lat="47.65612" lon="6.81867">
        <ele>623.5</ele>
        <time>2010-05-29T12:53:32Z</time>
      </trkpt>
      <trkpt lat="47.6561" lon="6.81859">
        <ele>625.5</ele>
        <time>2010-05-29T12:53:35Z</time>
      </trkpt>
      <trkpt lat="47.65609" lon="6.81849">
        <ele>626</ele>
        <time>2010-05-29T12:53:38Z</time>
      </trkpt>
      <trkpt lat="47.65607" lon="6.8184">
        <ele>626.5</ele>
        <time>2010-05-29T12:53:41Z</time>
      </trkpt>
      <trkpt lat="47.65605" lon="6.8183">
        <ele>627</ele>
        <time>2010-05-29T12:53:44Z</time>
      </trkpt>
      <trkpt lat="47.65604" lon="6.81823">
        <ele>627.5</ele>
        <time>2010-05-29T12:53:46Z</time>
      </trkpt>
      <trkpt lat="47.65603" lon="6.81816">
        <ele>627</ele>
        <time>2010-05-29T12:53:48Z</time>
      </trkpt>
      <trkpt lat="47.65603" lon="6.81808">
        <ele>626.5</ele>
        <time>2010-05-29T12:53:50Z</time>
      </trkpt>
      <trkpt lat="47.65602" lon="6.818">
        <ele>625.5</ele>
        <time>2010-05-29T12:53:52Z</time>
      </trkpt>
      <trkpt lat="47.65602" lon="6.81793">
        <ele>625</ele>
        <time>2010-05-29T12:53:54Z</time>
      </trkpt>
      <trkpt lat="47.65601" lon="6.81785">
        <ele>624</ele>
        <time>2010-05-29T12:53:56Z</time>
      </trkpt>
      <trkpt lat="47.65599" lon="6.81777">
        <ele>625</ele>
        <time>2010-05-29T12:53:59Z</time>
      </trkpt>
      <trkpt lat="47.65598" lon="6.81768">
        <ele>625.5</ele>
        <time>2010-05-29T12:54:02Z</time>
      </trkpt>
      <trkpt lat="47.65597" lon="6.8176">
        <ele>627</ele>
        <time>2010-05-29T12:54:05Z</time>
      </trkpt>
      <trkpt lat="47.65597" lon="6.81752">
        <ele>628.5</ele>
        <time>2010-05-29T12:54:07Z</time>
      </trkpt>
      <trkpt lat="47.656" lon="6.81745">
        <ele>629</ele>
        <time>2010-05-29T12:54:12Z</time>
      </trkpt>
      <trkpt lat="47.65604" lon="6.81738">
        <ele>629</ele>
        <time>2010-05-29T12:54:14Z</time>
      </trkpt>
      <trkpt lat="47.65607" lon="6.81731">
        <ele>628.5</ele>
        <time>2010-05-29T12:54:16Z</time>
      </trkpt>
      <trkpt lat="47.65611" lon="6.81724">
        <ele>629.5</ele>
        <time>2010-05-29T12:54:19Z</time>
      </trkpt>
      <trkpt lat="47.65614" lon="6.81719">
        <ele>631.5</ele>
        <time>2010-05-29T12:54:22Z</time>
      </trkpt>
      <trkpt lat="47.65618" lon="6.81713">
        <ele>629.5</ele>
        <time>2010-05-29T12:54:24Z</time>
      </trkpt>
      <trkpt lat="47.65623" lon="6.81708">
        <ele>627</ele>
        <time>2010-05-29T12:54:26Z</time>
      </trkpt>
      <trkpt lat="47.65629" lon="6.81705">
        <ele>626.5</ele>
        <time>2010-05-29T12:54:29Z</time>
      </trkpt>
      <trkpt lat="47.65634" lon="6.81702">
        <ele>627</ele>
        <time>2010-05-29T12:54:32Z</time>
      </trkpt>
      <trkpt lat="47.65639" lon="6.81698">
        <ele>627.5</ele>
        <time>2010-05-29T12:54:36Z</time>
      </trkpt>
      <trkpt lat="47.65643" lon="6.81693">
        <ele>629.5</ele>
        <time>2010-05-29T12:54:40Z</time>
      </trkpt>
      <trkpt lat="47.65646" lon="6.81687">
        <ele>633</ele>
        <time>2010-05-29T12:54:45Z</time>
      </trkpt>
      <trkpt lat="47.65648" lon="6.81679">
        <ele>635.5</ele>
        <time>2010-05-29T12:54:49Z</time>
      </trkpt>
      <trkpt lat="47.6565" lon="6.81673">
        <ele>637</ele>
        <time>2010-05-29T12:54:52Z</time>
      </trkpt>
      <trkpt lat="47.65652" lon="6.81665">
        <ele>639</ele>
        <time>2010-05-29T12:54:55Z</time>
      </trkpt>
      <trkpt lat="47.65655" lon="6.81656">
        <ele>642</ele>
        <time>2010-05-29T12:54:58Z</time>
      </trkpt>
      <trkpt lat="47.65658" lon="6.81648">
        <ele>643</ele>
        <time>2010-05-29T12:55:00Z</time>
      </trkpt>
      <trkpt lat="47.65661" lon="6.81638">
        <ele>644.5</ele>
        <time>2010-05-29T12:55:02Z</time>
      </trkpt>
      <trkpt lat="47.65664" lon="6.81627">
        <ele>645</ele>
        <time>2010-05-29T12:55:04Z</time>
      </trkpt>
      <trkpt lat="47.65668" lon="6.81618">
        <ele>646</ele>
        <time>2010-05-29T12:55:06Z</time>
      </trkpt>
      <trkpt lat="47.65671" lon="6.81606">
        <ele>647.5</ele>
        <time>2010-05-29T12:55:07Z</time>
      </trkpt>
      <trkpt lat="47.65673" lon="6.81596">
        <ele>648.5</ele>
        <time>2010-05-29T12:55:10Z</time>
      </trkpt>
      <trkpt lat="47.65675" lon="6.81585">
        <ele>649.5</ele>
        <time>2010-05-29T12:55:13Z</time>
      </trkpt>
      <trkpt lat="47.65675" lon="6.81576">
        <ele>649.5</ele>
        <time>2010-05-29T12:55:15Z</time>
      </trkpt>
      <trkpt lat="47.65671" lon="6.81571">
        <ele>650</ele>
        <time>2010-05-29T12:55:16Z</time>
      </trkpt>
      <trkpt lat="47.65667" lon="6.81563">
        <ele>649.5</ele>
        <time>2010-05-29T12:55:18Z</time>
      </trkpt>
      <trkpt lat="47.65662" lon="6.81553">
        <ele>649.5</ele>
        <time>2010-05-29T12:55:20Z</time>
      </trkpt>
      <trkpt lat="47.65659" lon="6.81548">
        <ele>650</ele>
        <time>2010-05-29T12:55:21Z</time>
      </trkpt>
      <trkpt lat="47.65656" lon="6.81543">
        <ele>650.5</ele>
        <time>2010-05-29T12:55:22Z</time>
      </trkpt>
      <trkpt lat="47.6565" lon="6.81533">
        <ele>650.5</ele>
        <time>2010-05-29T12:55:24Z</time>
      </trkpt>
      <trkpt lat="47.65646" lon="6.81528">
        <ele>651</ele>
        <time>2010-05-29T12:55:25Z</time>
      </trkpt>
      <trkpt lat="47.65642" lon="6.81525">
        <ele>651</ele>
        <time>2010-05-29T12:55:26Z</time>
      </trkpt>
      <trkpt lat="47.65634" lon="6.81519">
        <ele>649.5</ele>
        <time>2010-05-29T12:55:28Z</time>
      </trkpt>
      <trkpt lat="47.65625" lon="6.81515">
        <ele>647</ele>
        <time>2010-05-29T12:55:30Z</time>
      </trkpt>
      <trkpt lat="47.65621" lon="6.81515">
        <ele>646</ele>
        <time>2010-05-29T12:55:31Z</time>
      </trkpt>
      <trkpt lat="47.65615" lon="6.81515">
        <ele>645.5</ele>
        <time>2010-05-29T12:55:32Z</time>
      </trkpt>
      <trkpt lat="47.65609" lon="6.81514">
        <ele>646</ele>
        <time>2010-05-29T12:55:34Z</time>
      </trkpt>
      <trkpt lat="47.656" lon="6.81514">
        <ele>646.5</ele>
        <time>2010-05-29T12:55:36Z</time>
      </trkpt>
      <trkpt lat="47.65595" lon="6.81515">
        <ele>646</ele>
        <time>2010-05-29T12:55:37Z</time>
      </trkpt>
      <trkpt lat="47.65589" lon="6.81515">
        <ele>645.5</ele>
        <time>2010-05-29T12:55:38Z</time>
      </trkpt>
      <trkpt lat="47.65583" lon="6.81516">
        <ele>645</ele>
        <time>2010-05-29T12:55:39Z</time>
      </trkpt>
      <trkpt lat="47.65577" lon="6.81516">
        <ele>644.5</ele>
        <time>2010-05-29T12:55:40Z</time>
      </trkpt>
      <trkpt lat="47.65571" lon="6.81516">
        <ele>643</ele>
        <time>2010-05-29T12:55:42Z</time>
      </trkpt>
      <trkpt lat="47.65565" lon="6.81513">
        <ele>635</ele>
        <time>2010-05-29T12:55:44Z</time>
      </trkpt>
      <trkpt lat="47.6556" lon="6.81515">
        <ele>632</ele>
        <time>2010-05-29T12:55:45Z</time>
      </trkpt>
      <trkpt lat="47.65555" lon="6.81519">
        <ele>630.5</ele>
        <time>2010-05-29T12:55:46Z</time>
      </trkpt>
      <trkpt lat="47.65549" lon="6.81525">
        <ele>630</ele>
        <time>2010-05-29T12:55:47Z</time>
      </trkpt>
      <trkpt lat="47.65543" lon="6.8153">
        <ele>629</ele>
        <time>2010-05-29T12:55:48Z</time>
      </trkpt>
      <trkpt lat="47.65536" lon="6.81535">
        <ele>629</ele>
        <time>2010-05-29T12:55:49Z</time>
      </trkpt>
      <trkpt lat="47.65529" lon="6.81537">
        <ele>629</ele>
        <time>2010-05-29T12:55:50Z</time>
      </trkpt>
      <trkpt lat="47.65522" lon="6.81536">
        <ele>629</ele>
        <time>2010-05-29T12:55:51Z</time>
      </trkpt>
      <trkpt lat="47.65516" lon="6.81532">
        <ele>629.5</ele>
        <time>2010-05-29T12:55:52Z</time>
      </trkpt>
      <trkpt lat="47.65509" lon="6.81527">
        <ele>629.5</ele>
        <time>2010-05-29T12:55:53Z</time>
      </trkpt>
      <trkpt lat="47.65501" lon="6.81521">
        <ele>629</ele>
        <time>2010-05-29T12:55:54Z</time>
      </trkpt>
      <trkpt lat="47.65494" lon="6.81514">
        <ele>628.5</ele>
        <time>2010-05-29T12:55:55Z</time>
      </trkpt>
      <trkpt lat="47.65485" lon="6.81507">
        <ele>627.5</ele>
        <time>2010-05-29T12:55:56Z</time>
      </trkpt>
      <trkpt lat="47.65465" lon="6.81485">
        <ele>627.5</ele>
        <time>2010-05-29T12:55:59Z</time>
      </trkpt>
      <trkpt lat="47.65458" lon="6.81478">
        <ele>627.5</ele>
        <time>2010-05-29T12:56:00Z</time>
      </trkpt>
      <trkpt lat="47.65451" lon="6.81469">
        <ele>627.5</ele>
        <time>2010-05-29T12:56:01Z</time>
      </trkpt>
      <trkpt lat="47.65445" lon="6.81455">
        <ele>626.5</ele>
        <time>2010-05-29T12:56:02Z</time>
      </trkpt>
      <trkpt lat="47.65439" lon="6.81443">
        <ele>624.5</ele>
        <time>2010-05-29T12:56:03Z</time>
      </trkpt>
      <trkpt lat="47.65433" lon="6.81432">
        <ele>624</ele>
        <time>2010-05-29T12:56:04Z</time>
      </trkpt>
      <trkpt lat="47.65429" lon="6.81419">
        <ele>623</ele>
        <time>2010-05-29T12:56:05Z</time>
      </trkpt>
      <trkpt lat="47.65425" lon="6.81408">
        <ele>623</ele>
        <time>2010-05-29T12:56:06Z</time>
      </trkpt>
      <trkpt lat="47.65421" lon="6.81397">
        <ele>622.5</ele>
        <time>2010-05-29T12:56:07Z</time>
      </trkpt>
      <trkpt lat="47.65421" lon="6.81385">
        <ele>622.5</ele>
        <time>2010-05-29T12:56:08Z</time>
      </trkpt>
      <trkpt lat="47.65421" lon="6.81365">
        <ele>622.5</ele>
        <time>2010-05-29T12:56:08Z</time>
      </trkpt>
      <trkpt lat="47.65421" lon="6.81353">
        <ele>622.5</ele>
        <time>2010-05-29T12:56:10Z</time>
      </trkpt>
      <trkpt lat="47.65421" lon="6.81342">
        <ele>622.5</ele>
        <time>2010-05-29T12:56:11Z</time>
      </trkpt>
      <trkpt lat="47.65423" lon="6.81317">
        <ele>623</ele>
        <time>2010-05-29T12:56:14Z</time>
      </trkpt>
      <trkpt lat="47.65422" lon="6.81305">
        <ele>623</ele>
        <time>2010-05-29T12:56:15Z</time>
      </trkpt>
      <trkpt lat="47.65423" lon="6.81292">
        <ele>622.5</ele>
        <time>2010-05-29T12:56:16Z</time>
      </trkpt>
      <trkpt lat="47.65424" lon="6.8128">
        <ele>622.5</ele>
        <time>2010-05-29T12:56:17Z</time>
      </trkpt>
      <trkpt lat="47.65424" lon="6.81268">
        <ele>623</ele>
        <time>2010-05-29T12:56:18Z</time>
      </trkpt>
      <trkpt lat="47.65425" lon="6.81256">
        <ele>623</ele>
        <time>2010-05-29T12:56:19Z</time>
      </trkpt>
      <trkpt lat="47.65427" lon="6.81244">
        <ele>623</ele>
        <time>2010-05-29T12:56:20Z</time>
      </trkpt>
      <trkpt lat="47.65428" lon="6.81232">
        <ele>623</ele>
        <time>2010-05-29T12:56:21Z</time>
      </trkpt>
      <trkpt lat="47.65431" lon="6.81218">
        <ele>623</ele>
        <time>2010-05-29T12:56:22Z</time>
      </trkpt>
      <trkpt lat="47.65432" lon="6.81206">
        <ele>623</ele>
        <time>2010-05-29T12:56:23Z</time>
      </trkpt>
      <trkpt lat="47.65432" lon="6.81193">
        <ele>622.5</ele>
        <time>2010-05-29T12:56:24Z</time>
      </trkpt>
      <trkpt lat="47.65432" lon="6.81178">
        <ele>622</ele>
        <time>2010-05-29T12:56:25Z</time>
      </trkpt>
      <trkpt lat="47.65431" lon="6.81165">
        <ele>621.5</ele>
        <time>2010-05-29T12:56:26Z</time>
      </trkpt>
      <trkpt lat="47.6543" lon="6.81151">
        <ele>621.5</ele>
        <time>2010-05-29T12:56:27Z</time>
      </trkpt>
      <trkpt lat="47.6543" lon="6.81137">
        <ele>622</ele>
        <time>2010-05-29T12:56:28Z</time>
      </trkpt>
      <trkpt lat="47.6543" lon="6.81123">
        <ele>621.5</ele>
        <time>2010-05-29T12:56:29Z</time>
      </trkpt>
      <trkpt lat="47.6543" lon="6.81109">
        <ele>621.5</ele>
        <time>2010-05-29T12:56:30Z</time>
      </trkpt>
      <trkpt lat="47.6543" lon="6.81095">
        <ele>621.5</ele>
        <time>2010-05-29T12:56:31Z</time>
      </trkpt>
      <trkpt lat="47.6543" lon="6.81082">
        <ele>621.5</ele>
        <time>2010-05-29T12:56:32Z</time>
      </trkpt>
      <trkpt lat="47.6543" lon="6.81068">
        <ele>621.5</ele>
        <time>2010-05-29T12:56:33Z</time>
      </trkpt>
      <trkpt lat="47.65431" lon="6.81055">
        <ele>621.5</ele>
        <time>2010-05-29T12:56:34Z</time>
      </trkpt>
      <trkpt lat="47.6543" lon="6.8104">
        <ele>620.5</ele>
        <time>2010-05-29T12:56:35Z</time>
      </trkpt>
      <trkpt lat="47.6543" lon="6.81026">
        <ele>620</ele>
        <time>2010-05-29T12:56:36Z</time>
      </trkpt>
      <trkpt lat="47.65429" lon="6.81012">
        <ele>620</ele>
        <time>2010-05-29T12:56:37Z</time>
      </trkpt>
      <trkpt lat="47.65428" lon="6.80997">
        <ele>619.5</ele>
        <time>2010-05-29T12:56:38Z</time>
      </trkpt>
      <trkpt lat="47.65427" lon="6.80983">
        <ele>619.5</ele>
        <time>2010-05-29T12:56:39Z</time>
      </trkpt>
      <trkpt lat="47.65426" lon="6.80969">
        <ele>619.5</ele>
        <time>2010-05-29T12:56:40Z</time>
      </trkpt>
      <trkpt lat="47.65426" lon="6.80955">
        <ele>619</ele>
        <time>2010-05-29T12:56:41Z</time>
      </trkpt>
      <trkpt lat="47.65427" lon="6.80941">
        <ele>618.5</ele>
        <time>2010-05-29T12:56:42Z</time>
      </trkpt>
      <trkpt lat="47.65428" lon="6.80928">
        <ele>617.5</ele>
        <time>2010-05-29T12:56:43Z</time>
      </trkpt>
      <trkpt lat="47.65429" lon="6.80914">
        <ele>617</ele>
        <time>2010-05-29T12:56:44Z</time>
      </trkpt>
      <trkpt lat="47.65428" lon="6.80901">
        <ele>616.5</ele>
        <time>2010-05-29T12:56:45Z</time>
      </trkpt>
      <trkpt lat="47.65429" lon="6.80887">
        <ele>615.5</ele>
        <time>2010-05-29T12:56:46Z</time>
      </trkpt>
      <trkpt lat="47.65428" lon="6.80873">
        <ele>615</ele>
        <time>2010-05-29T12:56:47Z</time>
      </trkpt>
      <trkpt lat="47.65428" lon="6.8086">
        <ele>614.5</ele>
        <time>2010-05-29T12:56:48Z</time>
      </trkpt>
      <trkpt lat="47.65427" lon="6.80848">
        <ele>614.5</ele>
        <time>2010-05-29T12:56:49Z</time>
      </trkpt>
      <trkpt lat="47.65425" lon="6.80837">
        <ele>614</ele>
        <time>2010-05-29T12:56:50Z</time>
      </trkpt>
      <trkpt lat="47.65422" lon="6.80828">
        <ele>614</ele>
        <time>2010-05-29T12:56:51Z</time>
      </trkpt>
      <trkpt lat="47.65417" lon="6.8082">
        <ele>614</ele>
        <time>2010-05-29T12:56:52Z</time>
      </trkpt>
      <trkpt lat="47.65412" lon="6.80813">
        <ele>614</ele>
        <time>2010-05-29T12:56:53Z</time>
      </trkpt>
      <trkpt lat="47.65406" lon="6.80807">
        <ele>613.5</ele>
        <time>2010-05-29T12:56:54Z</time>
      </trkpt>
      <trkpt lat="47.65399" lon="6.80802">
        <ele>613</ele>
        <time>2010-05-29T12:56:55Z</time>
      </trkpt>
      <trkpt lat="47.65393" lon="6.80795">
        <ele>611.5</ele>
        <time>2010-05-29T12:56:56Z</time>
      </trkpt>
      <trkpt lat="47.65385" lon="6.80791">
        <ele>611.5</ele>
        <time>2010-05-29T12:56:57Z</time>
      </trkpt>
      <trkpt lat="47.65377" lon="6.80786">
        <ele>611</ele>
        <time>2010-05-29T12:56:58Z</time>
      </trkpt>
      <trkpt lat="47.6537" lon="6.80781">
        <ele>610.5</ele>
        <time>2010-05-29T12:56:59Z</time>
      </trkpt>
      <trkpt lat="47.65362" lon="6.80776">
        <ele>610</ele>
        <time>2010-05-29T12:57:00Z</time>
      </trkpt>
      <trkpt lat="47.65354" lon="6.80771">
        <ele>610</ele>
        <time>2010-05-29T12:57:01Z</time>
      </trkpt>
      <trkpt lat="47.65346" lon="6.80766">
        <ele>610</ele>
        <time>2010-05-29T12:57:02Z</time>
      </trkpt>
      <trkpt lat="47.65338" lon="6.80761">
        <ele>610</ele>
        <time>2010-05-29T12:57:03Z</time>
      </trkpt>
      <trkpt lat="47.65331" lon="6.80755">
        <ele>609.5</ele>
        <time>2010-05-29T12:57:04Z</time>
      </trkpt>
      <trkpt lat="47.65323" lon="6.8075">
        <ele>609</ele>
        <time>2010-05-29T12:57:05Z</time>
      </trkpt>
      <trkpt lat="47.65315" lon="6.80745">
        <ele>609</ele>
        <time>2010-05-29T12:57:06Z</time>
      </trkpt>
      <trkpt lat="47.65308" lon="6.8074">
        <ele>608.5</ele>
        <time>2010-05-29T12:57:07Z</time>
      </trkpt>
      <trkpt lat="47.65302" lon="6.80736">
        <ele>608.5</ele>
        <time>2010-05-29T12:57:08Z</time>
      </trkpt>
      <trkpt lat="47.65289" lon="6.80729">
        <ele>609</ele>
        <time>2010-05-29T12:57:08Z</time>
      </trkpt>
      <trkpt lat="47.65292" lon="6.80716">
        <ele>572</ele>
        <time>2010-05-29T12:57:15Z</time>
      </trkpt>
      <trkpt lat="47.65252" lon="6.80682">
        <ele>547</ele>
        <time>2010-05-29T12:57:16Z</time>
      </trkpt>
      <trkpt lat="47.65255" lon="6.80704">
        <ele>606.5</ele>
        <time>2010-05-29T12:57:17Z</time>
      </trkpt>
      <trkpt lat="47.6525" lon="6.80701">
        <ele>606</ele>
        <time>2010-05-29T12:57:18Z</time>
      </trkpt>
      <trkpt lat="47.65247" lon="6.80694">
        <ele>605.5</ele>
        <time>2010-05-29T12:57:21Z</time>
      </trkpt>
      <trkpt lat="47.65243" lon="6.80688">
        <ele>604.5</ele>
        <time>2010-05-29T12:57:24Z</time>
      </trkpt>
      <trkpt lat="47.65238" lon="6.80683">
        <ele>602.5</ele>
        <time>2010-05-29T12:57:26Z</time>
      </trkpt>
      <trkpt lat="47.65233" lon="6.80681">
        <ele>603.5</ele>
        <time>2010-05-29T12:57:28Z</time>
      </trkpt>
      <trkpt lat="47.65227" lon="6.8068">
        <ele>604.5</ele>
        <time>2010-05-29T12:57:30Z</time>
      </trkpt>
      <trkpt lat="47.65222" lon="6.80679">
        <ele>604</ele>
        <time>2010-05-29T12:57:32Z</time>
      </trkpt>
      <trkpt lat="47.65217" lon="6.80677">
        <ele>601</ele>
        <time>2010-05-29T12:57:34Z</time>
      </trkpt>
      <trkpt lat="47.65212" lon="6.80673">
        <ele>598.5</ele>
        <time>2010-05-29T12:57:37Z</time>
      </trkpt>
      <trkpt lat="47.65207" lon="6.8067">
        <ele>594</ele>
        <time>2010-05-29T12:57:39Z</time>
      </trkpt>
      <trkpt lat="47.65201" lon="6.80669">
        <ele>592</ele>
        <time>2010-05-29T12:57:42Z</time>
      </trkpt>
      <trkpt lat="47.65196" lon="6.80669">
        <ele>592</ele>
        <time>2010-05-29T12:57:44Z</time>
      </trkpt>
      <trkpt lat="47.65189" lon="6.8067">
        <ele>591.5</ele>
        <time>2010-05-29T12:57:47Z</time>
      </trkpt>
      <trkpt lat="47.65184" lon="6.80669">
        <ele>592</ele>
        <time>2010-05-29T12:57:50Z</time>
      </trkpt>
      <trkpt lat="47.65177" lon="6.80669">
        <ele>591</ele>
        <time>2010-05-29T12:57:53Z</time>
      </trkpt>
      <trkpt lat="47.65171" lon="6.80669">
        <ele>592</ele>
        <time>2010-05-29T12:57:56Z</time>
      </trkpt>
      <trkpt lat="47.65165" lon="6.80669">
        <ele>591.5</ele>
        <time>2010-05-29T12:57:59Z</time>
      </trkpt>
      <trkpt lat="47.65159" lon="6.80669">
        <ele>592</ele>
        <time>2010-05-29T12:58:02Z</time>
      </trkpt>
      <trkpt lat="47.65154" lon="6.80668">
        <ele>593</ele>
        <time>2010-05-29T12:58:05Z</time>
      </trkpt>
      <trkpt lat="47.65148" lon="6.80668">
        <ele>594</ele>
        <time>2010-05-29T12:58:08Z</time>
      </trkpt>
      <trkpt lat="47.65121" lon="6.80655">
        <ele>576.5</ele>
        <time>2010-05-29T12:58:14Z</time>
      </trkpt>
      <trkpt lat="47.65124" lon="6.80643">
        <ele>584.5</ele>
        <time>2010-05-29T12:58:15Z</time>
      </trkpt>
      <trkpt lat="47.6513" lon="6.80665">
        <ele>597.5</ele>
        <time>2010-05-29T12:58:16Z</time>
      </trkpt>
      <trkpt lat="47.65124" lon="6.80665">
        <ele>598.5</ele>
        <time>2010-05-29T12:58:20Z</time>
      </trkpt>
      <trkpt lat="47.6512" lon="6.80663">
        <ele>599.5</ele>
        <time>2010-05-29T12:58:22Z</time>
      </trkpt>
      <trkpt lat="47.65115" lon="6.80663">
        <ele>600</ele>
        <time>2010-05-29T12:58:24Z</time>
      </trkpt>
      <trkpt lat="47.65109" lon="6.80662">
        <ele>600.5</ele>
        <time>2010-05-29T12:58:27Z</time>
      </trkpt>
      <trkpt lat="47.65102" lon="6.8066">
        <ele>600.5</ele>
        <time>2010-05-29T12:58:30Z</time>
      </trkpt>
      <trkpt lat="47.65096" lon="6.80658">
        <ele>600</ele>
        <time>2010-05-29T12:58:32Z</time>
      </trkpt>
      <trkpt lat="47.6509" lon="6.80655">
        <ele>600.5</ele>
        <time>2010-05-29T12:58:35Z</time>
      </trkpt>
      <trkpt lat="47.65084" lon="6.80652">
        <ele>599.5</ele>
        <time>2010-05-29T12:58:38Z</time>
      </trkpt>
      <trkpt lat="47.65078" lon="6.80651">
        <ele>597.5</ele>
        <time>2010-05-29T12:58:40Z</time>
      </trkpt>
      <trkpt lat="47.65075" lon="6.80645">
        <ele>600</ele>
        <time>2010-05-29T12:58:44Z</time>
      </trkpt>
      <trkpt lat="47.65071" lon="6.8064">
        <ele>603.5</ele>
        <time>2010-05-29T12:58:48Z</time>
      </trkpt>
      <trkpt lat="47.65068" lon="6.80634">
        <ele>605</ele>
        <time>2010-05-29T12:58:51Z</time>
      </trkpt>
      <trkpt lat="47.65067" lon="6.80627">
        <ele>607.5</ele>
        <time>2010-05-29T12:58:54Z</time>
      </trkpt>
      <trkpt lat="47.65064" lon="6.8062">
        <ele>609</ele>
        <time>2010-05-29T12:58:57Z</time>
      </trkpt>
      <trkpt lat="47.65059" lon="6.80613">
        <ele>611</ele>
        <time>2010-05-29T12:59:00Z</time>
      </trkpt>
      <trkpt lat="47.65055" lon="6.80609">
        <ele>611.5</ele>
        <time>2010-05-29T12:59:02Z</time>
      </trkpt>
      <trkpt lat="47.65049" lon="6.80605">
        <ele>612.5</ele>
        <time>2010-05-29T12:59:04Z</time>
      </trkpt>
      <trkpt lat="47.65044" lon="6.80599">
        <ele>612</ele>
        <time>2010-05-29T12:59:07Z</time>
      </trkpt>
      <trkpt lat="47.65039" lon="6.80597">
        <ele>612.5</ele>
        <time>2010-05-29T12:59:08Z</time>
      </trkpt>
      <trkpt lat="47.65035" lon="6.80593">
        <ele>611.5</ele>
        <time>2010-05-29T12:59:13Z</time>
      </trkpt>
      <trkpt lat="47.65028" lon="6.80591">
        <ele>610.5</ele>
        <time>2010-05-29T12:59:15Z</time>
      </trkpt>
      <trkpt lat="47.65023" lon="6.80588">
        <ele>611</ele>
        <time>2010-05-29T12:59:17Z</time>
      </trkpt>
      <trkpt lat="47.65015" lon="6.80583">
        <ele>611.5</ele>
        <time>2010-05-29T12:59:19Z</time>
      </trkpt>
      <trkpt lat="47.65008" lon="6.80576">
        <ele>612.5</ele>
        <time>2010-05-29T12:59:21Z</time>
      </trkpt>
      <trkpt lat="47.65003" lon="6.80573">
        <ele>613.5</ele>
        <time>2010-05-29T12:59:22Z</time>
      </trkpt>
      <trkpt lat="47.64999" lon="6.80569">
        <ele>614</ele>
        <time>2010-05-29T12:59:23Z</time>
      </trkpt>
      <trkpt lat="47.64995" lon="6.80564">
        <ele>614.5</ele>
        <time>2010-05-29T12:59:24Z</time>
      </trkpt>
      <trkpt lat="47.64991" lon="6.80559">
        <ele>614</ele>
        <time>2010-05-29T12:59:25Z</time>
      </trkpt>
      <trkpt lat="47.64986" lon="6.80553">
        <ele>614.5</ele>
        <time>2010-05-29T12:59:26Z</time>
      </trkpt>
      <trkpt lat="47.64983" lon="6.80547">
        <ele>614.5</ele>
        <time>2010-05-29T12:59:27Z</time>
      </trkpt>
      <trkpt lat="47.6498" lon="6.8054">
        <ele>614.5</ele>
        <time>2010-05-29T12:59:28Z</time>
      </trkpt>
      <trkpt lat="47.64975" lon="6.80533">
        <ele>614.5</ele>
        <time>2010-05-29T12:59:29Z</time>
      </trkpt>
      <trkpt lat="47.64969" lon="6.80525">
        <ele>615</ele>
        <time>2010-05-29T12:59:30Z</time>
      </trkpt>
      <trkpt lat="47.64964" lon="6.80517">
        <ele>615</ele>
        <time>2010-05-29T12:59:31Z</time>
      </trkpt>
      <trkpt lat="47.6496" lon="6.80509">
        <ele>615</ele>
        <time>2010-05-29T12:59:32Z</time>
      </trkpt>
      <trkpt lat="47.64955" lon="6.80503">
        <ele>615.5</ele>
        <time>2010-05-29T12:59:33Z</time>
      </trkpt>
      <trkpt lat="47.6495" lon="6.80494">
        <ele>615</ele>
        <time>2010-05-29T12:59:34Z</time>
      </trkpt>
      <trkpt lat="47.64946" lon="6.80485">
        <ele>615</ele>
        <time>2010-05-29T12:59:35Z</time>
      </trkpt>
      <trkpt lat="47.64942" lon="6.80476">
        <ele>614.5</ele>
        <time>2010-05-29T12:59:36Z</time>
      </trkpt>
      <trkpt lat="47.64937" lon="6.80468">
        <ele>614</ele>
        <time>2010-05-29T12:59:37Z</time>
      </trkpt>
      <trkpt lat="47.64933" lon="6.8046">
        <ele>613.5</ele>
        <time>2010-05-29T12:59:38Z</time>
      </trkpt>
      <trkpt lat="47.64928" lon="6.80452">
        <ele>613</ele>
        <time>2010-05-29T12:59:39Z</time>
      </trkpt>
      <trkpt lat="47.64922" lon="6.80445">
        <ele>613</ele>
        <time>2010-05-29T12:59:40Z</time>
      </trkpt>
      <trkpt lat="47.64918" lon="6.80436">
        <ele>613</ele>
        <time>2010-05-29T12:59:41Z</time>
      </trkpt>
      <trkpt lat="47.64915" lon="6.80425">
        <ele>613</ele>
        <time>2010-05-29T12:59:42Z</time>
      </trkpt>
      <trkpt lat="47.64913" lon="6.80414">
        <ele>613</ele>
        <time>2010-05-29T12:59:43Z</time>
      </trkpt>
      <trkpt lat="47.6491" lon="6.80403">
        <ele>613</ele>
        <time>2010-05-29T12:59:44Z</time>
      </trkpt>
      <trkpt lat="47.64907" lon="6.80392">
        <ele>612.5</ele>
        <time>2010-05-29T12:59:45Z</time>
      </trkpt>
      <trkpt lat="47.64901" lon="6.80382">
        <ele>612</ele>
        <time>2010-05-29T12:59:46Z</time>
      </trkpt>
      <trkpt lat="47.64895" lon="6.80372">
        <ele>611.5</ele>
        <time>2010-05-29T12:59:47Z</time>
      </trkpt>
      <trkpt lat="47.64891" lon="6.80364">
        <ele>611</ele>
        <time>2010-05-29T12:59:48Z</time>
      </trkpt>
      <trkpt lat="47.64887" lon="6.80356">
        <ele>611</ele>
        <time>2010-05-29T12:59:49Z</time>
      </trkpt>
      <trkpt lat="47.64885" lon="6.8035">
        <ele>610.5</ele>
        <time>2010-05-29T12:59:50Z</time>
      </trkpt>
      <trkpt lat="47.64882" lon="6.80343">
        <ele>610</ele>
        <time>2010-05-29T12:59:51Z</time>
      </trkpt>
      <trkpt lat="47.64878" lon="6.80336">
        <ele>609</ele>
        <time>2010-05-29T12:59:52Z</time>
      </trkpt>
      <trkpt lat="47.64877" lon="6.8033">
        <ele>607.5</ele>
        <time>2010-05-29T12:59:53Z</time>
      </trkpt>
      <trkpt lat="47.64874" lon="6.80317">
        <ele>607</ele>
        <time>2010-05-29T12:59:55Z</time>
      </trkpt>
      <trkpt lat="47.64872" lon="6.8031">
        <ele>606</ele>
        <time>2010-05-29T12:59:56Z</time>
      </trkpt>
      <trkpt lat="47.64869" lon="6.80305">
        <ele>604.5</ele>
        <time>2010-05-29T12:59:57Z</time>
      </trkpt>
      <trkpt lat="47.64866" lon="6.80294">
        <ele>602</ele>
        <time>2010-05-29T12:59:59Z</time>
      </trkpt>
      <trkpt lat="47.64861" lon="6.80285">
        <ele>600.5</ele>
        <time>2010-05-29T13:00:01Z</time>
      </trkpt>
      <trkpt lat="47.64858" lon="6.8028">
        <ele>598.5</ele>
        <time>2010-05-29T13:00:02Z</time>
      </trkpt>
      <trkpt lat="47.64855" lon="6.80274">
        <ele>598.5</ele>
        <time>2010-05-29T13:00:03Z</time>
      </trkpt>
      <trkpt lat="47.64852" lon="6.80268">
        <ele>598</ele>
        <time>2010-05-29T13:00:04Z</time>
      </trkpt>
      <trkpt lat="47.64849" lon="6.80261">
        <ele>597</ele>
        <time>2010-05-29T13:00:05Z</time>
      </trkpt>
      <trkpt lat="47.64845" lon="6.80253">
        <ele>596.5</ele>
        <time>2010-05-29T13:00:06Z</time>
      </trkpt>
      <trkpt lat="47.64843" lon="6.80246">
        <ele>596.5</ele>
        <time>2010-05-29T13:00:07Z</time>
      </trkpt>
      <trkpt lat="47.6484" lon="6.80238">
        <ele>597</ele>
        <time>2010-05-29T13:00:08Z</time>
      </trkpt>
      <trkpt lat="47.64836" lon="6.80226">
        <ele>598</ele>
        <time>2010-05-29T13:00:08Z</time>
      </trkpt>
      <trkpt lat="47.64833" lon="6.8022">
        <ele>598</ele>
        <time>2010-05-29T13:00:10Z</time>
      </trkpt>
      <trkpt lat="47.64831" lon="6.80212">
        <ele>598</ele>
        <time>2010-05-29T13:00:11Z</time>
      </trkpt>
      <trkpt lat="47.64824" lon="6.80188">
        <ele>598</ele>
        <time>2010-05-29T13:00:14Z</time>
      </trkpt>
      <trkpt lat="47.64823" lon="6.80178">
        <ele>598</ele>
        <time>2010-05-29T13:00:15Z</time>
      </trkpt>
      <trkpt lat="47.64822" lon="6.80167">
        <ele>597.5</ele>
        <time>2010-05-29T13:00:16Z</time>
      </trkpt>
      <trkpt lat="47.64821" lon="6.80158">
        <ele>596.5</ele>
        <time>2010-05-29T13:00:17Z</time>
      </trkpt>
      <trkpt lat="47.6482" lon="6.80146">
        <ele>596.5</ele>
        <time>2010-05-29T13:00:18Z</time>
      </trkpt>
      <trkpt lat="47.64819" lon="6.80133">
        <ele>595</ele>
        <time>2010-05-29T13:00:19Z</time>
      </trkpt>
      <trkpt lat="47.64817" lon="6.80124">
        <ele>594.5</ele>
        <time>2010-05-29T13:00:20Z</time>
      </trkpt>
      <trkpt lat="47.64814" lon="6.80114">
        <ele>593.5</ele>
        <time>2010-05-29T13:00:21Z</time>
      </trkpt>
      <trkpt lat="47.64812" lon="6.80104">
        <ele>592</ele>
        <time>2010-05-29T13:00:22Z</time>
      </trkpt>
      <trkpt lat="47.64808" lon="6.80096">
        <ele>590.5</ele>
        <time>2010-05-29T13:00:23Z</time>
      </trkpt>
      <trkpt lat="47.64804" lon="6.80089">
        <ele>589.5</ele>
        <time>2010-05-29T13:00:24Z</time>
      </trkpt>
      <trkpt lat="47.648" lon="6.80081">
        <ele>588.5</ele>
        <time>2010-05-29T13:00:25Z</time>
      </trkpt>
      <trkpt lat="47.64796" lon="6.80074">
        <ele>588.5</ele>
        <time>2010-05-29T13:00:26Z</time>
      </trkpt>
      <trkpt lat="47.64793" lon="6.80066">
        <ele>588</ele>
        <time>2010-05-29T13:00:27Z</time>
      </trkpt>
      <trkpt lat="47.64789" lon="6.80059">
        <ele>587</ele>
        <time>2010-05-29T13:00:28Z</time>
      </trkpt>
      <trkpt lat="47.64785" lon="6.80053">
        <ele>586.5</ele>
        <time>2010-05-29T13:00:29Z</time>
      </trkpt>
      <trkpt lat="47.64781" lon="6.80045">
        <ele>586</ele>
        <time>2010-05-29T13:00:30Z</time>
      </trkpt>
      <trkpt lat="47.64777" lon="6.80037">
        <ele>585.5</ele>
        <time>2010-05-29T13:00:31Z</time>
      </trkpt>
      <trkpt lat="47.64773" lon="6.8003">
        <ele>585.5</ele>
        <time>2010-05-29T13:00:32Z</time>
      </trkpt>
      <trkpt lat="47.64768" lon="6.80023">
        <ele>585</ele>
        <time>2010-05-29T13:00:33Z</time>
      </trkpt>
      <trkpt lat="47.64764" lon="6.80015">
        <ele>584</ele>
        <time>2010-05-29T13:00:34Z</time>
      </trkpt>
      <trkpt lat="47.6476" lon="6.80009">
        <ele>584</ele>
        <time>2010-05-29T13:00:35Z</time>
      </trkpt>
      <trkpt lat="47.64756" lon="6.80003">
        <ele>584</ele>
        <time>2010-05-29T13:00:36Z</time>
      </trkpt>
      <trkpt lat="47.64753" lon="6.79997">
        <ele>584</ele>
        <time>2010-05-29T13:00:37Z</time>
      </trkpt>
      <trkpt lat="47.64749" lon="6.7999">
        <ele>584</ele>
        <time>2010-05-29T13:00:38Z</time>
      </trkpt>
      <trkpt lat="47.64747" lon="6.79982">
        <ele>582.5</ele>
        <time>2010-05-29T13:00:39Z</time>
      </trkpt>
      <trkpt lat="47.64743" lon="6.79977">
        <ele>582.5</ele>
        <time>2010-05-29T13:00:40Z</time>
      </trkpt>
      <trkpt lat="47.64739" lon="6.79972">
        <ele>581.5</ele>
        <time>2010-05-29T13:00:41Z</time>
      </trkpt>
      <trkpt lat="47.64735" lon="6.79967">
        <ele>580</ele>
        <time>2010-05-29T13:00:42Z</time>
      </trkpt>
      <trkpt lat="47.64731" lon="6.79962">
        <ele>579.5</ele>
        <time>2010-05-29T13:00:43Z</time>
      </trkpt>
      <trkpt lat="47.64727" lon="6.79956">
        <ele>579</ele>
        <time>2010-05-29T13:00:44Z</time>
      </trkpt>
      <trkpt lat="47.64721" lon="6.7995">
        <ele>578.5</ele>
        <time>2010-05-29T13:00:45Z</time>
      </trkpt>
      <trkpt lat="47.64715" lon="6.79942">
        <ele>577.5</ele>
        <time>2010-05-29T13:00:46Z</time>
      </trkpt>
      <trkpt lat="47.6471" lon="6.79933">
        <ele>577</ele>
        <time>2010-05-29T13:00:47Z</time>
      </trkpt>
      <trkpt lat="47.64706" lon="6.79924">
        <ele>576</ele>
        <time>2010-05-29T13:00:48Z</time>
      </trkpt>
      <trkpt lat="47.64702" lon="6.79915">
        <ele>574.5</ele>
        <time>2010-05-29T13:00:49Z</time>
      </trkpt>
      <trkpt lat="47.64698" lon="6.79907">
        <ele>574</ele>
        <time>2010-05-29T13:00:50Z</time>
      </trkpt>
      <trkpt lat="47.64694" lon="6.799">
        <ele>573</ele>
        <time>2010-05-29T13:00:51Z</time>
      </trkpt>
      <trkpt lat="47.6469" lon="6.79893">
        <ele>573</ele>
        <time>2010-05-29T13:00:52Z</time>
      </trkpt>
      <trkpt lat="47.64686" lon="6.79889">
        <ele>573</ele>
        <time>2010-05-29T13:00:53Z</time>
      </trkpt>
      <trkpt lat="47.6468" lon="6.79879">
        <ele>573</ele>
        <time>2010-05-29T13:00:55Z</time>
      </trkpt>
      <trkpt lat="47.64677" lon="6.79868">
        <ele>572</ele>
        <time>2010-05-29T13:00:57Z</time>
      </trkpt>
      <trkpt lat="47.64673" lon="6.79861">
        <ele>571</ele>
        <time>2010-05-29T13:00:58Z</time>
      </trkpt>
      <trkpt lat="47.6467" lon="6.79853">
        <ele>570</ele>
        <time>2010-05-29T13:00:59Z</time>
      </trkpt>
      <trkpt lat="47.64666" lon="6.79846">
        <ele>570</ele>
        <time>2010-05-29T13:01:00Z</time>
      </trkpt>
      <trkpt lat="47.64662" lon="6.79838">
        <ele>570</ele>
        <time>2010-05-29T13:01:01Z</time>
      </trkpt>
      <trkpt lat="47.64658" lon="6.7983">
        <ele>569.5</ele>
        <time>2010-05-29T13:01:02Z</time>
      </trkpt>
      <trkpt lat="47.64654" lon="6.79823">
        <ele>569</ele>
        <time>2010-05-29T13:01:03Z</time>
      </trkpt>
      <trkpt lat="47.64651" lon="6.79817">
        <ele>568.5</ele>
        <time>2010-05-29T13:01:04Z</time>
      </trkpt>
      <trkpt lat="47.64648" lon="6.79813">
        <ele>568.5</ele>
        <time>2010-05-29T13:01:05Z</time>
      </trkpt>
      <trkpt lat="47.64641" lon="6.79804">
        <ele>569</ele>
        <time>2010-05-29T13:01:07Z</time>
      </trkpt>
      <trkpt lat="47.64636" lon="6.79794">
        <ele>569.5</ele>
        <time>2010-05-29T13:01:08Z</time>
      </trkpt>
      <trkpt lat="47.64632" lon="6.79789">
        <ele>570</ele>
        <time>2010-05-29T13:01:11Z</time>
      </trkpt>
      <trkpt lat="47.6463" lon="6.79783">
        <ele>570</ele>
        <time>2010-05-29T13:01:13Z</time>
      </trkpt>
      <trkpt lat="47.64626" lon="6.7978">
        <ele>570.5</ele>
        <time>2010-05-29T13:01:14Z</time>
      </trkpt>
      <trkpt lat="47.64621" lon="6.79774">
        <ele>570</ele>
        <time>2010-05-29T13:01:15Z</time>
      </trkpt>
      <trkpt lat="47.64617" lon="6.79768">
        <ele>570</ele>
        <time>2010-05-29T13:01:16Z</time>
      </trkpt>
      <trkpt lat="47.64613" lon="6.7976">
        <ele>569.5</ele>
        <time>2010-05-29T13:01:17Z</time>
      </trkpt>
      <trkpt lat="47.6461" lon="6.79752">
        <ele>569</ele>
        <time>2010-05-29T13:01:18Z</time>
      </trkpt>
      <trkpt lat="47.64606" lon="6.79744">
        <ele>569</ele>
        <time>2010-05-29T13:01:19Z</time>
      </trkpt>
      <trkpt lat="47.64603" lon="6.79738">
        <ele>568.5</ele>
        <time>2010-05-29T13:01:20Z</time>
      </trkpt>
      <trkpt lat="47.64601" lon="6.79727">
        <ele>565</ele>
        <time>2010-05-29T13:01:22Z</time>
      </trkpt>
      <trkpt lat="47.64596" lon="6.79722">
        <ele>560</ele>
        <time>2010-05-29T13:01:24Z</time>
      </trkpt>
      <trkpt lat="47.64588" lon="6.7972">
        <ele>559</ele>
        <time>2010-05-29T13:01:26Z</time>
      </trkpt>
      <trkpt lat="47.64583" lon="6.79716">
        <ele>558</ele>
        <time>2010-05-29T13:01:27Z</time>
      </trkpt>
      <trkpt lat="47.64577" lon="6.79712">
        <ele>557</ele>
        <time>2010-05-29T13:01:28Z</time>
      </trkpt>
      <trkpt lat="47.64572" lon="6.79708">
        <ele>556</ele>
        <time>2010-05-29T13:01:29Z</time>
      </trkpt>
      <trkpt lat="47.64568" lon="6.79702">
        <ele>555.5</ele>
        <time>2010-05-29T13:01:30Z</time>
      </trkpt>
      <trkpt lat="47.64564" lon="6.79694">
        <ele>555</ele>
        <time>2010-05-29T13:01:31Z</time>
      </trkpt>
      <trkpt lat="47.64561" lon="6.79686">
        <ele>555</ele>
        <time>2010-05-29T13:01:32Z</time>
      </trkpt>
      <trkpt lat="47.64558" lon="6.79678">
        <ele>554</ele>
        <time>2010-05-29T13:01:33Z</time>
      </trkpt>
      <trkpt lat="47.64557" lon="6.79669">
        <ele>553.5</ele>
        <time>2010-05-29T13:01:34Z</time>
      </trkpt>
      <trkpt lat="47.64554" lon="6.79659">
        <ele>552.5</ele>
        <time>2010-05-29T13:01:35Z</time>
      </trkpt>
      <trkpt lat="47.64552" lon="6.7965">
        <ele>551.5</ele>
        <time>2010-05-29T13:01:36Z</time>
      </trkpt>
      <trkpt lat="47.6455" lon="6.79639">
        <ele>550</ele>
        <time>2010-05-29T13:01:37Z</time>
      </trkpt>
      <trkpt lat="47.64548" lon="6.79629">
        <ele>548.5</ele>
        <time>2010-05-29T13:01:38Z</time>
      </trkpt>
      <trkpt lat="47.64546" lon="6.7962">
        <ele>547</ele>
        <time>2010-05-29T13:01:39Z</time>
      </trkpt>
      <trkpt lat="47.64542" lon="6.79612">
        <ele>545.5</ele>
        <time>2010-05-29T13:01:40Z</time>
      </trkpt>
      <trkpt lat="47.6454" lon="6.79604">
        <ele>544.5</ele>
        <time>2010-05-29T13:01:41Z</time>
      </trkpt>
      <trkpt lat="47.64538" lon="6.79597">
        <ele>543.5</ele>
        <time>2010-05-29T13:01:42Z</time>
      </trkpt>
      <trkpt lat="47.64533" lon="6.79591">
        <ele>542.5</ele>
        <time>2010-05-29T13:01:43Z</time>
      </trkpt>
      <trkpt lat="47.64529" lon="6.79585">
        <ele>541</ele>
        <time>2010-05-29T13:01:44Z</time>
      </trkpt>
      <trkpt lat="47.64525" lon="6.79579">
        <ele>540</ele>
        <time>2010-05-29T13:01:45Z</time>
      </trkpt>
      <trkpt lat="47.6452" lon="6.79571">
        <ele>536.5</ele>
        <time>2010-05-29T13:01:46Z</time>
      </trkpt>
      <trkpt lat="47.64513" lon="6.79565">
        <ele>534.5</ele>
        <time>2010-05-29T13:01:47Z</time>
      </trkpt>
      <trkpt lat="47.64507" lon="6.79558">
        <ele>532.5</ele>
        <time>2010-05-29T13:01:48Z</time>
      </trkpt>
      <trkpt lat="47.64501" lon="6.79554">
        <ele>529.5</ele>
        <time>2010-05-29T13:01:49Z</time>
      </trkpt>
      <trkpt lat="47.64496" lon="6.7955">
        <ele>526.5</ele>
        <time>2010-05-29T13:01:50Z</time>
      </trkpt>
      <trkpt lat="47.64488" lon="6.79548">
        <ele>520</ele>
        <time>2010-05-29T13:01:52Z</time>
      </trkpt>
      <trkpt lat="47.64482" lon="6.7955">
        <ele>517.5</ele>
        <time>2010-05-29T13:01:53Z</time>
      </trkpt>
      <trkpt lat="47.64477" lon="6.79551">
        <ele>515</ele>
        <time>2010-05-29T13:01:54Z</time>
      </trkpt>
      <trkpt lat="47.64471" lon="6.79552">
        <ele>512</ele>
        <time>2010-05-29T13:01:55Z</time>
      </trkpt>
      <trkpt lat="47.64465" lon="6.79552">
        <ele>511</ele>
        <time>2010-05-29T13:01:56Z</time>
      </trkpt>
      <trkpt lat="47.64459" lon="6.79551">
        <ele>509</ele>
        <time>2010-05-29T13:01:57Z</time>
      </trkpt>
      <trkpt lat="47.64452" lon="6.79551">
        <ele>506</ele>
        <time>2010-05-29T13:01:58Z</time>
      </trkpt>
      <trkpt lat="47.64446" lon="6.79549">
        <ele>504</ele>
        <time>2010-05-29T13:01:59Z</time>
      </trkpt>
      <trkpt lat="47.6444" lon="6.79545">
        <ele>501.5</ele>
        <time>2010-05-29T13:02:00Z</time>
      </trkpt>
      <trkpt lat="47.64434" lon="6.79541">
        <ele>499.5</ele>
        <time>2010-05-29T13:02:01Z</time>
      </trkpt>
      <trkpt lat="47.64428" lon="6.79536">
        <ele>497.5</ele>
        <time>2010-05-29T13:02:02Z</time>
      </trkpt>
      <trkpt lat="47.64423" lon="6.79531">
        <ele>495</ele>
        <time>2010-05-29T13:02:03Z</time>
      </trkpt>
      <trkpt lat="47.64418" lon="6.79526">
        <ele>493.5</ele>
        <time>2010-05-29T13:02:04Z</time>
      </trkpt>
      <trkpt lat="47.64414" lon="6.7952">
        <ele>492.5</ele>
        <time>2010-05-29T13:02:05Z</time>
      </trkpt>
      <trkpt lat="47.64411" lon="6.79514">
        <ele>491.5</ele>
        <time>2010-05-29T13:02:06Z</time>
      </trkpt>
      <trkpt lat="47.64408" lon="6.79509">
        <ele>490.5</ele>
        <time>2010-05-29T13:02:07Z</time>
      </trkpt>
      <trkpt lat="47.64403" lon="6.79504">
        <ele>488.5</ele>
        <time>2010-05-29T13:02:08Z</time>
      </trkpt>
      <trkpt lat="47.64393" lon="6.79497">
        <ele>488.5</ele>
        <time>2010-05-29T13:02:08Z</time>
      </trkpt>
      <trkpt lat="47.6439" lon="6.79492">
        <ele>485</ele>
        <time>2010-05-29T13:02:10Z</time>
      </trkpt>
      <trkpt lat="47.64385" lon="6.79488">
        <ele>482.5</ele>
        <time>2010-05-29T13:02:11Z</time>
      </trkpt>
      <trkpt lat="47.64375" lon="6.79486">
        <ele>481</ele>
        <time>2010-05-29T13:02:13Z</time>
      </trkpt>
      <trkpt lat="47.6437" lon="6.79482">
        <ele>480.5</ele>
        <time>2010-05-29T13:02:14Z</time>
      </trkpt>
      <trkpt lat="47.64365" lon="6.79475">
        <ele>478.5</ele>
        <time>2010-05-29T13:02:15Z</time>
      </trkpt>
      <trkpt lat="47.64359" lon="6.7947">
        <ele>476</ele>
        <time>2010-05-29T13:02:16Z</time>
      </trkpt>
      <trkpt lat="47.64353" lon="6.79467">
        <ele>471</ele>
        <time>2010-05-29T13:02:17Z</time>
      </trkpt>
      <trkpt lat="47.64344" lon="6.79468">
        <ele>466</ele>
        <time>2010-05-29T13:02:18Z</time>
      </trkpt>
      <trkpt lat="47.64338" lon="6.79467">
        <ele>462</ele>
        <time>2010-05-29T13:02:19Z</time>
      </trkpt>
      <trkpt lat="47.64332" lon="6.79467">
        <ele>459</ele>
        <time>2010-05-29T13:02:20Z</time>
      </trkpt>
      <trkpt lat="47.64325" lon="6.79464">
        <ele>456</ele>
        <time>2010-05-29T13:02:21Z</time>
      </trkpt>
      <trkpt lat="47.6432" lon="6.79462">
        <ele>453.5</ele>
        <time>2010-05-29T13:02:22Z</time>
      </trkpt>
      <trkpt lat="47.64312" lon="6.79455">
        <ele>449</ele>
        <time>2010-05-29T13:02:24Z</time>
      </trkpt>
      <trkpt lat="47.64305" lon="6.79449">
        <ele>446</ele>
        <time>2010-05-29T13:02:26Z</time>
      </trkpt>
      <trkpt lat="47.64298" lon="6.79441">
        <ele>444</ele>
        <time>2010-05-29T13:02:28Z</time>
      </trkpt>
      <trkpt lat="47.64292" lon="6.79433">
        <ele>442.5</ele>
        <time>2010-05-29T13:02:30Z</time>
      </trkpt>
      <trkpt lat="47.64286" lon="6.79427">
        <ele>440</ele>
        <time>2010-05-29T13:02:32Z</time>
      </trkpt>
      <trkpt lat="47.64279" lon="6.79428">
        <ele>438.5</ele>
        <time>2010-05-29T13:02:34Z</time>
      </trkpt>
      <trkpt lat="47.64273" lon="6.79437">
        <ele>437.5</ele>
        <time>2010-05-29T13:02:36Z</time>
      </trkpt>
      <trkpt lat="47.6427" lon="6.79443">
        <ele>437</ele>
        <time>2010-05-29T13:02:37Z</time>
      </trkpt>
      <trkpt lat="47.64267" lon="6.79448">
        <ele>436.5</ele>
        <time>2010-05-29T13:02:38Z</time>
      </trkpt>
      <trkpt lat="47.64263" lon="6.79454">
        <ele>436</ele>
        <time>2010-05-29T13:02:39Z</time>
      </trkpt>
      <trkpt lat="47.64258" lon="6.79459">
        <ele>435.5</ele>
        <time>2010-05-29T13:02:40Z</time>
      </trkpt>
      <trkpt lat="47.64253" lon="6.79465">
        <ele>434.5</ele>
        <time>2010-05-29T13:02:41Z</time>
      </trkpt>
      <trkpt lat="47.64248" lon="6.79471">
        <ele>434</ele>
        <time>2010-05-29T13:02:42Z</time>
      </trkpt>
      <trkpt lat="47.64243" lon="6.79477">
        <ele>433.5</ele>
        <time>2010-05-29T13:02:43Z</time>
      </trkpt>
      <trkpt lat="47.64238" lon="6.79483">
        <ele>433.5</ele>
        <time>2010-05-29T13:02:44Z</time>
      </trkpt>
      <trkpt lat="47.64232" lon="6.79488">
        <ele>433</ele>
        <time>2010-05-29T13:02:45Z</time>
      </trkpt>
      <trkpt lat="47.64226" lon="6.79493">
        <ele>433</ele>
        <time>2010-05-29T13:02:46Z</time>
      </trkpt>
      <trkpt lat="47.64221" lon="6.79498">
        <ele>432.5</ele>
        <time>2010-05-29T13:02:47Z</time>
      </trkpt>
      <trkpt lat="47.64217" lon="6.79502">
        <ele>432</ele>
        <time>2010-05-29T13:02:48Z</time>
      </trkpt>
      <trkpt lat="47.64212" lon="6.79507">
        <ele>432</ele>
        <time>2010-05-29T13:02:49Z</time>
      </trkpt>
      <trkpt lat="47.64208" lon="6.79511">
        <ele>431.5</ele>
        <time>2010-05-29T13:02:50Z</time>
      </trkpt>
      <trkpt lat="47.64204" lon="6.79516">
        <ele>431</ele>
        <time>2010-05-29T13:02:51Z</time>
      </trkpt>
      <trkpt lat="47.642" lon="6.7952">
        <ele>431</ele>
        <time>2010-05-29T13:02:52Z</time>
      </trkpt>
      <trkpt lat="47.64196" lon="6.79524">
        <ele>430.5</ele>
        <time>2010-05-29T13:02:53Z</time>
      </trkpt>
      <trkpt lat="47.64192" lon="6.79528">
        <ele>430</ele>
        <time>2010-05-29T13:02:54Z</time>
      </trkpt>
      <trkpt lat="47.64188" lon="6.79532">
        <ele>429.5</ele>
        <time>2010-05-29T13:02:55Z</time>
      </trkpt>
      <trkpt lat="47.64181" lon="6.79537">
        <ele>429</ele>
        <time>2010-05-29T13:02:57Z</time>
      </trkpt>
      <trkpt lat="47.64176" lon="6.79536">
        <ele>428.5</ele>
        <time>2010-05-29T13:02:59Z</time>
      </trkpt>
      <trkpt lat="47.64169" lon="6.79534">
        <ele>427.5</ele>
        <time>2010-05-29T13:03:06Z</time>
      </trkpt>
      <trkpt lat="47.64163" lon="6.79533">
        <ele>427</ele>
        <time>2010-05-29T13:03:08Z</time>
      </trkpt>
      <trkpt lat="47.64157" lon="6.79533">
        <ele>426.5</ele>
        <time>2010-05-29T13:03:08Z</time>
      </trkpt>
      <trkpt lat="47.64151" lon="6.79536">
        <ele>426.5</ele>
        <time>2010-05-29T13:03:11Z</time>
      </trkpt>
      <trkpt lat="47.64148" lon="6.79543">
        <ele>426</ele>
        <time>2010-05-29T13:03:13Z</time>
      </trkpt>
      <trkpt lat="47.64141" lon="6.7955">
        <ele>425.5</ele>
        <time>2010-05-29T13:03:15Z</time>
      </trkpt>
      <trkpt lat="47.64135" lon="6.79558">
        <ele>425.5</ele>
        <time>2010-05-29T13:03:17Z</time>
      </trkpt>
      <trkpt lat="47.64129" lon="6.79566">
        <ele>425.5</ele>
        <time>2010-05-29T13:03:19Z</time>
      </trkpt>
      <trkpt lat="47.64123" lon="6.79573">
        <ele>425</ele>
        <time>2010-05-29T13:03:21Z</time>
      </trkpt>
      <trkpt lat="47.64117" lon="6.79581">
        <ele>424</ele>
        <time>2010-05-29T13:03:23Z</time>
      </trkpt>
      <trkpt lat="47.64111" lon="6.79588">
        <ele>423.5</ele>
        <time>2010-05-29T13:03:25Z</time>
      </trkpt>
      <trkpt lat="47.64106" lon="6.79596">
        <ele>424</ele>
        <time>2010-05-29T13:03:27Z</time>
      </trkpt>
      <trkpt lat="47.641" lon="6.79603">
        <ele>423.5</ele>
        <time>2010-05-29T13:03:29Z</time>
      </trkpt>
      <trkpt lat="47.64094" lon="6.7961">
        <ele>423.5</ele>
        <time>2010-05-29T13:03:31Z</time>
      </trkpt>
      <trkpt lat="47.64088" lon="6.79618">
        <ele>423.5</ele>
        <time>2010-05-29T13:03:33Z</time>
      </trkpt>
      <trkpt lat="47.64082" lon="6.79626">
        <ele>424.5</ele>
        <time>2010-05-29T13:03:35Z</time>
      </trkpt>
      <trkpt lat="47.64077" lon="6.79633">
        <ele>424.5</ele>
        <time>2010-05-29T13:03:37Z</time>
      </trkpt>
      <trkpt lat="47.64071" lon="6.7964">
        <ele>425</ele>
        <time>2010-05-29T13:03:39Z</time>
      </trkpt>
      <trkpt lat="47.64066" lon="6.79648">
        <ele>425</ele>
        <time>2010-05-29T13:03:41Z</time>
      </trkpt>
      <trkpt lat="47.64059" lon="6.79656">
        <ele>424.5</ele>
        <time>2010-05-29T13:03:43Z</time>
      </trkpt>
      <trkpt lat="47.64054" lon="6.79663">
        <ele>424</ele>
        <time>2010-05-29T13:03:45Z</time>
      </trkpt>
      <trkpt lat="47.64048" lon="6.79671">
        <ele>424</ele>
        <time>2010-05-29T13:03:47Z</time>
      </trkpt>
      <trkpt lat="47.64042" lon="6.79678">
        <ele>424</ele>
        <time>2010-05-29T13:03:49Z</time>
      </trkpt>
      <trkpt lat="47.64037" lon="6.79686">
        <ele>425</ele>
        <time>2010-05-29T13:03:51Z</time>
      </trkpt>
      <trkpt lat="47.64032" lon="6.79694">
        <ele>427</ele>
        <time>2010-05-29T13:03:53Z</time>
      </trkpt>
      <trkpt lat="47.64028" lon="6.79705">
        <ele>428</ele>
        <time>2010-05-29T13:03:55Z</time>
      </trkpt>
      <trkpt lat="47.64025" lon="6.79717">
        <ele>430</ele>
        <time>2010-05-29T13:03:57Z</time>
      </trkpt>
      <trkpt lat="47.64024" lon="6.79729">
        <ele>432</ele>
        <time>2010-05-29T13:03:59Z</time>
      </trkpt>
      <trkpt lat="47.64025" lon="6.7974">
        <ele>433.5</ele>
        <time>2010-05-29T13:04:01Z</time>
      </trkpt>
      <trkpt lat="47.64028" lon="6.7975">
        <ele>436.5</ele>
        <time>2010-05-29T13:04:03Z</time>
      </trkpt>
      <trkpt lat="47.6403" lon="6.7976">
        <ele>437</ele>
        <time>2010-05-29T13:04:05Z</time>
      </trkpt>
      <trkpt lat="47.64027" lon="6.79771">
        <ele>436</ele>
        <time>2010-05-29T13:04:07Z</time>
      </trkpt>
      <trkpt lat="47.64024" lon="6.79777">
        <ele>435</ele>
        <time>2010-05-29T13:04:08Z</time>
      </trkpt>
      <trkpt lat="47.64019" lon="6.79786">
        <ele>435</ele>
        <time>2010-05-29T13:04:08Z</time>
      </trkpt>
      <trkpt lat="47.64013" lon="6.798">
        <ele>435</ele>
        <time>2010-05-29T13:04:11Z</time>
      </trkpt>
      <trkpt lat="47.64006" lon="6.7981">
        <ele>434.5</ele>
        <time>2010-05-29T13:04:13Z</time>
      </trkpt>
      <trkpt lat="47.64002" lon="6.79818">
        <ele>434</ele>
        <time>2010-05-29T13:04:14Z</time>
      </trkpt>
      <trkpt lat="47.63997" lon="6.79826">
        <ele>433</ele>
        <time>2010-05-29T13:04:15Z</time>
      </trkpt>
      <trkpt lat="47.63993" lon="6.79834">
        <ele>432</ele>
        <time>2010-05-29T13:04:16Z</time>
      </trkpt>
      <trkpt lat="47.63988" lon="6.79842">
        <ele>432</ele>
        <time>2010-05-29T13:04:17Z</time>
      </trkpt>
      <trkpt lat="47.63984" lon="6.79851">
        <ele>431.5</ele>
        <time>2010-05-29T13:04:18Z</time>
      </trkpt>
      <trkpt lat="47.6398" lon="6.7986">
        <ele>431</ele>
        <time>2010-05-29T13:04:19Z</time>
      </trkpt>
      <trkpt lat="47.63976" lon="6.79869">
        <ele>430.5</ele>
        <time>2010-05-29T13:04:20Z</time>
      </trkpt>
      <trkpt lat="47.63972" lon="6.79878">
        <ele>430</ele>
        <time>2010-05-29T13:04:21Z</time>
      </trkpt>
      <trkpt lat="47.63969" lon="6.79887">
        <ele>430</ele>
        <time>2010-05-29T13:04:22Z</time>
      </trkpt>
      <trkpt lat="47.63966" lon="6.79896">
        <ele>429.5</ele>
        <time>2010-05-29T13:04:23Z</time>
      </trkpt>
      <trkpt lat="47.63963" lon="6.79905">
        <ele>429.5</ele>
        <time>2010-05-29T13:04:24Z</time>
      </trkpt>
      <trkpt lat="47.6396" lon="6.79914">
        <ele>429</ele>
        <time>2010-05-29T13:04:25Z</time>
      </trkpt>
      <trkpt lat="47.63957" lon="6.79924">
        <ele>428.5</ele>
        <time>2010-05-29T13:04:26Z</time>
      </trkpt>
      <trkpt lat="47.63955" lon="6.79933">
        <ele>428.5</ele>
        <time>2010-05-29T13:04:27Z</time>
      </trkpt>
      <trkpt lat="47.63952" lon="6.79942">
        <ele>428.5</ele>
        <time>2010-05-29T13:04:28Z</time>
      </trkpt>
      <trkpt lat="47.6395" lon="6.79951">
        <ele>428.5</ele>
        <time>2010-05-29T13:04:29Z</time>
      </trkpt>
      <trkpt lat="47.63947" lon="6.7996">
        <ele>428.5</ele>
        <time>2010-05-29T13:04:30Z</time>
      </trkpt>
      <trkpt lat="47.63944" lon="6.79968">
        <ele>428</ele>
        <time>2010-05-29T13:04:31Z</time>
      </trkpt>
      <trkpt lat="47.63941" lon="6.79977">
        <ele>428</ele>
        <time>2010-05-29T13:04:32Z</time>
      </trkpt>
      <trkpt lat="47.63939" lon="6.79986">
        <ele>428</ele>
        <time>2010-05-29T13:04:33Z</time>
      </trkpt>
      <trkpt lat="47.63936" lon="6.79995">
        <ele>427.5</ele>
        <time>2010-05-29T13:04:34Z</time>
      </trkpt>
      <trkpt lat="47.63934" lon="6.80004">
        <ele>428</ele>
        <time>2010-05-29T13:04:35Z</time>
      </trkpt>
      <trkpt lat="47.63932" lon="6.80013">
        <ele>427.5</ele>
        <time>2010-05-29T13:04:36Z</time>
      </trkpt>
      <trkpt lat="47.63929" lon="6.80021">
        <ele>428</ele>
        <time>2010-05-29T13:04:37Z</time>
      </trkpt>
      <trkpt lat="47.63926" lon="6.8003">
        <ele>427.5</ele>
        <time>2010-05-29T13:04:38Z</time>
      </trkpt>
      <trkpt lat="47.63924" lon="6.80039">
        <ele>427.5</ele>
        <time>2010-05-29T13:04:39Z</time>
      </trkpt>
      <trkpt lat="47.63922" lon="6.80047">
        <ele>428</ele>
        <time>2010-05-29T13:04:40Z</time>
      </trkpt>
      <trkpt lat="47.6392" lon="6.80056">
        <ele>428</ele>
        <time>2010-05-29T13:04:41Z</time>
      </trkpt>
      <trkpt lat="47.63918" lon="6.80065">
        <ele>427.5</ele>
        <time>2010-05-29T13:04:42Z</time>
      </trkpt>
      <trkpt lat="47.63917" lon="6.80074">
        <ele>427.5</ele>
        <time>2010-05-29T13:04:43Z</time>
      </trkpt>
      <trkpt lat="47.63914" lon="6.80082">
        <ele>427.5</ele>
        <time>2010-05-29T13:04:44Z</time>
      </trkpt>
      <trkpt lat="47.63912" lon="6.80091">
        <ele>428</ele>
        <time>2010-05-29T13:04:45Z</time>
      </trkpt>
      <trkpt lat="47.63909" lon="6.80099">
        <ele>428</ele>
        <time>2010-05-29T13:04:46Z</time>
      </trkpt>
      <trkpt lat="47.63907" lon="6.80108">
        <ele>428</ele>
        <time>2010-05-29T13:04:47Z</time>
      </trkpt>
      <trkpt lat="47.63904" lon="6.80117">
        <ele>427.5</ele>
        <time>2010-05-29T13:04:48Z</time>
      </trkpt>
      <trkpt lat="47.63902" lon="6.80125">
        <ele>428.5</ele>
        <time>2010-05-29T13:04:49Z</time>
      </trkpt>
      <trkpt lat="47.639" lon="6.80134">
        <ele>428.5</ele>
        <time>2010-05-29T13:04:50Z</time>
      </trkpt>
      <trkpt lat="47.63897" lon="6.80142">
        <ele>428.5</ele>
        <time>2010-05-29T13:04:51Z</time>
      </trkpt>
      <trkpt lat="47.63894" lon="6.8015">
        <ele>428.5</ele>
        <time>2010-05-29T13:04:52Z</time>
      </trkpt>
      <trkpt lat="47.63891" lon="6.80159">
        <ele>428.5</ele>
        <time>2010-05-29T13:04:53Z</time>
      </trkpt>
      <trkpt lat="47.63889" lon="6.80167">
        <ele>428</ele>
        <time>2010-05-29T13:04:54Z</time>
      </trkpt>
      <trkpt lat="47.63885" lon="6.80175">
        <ele>428</ele>
        <time>2010-05-29T13:04:55Z</time>
      </trkpt>
      <trkpt lat="47.63882" lon="6.80183">
        <ele>427.5</ele>
        <time>2010-05-29T13:04:56Z</time>
      </trkpt>
      <trkpt lat="47.63879" lon="6.80192">
        <ele>427.5</ele>
        <time>2010-05-29T13:04:57Z</time>
      </trkpt>
      <trkpt lat="47.63875" lon="6.802">
        <ele>427.5</ele>
        <time>2010-05-29T13:04:58Z</time>
      </trkpt>
      <trkpt lat="47.63872" lon="6.80208">
        <ele>427.5</ele>
        <time>2010-05-29T13:04:59Z</time>
      </trkpt>
      <trkpt lat="47.63869" lon="6.80215">
        <ele>427.5</ele>
        <time>2010-05-29T13:05:00Z</time>
      </trkpt>
      <trkpt lat="47.63865" lon="6.80223">
        <ele>427.5</ele>
        <time>2010-05-29T13:05:01Z</time>
      </trkpt>
      <trkpt lat="47.63861" lon="6.8023">
        <ele>427.5</ele>
        <time>2010-05-29T13:05:02Z</time>
      </trkpt>
      <trkpt lat="47.63858" lon="6.80237">
        <ele>427</ele>
        <time>2010-05-29T13:05:03Z</time>
      </trkpt>
      <trkpt lat="47.63854" lon="6.80245">
        <ele>427.5</ele>
        <time>2010-05-29T13:05:04Z</time>
      </trkpt>
      <trkpt lat="47.63851" lon="6.80251">
        <ele>427.5</ele>
        <time>2010-05-29T13:05:05Z</time>
      </trkpt>
      <trkpt lat="47.63847" lon="6.80258">
        <ele>427.5</ele>
        <time>2010-05-29T13:05:06Z</time>
      </trkpt>
      <trkpt lat="47.63843" lon="6.80265">
        <ele>427.5</ele>
        <time>2010-05-29T13:05:07Z</time>
      </trkpt>
      <trkpt lat="47.63839" lon="6.80271">
        <ele>427.5</ele>
        <time>2010-05-29T13:05:08Z</time>
      </trkpt>
      <trkpt lat="47.63832" lon="6.80282">
        <ele>427.5</ele>
        <time>2010-05-29T13:05:08Z</time>
      </trkpt>
      <trkpt lat="47.63828" lon="6.80291">
        <ele>427.5</ele>
        <time>2010-05-29T13:05:10Z</time>
      </trkpt>
      <trkpt lat="47.63822" lon="6.80298">
        <ele>427</ele>
        <time>2010-05-29T13:05:11Z</time>
      </trkpt>
      <trkpt lat="47.63816" lon="6.80305">
        <ele>427.5</ele>
        <time>2010-05-29T13:05:13Z</time>
      </trkpt>
      <trkpt lat="47.63812" lon="6.80311">
        <ele>427.5</ele>
        <time>2010-05-29T13:05:14Z</time>
      </trkpt>
      <trkpt lat="47.63806" lon="6.80317">
        <ele>427</ele>
        <time>2010-05-29T13:05:15Z</time>
      </trkpt>
      <trkpt lat="47.63802" lon="6.80323">
        <ele>427</ele>
        <time>2010-05-29T13:05:16Z</time>
      </trkpt>
      <trkpt lat="47.63797" lon="6.80329">
        <ele>427</ele>
        <time>2010-05-29T13:05:17Z</time>
      </trkpt>
      <trkpt lat="47.63792" lon="6.80335">
        <ele>427</ele>
        <time>2010-05-29T13:05:18Z</time>
      </trkpt>
      <trkpt lat="47.63786" lon="6.80342">
        <ele>426.5</ele>
        <time>2010-05-29T13:05:19Z</time>
      </trkpt>
      <trkpt lat="47.63782" lon="6.80348">
        <ele>426</ele>
        <time>2010-05-29T13:05:20Z</time>
      </trkpt>
      <trkpt lat="47.63778" lon="6.80355">
        <ele>426</ele>
        <time>2010-05-29T13:05:21Z</time>
      </trkpt>
      <trkpt lat="47.63774" lon="6.80361">
        <ele>426</ele>
        <time>2010-05-29T13:05:22Z</time>
      </trkpt>
      <trkpt lat="47.6377" lon="6.80367">
        <ele>426</ele>
        <time>2010-05-29T13:05:23Z</time>
      </trkpt>
      <trkpt lat="47.63766" lon="6.80373">
        <ele>426</ele>
        <time>2010-05-29T13:05:24Z</time>
      </trkpt>
      <trkpt lat="47.63761" lon="6.80379">
        <ele>426</ele>
        <time>2010-05-29T13:05:25Z</time>
      </trkpt>
      <trkpt lat="47.63756" lon="6.80385">
        <ele>426</ele>
        <time>2010-05-29T13:05:26Z</time>
      </trkpt>
      <trkpt lat="47.63751" lon="6.80392">
        <ele>425.5</ele>
        <time>2010-05-29T13:05:27Z</time>
      </trkpt>
      <trkpt lat="47.63746" lon="6.80398">
        <ele>425</ele>
        <time>2010-05-29T13:05:28Z</time>
      </trkpt>
      <trkpt lat="47.6374" lon="6.80404">
        <ele>425</ele>
        <time>2010-05-29T13:05:29Z</time>
      </trkpt>
      <trkpt lat="47.63735" lon="6.8041">
        <ele>424</ele>
        <time>2010-05-29T13:05:30Z</time>
      </trkpt>
      <trkpt lat="47.6373" lon="6.80417">
        <ele>424</ele>
        <time>2010-05-29T13:05:31Z</time>
      </trkpt>
      <trkpt lat="47.63725" lon="6.80424">
        <ele>423.5</ele>
        <time>2010-05-29T13:05:32Z</time>
      </trkpt>
      <trkpt lat="47.6372" lon="6.8043">
        <ele>423</ele>
        <time>2010-05-29T13:05:33Z</time>
      </trkpt>
      <trkpt lat="47.63715" lon="6.80436">
        <ele>423</ele>
        <time>2010-05-29T13:05:34Z</time>
      </trkpt>
      <trkpt lat="47.63711" lon="6.80443">
        <ele>423</ele>
        <time>2010-05-29T13:05:35Z</time>
      </trkpt>
      <trkpt lat="47.63706" lon="6.80449">
        <ele>423.5</ele>
        <time>2010-05-29T13:05:36Z</time>
      </trkpt>
      <trkpt lat="47.63701" lon="6.80454">
        <ele>423.5</ele>
        <time>2010-05-29T13:05:37Z</time>
      </trkpt>
      <trkpt lat="47.63696" lon="6.80461">
        <ele>423</ele>
        <time>2010-05-29T13:05:38Z</time>
      </trkpt>
      <trkpt lat="47.63692" lon="6.80467">
        <ele>423</ele>
        <time>2010-05-29T13:05:39Z</time>
      </trkpt>
      <trkpt lat="47.63688" lon="6.80472">
        <ele>423</ele>
        <time>2010-05-29T13:05:40Z</time>
      </trkpt>
      <trkpt lat="47.63684" lon="6.80478">
        <ele>423</ele>
        <time>2010-05-29T13:05:41Z</time>
      </trkpt>
      <trkpt lat="47.6368" lon="6.80484">
        <ele>423</ele>
        <time>2010-05-29T13:05:42Z</time>
      </trkpt>
      <trkpt lat="47.63675" lon="6.80489">
        <ele>423</ele>
        <time>2010-05-29T13:05:43Z</time>
      </trkpt>
      <trkpt lat="47.63671" lon="6.80495">
        <ele>423</ele>
        <time>2010-05-29T13:05:44Z</time>
      </trkpt>
      <trkpt lat="47.63667" lon="6.80501">
        <ele>423</ele>
        <time>2010-05-29T13:05:45Z</time>
      </trkpt>
      <trkpt lat="47.63662" lon="6.80507">
        <ele>422.5</ele>
        <time>2010-05-29T13:05:46Z</time>
      </trkpt>
      <trkpt lat="47.63658" lon="6.80513">
        <ele>422.5</ele>
        <time>2010-05-29T13:05:47Z</time>
      </trkpt>
      <trkpt lat="47.63653" lon="6.80519">
        <ele>422.5</ele>
        <time>2010-05-29T13:05:48Z</time>
      </trkpt>
      <trkpt lat="47.63649" lon="6.80525">
        <ele>422</ele>
        <time>2010-05-29T13:05:49Z</time>
      </trkpt>
      <trkpt lat="47.63645" lon="6.80531">
        <ele>422</ele>
        <time>2010-05-29T13:05:50Z</time>
      </trkpt>
      <trkpt lat="47.63641" lon="6.80537">
        <ele>421.5</ele>
        <time>2010-05-29T13:05:51Z</time>
      </trkpt>
      <trkpt lat="47.63636" lon="6.80543">
        <ele>421.5</ele>
        <time>2010-05-29T13:05:52Z</time>
      </trkpt>
      <trkpt lat="47.63632" lon="6.80548">
        <ele>421.5</ele>
        <time>2010-05-29T13:05:53Z</time>
      </trkpt>
      <trkpt lat="47.63628" lon="6.80554">
        <ele>421</ele>
        <time>2010-05-29T13:05:54Z</time>
      </trkpt>
      <trkpt lat="47.63624" lon="6.80561">
        <ele>421</ele>
        <time>2010-05-29T13:05:55Z</time>
      </trkpt>
      <trkpt lat="47.63619" lon="6.80567">
        <ele>421</ele>
        <time>2010-05-29T13:05:56Z</time>
      </trkpt>
      <trkpt lat="47.63615" lon="6.80573">
        <ele>421</ele>
        <time>2010-05-29T13:05:57Z</time>
      </trkpt>
      <trkpt lat="47.63611" lon="6.80579">
        <ele>420.5</ele>
        <time>2010-05-29T13:05:58Z</time>
      </trkpt>
      <trkpt lat="47.63607" lon="6.80585">
        <ele>421</ele>
        <time>2010-05-29T13:05:59Z</time>
      </trkpt>
      <trkpt lat="47.63602" lon="6.80591">
        <ele>421</ele>
        <time>2010-05-29T13:06:00Z</time>
      </trkpt>
      <trkpt lat="47.63598" lon="6.80597">
        <ele>420.5</ele>
        <time>2010-05-29T13:06:01Z</time>
      </trkpt>
      <trkpt lat="47.63594" lon="6.80603">
        <ele>420.5</ele>
        <time>2010-05-29T13:06:02Z</time>
      </trkpt>
      <trkpt lat="47.63589" lon="6.80608">
        <ele>420.5</ele>
        <time>2010-05-29T13:06:03Z</time>
      </trkpt>
      <trkpt lat="47.63584" lon="6.80614">
        <ele>420</ele>
        <time>2010-05-29T13:06:04Z</time>
      </trkpt>
      <trkpt lat="47.6358" lon="6.8062">
        <ele>420</ele>
        <time>2010-05-29T13:06:05Z</time>
      </trkpt>
      <trkpt lat="47.63575" lon="6.80626">
        <ele>420</ele>
        <time>2010-05-29T13:06:06Z</time>
      </trkpt>
      <trkpt lat="47.63572" lon="6.80631">
        <ele>420</ele>
        <time>2010-05-29T13:06:07Z</time>
      </trkpt>
      <trkpt lat="47.63568" lon="6.80637">
        <ele>420</ele>
        <time>2010-05-29T13:06:08Z</time>
      </trkpt>
      <trkpt lat="47.63561" lon="6.80648">
        <ele>420</ele>
        <time>2010-05-29T13:06:08Z</time>
      </trkpt>
      <trkpt lat="47.63554" lon="6.80658">
        <ele>420.5</ele>
        <time>2010-05-29T13:06:11Z</time>
      </trkpt>
      <trkpt lat="47.63548" lon="6.80666">
        <ele>421</ele>
        <time>2010-05-29T13:06:13Z</time>
      </trkpt>
      <trkpt lat="47.63543" lon="6.80671">
        <ele>420.5</ele>
        <time>2010-05-29T13:06:14Z</time>
      </trkpt>
      <trkpt lat="47.63538" lon="6.80678">
        <ele>420.5</ele>
        <time>2010-05-29T13:06:15Z</time>
      </trkpt>
      <trkpt lat="47.63533" lon="6.80684">
        <ele>420.5</ele>
        <time>2010-05-29T13:06:16Z</time>
      </trkpt>
      <trkpt lat="47.63528" lon="6.8069">
        <ele>420</ele>
        <time>2010-05-29T13:06:17Z</time>
      </trkpt>
      <trkpt lat="47.63524" lon="6.80696">
        <ele>420</ele>
        <time>2010-05-29T13:06:18Z</time>
      </trkpt>
      <trkpt lat="47.6352" lon="6.80701">
        <ele>420</ele>
        <time>2010-05-29T13:06:19Z</time>
      </trkpt>
      <trkpt lat="47.63516" lon="6.80707">
        <ele>420.5</ele>
        <time>2010-05-29T13:06:20Z</time>
      </trkpt>
      <trkpt lat="47.63513" lon="6.80712">
        <ele>420.5</ele>
        <time>2010-05-29T13:06:21Z</time>
      </trkpt>
      <trkpt lat="47.63508" lon="6.80718">
        <ele>420.5</ele>
        <time>2010-05-29T13:06:22Z</time>
      </trkpt>
      <trkpt lat="47.63505" lon="6.80723">
        <ele>421.5</ele>
        <time>2010-05-29T13:06:23Z</time>
      </trkpt>
      <trkpt lat="47.63501" lon="6.80729">
        <ele>421.5</ele>
        <time>2010-05-29T13:06:24Z</time>
      </trkpt>
      <trkpt lat="47.63498" lon="6.80734">
        <ele>421.5</ele>
        <time>2010-05-29T13:06:25Z</time>
      </trkpt>
      <trkpt lat="47.63494" lon="6.8074">
        <ele>421.5</ele>
        <time>2010-05-29T13:06:26Z</time>
      </trkpt>
      <trkpt lat="47.63491" lon="6.80745">
        <ele>422.5</ele>
        <time>2010-05-29T13:06:27Z</time>
      </trkpt>
      <trkpt lat="47.63487" lon="6.80751">
        <ele>423</ele>
        <time>2010-05-29T13:06:28Z</time>
      </trkpt>
      <trkpt lat="47.63483" lon="6.80756">
        <ele>423</ele>
        <time>2010-05-29T13:06:29Z</time>
      </trkpt>
      <trkpt lat="47.6348" lon="6.80762">
        <ele>423.5</ele>
        <time>2010-05-29T13:06:30Z</time>
      </trkpt>
      <trkpt lat="47.63475" lon="6.80767">
        <ele>424.5</ele>
        <time>2010-05-29T13:06:31Z</time>
      </trkpt>
      <trkpt lat="47.63471" lon="6.80773">
        <ele>425</ele>
        <time>2010-05-29T13:06:32Z</time>
      </trkpt>
      <trkpt lat="47.63468" lon="6.80778">
        <ele>425.5</ele>
        <time>2010-05-29T13:06:33Z</time>
      </trkpt>
      <trkpt lat="47.63464" lon="6.80785">
        <ele>425.5</ele>
        <time>2010-05-29T13:06:34Z</time>
      </trkpt>
      <trkpt lat="47.6346" lon="6.80792">
        <ele>425</ele>
        <time>2010-05-29T13:06:35Z</time>
      </trkpt>
      <trkpt lat="47.63456" lon="6.80799">
        <ele>425</ele>
        <time>2010-05-29T13:06:36Z</time>
      </trkpt>
      <trkpt lat="47.63452" lon="6.80805">
        <ele>425.5</ele>
        <time>2010-05-29T13:06:37Z</time>
      </trkpt>
      <trkpt lat="47.63448" lon="6.80812">
        <ele>426</ele>
        <time>2010-05-29T13:06:38Z</time>
      </trkpt>
      <trkpt lat="47.63444" lon="6.80819">
        <ele>426</ele>
        <time>2010-05-29T13:06:39Z</time>
      </trkpt>
      <trkpt lat="47.63441" lon="6.80826">
        <ele>426.5</ele>
        <time>2010-05-29T13:06:40Z</time>
      </trkpt>
      <trkpt lat="47.63437" lon="6.80834">
        <ele>427</ele>
        <time>2010-05-29T13:06:41Z</time>
      </trkpt>
      <trkpt lat="47.63434" lon="6.80841">
        <ele>427.5</ele>
        <time>2010-05-29T13:06:42Z</time>
      </trkpt>
      <trkpt lat="47.6343" lon="6.80848">
        <ele>427.5</ele>
        <time>2010-05-29T13:06:43Z</time>
      </trkpt>
      <trkpt lat="47.63427" lon="6.80855">
        <ele>427.5</ele>
        <time>2010-05-29T13:06:44Z</time>
      </trkpt>
      <trkpt lat="47.63423" lon="6.80862">
        <ele>428</ele>
        <time>2010-05-29T13:06:45Z</time>
      </trkpt>
      <trkpt lat="47.6342" lon="6.80869">
        <ele>428.5</ele>
        <time>2010-05-29T13:06:46Z</time>
      </trkpt>
      <trkpt lat="47.63416" lon="6.80876">
        <ele>428.5</ele>
        <time>2010-05-29T13:06:47Z</time>
      </trkpt>
      <trkpt lat="47.63413" lon="6.80884">
        <ele>428</ele>
        <time>2010-05-29T13:06:48Z</time>
      </trkpt>
      <trkpt lat="47.63411" lon="6.80891">
        <ele>428</ele>
        <time>2010-05-29T13:06:49Z</time>
      </trkpt>
      <trkpt lat="47.63407" lon="6.80899">
        <ele>427.5</ele>
        <time>2010-05-29T13:06:50Z</time>
      </trkpt>
      <trkpt lat="47.63404" lon="6.80907">
        <ele>428</ele>
        <time>2010-05-29T13:06:51Z</time>
      </trkpt>
      <trkpt lat="47.63402" lon="6.80914">
        <ele>428</ele>
        <time>2010-05-29T13:06:52Z</time>
      </trkpt>
      <trkpt lat="47.63399" lon="6.80922">
        <ele>427.5</ele>
        <time>2010-05-29T13:06:53Z</time>
      </trkpt>
      <trkpt lat="47.63397" lon="6.80931">
        <ele>428</ele>
        <time>2010-05-29T13:06:54Z</time>
      </trkpt>
      <trkpt lat="47.63395" lon="6.80939">
        <ele>427.5</ele>
        <time>2010-05-29T13:06:55Z</time>
      </trkpt>
      <trkpt lat="47.63393" lon="6.80947">
        <ele>427</ele>
        <time>2010-05-29T13:06:56Z</time>
      </trkpt>
      <trkpt lat="47.63391" lon="6.80956">
        <ele>427</ele>
        <time>2010-05-29T13:06:57Z</time>
      </trkpt>
      <trkpt lat="47.63389" lon="6.80964">
        <ele>427</ele>
        <time>2010-05-29T13:06:58Z</time>
      </trkpt>
      <trkpt lat="47.63387" lon="6.80973">
        <ele>427</ele>
        <time>2010-05-29T13:06:59Z</time>
      </trkpt>
      <trkpt lat="47.63385" lon="6.80981">
        <ele>427</ele>
        <time>2010-05-29T13:07:00Z</time>
      </trkpt>
      <trkpt lat="47.63383" lon="6.8099">
        <ele>427</ele>
        <time>2010-05-29T13:07:01Z</time>
      </trkpt>
      <trkpt lat="47.63381" lon="6.80999">
        <ele>427</ele>
        <time>2010-05-29T13:07:02Z</time>
      </trkpt>
      <trkpt lat="47.63379" lon="6.81007">
        <ele>427</ele>
        <time>2010-05-29T13:07:03Z</time>
      </trkpt>
      <trkpt lat="47.63378" lon="6.81016">
        <ele>427</ele>
        <time>2010-05-29T13:07:04Z</time>
      </trkpt>
      <trkpt lat="47.63377" lon="6.81025">
        <ele>427</ele>
        <time>2010-05-29T13:07:05Z</time>
      </trkpt>
      <trkpt lat="47.63375" lon="6.81034">
        <ele>427</ele>
        <time>2010-05-29T13:07:06Z</time>
      </trkpt>
      <trkpt lat="47.63373" lon="6.81043">
        <ele>426.5</ele>
        <time>2010-05-29T13:07:07Z</time>
      </trkpt>
      <trkpt lat="47.63372" lon="6.81051">
        <ele>426.5</ele>
        <time>2010-05-29T13:07:08Z</time>
      </trkpt>
      <trkpt lat="47.6337" lon="6.81067">
        <ele>427</ele>
        <time>2010-05-29T13:07:08Z</time>
      </trkpt>
      <trkpt lat="47.63368" lon="6.81076">
        <ele>426</ele>
        <time>2010-05-29T13:07:10Z</time>
      </trkpt>
      <trkpt lat="47.63365" lon="6.81086">
        <ele>424.5</ele>
        <time>2010-05-29T13:07:11Z</time>
      </trkpt>
      <trkpt lat="47.63364" lon="6.81098">
        <ele>423.5</ele>
        <time>2010-05-29T13:07:13Z</time>
      </trkpt>
      <trkpt lat="47.63363" lon="6.81107">
        <ele>423</ele>
        <time>2010-05-29T13:07:14Z</time>
      </trkpt>
      <trkpt lat="47.63362" lon="6.81116">
        <ele>422.5</ele>
        <time>2010-05-29T13:07:15Z</time>
      </trkpt>
      <trkpt lat="47.63362" lon="6.81126">
        <ele>422.5</ele>
        <time>2010-05-29T13:07:16Z</time>
      </trkpt>
      <trkpt lat="47.63362" lon="6.81135">
        <ele>422.5</ele>
        <time>2010-05-29T13:07:17Z</time>
      </trkpt>
      <trkpt lat="47.63362" lon="6.81144">
        <ele>422.5</ele>
        <time>2010-05-29T13:07:18Z</time>
      </trkpt>
      <trkpt lat="47.63362" lon="6.81153">
        <ele>423</ele>
        <time>2010-05-29T13:07:19Z</time>
      </trkpt>
      <trkpt lat="47.63362" lon="6.81162">
        <ele>423</ele>
        <time>2010-05-29T13:07:20Z</time>
      </trkpt>
      <trkpt lat="47.63362" lon="6.81171">
        <ele>423</ele>
        <time>2010-05-29T13:07:21Z</time>
      </trkpt>
      <trkpt lat="47.63362" lon="6.8118">
        <ele>423</ele>
        <time>2010-05-29T13:07:22Z</time>
      </trkpt>
      <trkpt lat="47.63361" lon="6.8119">
        <ele>423</ele>
        <time>2010-05-29T13:07:23Z</time>
      </trkpt>
      <trkpt lat="47.63361" lon="6.81199">
        <ele>423</ele>
        <time>2010-05-29T13:07:24Z</time>
      </trkpt>
      <trkpt lat="47.6336" lon="6.81208">
        <ele>423</ele>
        <time>2010-05-29T13:07:25Z</time>
      </trkpt>
      <trkpt lat="47.6336" lon="6.81218">
        <ele>423</ele>
        <time>2010-05-29T13:07:26Z</time>
      </trkpt>
      <trkpt lat="47.6336" lon="6.81227">
        <ele>423</ele>
        <time>2010-05-29T13:07:27Z</time>
      </trkpt>
      <trkpt lat="47.6336" lon="6.81236">
        <ele>422.5</ele>
        <time>2010-05-29T13:07:28Z</time>
      </trkpt>
      <trkpt lat="47.6336" lon="6.81245">
        <ele>422.5</ele>
        <time>2010-05-29T13:07:29Z</time>
      </trkpt>
      <trkpt lat="47.6336" lon="6.81254">
        <ele>422.5</ele>
        <time>2010-05-29T13:07:30Z</time>
      </trkpt>
      <trkpt lat="47.63359" lon="6.81263">
        <ele>422.5</ele>
        <time>2010-05-29T13:07:31Z</time>
      </trkpt>
      <trkpt lat="47.63359" lon="6.81272">
        <ele>422.5</ele>
        <time>2010-05-29T13:07:32Z</time>
      </trkpt>
      <trkpt lat="47.63359" lon="6.8128">
        <ele>422.5</ele>
        <time>2010-05-29T13:07:33Z</time>
      </trkpt>
      <trkpt lat="47.63359" lon="6.81289">
        <ele>422.5</ele>
        <time>2010-05-29T13:07:34Z</time>
      </trkpt>
      <trkpt lat="47.63358" lon="6.81298">
        <ele>422.5</ele>
        <time>2010-05-29T13:07:35Z</time>
      </trkpt>
      <trkpt lat="47.63358" lon="6.81307">
        <ele>422.5</ele>
        <time>2010-05-29T13:07:36Z</time>
      </trkpt>
      <trkpt lat="47.63358" lon="6.81316">
        <ele>422.5</ele>
        <time>2010-05-29T13:07:37Z</time>
      </trkpt>
      <trkpt lat="47.63358" lon="6.81324">
        <ele>422.5</ele>
        <time>2010-05-29T13:07:38Z</time>
      </trkpt>
      <trkpt lat="47.63357" lon="6.81333">
        <ele>422.5</ele>
        <time>2010-05-29T13:07:39Z</time>
      </trkpt>
      <trkpt lat="47.63357" lon="6.81342">
        <ele>422.5</ele>
        <time>2010-05-29T13:07:40Z</time>
      </trkpt>
      <trkpt lat="47.63357" lon="6.81351">
        <ele>422.5</ele>
        <time>2010-05-29T13:07:41Z</time>
      </trkpt>
      <trkpt lat="47.63357" lon="6.8136">
        <ele>422</ele>
        <time>2010-05-29T13:07:42Z</time>
      </trkpt>
      <trkpt lat="47.63357" lon="6.81369">
        <ele>422.5</ele>
        <time>2010-05-29T13:07:43Z</time>
      </trkpt>
      <trkpt lat="47.63356" lon="6.81378">
        <ele>422.5</ele>
        <time>2010-05-29T13:07:44Z</time>
      </trkpt>
      <trkpt lat="47.63356" lon="6.81387">
        <ele>422</ele>
        <time>2010-05-29T13:07:45Z</time>
      </trkpt>
      <trkpt lat="47.63356" lon="6.81396">
        <ele>422</ele>
        <time>2010-05-29T13:07:46Z</time>
      </trkpt>
      <trkpt lat="47.63355" lon="6.81404">
        <ele>422</ele>
        <time>2010-05-29T13:07:47Z</time>
      </trkpt>
      <trkpt lat="47.63355" lon="6.81413">
        <ele>422</ele>
        <time>2010-05-29T13:07:48Z</time>
      </trkpt>
      <trkpt lat="47.63355" lon="6.81421">
        <ele>422.5</ele>
        <time>2010-05-29T13:07:49Z</time>
      </trkpt>
      <trkpt lat="47.63355" lon="6.8143">
        <ele>422.5</ele>
        <time>2010-05-29T13:07:50Z</time>
      </trkpt>
      <trkpt lat="47.63355" lon="6.81438">
        <ele>422.5</ele>
        <time>2010-05-29T13:07:51Z</time>
      </trkpt>
      <trkpt lat="47.63355" lon="6.81446">
        <ele>422.5</ele>
        <time>2010-05-29T13:07:52Z</time>
      </trkpt>
      <trkpt lat="47.63355" lon="6.81455">
        <ele>422</ele>
        <time>2010-05-29T13:07:53Z</time>
      </trkpt>
      <trkpt lat="47.63355" lon="6.81464">
        <ele>422.5</ele>
        <time>2010-05-29T13:07:54Z</time>
      </trkpt>
      <trkpt lat="47.63355" lon="6.81472">
        <ele>422.5</ele>
        <time>2010-05-29T13:07:55Z</time>
      </trkpt>
      <trkpt lat="47.63355" lon="6.8148">
        <ele>423</ele>
        <time>2010-05-29T13:07:56Z</time>
      </trkpt>
      <trkpt lat="47.63356" lon="6.81488">
        <ele>423</ele>
        <time>2010-05-29T13:07:57Z</time>
      </trkpt>
      <trkpt lat="47.63357" lon="6.81495">
        <ele>423</ele>
        <time>2010-05-29T13:07:58Z</time>
      </trkpt>
      <trkpt lat="47.63357" lon="6.81503">
        <ele>423</ele>
        <time>2010-05-29T13:07:59Z</time>
      </trkpt>
      <trkpt lat="47.63357" lon="6.81511">
        <ele>423.5</ele>
        <time>2010-05-29T13:08:00Z</time>
      </trkpt>
      <trkpt lat="47.63357" lon="6.81519">
        <ele>423.5</ele>
        <time>2010-05-29T13:08:01Z</time>
      </trkpt>
      <trkpt lat="47.63358" lon="6.81527">
        <ele>424</ele>
        <time>2010-05-29T13:08:02Z</time>
      </trkpt>
      <trkpt lat="47.63357" lon="6.81535">
        <ele>424</ele>
        <time>2010-05-29T13:08:03Z</time>
      </trkpt>
      <trkpt lat="47.63358" lon="6.81543">
        <ele>424</ele>
        <time>2010-05-29T13:08:04Z</time>
      </trkpt>
      <trkpt lat="47.63358" lon="6.81551">
        <ele>424.5</ele>
        <time>2010-05-29T13:08:05Z</time>
      </trkpt>
      <trkpt lat="47.63358" lon="6.81559">
        <ele>425</ele>
        <time>2010-05-29T13:08:06Z</time>
      </trkpt>
      <trkpt lat="47.63358" lon="6.81567">
        <ele>425.5</ele>
        <time>2010-05-29T13:08:07Z</time>
      </trkpt>
      <trkpt lat="47.63358" lon="6.81575">
        <ele>426</ele>
        <time>2010-05-29T13:08:08Z</time>
      </trkpt>
      <trkpt lat="47.63358" lon="6.81589">
        <ele>426.5</ele>
        <time>2010-05-29T13:08:08Z</time>
      </trkpt>
      <trkpt lat="47.63358" lon="6.816">
        <ele>426.5</ele>
        <time>2010-05-29T13:08:10Z</time>
      </trkpt>
      <trkpt lat="47.63356" lon="6.8161">
        <ele>426.5</ele>
        <time>2010-05-29T13:08:11Z</time>
      </trkpt>
      <trkpt lat="47.63359" lon="6.81619">
        <ele>427</ele>
        <time>2010-05-29T13:08:13Z</time>
      </trkpt>
      <trkpt lat="47.63359" lon="6.81628">
        <ele>427</ele>
        <time>2010-05-29T13:08:14Z</time>
      </trkpt>
      <trkpt lat="47.63358" lon="6.81637">
        <ele>427</ele>
        <time>2010-05-29T13:08:15Z</time>
      </trkpt>
      <trkpt lat="47.63358" lon="6.81645">
        <ele>427</ele>
        <time>2010-05-29T13:08:16Z</time>
      </trkpt>
      <trkpt lat="47.63359" lon="6.81654">
        <ele>427</ele>
        <time>2010-05-29T13:08:17Z</time>
      </trkpt>
      <trkpt lat="47.63359" lon="6.81663">
        <ele>427.5</ele>
        <time>2010-05-29T13:08:18Z</time>
      </trkpt>
      <trkpt lat="47.6336" lon="6.81672">
        <ele>427.5</ele>
        <time>2010-05-29T13:08:19Z</time>
      </trkpt>
      <trkpt lat="47.63359" lon="6.81681">
        <ele>427.5</ele>
        <time>2010-05-29T13:08:20Z</time>
      </trkpt>
      <trkpt lat="47.63359" lon="6.81689">
        <ele>428</ele>
        <time>2010-05-29T13:08:21Z</time>
      </trkpt>
      <trkpt lat="47.63359" lon="6.81698">
        <ele>428</ele>
        <time>2010-05-29T13:08:22Z</time>
      </trkpt>
      <trkpt lat="47.63359" lon="6.81707">
        <ele>427.5</ele>
        <time>2010-05-29T13:08:23Z</time>
      </trkpt>
      <trkpt lat="47.63359" lon="6.81716">
        <ele>428</ele>
        <time>2010-05-29T13:08:24Z</time>
      </trkpt>
      <trkpt lat="47.63358" lon="6.81725">
        <ele>427.5</ele>
        <time>2010-05-29T13:08:25Z</time>
      </trkpt>
      <trkpt lat="47.63358" lon="6.81734">
        <ele>427.5</ele>
        <time>2010-05-29T13:08:26Z</time>
      </trkpt>
      <trkpt lat="47.63359" lon="6.81743">
        <ele>427</ele>
        <time>2010-05-29T13:08:27Z</time>
      </trkpt>
      <trkpt lat="47.63359" lon="6.81751">
        <ele>427</ele>
        <time>2010-05-29T13:08:28Z</time>
      </trkpt>
      <trkpt lat="47.63359" lon="6.8176">
        <ele>427</ele>
        <time>2010-05-29T13:08:29Z</time>
      </trkpt>
      <trkpt lat="47.63359" lon="6.81769">
        <ele>426.5</ele>
        <time>2010-05-29T13:08:30Z</time>
      </trkpt>
      <trkpt lat="47.63359" lon="6.81778">
        <ele>426.5</ele>
        <time>2010-05-29T13:08:31Z</time>
      </trkpt>
      <trkpt lat="47.63359" lon="6.81787">
        <ele>426.5</ele>
        <time>2010-05-29T13:08:32Z</time>
      </trkpt>
      <trkpt lat="47.63359" lon="6.81796">
        <ele>426.5</ele>
        <time>2010-05-29T13:08:33Z</time>
      </trkpt>
      <trkpt lat="47.6336" lon="6.81805">
        <ele>426.5</ele>
        <time>2010-05-29T13:08:34Z</time>
      </trkpt>
      <trkpt lat="47.6336" lon="6.81815">
        <ele>426.5</ele>
        <time>2010-05-29T13:08:35Z</time>
      </trkpt>
      <trkpt lat="47.63361" lon="6.81825">
        <ele>426.5</ele>
        <time>2010-05-29T13:08:36Z</time>
      </trkpt>
      <trkpt lat="47.63361" lon="6.81835">
        <ele>426</ele>
        <time>2010-05-29T13:08:37Z</time>
      </trkpt>
      <trkpt lat="47.63361" lon="6.81844">
        <ele>426</ele>
        <time>2010-05-29T13:08:38Z</time>
      </trkpt>
      <trkpt lat="47.63361" lon="6.81854">
        <ele>426</ele>
        <time>2010-05-29T13:08:39Z</time>
      </trkpt>
      <trkpt lat="47.63362" lon="6.81863">
        <ele>426</ele>
        <time>2010-05-29T13:08:40Z</time>
      </trkpt>
      <trkpt lat="47.63363" lon="6.81872">
        <ele>426</ele>
        <time>2010-05-29T13:08:41Z</time>
      </trkpt>
      <trkpt lat="47.63364" lon="6.81881">
        <ele>426</ele>
        <time>2010-05-29T13:08:42Z</time>
      </trkpt>
      <trkpt lat="47.63365" lon="6.81891">
        <ele>426</ele>
        <time>2010-05-29T13:08:43Z</time>
      </trkpt>
      <trkpt lat="47.63366" lon="6.81899">
        <ele>426</ele>
        <time>2010-05-29T13:08:44Z</time>
      </trkpt>
      <trkpt lat="47.63367" lon="6.81908">
        <ele>426</ele>
        <time>2010-05-29T13:08:45Z</time>
      </trkpt>
      <trkpt lat="47.63368" lon="6.81918">
        <ele>425.5</ele>
        <time>2010-05-29T13:08:46Z</time>
      </trkpt>
      <trkpt lat="47.63369" lon="6.81926">
        <ele>425</ele>
        <time>2010-05-29T13:08:47Z</time>
      </trkpt>
      <trkpt lat="47.63369" lon="6.81935">
        <ele>425</ele>
        <time>2010-05-29T13:08:48Z</time>
      </trkpt>
      <trkpt lat="47.63369" lon="6.81944">
        <ele>424.5</ele>
        <time>2010-05-29T13:08:49Z</time>
      </trkpt>
      <trkpt lat="47.63369" lon="6.81954">
        <ele>424</ele>
        <time>2010-05-29T13:08:50Z</time>
      </trkpt>
      <trkpt lat="47.63369" lon="6.81962">
        <ele>424</ele>
        <time>2010-05-29T13:08:51Z</time>
      </trkpt>
      <trkpt lat="47.63369" lon="6.81971">
        <ele>423.5</ele>
        <time>2010-05-29T13:08:52Z</time>
      </trkpt>
      <trkpt lat="47.63369" lon="6.8198">
        <ele>423</ele>
        <time>2010-05-29T13:08:53Z</time>
      </trkpt>
      <trkpt lat="47.63368" lon="6.81989">
        <ele>422.5</ele>
        <time>2010-05-29T13:08:54Z</time>
      </trkpt>
      <trkpt lat="47.63368" lon="6.81998">
        <ele>422.5</ele>
        <time>2010-05-29T13:08:55Z</time>
      </trkpt>
      <trkpt lat="47.63368" lon="6.82007">
        <ele>422</ele>
        <time>2010-05-29T13:08:56Z</time>
      </trkpt>
      <trkpt lat="47.63368" lon="6.82016">
        <ele>422</ele>
        <time>2010-05-29T13:08:57Z</time>
      </trkpt>
      <trkpt lat="47.63367" lon="6.82025">
        <ele>422</ele>
        <time>2010-05-29T13:08:58Z</time>
      </trkpt>
      <trkpt lat="47.63366" lon="6.82034">
        <ele>422.5</ele>
        <time>2010-05-29T13:08:59Z</time>
      </trkpt>
      <trkpt lat="47.63366" lon="6.82043">
        <ele>422</ele>
        <time>2010-05-29T13:09:00Z</time>
      </trkpt>
      <trkpt lat="47.63365" lon="6.82052">
        <ele>422</ele>
        <time>2010-05-29T13:09:01Z</time>
      </trkpt>
      <trkpt lat="47.63365" lon="6.82061">
        <ele>422</ele>
        <time>2010-05-29T13:09:02Z</time>
      </trkpt>
      <trkpt lat="47.63364" lon="6.82069">
        <ele>422</ele>
        <time>2010-05-29T13:09:03Z</time>
      </trkpt>
      <trkpt lat="47.63363" lon="6.82078">
        <ele>422</ele>
        <time>2010-05-29T13:09:04Z</time>
      </trkpt>
      <trkpt lat="47.63362" lon="6.82087">
        <ele>421.5</ele>
        <time>2010-05-29T13:09:05Z</time>
      </trkpt>
      <trkpt lat="47.63361" lon="6.82095">
        <ele>421.5</ele>
        <time>2010-05-29T13:09:06Z</time>
      </trkpt>
      <trkpt lat="47.6336" lon="6.82104">
        <ele>421.5</ele>
        <time>2010-05-29T13:09:07Z</time>
      </trkpt>
      <trkpt lat="47.63359" lon="6.82112">
        <ele>421.5</ele>
        <time>2010-05-29T13:09:08Z</time>
      </trkpt>
      <trkpt lat="47.63357" lon="6.82128">
        <ele>421.5</ele>
        <time>2010-05-29T13:09:08Z</time>
      </trkpt>
      <trkpt lat="47.63357" lon="6.82136">
        <ele>421</ele>
        <time>2010-05-29T13:09:10Z</time>
      </trkpt>
      <trkpt lat="47.63357" lon="6.82144">
        <ele>421</ele>
        <time>2010-05-29T13:09:11Z</time>
      </trkpt>
      <trkpt lat="47.63356" lon="6.82154">
        <ele>421.5</ele>
        <time>2010-05-29T13:09:13Z</time>
      </trkpt>
      <trkpt lat="47.63356" lon="6.82162">
        <ele>421.5</ele>
        <time>2010-05-29T13:09:14Z</time>
      </trkpt>
      <trkpt lat="47.63355" lon="6.82169">
        <ele>422</ele>
        <time>2010-05-29T13:09:15Z</time>
      </trkpt>
      <trkpt lat="47.63354" lon="6.82177">
        <ele>422.5</ele>
        <time>2010-05-29T13:09:16Z</time>
      </trkpt>
      <trkpt lat="47.63353" lon="6.82185">
        <ele>422.5</ele>
        <time>2010-05-29T13:09:17Z</time>
      </trkpt>
      <trkpt lat="47.63353" lon="6.82193">
        <ele>422.5</ele>
        <time>2010-05-29T13:09:18Z</time>
      </trkpt>
      <trkpt lat="47.63352" lon="6.82201">
        <ele>422.5</ele>
        <time>2010-05-29T13:09:19Z</time>
      </trkpt>
      <trkpt lat="47.63351" lon="6.82208">
        <ele>422.5</ele>
        <time>2010-05-29T13:09:20Z</time>
      </trkpt>
      <trkpt lat="47.6335" lon="6.82215">
        <ele>422.5</ele>
        <time>2010-05-29T13:09:21Z</time>
      </trkpt>
      <trkpt lat="47.63349" lon="6.82223">
        <ele>423</ele>
        <time>2010-05-29T13:09:22Z</time>
      </trkpt>
      <trkpt lat="47.63348" lon="6.82231">
        <ele>423</ele>
        <time>2010-05-29T13:09:23Z</time>
      </trkpt>
      <trkpt lat="47.63347" lon="6.82239">
        <ele>423.5</ele>
        <time>2010-05-29T13:09:24Z</time>
      </trkpt>
      <trkpt lat="47.63346" lon="6.82247">
        <ele>423.5</ele>
        <time>2010-05-29T13:09:25Z</time>
      </trkpt>
      <trkpt lat="47.63344" lon="6.82254">
        <ele>423.5</ele>
        <time>2010-05-29T13:09:26Z</time>
      </trkpt>
      <trkpt lat="47.63343" lon="6.82262">
        <ele>423.5</ele>
        <time>2010-05-29T13:09:27Z</time>
      </trkpt>
      <trkpt lat="47.63343" lon="6.8227">
        <ele>424</ele>
        <time>2010-05-29T13:09:28Z</time>
      </trkpt>
      <trkpt lat="47.63342" lon="6.82277">
        <ele>423.5</ele>
        <time>2010-05-29T13:09:29Z</time>
      </trkpt>
      <trkpt lat="47.63341" lon="6.82285">
        <ele>424</ele>
        <time>2010-05-29T13:09:30Z</time>
      </trkpt>
      <trkpt lat="47.6334" lon="6.82293">
        <ele>424</ele>
        <time>2010-05-29T13:09:31Z</time>
      </trkpt>
      <trkpt lat="47.63339" lon="6.823">
        <ele>424</ele>
        <time>2010-05-29T13:09:32Z</time>
      </trkpt>
      <trkpt lat="47.63339" lon="6.82308">
        <ele>424.5</ele>
        <time>2010-05-29T13:09:33Z</time>
      </trkpt>
      <trkpt lat="47.63338" lon="6.82316">
        <ele>424.5</ele>
        <time>2010-05-29T13:09:34Z</time>
      </trkpt>
      <trkpt lat="47.63338" lon="6.82323">
        <ele>424.5</ele>
        <time>2010-05-29T13:09:35Z</time>
      </trkpt>
      <trkpt lat="47.63337" lon="6.8233">
        <ele>424.5</ele>
        <time>2010-05-29T13:09:36Z</time>
      </trkpt>
      <trkpt lat="47.63337" lon="6.82337">
        <ele>424.5</ele>
        <time>2010-05-29T13:09:37Z</time>
      </trkpt>
      <trkpt lat="47.63335" lon="6.82349">
        <ele>424.5</ele>
        <time>2010-05-29T13:09:39Z</time>
      </trkpt>
      <trkpt lat="47.63331" lon="6.82361">
        <ele>424.5</ele>
        <time>2010-05-29T13:09:41Z</time>
      </trkpt>
      <trkpt lat="47.6333" lon="6.82368">
        <ele>425</ele>
        <time>2010-05-29T13:09:42Z</time>
      </trkpt>
      <trkpt lat="47.6333" lon="6.82375">
        <ele>425</ele>
        <time>2010-05-29T13:09:43Z</time>
      </trkpt>
      <trkpt lat="47.63328" lon="6.82387">
        <ele>425.5</ele>
        <time>2010-05-29T13:09:45Z</time>
      </trkpt>
      <trkpt lat="47.63326" lon="6.82399">
        <ele>426</ele>
        <time>2010-05-29T13:09:47Z</time>
      </trkpt>
      <trkpt lat="47.63323" lon="6.8241">
        <ele>426.5</ele>
        <time>2010-05-29T13:09:49Z</time>
      </trkpt>
      <trkpt lat="47.63319" lon="6.82419">
        <ele>427.5</ele>
        <time>2010-05-29T13:09:51Z</time>
      </trkpt>
      <trkpt lat="47.63314" lon="6.82429">
        <ele>428</ele>
        <time>2010-05-29T13:09:53Z</time>
      </trkpt>
      <trkpt lat="47.63309" lon="6.82438">
        <ele>429</ele>
        <time>2010-05-29T13:09:55Z</time>
      </trkpt>
      <trkpt lat="47.63308" lon="6.82451">
        <ele>429.5</ele>
        <time>2010-05-29T13:09:57Z</time>
      </trkpt>
      <trkpt lat="47.63308" lon="6.82458">
        <ele>429.5</ele>
        <time>2010-05-29T13:09:58Z</time>
      </trkpt>
      <trkpt lat="47.63308" lon="6.82465">
        <ele>429.5</ele>
        <time>2010-05-29T13:09:59Z</time>
      </trkpt>
      <trkpt lat="47.63308" lon="6.82472">
        <ele>429.5</ele>
        <time>2010-05-29T13:10:00Z</time>
      </trkpt>
      <trkpt lat="47.63308" lon="6.8248">
        <ele>429.5</ele>
        <time>2010-05-29T13:10:01Z</time>
      </trkpt>
      <trkpt lat="47.63308" lon="6.82488">
        <ele>429.5</ele>
        <time>2010-05-29T13:10:02Z</time>
      </trkpt>
      <trkpt lat="47.63309" lon="6.82496">
        <ele>429</ele>
        <time>2010-05-29T13:10:03Z</time>
      </trkpt>
      <trkpt lat="47.63309" lon="6.82504">
        <ele>429</ele>
        <time>2010-05-29T13:10:04Z</time>
      </trkpt>
      <trkpt lat="47.6331" lon="6.82513">
        <ele>429</ele>
        <time>2010-05-29T13:10:05Z</time>
      </trkpt>
      <trkpt lat="47.63311" lon="6.82521">
        <ele>429</ele>
        <time>2010-05-29T13:10:06Z</time>
      </trkpt>
      <trkpt lat="47.63311" lon="6.8253">
        <ele>428.5</ele>
        <time>2010-05-29T13:10:07Z</time>
      </trkpt>
      <trkpt lat="47.63312" lon="6.82539">
        <ele>428</ele>
        <time>2010-05-29T13:10:08Z</time>
      </trkpt>
      <trkpt lat="47.63312" lon="6.82555">
        <ele>428</ele>
        <time>2010-05-29T13:10:08Z</time>
      </trkpt>
      <trkpt lat="47.63311" lon="6.8257">
        <ele>428</ele>
        <time>2010-05-29T13:10:11Z</time>
      </trkpt>
      <trkpt lat="47.63308" lon="6.82582">
        <ele>428</ele>
        <time>2010-05-29T13:10:13Z</time>
      </trkpt>
      <trkpt lat="47.63306" lon="6.82592">
        <ele>428</ele>
        <time>2010-05-29T13:10:14Z</time>
      </trkpt>
      <trkpt lat="47.63304" lon="6.82602">
        <ele>428</ele>
        <time>2010-05-29T13:10:15Z</time>
      </trkpt>
      <trkpt lat="47.63302" lon="6.82612">
        <ele>427.5</ele>
        <time>2010-05-29T13:10:16Z</time>
      </trkpt>
      <trkpt lat="47.633" lon="6.82621">
        <ele>427.5</ele>
        <time>2010-05-29T13:10:17Z</time>
      </trkpt>
      <trkpt lat="47.63297" lon="6.82631">
        <ele>427</ele>
        <time>2010-05-29T13:10:18Z</time>
      </trkpt>
      <trkpt lat="47.63294" lon="6.8264">
        <ele>427</ele>
        <time>2010-05-29T13:10:19Z</time>
      </trkpt>
      <trkpt lat="47.63291" lon="6.82648">
        <ele>426.5</ele>
        <time>2010-05-29T13:10:20Z</time>
      </trkpt>
      <trkpt lat="47.63289" lon="6.82657">
        <ele>427</ele>
        <time>2010-05-29T13:10:21Z</time>
      </trkpt>
      <trkpt lat="47.63286" lon="6.82666">
        <ele>426.5</ele>
        <time>2010-05-29T13:10:22Z</time>
      </trkpt>
      <trkpt lat="47.63283" lon="6.82675">
        <ele>426.5</ele>
        <time>2010-05-29T13:10:23Z</time>
      </trkpt>
      <trkpt lat="47.63279" lon="6.82683">
        <ele>426.5</ele>
        <time>2010-05-29T13:10:24Z</time>
      </trkpt>
      <trkpt lat="47.63276" lon="6.82692">
        <ele>426.5</ele>
        <time>2010-05-29T13:10:25Z</time>
      </trkpt>
      <trkpt lat="47.63272" lon="6.827">
        <ele>426</ele>
        <time>2010-05-29T13:10:26Z</time>
      </trkpt>
      <trkpt lat="47.63268" lon="6.82709">
        <ele>425.5</ele>
        <time>2010-05-29T13:10:27Z</time>
      </trkpt>
      <trkpt lat="47.63263" lon="6.82717">
        <ele>425</ele>
        <time>2010-05-29T13:10:28Z</time>
      </trkpt>
      <trkpt lat="47.63259" lon="6.82725">
        <ele>425</ele>
        <time>2010-05-29T13:10:29Z</time>
      </trkpt>
      <trkpt lat="47.63255" lon="6.82733">
        <ele>425</ele>
        <time>2010-05-29T13:10:30Z</time>
      </trkpt>
      <trkpt lat="47.6325" lon="6.82741">
        <ele>425</ele>
        <time>2010-05-29T13:10:31Z</time>
      </trkpt>
      <trkpt lat="47.63246" lon="6.82749">
        <ele>425</ele>
        <time>2010-05-29T13:10:32Z</time>
      </trkpt>
      <trkpt lat="47.63241" lon="6.82756">
        <ele>425.5</ele>
        <time>2010-05-29T13:10:33Z</time>
      </trkpt>
      <trkpt lat="47.63236" lon="6.82762">
        <ele>425</ele>
        <time>2010-05-29T13:10:34Z</time>
      </trkpt>
      <trkpt lat="47.63232" lon="6.82769">
        <ele>425.5</ele>
        <time>2010-05-29T13:10:35Z</time>
      </trkpt>
      <trkpt lat="47.63227" lon="6.82776">
        <ele>425.5</ele>
        <time>2010-05-29T13:10:36Z</time>
      </trkpt>
      <trkpt lat="47.63223" lon="6.82782">
        <ele>425</ele>
        <time>2010-05-29T13:10:37Z</time>
      </trkpt>
      <trkpt lat="47.63218" lon="6.82789">
        <ele>425</ele>
        <time>2010-05-29T13:10:38Z</time>
      </trkpt>
      <trkpt lat="47.63214" lon="6.82795">
        <ele>424.5</ele>
        <time>2010-05-29T13:10:39Z</time>
      </trkpt>
      <trkpt lat="47.63209" lon="6.828">
        <ele>425</ele>
        <time>2010-05-29T13:10:40Z</time>
      </trkpt>
      <trkpt lat="47.63203" lon="6.82809">
        <ele>425</ele>
        <time>2010-05-29T13:10:42Z</time>
      </trkpt>
      <trkpt lat="47.63199" lon="6.82814">
        <ele>425.5</ele>
        <time>2010-05-29T13:10:44Z</time>
      </trkpt>
      <trkpt lat="47.63196" lon="6.82821">
        <ele>426.5</ele>
        <time>2010-05-29T13:10:47Z</time>
      </trkpt>
      <trkpt lat="47.63192" lon="6.82826">
        <ele>425.5</ele>
        <time>2010-05-29T13:10:49Z</time>
      </trkpt>
      <trkpt lat="47.63187" lon="6.82833">
        <ele>426.5</ele>
        <time>2010-05-29T13:10:52Z</time>
      </trkpt>
      <trkpt lat="47.63182" lon="6.82841">
        <ele>426</ele>
        <time>2010-05-29T13:10:54Z</time>
      </trkpt>
      <trkpt lat="47.63177" lon="6.82851">
        <ele>426</ele>
        <time>2010-05-29T13:10:56Z</time>
      </trkpt>
      <trkpt lat="47.63172" lon="6.8286">
        <ele>426.5</ele>
        <time>2010-05-29T13:10:58Z</time>
      </trkpt>
      <trkpt lat="47.63169" lon="6.82864">
        <ele>426.5</ele>
        <time>2010-05-29T13:10:59Z</time>
      </trkpt>
      <trkpt lat="47.63165" lon="6.8287">
        <ele>426.5</ele>
        <time>2010-05-29T13:11:00Z</time>
      </trkpt>
      <trkpt lat="47.63161" lon="6.82875">
        <ele>426</ele>
        <time>2010-05-29T13:11:01Z</time>
      </trkpt>
      <trkpt lat="47.63158" lon="6.8288">
        <ele>426</ele>
        <time>2010-05-29T13:11:02Z</time>
      </trkpt>
      <trkpt lat="47.63154" lon="6.82884">
        <ele>426</ele>
        <time>2010-05-29T13:11:03Z</time>
      </trkpt>
      <trkpt lat="47.6315" lon="6.8289">
        <ele>426</ele>
        <time>2010-05-29T13:11:04Z</time>
      </trkpt>
      <trkpt lat="47.63147" lon="6.82895">
        <ele>425.5</ele>
        <time>2010-05-29T13:11:05Z</time>
      </trkpt>
      <trkpt lat="47.63143" lon="6.829">
        <ele>425.5</ele>
        <time>2010-05-29T13:11:06Z</time>
      </trkpt>
      <trkpt lat="47.63139" lon="6.82905">
        <ele>425</ele>
        <time>2010-05-29T13:11:07Z</time>
      </trkpt>
      <trkpt lat="47.63135" lon="6.8291">
        <ele>425</ele>
        <time>2010-05-29T13:11:08Z</time>
      </trkpt>
      <trkpt lat="47.63129" lon="6.8292">
        <ele>425</ele>
        <time>2010-05-29T13:11:08Z</time>
      </trkpt>
      <trkpt lat="47.63125" lon="6.82926">
        <ele>425</ele>
        <time>2010-05-29T13:11:10Z</time>
      </trkpt>
      <trkpt lat="47.63121" lon="6.82931">
        <ele>425</ele>
        <time>2010-05-29T13:11:11Z</time>
      </trkpt>
      <trkpt lat="47.63117" lon="6.82938">
        <ele>424.5</ele>
        <time>2010-05-29T13:11:13Z</time>
      </trkpt>
      <trkpt lat="47.63112" lon="6.82944">
        <ele>424.5</ele>
        <time>2010-05-29T13:11:14Z</time>
      </trkpt>
      <trkpt lat="47.63108" lon="6.8295">
        <ele>424.5</ele>
        <time>2010-05-29T13:11:15Z</time>
      </trkpt>
      <trkpt lat="47.63104" lon="6.82956">
        <ele>424</ele>
        <time>2010-05-29T13:11:16Z</time>
      </trkpt>
      <trkpt lat="47.631" lon="6.82961">
        <ele>424</ele>
        <time>2010-05-29T13:11:17Z</time>
      </trkpt>
      <trkpt lat="47.63095" lon="6.82967">
        <ele>424.5</ele>
        <time>2010-05-29T13:11:18Z</time>
      </trkpt>
      <trkpt lat="47.63091" lon="6.82973">
        <ele>424</ele>
        <time>2010-05-29T13:11:19Z</time>
      </trkpt>
      <trkpt lat="47.63087" lon="6.82979">
        <ele>424</ele>
        <time>2010-05-29T13:11:20Z</time>
      </trkpt>
      <trkpt lat="47.63083" lon="6.82985">
        <ele>424.5</ele>
        <time>2010-05-29T13:11:21Z</time>
      </trkpt>
      <trkpt lat="47.63079" lon="6.82992">
        <ele>424.5</ele>
        <time>2010-05-29T13:11:22Z</time>
      </trkpt>
      <trkpt lat="47.63074" lon="6.82998">
        <ele>424.5</ele>
        <time>2010-05-29T13:11:23Z</time>
      </trkpt>
      <trkpt lat="47.6307" lon="6.83004">
        <ele>424.5</ele>
        <time>2010-05-29T13:11:24Z</time>
      </trkpt>
      <trkpt lat="47.63066" lon="6.8301">
        <ele>424.5</ele>
        <time>2010-05-29T13:11:25Z</time>
      </trkpt>
      <trkpt lat="47.63062" lon="6.83016">
        <ele>424.5</ele>
        <time>2010-05-29T13:11:26Z</time>
      </trkpt>
      <trkpt lat="47.63057" lon="6.83022">
        <ele>424</ele>
        <time>2010-05-29T13:11:27Z</time>
      </trkpt>
      <trkpt lat="47.63052" lon="6.83028">
        <ele>424</ele>
        <time>2010-05-29T13:11:28Z</time>
      </trkpt>
      <trkpt lat="47.63048" lon="6.83034">
        <ele>424.5</ele>
        <time>2010-05-29T13:11:29Z</time>
      </trkpt>
      <trkpt lat="47.63043" lon="6.8304">
        <ele>424.5</ele>
        <time>2010-05-29T13:11:30Z</time>
      </trkpt>
      <trkpt lat="47.63039" lon="6.83046">
        <ele>424.5</ele>
        <time>2010-05-29T13:11:31Z</time>
      </trkpt>
      <trkpt lat="47.63034" lon="6.83052">
        <ele>424.5</ele>
        <time>2010-05-29T13:11:32Z</time>
      </trkpt>
      <trkpt lat="47.6303" lon="6.83058">
        <ele>424.5</ele>
        <time>2010-05-29T13:11:33Z</time>
      </trkpt>
      <trkpt lat="47.63025" lon="6.83064">
        <ele>424.5</ele>
        <time>2010-05-29T13:11:34Z</time>
      </trkpt>
      <trkpt lat="47.63021" lon="6.8307">
        <ele>424.5</ele>
        <time>2010-05-29T13:11:35Z</time>
      </trkpt>
      <trkpt lat="47.63016" lon="6.83076">
        <ele>424</ele>
        <time>2010-05-29T13:11:36Z</time>
      </trkpt>
      <trkpt lat="47.63012" lon="6.83082">
        <ele>424</ele>
        <time>2010-05-29T13:11:37Z</time>
      </trkpt>
      <trkpt lat="47.63007" lon="6.83088">
        <ele>424</ele>
        <time>2010-05-29T13:11:38Z</time>
      </trkpt>
      <trkpt lat="47.63003" lon="6.83094">
        <ele>424</ele>
        <time>2010-05-29T13:11:39Z</time>
      </trkpt>
      <trkpt lat="47.62999" lon="6.83099">
        <ele>424.5</ele>
        <time>2010-05-29T13:11:40Z</time>
      </trkpt>
      <trkpt lat="47.62994" lon="6.83105">
        <ele>424.5</ele>
        <time>2010-05-29T13:11:41Z</time>
      </trkpt>
      <trkpt lat="47.6299" lon="6.83111">
        <ele>424</ele>
        <time>2010-05-29T13:11:42Z</time>
      </trkpt>
      <trkpt lat="47.62986" lon="6.83117">
        <ele>424</ele>
        <time>2010-05-29T13:11:43Z</time>
      </trkpt>
      <trkpt lat="47.62981" lon="6.83123">
        <ele>424</ele>
        <time>2010-05-29T13:11:44Z</time>
      </trkpt>
      <trkpt lat="47.62977" lon="6.8313">
        <ele>424</ele>
        <time>2010-05-29T13:11:45Z</time>
      </trkpt>
      <trkpt lat="47.62973" lon="6.83136">
        <ele>424</ele>
        <time>2010-05-29T13:11:46Z</time>
      </trkpt>
      <trkpt lat="47.62969" lon="6.83142">
        <ele>424.5</ele>
        <time>2010-05-29T13:11:47Z</time>
      </trkpt>
      <trkpt lat="47.62964" lon="6.83148">
        <ele>424.5</ele>
        <time>2010-05-29T13:11:48Z</time>
      </trkpt>
      <trkpt lat="47.6296" lon="6.83154">
        <ele>424.5</ele>
        <time>2010-05-29T13:11:49Z</time>
      </trkpt>
      <trkpt lat="47.62955" lon="6.83161">
        <ele>424.5</ele>
        <time>2010-05-29T13:11:50Z</time>
      </trkpt>
      <trkpt lat="47.62951" lon="6.83167">
        <ele>424.5</ele>
        <time>2010-05-29T13:11:51Z</time>
      </trkpt>
      <trkpt lat="47.62946" lon="6.83173">
        <ele>424.5</ele>
        <time>2010-05-29T13:11:52Z</time>
      </trkpt>
      <trkpt lat="47.62942" lon="6.83179">
        <ele>424.5</ele>
        <time>2010-05-29T13:11:53Z</time>
      </trkpt>
      <trkpt lat="47.62937" lon="6.83185">
        <ele>424.5</ele>
        <time>2010-05-29T13:11:54Z</time>
      </trkpt>
      <trkpt lat="47.62933" lon="6.83191">
        <ele>424.5</ele>
        <time>2010-05-29T13:11:55Z</time>
      </trkpt>
      <trkpt lat="47.62928" lon="6.83198">
        <ele>424.5</ele>
        <time>2010-05-29T13:11:56Z</time>
      </trkpt>
      <trkpt lat="47.62924" lon="6.83204">
        <ele>425</ele>
        <time>2010-05-29T13:11:57Z</time>
      </trkpt>
      <trkpt lat="47.62919" lon="6.8321">
        <ele>425</ele>
        <time>2010-05-29T13:11:58Z</time>
      </trkpt>
      <trkpt lat="47.62915" lon="6.83216">
        <ele>425</ele>
        <time>2010-05-29T13:11:59Z</time>
      </trkpt>
      <trkpt lat="47.6291" lon="6.83223">
        <ele>424.5</ele>
        <time>2010-05-29T13:12:00Z</time>
      </trkpt>
      <trkpt lat="47.62905" lon="6.83229">
        <ele>424.5</ele>
        <time>2010-05-29T13:12:01Z</time>
      </trkpt>
      <trkpt lat="47.62901" lon="6.83235">
        <ele>424.5</ele>
        <time>2010-05-29T13:12:02Z</time>
      </trkpt>
      <trkpt lat="47.62896" lon="6.83241">
        <ele>424.5</ele>
        <time>2010-05-29T13:12:03Z</time>
      </trkpt>
      <trkpt lat="47.62892" lon="6.83248">
        <ele>424.5</ele>
        <time>2010-05-29T13:12:04Z</time>
      </trkpt>
      <trkpt lat="47.62887" lon="6.83254">
        <ele>424.5</ele>
        <time>2010-05-29T13:12:05Z</time>
      </trkpt>
      <trkpt lat="47.62883" lon="6.8326">
        <ele>424</ele>
        <time>2010-05-29T13:12:06Z</time>
      </trkpt>
      <trkpt lat="47.62878" lon="6.83266">
        <ele>424</ele>
        <time>2010-05-29T13:12:07Z</time>
      </trkpt>
      <trkpt lat="47.62874" lon="6.83272">
        <ele>423.5</ele>
        <time>2010-05-29T13:12:08Z</time>
      </trkpt>
      <trkpt lat="47.62866" lon="6.83283">
        <ele>423.5</ele>
        <time>2010-05-29T13:12:08Z</time>
      </trkpt>
      <trkpt lat="47.62862" lon="6.83288">
        <ele>424</ele>
        <time>2010-05-29T13:12:10Z</time>
      </trkpt>
      <trkpt lat="47.62857" lon="6.83295">
        <ele>423.5</ele>
        <time>2010-05-29T13:12:11Z</time>
      </trkpt>
      <trkpt lat="47.62852" lon="6.83301">
        <ele>424</ele>
        <time>2010-05-29T13:12:13Z</time>
      </trkpt>
      <trkpt lat="47.62848" lon="6.83308">
        <ele>424</ele>
        <time>2010-05-29T13:12:14Z</time>
      </trkpt>
      <trkpt lat="47.62844" lon="6.83314">
        <ele>424.5</ele>
        <time>2010-05-29T13:12:15Z</time>
      </trkpt>
      <trkpt lat="47.6284" lon="6.83319">
        <ele>424.5</ele>
        <time>2010-05-29T13:12:16Z</time>
      </trkpt>
      <trkpt lat="47.62835" lon="6.83326">
        <ele>424.5</ele>
        <time>2010-05-29T13:12:17Z</time>
      </trkpt>
      <trkpt lat="47.62831" lon="6.83332">
        <ele>424.5</ele>
        <time>2010-05-29T13:12:18Z</time>
      </trkpt>
      <trkpt lat="47.62827" lon="6.83338">
        <ele>424.5</ele>
        <time>2010-05-29T13:12:19Z</time>
      </trkpt>
      <trkpt lat="47.62822" lon="6.83344">
        <ele>424.5</ele>
        <time>2010-05-29T13:12:20Z</time>
      </trkpt>
      <trkpt lat="47.62818" lon="6.8335">
        <ele>424.5</ele>
        <time>2010-05-29T13:12:21Z</time>
      </trkpt>
      <trkpt lat="47.62813" lon="6.83357">
        <ele>424.5</ele>
        <time>2010-05-29T13:12:22Z</time>
      </trkpt>
      <trkpt lat="47.62809" lon="6.83363">
        <ele>424.5</ele>
        <time>2010-05-29T13:12:23Z</time>
      </trkpt>
      <trkpt lat="47.62805" lon="6.83369">
        <ele>424.5</ele>
        <time>2010-05-29T13:12:24Z</time>
      </trkpt>
      <trkpt lat="47.628" lon="6.83376">
        <ele>424.5</ele>
        <time>2010-05-29T13:12:25Z</time>
      </trkpt>
      <trkpt lat="47.62796" lon="6.83381">
        <ele>424.5</ele>
        <time>2010-05-29T13:12:26Z</time>
      </trkpt>
      <trkpt lat="47.62791" lon="6.83387">
        <ele>424</ele>
        <time>2010-05-29T13:12:27Z</time>
      </trkpt>
      <trkpt lat="47.62787" lon="6.83393">
        <ele>424.5</ele>
        <time>2010-05-29T13:12:28Z</time>
      </trkpt>
      <trkpt lat="47.62783" lon="6.83399">
        <ele>424.5</ele>
        <time>2010-05-29T13:12:29Z</time>
      </trkpt>
      <trkpt lat="47.62778" lon="6.83406">
        <ele>424</ele>
        <time>2010-05-29T13:12:30Z</time>
      </trkpt>
      <trkpt lat="47.62774" lon="6.83411">
        <ele>424</ele>
        <time>2010-05-29T13:12:31Z</time>
      </trkpt>
      <trkpt lat="47.6277" lon="6.83417">
        <ele>424.5</ele>
        <time>2010-05-29T13:12:32Z</time>
      </trkpt>
      <trkpt lat="47.62765" lon="6.83423">
        <ele>425</ele>
        <time>2010-05-29T13:12:33Z</time>
      </trkpt>
      <trkpt lat="47.62761" lon="6.83429">
        <ele>425</ele>
        <time>2010-05-29T13:12:34Z</time>
      </trkpt>
      <trkpt lat="47.62757" lon="6.83434">
        <ele>425</ele>
        <time>2010-05-29T13:12:35Z</time>
      </trkpt>
      <trkpt lat="47.62752" lon="6.8344">
        <ele>425</ele>
        <time>2010-05-29T13:12:36Z</time>
      </trkpt>
      <trkpt lat="47.62748" lon="6.83446">
        <ele>425</ele>
        <time>2010-05-29T13:12:37Z</time>
      </trkpt>
      <trkpt lat="47.62744" lon="6.83452">
        <ele>425</ele>
        <time>2010-05-29T13:12:38Z</time>
      </trkpt>
      <trkpt lat="47.62739" lon="6.83458">
        <ele>425</ele>
        <time>2010-05-29T13:12:39Z</time>
      </trkpt>
      <trkpt lat="47.62735" lon="6.83464">
        <ele>425</ele>
        <time>2010-05-29T13:12:40Z</time>
      </trkpt>
      <trkpt lat="47.62731" lon="6.83469">
        <ele>425.5</ele>
        <time>2010-05-29T13:12:41Z</time>
      </trkpt>
      <trkpt lat="47.62727" lon="6.83475">
        <ele>425.5</ele>
        <time>2010-05-29T13:12:42Z</time>
      </trkpt>
      <trkpt lat="47.62723" lon="6.83481">
        <ele>425.5</ele>
        <time>2010-05-29T13:12:43Z</time>
      </trkpt>
      <trkpt lat="47.62718" lon="6.83487">
        <ele>426</ele>
        <time>2010-05-29T13:12:44Z</time>
      </trkpt>
      <trkpt lat="47.62714" lon="6.83493">
        <ele>425.5</ele>
        <time>2010-05-29T13:12:45Z</time>
      </trkpt>
      <trkpt lat="47.62709" lon="6.835">
        <ele>425.5</ele>
        <time>2010-05-29T13:12:46Z</time>
      </trkpt>
      <trkpt lat="47.62705" lon="6.83506">
        <ele>425.5</ele>
        <time>2010-05-29T13:12:47Z</time>
      </trkpt>
      <trkpt lat="47.62701" lon="6.83512">
        <ele>425.5</ele>
        <time>2010-05-29T13:12:48Z</time>
      </trkpt>
      <trkpt lat="47.62696" lon="6.83517">
        <ele>425</ele>
        <time>2010-05-29T13:12:49Z</time>
      </trkpt>
      <trkpt lat="47.62692" lon="6.83524">
        <ele>425</ele>
        <time>2010-05-29T13:12:50Z</time>
      </trkpt>
      <trkpt lat="47.62687" lon="6.8353">
        <ele>425</ele>
        <time>2010-05-29T13:12:51Z</time>
      </trkpt>
      <trkpt lat="47.62683" lon="6.83536">
        <ele>425</ele>
        <time>2010-05-29T13:12:52Z</time>
      </trkpt>
      <trkpt lat="47.62679" lon="6.83542">
        <ele>425</ele>
        <time>2010-05-29T13:12:53Z</time>
      </trkpt>
      <trkpt lat="47.62675" lon="6.83548">
        <ele>425</ele>
        <time>2010-05-29T13:12:54Z</time>
      </trkpt>
      <trkpt lat="47.6267" lon="6.83555">
        <ele>425</ele>
        <time>2010-05-29T13:12:55Z</time>
      </trkpt>
      <trkpt lat="47.62666" lon="6.83561">
        <ele>424.5</ele>
        <time>2010-05-29T13:12:56Z</time>
      </trkpt>
      <trkpt lat="47.62661" lon="6.83568">
        <ele>424.5</ele>
        <time>2010-05-29T13:12:57Z</time>
      </trkpt>
      <trkpt lat="47.62657" lon="6.83575">
        <ele>424.5</ele>
        <time>2010-05-29T13:12:58Z</time>
      </trkpt>
      <trkpt lat="47.62653" lon="6.83582">
        <ele>424</ele>
        <time>2010-05-29T13:12:59Z</time>
      </trkpt>
      <trkpt lat="47.62648" lon="6.83589">
        <ele>424</ele>
        <time>2010-05-29T13:13:00Z</time>
      </trkpt>
      <trkpt lat="47.62642" lon="6.83595">
        <ele>423.5</ele>
        <time>2010-05-29T13:13:01Z</time>
      </trkpt>
      <trkpt lat="47.62638" lon="6.83601">
        <ele>423.5</ele>
        <time>2010-05-29T13:13:02Z</time>
      </trkpt>
      <trkpt lat="47.62632" lon="6.83608">
        <ele>423.5</ele>
        <time>2010-05-29T13:13:03Z</time>
      </trkpt>
      <trkpt lat="47.62627" lon="6.83614">
        <ele>423.5</ele>
        <time>2010-05-29T13:13:04Z</time>
      </trkpt>
      <trkpt lat="47.62622" lon="6.83619">
        <ele>423</ele>
        <time>2010-05-29T13:13:05Z</time>
      </trkpt>
      <trkpt lat="47.62617" lon="6.83625">
        <ele>423</ele>
        <time>2010-05-29T13:13:06Z</time>
      </trkpt>
      <trkpt lat="47.62611" lon="6.83631">
        <ele>423</ele>
        <time>2010-05-29T13:13:07Z</time>
      </trkpt>
      <trkpt lat="47.62606" lon="6.83638">
        <ele>422.5</ele>
        <time>2010-05-29T13:13:08Z</time>
      </trkpt>
      <trkpt lat="47.62597" lon="6.8365">
        <ele>422</ele>
        <time>2010-05-29T13:13:08Z</time>
      </trkpt>
      <trkpt lat="47.62593" lon="6.83656">
        <ele>422</ele>
        <time>2010-05-29T13:13:10Z</time>
      </trkpt>
      <trkpt lat="47.62587" lon="6.83665">
        <ele>422</ele>
        <time>2010-05-29T13:13:11Z</time>
      </trkpt>
      <trkpt lat="47.6258" lon="6.83676">
        <ele>421.5</ele>
        <time>2010-05-29T13:13:13Z</time>
      </trkpt>
      <trkpt lat="47.62575" lon="6.83684">
        <ele>421.5</ele>
        <time>2010-05-29T13:13:14Z</time>
      </trkpt>
      <trkpt lat="47.6257" lon="6.83694">
        <ele>421.5</ele>
        <time>2010-05-29T13:13:15Z</time>
      </trkpt>
      <trkpt lat="47.62565" lon="6.83702">
        <ele>422</ele>
        <time>2010-05-29T13:13:16Z</time>
      </trkpt>
      <trkpt lat="47.6256" lon="6.83711">
        <ele>422</ele>
        <time>2010-05-29T13:13:17Z</time>
      </trkpt>
      <trkpt lat="47.62554" lon="6.83719">
        <ele>421.5</ele>
        <time>2010-05-29T13:13:18Z</time>
      </trkpt>
      <trkpt lat="47.62548" lon="6.83726">
        <ele>421</ele>
        <time>2010-05-29T13:13:19Z</time>
      </trkpt>
      <trkpt lat="47.62541" lon="6.83733">
        <ele>421</ele>
        <time>2010-05-29T13:13:20Z</time>
      </trkpt>
      <trkpt lat="47.62536" lon="6.8374">
        <ele>421</ele>
        <time>2010-05-29T13:13:21Z</time>
      </trkpt>
      <trkpt lat="47.6253" lon="6.83747">
        <ele>421</ele>
        <time>2010-05-29T13:13:22Z</time>
      </trkpt>
      <trkpt lat="47.62525" lon="6.83754">
        <ele>421</ele>
        <time>2010-05-29T13:13:23Z</time>
      </trkpt>
      <trkpt lat="47.6252" lon="6.83761">
        <ele>421</ele>
        <time>2010-05-29T13:13:24Z</time>
      </trkpt>
      <trkpt lat="47.62515" lon="6.83767">
        <ele>421</ele>
        <time>2010-05-29T13:13:25Z</time>
      </trkpt>
      <trkpt lat="47.6251" lon="6.83774">
        <ele>421</ele>
        <time>2010-05-29T13:13:26Z</time>
      </trkpt>
      <trkpt lat="47.62505" lon="6.83781">
        <ele>421</ele>
        <time>2010-05-29T13:13:27Z</time>
      </trkpt>
      <trkpt lat="47.62501" lon="6.83788">
        <ele>421.5</ele>
        <time>2010-05-29T13:13:28Z</time>
      </trkpt>
      <trkpt lat="47.62496" lon="6.83795">
        <ele>421.5</ele>
        <time>2010-05-29T13:13:29Z</time>
      </trkpt>
      <trkpt lat="47.62491" lon="6.83801">
        <ele>421.5</ele>
        <time>2010-05-29T13:13:30Z</time>
      </trkpt>
      <trkpt lat="47.62487" lon="6.83808">
        <ele>422</ele>
        <time>2010-05-29T13:13:31Z</time>
      </trkpt>
      <trkpt lat="47.62482" lon="6.83814">
        <ele>422.5</ele>
        <time>2010-05-29T13:13:32Z</time>
      </trkpt>
      <trkpt lat="47.62477" lon="6.83821">
        <ele>422.5</ele>
        <time>2010-05-29T13:13:33Z</time>
      </trkpt>
      <trkpt lat="47.62473" lon="6.83827">
        <ele>422</ele>
        <time>2010-05-29T13:13:34Z</time>
      </trkpt>
      <trkpt lat="47.62468" lon="6.83834">
        <ele>422</ele>
        <time>2010-05-29T13:13:35Z</time>
      </trkpt>
      <trkpt lat="47.62464" lon="6.8384">
        <ele>422</ele>
        <time>2010-05-29T13:13:36Z</time>
      </trkpt>
      <trkpt lat="47.62459" lon="6.83846">
        <ele>421.5</ele>
        <time>2010-05-29T13:13:37Z</time>
      </trkpt>
      <trkpt lat="47.62455" lon="6.83853">
        <ele>421.5</ele>
        <time>2010-05-29T13:13:38Z</time>
      </trkpt>
      <trkpt lat="47.62451" lon="6.83859">
        <ele>422</ele>
        <time>2010-05-29T13:13:39Z</time>
      </trkpt>
      <trkpt lat="47.62447" lon="6.83865">
        <ele>422.5</ele>
        <time>2010-05-29T13:13:40Z</time>
      </trkpt>
      <trkpt lat="47.62442" lon="6.83871">
        <ele>422.5</ele>
        <time>2010-05-29T13:13:41Z</time>
      </trkpt>
      <trkpt lat="47.62438" lon="6.83877">
        <ele>422.5</ele>
        <time>2010-05-29T13:13:42Z</time>
      </trkpt>
      <trkpt lat="47.62434" lon="6.83882">
        <ele>423</ele>
        <time>2010-05-29T13:13:43Z</time>
      </trkpt>
      <trkpt lat="47.6243" lon="6.83888">
        <ele>422.5</ele>
        <time>2010-05-29T13:13:44Z</time>
      </trkpt>
      <trkpt lat="47.62425" lon="6.83894">
        <ele>422.5</ele>
        <time>2010-05-29T13:13:45Z</time>
      </trkpt>
      <trkpt lat="47.62421" lon="6.839">
        <ele>422.5</ele>
        <time>2010-05-29T13:13:46Z</time>
      </trkpt>
      <trkpt lat="47.62417" lon="6.83906">
        <ele>422.5</ele>
        <time>2010-05-29T13:13:47Z</time>
      </trkpt>
      <trkpt lat="47.62413" lon="6.83912">
        <ele>422.5</ele>
        <time>2010-05-29T13:13:48Z</time>
      </trkpt>
      <trkpt lat="47.62409" lon="6.83918">
        <ele>422.5</ele>
        <time>2010-05-29T13:13:49Z</time>
      </trkpt>
      <trkpt lat="47.62405" lon="6.83924">
        <ele>422.5</ele>
        <time>2010-05-29T13:13:50Z</time>
      </trkpt>
      <trkpt lat="47.62401" lon="6.8393">
        <ele>422.5</ele>
        <time>2010-05-29T13:13:51Z</time>
      </trkpt>
      <trkpt lat="47.62397" lon="6.83935">
        <ele>423</ele>
        <time>2010-05-29T13:13:52Z</time>
      </trkpt>
      <trkpt lat="47.62394" lon="6.8394">
        <ele>423</ele>
        <time>2010-05-29T13:13:53Z</time>
      </trkpt>
      <trkpt lat="47.62391" lon="6.83946">
        <ele>423.5</ele>
        <time>2010-05-29T13:13:54Z</time>
      </trkpt>
      <trkpt lat="47.62387" lon="6.83951">
        <ele>423.5</ele>
        <time>2010-05-29T13:13:55Z</time>
      </trkpt>
      <trkpt lat="47.62383" lon="6.83956">
        <ele>423.5</ele>
        <time>2010-05-29T13:13:56Z</time>
      </trkpt>
      <trkpt lat="47.62379" lon="6.8396">
        <ele>423.5</ele>
        <time>2010-05-29T13:13:57Z</time>
      </trkpt>
      <trkpt lat="47.62376" lon="6.83964">
        <ele>423</ele>
        <time>2010-05-29T13:13:58Z</time>
      </trkpt>
      <trkpt lat="47.62369" lon="6.83972">
        <ele>423</ele>
        <time>2010-05-29T13:14:00Z</time>
      </trkpt>
      <trkpt lat="47.62363" lon="6.83977">
        <ele>422</ele>
        <time>2010-05-29T13:14:02Z</time>
      </trkpt>
      <trkpt lat="47.6236" lon="6.83978">
        <ele>421.5</ele>
        <time>2010-05-29T13:14:08Z</time>
      </trkpt>
      <trkpt lat="47.62356" lon="6.83978">
        <ele>421.5</ele>
        <time>2010-05-29T13:14:33Z</time>
      </trkpt>
      <trkpt lat="47.62355" lon="6.83978">
        <ele>421.5</ele>
        <time>2010-05-29T13:14:34Z</time>
      </trkpt>
      <trkpt lat="47.62354" lon="6.83978">
        <ele>421</ele>
        <time>2010-05-29T13:14:40Z</time>
      </trkpt>
      <trkpt lat="47.62351" lon="6.8398">
        <ele>421.5</ele>
        <time>2010-05-29T13:14:43Z</time>
      </trkpt>
      <trkpt lat="47.6235" lon="6.83982">
        <ele>421.5</ele>
        <time>2010-05-29T13:14:44Z</time>
      </trkpt>
      <trkpt lat="47.62345" lon="6.83986">
        <ele>421</ele>
        <time>2010-05-29T13:14:46Z</time>
      </trkpt>
      <trkpt lat="47.62339" lon="6.83993">
        <ele>421</ele>
        <time>2010-05-29T13:14:48Z</time>
      </trkpt>
      <trkpt lat="47.62336" lon="6.83998">
        <ele>420.5</ele>
        <time>2010-05-29T13:14:49Z</time>
      </trkpt>
      <trkpt lat="47.62332" lon="6.84003">
        <ele>421</ele>
        <time>2010-05-29T13:14:50Z</time>
      </trkpt>
      <trkpt lat="47.62328" lon="6.84008">
        <ele>420.5</ele>
        <time>2010-05-29T13:14:51Z</time>
      </trkpt>
      <trkpt lat="47.62323" lon="6.84013">
        <ele>420</ele>
        <time>2010-05-29T13:14:52Z</time>
      </trkpt>
      <trkpt lat="47.62319" lon="6.84019">
        <ele>420</ele>
        <time>2010-05-29T13:14:53Z</time>
      </trkpt>
      <trkpt lat="47.62314" lon="6.84024">
        <ele>420.5</ele>
        <time>2010-05-29T13:14:54Z</time>
      </trkpt>
      <trkpt lat="47.62309" lon="6.84029">
        <ele>420</ele>
        <time>2010-05-29T13:14:55Z</time>
      </trkpt>
      <trkpt lat="47.62303" lon="6.84035">
        <ele>420</ele>
        <time>2010-05-29T13:14:56Z</time>
      </trkpt>
      <trkpt lat="47.62297" lon="6.8404">
        <ele>420</ele>
        <time>2010-05-29T13:14:57Z</time>
      </trkpt>
      <trkpt lat="47.62291" lon="6.84045">
        <ele>419.5</ele>
        <time>2010-05-29T13:14:58Z</time>
      </trkpt>
      <trkpt lat="47.62285" lon="6.8405">
        <ele>419.5</ele>
        <time>2010-05-29T13:14:59Z</time>
      </trkpt>
      <trkpt lat="47.62279" lon="6.84054">
        <ele>419</ele>
        <time>2010-05-29T13:15:00Z</time>
      </trkpt>
      <trkpt lat="47.62273" lon="6.84058">
        <ele>419</ele>
        <time>2010-05-29T13:15:01Z</time>
      </trkpt>
      <trkpt lat="47.62266" lon="6.84062">
        <ele>418.5</ele>
        <time>2010-05-29T13:15:02Z</time>
      </trkpt>
      <trkpt lat="47.6226" lon="6.84066">
        <ele>418.5</ele>
        <time>2010-05-29T13:15:03Z</time>
      </trkpt>
      <trkpt lat="47.62253" lon="6.84069">
        <ele>419</ele>
        <time>2010-05-29T13:15:04Z</time>
      </trkpt>
      <trkpt lat="47.62247" lon="6.84072">
        <ele>419.5</ele>
        <time>2010-05-29T13:15:05Z</time>
      </trkpt>
      <trkpt lat="47.6224" lon="6.84075">
        <ele>419.5</ele>
        <time>2010-05-29T13:15:06Z</time>
      </trkpt>
      <trkpt lat="47.62234" lon="6.84078">
        <ele>419.5</ele>
        <time>2010-05-29T13:15:07Z</time>
      </trkpt>
      <trkpt lat="47.62229" lon="6.84079">
        <ele>420</ele>
        <time>2010-05-29T13:15:08Z</time>
      </trkpt>
      <trkpt lat="47.62218" lon="6.84083">
        <ele>420</ele>
        <time>2010-05-29T13:15:08Z</time>
      </trkpt>
      <trkpt lat="47.62207" lon="6.84087">
        <ele>420</ele>
        <time>2010-05-29T13:15:11Z</time>
      </trkpt>
      <trkpt lat="47.622" lon="6.84088">
        <ele>420</ele>
        <time>2010-05-29T13:15:13Z</time>
      </trkpt>
      <trkpt lat="47.62192" lon="6.84089">
        <ele>420.5</ele>
        <time>2010-05-29T13:15:15Z</time>
      </trkpt>
      <trkpt lat="47.62185" lon="6.8409">
        <ele>421</ele>
        <time>2010-05-29T13:15:16Z</time>
      </trkpt>
      <trkpt lat="47.6218" lon="6.84091">
        <ele>421.5</ele>
        <time>2010-05-29T13:15:17Z</time>
      </trkpt>
      <trkpt lat="47.62174" lon="6.84092">
        <ele>422</ele>
        <time>2010-05-29T13:15:18Z</time>
      </trkpt>
      <trkpt lat="47.62167" lon="6.84093">
        <ele>422</ele>
        <time>2010-05-29T13:15:19Z</time>
      </trkpt>
      <trkpt lat="47.62161" lon="6.84095">
        <ele>422.5</ele>
        <time>2010-05-29T13:15:20Z</time>
      </trkpt>
      <trkpt lat="47.62155" lon="6.84097">
        <ele>422.5</ele>
        <time>2010-05-29T13:15:21Z</time>
      </trkpt>
      <trkpt lat="47.62148" lon="6.84098">
        <ele>423</ele>
        <time>2010-05-29T13:15:22Z</time>
      </trkpt>
      <trkpt lat="47.6214" lon="6.841">
        <ele>423</ele>
        <time>2010-05-29T13:15:23Z</time>
      </trkpt>
      <trkpt lat="47.62134" lon="6.84102">
        <ele>423.5</ele>
        <time>2010-05-29T13:15:24Z</time>
      </trkpt>
      <trkpt lat="47.62128" lon="6.84105">
        <ele>424</ele>
        <time>2010-05-29T13:15:25Z</time>
      </trkpt>
      <trkpt lat="47.62122" lon="6.84108">
        <ele>423.5</ele>
        <time>2010-05-29T13:15:26Z</time>
      </trkpt>
      <trkpt lat="47.62117" lon="6.8411">
        <ele>423.5</ele>
        <time>2010-05-29T13:15:27Z</time>
      </trkpt>
      <trkpt lat="47.62111" lon="6.84112">
        <ele>424</ele>
        <time>2010-05-29T13:15:28Z</time>
      </trkpt>
      <trkpt lat="47.62105" lon="6.84113">
        <ele>424</ele>
        <time>2010-05-29T13:15:29Z</time>
      </trkpt>
      <trkpt lat="47.621" lon="6.84114">
        <ele>424</ele>
        <time>2010-05-29T13:15:30Z</time>
      </trkpt>
      <trkpt lat="47.62094" lon="6.84115">
        <ele>424</ele>
        <time>2010-05-29T13:15:31Z</time>
      </trkpt>
      <trkpt lat="47.62088" lon="6.84116">
        <ele>423.5</ele>
        <time>2010-05-29T13:15:32Z</time>
      </trkpt>
      <trkpt lat="47.62083" lon="6.84116">
        <ele>423</ele>
        <time>2010-05-29T13:15:33Z</time>
      </trkpt>
      <trkpt lat="47.62078" lon="6.84116">
        <ele>422.5</ele>
        <time>2010-05-29T13:15:34Z</time>
      </trkpt>
      <trkpt lat="47.62071" lon="6.84115">
        <ele>421</ele>
        <time>2010-05-29T13:15:36Z</time>
      </trkpt>
      <trkpt lat="47.62067" lon="6.84115">
        <ele>419.5</ele>
        <time>2010-05-29T13:15:39Z</time>
      </trkpt>
      <trkpt lat="47.62062" lon="6.84113">
        <ele>417</ele>
        <time>2010-05-29T13:15:45Z</time>
      </trkpt>
      <trkpt lat="47.62055" lon="6.84114">
        <ele>417</ele>
        <time>2010-05-29T13:15:47Z</time>
      </trkpt>
      <trkpt lat="47.62047" lon="6.84115">
        <ele>415.5</ele>
        <time>2010-05-29T13:15:49Z</time>
      </trkpt>
      <trkpt lat="47.62042" lon="6.84116">
        <ele>415</ele>
        <time>2010-05-29T13:15:50Z</time>
      </trkpt>
      <trkpt lat="47.62036" lon="6.84117">
        <ele>414.5</ele>
        <time>2010-05-29T13:15:51Z</time>
      </trkpt>
      <trkpt lat="47.62031" lon="6.84119">
        <ele>414.5</ele>
        <time>2010-05-29T13:15:52Z</time>
      </trkpt>
      <trkpt lat="47.62024" lon="6.8412">
        <ele>414.5</ele>
        <time>2010-05-29T13:15:53Z</time>
      </trkpt>
      <trkpt lat="47.62017" lon="6.84122">
        <ele>414.5</ele>
        <time>2010-05-29T13:15:54Z</time>
      </trkpt>
      <trkpt lat="47.6201" lon="6.84124">
        <ele>414.5</ele>
        <time>2010-05-29T13:15:55Z</time>
      </trkpt>
      <trkpt lat="47.62003" lon="6.84126">
        <ele>414.5</ele>
        <time>2010-05-29T13:15:56Z</time>
      </trkpt>
      <trkpt lat="47.61995" lon="6.84127">
        <ele>414.5</ele>
        <time>2010-05-29T13:15:57Z</time>
      </trkpt>
      <trkpt lat="47.61988" lon="6.84129">
        <ele>414.5</ele>
        <time>2010-05-29T13:15:58Z</time>
      </trkpt>
      <trkpt lat="47.6198" lon="6.8413">
        <ele>414</ele>
        <time>2010-05-29T13:15:59Z</time>
      </trkpt>
      <trkpt lat="47.61974" lon="6.84132">
        <ele>414</ele>
        <time>2010-05-29T13:16:00Z</time>
      </trkpt>
      <trkpt lat="47.61967" lon="6.84133">
        <ele>414</ele>
        <time>2010-05-29T13:16:01Z</time>
      </trkpt>
      <trkpt lat="47.61961" lon="6.84135">
        <ele>414</ele>
        <time>2010-05-29T13:16:02Z</time>
      </trkpt>
      <trkpt lat="47.61954" lon="6.84136">
        <ele>414</ele>
        <time>2010-05-29T13:16:03Z</time>
      </trkpt>
      <trkpt lat="47.61948" lon="6.84137">
        <ele>414</ele>
        <time>2010-05-29T13:16:04Z</time>
      </trkpt>
      <trkpt lat="47.61942" lon="6.84139">
        <ele>414</ele>
        <time>2010-05-29T13:16:05Z</time>
      </trkpt>
      <trkpt lat="47.61936" lon="6.8414">
        <ele>414</ele>
        <time>2010-05-29T13:16:06Z</time>
      </trkpt>
      <trkpt lat="47.61929" lon="6.8414">
        <ele>414</ele>
        <time>2010-05-29T13:16:07Z</time>
      </trkpt>
      <trkpt lat="47.61923" lon="6.84141">
        <ele>414</ele>
        <time>2010-05-29T13:16:08Z</time>
      </trkpt>
      <trkpt lat="47.61912" lon="6.84142">
        <ele>414</ele>
        <time>2010-05-29T13:16:08Z</time>
      </trkpt>
      <trkpt lat="47.61906" lon="6.84141">
        <ele>414.5</ele>
        <time>2010-05-29T13:16:10Z</time>
      </trkpt>
      <trkpt lat="47.619" lon="6.84142">
        <ele>414</ele>
        <time>2010-05-29T13:16:11Z</time>
      </trkpt>
      <trkpt lat="47.61892" lon="6.84143">
        <ele>414</ele>
        <time>2010-05-29T13:16:13Z</time>
      </trkpt>
      <trkpt lat="47.61885" lon="6.84143">
        <ele>414</ele>
        <time>2010-05-29T13:16:14Z</time>
      </trkpt>
      <trkpt lat="47.61879" lon="6.84144">
        <ele>414</ele>
        <time>2010-05-29T13:16:15Z</time>
      </trkpt>
      <trkpt lat="47.61872" lon="6.84143">
        <ele>414</ele>
        <time>2010-05-29T13:16:16Z</time>
      </trkpt>
      <trkpt lat="47.61865" lon="6.84143">
        <ele>414</ele>
        <time>2010-05-29T13:16:17Z</time>
      </trkpt>
      <trkpt lat="47.61859" lon="6.84142">
        <ele>413.5</ele>
        <time>2010-05-29T13:16:18Z</time>
      </trkpt>
      <trkpt lat="47.61852" lon="6.8414">
        <ele>413.5</ele>
        <time>2010-05-29T13:16:19Z</time>
      </trkpt>
      <trkpt lat="47.61846" lon="6.84138">
        <ele>413</ele>
        <time>2010-05-29T13:16:20Z</time>
      </trkpt>
      <trkpt lat="47.61839" lon="6.84136">
        <ele>413</ele>
        <time>2010-05-29T13:16:21Z</time>
      </trkpt>
      <trkpt lat="47.61833" lon="6.84133">
        <ele>413.5</ele>
        <time>2010-05-29T13:16:22Z</time>
      </trkpt>
      <trkpt lat="47.61827" lon="6.8413">
        <ele>414</ele>
        <time>2010-05-29T13:16:23Z</time>
      </trkpt>
      <trkpt lat="47.61821" lon="6.84126">
        <ele>414.5</ele>
        <time>2010-05-29T13:16:24Z</time>
      </trkpt>
      <trkpt lat="47.61815" lon="6.84122">
        <ele>414.5</ele>
        <time>2010-05-29T13:16:25Z</time>
      </trkpt>
      <trkpt lat="47.61809" lon="6.84118">
        <ele>414.5</ele>
        <time>2010-05-29T13:16:26Z</time>
      </trkpt>
      <trkpt lat="47.61803" lon="6.84114">
        <ele>415</ele>
        <time>2010-05-29T13:16:27Z</time>
      </trkpt>
      <trkpt lat="47.61798" lon="6.84111">
        <ele>415.5</ele>
        <time>2010-05-29T13:16:28Z</time>
      </trkpt>
      <trkpt lat="47.61792" lon="6.84107">
        <ele>416</ele>
        <time>2010-05-29T13:16:29Z</time>
      </trkpt>
      <trkpt lat="47.61787" lon="6.84104">
        <ele>416.5</ele>
        <time>2010-05-29T13:16:30Z</time>
      </trkpt>
      <trkpt lat="47.61782" lon="6.841">
        <ele>417</ele>
        <time>2010-05-29T13:16:31Z</time>
      </trkpt>
      <trkpt lat="47.61776" lon="6.84096">
        <ele>417</ele>
        <time>2010-05-29T13:16:32Z</time>
      </trkpt>
      <trkpt lat="47.6177" lon="6.84093">
        <ele>418</ele>
        <time>2010-05-29T13:16:33Z</time>
      </trkpt>
      <trkpt lat="47.61765" lon="6.8409">
        <ele>418.5</ele>
        <time>2010-05-29T13:16:34Z</time>
      </trkpt>
      <trkpt lat="47.61759" lon="6.84086">
        <ele>419</ele>
        <time>2010-05-29T13:16:35Z</time>
      </trkpt>
      <trkpt lat="47.61754" lon="6.84082">
        <ele>419.5</ele>
        <time>2010-05-29T13:16:36Z</time>
      </trkpt>
      <trkpt lat="47.61749" lon="6.84079">
        <ele>420.5</ele>
        <time>2010-05-29T13:16:37Z</time>
      </trkpt>
      <trkpt lat="47.61744" lon="6.84074">
        <ele>421</ele>
        <time>2010-05-29T13:16:38Z</time>
      </trkpt>
      <trkpt lat="47.61738" lon="6.8407">
        <ele>421.5</ele>
        <time>2010-05-29T13:16:39Z</time>
      </trkpt>
      <trkpt lat="47.61733" lon="6.84067">
        <ele>422</ele>
        <time>2010-05-29T13:16:40Z</time>
      </trkpt>
      <trkpt lat="47.61727" lon="6.84062">
        <ele>422.5</ele>
        <time>2010-05-29T13:16:41Z</time>
      </trkpt>
      <trkpt lat="47.61722" lon="6.84058">
        <ele>422.5</ele>
        <time>2010-05-29T13:16:42Z</time>
      </trkpt>
      <trkpt lat="47.61716" lon="6.84053">
        <ele>422.5</ele>
        <time>2010-05-29T13:16:43Z</time>
      </trkpt>
      <trkpt lat="47.61711" lon="6.84049">
        <ele>423</ele>
        <time>2010-05-29T13:16:44Z</time>
      </trkpt>
      <trkpt lat="47.61706" lon="6.84046">
        <ele>423</ele>
        <time>2010-05-29T13:16:45Z</time>
      </trkpt>
      <trkpt lat="47.617" lon="6.84042">
        <ele>423.5</ele>
        <time>2010-05-29T13:16:46Z</time>
      </trkpt>
      <trkpt lat="47.61695" lon="6.84038">
        <ele>423</ele>
        <time>2010-05-29T13:16:47Z</time>
      </trkpt>
      <trkpt lat="47.6169" lon="6.84034">
        <ele>423</ele>
        <time>2010-05-29T13:16:48Z</time>
      </trkpt>
      <trkpt lat="47.61684" lon="6.8403">
        <ele>423</ele>
        <time>2010-05-29T13:16:49Z</time>
      </trkpt>
      <trkpt lat="47.61679" lon="6.84026">
        <ele>422.5</ele>
        <time>2010-05-29T13:16:50Z</time>
      </trkpt>
      <trkpt lat="47.61674" lon="6.84021">
        <ele>423</ele>
        <time>2010-05-29T13:16:51Z</time>
      </trkpt>
      <trkpt lat="47.6167" lon="6.84014">
        <ele>423</ele>
        <time>2010-05-29T13:16:52Z</time>
      </trkpt>
      <trkpt lat="47.61666" lon="6.84007">
        <ele>423</ele>
        <time>2010-05-29T13:16:53Z</time>
      </trkpt>
      <trkpt lat="47.61662" lon="6.84">
        <ele>422</ele>
        <time>2010-05-29T13:16:54Z</time>
      </trkpt>
      <trkpt lat="47.61659" lon="6.83991">
        <ele>422</ele>
        <time>2010-05-29T13:16:55Z</time>
      </trkpt>
      <trkpt lat="47.61657" lon="6.83983">
        <ele>422</ele>
        <time>2010-05-29T13:16:56Z</time>
      </trkpt>
      <trkpt lat="47.61653" lon="6.83973">
        <ele>421.5</ele>
        <time>2010-05-29T13:16:57Z</time>
      </trkpt>
      <trkpt lat="47.61649" lon="6.83965">
        <ele>421</ele>
        <time>2010-05-29T13:16:58Z</time>
      </trkpt>
      <trkpt lat="47.61644" lon="6.83958">
        <ele>420.5</ele>
        <time>2010-05-29T13:16:59Z</time>
      </trkpt>
      <trkpt lat="47.61638" lon="6.83951">
        <ele>419.5</ele>
        <time>2010-05-29T13:17:00Z</time>
      </trkpt>
      <trkpt lat="47.61631" lon="6.83946">
        <ele>418.5</ele>
        <time>2010-05-29T13:17:01Z</time>
      </trkpt>
      <trkpt lat="47.61624" lon="6.83941">
        <ele>418</ele>
        <time>2010-05-29T13:17:02Z</time>
      </trkpt>
      <trkpt lat="47.61618" lon="6.83937">
        <ele>417.5</ele>
        <time>2010-05-29T13:17:03Z</time>
      </trkpt>
      <trkpt lat="47.61611" lon="6.83932">
        <ele>417</ele>
        <time>2010-05-29T13:17:04Z</time>
      </trkpt>
      <trkpt lat="47.61604" lon="6.83928">
        <ele>416.5</ele>
        <time>2010-05-29T13:17:05Z</time>
      </trkpt>
      <trkpt lat="47.61597" lon="6.83924">
        <ele>416</ele>
        <time>2010-05-29T13:17:06Z</time>
      </trkpt>
      <trkpt lat="47.61591" lon="6.8392">
        <ele>415.5</ele>
        <time>2010-05-29T13:17:07Z</time>
      </trkpt>
      <trkpt lat="47.61584" lon="6.83917">
        <ele>415</ele>
        <time>2010-05-29T13:17:08Z</time>
      </trkpt>
      <trkpt lat="47.61573" lon="6.83911">
        <ele>415</ele>
        <time>2010-05-29T13:17:08Z</time>
      </trkpt>
      <trkpt lat="47.61567" lon="6.83908">
        <ele>414</ele>
        <time>2010-05-29T13:17:10Z</time>
      </trkpt>
      <trkpt lat="47.61561" lon="6.83906">
        <ele>413.5</ele>
        <time>2010-05-29T13:17:11Z</time>
      </trkpt>
      <trkpt lat="47.61554" lon="6.83904">
        <ele>413</ele>
        <time>2010-05-29T13:17:13Z</time>
      </trkpt>
      <trkpt lat="47.61548" lon="6.83902">
        <ele>413</ele>
        <time>2010-05-29T13:17:14Z</time>
      </trkpt>
      <trkpt lat="47.61542" lon="6.83901">
        <ele>412.5</ele>
        <time>2010-05-29T13:17:15Z</time>
      </trkpt>
      <trkpt lat="47.61536" lon="6.83899">
        <ele>412</ele>
        <time>2010-05-29T13:17:16Z</time>
      </trkpt>
      <trkpt lat="47.6153" lon="6.83898">
        <ele>411.5</ele>
        <time>2010-05-29T13:17:17Z</time>
      </trkpt>
      <trkpt lat="47.61524" lon="6.83898">
        <ele>412</ele>
        <time>2010-05-29T13:17:18Z</time>
      </trkpt>
      <trkpt lat="47.61519" lon="6.83899">
        <ele>412.5</ele>
        <time>2010-05-29T13:17:19Z</time>
      </trkpt>
      <trkpt lat="47.61514" lon="6.83901">
        <ele>412.5</ele>
        <time>2010-05-29T13:17:20Z</time>
      </trkpt>
      <trkpt lat="47.61509" lon="6.83905">
        <ele>412</ele>
        <time>2010-05-29T13:17:21Z</time>
      </trkpt>
      <trkpt lat="47.61504" lon="6.83908">
        <ele>411.5</ele>
        <time>2010-05-29T13:17:22Z</time>
      </trkpt>
      <trkpt lat="47.61499" lon="6.83912">
        <ele>410</ele>
        <time>2010-05-29T13:17:23Z</time>
      </trkpt>
      <trkpt lat="47.61494" lon="6.83917">
        <ele>409.5</ele>
        <time>2010-05-29T13:17:24Z</time>
      </trkpt>
      <trkpt lat="47.61488" lon="6.83922">
        <ele>409</ele>
        <time>2010-05-29T13:17:25Z</time>
      </trkpt>
      <trkpt lat="47.61483" lon="6.83924">
        <ele>408.5</ele>
        <time>2010-05-29T13:17:26Z</time>
      </trkpt>
      <trkpt lat="47.61477" lon="6.83924">
        <ele>408</ele>
        <time>2010-05-29T13:17:27Z</time>
      </trkpt>
      <trkpt lat="47.6147" lon="6.83923">
        <ele>408</ele>
        <time>2010-05-29T13:17:28Z</time>
      </trkpt>
      <trkpt lat="47.61465" lon="6.83922">
        <ele>408</ele>
        <time>2010-05-29T13:17:29Z</time>
      </trkpt>
      <trkpt lat="47.6146" lon="6.83919">
        <ele>408</ele>
        <time>2010-05-29T13:17:30Z</time>
      </trkpt>
      <trkpt lat="47.61453" lon="6.83915">
        <ele>407.5</ele>
        <time>2010-05-29T13:17:32Z</time>
      </trkpt>
      <trkpt lat="47.61447" lon="6.83913">
        <ele>407</ele>
        <time>2010-05-29T13:17:34Z</time>
      </trkpt>
      <trkpt lat="47.61439" lon="6.83909">
        <ele>406.5</ele>
        <time>2010-05-29T13:17:36Z</time>
      </trkpt>
      <trkpt lat="47.61434" lon="6.83907">
        <ele>406</ele>
        <time>2010-05-29T13:17:37Z</time>
      </trkpt>
      <trkpt lat="47.61429" lon="6.83904">
        <ele>405.5</ele>
        <time>2010-05-29T13:17:38Z</time>
      </trkpt>
      <trkpt lat="47.61422" lon="6.83902">
        <ele>405.5</ele>
        <time>2010-05-29T13:17:39Z</time>
      </trkpt>
      <trkpt lat="47.61416" lon="6.839">
        <ele>405.5</ele>
        <time>2010-05-29T13:17:40Z</time>
      </trkpt>
      <trkpt lat="47.6141" lon="6.83898">
        <ele>405</ele>
        <time>2010-05-29T13:17:41Z</time>
      </trkpt>
      <trkpt lat="47.61403" lon="6.83896">
        <ele>405</ele>
        <time>2010-05-29T13:17:42Z</time>
      </trkpt>
      <trkpt lat="47.61396" lon="6.83894">
        <ele>405</ele>
        <time>2010-05-29T13:17:43Z</time>
      </trkpt>
      <trkpt lat="47.61388" lon="6.83893">
        <ele>404.5</ele>
        <time>2010-05-29T13:17:44Z</time>
      </trkpt>
      <trkpt lat="47.61381" lon="6.83892">
        <ele>404.5</ele>
        <time>2010-05-29T13:17:45Z</time>
      </trkpt>
      <trkpt lat="47.61374" lon="6.83891">
        <ele>404.5</ele>
        <time>2010-05-29T13:17:46Z</time>
      </trkpt>
      <trkpt lat="47.61367" lon="6.8389">
        <ele>404.5</ele>
        <time>2010-05-29T13:17:47Z</time>
      </trkpt>
      <trkpt lat="47.6136" lon="6.83889">
        <ele>404.5</ele>
        <time>2010-05-29T13:17:48Z</time>
      </trkpt>
      <trkpt lat="47.61353" lon="6.83888">
        <ele>404.5</ele>
        <time>2010-05-29T13:17:49Z</time>
      </trkpt>
      <trkpt lat="47.61346" lon="6.83888">
        <ele>404</ele>
        <time>2010-05-29T13:17:50Z</time>
      </trkpt>
      <trkpt lat="47.61339" lon="6.83887">
        <ele>404</ele>
        <time>2010-05-29T13:17:51Z</time>
      </trkpt>
      <trkpt lat="47.61332" lon="6.83886">
        <ele>403.5</ele>
        <time>2010-05-29T13:17:52Z</time>
      </trkpt>
      <trkpt lat="47.61325" lon="6.83885">
        <ele>403.5</ele>
        <time>2010-05-29T13:17:53Z</time>
      </trkpt>
      <trkpt lat="47.61319" lon="6.83884">
        <ele>403.5</ele>
        <time>2010-05-29T13:17:54Z</time>
      </trkpt>
      <trkpt lat="47.61312" lon="6.83884">
        <ele>403.5</ele>
        <time>2010-05-29T13:17:55Z</time>
      </trkpt>
      <trkpt lat="47.61306" lon="6.83884">
        <ele>403.5</ele>
        <time>2010-05-29T13:17:56Z</time>
      </trkpt>
      <trkpt lat="47.61299" lon="6.83884">
        <ele>403.5</ele>
        <time>2010-05-29T13:17:57Z</time>
      </trkpt>
      <trkpt lat="47.61292" lon="6.83884">
        <ele>404</ele>
        <time>2010-05-29T13:17:58Z</time>
      </trkpt>
      <trkpt lat="47.61286" lon="6.83884">
        <ele>404</ele>
        <time>2010-05-29T13:17:59Z</time>
      </trkpt>
      <trkpt lat="47.6128" lon="6.83884">
        <ele>404</ele>
        <time>2010-05-29T13:18:00Z</time>
      </trkpt>
      <trkpt lat="47.61274" lon="6.83885">
        <ele>404</ele>
        <time>2010-05-29T13:18:01Z</time>
      </trkpt>
      <trkpt lat="47.61268" lon="6.83887">
        <ele>404.5</ele>
        <time>2010-05-29T13:18:02Z</time>
      </trkpt>
      <trkpt lat="47.61262" lon="6.83888">
        <ele>404.5</ele>
        <time>2010-05-29T13:18:03Z</time>
      </trkpt>
      <trkpt lat="47.61257" lon="6.83891">
        <ele>404.5</ele>
        <time>2010-05-29T13:18:04Z</time>
      </trkpt>
      <trkpt lat="47.61251" lon="6.83893">
        <ele>405</ele>
        <time>2010-05-29T13:18:05Z</time>
      </trkpt>
      <trkpt lat="47.61245" lon="6.83895">
        <ele>405</ele>
        <time>2010-05-29T13:18:06Z</time>
      </trkpt>
      <trkpt lat="47.6124" lon="6.83898">
        <ele>404.5</ele>
        <time>2010-05-29T13:18:07Z</time>
      </trkpt>
      <trkpt lat="47.61234" lon="6.839">
        <ele>404.5</ele>
        <time>2010-05-29T13:18:08Z</time>
      </trkpt>
      <trkpt lat="47.61224" lon="6.83905">
        <ele>404.5</ele>
        <time>2010-05-29T13:18:08Z</time>
      </trkpt>
      <trkpt lat="47.61219" lon="6.83907">
        <ele>404.5</ele>
        <time>2010-05-29T13:18:10Z</time>
      </trkpt>
      <trkpt lat="47.61213" lon="6.83908">
        <ele>403.5</ele>
        <time>2010-05-29T13:18:11Z</time>
      </trkpt>
      <trkpt lat="47.61206" lon="6.8391">
        <ele>403.5</ele>
        <time>2010-05-29T13:18:13Z</time>
      </trkpt>
      <trkpt lat="47.612" lon="6.8391">
        <ele>404</ele>
        <time>2010-05-29T13:18:14Z</time>
      </trkpt>
      <trkpt lat="47.61194" lon="6.83911">
        <ele>404</ele>
        <time>2010-05-29T13:18:15Z</time>
      </trkpt>
      <trkpt lat="47.61187" lon="6.83912">
        <ele>403</ele>
        <time>2010-05-29T13:18:16Z</time>
      </trkpt>
      <trkpt lat="47.61181" lon="6.83913">
        <ele>403</ele>
        <time>2010-05-29T13:18:17Z</time>
      </trkpt>
      <trkpt lat="47.61175" lon="6.83915">
        <ele>402.5</ele>
        <time>2010-05-29T13:18:18Z</time>
      </trkpt>
      <trkpt lat="47.61169" lon="6.83918">
        <ele>401.5</ele>
        <time>2010-05-29T13:18:19Z</time>
      </trkpt>
      <trkpt lat="47.61163" lon="6.8392">
        <ele>401</ele>
        <time>2010-05-29T13:18:20Z</time>
      </trkpt>
      <trkpt lat="47.61156" lon="6.83923">
        <ele>400</ele>
        <time>2010-05-29T13:18:21Z</time>
      </trkpt>
      <trkpt lat="47.61148" lon="6.83925">
        <ele>399.5</ele>
        <time>2010-05-29T13:18:22Z</time>
      </trkpt>
      <trkpt lat="47.61141" lon="6.83928">
        <ele>399</ele>
        <time>2010-05-29T13:18:23Z</time>
      </trkpt>
      <trkpt lat="47.61134" lon="6.83931">
        <ele>398.5</ele>
        <time>2010-05-29T13:18:24Z</time>
      </trkpt>
      <trkpt lat="47.61128" lon="6.83934">
        <ele>398.5</ele>
        <time>2010-05-29T13:18:25Z</time>
      </trkpt>
      <trkpt lat="47.61121" lon="6.83937">
        <ele>398.5</ele>
        <time>2010-05-29T13:18:26Z</time>
      </trkpt>
      <trkpt lat="47.61114" lon="6.83937">
        <ele>399</ele>
        <time>2010-05-29T13:18:27Z</time>
      </trkpt>
      <trkpt lat="47.61107" lon="6.83938">
        <ele>399</ele>
        <time>2010-05-29T13:18:28Z</time>
      </trkpt>
      <trkpt lat="47.61101" lon="6.83938">
        <ele>399</ele>
        <time>2010-05-29T13:18:29Z</time>
      </trkpt>
      <trkpt lat="47.61094" lon="6.83939">
        <ele>399</ele>
        <time>2010-05-29T13:18:30Z</time>
      </trkpt>
      <trkpt lat="47.61088" lon="6.83939">
        <ele>399</ele>
        <time>2010-05-29T13:18:31Z</time>
      </trkpt>
      <trkpt lat="47.61081" lon="6.8394">
        <ele>399</ele>
        <time>2010-05-29T13:18:32Z</time>
      </trkpt>
      <trkpt lat="47.61075" lon="6.8394">
        <ele>399</ele>
        <time>2010-05-29T13:18:33Z</time>
      </trkpt>
      <trkpt lat="47.61069" lon="6.8394">
        <ele>399.5</ele>
        <time>2010-05-29T13:18:34Z</time>
      </trkpt>
      <trkpt lat="47.61063" lon="6.83939">
        <ele>399.5</ele>
        <time>2010-05-29T13:18:35Z</time>
      </trkpt>
      <trkpt lat="47.61057" lon="6.8394">
        <ele>399.5</ele>
        <time>2010-05-29T13:18:36Z</time>
      </trkpt>
      <trkpt lat="47.6105" lon="6.83939">
        <ele>399.5</ele>
        <time>2010-05-29T13:18:37Z</time>
      </trkpt>
      <trkpt lat="47.61044" lon="6.83939">
        <ele>399.5</ele>
        <time>2010-05-29T13:18:38Z</time>
      </trkpt>
      <trkpt lat="47.61038" lon="6.83939">
        <ele>400</ele>
        <time>2010-05-29T13:18:39Z</time>
      </trkpt>
      <trkpt lat="47.61032" lon="6.83938">
        <ele>400</ele>
        <time>2010-05-29T13:18:40Z</time>
      </trkpt>
      <trkpt lat="47.61026" lon="6.83938">
        <ele>400</ele>
        <time>2010-05-29T13:18:41Z</time>
      </trkpt>
      <trkpt lat="47.6102" lon="6.83938">
        <ele>400.5</ele>
        <time>2010-05-29T13:18:42Z</time>
      </trkpt>
      <trkpt lat="47.61014" lon="6.83937">
        <ele>401</ele>
        <time>2010-05-29T13:18:43Z</time>
      </trkpt>
      <trkpt lat="47.61007" lon="6.83936">
        <ele>401.5</ele>
        <time>2010-05-29T13:18:44Z</time>
      </trkpt>
      <trkpt lat="47.61001" lon="6.83936">
        <ele>401.5</ele>
        <time>2010-05-29T13:18:45Z</time>
      </trkpt>
      <trkpt lat="47.60995" lon="6.83934">
        <ele>401.5</ele>
        <time>2010-05-29T13:18:46Z</time>
      </trkpt>
      <trkpt lat="47.60989" lon="6.83933">
        <ele>402</ele>
        <time>2010-05-29T13:18:47Z</time>
      </trkpt>
      <trkpt lat="47.60983" lon="6.83933">
        <ele>402</ele>
        <time>2010-05-29T13:18:48Z</time>
      </trkpt>
      <trkpt lat="47.60977" lon="6.83932">
        <ele>402.5</ele>
        <time>2010-05-29T13:18:49Z</time>
      </trkpt>
      <trkpt lat="47.60971" lon="6.83932">
        <ele>402.5</ele>
        <time>2010-05-29T13:18:50Z</time>
      </trkpt>
      <trkpt lat="47.60965" lon="6.83931">
        <ele>402.5</ele>
        <time>2010-05-29T13:18:51Z</time>
      </trkpt>
      <trkpt lat="47.60959" lon="6.8393">
        <ele>403.5</ele>
        <time>2010-05-29T13:18:52Z</time>
      </trkpt>
      <trkpt lat="47.60953" lon="6.8393">
        <ele>403</ele>
        <time>2010-05-29T13:18:53Z</time>
      </trkpt>
      <trkpt lat="47.60947" lon="6.83929">
        <ele>403.5</ele>
        <time>2010-05-29T13:18:54Z</time>
      </trkpt>
      <trkpt lat="47.60941" lon="6.83928">
        <ele>404</ele>
        <time>2010-05-29T13:18:55Z</time>
      </trkpt>
      <trkpt lat="47.60936" lon="6.83927">
        <ele>404</ele>
        <time>2010-05-29T13:18:56Z</time>
      </trkpt>
      <trkpt lat="47.6093" lon="6.83926">
        <ele>404.5</ele>
        <time>2010-05-29T13:18:57Z</time>
      </trkpt>
      <trkpt lat="47.60924" lon="6.83926">
        <ele>405</ele>
        <time>2010-05-29T13:18:58Z</time>
      </trkpt>
      <trkpt lat="47.60918" lon="6.83925">
        <ele>405.5</ele>
        <time>2010-05-29T13:18:59Z</time>
      </trkpt>
      <trkpt lat="47.60912" lon="6.83924">
        <ele>405.5</ele>
        <time>2010-05-29T13:19:00Z</time>
      </trkpt>
      <trkpt lat="47.60906" lon="6.83924">
        <ele>406</ele>
        <time>2010-05-29T13:19:01Z</time>
      </trkpt>
      <trkpt lat="47.609" lon="6.83923">
        <ele>406</ele>
        <time>2010-05-29T13:19:02Z</time>
      </trkpt>
      <trkpt lat="47.60895" lon="6.83922">
        <ele>406.5</ele>
        <time>2010-05-29T13:19:03Z</time>
      </trkpt>
      <trkpt lat="47.60889" lon="6.83922">
        <ele>406.5</ele>
        <time>2010-05-29T13:19:04Z</time>
      </trkpt>
      <trkpt lat="47.60883" lon="6.83921">
        <ele>407</ele>
        <time>2010-05-29T13:19:05Z</time>
      </trkpt>
      <trkpt lat="47.60878" lon="6.8392">
        <ele>407</ele>
        <time>2010-05-29T13:19:06Z</time>
      </trkpt>
      <trkpt lat="47.60873" lon="6.83919">
        <ele>407.5</ele>
        <time>2010-05-29T13:19:07Z</time>
      </trkpt>
      <trkpt lat="47.60868" lon="6.83919">
        <ele>407.5</ele>
        <time>2010-05-29T13:19:08Z</time>
      </trkpt>
      <trkpt lat="47.60858" lon="6.83917">
        <ele>408</ele>
        <time>2010-05-29T13:19:08Z</time>
      </trkpt>
      <trkpt lat="47.60853" lon="6.83916">
        <ele>408.5</ele>
        <time>2010-05-29T13:19:10Z</time>
      </trkpt>
      <trkpt lat="47.60847" lon="6.83915">
        <ele>408.5</ele>
        <time>2010-05-29T13:19:11Z</time>
      </trkpt>
      <trkpt lat="47.60841" lon="6.83915">
        <ele>408.5</ele>
        <time>2010-05-29T13:19:13Z</time>
      </trkpt>
      <trkpt lat="47.60834" lon="6.83914">
        <ele>408</ele>
        <time>2010-05-29T13:19:14Z</time>
      </trkpt>
      <trkpt lat="47.60828" lon="6.83914">
        <ele>408</ele>
        <time>2010-05-29T13:19:15Z</time>
      </trkpt>
      <trkpt lat="47.60822" lon="6.83913">
        <ele>409</ele>
        <time>2010-05-29T13:19:16Z</time>
      </trkpt>
      <trkpt lat="47.60817" lon="6.83912">
        <ele>409</ele>
        <time>2010-05-29T13:19:17Z</time>
      </trkpt>
      <trkpt lat="47.60812" lon="6.83911">
        <ele>409.5</ele>
        <time>2010-05-29T13:19:18Z</time>
      </trkpt>
      <trkpt lat="47.60806" lon="6.8391">
        <ele>409</ele>
        <time>2010-05-29T13:19:19Z</time>
      </trkpt>
      <trkpt lat="47.608" lon="6.83909">
        <ele>409</ele>
        <time>2010-05-29T13:19:20Z</time>
      </trkpt>
      <trkpt lat="47.60795" lon="6.83908">
        <ele>409</ele>
        <time>2010-05-29T13:19:21Z</time>
      </trkpt>
      <trkpt lat="47.6079" lon="6.83905">
        <ele>408</ele>
        <time>2010-05-29T13:19:22Z</time>
      </trkpt>
      <trkpt lat="47.60785" lon="6.83904">
        <ele>408</ele>
        <time>2010-05-29T13:19:23Z</time>
      </trkpt>
      <trkpt lat="47.60779" lon="6.83904">
        <ele>407.5</ele>
        <time>2010-05-29T13:19:24Z</time>
      </trkpt>
      <trkpt lat="47.60773" lon="6.83903">
        <ele>408</ele>
        <time>2010-05-29T13:19:25Z</time>
      </trkpt>
      <trkpt lat="47.60767" lon="6.83902">
        <ele>408</ele>
        <time>2010-05-29T13:19:26Z</time>
      </trkpt>
      <trkpt lat="47.60761" lon="6.83901">
        <ele>407</ele>
        <time>2010-05-29T13:19:27Z</time>
      </trkpt>
      <trkpt lat="47.60755" lon="6.839">
        <ele>406.5</ele>
        <time>2010-05-29T13:19:28Z</time>
      </trkpt>
      <trkpt lat="47.60749" lon="6.83898">
        <ele>406</ele>
        <time>2010-05-29T13:19:29Z</time>
      </trkpt>
      <trkpt lat="47.60744" lon="6.83897">
        <ele>406</ele>
        <time>2010-05-29T13:19:30Z</time>
      </trkpt>
      <trkpt lat="47.60739" lon="6.83896">
        <ele>406</ele>
        <time>2010-05-29T13:19:31Z</time>
      </trkpt>
      <trkpt lat="47.60731" lon="6.83895">
        <ele>407.5</ele>
        <time>2010-05-29T13:19:33Z</time>
      </trkpt>
      <trkpt lat="47.60726" lon="6.83894">
        <ele>408</ele>
        <time>2010-05-29T13:19:34Z</time>
      </trkpt>
      <trkpt lat="47.6072" lon="6.83894">
        <ele>408</ele>
        <time>2010-05-29T13:19:35Z</time>
      </trkpt>
      <trkpt lat="47.60715" lon="6.83894">
        <ele>408</ele>
        <time>2010-05-29T13:19:36Z</time>
      </trkpt>
      <trkpt lat="47.6071" lon="6.83893">
        <ele>408</ele>
        <time>2010-05-29T13:19:37Z</time>
      </trkpt>
      <trkpt lat="47.60704" lon="6.83893">
        <ele>408</ele>
        <time>2010-05-29T13:19:38Z</time>
      </trkpt>
      <trkpt lat="47.60698" lon="6.83894">
        <ele>407</ele>
        <time>2010-05-29T13:19:39Z</time>
      </trkpt>
      <trkpt lat="47.60693" lon="6.83894">
        <ele>407</ele>
        <time>2010-05-29T13:19:40Z</time>
      </trkpt>
      <trkpt lat="47.60686" lon="6.83895">
        <ele>406</ele>
        <time>2010-05-29T13:19:41Z</time>
      </trkpt>
      <trkpt lat="47.6068" lon="6.83897">
        <ele>405.5</ele>
        <time>2010-05-29T13:19:42Z</time>
      </trkpt>
      <trkpt lat="47.60674" lon="6.83898">
        <ele>405.5</ele>
        <time>2010-05-29T13:19:43Z</time>
      </trkpt>
      <trkpt lat="47.60668" lon="6.839">
        <ele>405.5</ele>
        <time>2010-05-29T13:19:44Z</time>
      </trkpt>
      <trkpt lat="47.60661" lon="6.83901">
        <ele>404.5</ele>
        <time>2010-05-29T13:19:45Z</time>
      </trkpt>
      <trkpt lat="47.60655" lon="6.83903">
        <ele>403.5</ele>
        <time>2010-05-29T13:19:46Z</time>
      </trkpt>
      <trkpt lat="47.60649" lon="6.83904">
        <ele>403</ele>
        <time>2010-05-29T13:19:47Z</time>
      </trkpt>
      <trkpt lat="47.60642" lon="6.83906">
        <ele>402.5</ele>
        <time>2010-05-29T13:19:48Z</time>
      </trkpt>
      <trkpt lat="47.60637" lon="6.83908">
        <ele>402.5</ele>
        <time>2010-05-29T13:19:49Z</time>
      </trkpt>
      <trkpt lat="47.60631" lon="6.83911">
        <ele>402</ele>
        <time>2010-05-29T13:19:50Z</time>
      </trkpt>
      <trkpt lat="47.60625" lon="6.83914">
        <ele>401.5</ele>
        <time>2010-05-29T13:19:51Z</time>
      </trkpt>
      <trkpt lat="47.60619" lon="6.83917">
        <ele>401.5</ele>
        <time>2010-05-29T13:19:52Z</time>
      </trkpt>
      <trkpt lat="47.60615" lon="6.8392">
        <ele>402</ele>
        <time>2010-05-29T13:19:53Z</time>
      </trkpt>
      <trkpt lat="47.6061" lon="6.83923">
        <ele>402</ele>
        <time>2010-05-29T13:19:54Z</time>
      </trkpt>
      <trkpt lat="47.60604" lon="6.83926">
        <ele>401.5</ele>
        <time>2010-05-29T13:19:55Z</time>
      </trkpt>
      <trkpt lat="47.60598" lon="6.83929">
        <ele>401</ele>
        <time>2010-05-29T13:19:56Z</time>
      </trkpt>
      <trkpt lat="47.60592" lon="6.83932">
        <ele>401</ele>
        <time>2010-05-29T13:19:57Z</time>
      </trkpt>
      <trkpt lat="47.60587" lon="6.83935">
        <ele>401</ele>
        <time>2010-05-29T13:19:58Z</time>
      </trkpt>
      <trkpt lat="47.60581" lon="6.83937">
        <ele>401</ele>
        <time>2010-05-29T13:19:59Z</time>
      </trkpt>
      <trkpt lat="47.60576" lon="6.8394">
        <ele>401</ele>
        <time>2010-05-29T13:20:00Z</time>
      </trkpt>
      <trkpt lat="47.60571" lon="6.83943">
        <ele>401</ele>
        <time>2010-05-29T13:20:01Z</time>
      </trkpt>
      <trkpt lat="47.60566" lon="6.83946">
        <ele>401</ele>
        <time>2010-05-29T13:20:02Z</time>
      </trkpt>
      <trkpt lat="47.6056" lon="6.83949">
        <ele>400.5</ele>
        <time>2010-05-29T13:20:03Z</time>
      </trkpt>
      <trkpt lat="47.60554" lon="6.83952">
        <ele>400.5</ele>
        <time>2010-05-29T13:20:04Z</time>
      </trkpt>
      <trkpt lat="47.60549" lon="6.83955">
        <ele>400.5</ele>
        <time>2010-05-29T13:20:05Z</time>
      </trkpt>
      <trkpt lat="47.60544" lon="6.83958">
        <ele>401</ele>
        <time>2010-05-29T13:20:06Z</time>
      </trkpt>
      <trkpt lat="47.6054" lon="6.83961">
        <ele>401.5</ele>
        <time>2010-05-29T13:20:07Z</time>
      </trkpt>
      <trkpt lat="47.60535" lon="6.83965">
        <ele>401.5</ele>
        <time>2010-05-29T13:20:08Z</time>
      </trkpt>
      <trkpt lat="47.60525" lon="6.83972">
        <ele>402</ele>
        <time>2010-05-29T13:20:08Z</time>
      </trkpt>
      <trkpt lat="47.60521" lon="6.83974">
        <ele>402</ele>
        <time>2010-05-29T13:20:10Z</time>
      </trkpt>
      <trkpt lat="47.60517" lon="6.83978">
        <ele>402</ele>
        <time>2010-05-29T13:20:11Z</time>
      </trkpt>
      <trkpt lat="47.60509" lon="6.83984">
        <ele>402</ele>
        <time>2010-05-29T13:20:13Z</time>
      </trkpt>
      <trkpt lat="47.60504" lon="6.8399">
        <ele>401.5</ele>
        <time>2010-05-29T13:20:14Z</time>
      </trkpt>
      <trkpt lat="47.60499" lon="6.83995">
        <ele>402</ele>
        <time>2010-05-29T13:20:15Z</time>
      </trkpt>
      <trkpt lat="47.60493" lon="6.84">
        <ele>401.5</ele>
        <time>2010-05-29T13:20:16Z</time>
      </trkpt>
      <trkpt lat="47.60487" lon="6.84006">
        <ele>401.5</ele>
        <time>2010-05-29T13:20:17Z</time>
      </trkpt>
      <trkpt lat="47.60483" lon="6.84011">
        <ele>401.5</ele>
        <time>2010-05-29T13:20:18Z</time>
      </trkpt>
      <trkpt lat="47.60478" lon="6.84018">
        <ele>402</ele>
        <time>2010-05-29T13:20:19Z</time>
      </trkpt>
      <trkpt lat="47.60474" lon="6.84024">
        <ele>402.5</ele>
        <time>2010-05-29T13:20:20Z</time>
      </trkpt>
      <trkpt lat="47.60471" lon="6.84031">
        <ele>402</ele>
        <time>2010-05-29T13:20:21Z</time>
      </trkpt>
      <trkpt lat="47.60466" lon="6.84037">
        <ele>402</ele>
        <time>2010-05-29T13:20:22Z</time>
      </trkpt>
      <trkpt lat="47.60463" lon="6.84044">
        <ele>401.5</ele>
        <time>2010-05-29T13:20:23Z</time>
      </trkpt>
      <trkpt lat="47.60459" lon="6.8405">
        <ele>401</ele>
        <time>2010-05-29T13:20:24Z</time>
      </trkpt>
      <trkpt lat="47.60456" lon="6.84056">
        <ele>401.5</ele>
        <time>2010-05-29T13:20:25Z</time>
      </trkpt>
      <trkpt lat="47.60453" lon="6.84063">
        <ele>401.5</ele>
        <time>2010-05-29T13:20:26Z</time>
      </trkpt>
      <trkpt lat="47.60449" lon="6.8407">
        <ele>401.5</ele>
        <time>2010-05-29T13:20:27Z</time>
      </trkpt>
      <trkpt lat="47.60448" lon="6.84077">
        <ele>401.5</ele>
        <time>2010-05-29T13:20:28Z</time>
      </trkpt>
      <trkpt lat="47.60445" lon="6.84085">
        <ele>402</ele>
        <time>2010-05-29T13:20:29Z</time>
      </trkpt>
      <trkpt lat="47.60443" lon="6.84092">
        <ele>401.5</ele>
        <time>2010-05-29T13:20:30Z</time>
      </trkpt>
      <trkpt lat="47.6044" lon="6.841">
        <ele>401.5</ele>
        <time>2010-05-29T13:20:31Z</time>
      </trkpt>
      <trkpt lat="47.60437" lon="6.84108">
        <ele>401</ele>
        <time>2010-05-29T13:20:32Z</time>
      </trkpt>
      <trkpt lat="47.60435" lon="6.84116">
        <ele>401.5</ele>
        <time>2010-05-29T13:20:33Z</time>
      </trkpt>
      <trkpt lat="47.60433" lon="6.84124">
        <ele>401.5</ele>
        <time>2010-05-29T13:20:34Z</time>
      </trkpt>
      <trkpt lat="47.60431" lon="6.84133">
        <ele>401.5</ele>
        <time>2010-05-29T13:20:35Z</time>
      </trkpt>
      <trkpt lat="47.60428" lon="6.84141">
        <ele>402</ele>
        <time>2010-05-29T13:20:36Z</time>
      </trkpt>
      <trkpt lat="47.60427" lon="6.8415">
        <ele>401.5</ele>
        <time>2010-05-29T13:20:37Z</time>
      </trkpt>
      <trkpt lat="47.60425" lon="6.84159">
        <ele>401.5</ele>
        <time>2010-05-29T13:20:38Z</time>
      </trkpt>
      <trkpt lat="47.60424" lon="6.84167">
        <ele>402</ele>
        <time>2010-05-29T13:20:39Z</time>
      </trkpt>
      <trkpt lat="47.60423" lon="6.84176">
        <ele>402</ele>
        <time>2010-05-29T13:20:40Z</time>
      </trkpt>
      <trkpt lat="47.60422" lon="6.84185">
        <ele>402</ele>
        <time>2010-05-29T13:20:41Z</time>
      </trkpt>
      <trkpt lat="47.60422" lon="6.84194">
        <ele>402</ele>
        <time>2010-05-29T13:20:42Z</time>
      </trkpt>
      <trkpt lat="47.60421" lon="6.84202">
        <ele>402</ele>
        <time>2010-05-29T13:20:43Z</time>
      </trkpt>
      <trkpt lat="47.60421" lon="6.84211">
        <ele>402</ele>
        <time>2010-05-29T13:20:44Z</time>
      </trkpt>
      <trkpt lat="47.6042" lon="6.84218">
        <ele>402.5</ele>
        <time>2010-05-29T13:20:45Z</time>
      </trkpt>
      <trkpt lat="47.6042" lon="6.84226">
        <ele>403</ele>
        <time>2010-05-29T13:20:46Z</time>
      </trkpt>
      <trkpt lat="47.60419" lon="6.84235">
        <ele>403</ele>
        <time>2010-05-29T13:20:47Z</time>
      </trkpt>
      <trkpt lat="47.60419" lon="6.84243">
        <ele>403.5</ele>
        <time>2010-05-29T13:20:48Z</time>
      </trkpt>
      <trkpt lat="47.60419" lon="6.84252">
        <ele>403</ele>
        <time>2010-05-29T13:20:49Z</time>
      </trkpt>
      <trkpt lat="47.6042" lon="6.8426">
        <ele>403.5</ele>
        <time>2010-05-29T13:20:50Z</time>
      </trkpt>
      <trkpt lat="47.60421" lon="6.84269">
        <ele>403.5</ele>
        <time>2010-05-29T13:20:51Z</time>
      </trkpt>
      <trkpt lat="47.60423" lon="6.84277">
        <ele>403.5</ele>
        <time>2010-05-29T13:20:52Z</time>
      </trkpt>
      <trkpt lat="47.60424" lon="6.84284">
        <ele>404</ele>
        <time>2010-05-29T13:20:53Z</time>
      </trkpt>
      <trkpt lat="47.60425" lon="6.84293">
        <ele>404</ele>
        <time>2010-05-29T13:20:54Z</time>
      </trkpt>
      <trkpt lat="47.60426" lon="6.84301">
        <ele>404</ele>
        <time>2010-05-29T13:20:55Z</time>
      </trkpt>
      <trkpt lat="47.60428" lon="6.84309">
        <ele>404</ele>
        <time>2010-05-29T13:20:56Z</time>
      </trkpt>
      <trkpt lat="47.6043" lon="6.84317">
        <ele>404</ele>
        <time>2010-05-29T13:20:57Z</time>
      </trkpt>
      <trkpt lat="47.60431" lon="6.84325">
        <ele>404.5</ele>
        <time>2010-05-29T13:20:58Z</time>
      </trkpt>
      <trkpt lat="47.60433" lon="6.84333">
        <ele>404.5</ele>
        <time>2010-05-29T13:20:59Z</time>
      </trkpt>
      <trkpt lat="47.60434" lon="6.84341">
        <ele>404</ele>
        <time>2010-05-29T13:21:00Z</time>
      </trkpt>
      <trkpt lat="47.60436" lon="6.8435">
        <ele>404</ele>
        <time>2010-05-29T13:21:01Z</time>
      </trkpt>
      <trkpt lat="47.60438" lon="6.84358">
        <ele>404</ele>
        <time>2010-05-29T13:21:02Z</time>
      </trkpt>
      <trkpt lat="47.60439" lon="6.84366">
        <ele>404</ele>
        <time>2010-05-29T13:21:03Z</time>
      </trkpt>
      <trkpt lat="47.60441" lon="6.84375">
        <ele>403.5</ele>
        <time>2010-05-29T13:21:04Z</time>
      </trkpt>
      <trkpt lat="47.60443" lon="6.84383">
        <ele>403.5</ele>
        <time>2010-05-29T13:21:05Z</time>
      </trkpt>
      <trkpt lat="47.60444" lon="6.84391">
        <ele>404</ele>
        <time>2010-05-29T13:21:06Z</time>
      </trkpt>
      <trkpt lat="47.60446" lon="6.84399">
        <ele>404</ele>
        <time>2010-05-29T13:21:07Z</time>
      </trkpt>
      <trkpt lat="47.60448" lon="6.84406">
        <ele>404.5</ele>
        <time>2010-05-29T13:21:08Z</time>
      </trkpt>
      <trkpt lat="47.60451" lon="6.8442">
        <ele>404.5</ele>
        <time>2010-05-29T13:21:08Z</time>
      </trkpt>
      <trkpt lat="47.60452" lon="6.84453">
        <ele>395</ele>
        <time>2010-05-29T13:21:14Z</time>
      </trkpt>
      <trkpt lat="47.60465" lon="6.8446">
        <ele>407</ele>
        <time>2010-05-29T13:21:15Z</time>
      </trkpt>
      <trkpt lat="47.60462" lon="6.84476">
        <ele>406</ele>
        <time>2010-05-29T13:21:17Z</time>
      </trkpt>
      <trkpt lat="47.60464" lon="6.84485">
        <ele>406</ele>
        <time>2010-05-29T13:21:18Z</time>
      </trkpt>
      <trkpt lat="47.60466" lon="6.84494">
        <ele>406</ele>
        <time>2010-05-29T13:21:19Z</time>
      </trkpt>
      <trkpt lat="47.60467" lon="6.84503">
        <ele>405.5</ele>
        <time>2010-05-29T13:21:20Z</time>
      </trkpt>
      <trkpt lat="47.60469" lon="6.84512">
        <ele>406</ele>
        <time>2010-05-29T13:21:21Z</time>
      </trkpt>
      <trkpt lat="47.60471" lon="6.84521">
        <ele>405.5</ele>
        <time>2010-05-29T13:21:22Z</time>
      </trkpt>
      <trkpt lat="47.60471" lon="6.84529">
        <ele>404</ele>
        <time>2010-05-29T13:21:23Z</time>
      </trkpt>
      <trkpt lat="47.60473" lon="6.84538">
        <ele>403.5</ele>
        <time>2010-05-29T13:21:24Z</time>
      </trkpt>
      <trkpt lat="47.60474" lon="6.84547">
        <ele>403.5</ele>
        <time>2010-05-29T13:21:25Z</time>
      </trkpt>
      <trkpt lat="47.60476" lon="6.84557">
        <ele>403</ele>
        <time>2010-05-29T13:21:26Z</time>
      </trkpt>
      <trkpt lat="47.60478" lon="6.84566">
        <ele>402.5</ele>
        <time>2010-05-29T13:21:27Z</time>
      </trkpt>
      <trkpt lat="47.60478" lon="6.84574">
        <ele>402.5</ele>
        <time>2010-05-29T13:21:28Z</time>
      </trkpt>
      <trkpt lat="47.6048" lon="6.84583">
        <ele>402.5</ele>
        <time>2010-05-29T13:21:29Z</time>
      </trkpt>
      <trkpt lat="47.60482" lon="6.84592">
        <ele>402.5</ele>
        <time>2010-05-29T13:21:30Z</time>
      </trkpt>
      <trkpt lat="47.60483" lon="6.846">
        <ele>402.5</ele>
        <time>2010-05-29T13:21:31Z</time>
      </trkpt>
      <trkpt lat="47.60484" lon="6.84609">
        <ele>402.5</ele>
        <time>2010-05-29T13:21:32Z</time>
      </trkpt>
      <trkpt lat="47.60484" lon="6.84618">
        <ele>403</ele>
        <time>2010-05-29T13:21:33Z</time>
      </trkpt>
      <trkpt lat="47.60485" lon="6.84627">
        <ele>403</ele>
        <time>2010-05-29T13:21:34Z</time>
      </trkpt>
      <trkpt lat="47.60485" lon="6.84637">
        <ele>402</ele>
        <time>2010-05-29T13:21:35Z</time>
      </trkpt>
      <trkpt lat="47.60485" lon="6.84646">
        <ele>402</ele>
        <time>2010-05-29T13:21:36Z</time>
      </trkpt>
      <trkpt lat="47.60486" lon="6.84655">
        <ele>401.5</ele>
        <time>2010-05-29T13:21:37Z</time>
      </trkpt>
      <trkpt lat="47.60486" lon="6.84664">
        <ele>401</ele>
        <time>2010-05-29T13:21:38Z</time>
      </trkpt>
      <trkpt lat="47.60486" lon="6.84672">
        <ele>401</ele>
        <time>2010-05-29T13:21:39Z</time>
      </trkpt>
      <trkpt lat="47.60488" lon="6.84681">
        <ele>400.5</ele>
        <time>2010-05-29T13:21:40Z</time>
      </trkpt>
      <trkpt lat="47.6049" lon="6.84689">
        <ele>400.5</ele>
        <time>2010-05-29T13:21:41Z</time>
      </trkpt>
      <trkpt lat="47.60492" lon="6.84699">
        <ele>400</ele>
        <time>2010-05-29T13:21:42Z</time>
      </trkpt>
      <trkpt lat="47.60492" lon="6.84708">
        <ele>399.5</ele>
        <time>2010-05-29T13:21:43Z</time>
      </trkpt>
      <trkpt lat="47.60491" lon="6.84717">
        <ele>400</ele>
        <time>2010-05-29T13:21:44Z</time>
      </trkpt>
      <trkpt lat="47.60488" lon="6.84725">
        <ele>400</ele>
        <time>2010-05-29T13:21:45Z</time>
      </trkpt>
      <trkpt lat="47.60485" lon="6.84733">
        <ele>400</ele>
        <time>2010-05-29T13:21:46Z</time>
      </trkpt>
      <trkpt lat="47.60483" lon="6.8474">
        <ele>400.5</ele>
        <time>2010-05-29T13:21:47Z</time>
      </trkpt>
      <trkpt lat="47.60482" lon="6.84748">
        <ele>400.5</ele>
        <time>2010-05-29T13:21:48Z</time>
      </trkpt>
      <trkpt lat="47.6048" lon="6.84757">
        <ele>400.5</ele>
        <time>2010-05-29T13:21:49Z</time>
      </trkpt>
      <trkpt lat="47.60477" lon="6.84766">
        <ele>400.5</ele>
        <time>2010-05-29T13:21:50Z</time>
      </trkpt>
      <trkpt lat="47.60475" lon="6.84774">
        <ele>400</ele>
        <time>2010-05-29T13:21:51Z</time>
      </trkpt>
      <trkpt lat="47.60472" lon="6.84782">
        <ele>400</ele>
        <time>2010-05-29T13:21:52Z</time>
      </trkpt>
      <trkpt lat="47.6047" lon="6.84791">
        <ele>399.5</ele>
        <time>2010-05-29T13:21:53Z</time>
      </trkpt>
      <trkpt lat="47.60467" lon="6.84799">
        <ele>399</ele>
        <time>2010-05-29T13:21:54Z</time>
      </trkpt>
      <trkpt lat="47.60465" lon="6.84807">
        <ele>399</ele>
        <time>2010-05-29T13:21:55Z</time>
      </trkpt>
      <trkpt lat="47.60461" lon="6.84815">
        <ele>399</ele>
        <time>2010-05-29T13:21:56Z</time>
      </trkpt>
      <trkpt lat="47.60458" lon="6.84823">
        <ele>399</ele>
        <time>2010-05-29T13:21:57Z</time>
      </trkpt>
      <trkpt lat="47.60455" lon="6.84831">
        <ele>398.5</ele>
        <time>2010-05-29T13:21:58Z</time>
      </trkpt>
      <trkpt lat="47.60451" lon="6.84839">
        <ele>398.5</ele>
        <time>2010-05-29T13:21:59Z</time>
      </trkpt>
      <trkpt lat="47.60448" lon="6.84847">
        <ele>398.5</ele>
        <time>2010-05-29T13:22:00Z</time>
      </trkpt>
      <trkpt lat="47.60443" lon="6.84854">
        <ele>398.5</ele>
        <time>2010-05-29T13:22:01Z</time>
      </trkpt>
      <trkpt lat="47.60439" lon="6.84861">
        <ele>398.5</ele>
        <time>2010-05-29T13:22:02Z</time>
      </trkpt>
      <trkpt lat="47.60435" lon="6.84868">
        <ele>398</ele>
        <time>2010-05-29T13:22:03Z</time>
      </trkpt>
      <trkpt lat="47.6043" lon="6.84875">
        <ele>398</ele>
        <time>2010-05-29T13:22:04Z</time>
      </trkpt>
      <trkpt lat="47.60426" lon="6.84882">
        <ele>397.5</ele>
        <time>2010-05-29T13:22:05Z</time>
      </trkpt>
      <trkpt lat="47.60422" lon="6.84889">
        <ele>398</ele>
        <time>2010-05-29T13:22:06Z</time>
      </trkpt>
      <trkpt lat="47.60417" lon="6.84895">
        <ele>398</ele>
        <time>2010-05-29T13:22:07Z</time>
      </trkpt>
      <trkpt lat="47.60412" lon="6.84901">
        <ele>397.5</ele>
        <time>2010-05-29T13:22:08Z</time>
      </trkpt>
      <trkpt lat="47.60403" lon="6.84912">
        <ele>397.5</ele>
        <time>2010-05-29T13:22:08Z</time>
      </trkpt>
      <trkpt lat="47.60379" lon="6.84931">
        <ele>386.5</ele>
        <time>2010-05-29T13:22:14Z</time>
      </trkpt>
      <trkpt lat="47.60367" lon="6.84932">
        <ele>380.5</ele>
        <time>2010-05-29T13:22:15Z</time>
      </trkpt>
      <trkpt lat="47.60368" lon="6.84943">
        <ele>398.5</ele>
        <time>2010-05-29T13:22:17Z</time>
      </trkpt>
      <trkpt lat="47.60362" lon="6.84947">
        <ele>398</ele>
        <time>2010-05-29T13:22:18Z</time>
      </trkpt>
      <trkpt lat="47.60357" lon="6.84951">
        <ele>398</ele>
        <time>2010-05-29T13:22:19Z</time>
      </trkpt>
      <trkpt lat="47.60352" lon="6.84955">
        <ele>397.5</ele>
        <time>2010-05-29T13:22:20Z</time>
      </trkpt>
      <trkpt lat="47.60346" lon="6.84959">
        <ele>397</ele>
        <time>2010-05-29T13:22:21Z</time>
      </trkpt>
      <trkpt lat="47.60341" lon="6.84962">
        <ele>397</ele>
        <time>2010-05-29T13:22:22Z</time>
      </trkpt>
      <trkpt lat="47.60335" lon="6.84966">
        <ele>396.5</ele>
        <time>2010-05-29T13:22:23Z</time>
      </trkpt>
      <trkpt lat="47.60329" lon="6.84969">
        <ele>397</ele>
        <time>2010-05-29T13:22:24Z</time>
      </trkpt>
      <trkpt lat="47.60323" lon="6.84972">
        <ele>397</ele>
        <time>2010-05-29T13:22:25Z</time>
      </trkpt>
      <trkpt lat="47.60317" lon="6.84974">
        <ele>397.5</ele>
        <time>2010-05-29T13:22:26Z</time>
      </trkpt>
      <trkpt lat="47.60311" lon="6.84977">
        <ele>397</ele>
        <time>2010-05-29T13:22:27Z</time>
      </trkpt>
      <trkpt lat="47.60305" lon="6.8498">
        <ele>397</ele>
        <time>2010-05-29T13:22:28Z</time>
      </trkpt>
      <trkpt lat="47.60299" lon="6.84984">
        <ele>397</ele>
        <time>2010-05-29T13:22:29Z</time>
      </trkpt>
      <trkpt lat="47.60293" lon="6.84987">
        <ele>396.5</ele>
        <time>2010-05-29T13:22:30Z</time>
      </trkpt>
      <trkpt lat="47.60288" lon="6.8499">
        <ele>397</ele>
        <time>2010-05-29T13:22:31Z</time>
      </trkpt>
      <trkpt lat="47.60281" lon="6.84993">
        <ele>397</ele>
        <time>2010-05-29T13:22:32Z</time>
      </trkpt>
      <trkpt lat="47.60275" lon="6.84996">
        <ele>396.5</ele>
        <time>2010-05-29T13:22:33Z</time>
      </trkpt>
      <trkpt lat="47.60268" lon="6.85">
        <ele>396.5</ele>
        <time>2010-05-29T13:22:34Z</time>
      </trkpt>
      <trkpt lat="47.60262" lon="6.85003">
        <ele>396.5</ele>
        <time>2010-05-29T13:22:35Z</time>
      </trkpt>
      <trkpt lat="47.60255" lon="6.85006">
        <ele>396.5</ele>
        <time>2010-05-29T13:22:36Z</time>
      </trkpt>
      <trkpt lat="47.60249" lon="6.85009">
        <ele>395.5</ele>
        <time>2010-05-29T13:22:37Z</time>
      </trkpt>
      <trkpt lat="47.60243" lon="6.85012">
        <ele>395.5</ele>
        <time>2010-05-29T13:22:38Z</time>
      </trkpt>
      <trkpt lat="47.60237" lon="6.85015">
        <ele>395.5</ele>
        <time>2010-05-29T13:22:39Z</time>
      </trkpt>
      <trkpt lat="47.60231" lon="6.85018">
        <ele>395.5</ele>
        <time>2010-05-29T13:22:40Z</time>
      </trkpt>
      <trkpt lat="47.60225" lon="6.85022">
        <ele>395</ele>
        <time>2010-05-29T13:22:41Z</time>
      </trkpt>
      <trkpt lat="47.60208" lon="6.85031">
        <ele>395</ele>
        <time>2010-05-29T13:22:44Z</time>
      </trkpt>
      <trkpt lat="47.60202" lon="6.85035">
        <ele>395</ele>
        <time>2010-05-29T13:22:45Z</time>
      </trkpt>
      <trkpt lat="47.60197" lon="6.85038">
        <ele>395</ele>
        <time>2010-05-29T13:22:46Z</time>
      </trkpt>
      <trkpt lat="47.60192" lon="6.85041">
        <ele>395</ele>
        <time>2010-05-29T13:22:47Z</time>
      </trkpt>
      <trkpt lat="47.60187" lon="6.85044">
        <ele>395</ele>
        <time>2010-05-29T13:22:48Z</time>
      </trkpt>
      <trkpt lat="47.6018" lon="6.85047">
        <ele>394.5</ele>
        <time>2010-05-29T13:22:49Z</time>
      </trkpt>
      <trkpt lat="47.60174" lon="6.85049">
        <ele>395.5</ele>
        <time>2010-05-29T13:22:50Z</time>
      </trkpt>
      <trkpt lat="47.60169" lon="6.85052">
        <ele>395.5</ele>
        <time>2010-05-29T13:22:51Z</time>
      </trkpt>
      <trkpt lat="47.60163" lon="6.85055">
        <ele>395.5</ele>
        <time>2010-05-29T13:22:52Z</time>
      </trkpt>
      <trkpt lat="47.60157" lon="6.85058">
        <ele>395.5</ele>
        <time>2010-05-29T13:22:53Z</time>
      </trkpt>
      <trkpt lat="47.60151" lon="6.85061">
        <ele>395.5</ele>
        <time>2010-05-29T13:22:54Z</time>
      </trkpt>
      <trkpt lat="47.60145" lon="6.85063">
        <ele>395.5</ele>
        <time>2010-05-29T13:22:55Z</time>
      </trkpt>
      <trkpt lat="47.6014" lon="6.85067">
        <ele>396</ele>
        <time>2010-05-29T13:22:56Z</time>
      </trkpt>
      <trkpt lat="47.60134" lon="6.8507">
        <ele>395.5</ele>
        <time>2010-05-29T13:22:57Z</time>
      </trkpt>
      <trkpt lat="47.60129" lon="6.85073">
        <ele>395.5</ele>
        <time>2010-05-29T13:22:58Z</time>
      </trkpt>
      <trkpt lat="47.60124" lon="6.85077">
        <ele>396</ele>
        <time>2010-05-29T13:22:59Z</time>
      </trkpt>
      <trkpt lat="47.60119" lon="6.8508">
        <ele>396.5</ele>
        <time>2010-05-29T13:23:00Z</time>
      </trkpt>
      <trkpt lat="47.60114" lon="6.85084">
        <ele>396.5</ele>
        <time>2010-05-29T13:23:01Z</time>
      </trkpt>
      <trkpt lat="47.60109" lon="6.85087">
        <ele>396.5</ele>
        <time>2010-05-29T13:23:02Z</time>
      </trkpt>
      <trkpt lat="47.60104" lon="6.85092">
        <ele>396.5</ele>
        <time>2010-05-29T13:23:03Z</time>
      </trkpt>
      <trkpt lat="47.60099" lon="6.85096">
        <ele>396.5</ele>
        <time>2010-05-29T13:23:04Z</time>
      </trkpt>
      <trkpt lat="47.60094" lon="6.85101">
        <ele>396</ele>
        <time>2010-05-29T13:23:05Z</time>
      </trkpt>
      <trkpt lat="47.60089" lon="6.85106">
        <ele>396</ele>
        <time>2010-05-29T13:23:06Z</time>
      </trkpt>
      <trkpt lat="47.60083" lon="6.8511">
        <ele>396</ele>
        <time>2010-05-29T13:23:07Z</time>
      </trkpt>
      <trkpt lat="47.60078" lon="6.85115">
        <ele>396</ele>
        <time>2010-05-29T13:23:08Z</time>
      </trkpt>
      <trkpt lat="47.60066" lon="6.85128">
        <ele>395</ele>
        <time>2010-05-29T13:23:10Z</time>
      </trkpt>
      <trkpt lat="47.60062" lon="6.85134">
        <ele>395</ele>
        <time>2010-05-29T13:23:11Z</time>
      </trkpt>
      <trkpt lat="47.60057" lon="6.8514">
        <ele>395</ele>
        <time>2010-05-29T13:23:12Z</time>
      </trkpt>
      <trkpt lat="47.6005" lon="6.85149">
        <ele>396</ele>
        <time>2010-05-29T13:23:14Z</time>
      </trkpt>
      <trkpt lat="47.60045" lon="6.85155">
        <ele>396.5</ele>
        <time>2010-05-29T13:23:15Z</time>
      </trkpt>
      <trkpt lat="47.6004" lon="6.8516">
        <ele>396</ele>
        <time>2010-05-29T13:23:16Z</time>
      </trkpt>
      <trkpt lat="47.60036" lon="6.85166">
        <ele>395.5</ele>
        <time>2010-05-29T13:23:17Z</time>
      </trkpt>
      <trkpt lat="47.60031" lon="6.85172">
        <ele>395</ele>
        <time>2010-05-29T13:23:18Z</time>
      </trkpt>
      <trkpt lat="47.60028" lon="6.85178">
        <ele>395</ele>
        <time>2010-05-29T13:23:19Z</time>
      </trkpt>
      <trkpt lat="47.60024" lon="6.85185">
        <ele>394.5</ele>
        <time>2010-05-29T13:23:20Z</time>
      </trkpt>
      <trkpt lat="47.6002" lon="6.85191">
        <ele>394.5</ele>
        <time>2010-05-29T13:23:21Z</time>
      </trkpt>
      <trkpt lat="47.60016" lon="6.85198">
        <ele>395</ele>
        <time>2010-05-29T13:23:22Z</time>
      </trkpt>
      <trkpt lat="47.60012" lon="6.85204">
        <ele>394.5</ele>
        <time>2010-05-29T13:23:23Z</time>
      </trkpt>
      <trkpt lat="47.60008" lon="6.8521">
        <ele>394.5</ele>
        <time>2010-05-29T13:23:24Z</time>
      </trkpt>
      <trkpt lat="47.60004" lon="6.85215">
        <ele>394.5</ele>
        <time>2010-05-29T13:23:25Z</time>
      </trkpt>
      <trkpt lat="47.59999" lon="6.85221">
        <ele>394</ele>
        <time>2010-05-29T13:23:26Z</time>
      </trkpt>
      <trkpt lat="47.59995" lon="6.85227">
        <ele>394</ele>
        <time>2010-05-29T13:23:27Z</time>
      </trkpt>
      <trkpt lat="47.59991" lon="6.85233">
        <ele>394</ele>
        <time>2010-05-29T13:23:28Z</time>
      </trkpt>
      <trkpt lat="47.59987" lon="6.8524">
        <ele>394</ele>
        <time>2010-05-29T13:23:29Z</time>
      </trkpt>
      <trkpt lat="47.59983" lon="6.85246">
        <ele>394</ele>
        <time>2010-05-29T13:23:30Z</time>
      </trkpt>
      <trkpt lat="47.59979" lon="6.85253">
        <ele>394.5</ele>
        <time>2010-05-29T13:23:31Z</time>
      </trkpt>
      <trkpt lat="47.59975" lon="6.85259">
        <ele>394.5</ele>
        <time>2010-05-29T13:23:32Z</time>
      </trkpt>
      <trkpt lat="47.59972" lon="6.85266">
        <ele>395</ele>
        <time>2010-05-29T13:23:33Z</time>
      </trkpt>
      <trkpt lat="47.59968" lon="6.85272">
        <ele>395</ele>
        <time>2010-05-29T13:23:34Z</time>
      </trkpt>
      <trkpt lat="47.59964" lon="6.85279">
        <ele>395</ele>
        <time>2010-05-29T13:23:35Z</time>
      </trkpt>
      <trkpt lat="47.5996" lon="6.85285">
        <ele>395.5</ele>
        <time>2010-05-29T13:23:36Z</time>
      </trkpt>
      <trkpt lat="47.59956" lon="6.85291">
        <ele>395.5</ele>
        <time>2010-05-29T13:23:37Z</time>
      </trkpt>
      <trkpt lat="47.59951" lon="6.85298">
        <ele>395.5</ele>
        <time>2010-05-29T13:23:38Z</time>
      </trkpt>
      <trkpt lat="47.59947" lon="6.85304">
        <ele>395.5</ele>
        <time>2010-05-29T13:23:39Z</time>
      </trkpt>
      <trkpt lat="47.59943" lon="6.85311">
        <ele>396</ele>
        <time>2010-05-29T13:23:40Z</time>
      </trkpt>
      <trkpt lat="47.59939" lon="6.85318">
        <ele>396</ele>
        <time>2010-05-29T13:23:41Z</time>
      </trkpt>
      <trkpt lat="47.59935" lon="6.85324">
        <ele>395.5</ele>
        <time>2010-05-29T13:23:42Z</time>
      </trkpt>
      <trkpt lat="47.59931" lon="6.85331">
        <ele>395.5</ele>
        <time>2010-05-29T13:23:43Z</time>
      </trkpt>
      <trkpt lat="47.59926" lon="6.85337">
        <ele>395</ele>
        <time>2010-05-29T13:23:44Z</time>
      </trkpt>
      <trkpt lat="47.59922" lon="6.85344">
        <ele>395.5</ele>
        <time>2010-05-29T13:23:45Z</time>
      </trkpt>
      <trkpt lat="47.59918" lon="6.8535">
        <ele>396</ele>
        <time>2010-05-29T13:23:46Z</time>
      </trkpt>
      <trkpt lat="47.59914" lon="6.85357">
        <ele>395.5</ele>
        <time>2010-05-29T13:23:47Z</time>
      </trkpt>
      <trkpt lat="47.5991" lon="6.85363">
        <ele>396</ele>
        <time>2010-05-29T13:23:48Z</time>
      </trkpt>
      <trkpt lat="47.59906" lon="6.8537">
        <ele>396</ele>
        <time>2010-05-29T13:23:49Z</time>
      </trkpt>
      <trkpt lat="47.59902" lon="6.85376">
        <ele>396</ele>
        <time>2010-05-29T13:23:50Z</time>
      </trkpt>
      <trkpt lat="47.59898" lon="6.85382">
        <ele>396</ele>
        <time>2010-05-29T13:23:51Z</time>
      </trkpt>
      <trkpt lat="47.59894" lon="6.85388">
        <ele>396</ele>
        <time>2010-05-29T13:23:52Z</time>
      </trkpt>
      <trkpt lat="47.5989" lon="6.85394">
        <ele>396</ele>
        <time>2010-05-29T13:23:53Z</time>
      </trkpt>
      <trkpt lat="47.59886" lon="6.854">
        <ele>396</ele>
        <time>2010-05-29T13:23:54Z</time>
      </trkpt>
      <trkpt lat="47.59882" lon="6.85407">
        <ele>396</ele>
        <time>2010-05-29T13:23:55Z</time>
      </trkpt>
      <trkpt lat="47.59879" lon="6.85413">
        <ele>396.5</ele>
        <time>2010-05-29T13:23:56Z</time>
      </trkpt>
      <trkpt lat="47.59875" lon="6.85419">
        <ele>396</ele>
        <time>2010-05-29T13:23:57Z</time>
      </trkpt>
      <trkpt lat="47.59871" lon="6.85425">
        <ele>396.5</ele>
        <time>2010-05-29T13:23:58Z</time>
      </trkpt>
      <trkpt lat="47.59867" lon="6.85431">
        <ele>396.5</ele>
        <time>2010-05-29T13:23:59Z</time>
      </trkpt>
      <trkpt lat="47.59863" lon="6.85438">
        <ele>396.5</ele>
        <time>2010-05-29T13:24:00Z</time>
      </trkpt>
      <trkpt lat="47.59859" lon="6.85443">
        <ele>397</ele>
        <time>2010-05-29T13:24:01Z</time>
      </trkpt>
      <trkpt lat="47.59855" lon="6.85449">
        <ele>396.5</ele>
        <time>2010-05-29T13:24:02Z</time>
      </trkpt>
      <trkpt lat="47.59851" lon="6.85456">
        <ele>396.5</ele>
        <time>2010-05-29T13:24:03Z</time>
      </trkpt>
      <trkpt lat="47.59847" lon="6.85462">
        <ele>396.5</ele>
        <time>2010-05-29T13:24:04Z</time>
      </trkpt>
      <trkpt lat="47.59844" lon="6.85469">
        <ele>396.5</ele>
        <time>2010-05-29T13:24:05Z</time>
      </trkpt>
      <trkpt lat="47.5984" lon="6.85475">
        <ele>397</ele>
        <time>2010-05-29T13:24:06Z</time>
      </trkpt>
      <trkpt lat="47.59836" lon="6.85482">
        <ele>397</ele>
        <time>2010-05-29T13:24:07Z</time>
      </trkpt>
      <trkpt lat="47.59832" lon="6.85488">
        <ele>397.5</ele>
        <time>2010-05-29T13:24:08Z</time>
      </trkpt>
      <trkpt lat="47.59827" lon="6.85493">
        <ele>397.5</ele>
        <time>2010-05-29T13:24:09Z</time>
      </trkpt>
      <trkpt lat="47.5982" lon="6.85502">
        <ele>397.5</ele>
        <time>2010-05-29T13:24:09Z</time>
      </trkpt>
      <trkpt lat="47.59815" lon="6.85507">
        <ele>397</ele>
        <time>2010-05-29T13:24:11Z</time>
      </trkpt>
      <trkpt lat="47.5981" lon="6.8551">
        <ele>397.5</ele>
        <time>2010-05-29T13:24:12Z</time>
      </trkpt>
      <trkpt lat="47.598" lon="6.8551">
        <ele>398</ele>
        <time>2010-05-29T13:24:14Z</time>
      </trkpt>
      <trkpt lat="47.59794" lon="6.85511">
        <ele>398</ele>
        <time>2010-05-29T13:24:15Z</time>
      </trkpt>
      <trkpt lat="47.59788" lon="6.85511">
        <ele>398.5</ele>
        <time>2010-05-29T13:24:16Z</time>
      </trkpt>
      <trkpt lat="47.59783" lon="6.85512">
        <ele>398.5</ele>
        <time>2010-05-29T13:24:17Z</time>
      </trkpt>
      <trkpt lat="47.59777" lon="6.85513">
        <ele>398.5</ele>
        <time>2010-05-29T13:24:18Z</time>
      </trkpt>
      <trkpt lat="47.59772" lon="6.85514">
        <ele>398.5</ele>
        <time>2010-05-29T13:24:19Z</time>
      </trkpt>
      <trkpt lat="47.59766" lon="6.85515">
        <ele>398.5</ele>
        <time>2010-05-29T13:24:20Z</time>
      </trkpt>
      <trkpt lat="47.5976" lon="6.85516">
        <ele>398.5</ele>
        <time>2010-05-29T13:24:21Z</time>
      </trkpt>
      <trkpt lat="47.59755" lon="6.85517">
        <ele>399</ele>
        <time>2010-05-29T13:24:22Z</time>
      </trkpt>
      <trkpt lat="47.5975" lon="6.85518">
        <ele>399</ele>
        <time>2010-05-29T13:24:23Z</time>
      </trkpt>
      <trkpt lat="47.59745" lon="6.85521">
        <ele>399</ele>
        <time>2010-05-29T13:24:24Z</time>
      </trkpt>
      <trkpt lat="47.59739" lon="6.85525">
        <ele>398.5</ele>
        <time>2010-05-29T13:24:25Z</time>
      </trkpt>
      <trkpt lat="47.59734" lon="6.85528">
        <ele>398</ele>
        <time>2010-05-29T13:24:26Z</time>
      </trkpt>
      <trkpt lat="47.59729" lon="6.85531">
        <ele>398</ele>
        <time>2010-05-29T13:24:27Z</time>
      </trkpt>
      <trkpt lat="47.59723" lon="6.85533">
        <ele>398</ele>
        <time>2010-05-29T13:24:28Z</time>
      </trkpt>
      <trkpt lat="47.59717" lon="6.85535">
        <ele>398</ele>
        <time>2010-05-29T13:24:29Z</time>
      </trkpt>
      <trkpt lat="47.59711" lon="6.85537">
        <ele>398</ele>
        <time>2010-05-29T13:24:30Z</time>
      </trkpt>
      <trkpt lat="47.59705" lon="6.85538">
        <ele>398</ele>
        <time>2010-05-29T13:24:31Z</time>
      </trkpt>
      <trkpt lat="47.59699" lon="6.85539">
        <ele>398</ele>
        <time>2010-05-29T13:24:32Z</time>
      </trkpt>
      <trkpt lat="47.59692" lon="6.85541">
        <ele>397.5</ele>
        <time>2010-05-29T13:24:33Z</time>
      </trkpt>
      <trkpt lat="47.59686" lon="6.85543">
        <ele>397</ele>
        <time>2010-05-29T13:24:34Z</time>
      </trkpt>
      <trkpt lat="47.5968" lon="6.85545">
        <ele>397</ele>
        <time>2010-05-29T13:24:35Z</time>
      </trkpt>
      <trkpt lat="47.59673" lon="6.85547">
        <ele>397</ele>
        <time>2010-05-29T13:24:36Z</time>
      </trkpt>
      <trkpt lat="47.59667" lon="6.8555">
        <ele>397</ele>
        <time>2010-05-29T13:24:37Z</time>
      </trkpt>
      <trkpt lat="47.59662" lon="6.85553">
        <ele>397</ele>
        <time>2010-05-29T13:24:38Z</time>
      </trkpt>
      <trkpt lat="47.59656" lon="6.85556">
        <ele>397</ele>
        <time>2010-05-29T13:24:39Z</time>
      </trkpt>
      <trkpt lat="47.5965" lon="6.85559">
        <ele>396.5</ele>
        <time>2010-05-29T13:24:40Z</time>
      </trkpt>
      <trkpt lat="47.59645" lon="6.85561">
        <ele>396.5</ele>
        <time>2010-05-29T13:24:41Z</time>
      </trkpt>
      <trkpt lat="47.5964" lon="6.85563">
        <ele>396</ele>
        <time>2010-05-29T13:24:42Z</time>
      </trkpt>
      <trkpt lat="47.59633" lon="6.85567">
        <ele>396</ele>
        <time>2010-05-29T13:24:44Z</time>
      </trkpt>
      <trkpt lat="47.59627" lon="6.85571">
        <ele>397</ele>
        <time>2010-05-29T13:24:47Z</time>
      </trkpt>
      <trkpt lat="47.59625" lon="6.85579">
        <ele>397.5</ele>
        <time>2010-05-29T13:24:49Z</time>
      </trkpt>
      <trkpt lat="47.59627" lon="6.8559">
        <ele>398</ele>
        <time>2010-05-29T13:24:51Z</time>
      </trkpt>
      <trkpt lat="47.59628" lon="6.85598">
        <ele>398</ele>
        <time>2010-05-29T13:24:53Z</time>
      </trkpt>
      <trkpt lat="47.59629" lon="6.85607">
        <ele>398</ele>
        <time>2010-05-29T13:24:55Z</time>
      </trkpt>
      <trkpt lat="47.59628" lon="6.85615">
        <ele>397.5</ele>
        <time>2010-05-29T13:24:57Z</time>
      </trkpt>
      <trkpt lat="47.59636" lon="6.85627">
        <ele>398</ele>
        <time>2010-05-29T13:24:58Z</time>
      </trkpt>
      <trkpt lat="47.5964" lon="6.85636">
        <ele>398.5</ele>
        <time>2010-05-29T13:24:59Z</time>
      </trkpt>
      <trkpt lat="47.59644" lon="6.85644">
        <ele>398.5</ele>
        <time>2010-05-29T13:25:00Z</time>
      </trkpt>
      <trkpt lat="47.59648" lon="6.8565">
        <ele>399</ele>
        <time>2010-05-29T13:25:01Z</time>
      </trkpt>
      <trkpt lat="47.59652" lon="6.85654">
        <ele>399</ele>
        <time>2010-05-29T13:25:02Z</time>
      </trkpt>
      <trkpt lat="47.59658" lon="6.85658">
        <ele>400.5</ele>
        <time>2010-05-29T13:25:04Z</time>
      </trkpt>
      <trkpt lat="47.59665" lon="6.85662">
        <ele>401</ele>
        <time>2010-05-29T13:25:06Z</time>
      </trkpt>
      <trkpt lat="47.59669" lon="6.85666">
        <ele>401.5</ele>
        <time>2010-05-29T13:25:07Z</time>
      </trkpt>
      <trkpt lat="47.59674" lon="6.85668">
        <ele>402</ele>
        <time>2010-05-29T13:25:08Z</time>
      </trkpt>
      <trkpt lat="47.59685" lon="6.8567">
        <ele>402.5</ele>
        <time>2010-05-29T13:25:09Z</time>
      </trkpt>
      <trkpt lat="47.59691" lon="6.85676">
        <ele>402</ele>
        <time>2010-05-29T13:25:12Z</time>
      </trkpt>
      <trkpt lat="47.59691" lon="6.85687">
        <ele>400.5</ele>
        <time>2010-05-29T13:25:14Z</time>
      </trkpt>
      <trkpt lat="47.59688" lon="6.85699">
        <ele>400</ele>
        <time>2010-05-29T13:25:16Z</time>
      </trkpt>
      <trkpt lat="47.59684" lon="6.85711">
        <ele>399.5</ele>
        <time>2010-05-29T13:25:18Z</time>
      </trkpt>
      <trkpt lat="47.5968" lon="6.85723">
        <ele>399</ele>
        <time>2010-05-29T13:25:20Z</time>
      </trkpt>
      <trkpt lat="47.59674" lon="6.85733">
        <ele>399</ele>
        <time>2010-05-29T13:25:22Z</time>
      </trkpt>
      <trkpt lat="47.59671" lon="6.85738">
        <ele>398.5</ele>
        <time>2010-05-29T13:25:23Z</time>
      </trkpt>
      <trkpt lat="47.59669" lon="6.85744">
        <ele>399</ele>
        <time>2010-05-29T13:25:24Z</time>
      </trkpt>
      <trkpt lat="47.59666" lon="6.8575">
        <ele>398.5</ele>
        <time>2010-05-29T13:25:25Z</time>
      </trkpt>
      <trkpt lat="47.59663" lon="6.85756">
        <ele>398.5</ele>
        <time>2010-05-29T13:25:26Z</time>
      </trkpt>
      <trkpt lat="47.5966" lon="6.85761">
        <ele>398.5</ele>
        <time>2010-05-29T13:25:27Z</time>
      </trkpt>
      <trkpt lat="47.59657" lon="6.85766">
        <ele>398.5</ele>
        <time>2010-05-29T13:25:28Z</time>
      </trkpt>
      <trkpt lat="47.59653" lon="6.85771">
        <ele>398</ele>
        <time>2010-05-29T13:25:29Z</time>
      </trkpt>
      <trkpt lat="47.5965" lon="6.85776">
        <ele>398</ele>
        <time>2010-05-29T13:25:30Z</time>
      </trkpt>
      <trkpt lat="47.59646" lon="6.85781">
        <ele>398.5</ele>
        <time>2010-05-29T13:25:31Z</time>
      </trkpt>
      <trkpt lat="47.59643" lon="6.85786">
        <ele>398.5</ele>
        <time>2010-05-29T13:25:32Z</time>
      </trkpt>
      <trkpt lat="47.5964" lon="6.85791">
        <ele>398.5</ele>
        <time>2010-05-29T13:25:33Z</time>
      </trkpt>
      <trkpt lat="47.59636" lon="6.85797">
        <ele>398</ele>
        <time>2010-05-29T13:25:34Z</time>
      </trkpt>
      <trkpt lat="47.59633" lon="6.85802">
        <ele>398</ele>
        <time>2010-05-29T13:25:35Z</time>
      </trkpt>
      <trkpt lat="47.59629" lon="6.85808">
        <ele>398</ele>
        <time>2010-05-29T13:25:36Z</time>
      </trkpt>
      <trkpt lat="47.59626" lon="6.85813">
        <ele>398</ele>
        <time>2010-05-29T13:25:37Z</time>
      </trkpt>
      <trkpt lat="47.59623" lon="6.85818">
        <ele>398</ele>
        <time>2010-05-29T13:25:38Z</time>
      </trkpt>
      <trkpt lat="47.5962" lon="6.85823">
        <ele>398</ele>
        <time>2010-05-29T13:25:39Z</time>
      </trkpt>
      <trkpt lat="47.59616" lon="6.85828">
        <ele>398</ele>
        <time>2010-05-29T13:25:40Z</time>
      </trkpt>
      <trkpt lat="47.59612" lon="6.85834">
        <ele>397.5</ele>
        <time>2010-05-29T13:25:41Z</time>
      </trkpt>
      <trkpt lat="47.59608" lon="6.85839">
        <ele>397</ele>
        <time>2010-05-29T13:25:42Z</time>
      </trkpt>
      <trkpt lat="47.59604" lon="6.85844">
        <ele>397</ele>
        <time>2010-05-29T13:25:43Z</time>
      </trkpt>
      <trkpt lat="47.596" lon="6.8585">
        <ele>397</ele>
        <time>2010-05-29T13:25:44Z</time>
      </trkpt>
      <trkpt lat="47.59596" lon="6.85855">
        <ele>397</ele>
        <time>2010-05-29T13:25:45Z</time>
      </trkpt>
      <trkpt lat="47.59592" lon="6.8586">
        <ele>397</ele>
        <time>2010-05-29T13:25:46Z</time>
      </trkpt>
      <trkpt lat="47.59588" lon="6.85865">
        <ele>397</ele>
        <time>2010-05-29T13:25:47Z</time>
      </trkpt>
      <trkpt lat="47.59583" lon="6.8587">
        <ele>396.5</ele>
        <time>2010-05-29T13:25:48Z</time>
      </trkpt>
      <trkpt lat="47.59579" lon="6.85875">
        <ele>396.5</ele>
        <time>2010-05-29T13:25:49Z</time>
      </trkpt>
      <trkpt lat="47.59575" lon="6.8588">
        <ele>396.5</ele>
        <time>2010-05-29T13:25:50Z</time>
      </trkpt>
      <trkpt lat="47.5957" lon="6.85885">
        <ele>396.5</ele>
        <time>2010-05-29T13:25:51Z</time>
      </trkpt>
      <trkpt lat="47.59565" lon="6.85889">
        <ele>396.5</ele>
        <time>2010-05-29T13:25:52Z</time>
      </trkpt>
      <trkpt lat="47.59561" lon="6.85894">
        <ele>396.5</ele>
        <time>2010-05-29T13:25:53Z</time>
      </trkpt>
      <trkpt lat="47.59556" lon="6.85898">
        <ele>397</ele>
        <time>2010-05-29T13:25:54Z</time>
      </trkpt>
      <trkpt lat="47.59551" lon="6.85902">
        <ele>397</ele>
        <time>2010-05-29T13:25:55Z</time>
      </trkpt>
      <trkpt lat="47.59546" lon="6.85906">
        <ele>397</ele>
        <time>2010-05-29T13:25:56Z</time>
      </trkpt>
      <trkpt lat="47.59541" lon="6.8591">
        <ele>397</ele>
        <time>2010-05-29T13:25:57Z</time>
      </trkpt>
      <trkpt lat="47.59536" lon="6.85914">
        <ele>397</ele>
        <time>2010-05-29T13:25:58Z</time>
      </trkpt>
      <trkpt lat="47.59531" lon="6.85917">
        <ele>397</ele>
        <time>2010-05-29T13:25:59Z</time>
      </trkpt>
      <trkpt lat="47.59525" lon="6.85921">
        <ele>397</ele>
        <time>2010-05-29T13:26:00Z</time>
      </trkpt>
      <trkpt lat="47.5952" lon="6.85923">
        <ele>397.5</ele>
        <time>2010-05-29T13:26:01Z</time>
      </trkpt>
      <trkpt lat="47.59514" lon="6.85927">
        <ele>398</ele>
        <time>2010-05-29T13:26:02Z</time>
      </trkpt>
      <trkpt lat="47.59509" lon="6.8593">
        <ele>398</ele>
        <time>2010-05-29T13:26:03Z</time>
      </trkpt>
      <trkpt lat="47.59504" lon="6.85932">
        <ele>398</ele>
        <time>2010-05-29T13:26:04Z</time>
      </trkpt>
      <trkpt lat="47.59499" lon="6.85934">
        <ele>398</ele>
        <time>2010-05-29T13:26:05Z</time>
      </trkpt>
      <trkpt lat="47.59493" lon="6.85936">
        <ele>398</ele>
        <time>2010-05-29T13:26:06Z</time>
      </trkpt>
      <trkpt lat="47.59487" lon="6.85938">
        <ele>398</ele>
        <time>2010-05-29T13:26:07Z</time>
      </trkpt>
      <trkpt lat="47.59481" lon="6.8594">
        <ele>398</ele>
        <time>2010-05-29T13:26:08Z</time>
      </trkpt>
      <trkpt lat="47.59467" lon="6.85943">
        <ele>397</ele>
        <time>2010-05-29T13:26:09Z</time>
      </trkpt>
      <trkpt lat="47.59461" lon="6.85943">
        <ele>397</ele>
        <time>2010-05-29T13:26:11Z</time>
      </trkpt>
      <trkpt lat="47.59456" lon="6.85945">
        <ele>397</ele>
        <time>2010-05-29T13:26:12Z</time>
      </trkpt>
      <trkpt lat="47.59447" lon="6.85947">
        <ele>397.5</ele>
        <time>2010-05-29T13:26:14Z</time>
      </trkpt>
      <trkpt lat="47.59437" lon="6.85948">
        <ele>398</ele>
        <time>2010-05-29T13:26:16Z</time>
      </trkpt>
      <trkpt lat="47.59431" lon="6.85949">
        <ele>397.5</ele>
        <time>2010-05-29T13:26:17Z</time>
      </trkpt>
      <trkpt lat="47.59425" lon="6.85949">
        <ele>397.5</ele>
        <time>2010-05-29T13:26:18Z</time>
      </trkpt>
      <trkpt lat="47.59419" lon="6.85949">
        <ele>397.5</ele>
        <time>2010-05-29T13:26:19Z</time>
      </trkpt>
      <trkpt lat="47.59412" lon="6.85949">
        <ele>397</ele>
        <time>2010-05-29T13:26:20Z</time>
      </trkpt>
      <trkpt lat="47.59406" lon="6.85949">
        <ele>397</ele>
        <time>2010-05-29T13:26:21Z</time>
      </trkpt>
      <trkpt lat="47.594" lon="6.8595">
        <ele>397</ele>
        <time>2010-05-29T13:26:22Z</time>
      </trkpt>
      <trkpt lat="47.59395" lon="6.8595">
        <ele>396.5</ele>
        <time>2010-05-29T13:26:23Z</time>
      </trkpt>
      <trkpt lat="47.59389" lon="6.85949">
        <ele>396</ele>
        <time>2010-05-29T13:26:24Z</time>
      </trkpt>
      <trkpt lat="47.59383" lon="6.85949">
        <ele>396</ele>
        <time>2010-05-29T13:26:25Z</time>
      </trkpt>
      <trkpt lat="47.59376" lon="6.85949">
        <ele>395</ele>
        <time>2010-05-29T13:26:26Z</time>
      </trkpt>
      <trkpt lat="47.5937" lon="6.85949">
        <ele>394.5</ele>
        <time>2010-05-29T13:26:27Z</time>
      </trkpt>
      <trkpt lat="47.59364" lon="6.85949">
        <ele>394.5</ele>
        <time>2010-05-29T13:26:28Z</time>
      </trkpt>
      <trkpt lat="47.59358" lon="6.85949">
        <ele>394.5</ele>
        <time>2010-05-29T13:26:29Z</time>
      </trkpt>
      <trkpt lat="47.59353" lon="6.85949">
        <ele>394.5</ele>
        <time>2010-05-29T13:26:30Z</time>
      </trkpt>
      <trkpt lat="47.59347" lon="6.85949">
        <ele>394.5</ele>
        <time>2010-05-29T13:26:31Z</time>
      </trkpt>
      <trkpt lat="47.59341" lon="6.85949">
        <ele>394</ele>
        <time>2010-05-29T13:26:32Z</time>
      </trkpt>
      <trkpt lat="47.59335" lon="6.85948">
        <ele>393.5</ele>
        <time>2010-05-29T13:26:33Z</time>
      </trkpt>
      <trkpt lat="47.59329" lon="6.85948">
        <ele>393.5</ele>
        <time>2010-05-29T13:26:34Z</time>
      </trkpt>
      <trkpt lat="47.59323" lon="6.85948">
        <ele>393</ele>
        <time>2010-05-29T13:26:35Z</time>
      </trkpt>
      <trkpt lat="47.59317" lon="6.85947">
        <ele>393</ele>
        <time>2010-05-29T13:26:36Z</time>
      </trkpt>
      <trkpt lat="47.59311" lon="6.85947">
        <ele>393</ele>
        <time>2010-05-29T13:26:37Z</time>
      </trkpt>
      <trkpt lat="47.59306" lon="6.85947">
        <ele>393</ele>
        <time>2010-05-29T13:26:38Z</time>
      </trkpt>
      <trkpt lat="47.593" lon="6.85947">
        <ele>393</ele>
        <time>2010-05-29T13:26:39Z</time>
      </trkpt>
      <trkpt lat="47.59294" lon="6.85946">
        <ele>392.5</ele>
        <time>2010-05-29T13:26:40Z</time>
      </trkpt>
      <trkpt lat="47.59288" lon="6.85946">
        <ele>392.5</ele>
        <time>2010-05-29T13:26:41Z</time>
      </trkpt>
      <trkpt lat="47.59282" lon="6.85945">
        <ele>392.5</ele>
        <time>2010-05-29T13:26:42Z</time>
      </trkpt>
      <trkpt lat="47.59276" lon="6.85945">
        <ele>392</ele>
        <time>2010-05-29T13:26:43Z</time>
      </trkpt>
      <trkpt lat="47.5927" lon="6.85944">
        <ele>392</ele>
        <time>2010-05-29T13:26:44Z</time>
      </trkpt>
      <trkpt lat="47.59265" lon="6.85944">
        <ele>392.5</ele>
        <time>2010-05-29T13:26:45Z</time>
      </trkpt>
      <trkpt lat="47.59259" lon="6.85943">
        <ele>392</ele>
        <time>2010-05-29T13:26:46Z</time>
      </trkpt>
      <trkpt lat="47.59254" lon="6.85942">
        <ele>392</ele>
        <time>2010-05-29T13:26:47Z</time>
      </trkpt>
      <trkpt lat="47.59248" lon="6.85942">
        <ele>392</ele>
        <time>2010-05-29T13:26:48Z</time>
      </trkpt>
      <trkpt lat="47.59242" lon="6.85941">
        <ele>391.5</ele>
        <time>2010-05-29T13:26:49Z</time>
      </trkpt>
      <trkpt lat="47.59237" lon="6.8594">
        <ele>391.5</ele>
        <time>2010-05-29T13:26:50Z</time>
      </trkpt>
      <trkpt lat="47.59231" lon="6.85939">
        <ele>391.5</ele>
        <time>2010-05-29T13:26:51Z</time>
      </trkpt>
      <trkpt lat="47.59225" lon="6.85938">
        <ele>391.5</ele>
        <time>2010-05-29T13:26:52Z</time>
      </trkpt>
      <trkpt lat="47.5922" lon="6.85937">
        <ele>391</ele>
        <time>2010-05-29T13:26:53Z</time>
      </trkpt>
      <trkpt lat="47.59214" lon="6.85936">
        <ele>390.5</ele>
        <time>2010-05-29T13:26:54Z</time>
      </trkpt>
      <trkpt lat="47.59208" lon="6.85935">
        <ele>391</ele>
        <time>2010-05-29T13:26:55Z</time>
      </trkpt>
      <trkpt lat="47.59202" lon="6.85933">
        <ele>392</ele>
        <time>2010-05-29T13:26:56Z</time>
      </trkpt>
      <trkpt lat="47.59196" lon="6.85932">
        <ele>392</ele>
        <time>2010-05-29T13:26:57Z</time>
      </trkpt>
      <trkpt lat="47.5919" lon="6.85931">
        <ele>392</ele>
        <time>2010-05-29T13:26:58Z</time>
      </trkpt>
      <trkpt lat="47.59185" lon="6.8593">
        <ele>392</ele>
        <time>2010-05-29T13:26:59Z</time>
      </trkpt>
      <trkpt lat="47.59179" lon="6.85928">
        <ele>392.5</ele>
        <time>2010-05-29T13:27:00Z</time>
      </trkpt>
      <trkpt lat="47.59174" lon="6.85927">
        <ele>392.5</ele>
        <time>2010-05-29T13:27:01Z</time>
      </trkpt>
      <trkpt lat="47.59168" lon="6.85926">
        <ele>392.5</ele>
        <time>2010-05-29T13:27:02Z</time>
      </trkpt>
      <trkpt lat="47.59162" lon="6.85925">
        <ele>392.5</ele>
        <time>2010-05-29T13:27:03Z</time>
      </trkpt>
      <trkpt lat="47.59157" lon="6.85924">
        <ele>392.5</ele>
        <time>2010-05-29T13:27:04Z</time>
      </trkpt>
      <trkpt lat="47.59151" lon="6.85923">
        <ele>392.5</ele>
        <time>2010-05-29T13:27:05Z</time>
      </trkpt>
      <trkpt lat="47.59145" lon="6.85922">
        <ele>392.5</ele>
        <time>2010-05-29T13:27:06Z</time>
      </trkpt>
      <trkpt lat="47.59139" lon="6.85921">
        <ele>392</ele>
        <time>2010-05-29T13:27:07Z</time>
      </trkpt>
      <trkpt lat="47.59134" lon="6.8592">
        <ele>392</ele>
        <time>2010-05-29T13:27:08Z</time>
      </trkpt>
      <trkpt lat="47.59121" lon="6.85917">
        <ele>392</ele>
        <time>2010-05-29T13:27:09Z</time>
      </trkpt>
      <trkpt lat="47.59115" lon="6.85916">
        <ele>392</ele>
        <time>2010-05-29T13:27:11Z</time>
      </trkpt>
      <trkpt lat="47.59109" lon="6.85914">
        <ele>392.5</ele>
        <time>2010-05-29T13:27:12Z</time>
      </trkpt>
      <trkpt lat="47.59099" lon="6.85912">
        <ele>392.5</ele>
        <time>2010-05-29T13:27:14Z</time>
      </trkpt>
      <trkpt lat="47.59094" lon="6.85911">
        <ele>392.5</ele>
        <time>2010-05-29T13:27:15Z</time>
      </trkpt>
      <trkpt lat="47.59087" lon="6.8591">
        <ele>392</ele>
        <time>2010-05-29T13:27:16Z</time>
      </trkpt>
      <trkpt lat="47.59082" lon="6.85908">
        <ele>392</ele>
        <time>2010-05-29T13:27:17Z</time>
      </trkpt>
      <trkpt lat="47.59076" lon="6.85907">
        <ele>392</ele>
        <time>2010-05-29T13:27:18Z</time>
      </trkpt>
      <trkpt lat="47.5907" lon="6.85906">
        <ele>392</ele>
        <time>2010-05-29T13:27:19Z</time>
      </trkpt>
      <trkpt lat="47.59064" lon="6.85905">
        <ele>392</ele>
        <time>2010-05-29T13:27:20Z</time>
      </trkpt>
      <trkpt lat="47.59059" lon="6.85904">
        <ele>392</ele>
        <time>2010-05-29T13:27:21Z</time>
      </trkpt>
      <trkpt lat="47.59053" lon="6.85902">
        <ele>392</ele>
        <time>2010-05-29T13:27:22Z</time>
      </trkpt>
      <trkpt lat="47.59048" lon="6.85901">
        <ele>392</ele>
        <time>2010-05-29T13:27:23Z</time>
      </trkpt>
      <trkpt lat="47.59042" lon="6.859">
        <ele>392</ele>
        <time>2010-05-29T13:27:24Z</time>
      </trkpt>
      <trkpt lat="47.59037" lon="6.85899">
        <ele>392</ele>
        <time>2010-05-29T13:27:25Z</time>
      </trkpt>
      <trkpt lat="47.59031" lon="6.85898">
        <ele>392.5</ele>
        <time>2010-05-29T13:27:26Z</time>
      </trkpt>
      <trkpt lat="47.59025" lon="6.85897">
        <ele>392</ele>
        <time>2010-05-29T13:27:27Z</time>
      </trkpt>
      <trkpt lat="47.5902" lon="6.85896">
        <ele>392</ele>
        <time>2010-05-29T13:27:28Z</time>
      </trkpt>
      <trkpt lat="47.59014" lon="6.85895">
        <ele>392</ele>
        <time>2010-05-29T13:27:29Z</time>
      </trkpt>
      <trkpt lat="47.59009" lon="6.85894">
        <ele>392</ele>
        <time>2010-05-29T13:27:30Z</time>
      </trkpt>
      <trkpt lat="47.59003" lon="6.85893">
        <ele>392</ele>
        <time>2010-05-29T13:27:31Z</time>
      </trkpt>
      <trkpt lat="47.58997" lon="6.85891">
        <ele>392</ele>
        <time>2010-05-29T13:27:32Z</time>
      </trkpt>
      <trkpt lat="47.58991" lon="6.8589">
        <ele>392.5</ele>
        <time>2010-05-29T13:27:33Z</time>
      </trkpt>
      <trkpt lat="47.58986" lon="6.85889">
        <ele>392.5</ele>
        <time>2010-05-29T13:27:34Z</time>
      </trkpt>
      <trkpt lat="47.5898" lon="6.85888">
        <ele>392.5</ele>
        <time>2010-05-29T13:27:35Z</time>
      </trkpt>
      <trkpt lat="47.58974" lon="6.85886">
        <ele>392</ele>
        <time>2010-05-29T13:27:36Z</time>
      </trkpt>
      <trkpt lat="47.58969" lon="6.85885">
        <ele>392</ele>
        <time>2010-05-29T13:27:37Z</time>
      </trkpt>
      <trkpt lat="47.58964" lon="6.85884">
        <ele>392</ele>
        <time>2010-05-29T13:27:38Z</time>
      </trkpt>
      <trkpt lat="47.58958" lon="6.85883">
        <ele>392</ele>
        <time>2010-05-29T13:27:39Z</time>
      </trkpt>
      <trkpt lat="47.58953" lon="6.85882">
        <ele>392</ele>
        <time>2010-05-29T13:27:40Z</time>
      </trkpt>
      <trkpt lat="47.58948" lon="6.85881">
        <ele>392</ele>
        <time>2010-05-29T13:27:41Z</time>
      </trkpt>
      <trkpt lat="47.58942" lon="6.8588">
        <ele>392</ele>
        <time>2010-05-29T13:27:42Z</time>
      </trkpt>
      <trkpt lat="47.58937" lon="6.85879">
        <ele>392</ele>
        <time>2010-05-29T13:27:43Z</time>
      </trkpt>
      <trkpt lat="47.58932" lon="6.85878">
        <ele>392</ele>
        <time>2010-05-29T13:27:44Z</time>
      </trkpt>
      <trkpt lat="47.58926" lon="6.85877">
        <ele>392</ele>
        <time>2010-05-29T13:27:45Z</time>
      </trkpt>
      <trkpt lat="47.58921" lon="6.85876">
        <ele>392</ele>
        <time>2010-05-29T13:27:46Z</time>
      </trkpt>
      <trkpt lat="47.58916" lon="6.85876">
        <ele>392</ele>
        <time>2010-05-29T13:27:47Z</time>
      </trkpt>
      <trkpt lat="47.5891" lon="6.85874">
        <ele>391.5</ele>
        <time>2010-05-29T13:27:48Z</time>
      </trkpt>
      <trkpt lat="47.58905" lon="6.85873">
        <ele>391.5</ele>
        <time>2010-05-29T13:27:49Z</time>
      </trkpt>
      <trkpt lat="47.58899" lon="6.85872">
        <ele>391.5</ele>
        <time>2010-05-29T13:27:50Z</time>
      </trkpt>
      <trkpt lat="47.58894" lon="6.85871">
        <ele>391</ele>
        <time>2010-05-29T13:27:51Z</time>
      </trkpt>
      <trkpt lat="47.58888" lon="6.85871">
        <ele>391.5</ele>
        <time>2010-05-29T13:27:52Z</time>
      </trkpt>
      <trkpt lat="47.58882" lon="6.85869">
        <ele>391.5</ele>
        <time>2010-05-29T13:27:53Z</time>
      </trkpt>
      <trkpt lat="47.58876" lon="6.85868">
        <ele>391.5</ele>
        <time>2010-05-29T13:27:54Z</time>
      </trkpt>
      <trkpt lat="47.5887" lon="6.85866">
        <ele>391.5</ele>
        <time>2010-05-29T13:27:55Z</time>
      </trkpt>
      <trkpt lat="47.58865" lon="6.85865">
        <ele>391</ele>
        <time>2010-05-29T13:27:56Z</time>
      </trkpt>
      <trkpt lat="47.58859" lon="6.85864">
        <ele>391</ele>
        <time>2010-05-29T13:27:57Z</time>
      </trkpt>
      <trkpt lat="47.58853" lon="6.85863">
        <ele>391</ele>
        <time>2010-05-29T13:27:58Z</time>
      </trkpt>
      <trkpt lat="47.58847" lon="6.85861">
        <ele>391</ele>
        <time>2010-05-29T13:27:59Z</time>
      </trkpt>
      <trkpt lat="47.58841" lon="6.85859">
        <ele>391</ele>
        <time>2010-05-29T13:28:00Z</time>
      </trkpt>
      <trkpt lat="47.58835" lon="6.85858">
        <ele>391</ele>
        <time>2010-05-29T13:28:01Z</time>
      </trkpt>
      <trkpt lat="47.58829" lon="6.85857">
        <ele>391</ele>
        <time>2010-05-29T13:28:02Z</time>
      </trkpt>
      <trkpt lat="47.58824" lon="6.85856">
        <ele>391</ele>
        <time>2010-05-29T13:28:03Z</time>
      </trkpt>
      <trkpt lat="47.58818" lon="6.85855">
        <ele>391</ele>
        <time>2010-05-29T13:28:04Z</time>
      </trkpt>
      <trkpt lat="47.58812" lon="6.85854">
        <ele>391</ele>
        <time>2010-05-29T13:28:05Z</time>
      </trkpt>
      <trkpt lat="47.58807" lon="6.85853">
        <ele>390.5</ele>
        <time>2010-05-29T13:28:06Z</time>
      </trkpt>
      <trkpt lat="47.58801" lon="6.85851">
        <ele>391</ele>
        <time>2010-05-29T13:28:07Z</time>
      </trkpt>
      <trkpt lat="47.58795" lon="6.8585">
        <ele>390.5</ele>
        <time>2010-05-29T13:28:08Z</time>
      </trkpt>
      <trkpt lat="47.58781" lon="6.85848">
        <ele>390.5</ele>
        <time>2010-05-29T13:28:10Z</time>
      </trkpt>
      <trkpt lat="47.58775" lon="6.85846">
        <ele>390.5</ele>
        <time>2010-05-29T13:28:11Z</time>
      </trkpt>
      <trkpt lat="47.58769" lon="6.85845">
        <ele>390.5</ele>
        <time>2010-05-29T13:28:12Z</time>
      </trkpt>
      <trkpt lat="47.58761" lon="6.85843">
        <ele>391</ele>
        <time>2010-05-29T13:28:14Z</time>
      </trkpt>
      <trkpt lat="47.58755" lon="6.85842">
        <ele>390.5</ele>
        <time>2010-05-29T13:28:15Z</time>
      </trkpt>
      <trkpt lat="47.58749" lon="6.85841">
        <ele>390.5</ele>
        <time>2010-05-29T13:28:16Z</time>
      </trkpt>
      <trkpt lat="47.58744" lon="6.8584">
        <ele>390</ele>
        <time>2010-05-29T13:28:17Z</time>
      </trkpt>
      <trkpt lat="47.58738" lon="6.85839">
        <ele>390</ele>
        <time>2010-05-29T13:28:18Z</time>
      </trkpt>
      <trkpt lat="47.58732" lon="6.85838">
        <ele>390</ele>
        <time>2010-05-29T13:28:19Z</time>
      </trkpt>
      <trkpt lat="47.58727" lon="6.85837">
        <ele>390</ele>
        <time>2010-05-29T13:28:20Z</time>
      </trkpt>
      <trkpt lat="47.58721" lon="6.85835">
        <ele>390</ele>
        <time>2010-05-29T13:28:21Z</time>
      </trkpt>
      <trkpt lat="47.58716" lon="6.85834">
        <ele>390</ele>
        <time>2010-05-29T13:28:22Z</time>
      </trkpt>
      <trkpt lat="47.5871" lon="6.85832">
        <ele>390.5</ele>
        <time>2010-05-29T13:28:23Z</time>
      </trkpt>
      <trkpt lat="47.58705" lon="6.85831">
        <ele>390.5</ele>
        <time>2010-05-29T13:28:24Z</time>
      </trkpt>
      <trkpt lat="47.58699" lon="6.85829">
        <ele>391</ele>
        <time>2010-05-29T13:28:25Z</time>
      </trkpt>
      <trkpt lat="47.58694" lon="6.85828">
        <ele>391</ele>
        <time>2010-05-29T13:28:26Z</time>
      </trkpt>
      <trkpt lat="47.58688" lon="6.85826">
        <ele>390.5</ele>
        <time>2010-05-29T13:28:27Z</time>
      </trkpt>
      <trkpt lat="47.58683" lon="6.85824">
        <ele>390.5</ele>
        <time>2010-05-29T13:28:28Z</time>
      </trkpt>
      <trkpt lat="47.58677" lon="6.85823">
        <ele>390.5</ele>
        <time>2010-05-29T13:28:29Z</time>
      </trkpt>
      <trkpt lat="47.58672" lon="6.85822">
        <ele>390.5</ele>
        <time>2010-05-29T13:28:30Z</time>
      </trkpt>
      <trkpt lat="47.58667" lon="6.85823">
        <ele>390</ele>
        <time>2010-05-29T13:28:31Z</time>
      </trkpt>
      <trkpt lat="47.58662" lon="6.85823">
        <ele>389.5</ele>
        <time>2010-05-29T13:28:32Z</time>
      </trkpt>
      <trkpt lat="47.58656" lon="6.85822">
        <ele>389.5</ele>
        <time>2010-05-29T13:28:33Z</time>
      </trkpt>
      <trkpt lat="47.58652" lon="6.8582">
        <ele>390</ele>
        <time>2010-05-29T13:28:34Z</time>
      </trkpt>
      <trkpt lat="47.58647" lon="6.85817">
        <ele>390</ele>
        <time>2010-05-29T13:28:35Z</time>
      </trkpt>
      <trkpt lat="47.58643" lon="6.85813">
        <ele>390.5</ele>
        <time>2010-05-29T13:28:36Z</time>
      </trkpt>
      <trkpt lat="47.58638" lon="6.8581">
        <ele>390.5</ele>
        <time>2010-05-29T13:28:37Z</time>
      </trkpt>
      <trkpt lat="47.58633" lon="6.85808">
        <ele>390.5</ele>
        <time>2010-05-29T13:28:38Z</time>
      </trkpt>
      <trkpt lat="47.58628" lon="6.85806">
        <ele>391</ele>
        <time>2010-05-29T13:28:39Z</time>
      </trkpt>
      <trkpt lat="47.58623" lon="6.85804">
        <ele>391</ele>
        <time>2010-05-29T13:28:40Z</time>
      </trkpt>
      <trkpt lat="47.58617" lon="6.85802">
        <ele>391.5</ele>
        <time>2010-05-29T13:28:41Z</time>
      </trkpt>
      <trkpt lat="47.58612" lon="6.858">
        <ele>391.5</ele>
        <time>2010-05-29T13:28:42Z</time>
      </trkpt>
      <trkpt lat="47.58607" lon="6.85798">
        <ele>391</ele>
        <time>2010-05-29T13:28:43Z</time>
      </trkpt>
      <trkpt lat="47.58601" lon="6.85796">
        <ele>391.5</ele>
        <time>2010-05-29T13:28:44Z</time>
      </trkpt>
      <trkpt lat="47.58596" lon="6.85794">
        <ele>391</ele>
        <time>2010-05-29T13:28:45Z</time>
      </trkpt>
      <trkpt lat="47.58591" lon="6.85792">
        <ele>390.5</ele>
        <time>2010-05-29T13:28:46Z</time>
      </trkpt>
      <trkpt lat="47.58586" lon="6.85789">
        <ele>390.5</ele>
        <time>2010-05-29T13:28:47Z</time>
      </trkpt>
      <trkpt lat="47.58581" lon="6.85788">
        <ele>391</ele>
        <time>2010-05-29T13:28:48Z</time>
      </trkpt>
      <trkpt lat="47.58575" lon="6.85785">
        <ele>391</ele>
        <time>2010-05-29T13:28:49Z</time>
      </trkpt>
      <trkpt lat="47.5857" lon="6.85783">
        <ele>391</ele>
        <time>2010-05-29T13:28:50Z</time>
      </trkpt>
      <trkpt lat="47.58565" lon="6.85781">
        <ele>390.5</ele>
        <time>2010-05-29T13:28:51Z</time>
      </trkpt>
      <trkpt lat="47.5856" lon="6.85779">
        <ele>390.5</ele>
        <time>2010-05-29T13:28:52Z</time>
      </trkpt>
      <trkpt lat="47.58554" lon="6.85777">
        <ele>391</ele>
        <time>2010-05-29T13:28:53Z</time>
      </trkpt>
      <trkpt lat="47.58549" lon="6.85774">
        <ele>390.5</ele>
        <time>2010-05-29T13:28:54Z</time>
      </trkpt>
      <trkpt lat="47.58544" lon="6.85772">
        <ele>390.5</ele>
        <time>2010-05-29T13:28:55Z</time>
      </trkpt>
      <trkpt lat="47.58539" lon="6.8577">
        <ele>390.5</ele>
        <time>2010-05-29T13:28:56Z</time>
      </trkpt>
      <trkpt lat="47.58534" lon="6.85768">
        <ele>390.5</ele>
        <time>2010-05-29T13:28:57Z</time>
      </trkpt>
      <trkpt lat="47.58529" lon="6.85766">
        <ele>390</ele>
        <time>2010-05-29T13:28:58Z</time>
      </trkpt>
      <trkpt lat="47.58524" lon="6.85764">
        <ele>390</ele>
        <time>2010-05-29T13:28:59Z</time>
      </trkpt>
      <trkpt lat="47.58518" lon="6.85761">
        <ele>390.5</ele>
        <time>2010-05-29T13:29:00Z</time>
      </trkpt>
      <trkpt lat="47.58513" lon="6.8576">
        <ele>390.5</ele>
        <time>2010-05-29T13:29:01Z</time>
      </trkpt>
      <trkpt lat="47.58507" lon="6.85757">
        <ele>390.5</ele>
        <time>2010-05-29T13:29:02Z</time>
      </trkpt>
      <trkpt lat="47.58502" lon="6.85755">
        <ele>390.5</ele>
        <time>2010-05-29T13:29:03Z</time>
      </trkpt>
      <trkpt lat="47.58497" lon="6.85753">
        <ele>390.5</ele>
        <time>2010-05-29T13:29:04Z</time>
      </trkpt>
      <trkpt lat="47.58492" lon="6.85751">
        <ele>390.5</ele>
        <time>2010-05-29T13:29:05Z</time>
      </trkpt>
      <trkpt lat="47.58487" lon="6.85749">
        <ele>390.5</ele>
        <time>2010-05-29T13:29:06Z</time>
      </trkpt>
      <trkpt lat="47.58482" lon="6.85747">
        <ele>390.5</ele>
        <time>2010-05-29T13:29:07Z</time>
      </trkpt>
      <trkpt lat="47.58476" lon="6.85745">
        <ele>391</ele>
        <time>2010-05-29T13:29:08Z</time>
      </trkpt>
      <trkpt lat="47.58471" lon="6.85743">
        <ele>391</ele>
        <time>2010-05-29T13:29:09Z</time>
      </trkpt>
      <trkpt lat="47.58462" lon="6.85739">
        <ele>391</ele>
        <time>2010-05-29T13:29:09Z</time>
      </trkpt>
      <trkpt lat="47.58457" lon="6.85737">
        <ele>391</ele>
        <time>2010-05-29T13:29:11Z</time>
      </trkpt>
      <trkpt lat="47.58447" lon="6.85734">
        <ele>390.5</ele>
        <time>2010-05-29T13:29:14Z</time>
      </trkpt>
      <trkpt lat="47.58442" lon="6.85732">
        <ele>390.5</ele>
        <time>2010-05-29T13:29:15Z</time>
      </trkpt>
      <trkpt lat="47.58436" lon="6.85731">
        <ele>390.5</ele>
        <time>2010-05-29T13:29:16Z</time>
      </trkpt>
      <trkpt lat="47.58431" lon="6.85729">
        <ele>390</ele>
        <time>2010-05-29T13:29:17Z</time>
      </trkpt>
      <trkpt lat="47.58426" lon="6.85728">
        <ele>390</ele>
        <time>2010-05-29T13:29:18Z</time>
      </trkpt>
      <trkpt lat="47.58422" lon="6.85726">
        <ele>390</ele>
        <time>2010-05-29T13:29:19Z</time>
      </trkpt>
      <trkpt lat="47.58417" lon="6.85725">
        <ele>389.5</ele>
        <time>2010-05-29T13:29:20Z</time>
      </trkpt>
      <trkpt lat="47.58411" lon="6.85723">
        <ele>389.5</ele>
        <time>2010-05-29T13:29:21Z</time>
      </trkpt>
      <trkpt lat="47.58406" lon="6.85722">
        <ele>389.5</ele>
        <time>2010-05-29T13:29:22Z</time>
      </trkpt>
      <trkpt lat="47.584" lon="6.8572">
        <ele>389</ele>
        <time>2010-05-29T13:29:23Z</time>
      </trkpt>
      <trkpt lat="47.58395" lon="6.85719">
        <ele>389</ele>
        <time>2010-05-29T13:29:24Z</time>
      </trkpt>
      <trkpt lat="47.58389" lon="6.85717">
        <ele>389.5</ele>
        <time>2010-05-29T13:29:25Z</time>
      </trkpt>
      <trkpt lat="47.58383" lon="6.85715">
        <ele>390</ele>
        <time>2010-05-29T13:29:26Z</time>
      </trkpt>
      <trkpt lat="47.58378" lon="6.85714">
        <ele>389.5</ele>
        <time>2010-05-29T13:29:27Z</time>
      </trkpt>
      <trkpt lat="47.58372" lon="6.85712">
        <ele>389.5</ele>
        <time>2010-05-29T13:29:28Z</time>
      </trkpt>
      <trkpt lat="47.58367" lon="6.85711">
        <ele>389</ele>
        <time>2010-05-29T13:29:29Z</time>
      </trkpt>
      <trkpt lat="47.58362" lon="6.8571">
        <ele>388.5</ele>
        <time>2010-05-29T13:29:30Z</time>
      </trkpt>
      <trkpt lat="47.58356" lon="6.85708">
        <ele>388.5</ele>
        <time>2010-05-29T13:29:31Z</time>
      </trkpt>
      <trkpt lat="47.5835" lon="6.85706">
        <ele>388.5</ele>
        <time>2010-05-29T13:29:32Z</time>
      </trkpt>
      <trkpt lat="47.58345" lon="6.85705">
        <ele>388.5</ele>
        <time>2010-05-29T13:29:33Z</time>
      </trkpt>
      <trkpt lat="47.58339" lon="6.85704">
        <ele>388.5</ele>
        <time>2010-05-29T13:29:34Z</time>
      </trkpt>
      <trkpt lat="47.58334" lon="6.85702">
        <ele>388.5</ele>
        <time>2010-05-29T13:29:35Z</time>
      </trkpt>
      <trkpt lat="47.58328" lon="6.85701">
        <ele>388</ele>
        <time>2010-05-29T13:29:36Z</time>
      </trkpt>
      <trkpt lat="47.58323" lon="6.857">
        <ele>388</ele>
        <time>2010-05-29T13:29:37Z</time>
      </trkpt>
      <trkpt lat="47.58317" lon="6.85698">
        <ele>388</ele>
        <time>2010-05-29T13:29:38Z</time>
      </trkpt>
      <trkpt lat="47.58311" lon="6.85697">
        <ele>388</ele>
        <time>2010-05-29T13:29:39Z</time>
      </trkpt>
      <trkpt lat="47.58306" lon="6.85696">
        <ele>388</ele>
        <time>2010-05-29T13:29:40Z</time>
      </trkpt>
      <trkpt lat="47.583" lon="6.85694">
        <ele>388</ele>
        <time>2010-05-29T13:29:41Z</time>
      </trkpt>
      <trkpt lat="47.58295" lon="6.85693">
        <ele>388</ele>
        <time>2010-05-29T13:29:42Z</time>
      </trkpt>
      <trkpt lat="47.5829" lon="6.85692">
        <ele>388</ele>
        <time>2010-05-29T13:29:43Z</time>
      </trkpt>
      <trkpt lat="47.58284" lon="6.85691">
        <ele>388</ele>
        <time>2010-05-29T13:29:44Z</time>
      </trkpt>
      <trkpt lat="47.58279" lon="6.8569">
        <ele>388</ele>
        <time>2010-05-29T13:29:45Z</time>
      </trkpt>
      <trkpt lat="47.58273" lon="6.85689">
        <ele>388</ele>
        <time>2010-05-29T13:29:46Z</time>
      </trkpt>
      <trkpt lat="47.58268" lon="6.85688">
        <ele>388</ele>
        <time>2010-05-29T13:29:47Z</time>
      </trkpt>
      <trkpt lat="47.58263" lon="6.85687">
        <ele>388</ele>
        <time>2010-05-29T13:29:48Z</time>
      </trkpt>
      <trkpt lat="47.58257" lon="6.85686">
        <ele>387.5</ele>
        <time>2010-05-29T13:29:49Z</time>
      </trkpt>
      <trkpt lat="47.58252" lon="6.85686">
        <ele>387.5</ele>
        <time>2010-05-29T13:29:50Z</time>
      </trkpt>
      <trkpt lat="47.58246" lon="6.85687">
        <ele>387.5</ele>
        <time>2010-05-29T13:29:51Z</time>
      </trkpt>
      <trkpt lat="47.58242" lon="6.85689">
        <ele>388</ele>
        <time>2010-05-29T13:29:52Z</time>
      </trkpt>
      <trkpt lat="47.58236" lon="6.85693">
        <ele>388</ele>
        <time>2010-05-29T13:29:53Z</time>
      </trkpt>
      <trkpt lat="47.58231" lon="6.85695">
        <ele>388</ele>
        <time>2010-05-29T13:29:54Z</time>
      </trkpt>
      <trkpt lat="47.58227" lon="6.85696">
        <ele>388</ele>
        <time>2010-05-29T13:29:55Z</time>
      </trkpt>
      <trkpt lat="47.58221" lon="6.85695">
        <ele>388</ele>
        <time>2010-05-29T13:29:56Z</time>
      </trkpt>
      <trkpt lat="47.58216" lon="6.85693">
        <ele>388.5</ele>
        <time>2010-05-29T13:29:57Z</time>
      </trkpt>
      <trkpt lat="47.58211" lon="6.85691">
        <ele>389</ele>
        <time>2010-05-29T13:29:58Z</time>
      </trkpt>
      <trkpt lat="47.58205" lon="6.85689">
        <ele>388.5</ele>
        <time>2010-05-29T13:29:59Z</time>
      </trkpt>
      <trkpt lat="47.582" lon="6.85689">
        <ele>389</ele>
        <time>2010-05-29T13:30:00Z</time>
      </trkpt>
      <trkpt lat="47.58194" lon="6.85691">
        <ele>389.5</ele>
        <time>2010-05-29T13:30:01Z</time>
      </trkpt>
      <trkpt lat="47.58189" lon="6.85693">
        <ele>389.5</ele>
        <time>2010-05-29T13:30:02Z</time>
      </trkpt>
      <trkpt lat="47.58184" lon="6.85695">
        <ele>389.5</ele>
        <time>2010-05-29T13:30:03Z</time>
      </trkpt>
      <trkpt lat="47.58177" lon="6.85703">
        <ele>390</ele>
        <time>2010-05-29T13:30:05Z</time>
      </trkpt>
      <trkpt lat="47.58173" lon="6.85708">
        <ele>390</ele>
        <time>2010-05-29T13:30:06Z</time>
      </trkpt>
      <trkpt lat="47.58169" lon="6.85713">
        <ele>389.5</ele>
        <time>2010-05-29T13:30:07Z</time>
      </trkpt>
      <trkpt lat="47.58166" lon="6.85719">
        <ele>389.5</ele>
        <time>2010-05-29T13:30:08Z</time>
      </trkpt>
      <trkpt lat="47.58162" lon="6.85725">
        <ele>389.5</ele>
        <time>2010-05-29T13:30:09Z</time>
      </trkpt>
      <trkpt lat="47.58156" lon="6.85737">
        <ele>389.5</ele>
        <time>2010-05-29T13:30:09Z</time>
      </trkpt>
      <trkpt lat="47.58153" lon="6.85743">
        <ele>390</ele>
        <time>2010-05-29T13:30:11Z</time>
      </trkpt>
      <trkpt lat="47.58151" lon="6.85749">
        <ele>391</ele>
        <time>2010-05-29T13:30:12Z</time>
      </trkpt>
      <trkpt lat="47.58151" lon="6.85757">
        <ele>392</ele>
        <time>2010-05-29T13:30:14Z</time>
      </trkpt>
      <trkpt lat="47.5815" lon="6.85764">
        <ele>392.5</ele>
        <time>2010-05-29T13:30:16Z</time>
      </trkpt>
      <trkpt lat="47.58145" lon="6.85767">
        <ele>393.5</ele>
        <time>2010-05-29T13:30:19Z</time>
      </trkpt>
      <trkpt lat="47.58139" lon="6.85775">
        <ele>394</ele>
        <time>2010-05-29T13:30:21Z</time>
      </trkpt>
      <trkpt lat="47.58134" lon="6.85783">
        <ele>394.5</ele>
        <time>2010-05-29T13:30:23Z</time>
      </trkpt>
      <trkpt lat="47.5813" lon="6.85788">
        <ele>394.5</ele>
        <time>2010-05-29T13:30:24Z</time>
      </trkpt>
      <trkpt lat="47.58127" lon="6.85793">
        <ele>394.5</ele>
        <time>2010-05-29T13:30:25Z</time>
      </trkpt>
      <trkpt lat="47.58121" lon="6.85802">
        <ele>394.5</ele>
        <time>2010-05-29T13:30:27Z</time>
      </trkpt>
      <trkpt lat="47.58116" lon="6.8581">
        <ele>394.5</ele>
        <time>2010-05-29T13:30:29Z</time>
      </trkpt>
      <trkpt lat="47.58112" lon="6.85816">
        <ele>394</ele>
        <time>2010-05-29T13:30:31Z</time>
      </trkpt>
      <trkpt lat="47.58108" lon="6.8582">
        <ele>394.5</ele>
        <time>2010-05-29T13:30:34Z</time>
      </trkpt>
      <trkpt lat="47.58104" lon="6.85824">
        <ele>395</ele>
        <time>2010-05-29T13:30:36Z</time>
      </trkpt>
      <trkpt lat="47.58099" lon="6.85831">
        <ele>395.5</ele>
        <time>2010-05-29T13:30:38Z</time>
      </trkpt>
      <trkpt lat="47.58092" lon="6.85838">
        <ele>396</ele>
        <time>2010-05-29T13:30:40Z</time>
      </trkpt>
      <trkpt lat="47.58085" lon="6.85844">
        <ele>396</ele>
        <time>2010-05-29T13:30:42Z</time>
      </trkpt>
      <trkpt lat="47.58079" lon="6.85851">
        <ele>396</ele>
        <time>2010-05-29T13:30:44Z</time>
      </trkpt>
      <trkpt lat="47.58071" lon="6.85858">
        <ele>396</ele>
        <time>2010-05-29T13:30:46Z</time>
      </trkpt>
      <trkpt lat="47.58067" lon="6.85861">
        <ele>396</ele>
        <time>2010-05-29T13:30:47Z</time>
      </trkpt>
      <trkpt lat="47.58063" lon="6.85866">
        <ele>395.5</ele>
        <time>2010-05-29T13:30:48Z</time>
      </trkpt>
      <trkpt lat="47.58058" lon="6.85872">
        <ele>395</ele>
        <time>2010-05-29T13:30:49Z</time>
      </trkpt>
      <trkpt lat="47.58054" lon="6.85878">
        <ele>394.5</ele>
        <time>2010-05-29T13:30:50Z</time>
      </trkpt>
      <trkpt lat="47.58048" lon="6.85884">
        <ele>394.5</ele>
        <time>2010-05-29T13:30:51Z</time>
      </trkpt>
      <trkpt lat="47.58043" lon="6.85889">
        <ele>394</ele>
        <time>2010-05-29T13:30:52Z</time>
      </trkpt>
      <trkpt lat="47.58038" lon="6.85894">
        <ele>394.5</ele>
        <time>2010-05-29T13:30:53Z</time>
      </trkpt>
      <trkpt lat="47.58032" lon="6.85899">
        <ele>394.5</ele>
        <time>2010-05-29T13:30:54Z</time>
      </trkpt>
      <trkpt lat="47.58025" lon="6.85902">
        <ele>395</ele>
        <time>2010-05-29T13:30:55Z</time>
      </trkpt>
      <trkpt lat="47.58019" lon="6.85905">
        <ele>395</ele>
        <time>2010-05-29T13:30:56Z</time>
      </trkpt>
      <trkpt lat="47.58013" lon="6.85907">
        <ele>395.5</ele>
        <time>2010-05-29T13:30:57Z</time>
      </trkpt>
      <trkpt lat="47.58007" lon="6.85909">
        <ele>395.5</ele>
        <time>2010-05-29T13:30:58Z</time>
      </trkpt>
      <trkpt lat="47.58001" lon="6.8591">
        <ele>395.5</ele>
        <time>2010-05-29T13:30:59Z</time>
      </trkpt>
      <trkpt lat="47.57994" lon="6.85911">
        <ele>395</ele>
        <time>2010-05-29T13:31:00Z</time>
      </trkpt>
      <trkpt lat="47.57988" lon="6.85912">
        <ele>395</ele>
        <time>2010-05-29T13:31:01Z</time>
      </trkpt>
      <trkpt lat="47.57981" lon="6.85913">
        <ele>395</ele>
        <time>2010-05-29T13:31:02Z</time>
      </trkpt>
      <trkpt lat="47.57975" lon="6.85913">
        <ele>395.5</ele>
        <time>2010-05-29T13:31:03Z</time>
      </trkpt>
      <trkpt lat="47.57969" lon="6.85913">
        <ele>395.5</ele>
        <time>2010-05-29T13:31:04Z</time>
      </trkpt>
      <trkpt lat="47.57963" lon="6.85913">
        <ele>395</ele>
        <time>2010-05-29T13:31:05Z</time>
      </trkpt>
      <trkpt lat="47.57957" lon="6.85913">
        <ele>395</ele>
        <time>2010-05-29T13:31:06Z</time>
      </trkpt>
      <trkpt lat="47.57951" lon="6.85913">
        <ele>394.5</ele>
        <time>2010-05-29T13:31:07Z</time>
      </trkpt>
      <trkpt lat="47.57945" lon="6.85913">
        <ele>394.5</ele>
        <time>2010-05-29T13:31:08Z</time>
      </trkpt>
      <trkpt lat="47.5793" lon="6.85914">
        <ele>395</ele>
        <time>2010-05-29T13:31:09Z</time>
      </trkpt>
      <trkpt lat="47.57924" lon="6.85913">
        <ele>395</ele>
        <time>2010-05-29T13:31:11Z</time>
      </trkpt>
      <trkpt lat="47.57918" lon="6.85912">
        <ele>395</ele>
        <time>2010-05-29T13:31:12Z</time>
      </trkpt>
      <trkpt lat="47.57907" lon="6.85912">
        <ele>394.5</ele>
        <time>2010-05-29T13:31:14Z</time>
      </trkpt>
      <trkpt lat="47.57902" lon="6.85912">
        <ele>394.5</ele>
        <time>2010-05-29T13:31:15Z</time>
      </trkpt>
      <trkpt lat="47.57896" lon="6.85912">
        <ele>394.5</ele>
        <time>2010-05-29T13:31:16Z</time>
      </trkpt>
      <trkpt lat="47.5789" lon="6.85912">
        <ele>394.5</ele>
        <time>2010-05-29T13:31:17Z</time>
      </trkpt>
      <trkpt lat="47.57884" lon="6.85912">
        <ele>394.5</ele>
        <time>2010-05-29T13:31:18Z</time>
      </trkpt>
      <trkpt lat="47.57877" lon="6.85912">
        <ele>394.5</ele>
        <time>2010-05-29T13:31:19Z</time>
      </trkpt>
      <trkpt lat="47.57871" lon="6.85912">
        <ele>394.5</ele>
        <time>2010-05-29T13:31:20Z</time>
      </trkpt>
      <trkpt lat="47.57865" lon="6.85912">
        <ele>394.5</ele>
        <time>2010-05-29T13:31:21Z</time>
      </trkpt>
      <trkpt lat="47.57859" lon="6.85912">
        <ele>394.5</ele>
        <time>2010-05-29T13:31:22Z</time>
      </trkpt>
      <trkpt lat="47.57854" lon="6.85913">
        <ele>394.5</ele>
        <time>2010-05-29T13:31:23Z</time>
      </trkpt>
      <trkpt lat="47.57848" lon="6.85913">
        <ele>394</ele>
        <time>2010-05-29T13:31:24Z</time>
      </trkpt>
      <trkpt lat="47.57841" lon="6.85912">
        <ele>394</ele>
        <time>2010-05-29T13:31:25Z</time>
      </trkpt>
      <trkpt lat="47.57835" lon="6.85912">
        <ele>393.5</ele>
        <time>2010-05-29T13:31:26Z</time>
      </trkpt>
      <trkpt lat="47.57829" lon="6.85912">
        <ele>394</ele>
        <time>2010-05-29T13:31:27Z</time>
      </trkpt>
      <trkpt lat="47.57824" lon="6.85912">
        <ele>394</ele>
        <time>2010-05-29T13:31:28Z</time>
      </trkpt>
      <trkpt lat="47.57818" lon="6.85912">
        <ele>394</ele>
        <time>2010-05-29T13:31:29Z</time>
      </trkpt>
      <trkpt lat="47.57812" lon="6.85912">
        <ele>394</ele>
        <time>2010-05-29T13:31:30Z</time>
      </trkpt>
      <trkpt lat="47.57806" lon="6.85912">
        <ele>394</ele>
        <time>2010-05-29T13:31:31Z</time>
      </trkpt>
      <trkpt lat="47.578" lon="6.85913">
        <ele>394</ele>
        <time>2010-05-29T13:31:32Z</time>
      </trkpt>
      <trkpt lat="47.57795" lon="6.85913">
        <ele>394.5</ele>
        <time>2010-05-29T13:31:33Z</time>
      </trkpt>
      <trkpt lat="47.57789" lon="6.85913">
        <ele>394.5</ele>
        <time>2010-05-29T13:31:34Z</time>
      </trkpt>
      <trkpt lat="47.57783" lon="6.85913">
        <ele>394.5</ele>
        <time>2010-05-29T13:31:35Z</time>
      </trkpt>
      <trkpt lat="47.57777" lon="6.85913">
        <ele>394.5</ele>
        <time>2010-05-29T13:31:36Z</time>
      </trkpt>
      <trkpt lat="47.57771" lon="6.85914">
        <ele>394.5</ele>
        <time>2010-05-29T13:31:37Z</time>
      </trkpt>
      <trkpt lat="47.57765" lon="6.85914">
        <ele>394.5</ele>
        <time>2010-05-29T13:31:38Z</time>
      </trkpt>
      <trkpt lat="47.5776" lon="6.85914">
        <ele>395</ele>
        <time>2010-05-29T13:31:39Z</time>
      </trkpt>
      <trkpt lat="47.57754" lon="6.85914">
        <ele>395</ele>
        <time>2010-05-29T13:31:40Z</time>
      </trkpt>
      <trkpt lat="47.57748" lon="6.85915">
        <ele>395.5</ele>
        <time>2010-05-29T13:31:41Z</time>
      </trkpt>
      <trkpt lat="47.57742" lon="6.85915">
        <ele>395.5</ele>
        <time>2010-05-29T13:31:42Z</time>
      </trkpt>
      <trkpt lat="47.57736" lon="6.85916">
        <ele>395.5</ele>
        <time>2010-05-29T13:31:43Z</time>
      </trkpt>
      <trkpt lat="47.5773" lon="6.85916">
        <ele>395.5</ele>
        <time>2010-05-29T13:31:44Z</time>
      </trkpt>
      <trkpt lat="47.57724" lon="6.85916">
        <ele>395.5</ele>
        <time>2010-05-29T13:31:45Z</time>
      </trkpt>
      <trkpt lat="47.57718" lon="6.85916">
        <ele>396</ele>
        <time>2010-05-29T13:31:46Z</time>
      </trkpt>
      <trkpt lat="47.57712" lon="6.85915">
        <ele>396</ele>
        <time>2010-05-29T13:31:47Z</time>
      </trkpt>
      <trkpt lat="47.57706" lon="6.85915">
        <ele>395.5</ele>
        <time>2010-05-29T13:31:48Z</time>
      </trkpt>
      <trkpt lat="47.577" lon="6.85915">
        <ele>395.5</ele>
        <time>2010-05-29T13:31:49Z</time>
      </trkpt>
      <trkpt lat="47.57694" lon="6.85914">
        <ele>395</ele>
        <time>2010-05-29T13:31:50Z</time>
      </trkpt>
      <trkpt lat="47.57688" lon="6.85914">
        <ele>395</ele>
        <time>2010-05-29T13:31:51Z</time>
      </trkpt>
      <trkpt lat="47.57682" lon="6.85914">
        <ele>394.5</ele>
        <time>2010-05-29T13:31:52Z</time>
      </trkpt>
      <trkpt lat="47.57676" lon="6.85915">
        <ele>395</ele>
        <time>2010-05-29T13:31:53Z</time>
      </trkpt>
      <trkpt lat="47.5767" lon="6.85915">
        <ele>395</ele>
        <time>2010-05-29T13:31:54Z</time>
      </trkpt>
      <trkpt lat="47.57664" lon="6.85915">
        <ele>395</ele>
        <time>2010-05-29T13:31:55Z</time>
      </trkpt>
      <trkpt lat="47.57658" lon="6.85915">
        <ele>395</ele>
        <time>2010-05-29T13:31:56Z</time>
      </trkpt>
      <trkpt lat="47.57653" lon="6.85915">
        <ele>394.5</ele>
        <time>2010-05-29T13:31:57Z</time>
      </trkpt>
      <trkpt lat="47.57647" lon="6.85915">
        <ele>394.5</ele>
        <time>2010-05-29T13:31:58Z</time>
      </trkpt>
      <trkpt lat="47.57641" lon="6.85915">
        <ele>394.5</ele>
        <time>2010-05-29T13:31:59Z</time>
      </trkpt>
      <trkpt lat="47.57636" lon="6.85915">
        <ele>394</ele>
        <time>2010-05-29T13:32:00Z</time>
      </trkpt>
      <trkpt lat="47.5763" lon="6.85915">
        <ele>394</ele>
        <time>2010-05-29T13:32:01Z</time>
      </trkpt>
      <trkpt lat="47.57624" lon="6.85915">
        <ele>394</ele>
        <time>2010-05-29T13:32:02Z</time>
      </trkpt>
      <trkpt lat="47.57618" lon="6.85914">
        <ele>394</ele>
        <time>2010-05-29T13:32:03Z</time>
      </trkpt>
      <trkpt lat="47.57613" lon="6.85914">
        <ele>393.5</ele>
        <time>2010-05-29T13:32:04Z</time>
      </trkpt>
      <trkpt lat="47.57607" lon="6.85914">
        <ele>393.5</ele>
        <time>2010-05-29T13:32:05Z</time>
      </trkpt>
      <trkpt lat="47.57601" lon="6.85914">
        <ele>394</ele>
        <time>2010-05-29T13:32:06Z</time>
      </trkpt>
      <trkpt lat="47.57595" lon="6.85914">
        <ele>393.5</ele>
        <time>2010-05-29T13:32:07Z</time>
      </trkpt>
      <trkpt lat="47.57589" lon="6.85914">
        <ele>393.5</ele>
        <time>2010-05-29T13:32:08Z</time>
      </trkpt>
      <trkpt lat="47.57584" lon="6.85914">
        <ele>393.5</ele>
        <time>2010-05-29T13:32:09Z</time>
      </trkpt>
      <trkpt lat="47.57575" lon="6.85914">
        <ele>393.5</ele>
        <time>2010-05-29T13:32:09Z</time>
      </trkpt>
      <trkpt lat="47.57569" lon="6.85914">
        <ele>393.5</ele>
        <time>2010-05-29T13:32:11Z</time>
      </trkpt>
      <trkpt lat="47.57563" lon="6.85914">
        <ele>393.5</ele>
        <time>2010-05-29T13:32:12Z</time>
      </trkpt>
      <trkpt lat="47.57556" lon="6.85913">
        <ele>393.5</ele>
        <time>2010-05-29T13:32:14Z</time>
      </trkpt>
      <trkpt lat="47.57547" lon="6.85912">
        <ele>393</ele>
        <time>2010-05-29T13:32:16Z</time>
      </trkpt>
      <trkpt lat="47.5754" lon="6.85912">
        <ele>393.5</ele>
        <time>2010-05-29T13:32:17Z</time>
      </trkpt>
      <trkpt lat="47.57534" lon="6.85913">
        <ele>394.5</ele>
        <time>2010-05-29T13:32:18Z</time>
      </trkpt>
      <trkpt lat="47.57529" lon="6.85913">
        <ele>394.5</ele>
        <time>2010-05-29T13:32:19Z</time>
      </trkpt>
      <trkpt lat="47.57523" lon="6.85913">
        <ele>394.5</ele>
        <time>2010-05-29T13:32:20Z</time>
      </trkpt>
      <trkpt lat="47.57518" lon="6.85913">
        <ele>394.5</ele>
        <time>2010-05-29T13:32:21Z</time>
      </trkpt>
      <trkpt lat="47.57512" lon="6.85912">
        <ele>394.5</ele>
        <time>2010-05-29T13:32:22Z</time>
      </trkpt>
      <trkpt lat="47.57507" lon="6.85912">
        <ele>395</ele>
        <time>2010-05-29T13:32:23Z</time>
      </trkpt>
      <trkpt lat="47.57501" lon="6.85912">
        <ele>395</ele>
        <time>2010-05-29T13:32:24Z</time>
      </trkpt>
      <trkpt lat="47.57495" lon="6.85912">
        <ele>395.5</ele>
        <time>2010-05-29T13:32:25Z</time>
      </trkpt>
      <trkpt lat="47.5749" lon="6.85912">
        <ele>395</ele>
        <time>2010-05-29T13:32:26Z</time>
      </trkpt>
      <trkpt lat="47.57484" lon="6.85912">
        <ele>395</ele>
        <time>2010-05-29T13:32:27Z</time>
      </trkpt>
      <trkpt lat="47.57478" lon="6.85912">
        <ele>395</ele>
        <time>2010-05-29T13:32:28Z</time>
      </trkpt>
      <trkpt lat="47.57473" lon="6.85912">
        <ele>395.5</ele>
        <time>2010-05-29T13:32:29Z</time>
      </trkpt>
      <trkpt lat="47.57467" lon="6.85912">
        <ele>396</ele>
        <time>2010-05-29T13:32:30Z</time>
      </trkpt>
      <trkpt lat="47.57462" lon="6.85911">
        <ele>396</ele>
        <time>2010-05-29T13:32:31Z</time>
      </trkpt>
      <trkpt lat="47.57456" lon="6.85912">
        <ele>396.5</ele>
        <time>2010-05-29T13:32:32Z</time>
      </trkpt>
      <trkpt lat="47.5745" lon="6.85912">
        <ele>396.5</ele>
        <time>2010-05-29T13:32:33Z</time>
      </trkpt>
      <trkpt lat="47.57445" lon="6.85912">
        <ele>397</ele>
        <time>2010-05-29T13:32:34Z</time>
      </trkpt>
      <trkpt lat="47.57439" lon="6.85912">
        <ele>397</ele>
        <time>2010-05-29T13:32:35Z</time>
      </trkpt>
      <trkpt lat="47.57433" lon="6.85913">
        <ele>397</ele>
        <time>2010-05-29T13:32:36Z</time>
      </trkpt>
      <trkpt lat="47.57427" lon="6.85912">
        <ele>396.5</ele>
        <time>2010-05-29T13:32:37Z</time>
      </trkpt>
      <trkpt lat="47.57421" lon="6.85913">
        <ele>396</ele>
        <time>2010-05-29T13:32:38Z</time>
      </trkpt>
      <trkpt lat="47.57415" lon="6.85913">
        <ele>396</ele>
        <time>2010-05-29T13:32:39Z</time>
      </trkpt>
      <trkpt lat="47.57409" lon="6.85912">
        <ele>396</ele>
        <time>2010-05-29T13:32:40Z</time>
      </trkpt>
      <trkpt lat="47.57403" lon="6.85911">
        <ele>396</ele>
        <time>2010-05-29T13:32:41Z</time>
      </trkpt>
      <trkpt lat="47.57398" lon="6.8591">
        <ele>396.5</ele>
        <time>2010-05-29T13:32:42Z</time>
      </trkpt>
      <trkpt lat="47.57393" lon="6.85909">
        <ele>396.5</ele>
        <time>2010-05-29T13:32:43Z</time>
      </trkpt>
      <trkpt lat="47.57384" lon="6.85907">
        <ele>396</ele>
        <time>2010-05-29T13:32:45Z</time>
      </trkpt>
      <trkpt lat="47.57375" lon="6.85908">
        <ele>395.5</ele>
        <time>2010-05-29T13:32:47Z</time>
      </trkpt>
      <trkpt lat="47.5737" lon="6.85908">
        <ele>395.5</ele>
        <time>2010-05-29T13:32:48Z</time>
      </trkpt>
      <trkpt lat="47.57364" lon="6.85909">
        <ele>394.5</ele>
        <time>2010-05-29T13:32:49Z</time>
      </trkpt>
      <trkpt lat="47.57358" lon="6.85909">
        <ele>394</ele>
        <time>2010-05-29T13:32:50Z</time>
      </trkpt>
      <trkpt lat="47.57351" lon="6.8591">
        <ele>393.5</ele>
        <time>2010-05-29T13:32:51Z</time>
      </trkpt>
      <trkpt lat="47.57345" lon="6.8591">
        <ele>393.5</ele>
        <time>2010-05-29T13:32:52Z</time>
      </trkpt>
      <trkpt lat="47.57339" lon="6.85911">
        <ele>394</ele>
        <time>2010-05-29T13:32:53Z</time>
      </trkpt>
      <trkpt lat="47.57333" lon="6.85911">
        <ele>394</ele>
        <time>2010-05-29T13:32:54Z</time>
      </trkpt>
      <trkpt lat="47.57327" lon="6.85911">
        <ele>393.5</ele>
        <time>2010-05-29T13:32:55Z</time>
      </trkpt>
      <trkpt lat="47.57321" lon="6.85911">
        <ele>394</ele>
        <time>2010-05-29T13:32:56Z</time>
      </trkpt>
      <trkpt lat="47.57315" lon="6.85911">
        <ele>394</ele>
        <time>2010-05-29T13:32:57Z</time>
      </trkpt>
      <trkpt lat="47.5731" lon="6.85911">
        <ele>394</ele>
        <time>2010-05-29T13:32:58Z</time>
      </trkpt>
      <trkpt lat="47.57304" lon="6.85911">
        <ele>394.5</ele>
        <time>2010-05-29T13:32:59Z</time>
      </trkpt>
      <trkpt lat="47.57297" lon="6.85911">
        <ele>394.5</ele>
        <time>2010-05-29T13:33:00Z</time>
      </trkpt>
      <trkpt lat="47.57291" lon="6.85911">
        <ele>394.5</ele>
        <time>2010-05-29T13:33:01Z</time>
      </trkpt>
      <trkpt lat="47.57285" lon="6.85911">
        <ele>394.5</ele>
        <time>2010-05-29T13:33:02Z</time>
      </trkpt>
      <trkpt lat="47.57279" lon="6.85911">
        <ele>394.5</ele>
        <time>2010-05-29T13:33:03Z</time>
      </trkpt>
      <trkpt lat="47.57273" lon="6.85911">
        <ele>394.5</ele>
        <time>2010-05-29T13:33:04Z</time>
      </trkpt>
      <trkpt lat="47.57267" lon="6.85911">
        <ele>394.5</ele>
        <time>2010-05-29T13:33:05Z</time>
      </trkpt>
      <trkpt lat="47.57262" lon="6.85911">
        <ele>394.5</ele>
        <time>2010-05-29T13:33:06Z</time>
      </trkpt>
      <trkpt lat="47.57256" lon="6.85911">
        <ele>394.5</ele>
        <time>2010-05-29T13:33:07Z</time>
      </trkpt>
      <trkpt lat="47.5725" lon="6.85911">
        <ele>394.5</ele>
        <time>2010-05-29T13:33:08Z</time>
      </trkpt>
      <trkpt lat="47.57244" lon="6.85911">
        <ele>395</ele>
        <time>2010-05-29T13:33:09Z</time>
      </trkpt>
      <trkpt lat="47.57236" lon="6.85911">
        <ele>395</ele>
        <time>2010-05-29T13:33:09Z</time>
      </trkpt>
      <trkpt lat="47.57229" lon="6.85911">
        <ele>394</ele>
        <time>2010-05-29T13:33:11Z</time>
      </trkpt>
      <trkpt lat="47.57223" lon="6.8591">
        <ele>394</ele>
        <time>2010-05-29T13:33:12Z</time>
      </trkpt>
      <trkpt lat="47.57215" lon="6.85911">
        <ele>393.5</ele>
        <time>2010-05-29T13:33:14Z</time>
      </trkpt>
      <trkpt lat="47.57209" lon="6.85911">
        <ele>393.5</ele>
        <time>2010-05-29T13:33:15Z</time>
      </trkpt>
      <trkpt lat="47.57203" lon="6.85911">
        <ele>393.5</ele>
        <time>2010-05-29T13:33:16Z</time>
      </trkpt>
      <trkpt lat="47.57198" lon="6.85911">
        <ele>393.5</ele>
        <time>2010-05-29T13:33:17Z</time>
      </trkpt>
      <trkpt lat="47.57192" lon="6.8591">
        <ele>393</ele>
        <time>2010-05-29T13:33:18Z</time>
      </trkpt>
      <trkpt lat="47.57187" lon="6.8591">
        <ele>393</ele>
        <time>2010-05-29T13:33:19Z</time>
      </trkpt>
      <trkpt lat="47.57182" lon="6.85911">
        <ele>393</ele>
        <time>2010-05-29T13:33:20Z</time>
      </trkpt>
      <trkpt lat="47.57176" lon="6.85911">
        <ele>393</ele>
        <time>2010-05-29T13:33:21Z</time>
      </trkpt>
      <trkpt lat="47.5717" lon="6.85911">
        <ele>393</ele>
        <time>2010-05-29T13:33:22Z</time>
      </trkpt>
      <trkpt lat="47.57164" lon="6.85911">
        <ele>392.5</ele>
        <time>2010-05-29T13:33:23Z</time>
      </trkpt>
      <trkpt lat="47.57158" lon="6.85911">
        <ele>392.5</ele>
        <time>2010-05-29T13:33:24Z</time>
      </trkpt>
      <trkpt lat="47.57153" lon="6.85911">
        <ele>393</ele>
        <time>2010-05-29T13:33:25Z</time>
      </trkpt>
      <trkpt lat="47.57148" lon="6.8591">
        <ele>393</ele>
        <time>2010-05-29T13:33:26Z</time>
      </trkpt>
      <trkpt lat="47.57142" lon="6.8591">
        <ele>393</ele>
        <time>2010-05-29T13:33:27Z</time>
      </trkpt>
      <trkpt lat="47.57136" lon="6.8591">
        <ele>393</ele>
        <time>2010-05-29T13:33:28Z</time>
      </trkpt>
      <trkpt lat="47.57131" lon="6.85911">
        <ele>393</ele>
        <time>2010-05-29T13:33:29Z</time>
      </trkpt>
      <trkpt lat="47.57125" lon="6.8591">
        <ele>393</ele>
        <time>2010-05-29T13:33:30Z</time>
      </trkpt>
      <trkpt lat="47.57119" lon="6.8591">
        <ele>393</ele>
        <time>2010-05-29T13:33:31Z</time>
      </trkpt>
      <trkpt lat="47.57113" lon="6.8591">
        <ele>393</ele>
        <time>2010-05-29T13:33:32Z</time>
      </trkpt>
      <trkpt lat="47.57108" lon="6.8591">
        <ele>393</ele>
        <time>2010-05-29T13:33:33Z</time>
      </trkpt>
      <trkpt lat="47.57102" lon="6.8591">
        <ele>393.5</ele>
        <time>2010-05-29T13:33:34Z</time>
      </trkpt>
      <trkpt lat="47.57097" lon="6.8591">
        <ele>393.5</ele>
        <time>2010-05-29T13:33:35Z</time>
      </trkpt>
      <trkpt lat="47.57091" lon="6.8591">
        <ele>393.5</ele>
        <time>2010-05-29T13:33:36Z</time>
      </trkpt>
      <trkpt lat="47.57085" lon="6.85911">
        <ele>393.5</ele>
        <time>2010-05-29T13:33:37Z</time>
      </trkpt>
      <trkpt lat="47.5708" lon="6.85911">
        <ele>393.5</ele>
        <time>2010-05-29T13:33:38Z</time>
      </trkpt>
      <trkpt lat="47.57074" lon="6.85912">
        <ele>393.5</ele>
        <time>2010-05-29T13:33:39Z</time>
      </trkpt>
      <trkpt lat="47.57069" lon="6.85912">
        <ele>393.5</ele>
        <time>2010-05-29T13:33:40Z</time>
      </trkpt>
      <trkpt lat="47.57063" lon="6.85913">
        <ele>393.5</ele>
        <time>2010-05-29T13:33:41Z</time>
      </trkpt>
      <trkpt lat="47.57058" lon="6.85914">
        <ele>393.5</ele>
        <time>2010-05-29T13:33:42Z</time>
      </trkpt>
      <trkpt lat="47.57052" lon="6.85915">
        <ele>393.5</ele>
        <time>2010-05-29T13:33:43Z</time>
      </trkpt>
      <trkpt lat="47.57046" lon="6.85916">
        <ele>393.5</ele>
        <time>2010-05-29T13:33:44Z</time>
      </trkpt>
      <trkpt lat="47.57041" lon="6.85916">
        <ele>394</ele>
        <time>2010-05-29T13:33:45Z</time>
      </trkpt>
      <trkpt lat="47.57036" lon="6.85917">
        <ele>394</ele>
        <time>2010-05-29T13:33:46Z</time>
      </trkpt>
      <trkpt lat="47.5703" lon="6.85919">
        <ele>394</ele>
        <time>2010-05-29T13:33:47Z</time>
      </trkpt>
      <trkpt lat="47.57025" lon="6.8592">
        <ele>394</ele>
        <time>2010-05-29T13:33:48Z</time>
      </trkpt>
      <trkpt lat="47.57019" lon="6.85922">
        <ele>394</ele>
        <time>2010-05-29T13:33:49Z</time>
      </trkpt>
      <trkpt lat="47.57014" lon="6.85923">
        <ele>393.5</ele>
        <time>2010-05-29T13:33:50Z</time>
      </trkpt>
      <trkpt lat="47.57009" lon="6.85925">
        <ele>394</ele>
        <time>2010-05-29T13:33:51Z</time>
      </trkpt>
      <trkpt lat="47.57004" lon="6.85926">
        <ele>394.5</ele>
        <time>2010-05-29T13:33:52Z</time>
      </trkpt>
      <trkpt lat="47.56998" lon="6.85928">
        <ele>394.5</ele>
        <time>2010-05-29T13:33:53Z</time>
      </trkpt>
      <trkpt lat="47.56993" lon="6.8593">
        <ele>394.5</ele>
        <time>2010-05-29T13:33:54Z</time>
      </trkpt>
      <trkpt lat="47.56984" lon="6.85934">
        <ele>396</ele>
        <time>2010-05-29T13:33:56Z</time>
      </trkpt>
      <trkpt lat="47.56979" lon="6.85936">
        <ele>396</ele>
        <time>2010-05-29T13:33:57Z</time>
      </trkpt>
      <trkpt lat="47.56973" lon="6.85939">
        <ele>396</ele>
        <time>2010-05-29T13:33:58Z</time>
      </trkpt>
      <trkpt lat="47.56967" lon="6.85941">
        <ele>396</ele>
        <time>2010-05-29T13:33:59Z</time>
      </trkpt>
      <trkpt lat="47.56962" lon="6.85943">
        <ele>396</ele>
        <time>2010-05-29T13:34:00Z</time>
      </trkpt>
      <trkpt lat="47.56956" lon="6.85946">
        <ele>396</ele>
        <time>2010-05-29T13:34:01Z</time>
      </trkpt>
      <trkpt lat="47.56951" lon="6.85949">
        <ele>396</ele>
        <time>2010-05-29T13:34:02Z</time>
      </trkpt>
      <trkpt lat="47.56946" lon="6.85951">
        <ele>396</ele>
        <time>2010-05-29T13:34:03Z</time>
      </trkpt>
      <trkpt lat="47.56941" lon="6.85954">
        <ele>396</ele>
        <time>2010-05-29T13:34:04Z</time>
      </trkpt>
      <trkpt lat="47.56935" lon="6.85956">
        <ele>396</ele>
        <time>2010-05-29T13:34:05Z</time>
      </trkpt>
      <trkpt lat="47.5693" lon="6.85959">
        <ele>396.5</ele>
        <time>2010-05-29T13:34:06Z</time>
      </trkpt>
      <trkpt lat="47.56925" lon="6.85962">
        <ele>396.5</ele>
        <time>2010-05-29T13:34:07Z</time>
      </trkpt>
      <trkpt lat="47.5692" lon="6.85964">
        <ele>396.5</ele>
        <time>2010-05-29T13:34:08Z</time>
      </trkpt>
      <trkpt lat="47.56915" lon="6.85966">
        <ele>396.5</ele>
        <time>2010-05-29T13:34:09Z</time>
      </trkpt>
      <trkpt lat="47.56906" lon="6.85969">
        <ele>396.5</ele>
        <time>2010-05-29T13:34:09Z</time>
      </trkpt>
      <trkpt lat="47.56901" lon="6.85972">
        <ele>396</ele>
        <time>2010-05-29T13:34:11Z</time>
      </trkpt>
      <trkpt lat="47.56896" lon="6.85975">
        <ele>396.5</ele>
        <time>2010-05-29T13:34:12Z</time>
      </trkpt>
      <trkpt lat="47.5689" lon="6.85978">
        <ele>397</ele>
        <time>2010-05-29T13:34:14Z</time>
      </trkpt>
      <trkpt lat="47.56884" lon="6.85981">
        <ele>397</ele>
        <time>2010-05-29T13:34:15Z</time>
      </trkpt>
      <trkpt lat="47.56879" lon="6.85983">
        <ele>397</ele>
        <time>2010-05-29T13:34:16Z</time>
      </trkpt>
      <trkpt lat="47.56874" lon="6.85985">
        <ele>397</ele>
        <time>2010-05-29T13:34:17Z</time>
      </trkpt>
      <trkpt lat="47.56869" lon="6.85988">
        <ele>397</ele>
        <time>2010-05-29T13:34:18Z</time>
      </trkpt>
      <trkpt lat="47.56864" lon="6.8599">
        <ele>397</ele>
        <time>2010-05-29T13:34:19Z</time>
      </trkpt>
      <trkpt lat="47.56859" lon="6.85993">
        <ele>397.5</ele>
        <time>2010-05-29T13:34:20Z</time>
      </trkpt>
      <trkpt lat="47.56853" lon="6.85996">
        <ele>397</ele>
        <time>2010-05-29T13:34:21Z</time>
      </trkpt>
      <trkpt lat="47.56848" lon="6.85999">
        <ele>397.5</ele>
        <time>2010-05-29T13:34:22Z</time>
      </trkpt>
      <trkpt lat="47.56843" lon="6.86001">
        <ele>397.5</ele>
        <time>2010-05-29T13:34:23Z</time>
      </trkpt>
      <trkpt lat="47.56838" lon="6.86004">
        <ele>397.5</ele>
        <time>2010-05-29T13:34:24Z</time>
      </trkpt>
      <trkpt lat="47.56832" lon="6.86006">
        <ele>397.5</ele>
        <time>2010-05-29T13:34:25Z</time>
      </trkpt>
      <trkpt lat="47.56826" lon="6.86009">
        <ele>397.5</ele>
        <time>2010-05-29T13:34:26Z</time>
      </trkpt>
      <trkpt lat="47.5682" lon="6.86012">
        <ele>397.5</ele>
        <time>2010-05-29T13:34:27Z</time>
      </trkpt>
      <trkpt lat="47.56813" lon="6.86014">
        <ele>397</ele>
        <time>2010-05-29T13:34:28Z</time>
      </trkpt>
      <trkpt lat="47.56808" lon="6.86017">
        <ele>397</ele>
        <time>2010-05-29T13:34:29Z</time>
      </trkpt>
      <trkpt lat="47.56802" lon="6.86019">
        <ele>396.5</ele>
        <time>2010-05-29T13:34:30Z</time>
      </trkpt>
      <trkpt lat="47.56796" lon="6.86022">
        <ele>396.5</ele>
        <time>2010-05-29T13:34:31Z</time>
      </trkpt>
      <trkpt lat="47.56791" lon="6.86025">
        <ele>396.5</ele>
        <time>2010-05-29T13:34:32Z</time>
      </trkpt>
      <trkpt lat="47.56785" lon="6.86028">
        <ele>396.5</ele>
        <time>2010-05-29T13:34:33Z</time>
      </trkpt>
      <trkpt lat="47.56779" lon="6.86031">
        <ele>396</ele>
        <time>2010-05-29T13:34:34Z</time>
      </trkpt>
      <trkpt lat="47.56774" lon="6.86034">
        <ele>395.5</ele>
        <time>2010-05-29T13:34:35Z</time>
      </trkpt>
      <trkpt lat="47.56768" lon="6.86037">
        <ele>395</ele>
        <time>2010-05-29T13:34:36Z</time>
      </trkpt>
      <trkpt lat="47.56762" lon="6.86041">
        <ele>394.5</ele>
        <time>2010-05-29T13:34:37Z</time>
      </trkpt>
      <trkpt lat="47.56757" lon="6.86044">
        <ele>394</ele>
        <time>2010-05-29T13:34:38Z</time>
      </trkpt>
      <trkpt lat="47.56752" lon="6.86046">
        <ele>393.5</ele>
        <time>2010-05-29T13:34:39Z</time>
      </trkpt>
      <trkpt lat="47.56746" lon="6.86049">
        <ele>393.5</ele>
        <time>2010-05-29T13:34:40Z</time>
      </trkpt>
      <trkpt lat="47.56741" lon="6.86051">
        <ele>393.5</ele>
        <time>2010-05-29T13:34:41Z</time>
      </trkpt>
      <trkpt lat="47.56735" lon="6.86052">
        <ele>393.5</ele>
        <time>2010-05-29T13:34:42Z</time>
      </trkpt>
      <trkpt lat="47.56731" lon="6.86052">
        <ele>394</ele>
        <time>2010-05-29T13:34:43Z</time>
      </trkpt>
      <trkpt lat="47.56726" lon="6.86051">
        <ele>394</ele>
        <time>2010-05-29T13:34:44Z</time>
      </trkpt>
      <trkpt lat="47.56721" lon="6.86049">
        <ele>393.5</ele>
        <time>2010-05-29T13:34:45Z</time>
      </trkpt>
      <trkpt lat="47.56714" lon="6.86042">
        <ele>393</ele>
        <time>2010-05-29T13:34:47Z</time>
      </trkpt>
      <trkpt lat="47.56709" lon="6.86033">
        <ele>393.5</ele>
        <time>2010-05-29T13:34:49Z</time>
      </trkpt>
      <trkpt lat="47.56705" lon="6.86024">
        <ele>394</ele>
        <time>2010-05-29T13:34:51Z</time>
      </trkpt>
      <trkpt lat="47.56703" lon="6.86015">
        <ele>396.5</ele>
        <time>2010-05-29T13:34:53Z</time>
      </trkpt>
      <trkpt lat="47.56701" lon="6.86006">
        <ele>397.5</ele>
        <time>2010-05-29T13:34:55Z</time>
      </trkpt>
      <trkpt lat="47.56698" lon="6.86">
        <ele>399</ele>
        <time>2010-05-29T13:34:57Z</time>
      </trkpt>
      <trkpt lat="47.56696" lon="6.85993">
        <ele>401</ele>
        <time>2010-05-29T13:35:00Z</time>
      </trkpt>
      <trkpt lat="47.56694" lon="6.85986">
        <ele>403.5</ele>
        <time>2010-05-29T13:35:02Z</time>
      </trkpt>
      <trkpt lat="47.56692" lon="6.85977">
        <ele>404.5</ele>
        <time>2010-05-29T13:35:04Z</time>
      </trkpt>
      <trkpt lat="47.56689" lon="6.85967">
        <ele>406</ele>
        <time>2010-05-29T13:35:06Z</time>
      </trkpt>
      <trkpt lat="47.56686" lon="6.85957">
        <ele>407.5</ele>
        <time>2010-05-29T13:35:08Z</time>
      </trkpt>
      <trkpt lat="47.56681" lon="6.85945">
        <ele>408.5</ele>
        <time>2010-05-29T13:35:09Z</time>
      </trkpt>
      <trkpt lat="47.56677" lon="6.85934">
        <ele>408.5</ele>
        <time>2010-05-29T13:35:12Z</time>
      </trkpt>
      <trkpt lat="47.56674" lon="6.85927">
        <ele>407.5</ele>
        <time>2010-05-29T13:35:14Z</time>
      </trkpt>
      <trkpt lat="47.5667" lon="6.85917">
        <ele>407.5</ele>
        <time>2010-05-29T13:35:16Z</time>
      </trkpt>
      <trkpt lat="47.56666" lon="6.85907">
        <ele>407</ele>
        <time>2010-05-29T13:35:18Z</time>
      </trkpt>
      <trkpt lat="47.56662" lon="6.85897">
        <ele>406.5</ele>
        <time>2010-05-29T13:35:20Z</time>
      </trkpt>
      <trkpt lat="47.56657" lon="6.85887">
        <ele>406</ele>
        <time>2010-05-29T13:35:22Z</time>
      </trkpt>
      <trkpt lat="47.56652" lon="6.85877">
        <ele>405.5</ele>
        <time>2010-05-29T13:35:24Z</time>
      </trkpt>
      <trkpt lat="47.56646" lon="6.85866">
        <ele>405</ele>
        <time>2010-05-29T13:35:26Z</time>
      </trkpt>
      <trkpt lat="47.5664" lon="6.85856">
        <ele>405</ele>
        <time>2010-05-29T13:35:28Z</time>
      </trkpt>
      <trkpt lat="47.56635" lon="6.85847">
        <ele>404.5</ele>
        <time>2010-05-29T13:35:30Z</time>
      </trkpt>
      <trkpt lat="47.56632" lon="6.85842">
        <ele>404.5</ele>
        <time>2010-05-29T13:35:31Z</time>
      </trkpt>
      <trkpt lat="47.56628" lon="6.85837">
        <ele>404.5</ele>
        <time>2010-05-29T13:35:32Z</time>
      </trkpt>
      <trkpt lat="47.56625" lon="6.85832">
        <ele>404.5</ele>
        <time>2010-05-29T13:35:33Z</time>
      </trkpt>
      <trkpt lat="47.56622" lon="6.85826">
        <ele>404.5</ele>
        <time>2010-05-29T13:35:34Z</time>
      </trkpt>
      <trkpt lat="47.56619" lon="6.85821">
        <ele>404.5</ele>
        <time>2010-05-29T13:35:35Z</time>
      </trkpt>
      <trkpt lat="47.56615" lon="6.85816">
        <ele>404.5</ele>
        <time>2010-05-29T13:35:36Z</time>
      </trkpt>
      <trkpt lat="47.56611" lon="6.85811">
        <ele>404.5</ele>
        <time>2010-05-29T13:35:37Z</time>
      </trkpt>
      <trkpt lat="47.56607" lon="6.85807">
        <ele>404.5</ele>
        <time>2010-05-29T13:35:38Z</time>
      </trkpt>
      <trkpt lat="47.56603" lon="6.85802">
        <ele>404.5</ele>
        <time>2010-05-29T13:35:39Z</time>
      </trkpt>
      <trkpt lat="47.56599" lon="6.85798">
        <ele>404.5</ele>
        <time>2010-05-29T13:35:40Z</time>
      </trkpt>
      <trkpt lat="47.56595" lon="6.85794">
        <ele>405</ele>
        <time>2010-05-29T13:35:41Z</time>
      </trkpt>
      <trkpt lat="47.56591" lon="6.85789">
        <ele>405</ele>
        <time>2010-05-29T13:35:42Z</time>
      </trkpt>
      <trkpt lat="47.56587" lon="6.85785">
        <ele>404.5</ele>
        <time>2010-05-29T13:35:43Z</time>
      </trkpt>
      <trkpt lat="47.56583" lon="6.8578">
        <ele>404.5</ele>
        <time>2010-05-29T13:35:44Z</time>
      </trkpt>
      <trkpt lat="47.56578" lon="6.85776">
        <ele>404</ele>
        <time>2010-05-29T13:35:45Z</time>
      </trkpt>
      <trkpt lat="47.56574" lon="6.85771">
        <ele>403.5</ele>
        <time>2010-05-29T13:35:46Z</time>
      </trkpt>
      <trkpt lat="47.56569" lon="6.85767">
        <ele>403</ele>
        <time>2010-05-29T13:35:47Z</time>
      </trkpt>
      <trkpt lat="47.56564" lon="6.85762">
        <ele>402.5</ele>
        <time>2010-05-29T13:35:48Z</time>
      </trkpt>
      <trkpt lat="47.56559" lon="6.85758">
        <ele>402.5</ele>
        <time>2010-05-29T13:35:49Z</time>
      </trkpt>
      <trkpt lat="47.56554" lon="6.85753">
        <ele>401.5</ele>
        <time>2010-05-29T13:35:50Z</time>
      </trkpt>
      <trkpt lat="47.56548" lon="6.85749">
        <ele>401</ele>
        <time>2010-05-29T13:35:51Z</time>
      </trkpt>
      <trkpt lat="47.56543" lon="6.85745">
        <ele>400</ele>
        <time>2010-05-29T13:35:52Z</time>
      </trkpt>
      <trkpt lat="47.56537" lon="6.85741">
        <ele>399.5</ele>
        <time>2010-05-29T13:35:53Z</time>
      </trkpt>
      <trkpt lat="47.56531" lon="6.85737">
        <ele>398.5</ele>
        <time>2010-05-29T13:35:54Z</time>
      </trkpt>
      <trkpt lat="47.56525" lon="6.85733">
        <ele>397.5</ele>
        <time>2010-05-29T13:35:55Z</time>
      </trkpt>
      <trkpt lat="47.56519" lon="6.8573">
        <ele>397.5</ele>
        <time>2010-05-29T13:35:56Z</time>
      </trkpt>
      <trkpt lat="47.56513" lon="6.85727">
        <ele>397</ele>
        <time>2010-05-29T13:35:57Z</time>
      </trkpt>
      <trkpt lat="47.56507" lon="6.85723">
        <ele>397</ele>
        <time>2010-05-29T13:35:58Z</time>
      </trkpt>
      <trkpt lat="47.56501" lon="6.8572">
        <ele>396.5</ele>
        <time>2010-05-29T13:35:59Z</time>
      </trkpt>
      <trkpt lat="47.56494" lon="6.85717">
        <ele>396</ele>
        <time>2010-05-29T13:36:00Z</time>
      </trkpt>
      <trkpt lat="47.56488" lon="6.85713">
        <ele>395.5</ele>
        <time>2010-05-29T13:36:01Z</time>
      </trkpt>
      <trkpt lat="47.56481" lon="6.85709">
        <ele>395.5</ele>
        <time>2010-05-29T13:36:02Z</time>
      </trkpt>
      <trkpt lat="47.56475" lon="6.85705">
        <ele>394.5</ele>
        <time>2010-05-29T13:36:03Z</time>
      </trkpt>
      <trkpt lat="47.56469" lon="6.85701">
        <ele>394.5</ele>
        <time>2010-05-29T13:36:04Z</time>
      </trkpt>
      <trkpt lat="47.56464" lon="6.85696">
        <ele>394</ele>
        <time>2010-05-29T13:36:05Z</time>
      </trkpt>
      <trkpt lat="47.56459" lon="6.85691">
        <ele>394</ele>
        <time>2010-05-29T13:36:06Z</time>
      </trkpt>
      <trkpt lat="47.56456" lon="6.85685">
        <ele>394</ele>
        <time>2010-05-29T13:36:07Z</time>
      </trkpt>
      <trkpt lat="47.56454" lon="6.85673">
        <ele>393.5</ele>
        <time>2010-05-29T13:36:09Z</time>
      </trkpt>
      <trkpt lat="47.56455" lon="6.85665">
        <ele>393.5</ele>
        <time>2010-05-29T13:36:09Z</time>
      </trkpt>
      <trkpt lat="47.5645" lon="6.85661">
        <ele>393</ele>
        <time>2010-05-29T13:36:12Z</time>
      </trkpt>
      <trkpt lat="47.56446" lon="6.85662">
        <ele>393</ele>
        <time>2010-05-29T13:36:14Z</time>
      </trkpt>
      <trkpt lat="47.56437" lon="6.85662">
        <ele>393.5</ele>
        <time>2010-05-29T13:36:16Z</time>
      </trkpt>
      <trkpt lat="47.5643" lon="6.85658">
        <ele>393</ele>
        <time>2010-05-29T13:36:18Z</time>
      </trkpt>
      <trkpt lat="47.56426" lon="6.85654">
        <ele>393.5</ele>
        <time>2010-05-29T13:36:19Z</time>
      </trkpt>
      <trkpt lat="47.56422" lon="6.8565">
        <ele>394</ele>
        <time>2010-05-29T13:36:20Z</time>
      </trkpt>
      <trkpt lat="47.56417" lon="6.85647">
        <ele>394</ele>
        <time>2010-05-29T13:36:21Z</time>
      </trkpt>
      <trkpt lat="47.56413" lon="6.85642">
        <ele>394</ele>
        <time>2010-05-29T13:36:22Z</time>
      </trkpt>
      <trkpt lat="47.56409" lon="6.85638">
        <ele>394.5</ele>
        <time>2010-05-29T13:36:23Z</time>
      </trkpt>
      <trkpt lat="47.56406" lon="6.85632">
        <ele>394</ele>
        <time>2010-05-29T13:36:24Z</time>
      </trkpt>
      <trkpt lat="47.56403" lon="6.85627">
        <ele>394.5</ele>
        <time>2010-05-29T13:36:25Z</time>
      </trkpt>
      <trkpt lat="47.56396" lon="6.85617">
        <ele>395</ele>
        <time>2010-05-29T13:36:27Z</time>
      </trkpt>
      <trkpt lat="47.56393" lon="6.85612">
        <ele>395</ele>
        <time>2010-05-29T13:36:28Z</time>
      </trkpt>
      <trkpt lat="47.5639" lon="6.85606">
        <ele>395</ele>
        <time>2010-05-29T13:36:29Z</time>
      </trkpt>
      <trkpt lat="47.56387" lon="6.85601">
        <ele>395</ele>
        <time>2010-05-29T13:36:30Z</time>
      </trkpt>
      <trkpt lat="47.56383" lon="6.85596">
        <ele>394.5</ele>
        <time>2010-05-29T13:36:31Z</time>
      </trkpt>
      <trkpt lat="47.5638" lon="6.8559">
        <ele>394.5</ele>
        <time>2010-05-29T13:36:32Z</time>
      </trkpt>
      <trkpt lat="47.56376" lon="6.85585">
        <ele>394.5</ele>
        <time>2010-05-29T13:36:33Z</time>
      </trkpt>
      <trkpt lat="47.56373" lon="6.85579">
        <ele>394</ele>
        <time>2010-05-29T13:36:34Z</time>
      </trkpt>
      <trkpt lat="47.5637" lon="6.85574">
        <ele>394</ele>
        <time>2010-05-29T13:36:35Z</time>
      </trkpt>
      <trkpt lat="47.56366" lon="6.85569">
        <ele>394.5</ele>
        <time>2010-05-29T13:36:36Z</time>
      </trkpt>
      <trkpt lat="47.56363" lon="6.85564">
        <ele>394.5</ele>
        <time>2010-05-29T13:36:37Z</time>
      </trkpt>
      <trkpt lat="47.56359" lon="6.85558">
        <ele>394.5</ele>
        <time>2010-05-29T13:36:38Z</time>
      </trkpt>
      <trkpt lat="47.56356" lon="6.85553">
        <ele>394.5</ele>
        <time>2010-05-29T13:36:39Z</time>
      </trkpt>
      <trkpt lat="47.56352" lon="6.85548">
        <ele>394.5</ele>
        <time>2010-05-29T13:36:40Z</time>
      </trkpt>
      <trkpt lat="47.56348" lon="6.85542">
        <ele>395</ele>
        <time>2010-05-29T13:36:41Z</time>
      </trkpt>
      <trkpt lat="47.56345" lon="6.85537">
        <ele>395</ele>
        <time>2010-05-29T13:36:42Z</time>
      </trkpt>
      <trkpt lat="47.56341" lon="6.85531">
        <ele>395</ele>
        <time>2010-05-29T13:36:43Z</time>
      </trkpt>
      <trkpt lat="47.56337" lon="6.85526">
        <ele>394.5</ele>
        <time>2010-05-29T13:36:44Z</time>
      </trkpt>
      <trkpt lat="47.56334" lon="6.8552">
        <ele>394.5</ele>
        <time>2010-05-29T13:36:45Z</time>
      </trkpt>
      <trkpt lat="47.5633" lon="6.85514">
        <ele>394.5</ele>
        <time>2010-05-29T13:36:46Z</time>
      </trkpt>
      <trkpt lat="47.56326" lon="6.85508">
        <ele>394</ele>
        <time>2010-05-29T13:36:47Z</time>
      </trkpt>
      <trkpt lat="47.56323" lon="6.85502">
        <ele>393.5</ele>
        <time>2010-05-29T13:36:48Z</time>
      </trkpt>
      <trkpt lat="47.56319" lon="6.85497">
        <ele>393.5</ele>
        <time>2010-05-29T13:36:49Z</time>
      </trkpt>
      <trkpt lat="47.56316" lon="6.85491">
        <ele>393.5</ele>
        <time>2010-05-29T13:36:50Z</time>
      </trkpt>
      <trkpt lat="47.56312" lon="6.85486">
        <ele>393</ele>
        <time>2010-05-29T13:36:51Z</time>
      </trkpt>
      <trkpt lat="47.5631" lon="6.85479">
        <ele>393</ele>
        <time>2010-05-29T13:36:52Z</time>
      </trkpt>
      <trkpt lat="47.56309" lon="6.85472">
        <ele>393</ele>
        <time>2010-05-29T13:36:53Z</time>
      </trkpt>
      <trkpt lat="47.5631" lon="6.85465">
        <ele>392.5</ele>
        <time>2010-05-29T13:36:54Z</time>
      </trkpt>
      <trkpt lat="47.56313" lon="6.85459">
        <ele>392</ele>
        <time>2010-05-29T13:36:55Z</time>
      </trkpt>
      <trkpt lat="47.56316" lon="6.85454">
        <ele>392</ele>
        <time>2010-05-29T13:36:56Z</time>
      </trkpt>
      <trkpt lat="47.56319" lon="6.85449">
        <ele>392</ele>
        <time>2010-05-29T13:36:57Z</time>
      </trkpt>
      <trkpt lat="47.56326" lon="6.8544">
        <ele>392</ele>
        <time>2010-05-29T13:36:59Z</time>
      </trkpt>
      <trkpt lat="47.56332" lon="6.85432">
        <ele>392</ele>
        <time>2010-05-29T13:37:01Z</time>
      </trkpt>
      <trkpt lat="47.56337" lon="6.85424">
        <ele>392.5</ele>
        <time>2010-05-29T13:37:03Z</time>
      </trkpt>
      <trkpt lat="47.56342" lon="6.85417">
        <ele>393</ele>
        <time>2010-05-29T13:37:05Z</time>
      </trkpt>
      <trkpt lat="47.56347" lon="6.85411">
        <ele>393.5</ele>
        <time>2010-05-29T13:37:07Z</time>
      </trkpt>
      <trkpt lat="47.56351" lon="6.85404">
        <ele>394.5</ele>
        <time>2010-05-29T13:37:09Z</time>
      </trkpt>
      <trkpt lat="47.56355" lon="6.85394">
        <ele>395.5</ele>
        <time>2010-05-29T13:37:12Z</time>
      </trkpt>
      <trkpt lat="47.56358" lon="6.85388">
        <ele>395.5</ele>
        <time>2010-05-29T13:37:15Z</time>
      </trkpt>
      <trkpt lat="47.56362" lon="6.85382">
        <ele>397</ele>
        <time>2010-05-29T13:37:18Z</time>
      </trkpt>
      <trkpt lat="47.56366" lon="6.85377">
        <ele>399.5</ele>
        <time>2010-05-29T13:37:21Z</time>
      </trkpt>
      <trkpt lat="47.56371" lon="6.8537">
        <ele>401.5</ele>
        <time>2010-05-29T13:37:24Z</time>
      </trkpt>
      <trkpt lat="47.56374" lon="6.85365">
        <ele>402.5</ele>
        <time>2010-05-29T13:37:26Z</time>
      </trkpt>
      <trkpt lat="47.56379" lon="6.85362">
        <ele>404</ele>
        <time>2010-05-29T13:37:28Z</time>
      </trkpt>
      <trkpt lat="47.56384" lon="6.85359">
        <ele>406.5</ele>
        <time>2010-05-29T13:37:30Z</time>
      </trkpt>
      <trkpt lat="47.56389" lon="6.85355">
        <ele>408</ele>
        <time>2010-05-29T13:37:32Z</time>
      </trkpt>
      <trkpt lat="47.56394" lon="6.85351">
        <ele>409.5</ele>
        <time>2010-05-29T13:37:34Z</time>
      </trkpt>
      <trkpt lat="47.56401" lon="6.85347">
        <ele>409</ele>
        <time>2010-05-29T13:37:36Z</time>
      </trkpt>
      <trkpt lat="47.56406" lon="6.85342">
        <ele>409</ele>
        <time>2010-05-29T13:37:38Z</time>
      </trkpt>
      <trkpt lat="47.56411" lon="6.85338">
        <ele>411</ele>
        <time>2010-05-29T13:37:41Z</time>
      </trkpt>
      <trkpt lat="47.56414" lon="6.85334">
        <ele>413</ele>
        <time>2010-05-29T13:37:44Z</time>
      </trkpt>
      <trkpt lat="47.56419" lon="6.8533">
        <ele>415</ele>
        <time>2010-05-29T13:37:47Z</time>
      </trkpt>
      <trkpt lat="47.56423" lon="6.85328">
        <ele>417.5</ele>
        <time>2010-05-29T13:37:50Z</time>
      </trkpt>
      <trkpt lat="47.56428" lon="6.85325">
        <ele>420.5</ele>
        <time>2010-05-29T13:37:53Z</time>
      </trkpt>
      <trkpt lat="47.56432" lon="6.85321">
        <ele>423</ele>
        <time>2010-05-29T13:37:56Z</time>
      </trkpt>
      <trkpt lat="47.56437" lon="6.85315">
        <ele>424</ele>
        <time>2010-05-29T13:37:59Z</time>
      </trkpt>
      <trkpt lat="47.56441" lon="6.85311">
        <ele>425.5</ele>
        <time>2010-05-29T13:38:02Z</time>
      </trkpt>
      <trkpt lat="47.56446" lon="6.85307">
        <ele>429</ele>
        <time>2010-05-29T13:38:06Z</time>
      </trkpt>
      <trkpt lat="47.5645" lon="6.85303">
        <ele>431.5</ele>
        <time>2010-05-29T13:38:09Z</time>
      </trkpt>
      <trkpt lat="47.56455" lon="6.85298">
        <ele>432</ele>
        <time>2010-05-29T13:38:12Z</time>
      </trkpt>
      <trkpt lat="47.5646" lon="6.85293">
        <ele>432</ele>
        <time>2010-05-29T13:38:15Z</time>
      </trkpt>
      <trkpt lat="47.56464" lon="6.8529">
        <ele>432</ele>
        <time>2010-05-29T13:38:17Z</time>
      </trkpt>
      <trkpt lat="47.56468" lon="6.85286">
        <ele>432.5</ele>
        <time>2010-05-29T13:38:20Z</time>
      </trkpt>
      <trkpt lat="47.56473" lon="6.8528">
        <ele>432.5</ele>
        <time>2010-05-29T13:38:23Z</time>
      </trkpt>
      <trkpt lat="47.56478" lon="6.85276">
        <ele>434</ele>
        <time>2010-05-29T13:38:26Z</time>
      </trkpt>
      <trkpt lat="47.56484" lon="6.85273">
        <ele>435.5</ele>
        <time>2010-05-29T13:38:29Z</time>
      </trkpt>
      <trkpt lat="47.56489" lon="6.85267">
        <ele>436</ele>
        <time>2010-05-29T13:38:32Z</time>
      </trkpt>
      <trkpt lat="47.56493" lon="6.85263">
        <ele>436</ele>
        <time>2010-05-29T13:38:34Z</time>
      </trkpt>
      <trkpt lat="47.56496" lon="6.85257">
        <ele>436</ele>
        <time>2010-05-29T13:38:36Z</time>
      </trkpt>
      <trkpt lat="47.565" lon="6.85251">
        <ele>436</ele>
        <time>2010-05-29T13:38:38Z</time>
      </trkpt>
      <trkpt lat="47.56503" lon="6.85243">
        <ele>437.5</ele>
        <time>2010-05-29T13:38:40Z</time>
      </trkpt>
      <trkpt lat="47.56506" lon="6.85234">
        <ele>437</ele>
        <time>2010-05-29T13:38:42Z</time>
      </trkpt>
      <trkpt lat="47.56508" lon="6.85223">
        <ele>435.5</ele>
        <time>2010-05-29T13:38:44Z</time>
      </trkpt>
      <trkpt lat="47.5651" lon="6.85213">
        <ele>435.5</ele>
        <time>2010-05-29T13:38:46Z</time>
      </trkpt>
      <trkpt lat="47.56512" lon="6.85203">
        <ele>435</ele>
        <time>2010-05-29T13:38:48Z</time>
      </trkpt>
      <trkpt lat="47.56513" lon="6.85192">
        <ele>434.5</ele>
        <time>2010-05-29T13:38:50Z</time>
      </trkpt>
      <trkpt lat="47.56512" lon="6.85181">
        <ele>433</ele>
        <time>2010-05-29T13:38:52Z</time>
      </trkpt>
      <trkpt lat="47.56507" lon="6.85174">
        <ele>431.5</ele>
        <time>2010-05-29T13:38:54Z</time>
      </trkpt>
      <trkpt lat="47.565" lon="6.85172">
        <ele>429.5</ele>
        <time>2010-05-29T13:38:56Z</time>
      </trkpt>
      <trkpt lat="47.56494" lon="6.85172">
        <ele>429.5</ele>
        <time>2010-05-29T13:38:58Z</time>
      </trkpt>
      <trkpt lat="47.56488" lon="6.8517">
        <ele>429.5</ele>
        <time>2010-05-29T13:39:00Z</time>
      </trkpt>
      <trkpt lat="47.56481" lon="6.85165">
        <ele>427.5</ele>
        <time>2010-05-29T13:39:02Z</time>
      </trkpt>
      <trkpt lat="47.56476" lon="6.85161">
        <ele>427.5</ele>
        <time>2010-05-29T13:39:04Z</time>
      </trkpt>
      <trkpt lat="47.56469" lon="6.85158">
        <ele>427</ele>
        <time>2010-05-29T13:39:06Z</time>
      </trkpt>
      <trkpt lat="47.56462" lon="6.85154">
        <ele>426.5</ele>
        <time>2010-05-29T13:39:08Z</time>
      </trkpt>
      <trkpt lat="47.56454" lon="6.85149">
        <ele>426.5</ele>
        <time>2010-05-29T13:39:09Z</time>
      </trkpt>
      <trkpt lat="47.5645" lon="6.85145">
        <ele>422.5</ele>
        <time>2010-05-29T13:39:11Z</time>
      </trkpt>
      <trkpt lat="47.56442" lon="6.85139">
        <ele>420</ele>
        <time>2010-05-29T13:39:14Z</time>
      </trkpt>
      <trkpt lat="47.56436" lon="6.85133">
        <ele>415.5</ele>
        <time>2010-05-29T13:39:16Z</time>
      </trkpt>
      <trkpt lat="47.56429" lon="6.85129">
        <ele>413.5</ele>
        <time>2010-05-29T13:39:18Z</time>
      </trkpt>
      <trkpt lat="47.56422" lon="6.85125">
        <ele>413.5</ele>
        <time>2010-05-29T13:39:20Z</time>
      </trkpt>
      <trkpt lat="47.56414" lon="6.85121">
        <ele>413</ele>
        <time>2010-05-29T13:39:22Z</time>
      </trkpt>
      <trkpt lat="47.56406" lon="6.85118">
        <ele>413</ele>
        <time>2010-05-29T13:39:24Z</time>
      </trkpt>
      <trkpt lat="47.56401" lon="6.85117">
        <ele>412</ele>
        <time>2010-05-29T13:39:25Z</time>
      </trkpt>
      <trkpt lat="47.56393" lon="6.85113">
        <ele>412</ele>
        <time>2010-05-29T13:39:27Z</time>
      </trkpt>
      <trkpt lat="47.56388" lon="6.85111">
        <ele>412</ele>
        <time>2010-05-29T13:39:28Z</time>
      </trkpt>
      <trkpt lat="47.56383" lon="6.85109">
        <ele>411.5</ele>
        <time>2010-05-29T13:39:29Z</time>
      </trkpt>
      <trkpt lat="47.56378" lon="6.85107">
        <ele>411.5</ele>
        <time>2010-05-29T13:39:30Z</time>
      </trkpt>
      <trkpt lat="47.56372" lon="6.85105">
        <ele>411.5</ele>
        <time>2010-05-29T13:39:31Z</time>
      </trkpt>
      <trkpt lat="47.56366" lon="6.85103">
        <ele>411</ele>
        <time>2010-05-29T13:39:32Z</time>
      </trkpt>
      <trkpt lat="47.5636" lon="6.85101">
        <ele>410</ele>
        <time>2010-05-29T13:39:33Z</time>
      </trkpt>
      <trkpt lat="47.56354" lon="6.851">
        <ele>409.5</ele>
        <time>2010-05-29T13:39:34Z</time>
      </trkpt>
      <trkpt lat="47.56347" lon="6.85098">
        <ele>409.5</ele>
        <time>2010-05-29T13:39:35Z</time>
      </trkpt>
      <trkpt lat="47.56341" lon="6.85096">
        <ele>409.5</ele>
        <time>2010-05-29T13:39:36Z</time>
      </trkpt>
      <trkpt lat="47.56334" lon="6.85095">
        <ele>409.5</ele>
        <time>2010-05-29T13:39:37Z</time>
      </trkpt>
      <trkpt lat="47.56327" lon="6.85093">
        <ele>409.5</ele>
        <time>2010-05-29T13:39:38Z</time>
      </trkpt>
      <trkpt lat="47.56321" lon="6.85092">
        <ele>409.5</ele>
        <time>2010-05-29T13:39:39Z</time>
      </trkpt>
      <trkpt lat="47.56314" lon="6.8509">
        <ele>408.5</ele>
        <time>2010-05-29T13:39:40Z</time>
      </trkpt>
      <trkpt lat="47.56307" lon="6.85089">
        <ele>408</ele>
        <time>2010-05-29T13:39:41Z</time>
      </trkpt>
      <trkpt lat="47.563" lon="6.85087">
        <ele>408</ele>
        <time>2010-05-29T13:39:42Z</time>
      </trkpt>
      <trkpt lat="47.56292" lon="6.85086">
        <ele>408</ele>
        <time>2010-05-29T13:39:43Z</time>
      </trkpt>
      <trkpt lat="47.56285" lon="6.85085">
        <ele>407.5</ele>
        <time>2010-05-29T13:39:44Z</time>
      </trkpt>
      <trkpt lat="47.56278" lon="6.85085">
        <ele>408</ele>
        <time>2010-05-29T13:39:45Z</time>
      </trkpt>
      <trkpt lat="47.56271" lon="6.85085">
        <ele>408</ele>
        <time>2010-05-29T13:39:46Z</time>
      </trkpt>
      <trkpt lat="47.56264" lon="6.85085">
        <ele>408</ele>
        <time>2010-05-29T13:39:47Z</time>
      </trkpt>
      <trkpt lat="47.56257" lon="6.85085">
        <ele>407.5</ele>
        <time>2010-05-29T13:39:48Z</time>
      </trkpt>
      <trkpt lat="47.56251" lon="6.85085">
        <ele>407.5</ele>
        <time>2010-05-29T13:39:49Z</time>
      </trkpt>
      <trkpt lat="47.56244" lon="6.85085">
        <ele>407</ele>
        <time>2010-05-29T13:39:50Z</time>
      </trkpt>
      <trkpt lat="47.56237" lon="6.85084">
        <ele>407</ele>
        <time>2010-05-29T13:39:51Z</time>
      </trkpt>
      <trkpt lat="47.5623" lon="6.85083">
        <ele>407</ele>
        <time>2010-05-29T13:39:52Z</time>
      </trkpt>
      <trkpt lat="47.56222" lon="6.8508">
        <ele>407.5</ele>
        <time>2010-05-29T13:39:53Z</time>
      </trkpt>
      <trkpt lat="47.56215" lon="6.85076">
        <ele>407.5</ele>
        <time>2010-05-29T13:39:54Z</time>
      </trkpt>
      <trkpt lat="47.56209" lon="6.85072">
        <ele>407.5</ele>
        <time>2010-05-29T13:39:55Z</time>
      </trkpt>
      <trkpt lat="47.56202" lon="6.85067">
        <ele>407</ele>
        <time>2010-05-29T13:39:56Z</time>
      </trkpt>
      <trkpt lat="47.56196" lon="6.85063">
        <ele>407</ele>
        <time>2010-05-29T13:39:57Z</time>
      </trkpt>
      <trkpt lat="47.5619" lon="6.85058">
        <ele>407.5</ele>
        <time>2010-05-29T13:39:58Z</time>
      </trkpt>
      <trkpt lat="47.56185" lon="6.85053">
        <ele>407.5</ele>
        <time>2010-05-29T13:39:59Z</time>
      </trkpt>
      <trkpt lat="47.56179" lon="6.85049">
        <ele>407.5</ele>
        <time>2010-05-29T13:40:00Z</time>
      </trkpt>
      <trkpt lat="47.56174" lon="6.85044">
        <ele>407.5</ele>
        <time>2010-05-29T13:40:01Z</time>
      </trkpt>
      <trkpt lat="47.56169" lon="6.8504">
        <ele>407.5</ele>
        <time>2010-05-29T13:40:02Z</time>
      </trkpt>
      <trkpt lat="47.56165" lon="6.85035">
        <ele>407.5</ele>
        <time>2010-05-29T13:40:03Z</time>
      </trkpt>
      <trkpt lat="47.5616" lon="6.8503">
        <ele>407.5</ele>
        <time>2010-05-29T13:40:04Z</time>
      </trkpt>
      <trkpt lat="47.56155" lon="6.85025">
        <ele>406.5</ele>
        <time>2010-05-29T13:40:05Z</time>
      </trkpt>
      <trkpt lat="47.56151" lon="6.85021">
        <ele>406.5</ele>
        <time>2010-05-29T13:40:06Z</time>
      </trkpt>
      <trkpt lat="47.56145" lon="6.85018">
        <ele>406</ele>
        <time>2010-05-29T13:40:07Z</time>
      </trkpt>
      <trkpt lat="47.5614" lon="6.85015">
        <ele>405.5</ele>
        <time>2010-05-29T13:40:08Z</time>
      </trkpt>
      <trkpt lat="47.56134" lon="6.85012">
        <ele>405.5</ele>
        <time>2010-05-29T13:40:09Z</time>
      </trkpt>
      <trkpt lat="47.56125" lon="6.85006">
        <ele>405.5</ele>
        <time>2010-05-29T13:40:09Z</time>
      </trkpt>
      <trkpt lat="47.5612" lon="6.85001">
        <ele>405.5</ele>
        <time>2010-05-29T13:40:11Z</time>
      </trkpt>
      <trkpt lat="47.56116" lon="6.84992">
        <ele>405.5</ele>
        <time>2010-05-29T13:40:12Z</time>
      </trkpt>
      <trkpt lat="47.56109" lon="6.84979">
        <ele>405</ele>
        <time>2010-05-29T13:40:14Z</time>
      </trkpt>
      <trkpt lat="47.56104" lon="6.84971">
        <ele>405</ele>
        <time>2010-05-29T13:40:15Z</time>
      </trkpt>
      <trkpt lat="47.561" lon="6.84962">
        <ele>405</ele>
        <time>2010-05-29T13:40:16Z</time>
      </trkpt>
      <trkpt lat="47.56096" lon="6.84954">
        <ele>405</ele>
        <time>2010-05-29T13:40:17Z</time>
      </trkpt>
      <trkpt lat="47.5609" lon="6.84946">
        <ele>404.5</ele>
        <time>2010-05-29T13:40:18Z</time>
      </trkpt>
      <trkpt lat="47.56086" lon="6.84938">
        <ele>405</ele>
        <time>2010-05-29T13:40:19Z</time>
      </trkpt>
      <trkpt lat="47.5608" lon="6.84932">
        <ele>404.5</ele>
        <time>2010-05-29T13:40:20Z</time>
      </trkpt>
      <trkpt lat="47.56076" lon="6.84926">
        <ele>404.5</ele>
        <time>2010-05-29T13:40:21Z</time>
      </trkpt>
      <trkpt lat="47.5607" lon="6.8492">
        <ele>404</ele>
        <time>2010-05-29T13:40:22Z</time>
      </trkpt>
      <trkpt lat="47.56066" lon="6.84913">
        <ele>404</ele>
        <time>2010-05-29T13:40:23Z</time>
      </trkpt>
      <trkpt lat="47.56061" lon="6.84907">
        <ele>404.5</ele>
        <time>2010-05-29T13:40:24Z</time>
      </trkpt>
      <trkpt lat="47.56056" lon="6.849">
        <ele>404</ele>
        <time>2010-05-29T13:40:25Z</time>
      </trkpt>
      <trkpt lat="47.56052" lon="6.84894">
        <ele>403.5</ele>
        <time>2010-05-29T13:40:26Z</time>
      </trkpt>
      <trkpt lat="47.56047" lon="6.84888">
        <ele>404</ele>
        <time>2010-05-29T13:40:27Z</time>
      </trkpt>
      <trkpt lat="47.56042" lon="6.84882">
        <ele>404</ele>
        <time>2010-05-29T13:40:28Z</time>
      </trkpt>
      <trkpt lat="47.56037" lon="6.84876">
        <ele>404.5</ele>
        <time>2010-05-29T13:40:29Z</time>
      </trkpt>
      <trkpt lat="47.56033" lon="6.8487">
        <ele>404</ele>
        <time>2010-05-29T13:40:30Z</time>
      </trkpt>
      <trkpt lat="47.56028" lon="6.84863">
        <ele>404</ele>
        <time>2010-05-29T13:40:31Z</time>
      </trkpt>
      <trkpt lat="47.56024" lon="6.84857">
        <ele>404</ele>
        <time>2010-05-29T13:40:32Z</time>
      </trkpt>
      <trkpt lat="47.56019" lon="6.8485">
        <ele>404</ele>
        <time>2010-05-29T13:40:33Z</time>
      </trkpt>
      <trkpt lat="47.56014" lon="6.84844">
        <ele>404</ele>
        <time>2010-05-29T13:40:34Z</time>
      </trkpt>
      <trkpt lat="47.56009" lon="6.84837">
        <ele>403.5</ele>
        <time>2010-05-29T13:40:35Z</time>
      </trkpt>
      <trkpt lat="47.56004" lon="6.8483">
        <ele>403</ele>
        <time>2010-05-29T13:40:36Z</time>
      </trkpt>
      <trkpt lat="47.55999" lon="6.84823">
        <ele>403</ele>
        <time>2010-05-29T13:40:37Z</time>
      </trkpt>
      <trkpt lat="47.55994" lon="6.84816">
        <ele>403</ele>
        <time>2010-05-29T13:40:38Z</time>
      </trkpt>
      <trkpt lat="47.55988" lon="6.84809">
        <ele>402.5</ele>
        <time>2010-05-29T13:40:39Z</time>
      </trkpt>
      <trkpt lat="47.55983" lon="6.84802">
        <ele>402</ele>
        <time>2010-05-29T13:40:40Z</time>
      </trkpt>
      <trkpt lat="47.55977" lon="6.84796">
        <ele>401.5</ele>
        <time>2010-05-29T13:40:41Z</time>
      </trkpt>
      <trkpt lat="47.5597" lon="6.84791">
        <ele>401</ele>
        <time>2010-05-29T13:40:42Z</time>
      </trkpt>
      <trkpt lat="47.55963" lon="6.84788">
        <ele>401</ele>
        <time>2010-05-29T13:40:43Z</time>
      </trkpt>
      <trkpt lat="47.55955" lon="6.84786">
        <ele>400.5</ele>
        <time>2010-05-29T13:40:44Z</time>
      </trkpt>
      <trkpt lat="47.55948" lon="6.84786">
        <ele>400.5</ele>
        <time>2010-05-29T13:40:45Z</time>
      </trkpt>
      <trkpt lat="47.5594" lon="6.84785">
        <ele>400</ele>
        <time>2010-05-29T13:40:46Z</time>
      </trkpt>
      <trkpt lat="47.55932" lon="6.84784">
        <ele>400</ele>
        <time>2010-05-29T13:40:47Z</time>
      </trkpt>
      <trkpt lat="47.55925" lon="6.84783">
        <ele>399.5</ele>
        <time>2010-05-29T13:40:48Z</time>
      </trkpt>
      <trkpt lat="47.55918" lon="6.84782">
        <ele>400</ele>
        <time>2010-05-29T13:40:49Z</time>
      </trkpt>
      <trkpt lat="47.55911" lon="6.8478">
        <ele>400</ele>
        <time>2010-05-29T13:40:50Z</time>
      </trkpt>
      <trkpt lat="47.55905" lon="6.84779">
        <ele>399.5</ele>
        <time>2010-05-29T13:40:51Z</time>
      </trkpt>
      <trkpt lat="47.559" lon="6.84778">
        <ele>399.5</ele>
        <time>2010-05-29T13:40:52Z</time>
      </trkpt>
      <trkpt lat="47.55895" lon="6.84777">
        <ele>400</ele>
        <time>2010-05-29T13:40:53Z</time>
      </trkpt>
      <trkpt lat="47.55887" lon="6.84776">
        <ele>400</ele>
        <time>2010-05-29T13:40:55Z</time>
      </trkpt>
      <trkpt lat="47.5588" lon="6.84774">
        <ele>399.5</ele>
        <time>2010-05-29T13:40:57Z</time>
      </trkpt>
      <trkpt lat="47.55874" lon="6.84768">
        <ele>400</ele>
        <time>2010-05-29T13:40:59Z</time>
      </trkpt>
      <trkpt lat="47.55869" lon="6.84762">
        <ele>400</ele>
        <time>2010-05-29T13:41:01Z</time>
      </trkpt>
      <trkpt lat="47.55865" lon="6.84756">
        <ele>400</ele>
        <time>2010-05-29T13:41:03Z</time>
      </trkpt>
      <trkpt lat="47.5586" lon="6.8475">
        <ele>400.5</ele>
        <time>2010-05-29T13:41:05Z</time>
      </trkpt>
      <trkpt lat="47.55855" lon="6.84743">
        <ele>400.5</ele>
        <time>2010-05-29T13:41:07Z</time>
      </trkpt>
      <trkpt lat="47.5585" lon="6.84736">
        <ele>400.5</ele>
        <time>2010-05-29T13:41:09Z</time>
      </trkpt>
      <trkpt lat="47.55847" lon="6.84731">
        <ele>400.5</ele>
        <time>2010-05-29T13:41:09Z</time>
      </trkpt>
      <trkpt lat="47.55843" lon="6.84722">
        <ele>400.5</ele>
        <time>2010-05-29T13:41:12Z</time>
      </trkpt>
      <trkpt lat="47.5584" lon="6.84717">
        <ele>400.5</ele>
        <time>2010-05-29T13:41:14Z</time>
      </trkpt>
      <trkpt lat="47.55837" lon="6.8471">
        <ele>400.5</ele>
        <time>2010-05-29T13:41:16Z</time>
      </trkpt>
      <trkpt lat="47.55835" lon="6.84701">
        <ele>401</ele>
        <time>2010-05-29T13:41:18Z</time>
      </trkpt>
      <trkpt lat="47.55833" lon="6.84693">
        <ele>401</ele>
        <time>2010-05-29T13:41:20Z</time>
      </trkpt>
      <trkpt lat="47.55833" lon="6.84684">
        <ele>401.5</ele>
        <time>2010-05-29T13:41:22Z</time>
      </trkpt>
      <trkpt lat="47.55832" lon="6.84675">
        <ele>401</ele>
        <time>2010-05-29T13:41:24Z</time>
      </trkpt>
      <trkpt lat="47.55828" lon="6.84668">
        <ele>400.5</ele>
        <time>2010-05-29T13:41:26Z</time>
      </trkpt>
      <trkpt lat="47.55822" lon="6.84664">
        <ele>399.5</ele>
        <time>2010-05-29T13:41:28Z</time>
      </trkpt>
      <trkpt lat="47.55816" lon="6.84662">
        <ele>399.5</ele>
        <time>2010-05-29T13:41:30Z</time>
      </trkpt>
      <trkpt lat="47.5581" lon="6.84659">
        <ele>400</ele>
        <time>2010-05-29T13:41:32Z</time>
      </trkpt>
      <trkpt lat="47.55804" lon="6.84656">
        <ele>400.5</ele>
        <time>2010-05-29T13:41:34Z</time>
      </trkpt>
      <trkpt lat="47.55799" lon="6.84651">
        <ele>401</ele>
        <time>2010-05-29T13:41:36Z</time>
      </trkpt>
      <trkpt lat="47.55795" lon="6.84646">
        <ele>401</ele>
        <time>2010-05-29T13:41:38Z</time>
      </trkpt>
      <trkpt lat="47.55789" lon="6.84643">
        <ele>401</ele>
        <time>2010-05-29T13:41:40Z</time>
      </trkpt>
      <trkpt lat="47.55785" lon="6.84639">
        <ele>401</ele>
        <time>2010-05-29T13:41:42Z</time>
      </trkpt>
      <trkpt lat="47.55781" lon="6.84635">
        <ele>402</ele>
        <time>2010-05-29T13:41:44Z</time>
      </trkpt>
      <trkpt lat="47.55776" lon="6.8463">
        <ele>402.5</ele>
        <time>2010-05-29T13:41:46Z</time>
      </trkpt>
      <trkpt lat="47.55772" lon="6.84625">
        <ele>403.5</ele>
        <time>2010-05-29T13:41:48Z</time>
      </trkpt>
      <trkpt lat="47.55767" lon="6.8462">
        <ele>404</ele>
        <time>2010-05-29T13:41:50Z</time>
      </trkpt>
      <trkpt lat="47.55763" lon="6.84616">
        <ele>404.5</ele>
        <time>2010-05-29T13:41:52Z</time>
      </trkpt>
      <trkpt lat="47.55758" lon="6.84612">
        <ele>404.5</ele>
        <time>2010-05-29T13:41:54Z</time>
      </trkpt>
      <trkpt lat="47.55753" lon="6.84609">
        <ele>404.5</ele>
        <time>2010-05-29T13:41:56Z</time>
      </trkpt>
      <trkpt lat="47.55747" lon="6.84607">
        <ele>404.5</ele>
        <time>2010-05-29T13:41:58Z</time>
      </trkpt>
      <trkpt lat="47.55742" lon="6.84604">
        <ele>404</ele>
        <time>2010-05-29T13:42:00Z</time>
      </trkpt>
      <trkpt lat="47.55737" lon="6.84602">
        <ele>404</ele>
        <time>2010-05-29T13:42:02Z</time>
      </trkpt>
      <trkpt lat="47.55732" lon="6.84599">
        <ele>404</ele>
        <time>2010-05-29T13:42:04Z</time>
      </trkpt>
      <trkpt lat="47.55727" lon="6.84595">
        <ele>404.5</ele>
        <time>2010-05-29T13:42:06Z</time>
      </trkpt>
      <trkpt lat="47.55722" lon="6.8459">
        <ele>405</ele>
        <time>2010-05-29T13:42:08Z</time>
      </trkpt>
      <trkpt lat="47.55718" lon="6.84582">
        <ele>405.5</ele>
        <time>2010-05-29T13:42:10Z</time>
      </trkpt>
      <trkpt lat="47.55716" lon="6.84575">
        <ele>406</ele>
        <time>2010-05-29T13:42:12Z</time>
      </trkpt>
      <trkpt lat="47.55714" lon="6.84566">
        <ele>406</ele>
        <time>2010-05-29T13:42:15Z</time>
      </trkpt>
      <trkpt lat="47.55712" lon="6.84559">
        <ele>406.5</ele>
        <time>2010-05-29T13:42:17Z</time>
      </trkpt>
      <trkpt lat="47.5571" lon="6.84552">
        <ele>406</ele>
        <time>2010-05-29T13:42:19Z</time>
      </trkpt>
      <trkpt lat="47.55707" lon="6.84546">
        <ele>406.5</ele>
        <time>2010-05-29T13:42:21Z</time>
      </trkpt>
      <trkpt lat="47.55703" lon="6.84539">
        <ele>406.5</ele>
        <time>2010-05-29T13:42:23Z</time>
      </trkpt>
      <trkpt lat="47.557" lon="6.84533">
        <ele>407</ele>
        <time>2010-05-29T13:42:25Z</time>
      </trkpt>
      <trkpt lat="47.55697" lon="6.84527">
        <ele>407.5</ele>
        <time>2010-05-29T13:42:27Z</time>
      </trkpt>
      <trkpt lat="47.55693" lon="6.84522">
        <ele>407.5</ele>
        <time>2010-05-29T13:42:29Z</time>
      </trkpt>
      <trkpt lat="47.5569" lon="6.84516">
        <ele>408</ele>
        <time>2010-05-29T13:42:31Z</time>
      </trkpt>
      <trkpt lat="47.55686" lon="6.84511">
        <ele>408</ele>
        <time>2010-05-29T13:42:33Z</time>
      </trkpt>
      <trkpt lat="47.55682" lon="6.84506">
        <ele>408.5</ele>
        <time>2010-05-29T13:42:35Z</time>
      </trkpt>
      <trkpt lat="47.55678" lon="6.84501">
        <ele>408.5</ele>
        <time>2010-05-29T13:42:37Z</time>
      </trkpt>
      <trkpt lat="47.55674" lon="6.84496">
        <ele>409</ele>
        <time>2010-05-29T13:42:39Z</time>
      </trkpt>
      <trkpt lat="47.5567" lon="6.84491">
        <ele>408.5</ele>
        <time>2010-05-29T13:42:41Z</time>
      </trkpt>
      <trkpt lat="47.55666" lon="6.84486">
        <ele>408.5</ele>
        <time>2010-05-29T13:42:43Z</time>
      </trkpt>
      <trkpt lat="47.55662" lon="6.84481">
        <ele>408.5</ele>
        <time>2010-05-29T13:42:45Z</time>
      </trkpt>
      <trkpt lat="47.55656" lon="6.84477">
        <ele>407.5</ele>
        <time>2010-05-29T13:42:47Z</time>
      </trkpt>
      <trkpt lat="47.5565" lon="6.84473">
        <ele>408</ele>
        <time>2010-05-29T13:42:49Z</time>
      </trkpt>
      <trkpt lat="47.55645" lon="6.84469">
        <ele>408.5</ele>
        <time>2010-05-29T13:42:51Z</time>
      </trkpt>
      <trkpt lat="47.5564" lon="6.84465">
        <ele>409</ele>
        <time>2010-05-29T13:42:53Z</time>
      </trkpt>
      <trkpt lat="47.55634" lon="6.84461">
        <ele>409.5</ele>
        <time>2010-05-29T13:42:55Z</time>
      </trkpt>
      <trkpt lat="47.55629" lon="6.84457">
        <ele>409.5</ele>
        <time>2010-05-29T13:42:57Z</time>
      </trkpt>
      <trkpt lat="47.55624" lon="6.84453">
        <ele>410</ele>
        <time>2010-05-29T13:42:59Z</time>
      </trkpt>
      <trkpt lat="47.55618" lon="6.8445">
        <ele>410</ele>
        <time>2010-05-29T13:43:01Z</time>
      </trkpt>
      <trkpt lat="47.55613" lon="6.84446">
        <ele>410.5</ele>
        <time>2010-05-29T13:43:03Z</time>
      </trkpt>
      <trkpt lat="47.55607" lon="6.84442">
        <ele>410.5</ele>
        <time>2010-05-29T13:43:05Z</time>
      </trkpt>
      <trkpt lat="47.55602" lon="6.84438">
        <ele>411</ele>
        <time>2010-05-29T13:43:07Z</time>
      </trkpt>
      <trkpt lat="47.55596" lon="6.84434">
        <ele>411</ele>
        <time>2010-05-29T13:43:09Z</time>
      </trkpt>
      <trkpt lat="47.55592" lon="6.84432">
        <ele>411</ele>
        <time>2010-05-29T13:43:09Z</time>
      </trkpt>
      <trkpt lat="47.55587" lon="6.84428">
        <ele>411.5</ele>
        <time>2010-05-29T13:43:12Z</time>
      </trkpt>
      <trkpt lat="47.55582" lon="6.84425">
        <ele>412</ele>
        <time>2010-05-29T13:43:14Z</time>
      </trkpt>
      <trkpt lat="47.55577" lon="6.84421">
        <ele>412</ele>
        <time>2010-05-29T13:43:16Z</time>
      </trkpt>
      <trkpt lat="47.55571" lon="6.84416">
        <ele>412.5</ele>
        <time>2010-05-29T13:43:18Z</time>
      </trkpt>
      <trkpt lat="47.55566" lon="6.84412">
        <ele>412.5</ele>
        <time>2010-05-29T13:43:20Z</time>
      </trkpt>
      <trkpt lat="47.5556" lon="6.84407">
        <ele>413</ele>
        <time>2010-05-29T13:43:22Z</time>
      </trkpt>
      <trkpt lat="47.55555" lon="6.84402">
        <ele>414</ele>
        <time>2010-05-29T13:43:24Z</time>
      </trkpt>
      <trkpt lat="47.55549" lon="6.84397">
        <ele>414.5</ele>
        <time>2010-05-29T13:43:26Z</time>
      </trkpt>
      <trkpt lat="47.55544" lon="6.84392">
        <ele>415</ele>
        <time>2010-05-29T13:43:28Z</time>
      </trkpt>
      <trkpt lat="47.55539" lon="6.84386">
        <ele>415</ele>
        <time>2010-05-29T13:43:30Z</time>
      </trkpt>
      <trkpt lat="47.55533" lon="6.84379">
        <ele>415</ele>
        <time>2010-05-29T13:43:32Z</time>
      </trkpt>
      <trkpt lat="47.55527" lon="6.84372">
        <ele>416</ele>
        <time>2010-05-29T13:43:34Z</time>
      </trkpt>
      <trkpt lat="47.55521" lon="6.84365">
        <ele>416.5</ele>
        <time>2010-05-29T13:43:36Z</time>
      </trkpt>
      <trkpt lat="47.55515" lon="6.84358">
        <ele>416</ele>
        <time>2010-05-29T13:43:38Z</time>
      </trkpt>
      <trkpt lat="47.5551" lon="6.84351">
        <ele>416</ele>
        <time>2010-05-29T13:43:40Z</time>
      </trkpt>
      <trkpt lat="47.55504" lon="6.84345">
        <ele>416.5</ele>
        <time>2010-05-29T13:43:42Z</time>
      </trkpt>
      <trkpt lat="47.55498" lon="6.84338">
        <ele>416.5</ele>
        <time>2010-05-29T13:43:44Z</time>
      </trkpt>
      <trkpt lat="47.55493" lon="6.84331">
        <ele>417</ele>
        <time>2010-05-29T13:43:46Z</time>
      </trkpt>
      <trkpt lat="47.55487" lon="6.84324">
        <ele>417.5</ele>
        <time>2010-05-29T13:43:48Z</time>
      </trkpt>
      <trkpt lat="47.55481" lon="6.84317">
        <ele>417.5</ele>
        <time>2010-05-29T13:43:50Z</time>
      </trkpt>
      <trkpt lat="47.55475" lon="6.84311">
        <ele>418</ele>
        <time>2010-05-29T13:43:52Z</time>
      </trkpt>
      <trkpt lat="47.55468" lon="6.84304">
        <ele>418</ele>
        <time>2010-05-29T13:43:54Z</time>
      </trkpt>
      <trkpt lat="47.55462" lon="6.84297">
        <ele>418</ele>
        <time>2010-05-29T13:43:56Z</time>
      </trkpt>
      <trkpt lat="47.55456" lon="6.8429">
        <ele>418.5</ele>
        <time>2010-05-29T13:43:58Z</time>
      </trkpt>
      <trkpt lat="47.5545" lon="6.84283">
        <ele>418</ele>
        <time>2010-05-29T13:44:00Z</time>
      </trkpt>
      <trkpt lat="47.55443" lon="6.84278">
        <ele>418</ele>
        <time>2010-05-29T13:44:02Z</time>
      </trkpt>
      <trkpt lat="47.55436" lon="6.84276">
        <ele>417.5</ele>
        <time>2010-05-29T13:44:04Z</time>
      </trkpt>
      <trkpt lat="47.55429" lon="6.84278">
        <ele>417.5</ele>
        <time>2010-05-29T13:44:06Z</time>
      </trkpt>
      <trkpt lat="47.55423" lon="6.84286">
        <ele>416</ele>
        <time>2010-05-29T13:44:08Z</time>
      </trkpt>
      <trkpt lat="47.55417" lon="6.84298">
        <ele>416</ele>
        <time>2010-05-29T13:44:09Z</time>
      </trkpt>
      <trkpt lat="47.55413" lon="6.84309">
        <ele>415.5</ele>
        <time>2010-05-29T13:44:12Z</time>
      </trkpt>
      <trkpt lat="47.55407" lon="6.84317">
        <ele>415.5</ele>
        <time>2010-05-29T13:44:14Z</time>
      </trkpt>
      <trkpt lat="47.55405" lon="6.84323">
        <ele>415.5</ele>
        <time>2010-05-29T13:44:15Z</time>
      </trkpt>
      <trkpt lat="47.55402" lon="6.84329">
        <ele>415</ele>
        <time>2010-05-29T13:44:16Z</time>
      </trkpt>
      <trkpt lat="47.55399" lon="6.84336">
        <ele>415</ele>
        <time>2010-05-29T13:44:17Z</time>
      </trkpt>
      <trkpt lat="47.55396" lon="6.84343">
        <ele>414.5</ele>
        <time>2010-05-29T13:44:18Z</time>
      </trkpt>
      <trkpt lat="47.55393" lon="6.84351">
        <ele>414.5</ele>
        <time>2010-05-29T13:44:19Z</time>
      </trkpt>
      <trkpt lat="47.5539" lon="6.84359">
        <ele>414</ele>
        <time>2010-05-29T13:44:20Z</time>
      </trkpt>
      <trkpt lat="47.55387" lon="6.84367">
        <ele>414</ele>
        <time>2010-05-29T13:44:21Z</time>
      </trkpt>
      <trkpt lat="47.55384" lon="6.84375">
        <ele>413.5</ele>
        <time>2010-05-29T13:44:22Z</time>
      </trkpt>
      <trkpt lat="47.55381" lon="6.84384">
        <ele>413</ele>
        <time>2010-05-29T13:44:23Z</time>
      </trkpt>
      <trkpt lat="47.55377" lon="6.84393">
        <ele>412.5</ele>
        <time>2010-05-29T13:44:24Z</time>
      </trkpt>
      <trkpt lat="47.55373" lon="6.84403">
        <ele>412</ele>
        <time>2010-05-29T13:44:25Z</time>
      </trkpt>
      <trkpt lat="47.5537" lon="6.84413">
        <ele>412</ele>
        <time>2010-05-29T13:44:26Z</time>
      </trkpt>
      <trkpt lat="47.55366" lon="6.84424">
        <ele>411.5</ele>
        <time>2010-05-29T13:44:27Z</time>
      </trkpt>
      <trkpt lat="47.55361" lon="6.84435">
        <ele>411</ele>
        <time>2010-05-29T13:44:28Z</time>
      </trkpt>
      <trkpt lat="47.55358" lon="6.84446">
        <ele>410.5</ele>
        <time>2010-05-29T13:44:29Z</time>
      </trkpt>
      <trkpt lat="47.55355" lon="6.84458">
        <ele>410</ele>
        <time>2010-05-29T13:44:30Z</time>
      </trkpt>
      <trkpt lat="47.55352" lon="6.84471">
        <ele>410.5</ele>
        <time>2010-05-29T13:44:31Z</time>
      </trkpt>
      <trkpt lat="47.5535" lon="6.84483">
        <ele>410.5</ele>
        <time>2010-05-29T13:44:32Z</time>
      </trkpt>
      <trkpt lat="47.55349" lon="6.84496">
        <ele>410</ele>
        <time>2010-05-29T13:44:33Z</time>
      </trkpt>
      <trkpt lat="47.55348" lon="6.84509">
        <ele>409.5</ele>
        <time>2010-05-29T13:44:34Z</time>
      </trkpt>
      <trkpt lat="47.55347" lon="6.84522">
        <ele>409</ele>
        <time>2010-05-29T13:44:35Z</time>
      </trkpt>
      <trkpt lat="47.55346" lon="6.84536">
        <ele>409</ele>
        <time>2010-05-29T13:44:36Z</time>
      </trkpt>
      <trkpt lat="47.55346" lon="6.84549">
        <ele>408.5</ele>
        <time>2010-05-29T13:44:37Z</time>
      </trkpt>
      <trkpt lat="47.55347" lon="6.84563">
        <ele>408</ele>
        <time>2010-05-29T13:44:38Z</time>
      </trkpt>
      <trkpt lat="47.55349" lon="6.84577">
        <ele>407.5</ele>
        <time>2010-05-29T13:44:39Z</time>
      </trkpt>
      <trkpt lat="47.55352" lon="6.84588">
        <ele>407.5</ele>
        <time>2010-05-29T13:44:40Z</time>
      </trkpt>
      <trkpt lat="47.55355" lon="6.84598">
        <ele>407.5</ele>
        <time>2010-05-29T13:44:41Z</time>
      </trkpt>
      <trkpt lat="47.55358" lon="6.84606">
        <ele>407</ele>
        <time>2010-05-29T13:44:42Z</time>
      </trkpt>
      <trkpt lat="47.55361" lon="6.84612">
        <ele>407</ele>
        <time>2010-05-29T13:44:43Z</time>
      </trkpt>
      <trkpt lat="47.55365" lon="6.84617">
        <ele>407</ele>
        <time>2010-05-29T13:44:44Z</time>
      </trkpt>
      <trkpt lat="47.5537" lon="6.84618">
        <ele>407.5</ele>
        <time>2010-05-29T13:44:45Z</time>
      </trkpt>
      <trkpt lat="47.55377" lon="6.84613">
        <ele>407</ele>
        <time>2010-05-29T13:44:47Z</time>
      </trkpt>
      <trkpt lat="47.55381" lon="6.84604">
        <ele>406.5</ele>
        <time>2010-05-29T13:44:49Z</time>
      </trkpt>
      <trkpt lat="47.55385" lon="6.84595">
        <ele>406.5</ele>
        <time>2010-05-29T13:44:51Z</time>
      </trkpt>
      <trkpt lat="47.55384" lon="6.84594">
        <ele>405.5</ele>
        <time>2010-05-29T13:44:57Z</time>
      </trkpt>
    </trkseg>
  </trk>
</gpx>